<?xml version="1.0" encoding="UTF-8"?>
<gpx version="1.1" creator="https://www.youtrack.es" xsi:schemaLocation="http://www.topografix.com/GPX/1/1 http://www.topografix.com/GPX/1/1/gpx.xsd http://www.garmin.com/xmlschemas/GpxExtensions/v3 http://www.garmin.com/xmlschemas/GpxExtensionsv3.xsd http://www.garmin.com/xmlschemas/TrackPointExtension/v1 http://www.garmin.com/xmlschemas/TrackPointExtensionv1.xsd" xmlns:gpxtpx="http://www.garmin.com/xmlschemas/TrackPointExtension/v1" xmlns:gpxx="http://www.garmin.com/xmlschemas/GpxExtensions/v3" xmlns:xsi="http://www.w3.org/2001/XMLSchema-instance">
  <metadata>
    <link href="https://www.youtrack.es">
      <text>YouTrack.es</text>
    </link>
    <time>2026-05-08T02:05:26Z</time>
  </metadata>
  <trk>
    <src>https://www.youtrack.es</src>
    <link href="https://www.youtrack.es/ruta/38398-veleta">
      <text>YouTrack.es</text>
    </link>
    <trkseg>
      <trkpt lat="37.04964667" lon="-3.37115833">
        <ele>3208.0</ele>
        <time>2022-11-20T13:04:07.000Z</time>
      </trkpt>
      <trkpt lat="37.04964667" lon="-3.37115833">
        <ele>3208.0</ele>
        <time>2022-11-20T13:04:08.000Z</time>
      </trkpt>
      <trkpt lat="37.049645" lon="-3.371165">
        <ele>3208.0</ele>
        <time>2022-11-20T13:04:09.000Z</time>
      </trkpt>
      <trkpt lat="37.04964333" lon="-3.37117167">
        <ele>3207.0</ele>
        <time>2022-11-20T13:04:10.000Z</time>
      </trkpt>
      <trkpt lat="37.04964" lon="-3.37117667">
        <ele>3207.0</ele>
        <time>2022-11-20T13:04:11.000Z</time>
      </trkpt>
      <trkpt lat="37.049635" lon="-3.37118333">
        <ele>3207.0</ele>
        <time>2022-11-20T13:04:12.000Z</time>
      </trkpt>
      <trkpt lat="37.04963167" lon="-3.37118833">
        <ele>3207.0</ele>
        <time>2022-11-20T13:04:13.000Z</time>
      </trkpt>
      <trkpt lat="37.04962833" lon="-3.37119333">
        <ele>3206.0</ele>
        <time>2022-11-20T13:04:14.000Z</time>
      </trkpt>
      <trkpt lat="37.04962667" lon="-3.37119833">
        <ele>3206.0</ele>
        <time>2022-11-20T13:04:15.000Z</time>
      </trkpt>
      <trkpt lat="37.04962333" lon="-3.371205">
        <ele>3206.0</ele>
        <time>2022-11-20T13:04:16.000Z</time>
      </trkpt>
      <trkpt lat="37.04961833" lon="-3.37121">
        <ele>3205.0</ele>
        <time>2022-11-20T13:04:17.000Z</time>
      </trkpt>
      <trkpt lat="37.049615" lon="-3.37121667">
        <ele>3205.0</ele>
        <time>2022-11-20T13:04:18.000Z</time>
      </trkpt>
      <trkpt lat="37.04961167" lon="-3.371225">
        <ele>3205.0</ele>
        <time>2022-11-20T13:04:19.000Z</time>
      </trkpt>
      <trkpt lat="37.04960833" lon="-3.37123333">
        <ele>3205.0</ele>
        <time>2022-11-20T13:04:20.000Z</time>
      </trkpt>
      <trkpt lat="37.049605" lon="-3.37124167">
        <ele>3204.0</ele>
        <time>2022-11-20T13:04:21.000Z</time>
      </trkpt>
      <trkpt lat="37.0496" lon="-3.37125167">
        <ele>3204.0</ele>
        <time>2022-11-20T13:04:22.000Z</time>
      </trkpt>
      <trkpt lat="37.04959333" lon="-3.37126">
        <ele>3204.0</ele>
        <time>2022-11-20T13:04:23.000Z</time>
      </trkpt>
      <trkpt lat="37.04958667" lon="-3.37127">
        <ele>3203.0</ele>
        <time>2022-11-20T13:04:24.000Z</time>
      </trkpt>
      <trkpt lat="37.04958167" lon="-3.37127667">
        <ele>3203.0</ele>
        <time>2022-11-20T13:04:25.000Z</time>
      </trkpt>
      <trkpt lat="37.04957667" lon="-3.37128333">
        <ele>3203.0</ele>
        <time>2022-11-20T13:04:26.000Z</time>
      </trkpt>
      <trkpt lat="37.04957167" lon="-3.37129">
        <ele>3203.0</ele>
        <time>2022-11-20T13:04:27.000Z</time>
      </trkpt>
      <trkpt lat="37.04956667" lon="-3.371295">
        <ele>3203.0</ele>
        <time>2022-11-20T13:04:28.000Z</time>
      </trkpt>
      <trkpt lat="37.04956167" lon="-3.37129833">
        <ele>3202.0</ele>
        <time>2022-11-20T13:04:29.000Z</time>
      </trkpt>
      <trkpt lat="37.04955833" lon="-3.37130333">
        <ele>3202.0</ele>
        <time>2022-11-20T13:04:30.000Z</time>
      </trkpt>
      <trkpt lat="37.04955167" lon="-3.37130667">
        <ele>3202.0</ele>
        <time>2022-11-20T13:04:31.000Z</time>
      </trkpt>
      <trkpt lat="37.04954833" lon="-3.37130833">
        <ele>3202.0</ele>
        <time>2022-11-20T13:04:32.000Z</time>
      </trkpt>
      <trkpt lat="37.04954667" lon="-3.37131167">
        <ele>3202.0</ele>
        <time>2022-11-20T13:04:33.000Z</time>
      </trkpt>
      <trkpt lat="37.04954333" lon="-3.37131167">
        <ele>3202.0</ele>
        <time>2022-11-20T13:04:34.000Z</time>
      </trkpt>
      <trkpt lat="37.04954167" lon="-3.37131333">
        <ele>3202.0</ele>
        <time>2022-11-20T13:04:35.000Z</time>
      </trkpt>
      <trkpt lat="37.04954167" lon="-3.37131333">
        <ele>3202.0</ele>
        <time>2022-11-20T13:04:36.000Z</time>
      </trkpt>
      <trkpt lat="37.04954167" lon="-3.37131333">
        <ele>3202.0</ele>
        <time>2022-11-20T13:04:37.000Z</time>
      </trkpt>
      <trkpt lat="37.04954" lon="-3.371315">
        <ele>3202.0</ele>
        <time>2022-11-20T13:04:38.000Z</time>
      </trkpt>
      <trkpt lat="37.04953833" lon="-3.37131667">
        <ele>3202.0</ele>
        <time>2022-11-20T13:04:39.000Z</time>
      </trkpt>
      <trkpt lat="37.04953833" lon="-3.37131667">
        <ele>3202.0</ele>
        <time>2022-11-20T13:04:40.000Z</time>
      </trkpt>
      <trkpt lat="37.04953833" lon="-3.37131833">
        <ele>3202.0</ele>
        <time>2022-11-20T13:04:41.000Z</time>
      </trkpt>
      <trkpt lat="37.04953833" lon="-3.37131833">
        <ele>3202.0</ele>
        <time>2022-11-20T13:04:42.000Z</time>
      </trkpt>
      <trkpt lat="37.04953833" lon="-3.37131833">
        <ele>3202.0</ele>
        <time>2022-11-20T13:04:43.000Z</time>
      </trkpt>
      <trkpt lat="37.04953833" lon="-3.37131833">
        <ele>3202.0</ele>
        <time>2022-11-20T13:04:44.000Z</time>
      </trkpt>
      <trkpt lat="37.04953833" lon="-3.37132">
        <ele>3202.0</ele>
        <time>2022-11-20T13:04:45.000Z</time>
      </trkpt>
      <trkpt lat="37.04953833" lon="-3.37132">
        <ele>3202.0</ele>
        <time>2022-11-20T13:04:46.000Z</time>
      </trkpt>
      <trkpt lat="37.04953833" lon="-3.37132">
        <ele>3202.0</ele>
        <time>2022-11-20T13:04:47.000Z</time>
      </trkpt>
      <trkpt lat="37.04953833" lon="-3.37132">
        <ele>3202.0</ele>
        <time>2022-11-20T13:04:48.000Z</time>
      </trkpt>
      <trkpt lat="37.04954" lon="-3.37131833">
        <ele>3202.0</ele>
        <time>2022-11-20T13:04:49.000Z</time>
      </trkpt>
      <trkpt lat="37.04954" lon="-3.37132">
        <ele>3202.0</ele>
        <time>2022-11-20T13:04:50.000Z</time>
      </trkpt>
      <trkpt lat="37.04953833" lon="-3.37132">
        <ele>3202.0</ele>
        <time>2022-11-20T13:04:51.000Z</time>
      </trkpt>
      <trkpt lat="37.04953833" lon="-3.37132167">
        <ele>3202.0</ele>
        <time>2022-11-20T13:04:52.000Z</time>
      </trkpt>
      <trkpt lat="37.049535" lon="-3.371325">
        <ele>3202.0</ele>
        <time>2022-11-20T13:04:53.000Z</time>
      </trkpt>
      <trkpt lat="37.04953167" lon="-3.37132667">
        <ele>3202.0</ele>
        <time>2022-11-20T13:04:54.000Z</time>
      </trkpt>
      <trkpt lat="37.04952667" lon="-3.37133167">
        <ele>3202.0</ele>
        <time>2022-11-20T13:04:55.000Z</time>
      </trkpt>
      <trkpt lat="37.04952167" lon="-3.37133667">
        <ele>3201.0</ele>
        <time>2022-11-20T13:04:56.000Z</time>
      </trkpt>
      <trkpt lat="37.04951667" lon="-3.37134333">
        <ele>3201.0</ele>
        <time>2022-11-20T13:04:57.000Z</time>
      </trkpt>
      <trkpt lat="37.04951333" lon="-3.37135">
        <ele>3201.0</ele>
        <time>2022-11-20T13:04:58.000Z</time>
      </trkpt>
      <trkpt lat="37.04950667" lon="-3.37135333">
        <ele>3201.0</ele>
        <time>2022-11-20T13:04:59.000Z</time>
      </trkpt>
      <trkpt lat="37.04950167" lon="-3.37135333">
        <ele>3201.0</ele>
        <time>2022-11-20T13:05:00.000Z</time>
      </trkpt>
      <trkpt lat="37.04949667" lon="-3.37135167">
        <ele>3201.0</ele>
        <time>2022-11-20T13:05:01.000Z</time>
      </trkpt>
      <trkpt lat="37.04949167" lon="-3.37135167">
        <ele>3201.0</ele>
        <time>2022-11-20T13:05:02.000Z</time>
      </trkpt>
      <trkpt lat="37.049485" lon="-3.37135167">
        <ele>3200.0</ele>
        <time>2022-11-20T13:05:03.000Z</time>
      </trkpt>
      <trkpt lat="37.04947833" lon="-3.37135333">
        <ele>3200.0</ele>
        <time>2022-11-20T13:05:04.000Z</time>
      </trkpt>
      <trkpt lat="37.04947333" lon="-3.37135833">
        <ele>3200.0</ele>
        <time>2022-11-20T13:05:05.000Z</time>
      </trkpt>
      <trkpt lat="37.04946833" lon="-3.37136667">
        <ele>3200.0</ele>
        <time>2022-11-20T13:05:06.000Z</time>
      </trkpt>
      <trkpt lat="37.04946667" lon="-3.37137333">
        <ele>3200.0</ele>
        <time>2022-11-20T13:05:07.000Z</time>
      </trkpt>
      <trkpt lat="37.04947" lon="-3.371385">
        <ele>3200.0</ele>
        <time>2022-11-20T13:05:08.000Z</time>
      </trkpt>
      <trkpt lat="37.04947333" lon="-3.37139667">
        <ele>3199.0</ele>
        <time>2022-11-20T13:05:09.000Z</time>
      </trkpt>
      <trkpt lat="37.04948" lon="-3.37140667">
        <ele>3199.0</ele>
        <time>2022-11-20T13:05:10.000Z</time>
      </trkpt>
      <trkpt lat="37.04948833" lon="-3.37141667">
        <ele>3199.0</ele>
        <time>2022-11-20T13:05:11.000Z</time>
      </trkpt>
      <trkpt lat="37.04949667" lon="-3.37142833">
        <ele>3199.0</ele>
        <time>2022-11-20T13:05:12.000Z</time>
      </trkpt>
      <trkpt lat="37.049505" lon="-3.37143667">
        <ele>3199.0</ele>
        <time>2022-11-20T13:05:13.000Z</time>
      </trkpt>
      <trkpt lat="37.04951333" lon="-3.37144833">
        <ele>3199.0</ele>
        <time>2022-11-20T13:05:14.000Z</time>
      </trkpt>
      <trkpt lat="37.04952167" lon="-3.37145833">
        <ele>3199.0</ele>
        <time>2022-11-20T13:05:15.000Z</time>
      </trkpt>
      <trkpt lat="37.04953" lon="-3.37147">
        <ele>3199.0</ele>
        <time>2022-11-20T13:05:16.000Z</time>
      </trkpt>
      <trkpt lat="37.04954" lon="-3.37147833">
        <ele>3199.0</ele>
        <time>2022-11-20T13:05:17.000Z</time>
      </trkpt>
      <trkpt lat="37.04954833" lon="-3.37148667">
        <ele>3199.0</ele>
        <time>2022-11-20T13:05:18.000Z</time>
      </trkpt>
      <trkpt lat="37.04955833" lon="-3.371495">
        <ele>3199.0</ele>
        <time>2022-11-20T13:05:19.000Z</time>
      </trkpt>
      <trkpt lat="37.04956667" lon="-3.37150667">
        <ele>3199.0</ele>
        <time>2022-11-20T13:05:20.000Z</time>
      </trkpt>
      <trkpt lat="37.049575" lon="-3.371515">
        <ele>3199.0</ele>
        <time>2022-11-20T13:05:21.000Z</time>
      </trkpt>
      <trkpt lat="37.049585" lon="-3.37152">
        <ele>3199.0</ele>
        <time>2022-11-20T13:05:22.000Z</time>
      </trkpt>
      <trkpt lat="37.04959667" lon="-3.37152667">
        <ele>3199.0</ele>
        <time>2022-11-20T13:05:23.000Z</time>
      </trkpt>
      <trkpt lat="37.04961" lon="-3.37153167">
        <ele>3199.0</ele>
        <time>2022-11-20T13:05:24.000Z</time>
      </trkpt>
      <trkpt lat="37.04962333" lon="-3.37153833">
        <ele>3199.0</ele>
        <time>2022-11-20T13:05:25.000Z</time>
      </trkpt>
      <trkpt lat="37.04963167" lon="-3.37154167">
        <ele>3199.0</ele>
        <time>2022-11-20T13:05:26.000Z</time>
      </trkpt>
      <trkpt lat="37.04963667" lon="-3.37154333">
        <ele>3199.0</ele>
        <time>2022-11-20T13:05:27.000Z</time>
      </trkpt>
      <trkpt lat="37.04964667" lon="-3.37154833">
        <ele>3199.0</ele>
        <time>2022-11-20T13:05:28.000Z</time>
      </trkpt>
      <trkpt lat="37.049655" lon="-3.37155333">
        <ele>3199.0</ele>
        <time>2022-11-20T13:05:29.000Z</time>
      </trkpt>
      <trkpt lat="37.04966333" lon="-3.37155833">
        <ele>3199.0</ele>
        <time>2022-11-20T13:05:30.000Z</time>
      </trkpt>
      <trkpt lat="37.04967167" lon="-3.37156333">
        <ele>3199.0</ele>
        <time>2022-11-20T13:05:31.000Z</time>
      </trkpt>
      <trkpt lat="37.04967333" lon="-3.37156667">
        <ele>3199.0</ele>
        <time>2022-11-20T13:05:32.000Z</time>
      </trkpt>
      <trkpt lat="37.04967333" lon="-3.37156667">
        <ele>3199.0</ele>
        <time>2022-11-20T13:05:33.000Z</time>
      </trkpt>
      <trkpt lat="37.04967333" lon="-3.37156667">
        <ele>3199.0</ele>
        <time>2022-11-20T13:05:34.000Z</time>
      </trkpt>
      <trkpt lat="37.04967333" lon="-3.37156667">
        <ele>3199.0</ele>
        <time>2022-11-20T13:05:35.000Z</time>
      </trkpt>
      <trkpt lat="37.049675" lon="-3.37157">
        <ele>3199.0</ele>
        <time>2022-11-20T13:05:36.000Z</time>
      </trkpt>
      <trkpt lat="37.04968333" lon="-3.37157833">
        <ele>3199.0</ele>
        <time>2022-11-20T13:05:37.000Z</time>
      </trkpt>
      <trkpt lat="37.04969167" lon="-3.37159">
        <ele>3199.0</ele>
        <time>2022-11-20T13:05:38.000Z</time>
      </trkpt>
      <trkpt lat="37.0497" lon="-3.3716">
        <ele>3199.0</ele>
        <time>2022-11-20T13:05:39.000Z</time>
      </trkpt>
      <trkpt lat="37.04970833" lon="-3.37161167">
        <ele>3199.0</ele>
        <time>2022-11-20T13:05:40.000Z</time>
      </trkpt>
      <trkpt lat="37.049715" lon="-3.37162">
        <ele>3199.0</ele>
        <time>2022-11-20T13:05:41.000Z</time>
      </trkpt>
      <trkpt lat="37.049725" lon="-3.37163333">
        <ele>3199.0</ele>
        <time>2022-11-20T13:05:42.000Z</time>
      </trkpt>
      <trkpt lat="37.04973333" lon="-3.37164333">
        <ele>3199.0</ele>
        <time>2022-11-20T13:05:43.000Z</time>
      </trkpt>
      <trkpt lat="37.04974167" lon="-3.37165667">
        <ele>3199.0</ele>
        <time>2022-11-20T13:05:44.000Z</time>
      </trkpt>
      <trkpt lat="37.04974833" lon="-3.37166667">
        <ele>3199.0</ele>
        <time>2022-11-20T13:05:45.000Z</time>
      </trkpt>
      <trkpt lat="37.049755" lon="-3.37167667">
        <ele>3199.0</ele>
        <time>2022-11-20T13:05:46.000Z</time>
      </trkpt>
      <trkpt lat="37.04976167" lon="-3.37168667">
        <ele>3199.0</ele>
        <time>2022-11-20T13:05:47.000Z</time>
      </trkpt>
      <trkpt lat="37.04977" lon="-3.37169667">
        <ele>3199.0</ele>
        <time>2022-11-20T13:05:48.000Z</time>
      </trkpt>
      <trkpt lat="37.04977833" lon="-3.37170667">
        <ele>3199.0</ele>
        <time>2022-11-20T13:05:49.000Z</time>
      </trkpt>
      <trkpt lat="37.04978667" lon="-3.37171833">
        <ele>3199.0</ele>
        <time>2022-11-20T13:05:50.000Z</time>
      </trkpt>
      <trkpt lat="37.04979333" lon="-3.37173">
        <ele>3199.0</ele>
        <time>2022-11-20T13:05:51.000Z</time>
      </trkpt>
      <trkpt lat="37.0498" lon="-3.37174333">
        <ele>3199.0</ele>
        <time>2022-11-20T13:05:52.000Z</time>
      </trkpt>
      <trkpt lat="37.04980667" lon="-3.371755">
        <ele>3199.0</ele>
        <time>2022-11-20T13:05:53.000Z</time>
      </trkpt>
      <trkpt lat="37.04981333" lon="-3.371765">
        <ele>3199.0</ele>
        <time>2022-11-20T13:05:54.000Z</time>
      </trkpt>
      <trkpt lat="37.04982" lon="-3.37177667">
        <ele>3199.0</ele>
        <time>2022-11-20T13:05:55.000Z</time>
      </trkpt>
      <trkpt lat="37.049825" lon="-3.371785">
        <ele>3199.0</ele>
        <time>2022-11-20T13:05:56.000Z</time>
      </trkpt>
      <trkpt lat="37.04983167" lon="-3.371795">
        <ele>3199.0</ele>
        <time>2022-11-20T13:05:57.000Z</time>
      </trkpt>
      <trkpt lat="37.04983833" lon="-3.37180333">
        <ele>3199.0</ele>
        <time>2022-11-20T13:05:58.000Z</time>
      </trkpt>
      <trkpt lat="37.049845" lon="-3.37181167">
        <ele>3199.0</ele>
        <time>2022-11-20T13:05:59.000Z</time>
      </trkpt>
      <trkpt lat="37.04985167" lon="-3.37181833">
        <ele>3199.0</ele>
        <time>2022-11-20T13:06:00.000Z</time>
      </trkpt>
      <trkpt lat="37.04985833" lon="-3.37182833">
        <ele>3199.0</ele>
        <time>2022-11-20T13:06:01.000Z</time>
      </trkpt>
      <trkpt lat="37.04986833" lon="-3.37183833">
        <ele>3199.0</ele>
        <time>2022-11-20T13:06:02.000Z</time>
      </trkpt>
      <trkpt lat="37.04987833" lon="-3.37185167">
        <ele>3199.0</ele>
        <time>2022-11-20T13:06:03.000Z</time>
      </trkpt>
      <trkpt lat="37.04988833" lon="-3.37186333">
        <ele>3199.0</ele>
        <time>2022-11-20T13:06:04.000Z</time>
      </trkpt>
      <trkpt lat="37.04989833" lon="-3.37187333">
        <ele>3199.0</ele>
        <time>2022-11-20T13:06:05.000Z</time>
      </trkpt>
      <trkpt lat="37.04991" lon="-3.37188">
        <ele>3199.0</ele>
        <time>2022-11-20T13:06:06.000Z</time>
      </trkpt>
      <trkpt lat="37.04992333" lon="-3.371885">
        <ele>3199.0</ele>
        <time>2022-11-20T13:06:07.000Z</time>
      </trkpt>
      <trkpt lat="37.049935" lon="-3.37188833">
        <ele>3199.0</ele>
        <time>2022-11-20T13:06:08.000Z</time>
      </trkpt>
      <trkpt lat="37.04995" lon="-3.37189167">
        <ele>3199.0</ele>
        <time>2022-11-20T13:06:09.000Z</time>
      </trkpt>
      <trkpt lat="37.04996" lon="-3.37189667">
        <ele>3199.0</ele>
        <time>2022-11-20T13:06:10.000Z</time>
      </trkpt>
      <trkpt lat="37.049975" lon="-3.37190167">
        <ele>3199.0</ele>
        <time>2022-11-20T13:06:11.000Z</time>
      </trkpt>
      <trkpt lat="37.04998667" lon="-3.371905">
        <ele>3199.0</ele>
        <time>2022-11-20T13:06:12.000Z</time>
      </trkpt>
      <trkpt lat="37.04999833" lon="-3.371905">
        <ele>3199.0</ele>
        <time>2022-11-20T13:06:13.000Z</time>
      </trkpt>
      <trkpt lat="37.05001167" lon="-3.371905">
        <ele>3199.0</ele>
        <time>2022-11-20T13:06:14.000Z</time>
      </trkpt>
      <trkpt lat="37.05002667" lon="-3.37190833">
        <ele>3199.0</ele>
        <time>2022-11-20T13:06:15.000Z</time>
      </trkpt>
      <trkpt lat="37.05003833" lon="-3.371915">
        <ele>3199.0</ele>
        <time>2022-11-20T13:06:16.000Z</time>
      </trkpt>
      <trkpt lat="37.05005167" lon="-3.37192167">
        <ele>3199.0</ele>
        <time>2022-11-20T13:06:17.000Z</time>
      </trkpt>
      <trkpt lat="37.05006333" lon="-3.37192333">
        <ele>3199.0</ele>
        <time>2022-11-20T13:06:18.000Z</time>
      </trkpt>
      <trkpt lat="37.05007667" lon="-3.371925">
        <ele>3200.0</ele>
        <time>2022-11-20T13:06:19.000Z</time>
      </trkpt>
      <trkpt lat="37.05008833" lon="-3.37192667">
        <ele>3200.0</ele>
        <time>2022-11-20T13:06:20.000Z</time>
      </trkpt>
      <trkpt lat="37.05010333" lon="-3.37192833">
        <ele>3200.0</ele>
        <time>2022-11-20T13:06:21.000Z</time>
      </trkpt>
      <trkpt lat="37.05011333" lon="-3.37193">
        <ele>3200.0</ele>
        <time>2022-11-20T13:06:22.000Z</time>
      </trkpt>
      <trkpt lat="37.05012333" lon="-3.37193167">
        <ele>3200.0</ele>
        <time>2022-11-20T13:06:23.000Z</time>
      </trkpt>
      <trkpt lat="37.05012833" lon="-3.37193333">
        <ele>3200.0</ele>
        <time>2022-11-20T13:06:24.000Z</time>
      </trkpt>
      <trkpt lat="37.05013833" lon="-3.37193333">
        <ele>3200.0</ele>
        <time>2022-11-20T13:06:25.000Z</time>
      </trkpt>
      <trkpt lat="37.05015" lon="-3.371935">
        <ele>3200.0</ele>
        <time>2022-11-20T13:06:26.000Z</time>
      </trkpt>
      <trkpt lat="37.05016167" lon="-3.371935">
        <ele>3200.0</ele>
        <time>2022-11-20T13:06:27.000Z</time>
      </trkpt>
      <trkpt lat="37.05017333" lon="-3.371935">
        <ele>3200.0</ele>
        <time>2022-11-20T13:06:28.000Z</time>
      </trkpt>
      <trkpt lat="37.05018667" lon="-3.37193333">
        <ele>3200.0</ele>
        <time>2022-11-20T13:06:29.000Z</time>
      </trkpt>
      <trkpt lat="37.0502" lon="-3.37193333">
        <ele>3200.0</ele>
        <time>2022-11-20T13:06:30.000Z</time>
      </trkpt>
      <trkpt lat="37.05021167" lon="-3.37193167">
        <ele>3200.0</ele>
        <time>2022-11-20T13:06:31.000Z</time>
      </trkpt>
      <trkpt lat="37.050225" lon="-3.37192833">
        <ele>3200.0</ele>
        <time>2022-11-20T13:06:32.000Z</time>
      </trkpt>
      <trkpt lat="37.05023667" lon="-3.371925">
        <ele>3200.0</ele>
        <time>2022-11-20T13:06:33.000Z</time>
      </trkpt>
      <trkpt lat="37.05024833" lon="-3.37192167">
        <ele>3200.0</ele>
        <time>2022-11-20T13:06:34.000Z</time>
      </trkpt>
      <trkpt lat="37.05025833" lon="-3.37191667">
        <ele>3200.0</ele>
        <time>2022-11-20T13:06:35.000Z</time>
      </trkpt>
      <trkpt lat="37.05026833" lon="-3.371915">
        <ele>3200.0</ele>
        <time>2022-11-20T13:06:36.000Z</time>
      </trkpt>
      <trkpt lat="37.05027833" lon="-3.37191833">
        <ele>3201.0</ele>
        <time>2022-11-20T13:06:37.000Z</time>
      </trkpt>
      <trkpt lat="37.050285" lon="-3.37191833">
        <ele>3200.0</ele>
        <time>2022-11-20T13:06:38.000Z</time>
      </trkpt>
      <trkpt lat="37.050295" lon="-3.37192">
        <ele>3200.0</ele>
        <time>2022-11-20T13:06:39.000Z</time>
      </trkpt>
      <trkpt lat="37.05030333" lon="-3.37192167">
        <ele>3200.0</ele>
        <time>2022-11-20T13:06:40.000Z</time>
      </trkpt>
      <trkpt lat="37.05031" lon="-3.37192333">
        <ele>3200.0</ele>
        <time>2022-11-20T13:06:41.000Z</time>
      </trkpt>
      <trkpt lat="37.05031667" lon="-3.371925">
        <ele>3200.0</ele>
        <time>2022-11-20T13:06:42.000Z</time>
      </trkpt>
      <trkpt lat="37.050325" lon="-3.37192333">
        <ele>3200.0</ele>
        <time>2022-11-20T13:06:43.000Z</time>
      </trkpt>
      <trkpt lat="37.05033333" lon="-3.37192333">
        <ele>3200.0</ele>
        <time>2022-11-20T13:06:44.000Z</time>
      </trkpt>
      <trkpt lat="37.05034" lon="-3.37192333">
        <ele>3200.0</ele>
        <time>2022-11-20T13:06:45.000Z</time>
      </trkpt>
      <trkpt lat="37.05034833" lon="-3.371925">
        <ele>3200.0</ele>
        <time>2022-11-20T13:06:46.000Z</time>
      </trkpt>
      <trkpt lat="37.050355" lon="-3.37192667">
        <ele>3200.0</ele>
        <time>2022-11-20T13:06:47.000Z</time>
      </trkpt>
      <trkpt lat="37.05036333" lon="-3.37192667">
        <ele>3200.0</ele>
        <time>2022-11-20T13:06:48.000Z</time>
      </trkpt>
      <trkpt lat="37.05037333" lon="-3.37193">
        <ele>3200.0</ele>
        <time>2022-11-20T13:06:49.000Z</time>
      </trkpt>
      <trkpt lat="37.05038167" lon="-3.37193">
        <ele>3200.0</ele>
        <time>2022-11-20T13:06:50.000Z</time>
      </trkpt>
      <trkpt lat="37.05039167" lon="-3.37193">
        <ele>3200.0</ele>
        <time>2022-11-20T13:06:51.000Z</time>
      </trkpt>
      <trkpt lat="37.0504" lon="-3.37193">
        <ele>3200.0</ele>
        <time>2022-11-20T13:06:52.000Z</time>
      </trkpt>
      <trkpt lat="37.05040833" lon="-3.37192833">
        <ele>3200.0</ele>
        <time>2022-11-20T13:06:53.000Z</time>
      </trkpt>
      <trkpt lat="37.05041667" lon="-3.37192833">
        <ele>3200.0</ele>
        <time>2022-11-20T13:06:54.000Z</time>
      </trkpt>
      <trkpt lat="37.050425" lon="-3.37193">
        <ele>3199.0</ele>
        <time>2022-11-20T13:06:55.000Z</time>
      </trkpt>
      <trkpt lat="37.05043667" lon="-3.37193167">
        <ele>3199.0</ele>
        <time>2022-11-20T13:06:56.000Z</time>
      </trkpt>
      <trkpt lat="37.050445" lon="-3.37193333">
        <ele>3199.0</ele>
        <time>2022-11-20T13:06:57.000Z</time>
      </trkpt>
      <trkpt lat="37.05045667" lon="-3.371935">
        <ele>3199.0</ele>
        <time>2022-11-20T13:06:58.000Z</time>
      </trkpt>
      <trkpt lat="37.05047" lon="-3.37193833">
        <ele>3199.0</ele>
        <time>2022-11-20T13:06:59.000Z</time>
      </trkpt>
      <trkpt lat="37.05048167" lon="-3.37194167">
        <ele>3199.0</ele>
        <time>2022-11-20T13:07:00.000Z</time>
      </trkpt>
      <trkpt lat="37.050495" lon="-3.37194667">
        <ele>3199.0</ele>
        <time>2022-11-20T13:07:01.000Z</time>
      </trkpt>
      <trkpt lat="37.050505" lon="-3.371955">
        <ele>3199.0</ele>
        <time>2022-11-20T13:07:02.000Z</time>
      </trkpt>
      <trkpt lat="37.050515" lon="-3.371965">
        <ele>3199.0</ele>
        <time>2022-11-20T13:07:03.000Z</time>
      </trkpt>
      <trkpt lat="37.05052333" lon="-3.371975">
        <ele>3199.0</ele>
        <time>2022-11-20T13:07:04.000Z</time>
      </trkpt>
      <trkpt lat="37.05053333" lon="-3.37198333">
        <ele>3199.0</ele>
        <time>2022-11-20T13:07:05.000Z</time>
      </trkpt>
      <trkpt lat="37.05054333" lon="-3.37199167">
        <ele>3199.0</ele>
        <time>2022-11-20T13:07:06.000Z</time>
      </trkpt>
      <trkpt lat="37.050555" lon="-3.37199833">
        <ele>3199.0</ele>
        <time>2022-11-20T13:07:07.000Z</time>
      </trkpt>
      <trkpt lat="37.05056333" lon="-3.372005">
        <ele>3199.0</ele>
        <time>2022-11-20T13:07:08.000Z</time>
      </trkpt>
      <trkpt lat="37.05057333" lon="-3.37201333">
        <ele>3199.0</ele>
        <time>2022-11-20T13:07:09.000Z</time>
      </trkpt>
      <trkpt lat="37.05058167" lon="-3.37202167">
        <ele>3199.0</ele>
        <time>2022-11-20T13:07:10.000Z</time>
      </trkpt>
      <trkpt lat="37.05059" lon="-3.37203167">
        <ele>3199.0</ele>
        <time>2022-11-20T13:07:11.000Z</time>
      </trkpt>
      <trkpt lat="37.05059833" lon="-3.37204167">
        <ele>3199.0</ele>
        <time>2022-11-20T13:07:12.000Z</time>
      </trkpt>
      <trkpt lat="37.05060667" lon="-3.37205">
        <ele>3199.0</ele>
        <time>2022-11-20T13:07:13.000Z</time>
      </trkpt>
      <trkpt lat="37.050615" lon="-3.37206">
        <ele>3199.0</ele>
        <time>2022-11-20T13:07:14.000Z</time>
      </trkpt>
      <trkpt lat="37.05062333" lon="-3.372065">
        <ele>3199.0</ele>
        <time>2022-11-20T13:07:15.000Z</time>
      </trkpt>
      <trkpt lat="37.05063167" lon="-3.37207">
        <ele>3199.0</ele>
        <time>2022-11-20T13:07:16.000Z</time>
      </trkpt>
      <trkpt lat="37.05064" lon="-3.37207667">
        <ele>3199.0</ele>
        <time>2022-11-20T13:07:17.000Z</time>
      </trkpt>
      <trkpt lat="37.05064667" lon="-3.37208167">
        <ele>3199.0</ele>
        <time>2022-11-20T13:07:18.000Z</time>
      </trkpt>
      <trkpt lat="37.050655" lon="-3.37208667">
        <ele>3199.0</ele>
        <time>2022-11-20T13:07:19.000Z</time>
      </trkpt>
      <trkpt lat="37.05066667" lon="-3.37209167">
        <ele>3199.0</ele>
        <time>2022-11-20T13:07:20.000Z</time>
      </trkpt>
      <trkpt lat="37.05067833" lon="-3.372095">
        <ele>3199.0</ele>
        <time>2022-11-20T13:07:21.000Z</time>
      </trkpt>
      <trkpt lat="37.05068667" lon="-3.372095">
        <ele>3199.0</ele>
        <time>2022-11-20T13:07:22.000Z</time>
      </trkpt>
      <trkpt lat="37.05069" lon="-3.37209333">
        <ele>3199.0</ele>
        <time>2022-11-20T13:07:23.000Z</time>
      </trkpt>
      <trkpt lat="37.05069167" lon="-3.37209167">
        <ele>3199.0</ele>
        <time>2022-11-20T13:07:24.000Z</time>
      </trkpt>
      <trkpt lat="37.050695" lon="-3.37208833">
        <ele>3199.0</ele>
        <time>2022-11-20T13:07:25.000Z</time>
      </trkpt>
      <trkpt lat="37.050695" lon="-3.372085">
        <ele>3199.0</ele>
        <time>2022-11-20T13:07:26.000Z</time>
      </trkpt>
      <trkpt lat="37.05069833" lon="-3.37208">
        <ele>3199.0</ele>
        <time>2022-11-20T13:07:27.000Z</time>
      </trkpt>
      <trkpt lat="37.05070333" lon="-3.37207333">
        <ele>3199.0</ele>
        <time>2022-11-20T13:07:28.000Z</time>
      </trkpt>
      <trkpt lat="37.05071" lon="-3.37207167">
        <ele>3199.0</ele>
        <time>2022-11-20T13:07:29.000Z</time>
      </trkpt>
      <trkpt lat="37.05072167" lon="-3.372075">
        <ele>3199.0</ele>
        <time>2022-11-20T13:07:30.000Z</time>
      </trkpt>
      <trkpt lat="37.05073167" lon="-3.37208333">
        <ele>3199.0</ele>
        <time>2022-11-20T13:07:31.000Z</time>
      </trkpt>
      <trkpt lat="37.05074167" lon="-3.37209">
        <ele>3199.0</ele>
        <time>2022-11-20T13:07:32.000Z</time>
      </trkpt>
      <trkpt lat="37.05075" lon="-3.37209667">
        <ele>3199.0</ele>
        <time>2022-11-20T13:07:33.000Z</time>
      </trkpt>
      <trkpt lat="37.05076167" lon="-3.37210333">
        <ele>3199.0</ele>
        <time>2022-11-20T13:07:34.000Z</time>
      </trkpt>
      <trkpt lat="37.05077333" lon="-3.37211167">
        <ele>3199.0</ele>
        <time>2022-11-20T13:07:35.000Z</time>
      </trkpt>
      <trkpt lat="37.050785" lon="-3.37212">
        <ele>3199.0</ele>
        <time>2022-11-20T13:07:36.000Z</time>
      </trkpt>
      <trkpt lat="37.050795" lon="-3.37212833">
        <ele>3199.0</ele>
        <time>2022-11-20T13:07:37.000Z</time>
      </trkpt>
      <trkpt lat="37.050805" lon="-3.37213833">
        <ele>3199.0</ele>
        <time>2022-11-20T13:07:38.000Z</time>
      </trkpt>
      <trkpt lat="37.050815" lon="-3.37214833">
        <ele>3199.0</ele>
        <time>2022-11-20T13:07:39.000Z</time>
      </trkpt>
      <trkpt lat="37.050825" lon="-3.37216">
        <ele>3199.0</ele>
        <time>2022-11-20T13:07:40.000Z</time>
      </trkpt>
      <trkpt lat="37.05083333" lon="-3.37217333">
        <ele>3199.0</ele>
        <time>2022-11-20T13:07:41.000Z</time>
      </trkpt>
      <trkpt lat="37.05084167" lon="-3.37218333">
        <ele>3199.0</ele>
        <time>2022-11-20T13:07:42.000Z</time>
      </trkpt>
      <trkpt lat="37.05085333" lon="-3.37218833">
        <ele>3199.0</ele>
        <time>2022-11-20T13:07:43.000Z</time>
      </trkpt>
      <trkpt lat="37.05086333" lon="-3.37219333">
        <ele>3199.0</ele>
        <time>2022-11-20T13:07:44.000Z</time>
      </trkpt>
      <trkpt lat="37.050875" lon="-3.37220167">
        <ele>3200.0</ele>
        <time>2022-11-20T13:07:45.000Z</time>
      </trkpt>
      <trkpt lat="37.05088333" lon="-3.37220833">
        <ele>3200.0</ele>
        <time>2022-11-20T13:07:46.000Z</time>
      </trkpt>
      <trkpt lat="37.05089333" lon="-3.372215">
        <ele>3200.0</ele>
        <time>2022-11-20T13:07:47.000Z</time>
      </trkpt>
      <trkpt lat="37.050905" lon="-3.37221833">
        <ele>3200.0</ele>
        <time>2022-11-20T13:07:48.000Z</time>
      </trkpt>
      <trkpt lat="37.05091667" lon="-3.37222333">
        <ele>3200.0</ele>
        <time>2022-11-20T13:07:49.000Z</time>
      </trkpt>
      <trkpt lat="37.05092833" lon="-3.37222833">
        <ele>3200.0</ele>
        <time>2022-11-20T13:07:50.000Z</time>
      </trkpt>
      <trkpt lat="37.05094" lon="-3.37223333">
        <ele>3200.0</ele>
        <time>2022-11-20T13:07:51.000Z</time>
      </trkpt>
      <trkpt lat="37.05095167" lon="-3.37224167">
        <ele>3200.0</ele>
        <time>2022-11-20T13:07:52.000Z</time>
      </trkpt>
      <trkpt lat="37.05096333" lon="-3.37224833">
        <ele>3200.0</ele>
        <time>2022-11-20T13:07:53.000Z</time>
      </trkpt>
      <trkpt lat="37.05097333" lon="-3.372255">
        <ele>3200.0</ele>
        <time>2022-11-20T13:07:54.000Z</time>
      </trkpt>
      <trkpt lat="37.050985" lon="-3.37226167">
        <ele>3200.0</ele>
        <time>2022-11-20T13:07:55.000Z</time>
      </trkpt>
      <trkpt lat="37.05099667" lon="-3.37226833">
        <ele>3200.0</ele>
        <time>2022-11-20T13:07:56.000Z</time>
      </trkpt>
      <trkpt lat="37.05100833" lon="-3.37227667">
        <ele>3200.0</ele>
        <time>2022-11-20T13:07:57.000Z</time>
      </trkpt>
      <trkpt lat="37.05101833" lon="-3.37228">
        <ele>3200.0</ele>
        <time>2022-11-20T13:07:58.000Z</time>
      </trkpt>
      <trkpt lat="37.05103167" lon="-3.372285">
        <ele>3200.0</ele>
        <time>2022-11-20T13:07:59.000Z</time>
      </trkpt>
      <trkpt lat="37.05104167" lon="-3.37229">
        <ele>3200.0</ele>
        <time>2022-11-20T13:08:00.000Z</time>
      </trkpt>
      <trkpt lat="37.05105167" lon="-3.372295">
        <ele>3200.0</ele>
        <time>2022-11-20T13:08:01.000Z</time>
      </trkpt>
      <trkpt lat="37.051065" lon="-3.37229833">
        <ele>3200.0</ele>
        <time>2022-11-20T13:08:02.000Z</time>
      </trkpt>
      <trkpt lat="37.05107667" lon="-3.37230333">
        <ele>3200.0</ele>
        <time>2022-11-20T13:08:03.000Z</time>
      </trkpt>
      <trkpt lat="37.05108833" lon="-3.37231">
        <ele>3200.0</ele>
        <time>2022-11-20T13:08:04.000Z</time>
      </trkpt>
      <trkpt lat="37.0511" lon="-3.37231833">
        <ele>3200.0</ele>
        <time>2022-11-20T13:08:05.000Z</time>
      </trkpt>
      <trkpt lat="37.05111" lon="-3.372325">
        <ele>3200.0</ele>
        <time>2022-11-20T13:08:06.000Z</time>
      </trkpt>
      <trkpt lat="37.05112" lon="-3.37233">
        <ele>3200.0</ele>
        <time>2022-11-20T13:08:07.000Z</time>
      </trkpt>
      <trkpt lat="37.05113" lon="-3.37233333">
        <ele>3200.0</ele>
        <time>2022-11-20T13:08:08.000Z</time>
      </trkpt>
      <trkpt lat="37.05113833" lon="-3.372335">
        <ele>3200.0</ele>
        <time>2022-11-20T13:08:09.000Z</time>
      </trkpt>
      <trkpt lat="37.05114667" lon="-3.372335">
        <ele>3200.0</ele>
        <time>2022-11-20T13:08:10.000Z</time>
      </trkpt>
      <trkpt lat="37.05115667" lon="-3.37233333">
        <ele>3200.0</ele>
        <time>2022-11-20T13:08:11.000Z</time>
      </trkpt>
      <trkpt lat="37.05116833" lon="-3.37232833">
        <ele>3200.0</ele>
        <time>2022-11-20T13:08:12.000Z</time>
      </trkpt>
      <trkpt lat="37.05118167" lon="-3.372325">
        <ele>3200.0</ele>
        <time>2022-11-20T13:08:13.000Z</time>
      </trkpt>
      <trkpt lat="37.051195" lon="-3.37232333">
        <ele>3200.0</ele>
        <time>2022-11-20T13:08:14.000Z</time>
      </trkpt>
      <trkpt lat="37.05120833" lon="-3.37232667">
        <ele>3200.0</ele>
        <time>2022-11-20T13:08:15.000Z</time>
      </trkpt>
      <trkpt lat="37.05122167" lon="-3.37233">
        <ele>3200.0</ele>
        <time>2022-11-20T13:08:16.000Z</time>
      </trkpt>
      <trkpt lat="37.05123167" lon="-3.37233333">
        <ele>3200.0</ele>
        <time>2022-11-20T13:08:17.000Z</time>
      </trkpt>
      <trkpt lat="37.05124167" lon="-3.37233833">
        <ele>3200.0</ele>
        <time>2022-11-20T13:08:18.000Z</time>
      </trkpt>
      <trkpt lat="37.05125167" lon="-3.37234833">
        <ele>3200.0</ele>
        <time>2022-11-20T13:08:19.000Z</time>
      </trkpt>
      <trkpt lat="37.05126167" lon="-3.372355">
        <ele>3200.0</ele>
        <time>2022-11-20T13:08:20.000Z</time>
      </trkpt>
      <trkpt lat="37.05127333" lon="-3.37236167">
        <ele>3200.0</ele>
        <time>2022-11-20T13:08:21.000Z</time>
      </trkpt>
      <trkpt lat="37.051285" lon="-3.37236667">
        <ele>3200.0</ele>
        <time>2022-11-20T13:08:22.000Z</time>
      </trkpt>
      <trkpt lat="37.05129833" lon="-3.37237">
        <ele>3200.0</ele>
        <time>2022-11-20T13:08:23.000Z</time>
      </trkpt>
      <trkpt lat="37.05131" lon="-3.37237167">
        <ele>3200.0</ele>
        <time>2022-11-20T13:08:24.000Z</time>
      </trkpt>
      <trkpt lat="37.05132333" lon="-3.372375">
        <ele>3200.0</ele>
        <time>2022-11-20T13:08:25.000Z</time>
      </trkpt>
      <trkpt lat="37.051335" lon="-3.37237667">
        <ele>3200.0</ele>
        <time>2022-11-20T13:08:26.000Z</time>
      </trkpt>
      <trkpt lat="37.05134667" lon="-3.37238">
        <ele>3200.0</ele>
        <time>2022-11-20T13:08:27.000Z</time>
      </trkpt>
      <trkpt lat="37.05135667" lon="-3.37238167">
        <ele>3200.0</ele>
        <time>2022-11-20T13:08:28.000Z</time>
      </trkpt>
      <trkpt lat="37.05136667" lon="-3.37238167">
        <ele>3201.0</ele>
        <time>2022-11-20T13:08:29.000Z</time>
      </trkpt>
      <trkpt lat="37.05137667" lon="-3.37238">
        <ele>3201.0</ele>
        <time>2022-11-20T13:08:30.000Z</time>
      </trkpt>
      <trkpt lat="37.05138833" lon="-3.37238167">
        <ele>3201.0</ele>
        <time>2022-11-20T13:08:31.000Z</time>
      </trkpt>
      <trkpt lat="37.05140167" lon="-3.372385">
        <ele>3201.0</ele>
        <time>2022-11-20T13:08:32.000Z</time>
      </trkpt>
      <trkpt lat="37.051415" lon="-3.37238833">
        <ele>3201.0</ele>
        <time>2022-11-20T13:08:33.000Z</time>
      </trkpt>
      <trkpt lat="37.05142667" lon="-3.37239167">
        <ele>3201.0</ele>
        <time>2022-11-20T13:08:34.000Z</time>
      </trkpt>
      <trkpt lat="37.05144" lon="-3.372395">
        <ele>3201.0</ele>
        <time>2022-11-20T13:08:35.000Z</time>
      </trkpt>
      <trkpt lat="37.05145333" lon="-3.37239667">
        <ele>3201.0</ele>
        <time>2022-11-20T13:08:36.000Z</time>
      </trkpt>
      <trkpt lat="37.05146667" lon="-3.37239833">
        <ele>3201.0</ele>
        <time>2022-11-20T13:08:37.000Z</time>
      </trkpt>
      <trkpt lat="37.05147833" lon="-3.37239833">
        <ele>3201.0</ele>
        <time>2022-11-20T13:08:38.000Z</time>
      </trkpt>
      <trkpt lat="37.05149" lon="-3.37239667">
        <ele>3201.0</ele>
        <time>2022-11-20T13:08:39.000Z</time>
      </trkpt>
      <trkpt lat="37.0515" lon="-3.372395">
        <ele>3201.0</ele>
        <time>2022-11-20T13:08:40.000Z</time>
      </trkpt>
      <trkpt lat="37.05151167" lon="-3.37239333">
        <ele>3201.0</ele>
        <time>2022-11-20T13:08:41.000Z</time>
      </trkpt>
      <trkpt lat="37.05152333" lon="-3.37239333">
        <ele>3201.0</ele>
        <time>2022-11-20T13:08:42.000Z</time>
      </trkpt>
      <trkpt lat="37.051535" lon="-3.37239167">
        <ele>3201.0</ele>
        <time>2022-11-20T13:08:43.000Z</time>
      </trkpt>
      <trkpt lat="37.051545" lon="-3.37239">
        <ele>3201.0</ele>
        <time>2022-11-20T13:08:44.000Z</time>
      </trkpt>
      <trkpt lat="37.05155667" lon="-3.37238833">
        <ele>3201.0</ele>
        <time>2022-11-20T13:08:45.000Z</time>
      </trkpt>
      <trkpt lat="37.05156833" lon="-3.37238833">
        <ele>3201.0</ele>
        <time>2022-11-20T13:08:46.000Z</time>
      </trkpt>
      <trkpt lat="37.05158" lon="-3.37238667">
        <ele>3201.0</ele>
        <time>2022-11-20T13:08:47.000Z</time>
      </trkpt>
      <trkpt lat="37.05159333" lon="-3.37238333">
        <ele>3201.0</ele>
        <time>2022-11-20T13:08:48.000Z</time>
      </trkpt>
      <trkpt lat="37.051605" lon="-3.37238167">
        <ele>3201.0</ele>
        <time>2022-11-20T13:08:49.000Z</time>
      </trkpt>
      <trkpt lat="37.05161667" lon="-3.37237833">
        <ele>3201.0</ele>
        <time>2022-11-20T13:08:50.000Z</time>
      </trkpt>
      <trkpt lat="37.05162833" lon="-3.372375">
        <ele>3201.0</ele>
        <time>2022-11-20T13:08:51.000Z</time>
      </trkpt>
      <trkpt lat="37.05163833" lon="-3.37237167">
        <ele>3201.0</ele>
        <time>2022-11-20T13:08:52.000Z</time>
      </trkpt>
      <trkpt lat="37.05164833" lon="-3.37236833">
        <ele>3201.0</ele>
        <time>2022-11-20T13:08:53.000Z</time>
      </trkpt>
      <trkpt lat="37.05165833" lon="-3.372365">
        <ele>3201.0</ele>
        <time>2022-11-20T13:08:54.000Z</time>
      </trkpt>
      <trkpt lat="37.05166833" lon="-3.37236">
        <ele>3201.0</ele>
        <time>2022-11-20T13:08:55.000Z</time>
      </trkpt>
      <trkpt lat="37.05168" lon="-3.372355">
        <ele>3201.0</ele>
        <time>2022-11-20T13:08:56.000Z</time>
      </trkpt>
      <trkpt lat="37.05169333" lon="-3.37235167">
        <ele>3201.0</ele>
        <time>2022-11-20T13:08:57.000Z</time>
      </trkpt>
      <trkpt lat="37.051705" lon="-3.37234667">
        <ele>3201.0</ele>
        <time>2022-11-20T13:08:58.000Z</time>
      </trkpt>
      <trkpt lat="37.05171667" lon="-3.37234">
        <ele>3201.0</ele>
        <time>2022-11-20T13:08:59.000Z</time>
      </trkpt>
      <trkpt lat="37.05172833" lon="-3.372335">
        <ele>3201.0</ele>
        <time>2022-11-20T13:09:00.000Z</time>
      </trkpt>
      <trkpt lat="37.05173833" lon="-3.37233">
        <ele>3201.0</ele>
        <time>2022-11-20T13:09:01.000Z</time>
      </trkpt>
      <trkpt lat="37.05174833" lon="-3.37232667">
        <ele>3201.0</ele>
        <time>2022-11-20T13:09:02.000Z</time>
      </trkpt>
      <trkpt lat="37.05175833" lon="-3.37232167">
        <ele>3201.0</ele>
        <time>2022-11-20T13:09:03.000Z</time>
      </trkpt>
      <trkpt lat="37.05176833" lon="-3.37231833">
        <ele>3201.0</ele>
        <time>2022-11-20T13:09:04.000Z</time>
      </trkpt>
      <trkpt lat="37.05177833" lon="-3.372315">
        <ele>3201.0</ele>
        <time>2022-11-20T13:09:05.000Z</time>
      </trkpt>
      <trkpt lat="37.05178833" lon="-3.37231">
        <ele>3201.0</ele>
        <time>2022-11-20T13:09:06.000Z</time>
      </trkpt>
      <trkpt lat="37.05179667" lon="-3.372305">
        <ele>3201.0</ele>
        <time>2022-11-20T13:09:07.000Z</time>
      </trkpt>
      <trkpt lat="37.05180667" lon="-3.37230167">
        <ele>3201.0</ele>
        <time>2022-11-20T13:09:08.000Z</time>
      </trkpt>
      <trkpt lat="37.05181667" lon="-3.37229833">
        <ele>3201.0</ele>
        <time>2022-11-20T13:09:09.000Z</time>
      </trkpt>
      <trkpt lat="37.05182833" lon="-3.372295">
        <ele>3201.0</ele>
        <time>2022-11-20T13:09:10.000Z</time>
      </trkpt>
      <trkpt lat="37.05184" lon="-3.37229">
        <ele>3201.0</ele>
        <time>2022-11-20T13:09:11.000Z</time>
      </trkpt>
      <trkpt lat="37.05185" lon="-3.37228667">
        <ele>3201.0</ele>
        <time>2022-11-20T13:09:12.000Z</time>
      </trkpt>
      <trkpt lat="37.05185833" lon="-3.37228333">
        <ele>3201.0</ele>
        <time>2022-11-20T13:09:13.000Z</time>
      </trkpt>
      <trkpt lat="37.05187" lon="-3.37228">
        <ele>3201.0</ele>
        <time>2022-11-20T13:09:14.000Z</time>
      </trkpt>
      <trkpt lat="37.05188" lon="-3.372275">
        <ele>3202.0</ele>
        <time>2022-11-20T13:09:15.000Z</time>
      </trkpt>
      <trkpt lat="37.05189167" lon="-3.37227167">
        <ele>3202.0</ele>
        <time>2022-11-20T13:09:16.000Z</time>
      </trkpt>
      <trkpt lat="37.05190333" lon="-3.37226833">
        <ele>3202.0</ele>
        <time>2022-11-20T13:09:17.000Z</time>
      </trkpt>
      <trkpt lat="37.051915" lon="-3.372265">
        <ele>3202.0</ele>
        <time>2022-11-20T13:09:18.000Z</time>
      </trkpt>
      <trkpt lat="37.05192667" lon="-3.37226333">
        <ele>3202.0</ele>
        <time>2022-11-20T13:09:19.000Z</time>
      </trkpt>
      <trkpt lat="37.05193833" lon="-3.37226">
        <ele>3202.0</ele>
        <time>2022-11-20T13:09:20.000Z</time>
      </trkpt>
      <trkpt lat="37.05194833" lon="-3.372255">
        <ele>3202.0</ele>
        <time>2022-11-20T13:09:21.000Z</time>
      </trkpt>
      <trkpt lat="37.05195833" lon="-3.37225">
        <ele>3202.0</ele>
        <time>2022-11-20T13:09:22.000Z</time>
      </trkpt>
      <trkpt lat="37.05196667" lon="-3.37224167">
        <ele>3202.0</ele>
        <time>2022-11-20T13:09:23.000Z</time>
      </trkpt>
      <trkpt lat="37.05198" lon="-3.37223667">
        <ele>3202.0</ele>
        <time>2022-11-20T13:09:24.000Z</time>
      </trkpt>
      <trkpt lat="37.05199333" lon="-3.372235">
        <ele>3202.0</ele>
        <time>2022-11-20T13:09:25.000Z</time>
      </trkpt>
      <trkpt lat="37.052005" lon="-3.37223167">
        <ele>3202.0</ele>
        <time>2022-11-20T13:09:26.000Z</time>
      </trkpt>
      <trkpt lat="37.052015" lon="-3.37222667">
        <ele>3202.0</ele>
        <time>2022-11-20T13:09:27.000Z</time>
      </trkpt>
      <trkpt lat="37.05202833" lon="-3.372225">
        <ele>3202.0</ele>
        <time>2022-11-20T13:09:28.000Z</time>
      </trkpt>
      <trkpt lat="37.05204167" lon="-3.37222333">
        <ele>3202.0</ele>
        <time>2022-11-20T13:09:29.000Z</time>
      </trkpt>
      <trkpt lat="37.05205333" lon="-3.37222">
        <ele>3201.0</ele>
        <time>2022-11-20T13:09:30.000Z</time>
      </trkpt>
      <trkpt lat="37.052065" lon="-3.37221833">
        <ele>3201.0</ele>
        <time>2022-11-20T13:09:31.000Z</time>
      </trkpt>
      <trkpt lat="37.05207833" lon="-3.37221667">
        <ele>3201.0</ele>
        <time>2022-11-20T13:09:32.000Z</time>
      </trkpt>
      <trkpt lat="37.05209167" lon="-3.37221167">
        <ele>3201.0</ele>
        <time>2022-11-20T13:09:33.000Z</time>
      </trkpt>
      <trkpt lat="37.05210333" lon="-3.37220667">
        <ele>3201.0</ele>
        <time>2022-11-20T13:09:34.000Z</time>
      </trkpt>
      <trkpt lat="37.05211833" lon="-3.372205">
        <ele>3201.0</ele>
        <time>2022-11-20T13:09:35.000Z</time>
      </trkpt>
      <trkpt lat="37.05213167" lon="-3.3722">
        <ele>3201.0</ele>
        <time>2022-11-20T13:09:36.000Z</time>
      </trkpt>
      <trkpt lat="37.05214333" lon="-3.372195">
        <ele>3201.0</ele>
        <time>2022-11-20T13:09:37.000Z</time>
      </trkpt>
      <trkpt lat="37.05215667" lon="-3.37219167">
        <ele>3201.0</ele>
        <time>2022-11-20T13:09:38.000Z</time>
      </trkpt>
      <trkpt lat="37.05216833" lon="-3.37218833">
        <ele>3201.0</ele>
        <time>2022-11-20T13:09:39.000Z</time>
      </trkpt>
      <trkpt lat="37.05218" lon="-3.372185">
        <ele>3201.0</ele>
        <time>2022-11-20T13:09:40.000Z</time>
      </trkpt>
      <trkpt lat="37.05219167" lon="-3.37218">
        <ele>3201.0</ele>
        <time>2022-11-20T13:09:41.000Z</time>
      </trkpt>
      <trkpt lat="37.05220333" lon="-3.37217333">
        <ele>3201.0</ele>
        <time>2022-11-20T13:09:42.000Z</time>
      </trkpt>
      <trkpt lat="37.052215" lon="-3.37216833">
        <ele>3201.0</ele>
        <time>2022-11-20T13:09:43.000Z</time>
      </trkpt>
      <trkpt lat="37.05222833" lon="-3.37216333">
        <ele>3201.0</ele>
        <time>2022-11-20T13:09:44.000Z</time>
      </trkpt>
      <trkpt lat="37.05224167" lon="-3.37215833">
        <ele>3200.0</ele>
        <time>2022-11-20T13:09:45.000Z</time>
      </trkpt>
      <trkpt lat="37.05225167" lon="-3.37215333">
        <ele>3200.0</ele>
        <time>2022-11-20T13:09:46.000Z</time>
      </trkpt>
      <trkpt lat="37.05226167" lon="-3.37214833">
        <ele>3200.0</ele>
        <time>2022-11-20T13:09:47.000Z</time>
      </trkpt>
      <trkpt lat="37.05227333" lon="-3.37214333">
        <ele>3201.0</ele>
        <time>2022-11-20T13:09:48.000Z</time>
      </trkpt>
      <trkpt lat="37.05228333" lon="-3.37213667">
        <ele>3201.0</ele>
        <time>2022-11-20T13:09:49.000Z</time>
      </trkpt>
      <trkpt lat="37.05229333" lon="-3.37213167">
        <ele>3201.0</ele>
        <time>2022-11-20T13:09:50.000Z</time>
      </trkpt>
      <trkpt lat="37.05230333" lon="-3.372125">
        <ele>3201.0</ele>
        <time>2022-11-20T13:09:51.000Z</time>
      </trkpt>
      <trkpt lat="37.05231167" lon="-3.37212167">
        <ele>3201.0</ele>
        <time>2022-11-20T13:09:52.000Z</time>
      </trkpt>
      <trkpt lat="37.05232" lon="-3.37211667">
        <ele>3201.0</ele>
        <time>2022-11-20T13:09:53.000Z</time>
      </trkpt>
      <trkpt lat="37.05233" lon="-3.37211167">
        <ele>3201.0</ele>
        <time>2022-11-20T13:09:54.000Z</time>
      </trkpt>
      <trkpt lat="37.05234" lon="-3.37210833">
        <ele>3201.0</ele>
        <time>2022-11-20T13:09:55.000Z</time>
      </trkpt>
      <trkpt lat="37.05235167" lon="-3.372105">
        <ele>3201.0</ele>
        <time>2022-11-20T13:09:56.000Z</time>
      </trkpt>
      <trkpt lat="37.05236167" lon="-3.37209833">
        <ele>3201.0</ele>
        <time>2022-11-20T13:09:57.000Z</time>
      </trkpt>
      <trkpt lat="37.05237333" lon="-3.37209167">
        <ele>3201.0</ele>
        <time>2022-11-20T13:09:58.000Z</time>
      </trkpt>
      <trkpt lat="37.05238167" lon="-3.372085">
        <ele>3201.0</ele>
        <time>2022-11-20T13:09:59.000Z</time>
      </trkpt>
      <trkpt lat="37.05239167" lon="-3.37207833">
        <ele>3201.0</ele>
        <time>2022-11-20T13:10:00.000Z</time>
      </trkpt>
      <trkpt lat="37.05240167" lon="-3.37207167">
        <ele>3201.0</ele>
        <time>2022-11-20T13:10:01.000Z</time>
      </trkpt>
      <trkpt lat="37.05241167" lon="-3.372065">
        <ele>3201.0</ele>
        <time>2022-11-20T13:10:02.000Z</time>
      </trkpt>
      <trkpt lat="37.05242167" lon="-3.37205833">
        <ele>3201.0</ele>
        <time>2022-11-20T13:10:03.000Z</time>
      </trkpt>
      <trkpt lat="37.05243167" lon="-3.37205333">
        <ele>3201.0</ele>
        <time>2022-11-20T13:10:04.000Z</time>
      </trkpt>
      <trkpt lat="37.05244333" lon="-3.372045">
        <ele>3201.0</ele>
        <time>2022-11-20T13:10:05.000Z</time>
      </trkpt>
      <trkpt lat="37.052455" lon="-3.37203667">
        <ele>3201.0</ele>
        <time>2022-11-20T13:10:06.000Z</time>
      </trkpt>
      <trkpt lat="37.05246833" lon="-3.37203">
        <ele>3201.0</ele>
        <time>2022-11-20T13:10:07.000Z</time>
      </trkpt>
      <trkpt lat="37.05248167" lon="-3.37202333">
        <ele>3201.0</ele>
        <time>2022-11-20T13:10:08.000Z</time>
      </trkpt>
      <trkpt lat="37.05249333" lon="-3.37201833">
        <ele>3201.0</ele>
        <time>2022-11-20T13:10:09.000Z</time>
      </trkpt>
      <trkpt lat="37.052505" lon="-3.37201333">
        <ele>3201.0</ele>
        <time>2022-11-20T13:10:10.000Z</time>
      </trkpt>
      <trkpt lat="37.05251667" lon="-3.37200833">
        <ele>3201.0</ele>
        <time>2022-11-20T13:10:11.000Z</time>
      </trkpt>
      <trkpt lat="37.05252833" lon="-3.37200167">
        <ele>3201.0</ele>
        <time>2022-11-20T13:10:12.000Z</time>
      </trkpt>
      <trkpt lat="37.05254" lon="-3.371995">
        <ele>3201.0</ele>
        <time>2022-11-20T13:10:13.000Z</time>
      </trkpt>
      <trkpt lat="37.05255333" lon="-3.37198833">
        <ele>3201.0</ele>
        <time>2022-11-20T13:10:14.000Z</time>
      </trkpt>
      <trkpt lat="37.052565" lon="-3.37198167">
        <ele>3201.0</ele>
        <time>2022-11-20T13:10:15.000Z</time>
      </trkpt>
      <trkpt lat="37.05257333" lon="-3.37197333">
        <ele>3201.0</ele>
        <time>2022-11-20T13:10:16.000Z</time>
      </trkpt>
      <trkpt lat="37.05258333" lon="-3.37196667">
        <ele>3201.0</ele>
        <time>2022-11-20T13:10:17.000Z</time>
      </trkpt>
      <trkpt lat="37.05259333" lon="-3.37196">
        <ele>3201.0</ele>
        <time>2022-11-20T13:10:18.000Z</time>
      </trkpt>
      <trkpt lat="37.05260667" lon="-3.371955">
        <ele>3201.0</ele>
        <time>2022-11-20T13:10:19.000Z</time>
      </trkpt>
      <trkpt lat="37.05261833" lon="-3.37194833">
        <ele>3201.0</ele>
        <time>2022-11-20T13:10:20.000Z</time>
      </trkpt>
      <trkpt lat="37.05263167" lon="-3.37194">
        <ele>3201.0</ele>
        <time>2022-11-20T13:10:21.000Z</time>
      </trkpt>
      <trkpt lat="37.05264333" lon="-3.37193167">
        <ele>3201.0</ele>
        <time>2022-11-20T13:10:22.000Z</time>
      </trkpt>
      <trkpt lat="37.05265333" lon="-3.371925">
        <ele>3201.0</ele>
        <time>2022-11-20T13:10:23.000Z</time>
      </trkpt>
      <trkpt lat="37.052665" lon="-3.371915">
        <ele>3201.0</ele>
        <time>2022-11-20T13:10:24.000Z</time>
      </trkpt>
      <trkpt lat="37.05267667" lon="-3.371905">
        <ele>3201.0</ele>
        <time>2022-11-20T13:10:25.000Z</time>
      </trkpt>
      <trkpt lat="37.05268667" lon="-3.37189667">
        <ele>3201.0</ele>
        <time>2022-11-20T13:10:26.000Z</time>
      </trkpt>
      <trkpt lat="37.05269667" lon="-3.37188667">
        <ele>3202.0</ele>
        <time>2022-11-20T13:10:27.000Z</time>
      </trkpt>
      <trkpt lat="37.05271" lon="-3.37188">
        <ele>3202.0</ele>
        <time>2022-11-20T13:10:28.000Z</time>
      </trkpt>
      <trkpt lat="37.05272167" lon="-3.371875">
        <ele>3202.0</ele>
        <time>2022-11-20T13:10:29.000Z</time>
      </trkpt>
      <trkpt lat="37.052735" lon="-3.37187">
        <ele>3202.0</ele>
        <time>2022-11-20T13:10:30.000Z</time>
      </trkpt>
      <trkpt lat="37.05274667" lon="-3.37186333">
        <ele>3202.0</ele>
        <time>2022-11-20T13:10:31.000Z</time>
      </trkpt>
      <trkpt lat="37.05275667" lon="-3.37185667">
        <ele>3202.0</ele>
        <time>2022-11-20T13:10:32.000Z</time>
      </trkpt>
      <trkpt lat="37.05276833" lon="-3.37184833">
        <ele>3202.0</ele>
        <time>2022-11-20T13:10:33.000Z</time>
      </trkpt>
      <trkpt lat="37.05277833" lon="-3.37184">
        <ele>3202.0</ele>
        <time>2022-11-20T13:10:34.000Z</time>
      </trkpt>
      <trkpt lat="37.05278833" lon="-3.37183167">
        <ele>3202.0</ele>
        <time>2022-11-20T13:10:35.000Z</time>
      </trkpt>
      <trkpt lat="37.05279833" lon="-3.37182167">
        <ele>3202.0</ele>
        <time>2022-11-20T13:10:36.000Z</time>
      </trkpt>
      <trkpt lat="37.05280833" lon="-3.37181333">
        <ele>3202.0</ele>
        <time>2022-11-20T13:10:37.000Z</time>
      </trkpt>
      <trkpt lat="37.05282" lon="-3.37180333">
        <ele>3202.0</ele>
        <time>2022-11-20T13:10:38.000Z</time>
      </trkpt>
      <trkpt lat="37.05283167" lon="-3.371795">
        <ele>3202.0</ele>
        <time>2022-11-20T13:10:39.000Z</time>
      </trkpt>
      <trkpt lat="37.05284333" lon="-3.371785">
        <ele>3202.0</ele>
        <time>2022-11-20T13:10:40.000Z</time>
      </trkpt>
      <trkpt lat="37.05285333" lon="-3.371775">
        <ele>3202.0</ele>
        <time>2022-11-20T13:10:41.000Z</time>
      </trkpt>
      <trkpt lat="37.052865" lon="-3.37176667">
        <ele>3202.0</ele>
        <time>2022-11-20T13:10:42.000Z</time>
      </trkpt>
      <trkpt lat="37.05287667" lon="-3.37175833">
        <ele>3202.0</ele>
        <time>2022-11-20T13:10:43.000Z</time>
      </trkpt>
      <trkpt lat="37.05288833" lon="-3.37175167">
        <ele>3202.0</ele>
        <time>2022-11-20T13:10:44.000Z</time>
      </trkpt>
      <trkpt lat="37.05289667" lon="-3.37174167">
        <ele>3202.0</ele>
        <time>2022-11-20T13:10:45.000Z</time>
      </trkpt>
      <trkpt lat="37.05290833" lon="-3.37173167">
        <ele>3202.0</ele>
        <time>2022-11-20T13:10:46.000Z</time>
      </trkpt>
      <trkpt lat="37.05291833" lon="-3.37172333">
        <ele>3202.0</ele>
        <time>2022-11-20T13:10:47.000Z</time>
      </trkpt>
      <trkpt lat="37.05293" lon="-3.37171333">
        <ele>3202.0</ele>
        <time>2022-11-20T13:10:48.000Z</time>
      </trkpt>
      <trkpt lat="37.05294167" lon="-3.37170333">
        <ele>3202.0</ele>
        <time>2022-11-20T13:10:49.000Z</time>
      </trkpt>
      <trkpt lat="37.05295167" lon="-3.371695">
        <ele>3202.0</ele>
        <time>2022-11-20T13:10:50.000Z</time>
      </trkpt>
      <trkpt lat="37.05296333" lon="-3.371685">
        <ele>3202.0</ele>
        <time>2022-11-20T13:10:51.000Z</time>
      </trkpt>
      <trkpt lat="37.052975" lon="-3.371675">
        <ele>3202.0</ele>
        <time>2022-11-20T13:10:52.000Z</time>
      </trkpt>
      <trkpt lat="37.05298667" lon="-3.37166667">
        <ele>3202.0</ele>
        <time>2022-11-20T13:10:53.000Z</time>
      </trkpt>
      <trkpt lat="37.053" lon="-3.37166">
        <ele>3202.0</ele>
        <time>2022-11-20T13:10:54.000Z</time>
      </trkpt>
      <trkpt lat="37.05301333" lon="-3.37165333">
        <ele>3202.0</ele>
        <time>2022-11-20T13:10:55.000Z</time>
      </trkpt>
      <trkpt lat="37.05302167" lon="-3.37164667">
        <ele>3202.0</ele>
        <time>2022-11-20T13:10:56.000Z</time>
      </trkpt>
      <trkpt lat="37.053035" lon="-3.37163833">
        <ele>3202.0</ele>
        <time>2022-11-20T13:10:57.000Z</time>
      </trkpt>
      <trkpt lat="37.05304667" lon="-3.37163">
        <ele>3202.0</ele>
        <time>2022-11-20T13:10:58.000Z</time>
      </trkpt>
      <trkpt lat="37.05306" lon="-3.37162167">
        <ele>3202.0</ele>
        <time>2022-11-20T13:10:59.000Z</time>
      </trkpt>
      <trkpt lat="37.05307333" lon="-3.37161333">
        <ele>3203.0</ele>
        <time>2022-11-20T13:11:00.000Z</time>
      </trkpt>
      <trkpt lat="37.05308833" lon="-3.37160667">
        <ele>3203.0</ele>
        <time>2022-11-20T13:11:01.000Z</time>
      </trkpt>
      <trkpt lat="37.05310167" lon="-3.37159833">
        <ele>3203.0</ele>
        <time>2022-11-20T13:11:02.000Z</time>
      </trkpt>
      <trkpt lat="37.05311667" lon="-3.37159167">
        <ele>3203.0</ele>
        <time>2022-11-20T13:11:03.000Z</time>
      </trkpt>
      <trkpt lat="37.05313167" lon="-3.37158667">
        <ele>3203.0</ele>
        <time>2022-11-20T13:11:04.000Z</time>
      </trkpt>
      <trkpt lat="37.053145" lon="-3.37158333">
        <ele>3203.0</ele>
        <time>2022-11-20T13:11:05.000Z</time>
      </trkpt>
      <trkpt lat="37.05316" lon="-3.37158">
        <ele>3203.0</ele>
        <time>2022-11-20T13:11:06.000Z</time>
      </trkpt>
      <trkpt lat="37.05317333" lon="-3.37157333">
        <ele>3203.0</ele>
        <time>2022-11-20T13:11:07.000Z</time>
      </trkpt>
      <trkpt lat="37.05318833" lon="-3.37156667">
        <ele>3203.0</ele>
        <time>2022-11-20T13:11:08.000Z</time>
      </trkpt>
      <trkpt lat="37.05320167" lon="-3.37156167">
        <ele>3203.0</ele>
        <time>2022-11-20T13:11:09.000Z</time>
      </trkpt>
      <trkpt lat="37.053215" lon="-3.37155667">
        <ele>3203.0</ele>
        <time>2022-11-20T13:11:10.000Z</time>
      </trkpt>
      <trkpt lat="37.05323" lon="-3.371555">
        <ele>3203.0</ele>
        <time>2022-11-20T13:11:11.000Z</time>
      </trkpt>
      <trkpt lat="37.053245" lon="-3.37155167">
        <ele>3203.0</ele>
        <time>2022-11-20T13:11:12.000Z</time>
      </trkpt>
      <trkpt lat="37.05325833" lon="-3.37154833">
        <ele>3203.0</ele>
        <time>2022-11-20T13:11:13.000Z</time>
      </trkpt>
      <trkpt lat="37.05327333" lon="-3.37154333">
        <ele>3203.0</ele>
        <time>2022-11-20T13:11:14.000Z</time>
      </trkpt>
      <trkpt lat="37.05328667" lon="-3.37153833">
        <ele>3203.0</ele>
        <time>2022-11-20T13:11:15.000Z</time>
      </trkpt>
      <trkpt lat="37.05329833" lon="-3.37153">
        <ele>3203.0</ele>
        <time>2022-11-20T13:11:16.000Z</time>
      </trkpt>
      <trkpt lat="37.05331" lon="-3.37152167">
        <ele>3204.0</ele>
        <time>2022-11-20T13:11:17.000Z</time>
      </trkpt>
      <trkpt lat="37.05332333" lon="-3.371515">
        <ele>3204.0</ele>
        <time>2022-11-20T13:11:18.000Z</time>
      </trkpt>
      <trkpt lat="37.05333667" lon="-3.37150667">
        <ele>3204.0</ele>
        <time>2022-11-20T13:11:19.000Z</time>
      </trkpt>
      <trkpt lat="37.05335167" lon="-3.37150333">
        <ele>3204.0</ele>
        <time>2022-11-20T13:11:20.000Z</time>
      </trkpt>
      <trkpt lat="37.053365" lon="-3.37149833">
        <ele>3204.0</ele>
        <time>2022-11-20T13:11:21.000Z</time>
      </trkpt>
      <trkpt lat="37.05337833" lon="-3.371495">
        <ele>3204.0</ele>
        <time>2022-11-20T13:11:22.000Z</time>
      </trkpt>
      <trkpt lat="37.05339167" lon="-3.37149">
        <ele>3204.0</ele>
        <time>2022-11-20T13:11:23.000Z</time>
      </trkpt>
      <trkpt lat="37.053405" lon="-3.371485">
        <ele>3204.0</ele>
        <time>2022-11-20T13:11:24.000Z</time>
      </trkpt>
      <trkpt lat="37.05341833" lon="-3.37148167">
        <ele>3204.0</ele>
        <time>2022-11-20T13:11:25.000Z</time>
      </trkpt>
      <trkpt lat="37.05343167" lon="-3.37147833">
        <ele>3204.0</ele>
        <time>2022-11-20T13:11:26.000Z</time>
      </trkpt>
      <trkpt lat="37.05344667" lon="-3.37147833">
        <ele>3204.0</ele>
        <time>2022-11-20T13:11:27.000Z</time>
      </trkpt>
      <trkpt lat="37.05345833" lon="-3.371475">
        <ele>3204.0</ele>
        <time>2022-11-20T13:11:28.000Z</time>
      </trkpt>
      <trkpt lat="37.05347167" lon="-3.37147">
        <ele>3204.0</ele>
        <time>2022-11-20T13:11:29.000Z</time>
      </trkpt>
      <trkpt lat="37.053485" lon="-3.371465">
        <ele>3204.0</ele>
        <time>2022-11-20T13:11:30.000Z</time>
      </trkpt>
      <trkpt lat="37.05349833" lon="-3.37146167">
        <ele>3204.0</ele>
        <time>2022-11-20T13:11:31.000Z</time>
      </trkpt>
      <trkpt lat="37.05351333" lon="-3.37145667">
        <ele>3204.0</ele>
        <time>2022-11-20T13:11:32.000Z</time>
      </trkpt>
      <trkpt lat="37.05352667" lon="-3.37145167">
        <ele>3204.0</ele>
        <time>2022-11-20T13:11:33.000Z</time>
      </trkpt>
      <trkpt lat="37.05354" lon="-3.37144667">
        <ele>3204.0</ele>
        <time>2022-11-20T13:11:34.000Z</time>
      </trkpt>
      <trkpt lat="37.05354833" lon="-3.37144167">
        <ele>3204.0</ele>
        <time>2022-11-20T13:11:35.000Z</time>
      </trkpt>
      <trkpt lat="37.05355833" lon="-3.371435">
        <ele>3204.0</ele>
        <time>2022-11-20T13:11:36.000Z</time>
      </trkpt>
      <trkpt lat="37.05357" lon="-3.37143">
        <ele>3204.0</ele>
        <time>2022-11-20T13:11:37.000Z</time>
      </trkpt>
      <trkpt lat="37.05358167" lon="-3.37142833">
        <ele>3204.0</ele>
        <time>2022-11-20T13:11:38.000Z</time>
      </trkpt>
      <trkpt lat="37.05359333" lon="-3.37142667">
        <ele>3204.0</ele>
        <time>2022-11-20T13:11:39.000Z</time>
      </trkpt>
      <trkpt lat="37.053605" lon="-3.371425">
        <ele>3204.0</ele>
        <time>2022-11-20T13:11:40.000Z</time>
      </trkpt>
      <trkpt lat="37.053615" lon="-3.37142333">
        <ele>3204.0</ele>
        <time>2022-11-20T13:11:41.000Z</time>
      </trkpt>
      <trkpt lat="37.05362667" lon="-3.37142">
        <ele>3204.0</ele>
        <time>2022-11-20T13:11:42.000Z</time>
      </trkpt>
      <trkpt lat="37.05364" lon="-3.37141667">
        <ele>3204.0</ele>
        <time>2022-11-20T13:11:43.000Z</time>
      </trkpt>
      <trkpt lat="37.05365167" lon="-3.37141">
        <ele>3204.0</ele>
        <time>2022-11-20T13:11:44.000Z</time>
      </trkpt>
      <trkpt lat="37.05366333" lon="-3.371405">
        <ele>3205.0</ele>
        <time>2022-11-20T13:11:45.000Z</time>
      </trkpt>
      <trkpt lat="37.053675" lon="-3.3714">
        <ele>3205.0</ele>
        <time>2022-11-20T13:11:46.000Z</time>
      </trkpt>
      <trkpt lat="37.05368833" lon="-3.371395">
        <ele>3205.0</ele>
        <time>2022-11-20T13:11:47.000Z</time>
      </trkpt>
      <trkpt lat="37.05370167" lon="-3.37139167">
        <ele>3205.0</ele>
        <time>2022-11-20T13:11:48.000Z</time>
      </trkpt>
      <trkpt lat="37.05371333" lon="-3.37138833">
        <ele>3205.0</ele>
        <time>2022-11-20T13:11:49.000Z</time>
      </trkpt>
      <trkpt lat="37.05372667" lon="-3.37138667">
        <ele>3205.0</ele>
        <time>2022-11-20T13:11:50.000Z</time>
      </trkpt>
      <trkpt lat="37.05374" lon="-3.37138333">
        <ele>3205.0</ele>
        <time>2022-11-20T13:11:51.000Z</time>
      </trkpt>
      <trkpt lat="37.05375167" lon="-3.37138">
        <ele>3205.0</ele>
        <time>2022-11-20T13:11:52.000Z</time>
      </trkpt>
      <trkpt lat="37.053765" lon="-3.37137667">
        <ele>3205.0</ele>
        <time>2022-11-20T13:11:53.000Z</time>
      </trkpt>
      <trkpt lat="37.05377833" lon="-3.37137167">
        <ele>3205.0</ele>
        <time>2022-11-20T13:11:54.000Z</time>
      </trkpt>
      <trkpt lat="37.05379167" lon="-3.37136833">
        <ele>3205.0</ele>
        <time>2022-11-20T13:11:55.000Z</time>
      </trkpt>
      <trkpt lat="37.053805" lon="-3.37136333">
        <ele>3205.0</ele>
        <time>2022-11-20T13:11:56.000Z</time>
      </trkpt>
      <trkpt lat="37.05381833" lon="-3.37136167">
        <ele>3205.0</ele>
        <time>2022-11-20T13:11:57.000Z</time>
      </trkpt>
      <trkpt lat="37.05383167" lon="-3.37135667">
        <ele>3205.0</ele>
        <time>2022-11-20T13:11:58.000Z</time>
      </trkpt>
      <trkpt lat="37.05384333" lon="-3.37135167">
        <ele>3205.0</ele>
        <time>2022-11-20T13:11:59.000Z</time>
      </trkpt>
      <trkpt lat="37.053855" lon="-3.37134833">
        <ele>3205.0</ele>
        <time>2022-11-20T13:12:00.000Z</time>
      </trkpt>
      <trkpt lat="37.05386667" lon="-3.37134667">
        <ele>3205.0</ele>
        <time>2022-11-20T13:12:01.000Z</time>
      </trkpt>
      <trkpt lat="37.05387833" lon="-3.371345">
        <ele>3205.0</ele>
        <time>2022-11-20T13:12:02.000Z</time>
      </trkpt>
      <trkpt lat="37.05389167" lon="-3.37134167">
        <ele>3205.0</ele>
        <time>2022-11-20T13:12:03.000Z</time>
      </trkpt>
      <trkpt lat="37.05390333" lon="-3.37133833">
        <ele>3205.0</ele>
        <time>2022-11-20T13:12:04.000Z</time>
      </trkpt>
      <trkpt lat="37.05391667" lon="-3.37133667">
        <ele>3205.0</ele>
        <time>2022-11-20T13:12:05.000Z</time>
      </trkpt>
      <trkpt lat="37.05392833" lon="-3.37133333">
        <ele>3205.0</ele>
        <time>2022-11-20T13:12:06.000Z</time>
      </trkpt>
      <trkpt lat="37.05394167" lon="-3.37133">
        <ele>3205.0</ele>
        <time>2022-11-20T13:12:07.000Z</time>
      </trkpt>
      <trkpt lat="37.053955" lon="-3.37132833">
        <ele>3205.0</ele>
        <time>2022-11-20T13:12:08.000Z</time>
      </trkpt>
      <trkpt lat="37.05396833" lon="-3.371325">
        <ele>3205.0</ele>
        <time>2022-11-20T13:12:09.000Z</time>
      </trkpt>
      <trkpt lat="37.05398" lon="-3.37132333">
        <ele>3205.0</ele>
        <time>2022-11-20T13:12:10.000Z</time>
      </trkpt>
      <trkpt lat="37.053995" lon="-3.37132">
        <ele>3205.0</ele>
        <time>2022-11-20T13:12:11.000Z</time>
      </trkpt>
      <trkpt lat="37.05400833" lon="-3.37131667">
        <ele>3205.0</ele>
        <time>2022-11-20T13:12:12.000Z</time>
      </trkpt>
      <trkpt lat="37.05402333" lon="-3.37131167">
        <ele>3205.0</ele>
        <time>2022-11-20T13:12:13.000Z</time>
      </trkpt>
      <trkpt lat="37.05403667" lon="-3.37130667">
        <ele>3205.0</ele>
        <time>2022-11-20T13:12:14.000Z</time>
      </trkpt>
      <trkpt lat="37.05405" lon="-3.37130333">
        <ele>3205.0</ele>
        <time>2022-11-20T13:12:15.000Z</time>
      </trkpt>
      <trkpt lat="37.05406333" lon="-3.37130167">
        <ele>3205.0</ele>
        <time>2022-11-20T13:12:16.000Z</time>
      </trkpt>
      <trkpt lat="37.05407833" lon="-3.3713">
        <ele>3204.0</ele>
        <time>2022-11-20T13:12:17.000Z</time>
      </trkpt>
      <trkpt lat="37.05409167" lon="-3.37129667">
        <ele>3204.0</ele>
        <time>2022-11-20T13:12:18.000Z</time>
      </trkpt>
      <trkpt lat="37.054105" lon="-3.37129667">
        <ele>3204.0</ele>
        <time>2022-11-20T13:12:19.000Z</time>
      </trkpt>
      <trkpt lat="37.05412" lon="-3.37129333">
        <ele>3204.0</ele>
        <time>2022-11-20T13:12:20.000Z</time>
      </trkpt>
      <trkpt lat="37.05413333" lon="-3.37128833">
        <ele>3204.0</ele>
        <time>2022-11-20T13:12:21.000Z</time>
      </trkpt>
      <trkpt lat="37.05414667" lon="-3.37128667">
        <ele>3204.0</ele>
        <time>2022-11-20T13:12:22.000Z</time>
      </trkpt>
      <trkpt lat="37.05416" lon="-3.37128333">
        <ele>3204.0</ele>
        <time>2022-11-20T13:12:23.000Z</time>
      </trkpt>
      <trkpt lat="37.05417167" lon="-3.37128">
        <ele>3204.0</ele>
        <time>2022-11-20T13:12:24.000Z</time>
      </trkpt>
      <trkpt lat="37.05418333" lon="-3.37127667">
        <ele>3204.0</ele>
        <time>2022-11-20T13:12:25.000Z</time>
      </trkpt>
      <trkpt lat="37.05419667" lon="-3.371275">
        <ele>3204.0</ele>
        <time>2022-11-20T13:12:26.000Z</time>
      </trkpt>
      <trkpt lat="37.05421" lon="-3.37127167">
        <ele>3204.0</ele>
        <time>2022-11-20T13:12:27.000Z</time>
      </trkpt>
      <trkpt lat="37.054225" lon="-3.37126833">
        <ele>3204.0</ele>
        <time>2022-11-20T13:12:28.000Z</time>
      </trkpt>
      <trkpt lat="37.05423833" lon="-3.371265">
        <ele>3204.0</ele>
        <time>2022-11-20T13:12:29.000Z</time>
      </trkpt>
      <trkpt lat="37.05425167" lon="-3.37126167">
        <ele>3204.0</ele>
        <time>2022-11-20T13:12:30.000Z</time>
      </trkpt>
      <trkpt lat="37.05426167" lon="-3.371255">
        <ele>3204.0</ele>
        <time>2022-11-20T13:12:31.000Z</time>
      </trkpt>
      <trkpt lat="37.054275" lon="-3.37125167">
        <ele>3204.0</ele>
        <time>2022-11-20T13:12:32.000Z</time>
      </trkpt>
      <trkpt lat="37.05428833" lon="-3.37124833">
        <ele>3204.0</ele>
        <time>2022-11-20T13:12:33.000Z</time>
      </trkpt>
      <trkpt lat="37.05430167" lon="-3.37124333">
        <ele>3204.0</ele>
        <time>2022-11-20T13:12:34.000Z</time>
      </trkpt>
      <trkpt lat="37.054315" lon="-3.37124">
        <ele>3204.0</ele>
        <time>2022-11-20T13:12:35.000Z</time>
      </trkpt>
      <trkpt lat="37.05432833" lon="-3.37123833">
        <ele>3204.0</ele>
        <time>2022-11-20T13:12:36.000Z</time>
      </trkpt>
      <trkpt lat="37.05434" lon="-3.371235">
        <ele>3204.0</ele>
        <time>2022-11-20T13:12:37.000Z</time>
      </trkpt>
      <trkpt lat="37.05435167" lon="-3.37123333">
        <ele>3204.0</ele>
        <time>2022-11-20T13:12:38.000Z</time>
      </trkpt>
      <trkpt lat="37.054365" lon="-3.37123">
        <ele>3204.0</ele>
        <time>2022-11-20T13:12:39.000Z</time>
      </trkpt>
      <trkpt lat="37.05437833" lon="-3.37122667">
        <ele>3204.0</ele>
        <time>2022-11-20T13:12:40.000Z</time>
      </trkpt>
      <trkpt lat="37.05439333" lon="-3.371225">
        <ele>3204.0</ele>
        <time>2022-11-20T13:12:41.000Z</time>
      </trkpt>
      <trkpt lat="37.05440667" lon="-3.371225">
        <ele>3204.0</ele>
        <time>2022-11-20T13:12:42.000Z</time>
      </trkpt>
      <trkpt lat="37.05441833" lon="-3.37122667">
        <ele>3204.0</ele>
        <time>2022-11-20T13:12:43.000Z</time>
      </trkpt>
      <trkpt lat="37.05443167" lon="-3.37122667">
        <ele>3204.0</ele>
        <time>2022-11-20T13:12:44.000Z</time>
      </trkpt>
      <trkpt lat="37.05444333" lon="-3.37122833">
        <ele>3204.0</ele>
        <time>2022-11-20T13:12:45.000Z</time>
      </trkpt>
      <trkpt lat="37.05445667" lon="-3.37122667">
        <ele>3204.0</ele>
        <time>2022-11-20T13:12:46.000Z</time>
      </trkpt>
      <trkpt lat="37.05447" lon="-3.371225">
        <ele>3204.0</ele>
        <time>2022-11-20T13:12:47.000Z</time>
      </trkpt>
      <trkpt lat="37.05448333" lon="-3.37122167">
        <ele>3204.0</ele>
        <time>2022-11-20T13:12:48.000Z</time>
      </trkpt>
      <trkpt lat="37.05449667" lon="-3.37121833">
        <ele>3204.0</ele>
        <time>2022-11-20T13:12:49.000Z</time>
      </trkpt>
      <trkpt lat="37.05451" lon="-3.371215">
        <ele>3204.0</ele>
        <time>2022-11-20T13:12:50.000Z</time>
      </trkpt>
      <trkpt lat="37.05452333" lon="-3.37121333">
        <ele>3204.0</ele>
        <time>2022-11-20T13:12:51.000Z</time>
      </trkpt>
      <trkpt lat="37.05453833" lon="-3.371215">
        <ele>3204.0</ele>
        <time>2022-11-20T13:12:52.000Z</time>
      </trkpt>
      <trkpt lat="37.05455" lon="-3.37121667">
        <ele>3204.0</ele>
        <time>2022-11-20T13:12:53.000Z</time>
      </trkpt>
      <trkpt lat="37.05456333" lon="-3.37121667">
        <ele>3204.0</ele>
        <time>2022-11-20T13:12:54.000Z</time>
      </trkpt>
      <trkpt lat="37.05457667" lon="-3.37121667">
        <ele>3204.0</ele>
        <time>2022-11-20T13:12:55.000Z</time>
      </trkpt>
      <trkpt lat="37.05459" lon="-3.37121833">
        <ele>3204.0</ele>
        <time>2022-11-20T13:12:56.000Z</time>
      </trkpt>
      <trkpt lat="37.05460333" lon="-3.37121833">
        <ele>3204.0</ele>
        <time>2022-11-20T13:12:57.000Z</time>
      </trkpt>
      <trkpt lat="37.05461667" lon="-3.37122">
        <ele>3205.0</ele>
        <time>2022-11-20T13:12:58.000Z</time>
      </trkpt>
      <trkpt lat="37.05462833" lon="-3.37122167">
        <ele>3205.0</ele>
        <time>2022-11-20T13:12:59.000Z</time>
      </trkpt>
      <trkpt lat="37.05464167" lon="-3.37122167">
        <ele>3205.0</ele>
        <time>2022-11-20T13:13:00.000Z</time>
      </trkpt>
      <trkpt lat="37.054655" lon="-3.37121833">
        <ele>3205.0</ele>
        <time>2022-11-20T13:13:01.000Z</time>
      </trkpt>
      <trkpt lat="37.05466833" lon="-3.37121333">
        <ele>3205.0</ele>
        <time>2022-11-20T13:13:02.000Z</time>
      </trkpt>
      <trkpt lat="37.05468333" lon="-3.37120833">
        <ele>3205.0</ele>
        <time>2022-11-20T13:13:03.000Z</time>
      </trkpt>
      <trkpt lat="37.05469667" lon="-3.371205">
        <ele>3205.0</ele>
        <time>2022-11-20T13:13:04.000Z</time>
      </trkpt>
      <trkpt lat="37.05471" lon="-3.3712">
        <ele>3205.0</ele>
        <time>2022-11-20T13:13:05.000Z</time>
      </trkpt>
      <trkpt lat="37.054725" lon="-3.37119333">
        <ele>3204.0</ele>
        <time>2022-11-20T13:13:06.000Z</time>
      </trkpt>
      <trkpt lat="37.05473833" lon="-3.37119167">
        <ele>3204.0</ele>
        <time>2022-11-20T13:13:07.000Z</time>
      </trkpt>
      <trkpt lat="37.05475" lon="-3.37119">
        <ele>3204.0</ele>
        <time>2022-11-20T13:13:08.000Z</time>
      </trkpt>
      <trkpt lat="37.05476167" lon="-3.37119">
        <ele>3204.0</ele>
        <time>2022-11-20T13:13:09.000Z</time>
      </trkpt>
      <trkpt lat="37.05477333" lon="-3.37119167">
        <ele>3204.0</ele>
        <time>2022-11-20T13:13:10.000Z</time>
      </trkpt>
      <trkpt lat="37.054785" lon="-3.37119333">
        <ele>3204.0</ele>
        <time>2022-11-20T13:13:11.000Z</time>
      </trkpt>
      <trkpt lat="37.054795" lon="-3.371195">
        <ele>3204.0</ele>
        <time>2022-11-20T13:13:12.000Z</time>
      </trkpt>
      <trkpt lat="37.054805" lon="-3.3712">
        <ele>3204.0</ele>
        <time>2022-11-20T13:13:13.000Z</time>
      </trkpt>
      <trkpt lat="37.05481667" lon="-3.371205">
        <ele>3204.0</ele>
        <time>2022-11-20T13:13:14.000Z</time>
      </trkpt>
      <trkpt lat="37.05483" lon="-3.37120833">
        <ele>3204.0</ele>
        <time>2022-11-20T13:13:15.000Z</time>
      </trkpt>
      <trkpt lat="37.05484333" lon="-3.37121333">
        <ele>3204.0</ele>
        <time>2022-11-20T13:13:16.000Z</time>
      </trkpt>
      <trkpt lat="37.054855" lon="-3.37121833">
        <ele>3204.0</ele>
        <time>2022-11-20T13:13:17.000Z</time>
      </trkpt>
      <trkpt lat="37.05486667" lon="-3.37122333">
        <ele>3204.0</ele>
        <time>2022-11-20T13:13:18.000Z</time>
      </trkpt>
      <trkpt lat="37.05487833" lon="-3.37122667">
        <ele>3204.0</ele>
        <time>2022-11-20T13:13:19.000Z</time>
      </trkpt>
      <trkpt lat="37.05489" lon="-3.37123">
        <ele>3204.0</ele>
        <time>2022-11-20T13:13:20.000Z</time>
      </trkpt>
      <trkpt lat="37.05490333" lon="-3.371235">
        <ele>3203.0</ele>
        <time>2022-11-20T13:13:21.000Z</time>
      </trkpt>
      <trkpt lat="37.05491667" lon="-3.37123833">
        <ele>3203.0</ele>
        <time>2022-11-20T13:13:22.000Z</time>
      </trkpt>
      <trkpt lat="37.05492833" lon="-3.37124167">
        <ele>3203.0</ele>
        <time>2022-11-20T13:13:23.000Z</time>
      </trkpt>
      <trkpt lat="37.05494" lon="-3.37124667">
        <ele>3203.0</ele>
        <time>2022-11-20T13:13:24.000Z</time>
      </trkpt>
      <trkpt lat="37.05495333" lon="-3.37125167">
        <ele>3203.0</ele>
        <time>2022-11-20T13:13:25.000Z</time>
      </trkpt>
      <trkpt lat="37.05496333" lon="-3.37125667">
        <ele>3203.0</ele>
        <time>2022-11-20T13:13:26.000Z</time>
      </trkpt>
      <trkpt lat="37.05497667" lon="-3.37126">
        <ele>3203.0</ele>
        <time>2022-11-20T13:13:27.000Z</time>
      </trkpt>
      <trkpt lat="37.05499" lon="-3.37126333">
        <ele>3203.0</ele>
        <time>2022-11-20T13:13:28.000Z</time>
      </trkpt>
      <trkpt lat="37.05500333" lon="-3.37126667">
        <ele>3203.0</ele>
        <time>2022-11-20T13:13:29.000Z</time>
      </trkpt>
      <trkpt lat="37.05501667" lon="-3.37127167">
        <ele>3203.0</ele>
        <time>2022-11-20T13:13:30.000Z</time>
      </trkpt>
      <trkpt lat="37.05503167" lon="-3.371275">
        <ele>3203.0</ele>
        <time>2022-11-20T13:13:31.000Z</time>
      </trkpt>
      <trkpt lat="37.05504667" lon="-3.37128">
        <ele>3203.0</ele>
        <time>2022-11-20T13:13:32.000Z</time>
      </trkpt>
      <trkpt lat="37.05506167" lon="-3.37128333">
        <ele>3203.0</ele>
        <time>2022-11-20T13:13:33.000Z</time>
      </trkpt>
      <trkpt lat="37.055075" lon="-3.37128667">
        <ele>3202.0</ele>
        <time>2022-11-20T13:13:34.000Z</time>
      </trkpt>
      <trkpt lat="37.05509" lon="-3.37129">
        <ele>3202.0</ele>
        <time>2022-11-20T13:13:35.000Z</time>
      </trkpt>
      <trkpt lat="37.05510333" lon="-3.371295">
        <ele>3202.0</ele>
        <time>2022-11-20T13:13:36.000Z</time>
      </trkpt>
      <trkpt lat="37.05511667" lon="-3.37129833">
        <ele>3202.0</ele>
        <time>2022-11-20T13:13:37.000Z</time>
      </trkpt>
      <trkpt lat="37.05513167" lon="-3.37130167">
        <ele>3202.0</ele>
        <time>2022-11-20T13:13:38.000Z</time>
      </trkpt>
      <trkpt lat="37.055145" lon="-3.37130833">
        <ele>3202.0</ele>
        <time>2022-11-20T13:13:39.000Z</time>
      </trkpt>
      <trkpt lat="37.05515833" lon="-3.37131333">
        <ele>3202.0</ele>
        <time>2022-11-20T13:13:40.000Z</time>
      </trkpt>
      <trkpt lat="37.05517333" lon="-3.37131833">
        <ele>3202.0</ele>
        <time>2022-11-20T13:13:41.000Z</time>
      </trkpt>
      <trkpt lat="37.05518667" lon="-3.37132333">
        <ele>3202.0</ele>
        <time>2022-11-20T13:13:42.000Z</time>
      </trkpt>
      <trkpt lat="37.05520167" lon="-3.37132667">
        <ele>3202.0</ele>
        <time>2022-11-20T13:13:43.000Z</time>
      </trkpt>
      <trkpt lat="37.055215" lon="-3.37133">
        <ele>3202.0</ele>
        <time>2022-11-20T13:13:44.000Z</time>
      </trkpt>
      <trkpt lat="37.05522833" lon="-3.37133333">
        <ele>3202.0</ele>
        <time>2022-11-20T13:13:45.000Z</time>
      </trkpt>
      <trkpt lat="37.05524167" lon="-3.37133833">
        <ele>3202.0</ele>
        <time>2022-11-20T13:13:46.000Z</time>
      </trkpt>
      <trkpt lat="37.055255" lon="-3.37134333">
        <ele>3202.0</ele>
        <time>2022-11-20T13:13:47.000Z</time>
      </trkpt>
      <trkpt lat="37.05526833" lon="-3.37134667">
        <ele>3202.0</ele>
        <time>2022-11-20T13:13:48.000Z</time>
      </trkpt>
      <trkpt lat="37.05528" lon="-3.37135167">
        <ele>3202.0</ele>
        <time>2022-11-20T13:13:49.000Z</time>
      </trkpt>
      <trkpt lat="37.05529167" lon="-3.371355">
        <ele>3202.0</ele>
        <time>2022-11-20T13:13:50.000Z</time>
      </trkpt>
      <trkpt lat="37.05530333" lon="-3.37136167">
        <ele>3202.0</ele>
        <time>2022-11-20T13:13:51.000Z</time>
      </trkpt>
      <trkpt lat="37.05531667" lon="-3.371365">
        <ele>3202.0</ele>
        <time>2022-11-20T13:13:52.000Z</time>
      </trkpt>
      <trkpt lat="37.05532833" lon="-3.37137">
        <ele>3202.0</ele>
        <time>2022-11-20T13:13:53.000Z</time>
      </trkpt>
      <trkpt lat="37.05534333" lon="-3.371375">
        <ele>3201.0</ele>
        <time>2022-11-20T13:13:54.000Z</time>
      </trkpt>
      <trkpt lat="37.05535667" lon="-3.37137833">
        <ele>3201.0</ele>
        <time>2022-11-20T13:13:55.000Z</time>
      </trkpt>
      <trkpt lat="37.05536833" lon="-3.37138333">
        <ele>3201.0</ele>
        <time>2022-11-20T13:13:56.000Z</time>
      </trkpt>
      <trkpt lat="37.05538167" lon="-3.37138833">
        <ele>3201.0</ele>
        <time>2022-11-20T13:13:57.000Z</time>
      </trkpt>
      <trkpt lat="37.055395" lon="-3.37139167">
        <ele>3201.0</ele>
        <time>2022-11-20T13:13:58.000Z</time>
      </trkpt>
      <trkpt lat="37.05541" lon="-3.37139667">
        <ele>3201.0</ele>
        <time>2022-11-20T13:13:59.000Z</time>
      </trkpt>
      <trkpt lat="37.055425" lon="-3.37140167">
        <ele>3201.0</ele>
        <time>2022-11-20T13:14:00.000Z</time>
      </trkpt>
      <trkpt lat="37.05543833" lon="-3.37140333">
        <ele>3201.0</ele>
        <time>2022-11-20T13:14:01.000Z</time>
      </trkpt>
      <trkpt lat="37.05545333" lon="-3.37140667">
        <ele>3201.0</ele>
        <time>2022-11-20T13:14:02.000Z</time>
      </trkpt>
      <trkpt lat="37.05546833" lon="-3.37141">
        <ele>3201.0</ele>
        <time>2022-11-20T13:14:03.000Z</time>
      </trkpt>
      <trkpt lat="37.05548333" lon="-3.37141333">
        <ele>3201.0</ele>
        <time>2022-11-20T13:14:04.000Z</time>
      </trkpt>
      <trkpt lat="37.05549833" lon="-3.37141667">
        <ele>3201.0</ele>
        <time>2022-11-20T13:14:05.000Z</time>
      </trkpt>
      <trkpt lat="37.05551333" lon="-3.37142">
        <ele>3201.0</ele>
        <time>2022-11-20T13:14:06.000Z</time>
      </trkpt>
      <trkpt lat="37.05552833" lon="-3.371425">
        <ele>3201.0</ele>
        <time>2022-11-20T13:14:07.000Z</time>
      </trkpt>
      <trkpt lat="37.05554333" lon="-3.37143">
        <ele>3200.0</ele>
        <time>2022-11-20T13:14:08.000Z</time>
      </trkpt>
      <trkpt lat="37.05555667" lon="-3.371435">
        <ele>3200.0</ele>
        <time>2022-11-20T13:14:09.000Z</time>
      </trkpt>
      <trkpt lat="37.05557" lon="-3.37144167">
        <ele>3200.0</ele>
        <time>2022-11-20T13:14:10.000Z</time>
      </trkpt>
      <trkpt lat="37.05558333" lon="-3.37144833">
        <ele>3200.0</ele>
        <time>2022-11-20T13:14:11.000Z</time>
      </trkpt>
      <trkpt lat="37.05559667" lon="-3.37145167">
        <ele>3200.0</ele>
        <time>2022-11-20T13:14:12.000Z</time>
      </trkpt>
      <trkpt lat="37.05561167" lon="-3.37145833">
        <ele>3200.0</ele>
        <time>2022-11-20T13:14:13.000Z</time>
      </trkpt>
      <trkpt lat="37.05562667" lon="-3.37146333">
        <ele>3200.0</ele>
        <time>2022-11-20T13:14:14.000Z</time>
      </trkpt>
      <trkpt lat="37.05564167" lon="-3.37146833">
        <ele>3200.0</ele>
        <time>2022-11-20T13:14:15.000Z</time>
      </trkpt>
      <trkpt lat="37.055655" lon="-3.37147333">
        <ele>3200.0</ele>
        <time>2022-11-20T13:14:16.000Z</time>
      </trkpt>
      <trkpt lat="37.05567" lon="-3.37147833">
        <ele>3199.0</ele>
        <time>2022-11-20T13:14:17.000Z</time>
      </trkpt>
      <trkpt lat="37.05568667" lon="-3.371485">
        <ele>3199.0</ele>
        <time>2022-11-20T13:14:18.000Z</time>
      </trkpt>
      <trkpt lat="37.0557" lon="-3.37148833">
        <ele>3199.0</ele>
        <time>2022-11-20T13:14:19.000Z</time>
      </trkpt>
      <trkpt lat="37.05571333" lon="-3.37149167">
        <ele>3199.0</ele>
        <time>2022-11-20T13:14:20.000Z</time>
      </trkpt>
      <trkpt lat="37.05572667" lon="-3.371495">
        <ele>3199.0</ele>
        <time>2022-11-20T13:14:21.000Z</time>
      </trkpt>
      <trkpt lat="37.05573833" lon="-3.3715">
        <ele>3199.0</ele>
        <time>2022-11-20T13:14:22.000Z</time>
      </trkpt>
      <trkpt lat="37.05575167" lon="-3.371505">
        <ele>3199.0</ele>
        <time>2022-11-20T13:14:23.000Z</time>
      </trkpt>
      <trkpt lat="37.05576667" lon="-3.37150833">
        <ele>3199.0</ele>
        <time>2022-11-20T13:14:24.000Z</time>
      </trkpt>
      <trkpt lat="37.05578" lon="-3.37151167">
        <ele>3198.0</ele>
        <time>2022-11-20T13:14:25.000Z</time>
      </trkpt>
      <trkpt lat="37.05579333" lon="-3.37151667">
        <ele>3198.0</ele>
        <time>2022-11-20T13:14:26.000Z</time>
      </trkpt>
      <trkpt lat="37.05580833" lon="-3.37152">
        <ele>3198.0</ele>
        <time>2022-11-20T13:14:27.000Z</time>
      </trkpt>
      <trkpt lat="37.05582333" lon="-3.371525">
        <ele>3198.0</ele>
        <time>2022-11-20T13:14:28.000Z</time>
      </trkpt>
      <trkpt lat="37.05584167" lon="-3.37153">
        <ele>3198.0</ele>
        <time>2022-11-20T13:14:29.000Z</time>
      </trkpt>
      <trkpt lat="37.05586" lon="-3.371535">
        <ele>3198.0</ele>
        <time>2022-11-20T13:14:30.000Z</time>
      </trkpt>
      <trkpt lat="37.05588167" lon="-3.37154167">
        <ele>3198.0</ele>
        <time>2022-11-20T13:14:31.000Z</time>
      </trkpt>
      <trkpt lat="37.05590167" lon="-3.37154667">
        <ele>3198.0</ele>
        <time>2022-11-20T13:14:32.000Z</time>
      </trkpt>
      <trkpt lat="37.05592333" lon="-3.37155">
        <ele>3198.0</ele>
        <time>2022-11-20T13:14:33.000Z</time>
      </trkpt>
      <trkpt lat="37.055945" lon="-3.37155167">
        <ele>3197.0</ele>
        <time>2022-11-20T13:14:34.000Z</time>
      </trkpt>
      <trkpt lat="37.05596833" lon="-3.37155833">
        <ele>3197.0</ele>
        <time>2022-11-20T13:14:35.000Z</time>
      </trkpt>
      <trkpt lat="37.05599" lon="-3.37156833">
        <ele>3197.0</ele>
        <time>2022-11-20T13:14:36.000Z</time>
      </trkpt>
      <trkpt lat="37.05601" lon="-3.37157833">
        <ele>3197.0</ele>
        <time>2022-11-20T13:14:37.000Z</time>
      </trkpt>
      <trkpt lat="37.05603" lon="-3.37158833">
        <ele>3197.0</ele>
        <time>2022-11-20T13:14:38.000Z</time>
      </trkpt>
      <trkpt lat="37.05604667" lon="-3.371595">
        <ele>3197.0</ele>
        <time>2022-11-20T13:14:39.000Z</time>
      </trkpt>
      <trkpt lat="37.05606167" lon="-3.37160167">
        <ele>3197.0</ele>
        <time>2022-11-20T13:14:40.000Z</time>
      </trkpt>
      <trkpt lat="37.056075" lon="-3.37160667">
        <ele>3197.0</ele>
        <time>2022-11-20T13:14:41.000Z</time>
      </trkpt>
      <trkpt lat="37.05608833" lon="-3.37161333">
        <ele>3196.0</ele>
        <time>2022-11-20T13:14:42.000Z</time>
      </trkpt>
      <trkpt lat="37.05610333" lon="-3.37162167">
        <ele>3196.0</ele>
        <time>2022-11-20T13:14:43.000Z</time>
      </trkpt>
      <trkpt lat="37.05611833" lon="-3.37162833">
        <ele>3196.0</ele>
        <time>2022-11-20T13:14:44.000Z</time>
      </trkpt>
      <trkpt lat="37.05613333" lon="-3.37163667">
        <ele>3196.0</ele>
        <time>2022-11-20T13:14:45.000Z</time>
      </trkpt>
      <trkpt lat="37.05615" lon="-3.37164167">
        <ele>3196.0</ele>
        <time>2022-11-20T13:14:46.000Z</time>
      </trkpt>
      <trkpt lat="37.056165" lon="-3.37164833">
        <ele>3196.0</ele>
        <time>2022-11-20T13:14:47.000Z</time>
      </trkpt>
      <trkpt lat="37.05617833" lon="-3.37165333">
        <ele>3195.0</ele>
        <time>2022-11-20T13:14:48.000Z</time>
      </trkpt>
      <trkpt lat="37.05619333" lon="-3.37166">
        <ele>3195.0</ele>
        <time>2022-11-20T13:14:49.000Z</time>
      </trkpt>
      <trkpt lat="37.05620833" lon="-3.371665">
        <ele>3195.0</ele>
        <time>2022-11-20T13:14:50.000Z</time>
      </trkpt>
      <trkpt lat="37.05622333" lon="-3.37167167">
        <ele>3195.0</ele>
        <time>2022-11-20T13:14:51.000Z</time>
      </trkpt>
      <trkpt lat="37.05623833" lon="-3.37167833">
        <ele>3194.0</ele>
        <time>2022-11-20T13:14:52.000Z</time>
      </trkpt>
      <trkpt lat="37.05625333" lon="-3.371685">
        <ele>3194.0</ele>
        <time>2022-11-20T13:14:53.000Z</time>
      </trkpt>
      <trkpt lat="37.05626667" lon="-3.37169">
        <ele>3194.0</ele>
        <time>2022-11-20T13:14:54.000Z</time>
      </trkpt>
      <trkpt lat="37.05628" lon="-3.37169667">
        <ele>3194.0</ele>
        <time>2022-11-20T13:14:55.000Z</time>
      </trkpt>
      <trkpt lat="37.05629333" lon="-3.37170167">
        <ele>3194.0</ele>
        <time>2022-11-20T13:14:56.000Z</time>
      </trkpt>
      <trkpt lat="37.056305" lon="-3.37170833">
        <ele>3194.0</ele>
        <time>2022-11-20T13:14:57.000Z</time>
      </trkpt>
      <trkpt lat="37.05631833" lon="-3.37171333">
        <ele>3193.0</ele>
        <time>2022-11-20T13:14:58.000Z</time>
      </trkpt>
      <trkpt lat="37.05633167" lon="-3.37171833">
        <ele>3193.0</ele>
        <time>2022-11-20T13:14:59.000Z</time>
      </trkpt>
      <trkpt lat="37.05634667" lon="-3.371725">
        <ele>3193.0</ele>
        <time>2022-11-20T13:15:00.000Z</time>
      </trkpt>
      <trkpt lat="37.05636" lon="-3.37172833">
        <ele>3193.0</ele>
        <time>2022-11-20T13:15:01.000Z</time>
      </trkpt>
      <trkpt lat="37.05637333" lon="-3.37173333">
        <ele>3193.0</ele>
        <time>2022-11-20T13:15:02.000Z</time>
      </trkpt>
      <trkpt lat="37.05638833" lon="-3.37173833">
        <ele>3192.0</ele>
        <time>2022-11-20T13:15:03.000Z</time>
      </trkpt>
      <trkpt lat="37.05640167" lon="-3.37174333">
        <ele>3192.0</ele>
        <time>2022-11-20T13:15:04.000Z</time>
      </trkpt>
      <trkpt lat="37.05641667" lon="-3.37174833">
        <ele>3192.0</ele>
        <time>2022-11-20T13:15:05.000Z</time>
      </trkpt>
      <trkpt lat="37.05643167" lon="-3.37175333">
        <ele>3192.0</ele>
        <time>2022-11-20T13:15:06.000Z</time>
      </trkpt>
      <trkpt lat="37.056445" lon="-3.37176">
        <ele>3192.0</ele>
        <time>2022-11-20T13:15:07.000Z</time>
      </trkpt>
      <trkpt lat="37.05645833" lon="-3.37176667">
        <ele>3192.0</ele>
        <time>2022-11-20T13:15:08.000Z</time>
      </trkpt>
      <trkpt lat="37.05647167" lon="-3.37177167">
        <ele>3191.0</ele>
        <time>2022-11-20T13:15:09.000Z</time>
      </trkpt>
      <trkpt lat="37.05648667" lon="-3.37177833">
        <ele>3191.0</ele>
        <time>2022-11-20T13:15:10.000Z</time>
      </trkpt>
      <trkpt lat="37.0565" lon="-3.37178333">
        <ele>3191.0</ele>
        <time>2022-11-20T13:15:11.000Z</time>
      </trkpt>
      <trkpt lat="37.056515" lon="-3.37179">
        <ele>3191.0</ele>
        <time>2022-11-20T13:15:12.000Z</time>
      </trkpt>
      <trkpt lat="37.05652667" lon="-3.371795">
        <ele>3191.0</ele>
        <time>2022-11-20T13:15:13.000Z</time>
      </trkpt>
      <trkpt lat="37.05654167" lon="-3.3718">
        <ele>3191.0</ele>
        <time>2022-11-20T13:15:14.000Z</time>
      </trkpt>
      <trkpt lat="37.056555" lon="-3.37180333">
        <ele>3190.0</ele>
        <time>2022-11-20T13:15:15.000Z</time>
      </trkpt>
      <trkpt lat="37.05657" lon="-3.37180667">
        <ele>3190.0</ele>
        <time>2022-11-20T13:15:16.000Z</time>
      </trkpt>
      <trkpt lat="37.056585" lon="-3.37181333">
        <ele>3190.0</ele>
        <time>2022-11-20T13:15:17.000Z</time>
      </trkpt>
      <trkpt lat="37.05659833" lon="-3.37181833">
        <ele>3190.0</ele>
        <time>2022-11-20T13:15:18.000Z</time>
      </trkpt>
      <trkpt lat="37.05661167" lon="-3.371825">
        <ele>3190.0</ele>
        <time>2022-11-20T13:15:19.000Z</time>
      </trkpt>
      <trkpt lat="37.05662667" lon="-3.37183">
        <ele>3190.0</ele>
        <time>2022-11-20T13:15:20.000Z</time>
      </trkpt>
      <trkpt lat="37.05664" lon="-3.371835">
        <ele>3190.0</ele>
        <time>2022-11-20T13:15:21.000Z</time>
      </trkpt>
      <trkpt lat="37.05665333" lon="-3.37184">
        <ele>3190.0</ele>
        <time>2022-11-20T13:15:22.000Z</time>
      </trkpt>
      <trkpt lat="37.05666667" lon="-3.37184333">
        <ele>3190.0</ele>
        <time>2022-11-20T13:15:23.000Z</time>
      </trkpt>
      <trkpt lat="37.05668" lon="-3.37184833">
        <ele>3190.0</ele>
        <time>2022-11-20T13:15:24.000Z</time>
      </trkpt>
      <trkpt lat="37.056695" lon="-3.37185333">
        <ele>3190.0</ele>
        <time>2022-11-20T13:15:25.000Z</time>
      </trkpt>
      <trkpt lat="37.05670833" lon="-3.37186167">
        <ele>3189.0</ele>
        <time>2022-11-20T13:15:26.000Z</time>
      </trkpt>
      <trkpt lat="37.05672333" lon="-3.37186833">
        <ele>3189.0</ele>
        <time>2022-11-20T13:15:27.000Z</time>
      </trkpt>
      <trkpt lat="37.05673667" lon="-3.371875">
        <ele>3189.0</ele>
        <time>2022-11-20T13:15:28.000Z</time>
      </trkpt>
      <trkpt lat="37.05675167" lon="-3.37188">
        <ele>3189.0</ele>
        <time>2022-11-20T13:15:29.000Z</time>
      </trkpt>
      <trkpt lat="37.05676667" lon="-3.37188833">
        <ele>3189.0</ele>
        <time>2022-11-20T13:15:30.000Z</time>
      </trkpt>
      <trkpt lat="37.05678" lon="-3.371895">
        <ele>3189.0</ele>
        <time>2022-11-20T13:15:31.000Z</time>
      </trkpt>
      <trkpt lat="37.056795" lon="-3.37190333">
        <ele>3189.0</ele>
        <time>2022-11-20T13:15:32.000Z</time>
      </trkpt>
      <trkpt lat="37.05680833" lon="-3.37191">
        <ele>3189.0</ele>
        <time>2022-11-20T13:15:33.000Z</time>
      </trkpt>
      <trkpt lat="37.05682167" lon="-3.37191667">
        <ele>3189.0</ele>
        <time>2022-11-20T13:15:34.000Z</time>
      </trkpt>
      <trkpt lat="37.056835" lon="-3.37192333">
        <ele>3188.0</ele>
        <time>2022-11-20T13:15:35.000Z</time>
      </trkpt>
      <trkpt lat="37.05684833" lon="-3.37193">
        <ele>3188.0</ele>
        <time>2022-11-20T13:15:36.000Z</time>
      </trkpt>
      <trkpt lat="37.05686333" lon="-3.371935">
        <ele>3188.0</ele>
        <time>2022-11-20T13:15:37.000Z</time>
      </trkpt>
      <trkpt lat="37.05687667" lon="-3.37194167">
        <ele>3188.0</ele>
        <time>2022-11-20T13:15:38.000Z</time>
      </trkpt>
      <trkpt lat="37.05689167" lon="-3.37194833">
        <ele>3188.0</ele>
        <time>2022-11-20T13:15:39.000Z</time>
      </trkpt>
      <trkpt lat="37.05690667" lon="-3.371955">
        <ele>3188.0</ele>
        <time>2022-11-20T13:15:40.000Z</time>
      </trkpt>
      <trkpt lat="37.05692" lon="-3.37195833">
        <ele>3187.0</ele>
        <time>2022-11-20T13:15:41.000Z</time>
      </trkpt>
      <trkpt lat="37.05693333" lon="-3.37196667">
        <ele>3187.0</ele>
        <time>2022-11-20T13:15:42.000Z</time>
      </trkpt>
      <trkpt lat="37.056945" lon="-3.37197167">
        <ele>3187.0</ele>
        <time>2022-11-20T13:15:43.000Z</time>
      </trkpt>
      <trkpt lat="37.05696" lon="-3.371975">
        <ele>3187.0</ele>
        <time>2022-11-20T13:15:44.000Z</time>
      </trkpt>
      <trkpt lat="37.05697167" lon="-3.37197833">
        <ele>3187.0</ele>
        <time>2022-11-20T13:15:45.000Z</time>
      </trkpt>
      <trkpt lat="37.05698667" lon="-3.37198333">
        <ele>3187.0</ele>
        <time>2022-11-20T13:15:46.000Z</time>
      </trkpt>
      <trkpt lat="37.05700167" lon="-3.37198667">
        <ele>3186.0</ele>
        <time>2022-11-20T13:15:47.000Z</time>
      </trkpt>
      <trkpt lat="37.057015" lon="-3.37199167">
        <ele>3186.0</ele>
        <time>2022-11-20T13:15:48.000Z</time>
      </trkpt>
      <trkpt lat="37.05702833" lon="-3.37199667">
        <ele>3186.0</ele>
        <time>2022-11-20T13:15:49.000Z</time>
      </trkpt>
      <trkpt lat="37.05704333" lon="-3.37200333">
        <ele>3186.0</ele>
        <time>2022-11-20T13:15:50.000Z</time>
      </trkpt>
      <trkpt lat="37.05705833" lon="-3.37200833">
        <ele>3186.0</ele>
        <time>2022-11-20T13:15:51.000Z</time>
      </trkpt>
      <trkpt lat="37.05707333" lon="-3.37201333">
        <ele>3186.0</ele>
        <time>2022-11-20T13:15:52.000Z</time>
      </trkpt>
      <trkpt lat="37.05708833" lon="-3.37201667">
        <ele>3186.0</ele>
        <time>2022-11-20T13:15:53.000Z</time>
      </trkpt>
      <trkpt lat="37.05710167" lon="-3.37202167">
        <ele>3186.0</ele>
        <time>2022-11-20T13:15:54.000Z</time>
      </trkpt>
      <trkpt lat="37.05711667" lon="-3.372025">
        <ele>3185.0</ele>
        <time>2022-11-20T13:15:55.000Z</time>
      </trkpt>
      <trkpt lat="37.05713" lon="-3.37202833">
        <ele>3185.0</ele>
        <time>2022-11-20T13:15:56.000Z</time>
      </trkpt>
      <trkpt lat="37.057145" lon="-3.37203167">
        <ele>3185.0</ele>
        <time>2022-11-20T13:15:57.000Z</time>
      </trkpt>
      <trkpt lat="37.05715833" lon="-3.37203833">
        <ele>3185.0</ele>
        <time>2022-11-20T13:15:58.000Z</time>
      </trkpt>
      <trkpt lat="37.05717" lon="-3.372045">
        <ele>3185.0</ele>
        <time>2022-11-20T13:15:59.000Z</time>
      </trkpt>
      <trkpt lat="37.05718333" lon="-3.37205">
        <ele>3185.0</ele>
        <time>2022-11-20T13:16:00.000Z</time>
      </trkpt>
      <trkpt lat="37.05719667" lon="-3.372055">
        <ele>3185.0</ele>
        <time>2022-11-20T13:16:01.000Z</time>
      </trkpt>
      <trkpt lat="37.05721167" lon="-3.37205667">
        <ele>3185.0</ele>
        <time>2022-11-20T13:16:02.000Z</time>
      </trkpt>
      <trkpt lat="37.057225" lon="-3.37206167">
        <ele>3184.0</ele>
        <time>2022-11-20T13:16:03.000Z</time>
      </trkpt>
      <trkpt lat="37.05724" lon="-3.372065">
        <ele>3184.0</ele>
        <time>2022-11-20T13:16:04.000Z</time>
      </trkpt>
      <trkpt lat="37.057255" lon="-3.37207167">
        <ele>3184.0</ele>
        <time>2022-11-20T13:16:05.000Z</time>
      </trkpt>
      <trkpt lat="37.05726833" lon="-3.37207667">
        <ele>3184.0</ele>
        <time>2022-11-20T13:16:06.000Z</time>
      </trkpt>
      <trkpt lat="37.05728333" lon="-3.37208">
        <ele>3184.0</ele>
        <time>2022-11-20T13:16:07.000Z</time>
      </trkpt>
      <trkpt lat="37.05729833" lon="-3.37208333">
        <ele>3184.0</ele>
        <time>2022-11-20T13:16:08.000Z</time>
      </trkpt>
      <trkpt lat="37.05731333" lon="-3.37208667">
        <ele>3184.0</ele>
        <time>2022-11-20T13:16:09.000Z</time>
      </trkpt>
      <trkpt lat="37.05732667" lon="-3.37209">
        <ele>3183.0</ele>
        <time>2022-11-20T13:16:10.000Z</time>
      </trkpt>
      <trkpt lat="37.05734167" lon="-3.372095">
        <ele>3183.0</ele>
        <time>2022-11-20T13:16:11.000Z</time>
      </trkpt>
      <trkpt lat="37.05735667" lon="-3.3721">
        <ele>3183.0</ele>
        <time>2022-11-20T13:16:12.000Z</time>
      </trkpt>
      <trkpt lat="37.05736833" lon="-3.37210167">
        <ele>3183.0</ele>
        <time>2022-11-20T13:16:13.000Z</time>
      </trkpt>
      <trkpt lat="37.05738167" lon="-3.372105">
        <ele>3183.0</ele>
        <time>2022-11-20T13:16:14.000Z</time>
      </trkpt>
      <trkpt lat="37.057395" lon="-3.37210833">
        <ele>3183.0</ele>
        <time>2022-11-20T13:16:15.000Z</time>
      </trkpt>
      <trkpt lat="37.05741" lon="-3.37211333">
        <ele>3183.0</ele>
        <time>2022-11-20T13:16:16.000Z</time>
      </trkpt>
      <trkpt lat="37.05742333" lon="-3.37211833">
        <ele>3183.0</ele>
        <time>2022-11-20T13:16:17.000Z</time>
      </trkpt>
      <trkpt lat="37.05743833" lon="-3.37212167">
        <ele>3183.0</ele>
        <time>2022-11-20T13:16:18.000Z</time>
      </trkpt>
      <trkpt lat="37.05745167" lon="-3.372125">
        <ele>3183.0</ele>
        <time>2022-11-20T13:16:19.000Z</time>
      </trkpt>
      <trkpt lat="37.05746667" lon="-3.37213">
        <ele>3183.0</ele>
        <time>2022-11-20T13:16:20.000Z</time>
      </trkpt>
      <trkpt lat="37.05747833" lon="-3.372135">
        <ele>3183.0</ele>
        <time>2022-11-20T13:16:21.000Z</time>
      </trkpt>
      <trkpt lat="37.05749167" lon="-3.37213833">
        <ele>3182.0</ele>
        <time>2022-11-20T13:16:22.000Z</time>
      </trkpt>
      <trkpt lat="37.05750167" lon="-3.37214">
        <ele>3182.0</ele>
        <time>2022-11-20T13:16:23.000Z</time>
      </trkpt>
      <trkpt lat="37.057515" lon="-3.37214167">
        <ele>3182.0</ele>
        <time>2022-11-20T13:16:24.000Z</time>
      </trkpt>
      <trkpt lat="37.05752833" lon="-3.37214333">
        <ele>3182.0</ele>
        <time>2022-11-20T13:16:25.000Z</time>
      </trkpt>
      <trkpt lat="37.05754" lon="-3.372145">
        <ele>3182.0</ele>
        <time>2022-11-20T13:16:26.000Z</time>
      </trkpt>
      <trkpt lat="37.05755333" lon="-3.37214667">
        <ele>3182.0</ele>
        <time>2022-11-20T13:16:27.000Z</time>
      </trkpt>
      <trkpt lat="37.05756667" lon="-3.37214833">
        <ele>3182.0</ele>
        <time>2022-11-20T13:16:28.000Z</time>
      </trkpt>
      <trkpt lat="37.05758" lon="-3.37215167">
        <ele>3182.0</ele>
        <time>2022-11-20T13:16:29.000Z</time>
      </trkpt>
      <trkpt lat="37.05759333" lon="-3.372155">
        <ele>3182.0</ele>
        <time>2022-11-20T13:16:30.000Z</time>
      </trkpt>
      <trkpt lat="37.05760833" lon="-3.37216">
        <ele>3182.0</ele>
        <time>2022-11-20T13:16:31.000Z</time>
      </trkpt>
      <trkpt lat="37.05762167" lon="-3.37216333">
        <ele>3181.0</ele>
        <time>2022-11-20T13:16:32.000Z</time>
      </trkpt>
      <trkpt lat="37.057635" lon="-3.37216667">
        <ele>3181.0</ele>
        <time>2022-11-20T13:16:33.000Z</time>
      </trkpt>
      <trkpt lat="37.05764833" lon="-3.37217">
        <ele>3181.0</ele>
        <time>2022-11-20T13:16:34.000Z</time>
      </trkpt>
      <trkpt lat="37.05766333" lon="-3.37217167">
        <ele>3181.0</ele>
        <time>2022-11-20T13:16:35.000Z</time>
      </trkpt>
      <trkpt lat="37.05768" lon="-3.37217333">
        <ele>3181.0</ele>
        <time>2022-11-20T13:16:36.000Z</time>
      </trkpt>
      <trkpt lat="37.057695" lon="-3.37217667">
        <ele>3181.0</ele>
        <time>2022-11-20T13:16:37.000Z</time>
      </trkpt>
      <trkpt lat="37.05771" lon="-3.37217833">
        <ele>3181.0</ele>
        <time>2022-11-20T13:16:38.000Z</time>
      </trkpt>
      <trkpt lat="37.057725" lon="-3.37217833">
        <ele>3181.0</ele>
        <time>2022-11-20T13:16:39.000Z</time>
      </trkpt>
      <trkpt lat="37.05774" lon="-3.37218167">
        <ele>3180.0</ele>
        <time>2022-11-20T13:16:40.000Z</time>
      </trkpt>
      <trkpt lat="37.05775333" lon="-3.37218333">
        <ele>3180.0</ele>
        <time>2022-11-20T13:16:41.000Z</time>
      </trkpt>
      <trkpt lat="37.05776833" lon="-3.372185">
        <ele>3180.0</ele>
        <time>2022-11-20T13:16:42.000Z</time>
      </trkpt>
      <trkpt lat="37.05778333" lon="-3.37218667">
        <ele>3180.0</ele>
        <time>2022-11-20T13:16:43.000Z</time>
      </trkpt>
      <trkpt lat="37.05779667" lon="-3.372185">
        <ele>3180.0</ele>
        <time>2022-11-20T13:16:44.000Z</time>
      </trkpt>
      <trkpt lat="37.05781167" lon="-3.37218667">
        <ele>3180.0</ele>
        <time>2022-11-20T13:16:45.000Z</time>
      </trkpt>
      <trkpt lat="37.05782667" lon="-3.37218667">
        <ele>3180.0</ele>
        <time>2022-11-20T13:16:46.000Z</time>
      </trkpt>
      <trkpt lat="37.05784" lon="-3.372185">
        <ele>3179.0</ele>
        <time>2022-11-20T13:16:47.000Z</time>
      </trkpt>
      <trkpt lat="37.057855" lon="-3.37218667">
        <ele>3179.0</ele>
        <time>2022-11-20T13:16:48.000Z</time>
      </trkpt>
      <trkpt lat="37.05787" lon="-3.37218833">
        <ele>3179.0</ele>
        <time>2022-11-20T13:16:49.000Z</time>
      </trkpt>
      <trkpt lat="37.057885" lon="-3.37219">
        <ele>3179.0</ele>
        <time>2022-11-20T13:16:50.000Z</time>
      </trkpt>
      <trkpt lat="37.0579" lon="-3.37219333">
        <ele>3179.0</ele>
        <time>2022-11-20T13:16:51.000Z</time>
      </trkpt>
      <trkpt lat="37.057915" lon="-3.37219833">
        <ele>3178.0</ele>
        <time>2022-11-20T13:16:52.000Z</time>
      </trkpt>
      <trkpt lat="37.05792833" lon="-3.37220333">
        <ele>3178.0</ele>
        <time>2022-11-20T13:16:53.000Z</time>
      </trkpt>
      <trkpt lat="37.05794167" lon="-3.372205">
        <ele>3178.0</ele>
        <time>2022-11-20T13:16:54.000Z</time>
      </trkpt>
      <trkpt lat="37.05795667" lon="-3.37220667">
        <ele>3178.0</ele>
        <time>2022-11-20T13:16:55.000Z</time>
      </trkpt>
      <trkpt lat="37.05797" lon="-3.372205">
        <ele>3178.0</ele>
        <time>2022-11-20T13:16:56.000Z</time>
      </trkpt>
      <trkpt lat="37.057985" lon="-3.37220667">
        <ele>3178.0</ele>
        <time>2022-11-20T13:16:57.000Z</time>
      </trkpt>
      <trkpt lat="37.05799833" lon="-3.37220833">
        <ele>3178.0</ele>
        <time>2022-11-20T13:16:58.000Z</time>
      </trkpt>
      <trkpt lat="37.05801333" lon="-3.37221167">
        <ele>3177.0</ele>
        <time>2022-11-20T13:16:59.000Z</time>
      </trkpt>
      <trkpt lat="37.05802667" lon="-3.37221333">
        <ele>3177.0</ele>
        <time>2022-11-20T13:17:00.000Z</time>
      </trkpt>
      <trkpt lat="37.05804" lon="-3.37221333">
        <ele>3177.0</ele>
        <time>2022-11-20T13:17:01.000Z</time>
      </trkpt>
      <trkpt lat="37.05805333" lon="-3.37221333">
        <ele>3177.0</ele>
        <time>2022-11-20T13:17:02.000Z</time>
      </trkpt>
      <trkpt lat="37.05806667" lon="-3.372215">
        <ele>3177.0</ele>
        <time>2022-11-20T13:17:03.000Z</time>
      </trkpt>
      <trkpt lat="37.05808" lon="-3.372215">
        <ele>3177.0</ele>
        <time>2022-11-20T13:17:04.000Z</time>
      </trkpt>
      <trkpt lat="37.058095" lon="-3.37221667">
        <ele>3177.0</ele>
        <time>2022-11-20T13:17:05.000Z</time>
      </trkpt>
      <trkpt lat="37.05810833" lon="-3.37222">
        <ele>3177.0</ele>
        <time>2022-11-20T13:17:06.000Z</time>
      </trkpt>
      <trkpt lat="37.05812167" lon="-3.37222333">
        <ele>3177.0</ele>
        <time>2022-11-20T13:17:07.000Z</time>
      </trkpt>
      <trkpt lat="37.05813667" lon="-3.372225">
        <ele>3177.0</ele>
        <time>2022-11-20T13:17:08.000Z</time>
      </trkpt>
      <trkpt lat="37.05815" lon="-3.372225">
        <ele>3177.0</ele>
        <time>2022-11-20T13:17:09.000Z</time>
      </trkpt>
      <trkpt lat="37.058165" lon="-3.37222667">
        <ele>3177.0</ele>
        <time>2022-11-20T13:17:10.000Z</time>
      </trkpt>
      <trkpt lat="37.05818" lon="-3.37222833">
        <ele>3177.0</ele>
        <time>2022-11-20T13:17:11.000Z</time>
      </trkpt>
      <trkpt lat="37.05819333" lon="-3.37223">
        <ele>3177.0</ele>
        <time>2022-11-20T13:17:12.000Z</time>
      </trkpt>
      <trkpt lat="37.05820667" lon="-3.37223333">
        <ele>3177.0</ele>
        <time>2022-11-20T13:17:13.000Z</time>
      </trkpt>
      <trkpt lat="37.05822167" lon="-3.37223667">
        <ele>3176.0</ele>
        <time>2022-11-20T13:17:14.000Z</time>
      </trkpt>
      <trkpt lat="37.058235" lon="-3.37223833">
        <ele>3176.0</ele>
        <time>2022-11-20T13:17:15.000Z</time>
      </trkpt>
      <trkpt lat="37.05824833" lon="-3.37223833">
        <ele>3176.0</ele>
        <time>2022-11-20T13:17:16.000Z</time>
      </trkpt>
      <trkpt lat="37.05826333" lon="-3.37223833">
        <ele>3176.0</ele>
        <time>2022-11-20T13:17:17.000Z</time>
      </trkpt>
      <trkpt lat="37.05827667" lon="-3.37224167">
        <ele>3176.0</ele>
        <time>2022-11-20T13:17:18.000Z</time>
      </trkpt>
      <trkpt lat="37.05829" lon="-3.37224333">
        <ele>3176.0</ele>
        <time>2022-11-20T13:17:19.000Z</time>
      </trkpt>
      <trkpt lat="37.058305" lon="-3.372245">
        <ele>3176.0</ele>
        <time>2022-11-20T13:17:20.000Z</time>
      </trkpt>
      <trkpt lat="37.05832" lon="-3.372245">
        <ele>3176.0</ele>
        <time>2022-11-20T13:17:21.000Z</time>
      </trkpt>
      <trkpt lat="37.05833333" lon="-3.372245">
        <ele>3175.0</ele>
        <time>2022-11-20T13:17:22.000Z</time>
      </trkpt>
      <trkpt lat="37.05834667" lon="-3.37224333">
        <ele>3175.0</ele>
        <time>2022-11-20T13:17:23.000Z</time>
      </trkpt>
      <trkpt lat="37.05836" lon="-3.37224">
        <ele>3175.0</ele>
        <time>2022-11-20T13:17:24.000Z</time>
      </trkpt>
      <trkpt lat="37.058375" lon="-3.37223833">
        <ele>3175.0</ele>
        <time>2022-11-20T13:17:25.000Z</time>
      </trkpt>
      <trkpt lat="37.05839" lon="-3.37223667">
        <ele>3175.0</ele>
        <time>2022-11-20T13:17:26.000Z</time>
      </trkpt>
      <trkpt lat="37.058405" lon="-3.37223833">
        <ele>3175.0</ele>
        <time>2022-11-20T13:17:27.000Z</time>
      </trkpt>
      <trkpt lat="37.05842" lon="-3.37223833">
        <ele>3175.0</ele>
        <time>2022-11-20T13:17:28.000Z</time>
      </trkpt>
      <trkpt lat="37.05843333" lon="-3.37223833">
        <ele>3175.0</ele>
        <time>2022-11-20T13:17:29.000Z</time>
      </trkpt>
      <trkpt lat="37.05844667" lon="-3.37223833">
        <ele>3175.0</ele>
        <time>2022-11-20T13:17:30.000Z</time>
      </trkpt>
      <trkpt lat="37.05846167" lon="-3.37223667">
        <ele>3174.0</ele>
        <time>2022-11-20T13:17:31.000Z</time>
      </trkpt>
      <trkpt lat="37.05847667" lon="-3.372235">
        <ele>3174.0</ele>
        <time>2022-11-20T13:17:32.000Z</time>
      </trkpt>
      <trkpt lat="37.05849167" lon="-3.37223333">
        <ele>3174.0</ele>
        <time>2022-11-20T13:17:33.000Z</time>
      </trkpt>
      <trkpt lat="37.05850667" lon="-3.37223167">
        <ele>3174.0</ele>
        <time>2022-11-20T13:17:34.000Z</time>
      </trkpt>
      <trkpt lat="37.05852" lon="-3.37223">
        <ele>3174.0</ele>
        <time>2022-11-20T13:17:35.000Z</time>
      </trkpt>
      <trkpt lat="37.058535" lon="-3.37222833">
        <ele>3174.0</ele>
        <time>2022-11-20T13:17:36.000Z</time>
      </trkpt>
      <trkpt lat="37.05855" lon="-3.37222833">
        <ele>3174.0</ele>
        <time>2022-11-20T13:17:37.000Z</time>
      </trkpt>
      <trkpt lat="37.05856333" lon="-3.37222667">
        <ele>3173.0</ele>
        <time>2022-11-20T13:17:38.000Z</time>
      </trkpt>
      <trkpt lat="37.05856833" lon="-3.37222833">
        <ele>3173.0</ele>
        <time>2022-11-20T13:17:39.000Z</time>
      </trkpt>
      <trkpt lat="37.05857667" lon="-3.37222833">
        <ele>3173.0</ele>
        <time>2022-11-20T13:17:40.000Z</time>
      </trkpt>
      <trkpt lat="37.05858833" lon="-3.37222667">
        <ele>3173.0</ele>
        <time>2022-11-20T13:17:41.000Z</time>
      </trkpt>
      <trkpt lat="37.0586" lon="-3.372225">
        <ele>3173.0</ele>
        <time>2022-11-20T13:17:42.000Z</time>
      </trkpt>
      <trkpt lat="37.05861" lon="-3.37222167">
        <ele>3173.0</ele>
        <time>2022-11-20T13:17:43.000Z</time>
      </trkpt>
      <trkpt lat="37.05862333" lon="-3.37221667">
        <ele>3173.0</ele>
        <time>2022-11-20T13:17:44.000Z</time>
      </trkpt>
      <trkpt lat="37.058635" lon="-3.37221333">
        <ele>3173.0</ele>
        <time>2022-11-20T13:17:45.000Z</time>
      </trkpt>
      <trkpt lat="37.05864833" lon="-3.37220833">
        <ele>3173.0</ele>
        <time>2022-11-20T13:17:46.000Z</time>
      </trkpt>
      <trkpt lat="37.05866167" lon="-3.37220333">
        <ele>3173.0</ele>
        <time>2022-11-20T13:17:47.000Z</time>
      </trkpt>
      <trkpt lat="37.058675" lon="-3.37219833">
        <ele>3173.0</ele>
        <time>2022-11-20T13:17:48.000Z</time>
      </trkpt>
      <trkpt lat="37.05868833" lon="-3.372195">
        <ele>3173.0</ele>
        <time>2022-11-20T13:17:49.000Z</time>
      </trkpt>
      <trkpt lat="37.05870167" lon="-3.37219167">
        <ele>3173.0</ele>
        <time>2022-11-20T13:17:50.000Z</time>
      </trkpt>
      <trkpt lat="37.058715" lon="-3.37218667">
        <ele>3173.0</ele>
        <time>2022-11-20T13:17:51.000Z</time>
      </trkpt>
      <trkpt lat="37.05872833" lon="-3.37218">
        <ele>3172.0</ele>
        <time>2022-11-20T13:17:52.000Z</time>
      </trkpt>
      <trkpt lat="37.05874333" lon="-3.372175">
        <ele>3172.0</ele>
        <time>2022-11-20T13:17:53.000Z</time>
      </trkpt>
      <trkpt lat="37.05875833" lon="-3.37217167">
        <ele>3172.0</ele>
        <time>2022-11-20T13:17:54.000Z</time>
      </trkpt>
      <trkpt lat="37.05877167" lon="-3.37216667">
        <ele>3172.0</ele>
        <time>2022-11-20T13:17:55.000Z</time>
      </trkpt>
      <trkpt lat="37.058785" lon="-3.37216333">
        <ele>3172.0</ele>
        <time>2022-11-20T13:17:56.000Z</time>
      </trkpt>
      <trkpt lat="37.05879833" lon="-3.37215833">
        <ele>3172.0</ele>
        <time>2022-11-20T13:17:57.000Z</time>
      </trkpt>
      <trkpt lat="37.05881333" lon="-3.37215167">
        <ele>3172.0</ele>
        <time>2022-11-20T13:17:58.000Z</time>
      </trkpt>
      <trkpt lat="37.05882833" lon="-3.37214667">
        <ele>3172.0</ele>
        <time>2022-11-20T13:17:59.000Z</time>
      </trkpt>
      <trkpt lat="37.05884333" lon="-3.372145">
        <ele>3172.0</ele>
        <time>2022-11-20T13:18:00.000Z</time>
      </trkpt>
      <trkpt lat="37.05885667" lon="-3.37214167">
        <ele>3172.0</ele>
        <time>2022-11-20T13:18:01.000Z</time>
      </trkpt>
      <trkpt lat="37.05887" lon="-3.37213667">
        <ele>3172.0</ele>
        <time>2022-11-20T13:18:02.000Z</time>
      </trkpt>
      <trkpt lat="37.05888333" lon="-3.37213">
        <ele>3172.0</ele>
        <time>2022-11-20T13:18:03.000Z</time>
      </trkpt>
      <trkpt lat="37.05889833" lon="-3.37212333">
        <ele>3172.0</ele>
        <time>2022-11-20T13:18:04.000Z</time>
      </trkpt>
      <trkpt lat="37.05891167" lon="-3.37211667">
        <ele>3171.0</ele>
        <time>2022-11-20T13:18:05.000Z</time>
      </trkpt>
      <trkpt lat="37.05892833" lon="-3.37211">
        <ele>3171.0</ele>
        <time>2022-11-20T13:18:06.000Z</time>
      </trkpt>
      <trkpt lat="37.05894167" lon="-3.37210333">
        <ele>3171.0</ele>
        <time>2022-11-20T13:18:07.000Z</time>
      </trkpt>
      <trkpt lat="37.05895667" lon="-3.37209667">
        <ele>3171.0</ele>
        <time>2022-11-20T13:18:08.000Z</time>
      </trkpt>
      <trkpt lat="37.05897167" lon="-3.37208833">
        <ele>3171.0</ele>
        <time>2022-11-20T13:18:09.000Z</time>
      </trkpt>
      <trkpt lat="37.058985" lon="-3.37208167">
        <ele>3171.0</ele>
        <time>2022-11-20T13:18:10.000Z</time>
      </trkpt>
      <trkpt lat="37.05899833" lon="-3.372075">
        <ele>3171.0</ele>
        <time>2022-11-20T13:18:11.000Z</time>
      </trkpt>
      <trkpt lat="37.05901333" lon="-3.37207">
        <ele>3170.0</ele>
        <time>2022-11-20T13:18:12.000Z</time>
      </trkpt>
      <trkpt lat="37.05902833" lon="-3.372065">
        <ele>3170.0</ele>
        <time>2022-11-20T13:18:13.000Z</time>
      </trkpt>
      <trkpt lat="37.05904333" lon="-3.37206">
        <ele>3170.0</ele>
        <time>2022-11-20T13:18:14.000Z</time>
      </trkpt>
      <trkpt lat="37.05905833" lon="-3.372055">
        <ele>3170.0</ele>
        <time>2022-11-20T13:18:15.000Z</time>
      </trkpt>
      <trkpt lat="37.05907333" lon="-3.37204833">
        <ele>3170.0</ele>
        <time>2022-11-20T13:18:16.000Z</time>
      </trkpt>
      <trkpt lat="37.05908667" lon="-3.37204">
        <ele>3170.0</ele>
        <time>2022-11-20T13:18:17.000Z</time>
      </trkpt>
      <trkpt lat="37.05910167" lon="-3.37203667">
        <ele>3170.0</ele>
        <time>2022-11-20T13:18:18.000Z</time>
      </trkpt>
      <trkpt lat="37.05911667" lon="-3.37203167">
        <ele>3170.0</ele>
        <time>2022-11-20T13:18:19.000Z</time>
      </trkpt>
      <trkpt lat="37.05913167" lon="-3.372025">
        <ele>3169.0</ele>
        <time>2022-11-20T13:18:20.000Z</time>
      </trkpt>
      <trkpt lat="37.059145" lon="-3.37201667">
        <ele>3169.0</ele>
        <time>2022-11-20T13:18:21.000Z</time>
      </trkpt>
      <trkpt lat="37.05916" lon="-3.37201">
        <ele>3169.0</ele>
        <time>2022-11-20T13:18:22.000Z</time>
      </trkpt>
      <trkpt lat="37.05917333" lon="-3.37200167">
        <ele>3169.0</ele>
        <time>2022-11-20T13:18:23.000Z</time>
      </trkpt>
      <trkpt lat="37.05918833" lon="-3.37199333">
        <ele>3169.0</ele>
        <time>2022-11-20T13:18:24.000Z</time>
      </trkpt>
      <trkpt lat="37.05920167" lon="-3.371985">
        <ele>3169.0</ele>
        <time>2022-11-20T13:18:25.000Z</time>
      </trkpt>
      <trkpt lat="37.05921667" lon="-3.37197667">
        <ele>3169.0</ele>
        <time>2022-11-20T13:18:26.000Z</time>
      </trkpt>
      <trkpt lat="37.05923" lon="-3.37197">
        <ele>3169.0</ele>
        <time>2022-11-20T13:18:27.000Z</time>
      </trkpt>
      <trkpt lat="37.05924333" lon="-3.37196167">
        <ele>3168.0</ele>
        <time>2022-11-20T13:18:28.000Z</time>
      </trkpt>
      <trkpt lat="37.05925833" lon="-3.37195333">
        <ele>3168.0</ele>
        <time>2022-11-20T13:18:29.000Z</time>
      </trkpt>
      <trkpt lat="37.05927167" lon="-3.371945">
        <ele>3168.0</ele>
        <time>2022-11-20T13:18:30.000Z</time>
      </trkpt>
      <trkpt lat="37.05928667" lon="-3.37193833">
        <ele>3168.0</ele>
        <time>2022-11-20T13:18:31.000Z</time>
      </trkpt>
      <trkpt lat="37.0593" lon="-3.37193333">
        <ele>3168.0</ele>
        <time>2022-11-20T13:18:32.000Z</time>
      </trkpt>
      <trkpt lat="37.05931333" lon="-3.37192667">
        <ele>3168.0</ele>
        <time>2022-11-20T13:18:33.000Z</time>
      </trkpt>
      <trkpt lat="37.059325" lon="-3.37192167">
        <ele>3168.0</ele>
        <time>2022-11-20T13:18:34.000Z</time>
      </trkpt>
      <trkpt lat="37.05933833" lon="-3.371915">
        <ele>3168.0</ele>
        <time>2022-11-20T13:18:35.000Z</time>
      </trkpt>
      <trkpt lat="37.05935167" lon="-3.37190833">
        <ele>3167.0</ele>
        <time>2022-11-20T13:18:36.000Z</time>
      </trkpt>
      <trkpt lat="37.05936667" lon="-3.37190333">
        <ele>3167.0</ele>
        <time>2022-11-20T13:18:37.000Z</time>
      </trkpt>
      <trkpt lat="37.05938" lon="-3.37189833">
        <ele>3167.0</ele>
        <time>2022-11-20T13:18:38.000Z</time>
      </trkpt>
      <trkpt lat="37.05939333" lon="-3.37189333">
        <ele>3167.0</ele>
        <time>2022-11-20T13:18:39.000Z</time>
      </trkpt>
      <trkpt lat="37.05940667" lon="-3.37188667">
        <ele>3167.0</ele>
        <time>2022-11-20T13:18:40.000Z</time>
      </trkpt>
      <trkpt lat="37.05942167" lon="-3.37188167">
        <ele>3167.0</ele>
        <time>2022-11-20T13:18:41.000Z</time>
      </trkpt>
      <trkpt lat="37.05943333" lon="-3.37187667">
        <ele>3167.0</ele>
        <time>2022-11-20T13:18:42.000Z</time>
      </trkpt>
      <trkpt lat="37.05944833" lon="-3.37187333">
        <ele>3166.0</ele>
        <time>2022-11-20T13:18:43.000Z</time>
      </trkpt>
      <trkpt lat="37.05946167" lon="-3.37186833">
        <ele>3166.0</ele>
        <time>2022-11-20T13:18:44.000Z</time>
      </trkpt>
      <trkpt lat="37.05947333" lon="-3.37186">
        <ele>3166.0</ele>
        <time>2022-11-20T13:18:45.000Z</time>
      </trkpt>
      <trkpt lat="37.05948667" lon="-3.37185333">
        <ele>3166.0</ele>
        <time>2022-11-20T13:18:46.000Z</time>
      </trkpt>
      <trkpt lat="37.05950167" lon="-3.37184667">
        <ele>3166.0</ele>
        <time>2022-11-20T13:18:47.000Z</time>
      </trkpt>
      <trkpt lat="37.05951667" lon="-3.37184167">
        <ele>3166.0</ele>
        <time>2022-11-20T13:18:48.000Z</time>
      </trkpt>
      <trkpt lat="37.05953167" lon="-3.37183667">
        <ele>3166.0</ele>
        <time>2022-11-20T13:18:49.000Z</time>
      </trkpt>
      <trkpt lat="37.059545" lon="-3.37183167">
        <ele>3166.0</ele>
        <time>2022-11-20T13:18:50.000Z</time>
      </trkpt>
      <trkpt lat="37.05955833" lon="-3.37182667">
        <ele>3165.0</ele>
        <time>2022-11-20T13:18:51.000Z</time>
      </trkpt>
      <trkpt lat="37.05957167" lon="-3.37182">
        <ele>3165.0</ele>
        <time>2022-11-20T13:18:52.000Z</time>
      </trkpt>
      <trkpt lat="37.05958333" lon="-3.371815">
        <ele>3165.0</ele>
        <time>2022-11-20T13:18:53.000Z</time>
      </trkpt>
      <trkpt lat="37.05959667" lon="-3.37181">
        <ele>3165.0</ele>
        <time>2022-11-20T13:18:54.000Z</time>
      </trkpt>
      <trkpt lat="37.05960833" lon="-3.371805">
        <ele>3165.0</ele>
        <time>2022-11-20T13:18:55.000Z</time>
      </trkpt>
      <trkpt lat="37.05962167" lon="-3.37180167">
        <ele>3165.0</ele>
        <time>2022-11-20T13:18:56.000Z</time>
      </trkpt>
      <trkpt lat="37.059635" lon="-3.37179667">
        <ele>3165.0</ele>
        <time>2022-11-20T13:18:57.000Z</time>
      </trkpt>
      <trkpt lat="37.05964833" lon="-3.37179">
        <ele>3164.0</ele>
        <time>2022-11-20T13:18:58.000Z</time>
      </trkpt>
      <trkpt lat="37.05966167" lon="-3.37178167">
        <ele>3164.0</ele>
        <time>2022-11-20T13:18:59.000Z</time>
      </trkpt>
      <trkpt lat="37.05967667" lon="-3.37177667">
        <ele>3164.0</ele>
        <time>2022-11-20T13:19:00.000Z</time>
      </trkpt>
      <trkpt lat="37.05969" lon="-3.37177167">
        <ele>3164.0</ele>
        <time>2022-11-20T13:19:01.000Z</time>
      </trkpt>
      <trkpt lat="37.05970167" lon="-3.37176333">
        <ele>3164.0</ele>
        <time>2022-11-20T13:19:02.000Z</time>
      </trkpt>
      <trkpt lat="37.05971667" lon="-3.37175833">
        <ele>3164.0</ele>
        <time>2022-11-20T13:19:03.000Z</time>
      </trkpt>
      <trkpt lat="37.05973" lon="-3.371755">
        <ele>3164.0</ele>
        <time>2022-11-20T13:19:04.000Z</time>
      </trkpt>
      <trkpt lat="37.059745" lon="-3.37175">
        <ele>3164.0</ele>
        <time>2022-11-20T13:19:05.000Z</time>
      </trkpt>
      <trkpt lat="37.05975833" lon="-3.37174667">
        <ele>3164.0</ele>
        <time>2022-11-20T13:19:06.000Z</time>
      </trkpt>
      <trkpt lat="37.05977167" lon="-3.37174333">
        <ele>3164.0</ele>
        <time>2022-11-20T13:19:07.000Z</time>
      </trkpt>
      <trkpt lat="37.059785" lon="-3.37173833">
        <ele>3164.0</ele>
        <time>2022-11-20T13:19:08.000Z</time>
      </trkpt>
      <trkpt lat="37.05979667" lon="-3.371735">
        <ele>3163.0</ele>
        <time>2022-11-20T13:19:09.000Z</time>
      </trkpt>
      <trkpt lat="37.05981" lon="-3.37173167">
        <ele>3163.0</ele>
        <time>2022-11-20T13:19:10.000Z</time>
      </trkpt>
      <trkpt lat="37.059825" lon="-3.37173">
        <ele>3163.0</ele>
        <time>2022-11-20T13:19:11.000Z</time>
      </trkpt>
      <trkpt lat="37.05984" lon="-3.37172833">
        <ele>3163.0</ele>
        <time>2022-11-20T13:19:12.000Z</time>
      </trkpt>
      <trkpt lat="37.059855" lon="-3.37172833">
        <ele>3163.0</ele>
        <time>2022-11-20T13:19:13.000Z</time>
      </trkpt>
      <trkpt lat="37.05987" lon="-3.37172667">
        <ele>3163.0</ele>
        <time>2022-11-20T13:19:14.000Z</time>
      </trkpt>
      <trkpt lat="37.059885" lon="-3.371725">
        <ele>3163.0</ele>
        <time>2022-11-20T13:19:15.000Z</time>
      </trkpt>
      <trkpt lat="37.0599" lon="-3.37172167">
        <ele>3163.0</ele>
        <time>2022-11-20T13:19:16.000Z</time>
      </trkpt>
      <trkpt lat="37.059915" lon="-3.37172167">
        <ele>3163.0</ele>
        <time>2022-11-20T13:19:17.000Z</time>
      </trkpt>
      <trkpt lat="37.05993" lon="-3.37172">
        <ele>3162.0</ele>
        <time>2022-11-20T13:19:18.000Z</time>
      </trkpt>
      <trkpt lat="37.059945" lon="-3.37171667">
        <ele>3162.0</ele>
        <time>2022-11-20T13:19:19.000Z</time>
      </trkpt>
      <trkpt lat="37.05995833" lon="-3.37171333">
        <ele>3162.0</ele>
        <time>2022-11-20T13:19:20.000Z</time>
      </trkpt>
      <trkpt lat="37.05997167" lon="-3.37170667">
        <ele>3162.0</ele>
        <time>2022-11-20T13:19:21.000Z</time>
      </trkpt>
      <trkpt lat="37.059985" lon="-3.37170167">
        <ele>3162.0</ele>
        <time>2022-11-20T13:19:22.000Z</time>
      </trkpt>
      <trkpt lat="37.05999833" lon="-3.37169333">
        <ele>3162.0</ele>
        <time>2022-11-20T13:19:23.000Z</time>
      </trkpt>
      <trkpt lat="37.06001167" lon="-3.371685">
        <ele>3162.0</ele>
        <time>2022-11-20T13:19:24.000Z</time>
      </trkpt>
      <trkpt lat="37.060025" lon="-3.37167667">
        <ele>3161.0</ele>
        <time>2022-11-20T13:19:25.000Z</time>
      </trkpt>
      <trkpt lat="37.06004" lon="-3.37166833">
        <ele>3161.0</ele>
        <time>2022-11-20T13:19:26.000Z</time>
      </trkpt>
      <trkpt lat="37.060055" lon="-3.37166333">
        <ele>3161.0</ele>
        <time>2022-11-20T13:19:27.000Z</time>
      </trkpt>
      <trkpt lat="37.06006833" lon="-3.37165833">
        <ele>3161.0</ele>
        <time>2022-11-20T13:19:28.000Z</time>
      </trkpt>
      <trkpt lat="37.06008167" lon="-3.37165167">
        <ele>3161.0</ele>
        <time>2022-11-20T13:19:29.000Z</time>
      </trkpt>
      <trkpt lat="37.060095" lon="-3.37164667">
        <ele>3161.0</ele>
        <time>2022-11-20T13:19:30.000Z</time>
      </trkpt>
      <trkpt lat="37.06011" lon="-3.37164167">
        <ele>3160.0</ele>
        <time>2022-11-20T13:19:31.000Z</time>
      </trkpt>
      <trkpt lat="37.060125" lon="-3.37163667">
        <ele>3160.0</ele>
        <time>2022-11-20T13:19:32.000Z</time>
      </trkpt>
      <trkpt lat="37.06014" lon="-3.37163">
        <ele>3160.0</ele>
        <time>2022-11-20T13:19:33.000Z</time>
      </trkpt>
      <trkpt lat="37.06015333" lon="-3.37162333">
        <ele>3160.0</ele>
        <time>2022-11-20T13:19:34.000Z</time>
      </trkpt>
      <trkpt lat="37.06016833" lon="-3.37161833">
        <ele>3160.0</ele>
        <time>2022-11-20T13:19:35.000Z</time>
      </trkpt>
      <trkpt lat="37.06018333" lon="-3.37161167">
        <ele>3160.0</ele>
        <time>2022-11-20T13:19:36.000Z</time>
      </trkpt>
      <trkpt lat="37.06019667" lon="-3.371605">
        <ele>3159.0</ele>
        <time>2022-11-20T13:19:37.000Z</time>
      </trkpt>
      <trkpt lat="37.06021" lon="-3.37159833">
        <ele>3159.0</ele>
        <time>2022-11-20T13:19:38.000Z</time>
      </trkpt>
      <trkpt lat="37.060225" lon="-3.37159333">
        <ele>3159.0</ele>
        <time>2022-11-20T13:19:39.000Z</time>
      </trkpt>
      <trkpt lat="37.06024" lon="-3.37159">
        <ele>3159.0</ele>
        <time>2022-11-20T13:19:40.000Z</time>
      </trkpt>
      <trkpt lat="37.060255" lon="-3.37158333">
        <ele>3159.0</ele>
        <time>2022-11-20T13:19:41.000Z</time>
      </trkpt>
      <trkpt lat="37.06026833" lon="-3.37157667">
        <ele>3159.0</ele>
        <time>2022-11-20T13:19:42.000Z</time>
      </trkpt>
      <trkpt lat="37.060285" lon="-3.37157167">
        <ele>3158.0</ele>
        <time>2022-11-20T13:19:43.000Z</time>
      </trkpt>
      <trkpt lat="37.0603" lon="-3.37156833">
        <ele>3158.0</ele>
        <time>2022-11-20T13:19:44.000Z</time>
      </trkpt>
      <trkpt lat="37.060315" lon="-3.37156167">
        <ele>3158.0</ele>
        <time>2022-11-20T13:19:45.000Z</time>
      </trkpt>
      <trkpt lat="37.06033" lon="-3.37155667">
        <ele>3158.0</ele>
        <time>2022-11-20T13:19:46.000Z</time>
      </trkpt>
      <trkpt lat="37.06034333" lon="-3.37155167">
        <ele>3158.0</ele>
        <time>2022-11-20T13:19:47.000Z</time>
      </trkpt>
      <trkpt lat="37.06035667" lon="-3.371545">
        <ele>3158.0</ele>
        <time>2022-11-20T13:19:48.000Z</time>
      </trkpt>
      <trkpt lat="37.06037" lon="-3.37153667">
        <ele>3158.0</ele>
        <time>2022-11-20T13:19:49.000Z</time>
      </trkpt>
      <trkpt lat="37.06038333" lon="-3.37152667">
        <ele>3158.0</ele>
        <time>2022-11-20T13:19:50.000Z</time>
      </trkpt>
      <trkpt lat="37.06039333" lon="-3.371515">
        <ele>3158.0</ele>
        <time>2022-11-20T13:19:51.000Z</time>
      </trkpt>
      <trkpt lat="37.06040333" lon="-3.37150333">
        <ele>3157.0</ele>
        <time>2022-11-20T13:19:52.000Z</time>
      </trkpt>
      <trkpt lat="37.06041" lon="-3.37149">
        <ele>3157.0</ele>
        <time>2022-11-20T13:19:53.000Z</time>
      </trkpt>
      <trkpt lat="37.06041833" lon="-3.37147667">
        <ele>3157.0</ele>
        <time>2022-11-20T13:19:54.000Z</time>
      </trkpt>
      <trkpt lat="37.06042833" lon="-3.371465">
        <ele>3157.0</ele>
        <time>2022-11-20T13:19:55.000Z</time>
      </trkpt>
      <trkpt lat="37.06044" lon="-3.371455">
        <ele>3157.0</ele>
        <time>2022-11-20T13:19:56.000Z</time>
      </trkpt>
      <trkpt lat="37.06045167" lon="-3.37144333">
        <ele>3157.0</ele>
        <time>2022-11-20T13:19:57.000Z</time>
      </trkpt>
      <trkpt lat="37.06046333" lon="-3.37143333">
        <ele>3157.0</ele>
        <time>2022-11-20T13:19:58.000Z</time>
      </trkpt>
      <trkpt lat="37.060475" lon="-3.37142333">
        <ele>3157.0</ele>
        <time>2022-11-20T13:19:59.000Z</time>
      </trkpt>
      <trkpt lat="37.06048667" lon="-3.37141333">
        <ele>3157.0</ele>
        <time>2022-11-20T13:20:00.000Z</time>
      </trkpt>
      <trkpt lat="37.06049833" lon="-3.37140333">
        <ele>3156.0</ele>
        <time>2022-11-20T13:20:01.000Z</time>
      </trkpt>
      <trkpt lat="37.06051" lon="-3.37139167">
        <ele>3156.0</ele>
        <time>2022-11-20T13:20:02.000Z</time>
      </trkpt>
      <trkpt lat="37.06052" lon="-3.37138333">
        <ele>3156.0</ele>
        <time>2022-11-20T13:20:03.000Z</time>
      </trkpt>
      <trkpt lat="37.06053167" lon="-3.371375">
        <ele>3156.0</ele>
        <time>2022-11-20T13:20:04.000Z</time>
      </trkpt>
      <trkpt lat="37.06054333" lon="-3.371365">
        <ele>3156.0</ele>
        <time>2022-11-20T13:20:05.000Z</time>
      </trkpt>
      <trkpt lat="37.060555" lon="-3.37135333">
        <ele>3156.0</ele>
        <time>2022-11-20T13:20:06.000Z</time>
      </trkpt>
      <trkpt lat="37.06056667" lon="-3.37134167">
        <ele>3156.0</ele>
        <time>2022-11-20T13:20:07.000Z</time>
      </trkpt>
      <trkpt lat="37.06057667" lon="-3.37133167">
        <ele>3155.0</ele>
        <time>2022-11-20T13:20:08.000Z</time>
      </trkpt>
      <trkpt lat="37.06058667" lon="-3.37132167">
        <ele>3155.0</ele>
        <time>2022-11-20T13:20:09.000Z</time>
      </trkpt>
      <trkpt lat="37.06059667" lon="-3.37131167">
        <ele>3155.0</ele>
        <time>2022-11-20T13:20:10.000Z</time>
      </trkpt>
      <trkpt lat="37.06060667" lon="-3.371305">
        <ele>3155.0</ele>
        <time>2022-11-20T13:20:11.000Z</time>
      </trkpt>
      <trkpt lat="37.06061167" lon="-3.37129667">
        <ele>3155.0</ele>
        <time>2022-11-20T13:20:12.000Z</time>
      </trkpt>
      <trkpt lat="37.06062167" lon="-3.37128833">
        <ele>3155.0</ele>
        <time>2022-11-20T13:20:13.000Z</time>
      </trkpt>
      <trkpt lat="37.06063167" lon="-3.37128167">
        <ele>3155.0</ele>
        <time>2022-11-20T13:20:14.000Z</time>
      </trkpt>
      <trkpt lat="37.06064167" lon="-3.37127333">
        <ele>3155.0</ele>
        <time>2022-11-20T13:20:15.000Z</time>
      </trkpt>
      <trkpt lat="37.06065167" lon="-3.37126333">
        <ele>3154.0</ele>
        <time>2022-11-20T13:20:16.000Z</time>
      </trkpt>
      <trkpt lat="37.06066333" lon="-3.37125333">
        <ele>3154.0</ele>
        <time>2022-11-20T13:20:17.000Z</time>
      </trkpt>
      <trkpt lat="37.060675" lon="-3.37124167">
        <ele>3154.0</ele>
        <time>2022-11-20T13:20:18.000Z</time>
      </trkpt>
      <trkpt lat="37.060685" lon="-3.37123167">
        <ele>3154.0</ele>
        <time>2022-11-20T13:20:19.000Z</time>
      </trkpt>
      <trkpt lat="37.060695" lon="-3.37121833">
        <ele>3154.0</ele>
        <time>2022-11-20T13:20:20.000Z</time>
      </trkpt>
      <trkpt lat="37.06070333" lon="-3.37120833">
        <ele>3153.0</ele>
        <time>2022-11-20T13:20:21.000Z</time>
      </trkpt>
      <trkpt lat="37.06071333" lon="-3.3712">
        <ele>3153.0</ele>
        <time>2022-11-20T13:20:22.000Z</time>
      </trkpt>
      <trkpt lat="37.06072333" lon="-3.37119167">
        <ele>3153.0</ele>
        <time>2022-11-20T13:20:23.000Z</time>
      </trkpt>
      <trkpt lat="37.060735" lon="-3.37118167">
        <ele>3153.0</ele>
        <time>2022-11-20T13:20:24.000Z</time>
      </trkpt>
      <trkpt lat="37.060745" lon="-3.37117167">
        <ele>3153.0</ele>
        <time>2022-11-20T13:20:25.000Z</time>
      </trkpt>
      <trkpt lat="37.06075667" lon="-3.37116333">
        <ele>3153.0</ele>
        <time>2022-11-20T13:20:26.000Z</time>
      </trkpt>
      <trkpt lat="37.06076667" lon="-3.371155">
        <ele>3153.0</ele>
        <time>2022-11-20T13:20:27.000Z</time>
      </trkpt>
      <trkpt lat="37.06077833" lon="-3.371145">
        <ele>3153.0</ele>
        <time>2022-11-20T13:20:28.000Z</time>
      </trkpt>
      <trkpt lat="37.06079" lon="-3.371135">
        <ele>3153.0</ele>
        <time>2022-11-20T13:20:29.000Z</time>
      </trkpt>
      <trkpt lat="37.06080167" lon="-3.371125">
        <ele>3153.0</ele>
        <time>2022-11-20T13:20:30.000Z</time>
      </trkpt>
      <trkpt lat="37.06081333" lon="-3.371115">
        <ele>3153.0</ele>
        <time>2022-11-20T13:20:31.000Z</time>
      </trkpt>
      <trkpt lat="37.060825" lon="-3.37110667">
        <ele>3152.0</ele>
        <time>2022-11-20T13:20:32.000Z</time>
      </trkpt>
      <trkpt lat="37.060835" lon="-3.37109667">
        <ele>3152.0</ele>
        <time>2022-11-20T13:20:33.000Z</time>
      </trkpt>
      <trkpt lat="37.06084667" lon="-3.37108667">
        <ele>3152.0</ele>
        <time>2022-11-20T13:20:34.000Z</time>
      </trkpt>
      <trkpt lat="37.06085833" lon="-3.37107833">
        <ele>3152.0</ele>
        <time>2022-11-20T13:20:35.000Z</time>
      </trkpt>
      <trkpt lat="37.06087" lon="-3.37106833">
        <ele>3152.0</ele>
        <time>2022-11-20T13:20:36.000Z</time>
      </trkpt>
      <trkpt lat="37.06088333" lon="-3.37105833">
        <ele>3152.0</ele>
        <time>2022-11-20T13:20:37.000Z</time>
      </trkpt>
      <trkpt lat="37.06089667" lon="-3.37105">
        <ele>3152.0</ele>
        <time>2022-11-20T13:20:38.000Z</time>
      </trkpt>
      <trkpt lat="37.06091" lon="-3.37104">
        <ele>3152.0</ele>
        <time>2022-11-20T13:20:39.000Z</time>
      </trkpt>
      <trkpt lat="37.06092167" lon="-3.37103167">
        <ele>3152.0</ele>
        <time>2022-11-20T13:20:40.000Z</time>
      </trkpt>
      <trkpt lat="37.060935" lon="-3.37102333">
        <ele>3151.0</ele>
        <time>2022-11-20T13:20:41.000Z</time>
      </trkpt>
      <trkpt lat="37.06094667" lon="-3.371015">
        <ele>3151.0</ele>
        <time>2022-11-20T13:20:42.000Z</time>
      </trkpt>
      <trkpt lat="37.06095833" lon="-3.37100833">
        <ele>3151.0</ele>
        <time>2022-11-20T13:20:43.000Z</time>
      </trkpt>
      <trkpt lat="37.06097167" lon="-3.37100167">
        <ele>3151.0</ele>
        <time>2022-11-20T13:20:44.000Z</time>
      </trkpt>
      <trkpt lat="37.06098333" lon="-3.37099667">
        <ele>3151.0</ele>
        <time>2022-11-20T13:20:45.000Z</time>
      </trkpt>
      <trkpt lat="37.060995" lon="-3.37099">
        <ele>3151.0</ele>
        <time>2022-11-20T13:20:46.000Z</time>
      </trkpt>
      <trkpt lat="37.06100833" lon="-3.370985">
        <ele>3151.0</ele>
        <time>2022-11-20T13:20:47.000Z</time>
      </trkpt>
      <trkpt lat="37.06102167" lon="-3.37098">
        <ele>3151.0</ele>
        <time>2022-11-20T13:20:48.000Z</time>
      </trkpt>
      <trkpt lat="37.061035" lon="-3.370975">
        <ele>3151.0</ele>
        <time>2022-11-20T13:20:49.000Z</time>
      </trkpt>
      <trkpt lat="37.06104833" lon="-3.37097167">
        <ele>3150.0</ele>
        <time>2022-11-20T13:20:50.000Z</time>
      </trkpt>
      <trkpt lat="37.06106" lon="-3.37096833">
        <ele>3150.0</ele>
        <time>2022-11-20T13:20:51.000Z</time>
      </trkpt>
      <trkpt lat="37.06107167" lon="-3.370965">
        <ele>3150.0</ele>
        <time>2022-11-20T13:20:52.000Z</time>
      </trkpt>
      <trkpt lat="37.061085" lon="-3.37096">
        <ele>3150.0</ele>
        <time>2022-11-20T13:20:53.000Z</time>
      </trkpt>
      <trkpt lat="37.06109833" lon="-3.37095333">
        <ele>3150.0</ele>
        <time>2022-11-20T13:20:54.000Z</time>
      </trkpt>
      <trkpt lat="37.06111" lon="-3.37095">
        <ele>3150.0</ele>
        <time>2022-11-20T13:20:55.000Z</time>
      </trkpt>
      <trkpt lat="37.06112167" lon="-3.37094333">
        <ele>3150.0</ele>
        <time>2022-11-20T13:20:56.000Z</time>
      </trkpt>
      <trkpt lat="37.06113167" lon="-3.37093333">
        <ele>3150.0</ele>
        <time>2022-11-20T13:20:57.000Z</time>
      </trkpt>
      <trkpt lat="37.06114333" lon="-3.37092333">
        <ele>3149.0</ele>
        <time>2022-11-20T13:20:58.000Z</time>
      </trkpt>
      <trkpt lat="37.06115667" lon="-3.370915">
        <ele>3149.0</ele>
        <time>2022-11-20T13:20:59.000Z</time>
      </trkpt>
      <trkpt lat="37.06117167" lon="-3.370905">
        <ele>3149.0</ele>
        <time>2022-11-20T13:21:00.000Z</time>
      </trkpt>
      <trkpt lat="37.061185" lon="-3.37089833">
        <ele>3149.0</ele>
        <time>2022-11-20T13:21:01.000Z</time>
      </trkpt>
      <trkpt lat="37.06119833" lon="-3.37089333">
        <ele>3149.0</ele>
        <time>2022-11-20T13:21:02.000Z</time>
      </trkpt>
      <trkpt lat="37.061215" lon="-3.37089">
        <ele>3149.0</ele>
        <time>2022-11-20T13:21:03.000Z</time>
      </trkpt>
      <trkpt lat="37.06123" lon="-3.37088667">
        <ele>3148.0</ele>
        <time>2022-11-20T13:21:04.000Z</time>
      </trkpt>
      <trkpt lat="37.06124333" lon="-3.37088167">
        <ele>3148.0</ele>
        <time>2022-11-20T13:21:05.000Z</time>
      </trkpt>
      <trkpt lat="37.06125667" lon="-3.37087333">
        <ele>3148.0</ele>
        <time>2022-11-20T13:21:06.000Z</time>
      </trkpt>
      <trkpt lat="37.06127167" lon="-3.37086333">
        <ele>3148.0</ele>
        <time>2022-11-20T13:21:07.000Z</time>
      </trkpt>
      <trkpt lat="37.06128333" lon="-3.37085333">
        <ele>3148.0</ele>
        <time>2022-11-20T13:21:08.000Z</time>
      </trkpt>
      <trkpt lat="37.061295" lon="-3.37084333">
        <ele>3148.0</ele>
        <time>2022-11-20T13:21:09.000Z</time>
      </trkpt>
      <trkpt lat="37.06130667" lon="-3.370835">
        <ele>3148.0</ele>
        <time>2022-11-20T13:21:10.000Z</time>
      </trkpt>
      <trkpt lat="37.06132" lon="-3.370825">
        <ele>3148.0</ele>
        <time>2022-11-20T13:21:11.000Z</time>
      </trkpt>
      <trkpt lat="37.06133167" lon="-3.370815">
        <ele>3148.0</ele>
        <time>2022-11-20T13:21:12.000Z</time>
      </trkpt>
      <trkpt lat="37.06134333" lon="-3.37080667">
        <ele>3148.0</ele>
        <time>2022-11-20T13:21:13.000Z</time>
      </trkpt>
      <trkpt lat="37.061355" lon="-3.37079833">
        <ele>3148.0</ele>
        <time>2022-11-20T13:21:14.000Z</time>
      </trkpt>
      <trkpt lat="37.06136833" lon="-3.37079">
        <ele>3148.0</ele>
        <time>2022-11-20T13:21:15.000Z</time>
      </trkpt>
      <trkpt lat="37.06138167" lon="-3.37078167">
        <ele>3148.0</ele>
        <time>2022-11-20T13:21:16.000Z</time>
      </trkpt>
      <trkpt lat="37.06139333" lon="-3.37077167">
        <ele>3148.0</ele>
        <time>2022-11-20T13:21:17.000Z</time>
      </trkpt>
      <trkpt lat="37.06140667" lon="-3.37076">
        <ele>3147.0</ele>
        <time>2022-11-20T13:21:18.000Z</time>
      </trkpt>
      <trkpt lat="37.06141667" lon="-3.37074833">
        <ele>3147.0</ele>
        <time>2022-11-20T13:21:19.000Z</time>
      </trkpt>
      <trkpt lat="37.06142833" lon="-3.370735">
        <ele>3147.0</ele>
        <time>2022-11-20T13:21:20.000Z</time>
      </trkpt>
      <trkpt lat="37.06144" lon="-3.37072333">
        <ele>3147.0</ele>
        <time>2022-11-20T13:21:21.000Z</time>
      </trkpt>
      <trkpt lat="37.06145167" lon="-3.37071167">
        <ele>3147.0</ele>
        <time>2022-11-20T13:21:22.000Z</time>
      </trkpt>
      <trkpt lat="37.06146333" lon="-3.37070167">
        <ele>3147.0</ele>
        <time>2022-11-20T13:21:23.000Z</time>
      </trkpt>
      <trkpt lat="37.061475" lon="-3.37069167">
        <ele>3147.0</ele>
        <time>2022-11-20T13:21:24.000Z</time>
      </trkpt>
      <trkpt lat="37.06148667" lon="-3.37068333">
        <ele>3147.0</ele>
        <time>2022-11-20T13:21:25.000Z</time>
      </trkpt>
      <trkpt lat="37.0615" lon="-3.37067667">
        <ele>3146.0</ele>
        <time>2022-11-20T13:21:26.000Z</time>
      </trkpt>
      <trkpt lat="37.06151" lon="-3.37066833">
        <ele>3146.0</ele>
        <time>2022-11-20T13:21:27.000Z</time>
      </trkpt>
      <trkpt lat="37.06152333" lon="-3.37066">
        <ele>3146.0</ele>
        <time>2022-11-20T13:21:28.000Z</time>
      </trkpt>
      <trkpt lat="37.06153667" lon="-3.37065">
        <ele>3146.0</ele>
        <time>2022-11-20T13:21:29.000Z</time>
      </trkpt>
      <trkpt lat="37.06155" lon="-3.37064167">
        <ele>3146.0</ele>
        <time>2022-11-20T13:21:30.000Z</time>
      </trkpt>
      <trkpt lat="37.06156167" lon="-3.370635">
        <ele>3146.0</ele>
        <time>2022-11-20T13:21:31.000Z</time>
      </trkpt>
      <trkpt lat="37.061575" lon="-3.37062833">
        <ele>3146.0</ele>
        <time>2022-11-20T13:21:32.000Z</time>
      </trkpt>
      <trkpt lat="37.06158833" lon="-3.37062">
        <ele>3146.0</ele>
        <time>2022-11-20T13:21:33.000Z</time>
      </trkpt>
      <trkpt lat="37.06160167" lon="-3.37061333">
        <ele>3146.0</ele>
        <time>2022-11-20T13:21:34.000Z</time>
      </trkpt>
      <trkpt lat="37.061615" lon="-3.37060833">
        <ele>3146.0</ele>
        <time>2022-11-20T13:21:35.000Z</time>
      </trkpt>
      <trkpt lat="37.06162833" lon="-3.37060333">
        <ele>3146.0</ele>
        <time>2022-11-20T13:21:36.000Z</time>
      </trkpt>
      <trkpt lat="37.06164167" lon="-3.37059833">
        <ele>3145.0</ele>
        <time>2022-11-20T13:21:37.000Z</time>
      </trkpt>
      <trkpt lat="37.061655" lon="-3.37059167">
        <ele>3145.0</ele>
        <time>2022-11-20T13:21:38.000Z</time>
      </trkpt>
      <trkpt lat="37.06166667" lon="-3.370585">
        <ele>3145.0</ele>
        <time>2022-11-20T13:21:39.000Z</time>
      </trkpt>
      <trkpt lat="37.06167833" lon="-3.37057667">
        <ele>3145.0</ele>
        <time>2022-11-20T13:21:40.000Z</time>
      </trkpt>
      <trkpt lat="37.06169" lon="-3.37057">
        <ele>3145.0</ele>
        <time>2022-11-20T13:21:41.000Z</time>
      </trkpt>
      <trkpt lat="37.06170333" lon="-3.37056">
        <ele>3145.0</ele>
        <time>2022-11-20T13:21:42.000Z</time>
      </trkpt>
      <trkpt lat="37.061715" lon="-3.37055167">
        <ele>3145.0</ele>
        <time>2022-11-20T13:21:43.000Z</time>
      </trkpt>
      <trkpt lat="37.06172833" lon="-3.37054333">
        <ele>3145.0</ele>
        <time>2022-11-20T13:21:44.000Z</time>
      </trkpt>
      <trkpt lat="37.06174333" lon="-3.370535">
        <ele>3145.0</ele>
        <time>2022-11-20T13:21:45.000Z</time>
      </trkpt>
      <trkpt lat="37.061755" lon="-3.37052833">
        <ele>3145.0</ele>
        <time>2022-11-20T13:21:46.000Z</time>
      </trkpt>
      <trkpt lat="37.06176667" lon="-3.37052">
        <ele>3144.0</ele>
        <time>2022-11-20T13:21:47.000Z</time>
      </trkpt>
      <trkpt lat="37.06177833" lon="-3.37051167">
        <ele>3144.0</ele>
        <time>2022-11-20T13:21:48.000Z</time>
      </trkpt>
      <trkpt lat="37.06179167" lon="-3.37050167">
        <ele>3144.0</ele>
        <time>2022-11-20T13:21:49.000Z</time>
      </trkpt>
      <trkpt lat="37.06180333" lon="-3.37049333">
        <ele>3144.0</ele>
        <time>2022-11-20T13:21:50.000Z</time>
      </trkpt>
      <trkpt lat="37.061815" lon="-3.37048167">
        <ele>3144.0</ele>
        <time>2022-11-20T13:21:51.000Z</time>
      </trkpt>
      <trkpt lat="37.06182667" lon="-3.37046833">
        <ele>3144.0</ele>
        <time>2022-11-20T13:21:52.000Z</time>
      </trkpt>
      <trkpt lat="37.06183833" lon="-3.37045833">
        <ele>3144.0</ele>
        <time>2022-11-20T13:21:53.000Z</time>
      </trkpt>
      <trkpt lat="37.06185167" lon="-3.37044833">
        <ele>3144.0</ele>
        <time>2022-11-20T13:21:54.000Z</time>
      </trkpt>
      <trkpt lat="37.06186333" lon="-3.37044">
        <ele>3144.0</ele>
        <time>2022-11-20T13:21:55.000Z</time>
      </trkpt>
      <trkpt lat="37.06187667" lon="-3.37043167">
        <ele>3144.0</ele>
        <time>2022-11-20T13:21:56.000Z</time>
      </trkpt>
      <trkpt lat="37.06189" lon="-3.37042333">
        <ele>3143.0</ele>
        <time>2022-11-20T13:21:57.000Z</time>
      </trkpt>
      <trkpt lat="37.06190167" lon="-3.37041667">
        <ele>3143.0</ele>
        <time>2022-11-20T13:21:58.000Z</time>
      </trkpt>
      <trkpt lat="37.061915" lon="-3.37041">
        <ele>3143.0</ele>
        <time>2022-11-20T13:21:59.000Z</time>
      </trkpt>
      <trkpt lat="37.06192833" lon="-3.37040333">
        <ele>3143.0</ele>
        <time>2022-11-20T13:22:00.000Z</time>
      </trkpt>
      <trkpt lat="37.06193833" lon="-3.3704">
        <ele>3143.0</ele>
        <time>2022-11-20T13:22:01.000Z</time>
      </trkpt>
      <trkpt lat="37.06195" lon="-3.370395">
        <ele>3143.0</ele>
        <time>2022-11-20T13:22:02.000Z</time>
      </trkpt>
      <trkpt lat="37.06196167" lon="-3.37039167">
        <ele>3143.0</ele>
        <time>2022-11-20T13:22:03.000Z</time>
      </trkpt>
      <trkpt lat="37.06197333" lon="-3.37038667">
        <ele>3143.0</ele>
        <time>2022-11-20T13:22:04.000Z</time>
      </trkpt>
      <trkpt lat="37.061985" lon="-3.37038167">
        <ele>3143.0</ele>
        <time>2022-11-20T13:22:05.000Z</time>
      </trkpt>
      <trkpt lat="37.061995" lon="-3.37037667">
        <ele>3143.0</ele>
        <time>2022-11-20T13:22:06.000Z</time>
      </trkpt>
      <trkpt lat="37.06200667" lon="-3.37037">
        <ele>3143.0</ele>
        <time>2022-11-20T13:22:07.000Z</time>
      </trkpt>
      <trkpt lat="37.06201667" lon="-3.37036333">
        <ele>3142.0</ele>
        <time>2022-11-20T13:22:08.000Z</time>
      </trkpt>
      <trkpt lat="37.06202833" lon="-3.37035833">
        <ele>3142.0</ele>
        <time>2022-11-20T13:22:09.000Z</time>
      </trkpt>
      <trkpt lat="37.06203833" lon="-3.37035167">
        <ele>3142.0</ele>
        <time>2022-11-20T13:22:10.000Z</time>
      </trkpt>
      <trkpt lat="37.06204833" lon="-3.37034833">
        <ele>3142.0</ele>
        <time>2022-11-20T13:22:11.000Z</time>
      </trkpt>
      <trkpt lat="37.06205833" lon="-3.370345">
        <ele>3142.0</ele>
        <time>2022-11-20T13:22:12.000Z</time>
      </trkpt>
      <trkpt lat="37.062065" lon="-3.37034167">
        <ele>3142.0</ele>
        <time>2022-11-20T13:22:13.000Z</time>
      </trkpt>
      <trkpt lat="37.06207833" lon="-3.370335">
        <ele>3142.0</ele>
        <time>2022-11-20T13:22:14.000Z</time>
      </trkpt>
      <trkpt lat="37.06208667" lon="-3.37033">
        <ele>3142.0</ele>
        <time>2022-11-20T13:22:15.000Z</time>
      </trkpt>
      <trkpt lat="37.062095" lon="-3.37032167">
        <ele>3142.0</ele>
        <time>2022-11-20T13:22:16.000Z</time>
      </trkpt>
      <trkpt lat="37.06210333" lon="-3.37031333">
        <ele>3141.0</ele>
        <time>2022-11-20T13:22:17.000Z</time>
      </trkpt>
      <trkpt lat="37.062115" lon="-3.370305">
        <ele>3141.0</ele>
        <time>2022-11-20T13:22:18.000Z</time>
      </trkpt>
      <trkpt lat="37.06212667" lon="-3.37029667">
        <ele>3141.0</ele>
        <time>2022-11-20T13:22:19.000Z</time>
      </trkpt>
      <trkpt lat="37.06213833" lon="-3.37028833">
        <ele>3141.0</ele>
        <time>2022-11-20T13:22:20.000Z</time>
      </trkpt>
      <trkpt lat="37.06215" lon="-3.37028333">
        <ele>3141.0</ele>
        <time>2022-11-20T13:22:21.000Z</time>
      </trkpt>
      <trkpt lat="37.06215667" lon="-3.37027833">
        <ele>3141.0</ele>
        <time>2022-11-20T13:22:22.000Z</time>
      </trkpt>
      <trkpt lat="37.06216333" lon="-3.37027833">
        <ele>3141.0</ele>
        <time>2022-11-20T13:22:23.000Z</time>
      </trkpt>
      <trkpt lat="37.06216333" lon="-3.37027833">
        <ele>3141.0</ele>
        <time>2022-11-20T13:22:24.000Z</time>
      </trkpt>
      <trkpt lat="37.062165" lon="-3.37027833">
        <ele>3141.0</ele>
        <time>2022-11-20T13:22:25.000Z</time>
      </trkpt>
      <trkpt lat="37.062165" lon="-3.37027833">
        <ele>3141.0</ele>
        <time>2022-11-20T13:22:26.000Z</time>
      </trkpt>
      <trkpt lat="37.062165" lon="-3.37028">
        <ele>3141.0</ele>
        <time>2022-11-20T13:22:27.000Z</time>
      </trkpt>
      <trkpt lat="37.062165" lon="-3.37028">
        <ele>3141.0</ele>
        <time>2022-11-20T13:22:28.000Z</time>
      </trkpt>
      <trkpt lat="37.062165" lon="-3.37028">
        <ele>3141.0</ele>
        <time>2022-11-20T13:22:29.000Z</time>
      </trkpt>
      <trkpt lat="37.062165" lon="-3.37028">
        <ele>3141.0</ele>
        <time>2022-11-20T13:22:30.000Z</time>
      </trkpt>
      <trkpt lat="37.062165" lon="-3.37028">
        <ele>3141.0</ele>
        <time>2022-11-20T13:22:31.000Z</time>
      </trkpt>
      <trkpt lat="37.062165" lon="-3.37028">
        <ele>3141.0</ele>
        <time>2022-11-20T13:22:32.000Z</time>
      </trkpt>
      <trkpt lat="37.062165" lon="-3.37028">
        <ele>3141.0</ele>
        <time>2022-11-20T13:22:33.000Z</time>
      </trkpt>
      <trkpt lat="37.062165" lon="-3.37028167">
        <ele>3140.0</ele>
        <time>2022-11-20T13:22:34.000Z</time>
      </trkpt>
      <trkpt lat="37.062165" lon="-3.37028333">
        <ele>3140.0</ele>
        <time>2022-11-20T13:22:35.000Z</time>
      </trkpt>
      <trkpt lat="37.062165" lon="-3.37028167">
        <ele>3140.0</ele>
        <time>2022-11-20T13:22:36.000Z</time>
      </trkpt>
      <trkpt lat="37.06216667" lon="-3.370285">
        <ele>3140.0</ele>
        <time>2022-11-20T13:22:37.000Z</time>
      </trkpt>
      <trkpt lat="37.06216667" lon="-3.370285">
        <ele>3140.0</ele>
        <time>2022-11-20T13:22:38.000Z</time>
      </trkpt>
      <trkpt lat="37.06216667" lon="-3.37028833">
        <ele>3140.0</ele>
        <time>2022-11-20T13:22:39.000Z</time>
      </trkpt>
      <trkpt lat="37.06216333" lon="-3.37028167">
        <ele>3140.0</ele>
        <time>2022-11-20T13:22:40.000Z</time>
      </trkpt>
      <trkpt lat="37.062165" lon="-3.37028167">
        <ele>3140.0</ele>
        <time>2022-11-20T13:22:41.000Z</time>
      </trkpt>
      <trkpt lat="37.06216667" lon="-3.37027833">
        <ele>3140.0</ele>
        <time>2022-11-20T13:22:42.000Z</time>
      </trkpt>
      <trkpt lat="37.06217" lon="-3.37027667">
        <ele>3140.0</ele>
        <time>2022-11-20T13:22:43.000Z</time>
      </trkpt>
      <trkpt lat="37.06216833" lon="-3.37027667">
        <ele>3140.0</ele>
        <time>2022-11-20T13:22:44.000Z</time>
      </trkpt>
      <trkpt lat="37.06216667" lon="-3.37027833">
        <ele>3140.0</ele>
        <time>2022-11-20T13:22:45.000Z</time>
      </trkpt>
      <trkpt lat="37.06216667" lon="-3.370275">
        <ele>3140.0</ele>
        <time>2022-11-20T13:22:46.000Z</time>
      </trkpt>
      <trkpt lat="37.06217167" lon="-3.37027167">
        <ele>3140.0</ele>
        <time>2022-11-20T13:22:47.000Z</time>
      </trkpt>
      <trkpt lat="37.06217833" lon="-3.37026833">
        <ele>3140.0</ele>
        <time>2022-11-20T13:22:48.000Z</time>
      </trkpt>
      <trkpt lat="37.06218833" lon="-3.37026167">
        <ele>3140.0</ele>
        <time>2022-11-20T13:22:49.000Z</time>
      </trkpt>
      <trkpt lat="37.06219833" lon="-3.37025667">
        <ele>3140.0</ele>
        <time>2022-11-20T13:22:50.000Z</time>
      </trkpt>
      <trkpt lat="37.06220833" lon="-3.37025167">
        <ele>3140.0</ele>
        <time>2022-11-20T13:22:51.000Z</time>
      </trkpt>
      <trkpt lat="37.06221833" lon="-3.37024667">
        <ele>3140.0</ele>
        <time>2022-11-20T13:22:52.000Z</time>
      </trkpt>
      <trkpt lat="37.06222833" lon="-3.37024167">
        <ele>3140.0</ele>
        <time>2022-11-20T13:22:53.000Z</time>
      </trkpt>
      <trkpt lat="37.06223833" lon="-3.37023667">
        <ele>3140.0</ele>
        <time>2022-11-20T13:22:54.000Z</time>
      </trkpt>
      <trkpt lat="37.06224667" lon="-3.37023">
        <ele>3140.0</ele>
        <time>2022-11-20T13:22:55.000Z</time>
      </trkpt>
      <trkpt lat="37.06225667" lon="-3.37022167">
        <ele>3140.0</ele>
        <time>2022-11-20T13:22:56.000Z</time>
      </trkpt>
      <trkpt lat="37.062265" lon="-3.37021167">
        <ele>3140.0</ele>
        <time>2022-11-20T13:22:57.000Z</time>
      </trkpt>
      <trkpt lat="37.062275" lon="-3.37020167">
        <ele>3139.0</ele>
        <time>2022-11-20T13:22:58.000Z</time>
      </trkpt>
      <trkpt lat="37.06228333" lon="-3.37019167">
        <ele>3139.0</ele>
        <time>2022-11-20T13:22:59.000Z</time>
      </trkpt>
      <trkpt lat="37.06229333" lon="-3.37018">
        <ele>3139.0</ele>
        <time>2022-11-20T13:23:00.000Z</time>
      </trkpt>
      <trkpt lat="37.06230167" lon="-3.37016667">
        <ele>3139.0</ele>
        <time>2022-11-20T13:23:01.000Z</time>
      </trkpt>
      <trkpt lat="37.06231" lon="-3.37015667">
        <ele>3139.0</ele>
        <time>2022-11-20T13:23:02.000Z</time>
      </trkpt>
      <trkpt lat="37.06231667" lon="-3.37015">
        <ele>3139.0</ele>
        <time>2022-11-20T13:23:03.000Z</time>
      </trkpt>
      <trkpt lat="37.06231833" lon="-3.37015">
        <ele>3139.0</ele>
        <time>2022-11-20T13:23:04.000Z</time>
      </trkpt>
      <trkpt lat="37.06231833" lon="-3.37015167">
        <ele>3139.0</ele>
        <time>2022-11-20T13:23:05.000Z</time>
      </trkpt>
      <trkpt lat="37.06231833" lon="-3.37015167">
        <ele>3139.0</ele>
        <time>2022-11-20T13:23:06.000Z</time>
      </trkpt>
      <trkpt lat="37.06231667" lon="-3.37014833">
        <ele>3139.0</ele>
        <time>2022-11-20T13:23:07.000Z</time>
      </trkpt>
      <trkpt lat="37.06231667" lon="-3.370145">
        <ele>3139.0</ele>
        <time>2022-11-20T13:23:08.000Z</time>
      </trkpt>
      <trkpt lat="37.06232167" lon="-3.37014">
        <ele>3139.0</ele>
        <time>2022-11-20T13:23:09.000Z</time>
      </trkpt>
      <trkpt lat="37.06233" lon="-3.37014">
        <ele>3139.0</ele>
        <time>2022-11-20T13:23:10.000Z</time>
      </trkpt>
      <trkpt lat="37.06233333" lon="-3.37014167">
        <ele>3139.0</ele>
        <time>2022-11-20T13:23:11.000Z</time>
      </trkpt>
      <trkpt lat="37.062335" lon="-3.37014167">
        <ele>3139.0</ele>
        <time>2022-11-20T13:23:12.000Z</time>
      </trkpt>
      <trkpt lat="37.062335" lon="-3.37014333">
        <ele>3139.0</ele>
        <time>2022-11-20T13:23:13.000Z</time>
      </trkpt>
      <trkpt lat="37.06233667" lon="-3.370145">
        <ele>3139.0</ele>
        <time>2022-11-20T13:23:14.000Z</time>
      </trkpt>
      <trkpt lat="37.06233667" lon="-3.370145">
        <ele>3139.0</ele>
        <time>2022-11-20T13:23:15.000Z</time>
      </trkpt>
      <trkpt lat="37.062335" lon="-3.37014333">
        <ele>3139.0</ele>
        <time>2022-11-20T13:23:16.000Z</time>
      </trkpt>
      <trkpt lat="37.06233667" lon="-3.37014167">
        <ele>3139.0</ele>
        <time>2022-11-20T13:23:17.000Z</time>
      </trkpt>
      <trkpt lat="37.06234333" lon="-3.37014">
        <ele>3139.0</ele>
        <time>2022-11-20T13:23:18.000Z</time>
      </trkpt>
      <trkpt lat="37.06235167" lon="-3.37013833">
        <ele>3139.0</ele>
        <time>2022-11-20T13:23:19.000Z</time>
      </trkpt>
      <trkpt lat="37.06236167" lon="-3.37013333">
        <ele>3139.0</ele>
        <time>2022-11-20T13:23:20.000Z</time>
      </trkpt>
      <trkpt lat="37.06237167" lon="-3.37012833">
        <ele>3139.0</ele>
        <time>2022-11-20T13:23:21.000Z</time>
      </trkpt>
      <trkpt lat="37.06238" lon="-3.370125">
        <ele>3139.0</ele>
        <time>2022-11-20T13:23:22.000Z</time>
      </trkpt>
      <trkpt lat="37.06239167" lon="-3.370125">
        <ele>3139.0</ele>
        <time>2022-11-20T13:23:23.000Z</time>
      </trkpt>
      <trkpt lat="37.06239333" lon="-3.37012667">
        <ele>3139.0</ele>
        <time>2022-11-20T13:23:24.000Z</time>
      </trkpt>
      <trkpt lat="37.06239333" lon="-3.37012833">
        <ele>3139.0</ele>
        <time>2022-11-20T13:23:25.000Z</time>
      </trkpt>
      <trkpt lat="37.06239333" lon="-3.37012833">
        <ele>3139.0</ele>
        <time>2022-11-20T13:23:26.000Z</time>
      </trkpt>
      <trkpt lat="37.062395" lon="-3.37013">
        <ele>3139.0</ele>
        <time>2022-11-20T13:23:27.000Z</time>
      </trkpt>
      <trkpt lat="37.06239333" lon="-3.370125">
        <ele>3139.0</ele>
        <time>2022-11-20T13:23:28.000Z</time>
      </trkpt>
      <trkpt lat="37.06239833" lon="-3.37012333">
        <ele>3139.0</ele>
        <time>2022-11-20T13:23:29.000Z</time>
      </trkpt>
      <trkpt lat="37.06240667" lon="-3.37012">
        <ele>3139.0</ele>
        <time>2022-11-20T13:23:30.000Z</time>
      </trkpt>
      <trkpt lat="37.06241667" lon="-3.370115">
        <ele>3139.0</ele>
        <time>2022-11-20T13:23:31.000Z</time>
      </trkpt>
      <trkpt lat="37.06242667" lon="-3.37010833">
        <ele>3139.0</ele>
        <time>2022-11-20T13:23:32.000Z</time>
      </trkpt>
      <trkpt lat="37.06243833" lon="-3.37010333">
        <ele>3139.0</ele>
        <time>2022-11-20T13:23:33.000Z</time>
      </trkpt>
      <trkpt lat="37.06245" lon="-3.37009833">
        <ele>3139.0</ele>
        <time>2022-11-20T13:23:34.000Z</time>
      </trkpt>
      <trkpt lat="37.06246333" lon="-3.37009333">
        <ele>3139.0</ele>
        <time>2022-11-20T13:23:35.000Z</time>
      </trkpt>
      <trkpt lat="37.06247667" lon="-3.37009167">
        <ele>3139.0</ele>
        <time>2022-11-20T13:23:36.000Z</time>
      </trkpt>
      <trkpt lat="37.06249" lon="-3.37009">
        <ele>3138.0</ele>
        <time>2022-11-20T13:23:37.000Z</time>
      </trkpt>
      <trkpt lat="37.06250167" lon="-3.37009">
        <ele>3138.0</ele>
        <time>2022-11-20T13:23:38.000Z</time>
      </trkpt>
      <trkpt lat="37.062515" lon="-3.37009167">
        <ele>3138.0</ele>
        <time>2022-11-20T13:23:39.000Z</time>
      </trkpt>
      <trkpt lat="37.062525" lon="-3.37009167">
        <ele>3138.0</ele>
        <time>2022-11-20T13:23:40.000Z</time>
      </trkpt>
      <trkpt lat="37.06253667" lon="-3.37009167">
        <ele>3138.0</ele>
        <time>2022-11-20T13:23:41.000Z</time>
      </trkpt>
      <trkpt lat="37.06254833" lon="-3.37009">
        <ele>3138.0</ele>
        <time>2022-11-20T13:23:42.000Z</time>
      </trkpt>
      <trkpt lat="37.06256" lon="-3.37008833">
        <ele>3138.0</ele>
        <time>2022-11-20T13:23:43.000Z</time>
      </trkpt>
      <trkpt lat="37.06257333" lon="-3.370085">
        <ele>3138.0</ele>
        <time>2022-11-20T13:23:44.000Z</time>
      </trkpt>
      <trkpt lat="37.062585" lon="-3.37008333">
        <ele>3138.0</ele>
        <time>2022-11-20T13:23:45.000Z</time>
      </trkpt>
      <trkpt lat="37.06259667" lon="-3.37008167">
        <ele>3138.0</ele>
        <time>2022-11-20T13:23:46.000Z</time>
      </trkpt>
      <trkpt lat="37.06260833" lon="-3.37008167">
        <ele>3138.0</ele>
        <time>2022-11-20T13:23:47.000Z</time>
      </trkpt>
      <trkpt lat="37.06262167" lon="-3.37008">
        <ele>3138.0</ele>
        <time>2022-11-20T13:23:48.000Z</time>
      </trkpt>
      <trkpt lat="37.062635" lon="-3.37008">
        <ele>3138.0</ele>
        <time>2022-11-20T13:23:49.000Z</time>
      </trkpt>
      <trkpt lat="37.06264833" lon="-3.37007833">
        <ele>3138.0</ele>
        <time>2022-11-20T13:23:50.000Z</time>
      </trkpt>
      <trkpt lat="37.06266333" lon="-3.37007833">
        <ele>3138.0</ele>
        <time>2022-11-20T13:23:51.000Z</time>
      </trkpt>
      <trkpt lat="37.062675" lon="-3.37007667">
        <ele>3138.0</ele>
        <time>2022-11-20T13:23:52.000Z</time>
      </trkpt>
      <trkpt lat="37.06269" lon="-3.37008">
        <ele>3138.0</ele>
        <time>2022-11-20T13:23:53.000Z</time>
      </trkpt>
      <trkpt lat="37.0627" lon="-3.37008333">
        <ele>3138.0</ele>
        <time>2022-11-20T13:23:54.000Z</time>
      </trkpt>
      <trkpt lat="37.062705" lon="-3.37008333">
        <ele>3138.0</ele>
        <time>2022-11-20T13:23:55.000Z</time>
      </trkpt>
      <trkpt lat="37.06271" lon="-3.37008">
        <ele>3138.0</ele>
        <time>2022-11-20T13:23:56.000Z</time>
      </trkpt>
      <trkpt lat="37.062715" lon="-3.37008">
        <ele>3137.0</ele>
        <time>2022-11-20T13:23:57.000Z</time>
      </trkpt>
      <trkpt lat="37.06272333" lon="-3.37008">
        <ele>3137.0</ele>
        <time>2022-11-20T13:23:58.000Z</time>
      </trkpt>
      <trkpt lat="37.06273333" lon="-3.37008">
        <ele>3137.0</ele>
        <time>2022-11-20T13:23:59.000Z</time>
      </trkpt>
      <trkpt lat="37.06274667" lon="-3.37008">
        <ele>3137.0</ele>
        <time>2022-11-20T13:24:00.000Z</time>
      </trkpt>
      <trkpt lat="37.06275833" lon="-3.37008">
        <ele>3137.0</ele>
        <time>2022-11-20T13:24:01.000Z</time>
      </trkpt>
      <trkpt lat="37.06277167" lon="-3.37007833">
        <ele>3137.0</ele>
        <time>2022-11-20T13:24:02.000Z</time>
      </trkpt>
      <trkpt lat="37.06278333" lon="-3.37007667">
        <ele>3136.0</ele>
        <time>2022-11-20T13:24:03.000Z</time>
      </trkpt>
      <trkpt lat="37.062795" lon="-3.37007667">
        <ele>3136.0</ele>
        <time>2022-11-20T13:24:04.000Z</time>
      </trkpt>
      <trkpt lat="37.06280833" lon="-3.37007833">
        <ele>3136.0</ele>
        <time>2022-11-20T13:24:05.000Z</time>
      </trkpt>
      <trkpt lat="37.06282167" lon="-3.37007833">
        <ele>3136.0</ele>
        <time>2022-11-20T13:24:06.000Z</time>
      </trkpt>
      <trkpt lat="37.06283667" lon="-3.37008">
        <ele>3136.0</ele>
        <time>2022-11-20T13:24:07.000Z</time>
      </trkpt>
      <trkpt lat="37.06285" lon="-3.37008167">
        <ele>3136.0</ele>
        <time>2022-11-20T13:24:08.000Z</time>
      </trkpt>
      <trkpt lat="37.06286333" lon="-3.37008333">
        <ele>3136.0</ele>
        <time>2022-11-20T13:24:09.000Z</time>
      </trkpt>
      <trkpt lat="37.06287667" lon="-3.370085">
        <ele>3135.0</ele>
        <time>2022-11-20T13:24:10.000Z</time>
      </trkpt>
      <trkpt lat="37.06289167" lon="-3.37008667">
        <ele>3135.0</ele>
        <time>2022-11-20T13:24:11.000Z</time>
      </trkpt>
      <trkpt lat="37.06290667" lon="-3.37008833">
        <ele>3135.0</ele>
        <time>2022-11-20T13:24:12.000Z</time>
      </trkpt>
      <trkpt lat="37.06291833" lon="-3.37009167">
        <ele>3135.0</ele>
        <time>2022-11-20T13:24:13.000Z</time>
      </trkpt>
      <trkpt lat="37.06292667" lon="-3.37009833">
        <ele>3135.0</ele>
        <time>2022-11-20T13:24:14.000Z</time>
      </trkpt>
      <trkpt lat="37.06293" lon="-3.37009833">
        <ele>3135.0</ele>
        <time>2022-11-20T13:24:15.000Z</time>
      </trkpt>
      <trkpt lat="37.06293167" lon="-3.3701">
        <ele>3135.0</ele>
        <time>2022-11-20T13:24:16.000Z</time>
      </trkpt>
      <trkpt lat="37.06293667" lon="-3.3701">
        <ele>3135.0</ele>
        <time>2022-11-20T13:24:17.000Z</time>
      </trkpt>
      <trkpt lat="37.06294667" lon="-3.37010333">
        <ele>3134.0</ele>
        <time>2022-11-20T13:24:18.000Z</time>
      </trkpt>
      <trkpt lat="37.062955" lon="-3.37010667">
        <ele>3134.0</ele>
        <time>2022-11-20T13:24:19.000Z</time>
      </trkpt>
      <trkpt lat="37.062965" lon="-3.37011">
        <ele>3134.0</ele>
        <time>2022-11-20T13:24:20.000Z</time>
      </trkpt>
      <trkpt lat="37.062975" lon="-3.37011333">
        <ele>3134.0</ele>
        <time>2022-11-20T13:24:21.000Z</time>
      </trkpt>
      <trkpt lat="37.06298" lon="-3.37011667">
        <ele>3134.0</ele>
        <time>2022-11-20T13:24:22.000Z</time>
      </trkpt>
      <trkpt lat="37.06298" lon="-3.37011833">
        <ele>3134.0</ele>
        <time>2022-11-20T13:24:23.000Z</time>
      </trkpt>
      <trkpt lat="37.06298167" lon="-3.37011833">
        <ele>3133.0</ele>
        <time>2022-11-20T13:24:24.000Z</time>
      </trkpt>
      <trkpt lat="37.06298167" lon="-3.37011833">
        <ele>3133.0</ele>
        <time>2022-11-20T13:24:25.000Z</time>
      </trkpt>
      <trkpt lat="37.06298167" lon="-3.37012">
        <ele>3133.0</ele>
        <time>2022-11-20T13:24:26.000Z</time>
      </trkpt>
      <trkpt lat="37.06298167" lon="-3.37012">
        <ele>3133.0</ele>
        <time>2022-11-20T13:24:27.000Z</time>
      </trkpt>
      <trkpt lat="37.06298167" lon="-3.37012">
        <ele>3133.0</ele>
        <time>2022-11-20T13:24:28.000Z</time>
      </trkpt>
      <trkpt lat="37.06298667" lon="-3.37012167">
        <ele>3133.0</ele>
        <time>2022-11-20T13:24:29.000Z</time>
      </trkpt>
      <trkpt lat="37.06299167" lon="-3.370125">
        <ele>3133.0</ele>
        <time>2022-11-20T13:24:30.000Z</time>
      </trkpt>
      <trkpt lat="37.06300167" lon="-3.37012667">
        <ele>3133.0</ele>
        <time>2022-11-20T13:24:31.000Z</time>
      </trkpt>
      <trkpt lat="37.06301167" lon="-3.37013167">
        <ele>3133.0</ele>
        <time>2022-11-20T13:24:32.000Z</time>
      </trkpt>
      <trkpt lat="37.06302167" lon="-3.37013667">
        <ele>3133.0</ele>
        <time>2022-11-20T13:24:33.000Z</time>
      </trkpt>
      <trkpt lat="37.06303167" lon="-3.37014167">
        <ele>3133.0</ele>
        <time>2022-11-20T13:24:34.000Z</time>
      </trkpt>
      <trkpt lat="37.06304333" lon="-3.37014667">
        <ele>3132.0</ele>
        <time>2022-11-20T13:24:35.000Z</time>
      </trkpt>
      <trkpt lat="37.06305333" lon="-3.37015">
        <ele>3132.0</ele>
        <time>2022-11-20T13:24:36.000Z</time>
      </trkpt>
      <trkpt lat="37.06306333" lon="-3.37015333">
        <ele>3132.0</ele>
        <time>2022-11-20T13:24:37.000Z</time>
      </trkpt>
      <trkpt lat="37.06307667" lon="-3.37015833">
        <ele>3132.0</ele>
        <time>2022-11-20T13:24:38.000Z</time>
      </trkpt>
      <trkpt lat="37.06308667" lon="-3.37016333">
        <ele>3132.0</ele>
        <time>2022-11-20T13:24:39.000Z</time>
      </trkpt>
      <trkpt lat="37.06309667" lon="-3.37016667">
        <ele>3132.0</ele>
        <time>2022-11-20T13:24:40.000Z</time>
      </trkpt>
      <trkpt lat="37.06311" lon="-3.37017167">
        <ele>3132.0</ele>
        <time>2022-11-20T13:24:41.000Z</time>
      </trkpt>
      <trkpt lat="37.06312" lon="-3.370175">
        <ele>3132.0</ele>
        <time>2022-11-20T13:24:42.000Z</time>
      </trkpt>
      <trkpt lat="37.06313167" lon="-3.37017667">
        <ele>3132.0</ele>
        <time>2022-11-20T13:24:43.000Z</time>
      </trkpt>
      <trkpt lat="37.06314333" lon="-3.37018">
        <ele>3132.0</ele>
        <time>2022-11-20T13:24:44.000Z</time>
      </trkpt>
      <trkpt lat="37.06315667" lon="-3.37018167">
        <ele>3132.0</ele>
        <time>2022-11-20T13:24:45.000Z</time>
      </trkpt>
      <trkpt lat="37.06317" lon="-3.37018667">
        <ele>3132.0</ele>
        <time>2022-11-20T13:24:46.000Z</time>
      </trkpt>
      <trkpt lat="37.06318333" lon="-3.37019333">
        <ele>3131.0</ele>
        <time>2022-11-20T13:24:47.000Z</time>
      </trkpt>
      <trkpt lat="37.063195" lon="-3.37019833">
        <ele>3131.0</ele>
        <time>2022-11-20T13:24:48.000Z</time>
      </trkpt>
      <trkpt lat="37.06320833" lon="-3.370205">
        <ele>3131.0</ele>
        <time>2022-11-20T13:24:49.000Z</time>
      </trkpt>
      <trkpt lat="37.06322" lon="-3.37021167">
        <ele>3131.0</ele>
        <time>2022-11-20T13:24:50.000Z</time>
      </trkpt>
      <trkpt lat="37.06323333" lon="-3.37021833">
        <ele>3131.0</ele>
        <time>2022-11-20T13:24:51.000Z</time>
      </trkpt>
      <trkpt lat="37.06324667" lon="-3.370225">
        <ele>3131.0</ele>
        <time>2022-11-20T13:24:52.000Z</time>
      </trkpt>
      <trkpt lat="37.06325167" lon="-3.37022833">
        <ele>3131.0</ele>
        <time>2022-11-20T13:24:53.000Z</time>
      </trkpt>
      <trkpt lat="37.06325333" lon="-3.37023">
        <ele>3131.0</ele>
        <time>2022-11-20T13:24:54.000Z</time>
      </trkpt>
      <trkpt lat="37.06325333" lon="-3.37023">
        <ele>3131.0</ele>
        <time>2022-11-20T13:24:55.000Z</time>
      </trkpt>
      <trkpt lat="37.063255" lon="-3.37023">
        <ele>3131.0</ele>
        <time>2022-11-20T13:24:56.000Z</time>
      </trkpt>
      <trkpt lat="37.063255" lon="-3.37023">
        <ele>3131.0</ele>
        <time>2022-11-20T13:24:57.000Z</time>
      </trkpt>
      <trkpt lat="37.06325667" lon="-3.37022833">
        <ele>3131.0</ele>
        <time>2022-11-20T13:24:58.000Z</time>
      </trkpt>
      <trkpt lat="37.06325667" lon="-3.37023">
        <ele>3131.0</ele>
        <time>2022-11-20T13:24:59.000Z</time>
      </trkpt>
      <trkpt lat="37.06325667" lon="-3.37023">
        <ele>3131.0</ele>
        <time>2022-11-20T13:25:00.000Z</time>
      </trkpt>
      <trkpt lat="37.06325833" lon="-3.37023">
        <ele>3131.0</ele>
        <time>2022-11-20T13:25:01.000Z</time>
      </trkpt>
      <trkpt lat="37.06325833" lon="-3.37023">
        <ele>3131.0</ele>
        <time>2022-11-20T13:25:02.000Z</time>
      </trkpt>
      <trkpt lat="37.06326" lon="-3.37023">
        <ele>3131.0</ele>
        <time>2022-11-20T13:25:03.000Z</time>
      </trkpt>
      <trkpt lat="37.06326" lon="-3.37023">
        <ele>3131.0</ele>
        <time>2022-11-20T13:25:04.000Z</time>
      </trkpt>
      <trkpt lat="37.06326" lon="-3.37023">
        <ele>3131.0</ele>
        <time>2022-11-20T13:25:05.000Z</time>
      </trkpt>
      <trkpt lat="37.06326" lon="-3.37023">
        <ele>3131.0</ele>
        <time>2022-11-20T13:25:06.000Z</time>
      </trkpt>
      <trkpt lat="37.06326" lon="-3.37023">
        <ele>3131.0</ele>
        <time>2022-11-20T13:25:07.000Z</time>
      </trkpt>
      <trkpt lat="37.06326" lon="-3.37023">
        <ele>3131.0</ele>
        <time>2022-11-20T13:25:08.000Z</time>
      </trkpt>
      <trkpt lat="37.06326" lon="-3.37023">
        <ele>3131.0</ele>
        <time>2022-11-20T13:25:09.000Z</time>
      </trkpt>
      <trkpt lat="37.06326" lon="-3.37023">
        <ele>3131.0</ele>
        <time>2022-11-20T13:25:10.000Z</time>
      </trkpt>
      <trkpt lat="37.063265" lon="-3.37023167">
        <ele>3131.0</ele>
        <time>2022-11-20T13:25:11.000Z</time>
      </trkpt>
      <trkpt lat="37.06326833" lon="-3.37023333">
        <ele>3131.0</ele>
        <time>2022-11-20T13:25:12.000Z</time>
      </trkpt>
      <trkpt lat="37.063275" lon="-3.37023667">
        <ele>3131.0</ele>
        <time>2022-11-20T13:25:13.000Z</time>
      </trkpt>
      <trkpt lat="37.06328333" lon="-3.37024">
        <ele>3131.0</ele>
        <time>2022-11-20T13:25:14.000Z</time>
      </trkpt>
      <trkpt lat="37.06329333" lon="-3.370245">
        <ele>3131.0</ele>
        <time>2022-11-20T13:25:15.000Z</time>
      </trkpt>
      <trkpt lat="37.06330167" lon="-3.37025167">
        <ele>3131.0</ele>
        <time>2022-11-20T13:25:16.000Z</time>
      </trkpt>
      <trkpt lat="37.06331" lon="-3.37025667">
        <ele>3131.0</ele>
        <time>2022-11-20T13:25:17.000Z</time>
      </trkpt>
      <trkpt lat="37.06331667" lon="-3.37026167">
        <ele>3131.0</ele>
        <time>2022-11-20T13:25:18.000Z</time>
      </trkpt>
      <trkpt lat="37.063325" lon="-3.370265">
        <ele>3131.0</ele>
        <time>2022-11-20T13:25:19.000Z</time>
      </trkpt>
      <trkpt lat="37.06333" lon="-3.37027167">
        <ele>3131.0</ele>
        <time>2022-11-20T13:25:20.000Z</time>
      </trkpt>
      <trkpt lat="37.06333" lon="-3.37027667">
        <ele>3130.0</ele>
        <time>2022-11-20T13:25:21.000Z</time>
      </trkpt>
      <trkpt lat="37.06333" lon="-3.37027667">
        <ele>3130.0</ele>
        <time>2022-11-20T13:25:22.000Z</time>
      </trkpt>
      <trkpt lat="37.06333" lon="-3.37027833">
        <ele>3130.0</ele>
        <time>2022-11-20T13:25:23.000Z</time>
      </trkpt>
      <trkpt lat="37.06333167" lon="-3.37027833">
        <ele>3130.0</ele>
        <time>2022-11-20T13:25:24.000Z</time>
      </trkpt>
      <trkpt lat="37.06333167" lon="-3.37028">
        <ele>3130.0</ele>
        <time>2022-11-20T13:25:25.000Z</time>
      </trkpt>
      <trkpt lat="37.06333167" lon="-3.37028">
        <ele>3130.0</ele>
        <time>2022-11-20T13:25:26.000Z</time>
      </trkpt>
      <trkpt lat="37.06333167" lon="-3.37028167">
        <ele>3130.0</ele>
        <time>2022-11-20T13:25:27.000Z</time>
      </trkpt>
      <trkpt lat="37.06333333" lon="-3.37028167">
        <ele>3130.0</ele>
        <time>2022-11-20T13:25:28.000Z</time>
      </trkpt>
      <trkpt lat="37.06333333" lon="-3.37028167">
        <ele>3130.0</ele>
        <time>2022-11-20T13:25:29.000Z</time>
      </trkpt>
      <trkpt lat="37.06333333" lon="-3.37028333">
        <ele>3130.0</ele>
        <time>2022-11-20T13:25:30.000Z</time>
      </trkpt>
      <trkpt lat="37.06333333" lon="-3.37028333">
        <ele>3130.0</ele>
        <time>2022-11-20T13:25:31.000Z</time>
      </trkpt>
      <trkpt lat="37.06333333" lon="-3.37028333">
        <ele>3130.0</ele>
        <time>2022-11-20T13:25:32.000Z</time>
      </trkpt>
      <trkpt lat="37.06333333" lon="-3.37028333">
        <ele>3130.0</ele>
        <time>2022-11-20T13:25:33.000Z</time>
      </trkpt>
      <trkpt lat="37.06333333" lon="-3.370285">
        <ele>3130.0</ele>
        <time>2022-11-20T13:25:34.000Z</time>
      </trkpt>
      <trkpt lat="37.063335" lon="-3.370285">
        <ele>3130.0</ele>
        <time>2022-11-20T13:25:35.000Z</time>
      </trkpt>
      <trkpt lat="37.063335" lon="-3.370285">
        <ele>3130.0</ele>
        <time>2022-11-20T13:25:36.000Z</time>
      </trkpt>
      <trkpt lat="37.063335" lon="-3.370285">
        <ele>3130.0</ele>
        <time>2022-11-20T13:25:37.000Z</time>
      </trkpt>
      <trkpt lat="37.063335" lon="-3.370285">
        <ele>3130.0</ele>
        <time>2022-11-20T13:25:38.000Z</time>
      </trkpt>
      <trkpt lat="37.063335" lon="-3.370285">
        <ele>3130.0</ele>
        <time>2022-11-20T13:25:39.000Z</time>
      </trkpt>
      <trkpt lat="37.063335" lon="-3.37028667">
        <ele>3130.0</ele>
        <time>2022-11-20T13:25:40.000Z</time>
      </trkpt>
      <trkpt lat="37.063335" lon="-3.37028667">
        <ele>3130.0</ele>
        <time>2022-11-20T13:25:41.000Z</time>
      </trkpt>
      <trkpt lat="37.063335" lon="-3.37028833">
        <ele>3130.0</ele>
        <time>2022-11-20T13:25:42.000Z</time>
      </trkpt>
      <trkpt lat="37.063335" lon="-3.37028667">
        <ele>3130.0</ele>
        <time>2022-11-20T13:25:43.000Z</time>
      </trkpt>
      <trkpt lat="37.06333667" lon="-3.37028833">
        <ele>3130.0</ele>
        <time>2022-11-20T13:25:44.000Z</time>
      </trkpt>
      <trkpt lat="37.06333667" lon="-3.37028833">
        <ele>3130.0</ele>
        <time>2022-11-20T13:25:45.000Z</time>
      </trkpt>
      <trkpt lat="37.06333833" lon="-3.37028667">
        <ele>3130.0</ele>
        <time>2022-11-20T13:25:46.000Z</time>
      </trkpt>
      <trkpt lat="37.06333833" lon="-3.37028833">
        <ele>3130.0</ele>
        <time>2022-11-20T13:25:47.000Z</time>
      </trkpt>
      <trkpt lat="37.06333667" lon="-3.37028833">
        <ele>3130.0</ele>
        <time>2022-11-20T13:25:48.000Z</time>
      </trkpt>
      <trkpt lat="37.06333667" lon="-3.37029">
        <ele>3131.0</ele>
        <time>2022-11-20T13:25:49.000Z</time>
      </trkpt>
      <trkpt lat="37.06333667" lon="-3.37029">
        <ele>3131.0</ele>
        <time>2022-11-20T13:25:50.000Z</time>
      </trkpt>
      <trkpt lat="37.06334" lon="-3.37028833">
        <ele>3131.0</ele>
        <time>2022-11-20T13:25:51.000Z</time>
      </trkpt>
      <trkpt lat="37.06333833" lon="-3.37028833">
        <ele>3131.0</ele>
        <time>2022-11-20T13:25:52.000Z</time>
      </trkpt>
      <trkpt lat="37.06334333" lon="-3.37028667">
        <ele>3131.0</ele>
        <time>2022-11-20T13:25:53.000Z</time>
      </trkpt>
      <trkpt lat="37.06335" lon="-3.37028833">
        <ele>3131.0</ele>
        <time>2022-11-20T13:25:54.000Z</time>
      </trkpt>
      <trkpt lat="37.06335667" lon="-3.37029">
        <ele>3131.0</ele>
        <time>2022-11-20T13:25:55.000Z</time>
      </trkpt>
      <trkpt lat="37.06336333" lon="-3.370295">
        <ele>3131.0</ele>
        <time>2022-11-20T13:25:56.000Z</time>
      </trkpt>
      <trkpt lat="37.06337" lon="-3.37029667">
        <ele>3131.0</ele>
        <time>2022-11-20T13:25:57.000Z</time>
      </trkpt>
      <trkpt lat="37.063375" lon="-3.3703">
        <ele>3131.0</ele>
        <time>2022-11-20T13:25:58.000Z</time>
      </trkpt>
      <trkpt lat="37.06338167" lon="-3.37029833">
        <ele>3131.0</ele>
        <time>2022-11-20T13:25:59.000Z</time>
      </trkpt>
      <trkpt lat="37.06338667" lon="-3.37029833">
        <ele>3131.0</ele>
        <time>2022-11-20T13:26:00.000Z</time>
      </trkpt>
      <trkpt lat="37.06338833" lon="-3.37029833">
        <ele>3131.0</ele>
        <time>2022-11-20T13:26:01.000Z</time>
      </trkpt>
      <trkpt lat="37.063395" lon="-3.37029833">
        <ele>3130.0</ele>
        <time>2022-11-20T13:26:02.000Z</time>
      </trkpt>
      <trkpt lat="37.06340167" lon="-3.37029833">
        <ele>3130.0</ele>
        <time>2022-11-20T13:26:03.000Z</time>
      </trkpt>
      <trkpt lat="37.06341167" lon="-3.37030333">
        <ele>3130.0</ele>
        <time>2022-11-20T13:26:04.000Z</time>
      </trkpt>
      <trkpt lat="37.06342" lon="-3.37030667">
        <ele>3130.0</ele>
        <time>2022-11-20T13:26:05.000Z</time>
      </trkpt>
      <trkpt lat="37.06342167" lon="-3.37030833">
        <ele>3130.0</ele>
        <time>2022-11-20T13:26:06.000Z</time>
      </trkpt>
      <trkpt lat="37.06342667" lon="-3.37031">
        <ele>3130.0</ele>
        <time>2022-11-20T13:26:07.000Z</time>
      </trkpt>
      <trkpt lat="37.063435" lon="-3.37030833">
        <ele>3130.0</ele>
        <time>2022-11-20T13:26:08.000Z</time>
      </trkpt>
      <trkpt lat="37.063445" lon="-3.37030667">
        <ele>3130.0</ele>
        <time>2022-11-20T13:26:09.000Z</time>
      </trkpt>
      <trkpt lat="37.063455" lon="-3.37030667">
        <ele>3130.0</ele>
        <time>2022-11-20T13:26:10.000Z</time>
      </trkpt>
      <trkpt lat="37.06346333" lon="-3.370305">
        <ele>3130.0</ele>
        <time>2022-11-20T13:26:11.000Z</time>
      </trkpt>
      <trkpt lat="37.06347333" lon="-3.3703">
        <ele>3130.0</ele>
        <time>2022-11-20T13:26:12.000Z</time>
      </trkpt>
      <trkpt lat="37.063485" lon="-3.370295">
        <ele>3130.0</ele>
        <time>2022-11-20T13:26:13.000Z</time>
      </trkpt>
      <trkpt lat="37.063495" lon="-3.37029167">
        <ele>3130.0</ele>
        <time>2022-11-20T13:26:14.000Z</time>
      </trkpt>
      <trkpt lat="37.063505" lon="-3.37028833">
        <ele>3130.0</ele>
        <time>2022-11-20T13:26:15.000Z</time>
      </trkpt>
      <trkpt lat="37.063515" lon="-3.37028833">
        <ele>3130.0</ele>
        <time>2022-11-20T13:26:16.000Z</time>
      </trkpt>
      <trkpt lat="37.063525" lon="-3.370285">
        <ele>3130.0</ele>
        <time>2022-11-20T13:26:17.000Z</time>
      </trkpt>
      <trkpt lat="37.06353667" lon="-3.37028167">
        <ele>3130.0</ele>
        <time>2022-11-20T13:26:18.000Z</time>
      </trkpt>
      <trkpt lat="37.06354833" lon="-3.370275">
        <ele>3130.0</ele>
        <time>2022-11-20T13:26:19.000Z</time>
      </trkpt>
      <trkpt lat="37.06355667" lon="-3.37026833">
        <ele>3130.0</ele>
        <time>2022-11-20T13:26:20.000Z</time>
      </trkpt>
      <trkpt lat="37.063565" lon="-3.37026">
        <ele>3130.0</ele>
        <time>2022-11-20T13:26:21.000Z</time>
      </trkpt>
      <trkpt lat="37.06357333" lon="-3.37025">
        <ele>3130.0</ele>
        <time>2022-11-20T13:26:22.000Z</time>
      </trkpt>
      <trkpt lat="37.06358" lon="-3.37024333">
        <ele>3130.0</ele>
        <time>2022-11-20T13:26:23.000Z</time>
      </trkpt>
      <trkpt lat="37.06358667" lon="-3.37023667">
        <ele>3130.0</ele>
        <time>2022-11-20T13:26:24.000Z</time>
      </trkpt>
      <trkpt lat="37.06359333" lon="-3.37023167">
        <ele>3130.0</ele>
        <time>2022-11-20T13:26:25.000Z</time>
      </trkpt>
      <trkpt lat="37.06360167" lon="-3.370225">
        <ele>3129.0</ele>
        <time>2022-11-20T13:26:26.000Z</time>
      </trkpt>
      <trkpt lat="37.06360833" lon="-3.37021833">
        <ele>3129.0</ele>
        <time>2022-11-20T13:26:27.000Z</time>
      </trkpt>
      <trkpt lat="37.06361667" lon="-3.37021333">
        <ele>3129.0</ele>
        <time>2022-11-20T13:26:28.000Z</time>
      </trkpt>
      <trkpt lat="37.06362167" lon="-3.37021333">
        <ele>3129.0</ele>
        <time>2022-11-20T13:26:29.000Z</time>
      </trkpt>
      <trkpt lat="37.06362667" lon="-3.37021">
        <ele>3129.0</ele>
        <time>2022-11-20T13:26:30.000Z</time>
      </trkpt>
      <trkpt lat="37.06363333" lon="-3.37020667">
        <ele>3129.0</ele>
        <time>2022-11-20T13:26:31.000Z</time>
      </trkpt>
      <trkpt lat="37.06363833" lon="-3.3702">
        <ele>3129.0</ele>
        <time>2022-11-20T13:26:32.000Z</time>
      </trkpt>
      <trkpt lat="37.063645" lon="-3.37019333">
        <ele>3128.0</ele>
        <time>2022-11-20T13:26:33.000Z</time>
      </trkpt>
      <trkpt lat="37.06365167" lon="-3.37018833">
        <ele>3128.0</ele>
        <time>2022-11-20T13:26:34.000Z</time>
      </trkpt>
      <trkpt lat="37.06366" lon="-3.37018167">
        <ele>3128.0</ele>
        <time>2022-11-20T13:26:35.000Z</time>
      </trkpt>
      <trkpt lat="37.06366667" lon="-3.37017333">
        <ele>3128.0</ele>
        <time>2022-11-20T13:26:36.000Z</time>
      </trkpt>
      <trkpt lat="37.063675" lon="-3.370165">
        <ele>3128.0</ele>
        <time>2022-11-20T13:26:37.000Z</time>
      </trkpt>
      <trkpt lat="37.06368167" lon="-3.37015833">
        <ele>3128.0</ele>
        <time>2022-11-20T13:26:38.000Z</time>
      </trkpt>
      <trkpt lat="37.063685" lon="-3.37015667">
        <ele>3128.0</ele>
        <time>2022-11-20T13:26:39.000Z</time>
      </trkpt>
      <trkpt lat="37.06369" lon="-3.37015">
        <ele>3128.0</ele>
        <time>2022-11-20T13:26:40.000Z</time>
      </trkpt>
      <trkpt lat="37.06369333" lon="-3.370145">
        <ele>3128.0</ele>
        <time>2022-11-20T13:26:41.000Z</time>
      </trkpt>
      <trkpt lat="37.0637" lon="-3.37014">
        <ele>3128.0</ele>
        <time>2022-11-20T13:26:42.000Z</time>
      </trkpt>
      <trkpt lat="37.06370667" lon="-3.37013167">
        <ele>3128.0</ele>
        <time>2022-11-20T13:26:43.000Z</time>
      </trkpt>
      <trkpt lat="37.063715" lon="-3.37012333">
        <ele>3128.0</ele>
        <time>2022-11-20T13:26:44.000Z</time>
      </trkpt>
      <trkpt lat="37.06372167" lon="-3.37011667">
        <ele>3128.0</ele>
        <time>2022-11-20T13:26:45.000Z</time>
      </trkpt>
      <trkpt lat="37.06372667" lon="-3.37010833">
        <ele>3128.0</ele>
        <time>2022-11-20T13:26:46.000Z</time>
      </trkpt>
      <trkpt lat="37.06373167" lon="-3.37010167">
        <ele>3128.0</ele>
        <time>2022-11-20T13:26:47.000Z</time>
      </trkpt>
      <trkpt lat="37.06373833" lon="-3.37009333">
        <ele>3128.0</ele>
        <time>2022-11-20T13:26:48.000Z</time>
      </trkpt>
      <trkpt lat="37.063745" lon="-3.37008667">
        <ele>3127.0</ele>
        <time>2022-11-20T13:26:49.000Z</time>
      </trkpt>
      <trkpt lat="37.06375167" lon="-3.37008167">
        <ele>3127.0</ele>
        <time>2022-11-20T13:26:50.000Z</time>
      </trkpt>
      <trkpt lat="37.06375667" lon="-3.37007667">
        <ele>3127.0</ele>
        <time>2022-11-20T13:26:51.000Z</time>
      </trkpt>
      <trkpt lat="37.06376333" lon="-3.37007">
        <ele>3127.0</ele>
        <time>2022-11-20T13:26:52.000Z</time>
      </trkpt>
      <trkpt lat="37.06377167" lon="-3.37006333">
        <ele>3127.0</ele>
        <time>2022-11-20T13:26:53.000Z</time>
      </trkpt>
      <trkpt lat="37.06377833" lon="-3.37005833">
        <ele>3127.0</ele>
        <time>2022-11-20T13:26:54.000Z</time>
      </trkpt>
      <trkpt lat="37.06378333" lon="-3.370055">
        <ele>3127.0</ele>
        <time>2022-11-20T13:26:55.000Z</time>
      </trkpt>
      <trkpt lat="37.06379167" lon="-3.37005167">
        <ele>3127.0</ele>
        <time>2022-11-20T13:26:56.000Z</time>
      </trkpt>
      <trkpt lat="37.0638" lon="-3.37004833">
        <ele>3127.0</ele>
        <time>2022-11-20T13:26:57.000Z</time>
      </trkpt>
      <trkpt lat="37.06380667" lon="-3.37004667">
        <ele>3127.0</ele>
        <time>2022-11-20T13:26:58.000Z</time>
      </trkpt>
      <trkpt lat="37.06381333" lon="-3.37004667">
        <ele>3127.0</ele>
        <time>2022-11-20T13:26:59.000Z</time>
      </trkpt>
      <trkpt lat="37.06381833" lon="-3.37004833">
        <ele>3127.0</ele>
        <time>2022-11-20T13:27:00.000Z</time>
      </trkpt>
      <trkpt lat="37.063825" lon="-3.370045">
        <ele>3127.0</ele>
        <time>2022-11-20T13:27:01.000Z</time>
      </trkpt>
      <trkpt lat="37.06383167" lon="-3.370045">
        <ele>3127.0</ele>
        <time>2022-11-20T13:27:02.000Z</time>
      </trkpt>
      <trkpt lat="37.06384" lon="-3.37005333">
        <ele>3127.0</ele>
        <time>2022-11-20T13:27:03.000Z</time>
      </trkpt>
      <trkpt lat="37.06384833" lon="-3.37005667">
        <ele>3127.0</ele>
        <time>2022-11-20T13:27:04.000Z</time>
      </trkpt>
      <trkpt lat="37.06385667" lon="-3.37006">
        <ele>3127.0</ele>
        <time>2022-11-20T13:27:05.000Z</time>
      </trkpt>
      <trkpt lat="37.06386667" lon="-3.37006333">
        <ele>3127.0</ele>
        <time>2022-11-20T13:27:06.000Z</time>
      </trkpt>
      <trkpt lat="37.06387667" lon="-3.37006167">
        <ele>3126.0</ele>
        <time>2022-11-20T13:27:07.000Z</time>
      </trkpt>
      <trkpt lat="37.06388167" lon="-3.37006333">
        <ele>3126.0</ele>
        <time>2022-11-20T13:27:08.000Z</time>
      </trkpt>
      <trkpt lat="37.06388833" lon="-3.37006">
        <ele>3126.0</ele>
        <time>2022-11-20T13:27:09.000Z</time>
      </trkpt>
      <trkpt lat="37.06389833" lon="-3.37005833">
        <ele>3126.0</ele>
        <time>2022-11-20T13:27:10.000Z</time>
      </trkpt>
      <trkpt lat="37.06391" lon="-3.370055">
        <ele>3125.0</ele>
        <time>2022-11-20T13:27:11.000Z</time>
      </trkpt>
      <trkpt lat="37.06392" lon="-3.37005667">
        <ele>3125.0</ele>
        <time>2022-11-20T13:27:12.000Z</time>
      </trkpt>
      <trkpt lat="37.063925" lon="-3.37006">
        <ele>3125.0</ele>
        <time>2022-11-20T13:27:13.000Z</time>
      </trkpt>
      <trkpt lat="37.06392833" lon="-3.37006">
        <ele>3125.0</ele>
        <time>2022-11-20T13:27:14.000Z</time>
      </trkpt>
      <trkpt lat="37.06392833" lon="-3.37006">
        <ele>3125.0</ele>
        <time>2022-11-20T13:27:15.000Z</time>
      </trkpt>
      <trkpt lat="37.06393" lon="-3.37006">
        <ele>3125.0</ele>
        <time>2022-11-20T13:27:16.000Z</time>
      </trkpt>
      <trkpt lat="37.06393167" lon="-3.37005833">
        <ele>3125.0</ele>
        <time>2022-11-20T13:27:17.000Z</time>
      </trkpt>
      <trkpt lat="37.06393333" lon="-3.37005833">
        <ele>3125.0</ele>
        <time>2022-11-20T13:27:18.000Z</time>
      </trkpt>
      <trkpt lat="37.06394" lon="-3.37005667">
        <ele>3125.0</ele>
        <time>2022-11-20T13:27:19.000Z</time>
      </trkpt>
      <trkpt lat="37.06395" lon="-3.37005333">
        <ele>3125.0</ele>
        <time>2022-11-20T13:27:20.000Z</time>
      </trkpt>
      <trkpt lat="37.06396" lon="-3.37005167">
        <ele>3125.0</ele>
        <time>2022-11-20T13:27:21.000Z</time>
      </trkpt>
      <trkpt lat="37.06397167" lon="-3.37004667">
        <ele>3125.0</ele>
        <time>2022-11-20T13:27:22.000Z</time>
      </trkpt>
      <trkpt lat="37.06398167" lon="-3.370045">
        <ele>3125.0</ele>
        <time>2022-11-20T13:27:23.000Z</time>
      </trkpt>
      <trkpt lat="37.06399333" lon="-3.37004333">
        <ele>3125.0</ele>
        <time>2022-11-20T13:27:24.000Z</time>
      </trkpt>
      <trkpt lat="37.06400667" lon="-3.37004167">
        <ele>3125.0</ele>
        <time>2022-11-20T13:27:25.000Z</time>
      </trkpt>
      <trkpt lat="37.06401833" lon="-3.37004">
        <ele>3125.0</ele>
        <time>2022-11-20T13:27:26.000Z</time>
      </trkpt>
      <trkpt lat="37.06402833" lon="-3.37004">
        <ele>3125.0</ele>
        <time>2022-11-20T13:27:27.000Z</time>
      </trkpt>
      <trkpt lat="37.06404" lon="-3.37003833">
        <ele>3125.0</ele>
        <time>2022-11-20T13:27:28.000Z</time>
      </trkpt>
      <trkpt lat="37.06405" lon="-3.37003667">
        <ele>3125.0</ele>
        <time>2022-11-20T13:27:29.000Z</time>
      </trkpt>
      <trkpt lat="37.06406" lon="-3.37003333">
        <ele>3125.0</ele>
        <time>2022-11-20T13:27:30.000Z</time>
      </trkpt>
      <trkpt lat="37.06407167" lon="-3.37003">
        <ele>3125.0</ele>
        <time>2022-11-20T13:27:31.000Z</time>
      </trkpt>
      <trkpt lat="37.06408167" lon="-3.37003">
        <ele>3125.0</ele>
        <time>2022-11-20T13:27:32.000Z</time>
      </trkpt>
      <trkpt lat="37.06409333" lon="-3.37003">
        <ele>3125.0</ele>
        <time>2022-11-20T13:27:33.000Z</time>
      </trkpt>
      <trkpt lat="37.064105" lon="-3.37002833">
        <ele>3125.0</ele>
        <time>2022-11-20T13:27:34.000Z</time>
      </trkpt>
      <trkpt lat="37.064115" lon="-3.37002667">
        <ele>3125.0</ele>
        <time>2022-11-20T13:27:35.000Z</time>
      </trkpt>
      <trkpt lat="37.06412333" lon="-3.37002333">
        <ele>3125.0</ele>
        <time>2022-11-20T13:27:36.000Z</time>
      </trkpt>
      <trkpt lat="37.06413333" lon="-3.37002">
        <ele>3125.0</ele>
        <time>2022-11-20T13:27:37.000Z</time>
      </trkpt>
      <trkpt lat="37.064145" lon="-3.37001667">
        <ele>3125.0</ele>
        <time>2022-11-20T13:27:38.000Z</time>
      </trkpt>
      <trkpt lat="37.064155" lon="-3.370015">
        <ele>3125.0</ele>
        <time>2022-11-20T13:27:39.000Z</time>
      </trkpt>
      <trkpt lat="37.064165" lon="-3.37001167">
        <ele>3124.0</ele>
        <time>2022-11-20T13:27:40.000Z</time>
      </trkpt>
      <trkpt lat="37.06417667" lon="-3.37000667">
        <ele>3124.0</ele>
        <time>2022-11-20T13:27:41.000Z</time>
      </trkpt>
      <trkpt lat="37.06418667" lon="-3.37000167">
        <ele>3124.0</ele>
        <time>2022-11-20T13:27:42.000Z</time>
      </trkpt>
      <trkpt lat="37.06419667" lon="-3.36999833">
        <ele>3124.0</ele>
        <time>2022-11-20T13:27:43.000Z</time>
      </trkpt>
      <trkpt lat="37.06420667" lon="-3.369995">
        <ele>3124.0</ele>
        <time>2022-11-20T13:27:44.000Z</time>
      </trkpt>
      <trkpt lat="37.06421833" lon="-3.36999">
        <ele>3124.0</ele>
        <time>2022-11-20T13:27:45.000Z</time>
      </trkpt>
      <trkpt lat="37.06423" lon="-3.36998667">
        <ele>3124.0</ele>
        <time>2022-11-20T13:27:46.000Z</time>
      </trkpt>
      <trkpt lat="37.06424" lon="-3.36998333">
        <ele>3124.0</ele>
        <time>2022-11-20T13:27:47.000Z</time>
      </trkpt>
      <trkpt lat="37.06425" lon="-3.36997833">
        <ele>3124.0</ele>
        <time>2022-11-20T13:27:48.000Z</time>
      </trkpt>
      <trkpt lat="37.06426" lon="-3.369975">
        <ele>3124.0</ele>
        <time>2022-11-20T13:27:49.000Z</time>
      </trkpt>
      <trkpt lat="37.06427167" lon="-3.36997">
        <ele>3123.0</ele>
        <time>2022-11-20T13:27:50.000Z</time>
      </trkpt>
      <trkpt lat="37.06428167" lon="-3.36996667">
        <ele>3123.0</ele>
        <time>2022-11-20T13:27:51.000Z</time>
      </trkpt>
      <trkpt lat="37.06429333" lon="-3.36996333">
        <ele>3123.0</ele>
        <time>2022-11-20T13:27:52.000Z</time>
      </trkpt>
      <trkpt lat="37.06430333" lon="-3.36996">
        <ele>3123.0</ele>
        <time>2022-11-20T13:27:53.000Z</time>
      </trkpt>
      <trkpt lat="37.064315" lon="-3.369955">
        <ele>3123.0</ele>
        <time>2022-11-20T13:27:54.000Z</time>
      </trkpt>
      <trkpt lat="37.064325" lon="-3.36995">
        <ele>3123.0</ele>
        <time>2022-11-20T13:27:55.000Z</time>
      </trkpt>
      <trkpt lat="37.064335" lon="-3.36994667">
        <ele>3123.0</ele>
        <time>2022-11-20T13:27:56.000Z</time>
      </trkpt>
      <trkpt lat="37.06434667" lon="-3.36994333">
        <ele>3123.0</ele>
        <time>2022-11-20T13:27:57.000Z</time>
      </trkpt>
      <trkpt lat="37.06435833" lon="-3.36994">
        <ele>3123.0</ele>
        <time>2022-11-20T13:27:58.000Z</time>
      </trkpt>
      <trkpt lat="37.06437" lon="-3.36993667">
        <ele>3123.0</ele>
        <time>2022-11-20T13:27:59.000Z</time>
      </trkpt>
      <trkpt lat="37.06438167" lon="-3.36993333">
        <ele>3123.0</ele>
        <time>2022-11-20T13:28:00.000Z</time>
      </trkpt>
      <trkpt lat="37.06439" lon="-3.36992833">
        <ele>3123.0</ele>
        <time>2022-11-20T13:28:01.000Z</time>
      </trkpt>
      <trkpt lat="37.0644" lon="-3.36992333">
        <ele>3123.0</ele>
        <time>2022-11-20T13:28:02.000Z</time>
      </trkpt>
      <trkpt lat="37.06441" lon="-3.36991833">
        <ele>3123.0</ele>
        <time>2022-11-20T13:28:03.000Z</time>
      </trkpt>
      <trkpt lat="37.06442" lon="-3.36991333">
        <ele>3123.0</ele>
        <time>2022-11-20T13:28:04.000Z</time>
      </trkpt>
      <trkpt lat="37.06442833" lon="-3.36990667">
        <ele>3122.0</ele>
        <time>2022-11-20T13:28:05.000Z</time>
      </trkpt>
      <trkpt lat="37.06443833" lon="-3.36989833">
        <ele>3122.0</ele>
        <time>2022-11-20T13:28:06.000Z</time>
      </trkpt>
      <trkpt lat="37.064445" lon="-3.36989167">
        <ele>3122.0</ele>
        <time>2022-11-20T13:28:07.000Z</time>
      </trkpt>
      <trkpt lat="37.06445167" lon="-3.369885">
        <ele>3123.0</ele>
        <time>2022-11-20T13:28:08.000Z</time>
      </trkpt>
      <trkpt lat="37.06445833" lon="-3.36987667">
        <ele>3123.0</ele>
        <time>2022-11-20T13:28:09.000Z</time>
      </trkpt>
      <trkpt lat="37.06446333" lon="-3.36986833">
        <ele>3122.0</ele>
        <time>2022-11-20T13:28:10.000Z</time>
      </trkpt>
      <trkpt lat="37.06446833" lon="-3.36986167">
        <ele>3122.0</ele>
        <time>2022-11-20T13:28:11.000Z</time>
      </trkpt>
      <trkpt lat="37.06447167" lon="-3.36985667">
        <ele>3122.0</ele>
        <time>2022-11-20T13:28:12.000Z</time>
      </trkpt>
      <trkpt lat="37.06447667" lon="-3.36985167">
        <ele>3122.0</ele>
        <time>2022-11-20T13:28:13.000Z</time>
      </trkpt>
      <trkpt lat="37.06448333" lon="-3.36984833">
        <ele>3122.0</ele>
        <time>2022-11-20T13:28:14.000Z</time>
      </trkpt>
      <trkpt lat="37.06448667" lon="-3.36984667">
        <ele>3122.0</ele>
        <time>2022-11-20T13:28:15.000Z</time>
      </trkpt>
      <trkpt lat="37.06449333" lon="-3.36984333">
        <ele>3122.0</ele>
        <time>2022-11-20T13:28:16.000Z</time>
      </trkpt>
      <trkpt lat="37.06449833" lon="-3.36984333">
        <ele>3122.0</ele>
        <time>2022-11-20T13:28:17.000Z</time>
      </trkpt>
      <trkpt lat="37.064505" lon="-3.36984333">
        <ele>3122.0</ele>
        <time>2022-11-20T13:28:18.000Z</time>
      </trkpt>
      <trkpt lat="37.06451167" lon="-3.36983833">
        <ele>3122.0</ele>
        <time>2022-11-20T13:28:19.000Z</time>
      </trkpt>
      <trkpt lat="37.06452" lon="-3.36983333">
        <ele>3121.0</ele>
        <time>2022-11-20T13:28:20.000Z</time>
      </trkpt>
      <trkpt lat="37.06453" lon="-3.36982833">
        <ele>3121.0</ele>
        <time>2022-11-20T13:28:21.000Z</time>
      </trkpt>
      <trkpt lat="37.06453833" lon="-3.36982167">
        <ele>3121.0</ele>
        <time>2022-11-20T13:28:22.000Z</time>
      </trkpt>
      <trkpt lat="37.06454667" lon="-3.36981833">
        <ele>3121.0</ele>
        <time>2022-11-20T13:28:23.000Z</time>
      </trkpt>
      <trkpt lat="37.064555" lon="-3.36981333">
        <ele>3121.0</ele>
        <time>2022-11-20T13:28:24.000Z</time>
      </trkpt>
      <trkpt lat="37.064565" lon="-3.36980833">
        <ele>3121.0</ele>
        <time>2022-11-20T13:28:25.000Z</time>
      </trkpt>
      <trkpt lat="37.064575" lon="-3.36980167">
        <ele>3121.0</ele>
        <time>2022-11-20T13:28:26.000Z</time>
      </trkpt>
      <trkpt lat="37.06458333" lon="-3.36979667">
        <ele>3120.0</ele>
        <time>2022-11-20T13:28:27.000Z</time>
      </trkpt>
      <trkpt lat="37.06458833" lon="-3.36979333">
        <ele>3120.0</ele>
        <time>2022-11-20T13:28:28.000Z</time>
      </trkpt>
      <trkpt lat="37.06459667" lon="-3.36978667">
        <ele>3120.0</ele>
        <time>2022-11-20T13:28:29.000Z</time>
      </trkpt>
      <trkpt lat="37.064605" lon="-3.36978167">
        <ele>3120.0</ele>
        <time>2022-11-20T13:28:30.000Z</time>
      </trkpt>
      <trkpt lat="37.06461333" lon="-3.369775">
        <ele>3120.0</ele>
        <time>2022-11-20T13:28:31.000Z</time>
      </trkpt>
      <trkpt lat="37.06462333" lon="-3.36976833">
        <ele>3120.0</ele>
        <time>2022-11-20T13:28:32.000Z</time>
      </trkpt>
      <trkpt lat="37.06463167" lon="-3.36976167">
        <ele>3120.0</ele>
        <time>2022-11-20T13:28:33.000Z</time>
      </trkpt>
      <trkpt lat="37.06464167" lon="-3.36975667">
        <ele>3120.0</ele>
        <time>2022-11-20T13:28:34.000Z</time>
      </trkpt>
      <trkpt lat="37.06465167" lon="-3.36975">
        <ele>3120.0</ele>
        <time>2022-11-20T13:28:35.000Z</time>
      </trkpt>
      <trkpt lat="37.06466167" lon="-3.369745">
        <ele>3120.0</ele>
        <time>2022-11-20T13:28:36.000Z</time>
      </trkpt>
      <trkpt lat="37.06467167" lon="-3.36974">
        <ele>3119.0</ele>
        <time>2022-11-20T13:28:37.000Z</time>
      </trkpt>
      <trkpt lat="37.06468333" lon="-3.369735">
        <ele>3119.0</ele>
        <time>2022-11-20T13:28:38.000Z</time>
      </trkpt>
      <trkpt lat="37.06469333" lon="-3.36973">
        <ele>3119.0</ele>
        <time>2022-11-20T13:28:39.000Z</time>
      </trkpt>
      <trkpt lat="37.06470333" lon="-3.36972667">
        <ele>3119.0</ele>
        <time>2022-11-20T13:28:40.000Z</time>
      </trkpt>
      <trkpt lat="37.064715" lon="-3.36972167">
        <ele>3119.0</ele>
        <time>2022-11-20T13:28:41.000Z</time>
      </trkpt>
      <trkpt lat="37.06472333" lon="-3.36971667">
        <ele>3119.0</ele>
        <time>2022-11-20T13:28:42.000Z</time>
      </trkpt>
      <trkpt lat="37.06473333" lon="-3.36971">
        <ele>3119.0</ele>
        <time>2022-11-20T13:28:43.000Z</time>
      </trkpt>
      <trkpt lat="37.064745" lon="-3.36970667">
        <ele>3119.0</ele>
        <time>2022-11-20T13:28:44.000Z</time>
      </trkpt>
      <trkpt lat="37.06475667" lon="-3.36970333">
        <ele>3119.0</ele>
        <time>2022-11-20T13:28:45.000Z</time>
      </trkpt>
      <trkpt lat="37.06476667" lon="-3.36969833">
        <ele>3118.0</ele>
        <time>2022-11-20T13:28:46.000Z</time>
      </trkpt>
      <trkpt lat="37.06477667" lon="-3.36969167">
        <ele>3118.0</ele>
        <time>2022-11-20T13:28:47.000Z</time>
      </trkpt>
      <trkpt lat="37.06478667" lon="-3.36968833">
        <ele>3118.0</ele>
        <time>2022-11-20T13:28:48.000Z</time>
      </trkpt>
      <trkpt lat="37.06479667" lon="-3.36968333">
        <ele>3118.0</ele>
        <time>2022-11-20T13:28:49.000Z</time>
      </trkpt>
      <trkpt lat="37.064805" lon="-3.36967833">
        <ele>3118.0</ele>
        <time>2022-11-20T13:28:50.000Z</time>
      </trkpt>
      <trkpt lat="37.06481333" lon="-3.369675">
        <ele>3118.0</ele>
        <time>2022-11-20T13:28:51.000Z</time>
      </trkpt>
      <trkpt lat="37.06482333" lon="-3.36967167">
        <ele>3118.0</ele>
        <time>2022-11-20T13:28:52.000Z</time>
      </trkpt>
      <trkpt lat="37.06483333" lon="-3.36966667">
        <ele>3118.0</ele>
        <time>2022-11-20T13:28:53.000Z</time>
      </trkpt>
      <trkpt lat="37.06484333" lon="-3.36966167">
        <ele>3117.0</ele>
        <time>2022-11-20T13:28:54.000Z</time>
      </trkpt>
      <trkpt lat="37.06485333" lon="-3.369655">
        <ele>3117.0</ele>
        <time>2022-11-20T13:28:55.000Z</time>
      </trkpt>
      <trkpt lat="37.06486333" lon="-3.36964667">
        <ele>3117.0</ele>
        <time>2022-11-20T13:28:56.000Z</time>
      </trkpt>
      <trkpt lat="37.06487333" lon="-3.36964167">
        <ele>3117.0</ele>
        <time>2022-11-20T13:28:57.000Z</time>
      </trkpt>
      <trkpt lat="37.06488333" lon="-3.369635">
        <ele>3117.0</ele>
        <time>2022-11-20T13:28:58.000Z</time>
      </trkpt>
      <trkpt lat="37.06489333" lon="-3.36962833">
        <ele>3117.0</ele>
        <time>2022-11-20T13:28:59.000Z</time>
      </trkpt>
      <trkpt lat="37.06490333" lon="-3.36962">
        <ele>3117.0</ele>
        <time>2022-11-20T13:29:00.000Z</time>
      </trkpt>
      <trkpt lat="37.06491333" lon="-3.36961333">
        <ele>3117.0</ele>
        <time>2022-11-20T13:29:01.000Z</time>
      </trkpt>
      <trkpt lat="37.06492333" lon="-3.36961">
        <ele>3117.0</ele>
        <time>2022-11-20T13:29:02.000Z</time>
      </trkpt>
      <trkpt lat="37.06493333" lon="-3.369605">
        <ele>3117.0</ele>
        <time>2022-11-20T13:29:03.000Z</time>
      </trkpt>
      <trkpt lat="37.064945" lon="-3.3696">
        <ele>3116.0</ele>
        <time>2022-11-20T13:29:04.000Z</time>
      </trkpt>
      <trkpt lat="37.06495667" lon="-3.36959333">
        <ele>3116.0</ele>
        <time>2022-11-20T13:29:05.000Z</time>
      </trkpt>
      <trkpt lat="37.06496833" lon="-3.36959">
        <ele>3116.0</ele>
        <time>2022-11-20T13:29:06.000Z</time>
      </trkpt>
      <trkpt lat="37.06498" lon="-3.369585">
        <ele>3116.0</ele>
        <time>2022-11-20T13:29:07.000Z</time>
      </trkpt>
      <trkpt lat="37.06499" lon="-3.36958333">
        <ele>3116.0</ele>
        <time>2022-11-20T13:29:08.000Z</time>
      </trkpt>
      <trkpt lat="37.06500167" lon="-3.369575">
        <ele>3116.0</ele>
        <time>2022-11-20T13:29:09.000Z</time>
      </trkpt>
      <trkpt lat="37.06501167" lon="-3.36957">
        <ele>3116.0</ele>
        <time>2022-11-20T13:29:10.000Z</time>
      </trkpt>
      <trkpt lat="37.06502167" lon="-3.36956333">
        <ele>3116.0</ele>
        <time>2022-11-20T13:29:11.000Z</time>
      </trkpt>
      <trkpt lat="37.06503167" lon="-3.36955667">
        <ele>3116.0</ele>
        <time>2022-11-20T13:29:12.000Z</time>
      </trkpt>
      <trkpt lat="37.06504" lon="-3.36954833">
        <ele>3116.0</ele>
        <time>2022-11-20T13:29:13.000Z</time>
      </trkpt>
      <trkpt lat="37.065045" lon="-3.369545">
        <ele>3116.0</ele>
        <time>2022-11-20T13:29:14.000Z</time>
      </trkpt>
      <trkpt lat="37.06505" lon="-3.36954">
        <ele>3116.0</ele>
        <time>2022-11-20T13:29:15.000Z</time>
      </trkpt>
      <trkpt lat="37.065055" lon="-3.36953333">
        <ele>3116.0</ele>
        <time>2022-11-20T13:29:16.000Z</time>
      </trkpt>
      <trkpt lat="37.06506333" lon="-3.36952667">
        <ele>3116.0</ele>
        <time>2022-11-20T13:29:17.000Z</time>
      </trkpt>
      <trkpt lat="37.06507" lon="-3.36952167">
        <ele>3116.0</ele>
        <time>2022-11-20T13:29:18.000Z</time>
      </trkpt>
      <trkpt lat="37.06507333" lon="-3.369515">
        <ele>3116.0</ele>
        <time>2022-11-20T13:29:19.000Z</time>
      </trkpt>
      <trkpt lat="37.06507333" lon="-3.36951333">
        <ele>3116.0</ele>
        <time>2022-11-20T13:29:20.000Z</time>
      </trkpt>
      <trkpt lat="37.065075" lon="-3.369515">
        <ele>3116.0</ele>
        <time>2022-11-20T13:29:21.000Z</time>
      </trkpt>
      <trkpt lat="37.065075" lon="-3.369515">
        <ele>3116.0</ele>
        <time>2022-11-20T13:29:22.000Z</time>
      </trkpt>
      <trkpt lat="37.06507667" lon="-3.36951667">
        <ele>3116.0</ele>
        <time>2022-11-20T13:29:23.000Z</time>
      </trkpt>
      <trkpt lat="37.06507667" lon="-3.36951667">
        <ele>3116.0</ele>
        <time>2022-11-20T13:29:24.000Z</time>
      </trkpt>
      <trkpt lat="37.06507833" lon="-3.36951667">
        <ele>3115.0</ele>
        <time>2022-11-20T13:29:25.000Z</time>
      </trkpt>
      <trkpt lat="37.06507833" lon="-3.36951833">
        <ele>3115.0</ele>
        <time>2022-11-20T13:29:26.000Z</time>
      </trkpt>
      <trkpt lat="37.06507833" lon="-3.36951833">
        <ele>3115.0</ele>
        <time>2022-11-20T13:29:27.000Z</time>
      </trkpt>
      <trkpt lat="37.06508" lon="-3.36951667">
        <ele>3115.0</ele>
        <time>2022-11-20T13:29:28.000Z</time>
      </trkpt>
      <trkpt lat="37.06508333" lon="-3.36952167">
        <ele>3115.0</ele>
        <time>2022-11-20T13:29:29.000Z</time>
      </trkpt>
      <trkpt lat="37.06509" lon="-3.36952667">
        <ele>3115.0</ele>
        <time>2022-11-20T13:29:30.000Z</time>
      </trkpt>
      <trkpt lat="37.06509667" lon="-3.369535">
        <ele>3115.0</ele>
        <time>2022-11-20T13:29:31.000Z</time>
      </trkpt>
      <trkpt lat="37.065105" lon="-3.36954333">
        <ele>3115.0</ele>
        <time>2022-11-20T13:29:32.000Z</time>
      </trkpt>
      <trkpt lat="37.06511333" lon="-3.36955167">
        <ele>3115.0</ele>
        <time>2022-11-20T13:29:33.000Z</time>
      </trkpt>
      <trkpt lat="37.06512167" lon="-3.36955833">
        <ele>3115.0</ele>
        <time>2022-11-20T13:29:34.000Z</time>
      </trkpt>
      <trkpt lat="37.06513167" lon="-3.36956167">
        <ele>3115.0</ele>
        <time>2022-11-20T13:29:35.000Z</time>
      </trkpt>
      <trkpt lat="37.06514167" lon="-3.36956833">
        <ele>3115.0</ele>
        <time>2022-11-20T13:29:36.000Z</time>
      </trkpt>
      <trkpt lat="37.06515333" lon="-3.36957167">
        <ele>3115.0</ele>
        <time>2022-11-20T13:29:37.000Z</time>
      </trkpt>
      <trkpt lat="37.06516667" lon="-3.36957333">
        <ele>3115.0</ele>
        <time>2022-11-20T13:29:38.000Z</time>
      </trkpt>
      <trkpt lat="37.06517833" lon="-3.36957667">
        <ele>3115.0</ele>
        <time>2022-11-20T13:29:39.000Z</time>
      </trkpt>
      <trkpt lat="37.06519" lon="-3.36957833">
        <ele>3115.0</ele>
        <time>2022-11-20T13:29:40.000Z</time>
      </trkpt>
      <trkpt lat="37.06520167" lon="-3.36958">
        <ele>3115.0</ele>
        <time>2022-11-20T13:29:41.000Z</time>
      </trkpt>
      <trkpt lat="37.06521333" lon="-3.36958167">
        <ele>3114.0</ele>
        <time>2022-11-20T13:29:42.000Z</time>
      </trkpt>
      <trkpt lat="37.06522167" lon="-3.369585">
        <ele>3114.0</ele>
        <time>2022-11-20T13:29:43.000Z</time>
      </trkpt>
      <trkpt lat="37.06522167" lon="-3.36959">
        <ele>3114.0</ele>
        <time>2022-11-20T13:29:44.000Z</time>
      </trkpt>
      <trkpt lat="37.06522167" lon="-3.36959167">
        <ele>3114.0</ele>
        <time>2022-11-20T13:29:45.000Z</time>
      </trkpt>
      <trkpt lat="37.06522167" lon="-3.36959167">
        <ele>3114.0</ele>
        <time>2022-11-20T13:29:46.000Z</time>
      </trkpt>
      <trkpt lat="37.06522333" lon="-3.36959167">
        <ele>3114.0</ele>
        <time>2022-11-20T13:29:47.000Z</time>
      </trkpt>
      <trkpt lat="37.06522667" lon="-3.36959">
        <ele>3114.0</ele>
        <time>2022-11-20T13:29:48.000Z</time>
      </trkpt>
      <trkpt lat="37.06523333" lon="-3.36958833">
        <ele>3114.0</ele>
        <time>2022-11-20T13:29:49.000Z</time>
      </trkpt>
      <trkpt lat="37.06524333" lon="-3.36958833">
        <ele>3114.0</ele>
        <time>2022-11-20T13:29:50.000Z</time>
      </trkpt>
      <trkpt lat="37.065255" lon="-3.36958667">
        <ele>3114.0</ele>
        <time>2022-11-20T13:29:51.000Z</time>
      </trkpt>
      <trkpt lat="37.06526667" lon="-3.36958667">
        <ele>3114.0</ele>
        <time>2022-11-20T13:29:52.000Z</time>
      </trkpt>
      <trkpt lat="37.06527833" lon="-3.36958667">
        <ele>3114.0</ele>
        <time>2022-11-20T13:29:53.000Z</time>
      </trkpt>
      <trkpt lat="37.06529" lon="-3.36958667">
        <ele>3114.0</ele>
        <time>2022-11-20T13:29:54.000Z</time>
      </trkpt>
      <trkpt lat="37.0653" lon="-3.36958833">
        <ele>3114.0</ele>
        <time>2022-11-20T13:29:55.000Z</time>
      </trkpt>
      <trkpt lat="37.06531" lon="-3.36958833">
        <ele>3114.0</ele>
        <time>2022-11-20T13:29:56.000Z</time>
      </trkpt>
      <trkpt lat="37.06532" lon="-3.36958833">
        <ele>3114.0</ele>
        <time>2022-11-20T13:29:57.000Z</time>
      </trkpt>
      <trkpt lat="37.06532833" lon="-3.36958833">
        <ele>3113.0</ele>
        <time>2022-11-20T13:29:58.000Z</time>
      </trkpt>
      <trkpt lat="37.06533833" lon="-3.36959">
        <ele>3113.0</ele>
        <time>2022-11-20T13:29:59.000Z</time>
      </trkpt>
      <trkpt lat="37.06534833" lon="-3.36959">
        <ele>3113.0</ele>
        <time>2022-11-20T13:30:00.000Z</time>
      </trkpt>
      <trkpt lat="37.06535833" lon="-3.36959167">
        <ele>3113.0</ele>
        <time>2022-11-20T13:30:01.000Z</time>
      </trkpt>
      <trkpt lat="37.06536833" lon="-3.36959">
        <ele>3113.0</ele>
        <time>2022-11-20T13:30:02.000Z</time>
      </trkpt>
      <trkpt lat="37.06537833" lon="-3.36958667">
        <ele>3113.0</ele>
        <time>2022-11-20T13:30:03.000Z</time>
      </trkpt>
      <trkpt lat="37.06539" lon="-3.36958667">
        <ele>3113.0</ele>
        <time>2022-11-20T13:30:04.000Z</time>
      </trkpt>
      <trkpt lat="37.0654" lon="-3.36958667">
        <ele>3113.0</ele>
        <time>2022-11-20T13:30:05.000Z</time>
      </trkpt>
      <trkpt lat="37.06541" lon="-3.369585">
        <ele>3113.0</ele>
        <time>2022-11-20T13:30:06.000Z</time>
      </trkpt>
      <trkpt lat="37.06542167" lon="-3.369585">
        <ele>3113.0</ele>
        <time>2022-11-20T13:30:07.000Z</time>
      </trkpt>
      <trkpt lat="37.06542833" lon="-3.369585">
        <ele>3112.0</ele>
        <time>2022-11-20T13:30:08.000Z</time>
      </trkpt>
      <trkpt lat="37.065435" lon="-3.36958333">
        <ele>3112.0</ele>
        <time>2022-11-20T13:30:09.000Z</time>
      </trkpt>
      <trkpt lat="37.06544" lon="-3.36958167">
        <ele>3112.0</ele>
        <time>2022-11-20T13:30:10.000Z</time>
      </trkpt>
      <trkpt lat="37.06544167" lon="-3.369585">
        <ele>3112.0</ele>
        <time>2022-11-20T13:30:11.000Z</time>
      </trkpt>
      <trkpt lat="37.06544167" lon="-3.36958333">
        <ele>3112.0</ele>
        <time>2022-11-20T13:30:12.000Z</time>
      </trkpt>
      <trkpt lat="37.06544167" lon="-3.36958333">
        <ele>3112.0</ele>
        <time>2022-11-20T13:30:13.000Z</time>
      </trkpt>
      <trkpt lat="37.06544333" lon="-3.36958333">
        <ele>3112.0</ele>
        <time>2022-11-20T13:30:14.000Z</time>
      </trkpt>
      <trkpt lat="37.065445" lon="-3.369585">
        <ele>3112.0</ele>
        <time>2022-11-20T13:30:15.000Z</time>
      </trkpt>
      <trkpt lat="37.06544333" lon="-3.36958333">
        <ele>3112.0</ele>
        <time>2022-11-20T13:30:16.000Z</time>
      </trkpt>
      <trkpt lat="37.06544333" lon="-3.36958333">
        <ele>3112.0</ele>
        <time>2022-11-20T13:30:17.000Z</time>
      </trkpt>
      <trkpt lat="37.06544333" lon="-3.369585">
        <ele>3112.0</ele>
        <time>2022-11-20T13:30:18.000Z</time>
      </trkpt>
      <trkpt lat="37.065445" lon="-3.369585">
        <ele>3112.0</ele>
        <time>2022-11-20T13:30:19.000Z</time>
      </trkpt>
      <trkpt lat="37.065445" lon="-3.36958667">
        <ele>3112.0</ele>
        <time>2022-11-20T13:30:20.000Z</time>
      </trkpt>
      <trkpt lat="37.065445" lon="-3.36958667">
        <ele>3112.0</ele>
        <time>2022-11-20T13:30:21.000Z</time>
      </trkpt>
      <trkpt lat="37.06544667" lon="-3.36958667">
        <ele>3112.0</ele>
        <time>2022-11-20T13:30:22.000Z</time>
      </trkpt>
      <trkpt lat="37.06544667" lon="-3.36958667">
        <ele>3112.0</ele>
        <time>2022-11-20T13:30:23.000Z</time>
      </trkpt>
      <trkpt lat="37.065445" lon="-3.36958667">
        <ele>3112.0</ele>
        <time>2022-11-20T13:30:24.000Z</time>
      </trkpt>
      <trkpt lat="37.065445" lon="-3.369585">
        <ele>3112.0</ele>
        <time>2022-11-20T13:30:25.000Z</time>
      </trkpt>
      <trkpt lat="37.065445" lon="-3.369585">
        <ele>3112.0</ele>
        <time>2022-11-20T13:30:26.000Z</time>
      </trkpt>
      <trkpt lat="37.065445" lon="-3.36958667">
        <ele>3112.0</ele>
        <time>2022-11-20T13:30:27.000Z</time>
      </trkpt>
      <trkpt lat="37.065445" lon="-3.36958833">
        <ele>3112.0</ele>
        <time>2022-11-20T13:30:28.000Z</time>
      </trkpt>
      <trkpt lat="37.065445" lon="-3.36958667">
        <ele>3112.0</ele>
        <time>2022-11-20T13:30:29.000Z</time>
      </trkpt>
      <trkpt lat="37.06545167" lon="-3.36958667">
        <ele>3112.0</ele>
        <time>2022-11-20T13:30:30.000Z</time>
      </trkpt>
      <trkpt lat="37.06546" lon="-3.36958833">
        <ele>3111.0</ele>
        <time>2022-11-20T13:30:31.000Z</time>
      </trkpt>
      <trkpt lat="37.06546833" lon="-3.36958833">
        <ele>3111.0</ele>
        <time>2022-11-20T13:30:32.000Z</time>
      </trkpt>
      <trkpt lat="37.06547833" lon="-3.36958833">
        <ele>3111.0</ele>
        <time>2022-11-20T13:30:33.000Z</time>
      </trkpt>
      <trkpt lat="37.06548833" lon="-3.36958833">
        <ele>3111.0</ele>
        <time>2022-11-20T13:30:34.000Z</time>
      </trkpt>
      <trkpt lat="37.06549833" lon="-3.36958833">
        <ele>3111.0</ele>
        <time>2022-11-20T13:30:35.000Z</time>
      </trkpt>
      <trkpt lat="37.06550833" lon="-3.369585">
        <ele>3111.0</ele>
        <time>2022-11-20T13:30:36.000Z</time>
      </trkpt>
      <trkpt lat="37.065515" lon="-3.36958833">
        <ele>3111.0</ele>
        <time>2022-11-20T13:30:37.000Z</time>
      </trkpt>
      <trkpt lat="37.065515" lon="-3.36958833">
        <ele>3111.0</ele>
        <time>2022-11-20T13:30:38.000Z</time>
      </trkpt>
      <trkpt lat="37.065515" lon="-3.36958833">
        <ele>3111.0</ele>
        <time>2022-11-20T13:30:39.000Z</time>
      </trkpt>
      <trkpt lat="37.065515" lon="-3.36958833">
        <ele>3111.0</ele>
        <time>2022-11-20T13:30:40.000Z</time>
      </trkpt>
      <trkpt lat="37.065515" lon="-3.36959">
        <ele>3111.0</ele>
        <time>2022-11-20T13:30:41.000Z</time>
      </trkpt>
      <trkpt lat="37.065515" lon="-3.36959">
        <ele>3111.0</ele>
        <time>2022-11-20T13:30:42.000Z</time>
      </trkpt>
      <trkpt lat="37.06551667" lon="-3.36959">
        <ele>3111.0</ele>
        <time>2022-11-20T13:30:43.000Z</time>
      </trkpt>
      <trkpt lat="37.06551667" lon="-3.36959">
        <ele>3111.0</ele>
        <time>2022-11-20T13:30:44.000Z</time>
      </trkpt>
      <trkpt lat="37.06551833" lon="-3.36958833">
        <ele>3111.0</ele>
        <time>2022-11-20T13:30:45.000Z</time>
      </trkpt>
      <trkpt lat="37.06552833" lon="-3.36958667">
        <ele>3111.0</ele>
        <time>2022-11-20T13:30:46.000Z</time>
      </trkpt>
      <trkpt lat="37.06553833" lon="-3.369585">
        <ele>3111.0</ele>
        <time>2022-11-20T13:30:47.000Z</time>
      </trkpt>
      <trkpt lat="37.06555" lon="-3.36958667">
        <ele>3111.0</ele>
        <time>2022-11-20T13:30:48.000Z</time>
      </trkpt>
      <trkpt lat="37.06556" lon="-3.36958667">
        <ele>3111.0</ele>
        <time>2022-11-20T13:30:49.000Z</time>
      </trkpt>
      <trkpt lat="37.06557" lon="-3.36958833">
        <ele>3111.0</ele>
        <time>2022-11-20T13:30:50.000Z</time>
      </trkpt>
      <trkpt lat="37.06558167" lon="-3.36958667">
        <ele>3111.0</ele>
        <time>2022-11-20T13:30:51.000Z</time>
      </trkpt>
      <trkpt lat="37.065595" lon="-3.36959">
        <ele>3111.0</ele>
        <time>2022-11-20T13:30:52.000Z</time>
      </trkpt>
      <trkpt lat="37.06560333" lon="-3.369595">
        <ele>3111.0</ele>
        <time>2022-11-20T13:30:53.000Z</time>
      </trkpt>
      <trkpt lat="37.06561167" lon="-3.36959833">
        <ele>3111.0</ele>
        <time>2022-11-20T13:30:54.000Z</time>
      </trkpt>
      <trkpt lat="37.06561333" lon="-3.3696">
        <ele>3111.0</ele>
        <time>2022-11-20T13:30:55.000Z</time>
      </trkpt>
      <trkpt lat="37.06561333" lon="-3.3696">
        <ele>3111.0</ele>
        <time>2022-11-20T13:30:56.000Z</time>
      </trkpt>
      <trkpt lat="37.06561333" lon="-3.3696">
        <ele>3111.0</ele>
        <time>2022-11-20T13:30:57.000Z</time>
      </trkpt>
      <trkpt lat="37.06561333" lon="-3.3696">
        <ele>3111.0</ele>
        <time>2022-11-20T13:30:58.000Z</time>
      </trkpt>
      <trkpt lat="37.06561333" lon="-3.3696">
        <ele>3111.0</ele>
        <time>2022-11-20T13:30:59.000Z</time>
      </trkpt>
      <trkpt lat="37.06561333" lon="-3.3696">
        <ele>3111.0</ele>
        <time>2022-11-20T13:31:00.000Z</time>
      </trkpt>
      <trkpt lat="37.06561833" lon="-3.36960167">
        <ele>3111.0</ele>
        <time>2022-11-20T13:31:01.000Z</time>
      </trkpt>
      <trkpt lat="37.06562667" lon="-3.369605">
        <ele>3111.0</ele>
        <time>2022-11-20T13:31:02.000Z</time>
      </trkpt>
      <trkpt lat="37.065635" lon="-3.36960833">
        <ele>3111.0</ele>
        <time>2022-11-20T13:31:03.000Z</time>
      </trkpt>
      <trkpt lat="37.06564333" lon="-3.36961167">
        <ele>3110.0</ele>
        <time>2022-11-20T13:31:04.000Z</time>
      </trkpt>
      <trkpt lat="37.06565167" lon="-3.36961167">
        <ele>3110.0</ele>
        <time>2022-11-20T13:31:05.000Z</time>
      </trkpt>
      <trkpt lat="37.06565833" lon="-3.36960833">
        <ele>3110.0</ele>
        <time>2022-11-20T13:31:06.000Z</time>
      </trkpt>
      <trkpt lat="37.06567" lon="-3.36960833">
        <ele>3110.0</ele>
        <time>2022-11-20T13:31:07.000Z</time>
      </trkpt>
      <trkpt lat="37.06568" lon="-3.36960667">
        <ele>3110.0</ele>
        <time>2022-11-20T13:31:08.000Z</time>
      </trkpt>
      <trkpt lat="37.06569167" lon="-3.36960667">
        <ele>3110.0</ele>
        <time>2022-11-20T13:31:09.000Z</time>
      </trkpt>
      <trkpt lat="37.06570333" lon="-3.36960667">
        <ele>3110.0</ele>
        <time>2022-11-20T13:31:10.000Z</time>
      </trkpt>
      <trkpt lat="37.065715" lon="-3.36960833">
        <ele>3110.0</ele>
        <time>2022-11-20T13:31:11.000Z</time>
      </trkpt>
      <trkpt lat="37.06572667" lon="-3.36960833">
        <ele>3110.0</ele>
        <time>2022-11-20T13:31:12.000Z</time>
      </trkpt>
      <trkpt lat="37.06573667" lon="-3.36960667">
        <ele>3110.0</ele>
        <time>2022-11-20T13:31:13.000Z</time>
      </trkpt>
      <trkpt lat="37.06574833" lon="-3.36960833">
        <ele>3110.0</ele>
        <time>2022-11-20T13:31:14.000Z</time>
      </trkpt>
      <trkpt lat="37.06576167" lon="-3.36960833">
        <ele>3109.0</ele>
        <time>2022-11-20T13:31:15.000Z</time>
      </trkpt>
      <trkpt lat="37.06577333" lon="-3.36961">
        <ele>3109.0</ele>
        <time>2022-11-20T13:31:16.000Z</time>
      </trkpt>
      <trkpt lat="37.065785" lon="-3.36961">
        <ele>3109.0</ele>
        <time>2022-11-20T13:31:17.000Z</time>
      </trkpt>
      <trkpt lat="37.06579833" lon="-3.36961167">
        <ele>3109.0</ele>
        <time>2022-11-20T13:31:18.000Z</time>
      </trkpt>
      <trkpt lat="37.065805" lon="-3.36961333">
        <ele>3109.0</ele>
        <time>2022-11-20T13:31:19.000Z</time>
      </trkpt>
      <trkpt lat="37.06580667" lon="-3.36961667">
        <ele>3109.0</ele>
        <time>2022-11-20T13:31:20.000Z</time>
      </trkpt>
      <trkpt lat="37.06580833" lon="-3.36961833">
        <ele>3109.0</ele>
        <time>2022-11-20T13:31:21.000Z</time>
      </trkpt>
      <trkpt lat="37.06580833" lon="-3.36961833">
        <ele>3109.0</ele>
        <time>2022-11-20T13:31:22.000Z</time>
      </trkpt>
      <trkpt lat="37.06581" lon="-3.36961833">
        <ele>3109.0</ele>
        <time>2022-11-20T13:31:23.000Z</time>
      </trkpt>
      <trkpt lat="37.06581333" lon="-3.36961667">
        <ele>3109.0</ele>
        <time>2022-11-20T13:31:24.000Z</time>
      </trkpt>
      <trkpt lat="37.06582167" lon="-3.369615">
        <ele>3109.0</ele>
        <time>2022-11-20T13:31:25.000Z</time>
      </trkpt>
      <trkpt lat="37.06583" lon="-3.36961667">
        <ele>3109.0</ele>
        <time>2022-11-20T13:31:26.000Z</time>
      </trkpt>
      <trkpt lat="37.06583667" lon="-3.36961667">
        <ele>3109.0</ele>
        <time>2022-11-20T13:31:27.000Z</time>
      </trkpt>
      <trkpt lat="37.06584167" lon="-3.369615">
        <ele>3109.0</ele>
        <time>2022-11-20T13:31:28.000Z</time>
      </trkpt>
      <trkpt lat="37.06584333" lon="-3.36961167">
        <ele>3109.0</ele>
        <time>2022-11-20T13:31:29.000Z</time>
      </trkpt>
      <trkpt lat="37.06584333" lon="-3.36961167">
        <ele>3109.0</ele>
        <time>2022-11-20T13:31:30.000Z</time>
      </trkpt>
      <trkpt lat="37.06584333" lon="-3.36961167">
        <ele>3109.0</ele>
        <time>2022-11-20T13:31:31.000Z</time>
      </trkpt>
      <trkpt lat="37.06584333" lon="-3.36961167">
        <ele>3109.0</ele>
        <time>2022-11-20T13:31:32.000Z</time>
      </trkpt>
      <trkpt lat="37.065845" lon="-3.36961333">
        <ele>3109.0</ele>
        <time>2022-11-20T13:31:33.000Z</time>
      </trkpt>
      <trkpt lat="37.065845" lon="-3.369615">
        <ele>3109.0</ele>
        <time>2022-11-20T13:31:34.000Z</time>
      </trkpt>
      <trkpt lat="37.065845" lon="-3.36961333">
        <ele>3109.0</ele>
        <time>2022-11-20T13:31:35.000Z</time>
      </trkpt>
      <trkpt lat="37.06585333" lon="-3.36961">
        <ele>3109.0</ele>
        <time>2022-11-20T13:31:36.000Z</time>
      </trkpt>
      <trkpt lat="37.065865" lon="-3.36961333">
        <ele>3109.0</ele>
        <time>2022-11-20T13:31:37.000Z</time>
      </trkpt>
      <trkpt lat="37.06587" lon="-3.36962">
        <ele>3109.0</ele>
        <time>2022-11-20T13:31:38.000Z</time>
      </trkpt>
      <trkpt lat="37.06587667" lon="-3.36962333">
        <ele>3108.0</ele>
        <time>2022-11-20T13:31:39.000Z</time>
      </trkpt>
      <trkpt lat="37.06588167" lon="-3.369625">
        <ele>3108.0</ele>
        <time>2022-11-20T13:31:40.000Z</time>
      </trkpt>
      <trkpt lat="37.06589333" lon="-3.36962667">
        <ele>3108.0</ele>
        <time>2022-11-20T13:31:41.000Z</time>
      </trkpt>
      <trkpt lat="37.06590333" lon="-3.36962667">
        <ele>3108.0</ele>
        <time>2022-11-20T13:31:42.000Z</time>
      </trkpt>
      <trkpt lat="37.065915" lon="-3.36962833">
        <ele>3108.0</ele>
        <time>2022-11-20T13:31:43.000Z</time>
      </trkpt>
      <trkpt lat="37.06592667" lon="-3.36962833">
        <ele>3108.0</ele>
        <time>2022-11-20T13:31:44.000Z</time>
      </trkpt>
      <trkpt lat="37.06593833" lon="-3.36962833">
        <ele>3108.0</ele>
        <time>2022-11-20T13:31:45.000Z</time>
      </trkpt>
      <trkpt lat="37.06595" lon="-3.36962833">
        <ele>3108.0</ele>
        <time>2022-11-20T13:31:46.000Z</time>
      </trkpt>
      <trkpt lat="37.06596167" lon="-3.36962833">
        <ele>3108.0</ele>
        <time>2022-11-20T13:31:47.000Z</time>
      </trkpt>
      <trkpt lat="37.06597333" lon="-3.36962833">
        <ele>3108.0</ele>
        <time>2022-11-20T13:31:48.000Z</time>
      </trkpt>
      <trkpt lat="37.065985" lon="-3.36962833">
        <ele>3107.0</ele>
        <time>2022-11-20T13:31:49.000Z</time>
      </trkpt>
      <trkpt lat="37.06599667" lon="-3.36962833">
        <ele>3107.0</ele>
        <time>2022-11-20T13:31:50.000Z</time>
      </trkpt>
      <trkpt lat="37.06600667" lon="-3.36963">
        <ele>3107.0</ele>
        <time>2022-11-20T13:31:51.000Z</time>
      </trkpt>
      <trkpt lat="37.06601833" lon="-3.36963167">
        <ele>3107.0</ele>
        <time>2022-11-20T13:31:52.000Z</time>
      </trkpt>
      <trkpt lat="37.06603" lon="-3.36963333">
        <ele>3107.0</ele>
        <time>2022-11-20T13:31:53.000Z</time>
      </trkpt>
      <trkpt lat="37.06604333" lon="-3.36963167">
        <ele>3107.0</ele>
        <time>2022-11-20T13:31:54.000Z</time>
      </trkpt>
      <trkpt lat="37.06605667" lon="-3.36963167">
        <ele>3107.0</ele>
        <time>2022-11-20T13:31:55.000Z</time>
      </trkpt>
      <trkpt lat="37.06606833" lon="-3.36963167">
        <ele>3107.0</ele>
        <time>2022-11-20T13:31:56.000Z</time>
      </trkpt>
      <trkpt lat="37.06608167" lon="-3.36963333">
        <ele>3106.0</ele>
        <time>2022-11-20T13:31:57.000Z</time>
      </trkpt>
      <trkpt lat="37.066095" lon="-3.369635">
        <ele>3106.0</ele>
        <time>2022-11-20T13:31:58.000Z</time>
      </trkpt>
      <trkpt lat="37.06610667" lon="-3.36963667">
        <ele>3106.0</ele>
        <time>2022-11-20T13:31:59.000Z</time>
      </trkpt>
      <trkpt lat="37.06611833" lon="-3.36963833">
        <ele>3106.0</ele>
        <time>2022-11-20T13:32:00.000Z</time>
      </trkpt>
      <trkpt lat="37.06613" lon="-3.36964167">
        <ele>3106.0</ele>
        <time>2022-11-20T13:32:01.000Z</time>
      </trkpt>
      <trkpt lat="37.06614167" lon="-3.36964333">
        <ele>3106.0</ele>
        <time>2022-11-20T13:32:02.000Z</time>
      </trkpt>
      <trkpt lat="37.066155" lon="-3.369645">
        <ele>3106.0</ele>
        <time>2022-11-20T13:32:03.000Z</time>
      </trkpt>
      <trkpt lat="37.06616667" lon="-3.36964667">
        <ele>3106.0</ele>
        <time>2022-11-20T13:32:04.000Z</time>
      </trkpt>
      <trkpt lat="37.06617833" lon="-3.36964833">
        <ele>3105.0</ele>
        <time>2022-11-20T13:32:05.000Z</time>
      </trkpt>
      <trkpt lat="37.06619167" lon="-3.36965167">
        <ele>3105.0</ele>
        <time>2022-11-20T13:32:06.000Z</time>
      </trkpt>
      <trkpt lat="37.06620333" lon="-3.36965833">
        <ele>3105.0</ele>
        <time>2022-11-20T13:32:07.000Z</time>
      </trkpt>
      <trkpt lat="37.066215" lon="-3.36966667">
        <ele>3105.0</ele>
        <time>2022-11-20T13:32:08.000Z</time>
      </trkpt>
      <trkpt lat="37.066225" lon="-3.369675">
        <ele>3105.0</ele>
        <time>2022-11-20T13:32:09.000Z</time>
      </trkpt>
      <trkpt lat="37.066235" lon="-3.36968667">
        <ele>3104.0</ele>
        <time>2022-11-20T13:32:10.000Z</time>
      </trkpt>
      <trkpt lat="37.066245" lon="-3.36969833">
        <ele>3104.0</ele>
        <time>2022-11-20T13:32:11.000Z</time>
      </trkpt>
      <trkpt lat="37.06625333" lon="-3.36970833">
        <ele>3104.0</ele>
        <time>2022-11-20T13:32:12.000Z</time>
      </trkpt>
      <trkpt lat="37.06626167" lon="-3.36971833">
        <ele>3104.0</ele>
        <time>2022-11-20T13:32:13.000Z</time>
      </trkpt>
      <trkpt lat="37.06627167" lon="-3.36972833">
        <ele>3104.0</ele>
        <time>2022-11-20T13:32:14.000Z</time>
      </trkpt>
      <trkpt lat="37.06627833" lon="-3.36974333">
        <ele>3104.0</ele>
        <time>2022-11-20T13:32:15.000Z</time>
      </trkpt>
      <trkpt lat="37.06628167" lon="-3.36976">
        <ele>3103.0</ele>
        <time>2022-11-20T13:32:16.000Z</time>
      </trkpt>
      <trkpt lat="37.06628333" lon="-3.369775">
        <ele>3103.0</ele>
        <time>2022-11-20T13:32:17.000Z</time>
      </trkpt>
      <trkpt lat="37.066285" lon="-3.36979167">
        <ele>3103.0</ele>
        <time>2022-11-20T13:32:18.000Z</time>
      </trkpt>
      <trkpt lat="37.066285" lon="-3.36980667">
        <ele>3103.0</ele>
        <time>2022-11-20T13:32:19.000Z</time>
      </trkpt>
      <trkpt lat="37.066285" lon="-3.36982167">
        <ele>3102.0</ele>
        <time>2022-11-20T13:32:20.000Z</time>
      </trkpt>
      <trkpt lat="37.06628333" lon="-3.36983833">
        <ele>3102.0</ele>
        <time>2022-11-20T13:32:21.000Z</time>
      </trkpt>
      <trkpt lat="37.06628167" lon="-3.36985333">
        <ele>3102.0</ele>
        <time>2022-11-20T13:32:22.000Z</time>
      </trkpt>
      <trkpt lat="37.06627667" lon="-3.36986667">
        <ele>3102.0</ele>
        <time>2022-11-20T13:32:23.000Z</time>
      </trkpt>
      <trkpt lat="37.06627167" lon="-3.36988">
        <ele>3102.0</ele>
        <time>2022-11-20T13:32:24.000Z</time>
      </trkpt>
      <trkpt lat="37.06626667" lon="-3.36989333">
        <ele>3101.0</ele>
        <time>2022-11-20T13:32:25.000Z</time>
      </trkpt>
      <trkpt lat="37.06626" lon="-3.369905">
        <ele>3101.0</ele>
        <time>2022-11-20T13:32:26.000Z</time>
      </trkpt>
      <trkpt lat="37.06625333" lon="-3.36991833">
        <ele>3101.0</ele>
        <time>2022-11-20T13:32:27.000Z</time>
      </trkpt>
      <trkpt lat="37.06624833" lon="-3.36993">
        <ele>3101.0</ele>
        <time>2022-11-20T13:32:28.000Z</time>
      </trkpt>
      <trkpt lat="37.06624333" lon="-3.36994167">
        <ele>3101.0</ele>
        <time>2022-11-20T13:32:29.000Z</time>
      </trkpt>
      <trkpt lat="37.066235" lon="-3.36995333">
        <ele>3101.0</ele>
        <time>2022-11-20T13:32:30.000Z</time>
      </trkpt>
      <trkpt lat="37.06623" lon="-3.369965">
        <ele>3101.0</ele>
        <time>2022-11-20T13:32:31.000Z</time>
      </trkpt>
      <trkpt lat="37.06622333" lon="-3.36997833">
        <ele>3101.0</ele>
        <time>2022-11-20T13:32:32.000Z</time>
      </trkpt>
      <trkpt lat="37.06621667" lon="-3.36999167">
        <ele>3101.0</ele>
        <time>2022-11-20T13:32:33.000Z</time>
      </trkpt>
      <trkpt lat="37.06621167" lon="-3.370005">
        <ele>3101.0</ele>
        <time>2022-11-20T13:32:34.000Z</time>
      </trkpt>
      <trkpt lat="37.06620667" lon="-3.37001667">
        <ele>3101.0</ele>
        <time>2022-11-20T13:32:35.000Z</time>
      </trkpt>
      <trkpt lat="37.06620167" lon="-3.37003167">
        <ele>3100.0</ele>
        <time>2022-11-20T13:32:36.000Z</time>
      </trkpt>
      <trkpt lat="37.06619833" lon="-3.370045">
        <ele>3100.0</ele>
        <time>2022-11-20T13:32:37.000Z</time>
      </trkpt>
      <trkpt lat="37.06619333" lon="-3.37005667">
        <ele>3100.0</ele>
        <time>2022-11-20T13:32:38.000Z</time>
      </trkpt>
      <trkpt lat="37.06618667" lon="-3.37007">
        <ele>3100.0</ele>
        <time>2022-11-20T13:32:39.000Z</time>
      </trkpt>
      <trkpt lat="37.06618" lon="-3.37008">
        <ele>3100.0</ele>
        <time>2022-11-20T13:32:40.000Z</time>
      </trkpt>
      <trkpt lat="37.06617" lon="-3.37009">
        <ele>3100.0</ele>
        <time>2022-11-20T13:32:41.000Z</time>
      </trkpt>
      <trkpt lat="37.06616333" lon="-3.37009667">
        <ele>3100.0</ele>
        <time>2022-11-20T13:32:42.000Z</time>
      </trkpt>
      <trkpt lat="37.06615667" lon="-3.37009667">
        <ele>3100.0</ele>
        <time>2022-11-20T13:32:43.000Z</time>
      </trkpt>
      <trkpt lat="37.06615667" lon="-3.37009833">
        <ele>3100.0</ele>
        <time>2022-11-20T13:32:44.000Z</time>
      </trkpt>
      <trkpt lat="37.06615667" lon="-3.37009833">
        <ele>3100.0</ele>
        <time>2022-11-20T13:32:45.000Z</time>
      </trkpt>
      <trkpt lat="37.06615667" lon="-3.37009833">
        <ele>3100.0</ele>
        <time>2022-11-20T13:32:46.000Z</time>
      </trkpt>
      <trkpt lat="37.06615667" lon="-3.3701">
        <ele>3100.0</ele>
        <time>2022-11-20T13:32:47.000Z</time>
      </trkpt>
      <trkpt lat="37.066155" lon="-3.370105">
        <ele>3100.0</ele>
        <time>2022-11-20T13:32:48.000Z</time>
      </trkpt>
      <trkpt lat="37.06614833" lon="-3.37011667">
        <ele>3100.0</ele>
        <time>2022-11-20T13:32:49.000Z</time>
      </trkpt>
      <trkpt lat="37.06614" lon="-3.370125">
        <ele>3100.0</ele>
        <time>2022-11-20T13:32:50.000Z</time>
      </trkpt>
      <trkpt lat="37.06613167" lon="-3.370135">
        <ele>3100.0</ele>
        <time>2022-11-20T13:32:51.000Z</time>
      </trkpt>
      <trkpt lat="37.06612333" lon="-3.37014667">
        <ele>3100.0</ele>
        <time>2022-11-20T13:32:52.000Z</time>
      </trkpt>
      <trkpt lat="37.06611667" lon="-3.37015833">
        <ele>3100.0</ele>
        <time>2022-11-20T13:32:53.000Z</time>
      </trkpt>
      <trkpt lat="37.06611" lon="-3.37017">
        <ele>3099.0</ele>
        <time>2022-11-20T13:32:54.000Z</time>
      </trkpt>
      <trkpt lat="37.06610333" lon="-3.37018167">
        <ele>3099.0</ele>
        <time>2022-11-20T13:32:55.000Z</time>
      </trkpt>
      <trkpt lat="37.06609667" lon="-3.37019333">
        <ele>3099.0</ele>
        <time>2022-11-20T13:32:56.000Z</time>
      </trkpt>
      <trkpt lat="37.06609" lon="-3.37020167">
        <ele>3099.0</ele>
        <time>2022-11-20T13:32:57.000Z</time>
      </trkpt>
      <trkpt lat="37.06608167" lon="-3.370215">
        <ele>3099.0</ele>
        <time>2022-11-20T13:32:58.000Z</time>
      </trkpt>
      <trkpt lat="37.06607333" lon="-3.37022667">
        <ele>3099.0</ele>
        <time>2022-11-20T13:32:59.000Z</time>
      </trkpt>
      <trkpt lat="37.066065" lon="-3.37024">
        <ele>3099.0</ele>
        <time>2022-11-20T13:33:00.000Z</time>
      </trkpt>
      <trkpt lat="37.066055" lon="-3.37025167">
        <ele>3099.0</ele>
        <time>2022-11-20T13:33:01.000Z</time>
      </trkpt>
      <trkpt lat="37.06604667" lon="-3.37026167">
        <ele>3099.0</ele>
        <time>2022-11-20T13:33:02.000Z</time>
      </trkpt>
      <trkpt lat="37.06603667" lon="-3.370275">
        <ele>3099.0</ele>
        <time>2022-11-20T13:33:03.000Z</time>
      </trkpt>
      <trkpt lat="37.06602667" lon="-3.370285">
        <ele>3099.0</ele>
        <time>2022-11-20T13:33:04.000Z</time>
      </trkpt>
      <trkpt lat="37.06601667" lon="-3.370295">
        <ele>3099.0</ele>
        <time>2022-11-20T13:33:05.000Z</time>
      </trkpt>
      <trkpt lat="37.06600667" lon="-3.37030667">
        <ele>3099.0</ele>
        <time>2022-11-20T13:33:06.000Z</time>
      </trkpt>
      <trkpt lat="37.06599667" lon="-3.37031667">
        <ele>3098.0</ele>
        <time>2022-11-20T13:33:07.000Z</time>
      </trkpt>
      <trkpt lat="37.065985" lon="-3.370325">
        <ele>3098.0</ele>
        <time>2022-11-20T13:33:08.000Z</time>
      </trkpt>
      <trkpt lat="37.065975" lon="-3.370335">
        <ele>3098.0</ele>
        <time>2022-11-20T13:33:09.000Z</time>
      </trkpt>
      <trkpt lat="37.06596667" lon="-3.370345">
        <ele>3098.0</ele>
        <time>2022-11-20T13:33:10.000Z</time>
      </trkpt>
      <trkpt lat="37.06595667" lon="-3.37035333">
        <ele>3098.0</ele>
        <time>2022-11-20T13:33:11.000Z</time>
      </trkpt>
      <trkpt lat="37.065945" lon="-3.37036167">
        <ele>3098.0</ele>
        <time>2022-11-20T13:33:12.000Z</time>
      </trkpt>
      <trkpt lat="37.06593333" lon="-3.37037">
        <ele>3098.0</ele>
        <time>2022-11-20T13:33:13.000Z</time>
      </trkpt>
      <trkpt lat="37.06592167" lon="-3.37037833">
        <ele>3098.0</ele>
        <time>2022-11-20T13:33:14.000Z</time>
      </trkpt>
      <trkpt lat="37.06591167" lon="-3.37038667">
        <ele>3098.0</ele>
        <time>2022-11-20T13:33:15.000Z</time>
      </trkpt>
      <trkpt lat="37.0659" lon="-3.370395">
        <ele>3097.0</ele>
        <time>2022-11-20T13:33:16.000Z</time>
      </trkpt>
      <trkpt lat="37.06588833" lon="-3.37040333">
        <ele>3097.0</ele>
        <time>2022-11-20T13:33:17.000Z</time>
      </trkpt>
      <trkpt lat="37.065875" lon="-3.37041167">
        <ele>3097.0</ele>
        <time>2022-11-20T13:33:18.000Z</time>
      </trkpt>
      <trkpt lat="37.06586167" lon="-3.37041667">
        <ele>3097.0</ele>
        <time>2022-11-20T13:33:19.000Z</time>
      </trkpt>
      <trkpt lat="37.06585167" lon="-3.370425">
        <ele>3097.0</ele>
        <time>2022-11-20T13:33:20.000Z</time>
      </trkpt>
      <trkpt lat="37.06584167" lon="-3.37043333">
        <ele>3097.0</ele>
        <time>2022-11-20T13:33:21.000Z</time>
      </trkpt>
      <trkpt lat="37.06583167" lon="-3.37044167">
        <ele>3097.0</ele>
        <time>2022-11-20T13:33:22.000Z</time>
      </trkpt>
      <trkpt lat="37.06582" lon="-3.37045167">
        <ele>3097.0</ele>
        <time>2022-11-20T13:33:23.000Z</time>
      </trkpt>
      <trkpt lat="37.06581" lon="-3.37046167">
        <ele>3097.0</ele>
        <time>2022-11-20T13:33:24.000Z</time>
      </trkpt>
      <trkpt lat="37.06580167" lon="-3.37047333">
        <ele>3096.0</ele>
        <time>2022-11-20T13:33:25.000Z</time>
      </trkpt>
      <trkpt lat="37.06579167" lon="-3.37048333">
        <ele>3096.0</ele>
        <time>2022-11-20T13:33:26.000Z</time>
      </trkpt>
      <trkpt lat="37.06578333" lon="-3.37049667">
        <ele>3096.0</ele>
        <time>2022-11-20T13:33:27.000Z</time>
      </trkpt>
      <trkpt lat="37.06577667" lon="-3.37050833">
        <ele>3096.0</ele>
        <time>2022-11-20T13:33:28.000Z</time>
      </trkpt>
      <trkpt lat="37.06576833" lon="-3.37052">
        <ele>3096.0</ele>
        <time>2022-11-20T13:33:29.000Z</time>
      </trkpt>
      <trkpt lat="37.06576333" lon="-3.37052667">
        <ele>3096.0</ele>
        <time>2022-11-20T13:33:30.000Z</time>
      </trkpt>
      <trkpt lat="37.06575833" lon="-3.370525">
        <ele>3096.0</ele>
        <time>2022-11-20T13:33:31.000Z</time>
      </trkpt>
      <trkpt lat="37.06575833" lon="-3.37052667">
        <ele>3096.0</ele>
        <time>2022-11-20T13:33:32.000Z</time>
      </trkpt>
      <trkpt lat="37.06575833" lon="-3.37052667">
        <ele>3096.0</ele>
        <time>2022-11-20T13:33:33.000Z</time>
      </trkpt>
      <trkpt lat="37.06575833" lon="-3.37052833">
        <ele>3096.0</ele>
        <time>2022-11-20T13:33:34.000Z</time>
      </trkpt>
      <trkpt lat="37.06575833" lon="-3.37052833">
        <ele>3096.0</ele>
        <time>2022-11-20T13:33:35.000Z</time>
      </trkpt>
      <trkpt lat="37.06575833" lon="-3.37053">
        <ele>3096.0</ele>
        <time>2022-11-20T13:33:36.000Z</time>
      </trkpt>
      <trkpt lat="37.06576" lon="-3.37053">
        <ele>3096.0</ele>
        <time>2022-11-20T13:33:37.000Z</time>
      </trkpt>
      <trkpt lat="37.06575667" lon="-3.37054">
        <ele>3096.0</ele>
        <time>2022-11-20T13:33:38.000Z</time>
      </trkpt>
      <trkpt lat="37.06575" lon="-3.37055">
        <ele>3096.0</ele>
        <time>2022-11-20T13:33:39.000Z</time>
      </trkpt>
      <trkpt lat="37.06574333" lon="-3.37056167">
        <ele>3096.0</ele>
        <time>2022-11-20T13:33:40.000Z</time>
      </trkpt>
      <trkpt lat="37.06573667" lon="-3.37057333">
        <ele>3096.0</ele>
        <time>2022-11-20T13:33:41.000Z</time>
      </trkpt>
      <trkpt lat="37.06573167" lon="-3.37058667">
        <ele>3096.0</ele>
        <time>2022-11-20T13:33:42.000Z</time>
      </trkpt>
      <trkpt lat="37.06572833" lon="-3.37059833">
        <ele>3096.0</ele>
        <time>2022-11-20T13:33:43.000Z</time>
      </trkpt>
      <trkpt lat="37.06572333" lon="-3.37061">
        <ele>3096.0</ele>
        <time>2022-11-20T13:33:44.000Z</time>
      </trkpt>
      <trkpt lat="37.06571833" lon="-3.37062167">
        <ele>3096.0</ele>
        <time>2022-11-20T13:33:45.000Z</time>
      </trkpt>
      <trkpt lat="37.065715" lon="-3.37063333">
        <ele>3095.0</ele>
        <time>2022-11-20T13:33:46.000Z</time>
      </trkpt>
      <trkpt lat="37.06571" lon="-3.37063833">
        <ele>3095.0</ele>
        <time>2022-11-20T13:33:47.000Z</time>
      </trkpt>
      <trkpt lat="37.06570833" lon="-3.37064167">
        <ele>3095.0</ele>
        <time>2022-11-20T13:33:48.000Z</time>
      </trkpt>
      <trkpt lat="37.06570833" lon="-3.370645">
        <ele>3095.0</ele>
        <time>2022-11-20T13:33:49.000Z</time>
      </trkpt>
      <trkpt lat="37.06571" lon="-3.37065333">
        <ele>3095.0</ele>
        <time>2022-11-20T13:33:50.000Z</time>
      </trkpt>
      <trkpt lat="37.06571" lon="-3.37066833">
        <ele>3095.0</ele>
        <time>2022-11-20T13:33:51.000Z</time>
      </trkpt>
      <trkpt lat="37.06571" lon="-3.37068333">
        <ele>3095.0</ele>
        <time>2022-11-20T13:33:52.000Z</time>
      </trkpt>
      <trkpt lat="37.06570833" lon="-3.37069833">
        <ele>3095.0</ele>
        <time>2022-11-20T13:33:53.000Z</time>
      </trkpt>
      <trkpt lat="37.06570833" lon="-3.370715">
        <ele>3095.0</ele>
        <time>2022-11-20T13:33:54.000Z</time>
      </trkpt>
      <trkpt lat="37.06570833" lon="-3.37073">
        <ele>3095.0</ele>
        <time>2022-11-20T13:33:55.000Z</time>
      </trkpt>
      <trkpt lat="37.06571" lon="-3.37074667">
        <ele>3095.0</ele>
        <time>2022-11-20T13:33:56.000Z</time>
      </trkpt>
      <trkpt lat="37.06571167" lon="-3.37076167">
        <ele>3095.0</ele>
        <time>2022-11-20T13:33:57.000Z</time>
      </trkpt>
      <trkpt lat="37.06571333" lon="-3.37077833">
        <ele>3095.0</ele>
        <time>2022-11-20T13:33:58.000Z</time>
      </trkpt>
      <trkpt lat="37.065715" lon="-3.370795">
        <ele>3095.0</ele>
        <time>2022-11-20T13:33:59.000Z</time>
      </trkpt>
      <trkpt lat="37.06571833" lon="-3.37081">
        <ele>3095.0</ele>
        <time>2022-11-20T13:34:00.000Z</time>
      </trkpt>
      <trkpt lat="37.06572" lon="-3.370825">
        <ele>3095.0</ele>
        <time>2022-11-20T13:34:01.000Z</time>
      </trkpt>
      <trkpt lat="37.06572" lon="-3.37083833">
        <ele>3095.0</ele>
        <time>2022-11-20T13:34:02.000Z</time>
      </trkpt>
      <trkpt lat="37.06572" lon="-3.37084833">
        <ele>3095.0</ele>
        <time>2022-11-20T13:34:03.000Z</time>
      </trkpt>
      <trkpt lat="37.065715" lon="-3.370855">
        <ele>3095.0</ele>
        <time>2022-11-20T13:34:04.000Z</time>
      </trkpt>
      <trkpt lat="37.06571333" lon="-3.37085833">
        <ele>3095.0</ele>
        <time>2022-11-20T13:34:05.000Z</time>
      </trkpt>
      <trkpt lat="37.065715" lon="-3.37086">
        <ele>3095.0</ele>
        <time>2022-11-20T13:34:06.000Z</time>
      </trkpt>
      <trkpt lat="37.06571833" lon="-3.37086667">
        <ele>3095.0</ele>
        <time>2022-11-20T13:34:07.000Z</time>
      </trkpt>
      <trkpt lat="37.06571667" lon="-3.37087667">
        <ele>3094.0</ele>
        <time>2022-11-20T13:34:08.000Z</time>
      </trkpt>
      <trkpt lat="37.06571333" lon="-3.37088667">
        <ele>3094.0</ele>
        <time>2022-11-20T13:34:09.000Z</time>
      </trkpt>
      <trkpt lat="37.06571167" lon="-3.3709">
        <ele>3094.0</ele>
        <time>2022-11-20T13:34:10.000Z</time>
      </trkpt>
      <trkpt lat="37.06571167" lon="-3.37091333">
        <ele>3094.0</ele>
        <time>2022-11-20T13:34:11.000Z</time>
      </trkpt>
      <trkpt lat="37.06571" lon="-3.37092833">
        <ele>3094.0</ele>
        <time>2022-11-20T13:34:12.000Z</time>
      </trkpt>
      <trkpt lat="37.065705" lon="-3.370945">
        <ele>3094.0</ele>
        <time>2022-11-20T13:34:13.000Z</time>
      </trkpt>
      <trkpt lat="37.06569833" lon="-3.37095667">
        <ele>3094.0</ele>
        <time>2022-11-20T13:34:14.000Z</time>
      </trkpt>
      <trkpt lat="37.06568833" lon="-3.37096667">
        <ele>3093.0</ele>
        <time>2022-11-20T13:34:15.000Z</time>
      </trkpt>
      <trkpt lat="37.06568" lon="-3.37096833">
        <ele>3093.0</ele>
        <time>2022-11-20T13:34:16.000Z</time>
      </trkpt>
      <trkpt lat="37.06567333" lon="-3.37097333">
        <ele>3093.0</ele>
        <time>2022-11-20T13:34:17.000Z</time>
      </trkpt>
      <trkpt lat="37.065665" lon="-3.37098">
        <ele>3093.0</ele>
        <time>2022-11-20T13:34:18.000Z</time>
      </trkpt>
      <trkpt lat="37.06565833" lon="-3.37099">
        <ele>3093.0</ele>
        <time>2022-11-20T13:34:19.000Z</time>
      </trkpt>
      <trkpt lat="37.06565167" lon="-3.37100167">
        <ele>3093.0</ele>
        <time>2022-11-20T13:34:20.000Z</time>
      </trkpt>
      <trkpt lat="37.065645" lon="-3.37101">
        <ele>3093.0</ele>
        <time>2022-11-20T13:34:21.000Z</time>
      </trkpt>
      <trkpt lat="37.06564167" lon="-3.37101167">
        <ele>3093.0</ele>
        <time>2022-11-20T13:34:22.000Z</time>
      </trkpt>
      <trkpt lat="37.06564167" lon="-3.37101167">
        <ele>3093.0</ele>
        <time>2022-11-20T13:34:23.000Z</time>
      </trkpt>
      <trkpt lat="37.06564" lon="-3.371015">
        <ele>3093.0</ele>
        <time>2022-11-20T13:34:24.000Z</time>
      </trkpt>
      <trkpt lat="37.06563167" lon="-3.37102333">
        <ele>3093.0</ele>
        <time>2022-11-20T13:34:25.000Z</time>
      </trkpt>
      <trkpt lat="37.06562333" lon="-3.37103">
        <ele>3093.0</ele>
        <time>2022-11-20T13:34:26.000Z</time>
      </trkpt>
      <trkpt lat="37.06561" lon="-3.37103833">
        <ele>3092.0</ele>
        <time>2022-11-20T13:34:27.000Z</time>
      </trkpt>
      <trkpt lat="37.0656" lon="-3.37104667">
        <ele>3092.0</ele>
        <time>2022-11-20T13:34:28.000Z</time>
      </trkpt>
      <trkpt lat="37.06559167" lon="-3.37105167">
        <ele>3092.0</ele>
        <time>2022-11-20T13:34:29.000Z</time>
      </trkpt>
      <trkpt lat="37.06558167" lon="-3.37106167">
        <ele>3092.0</ele>
        <time>2022-11-20T13:34:30.000Z</time>
      </trkpt>
      <trkpt lat="37.06557" lon="-3.37107">
        <ele>3092.0</ele>
        <time>2022-11-20T13:34:31.000Z</time>
      </trkpt>
      <trkpt lat="37.06556" lon="-3.37107833">
        <ele>3092.0</ele>
        <time>2022-11-20T13:34:32.000Z</time>
      </trkpt>
      <trkpt lat="37.06555833" lon="-3.37108">
        <ele>3092.0</ele>
        <time>2022-11-20T13:34:33.000Z</time>
      </trkpt>
      <trkpt lat="37.065555" lon="-3.37108167">
        <ele>3092.0</ele>
        <time>2022-11-20T13:34:34.000Z</time>
      </trkpt>
      <trkpt lat="37.06555" lon="-3.37108667">
        <ele>3092.0</ele>
        <time>2022-11-20T13:34:35.000Z</time>
      </trkpt>
      <trkpt lat="37.06554" lon="-3.37109">
        <ele>3092.0</ele>
        <time>2022-11-20T13:34:36.000Z</time>
      </trkpt>
      <trkpt lat="37.06552833" lon="-3.37109333">
        <ele>3092.0</ele>
        <time>2022-11-20T13:34:37.000Z</time>
      </trkpt>
      <trkpt lat="37.06551833" lon="-3.37109667">
        <ele>3092.0</ele>
        <time>2022-11-20T13:34:38.000Z</time>
      </trkpt>
      <trkpt lat="37.06551" lon="-3.3711">
        <ele>3092.0</ele>
        <time>2022-11-20T13:34:39.000Z</time>
      </trkpt>
      <trkpt lat="37.065505" lon="-3.37110167">
        <ele>3092.0</ele>
        <time>2022-11-20T13:34:40.000Z</time>
      </trkpt>
      <trkpt lat="37.065505" lon="-3.37110167">
        <ele>3092.0</ele>
        <time>2022-11-20T13:34:41.000Z</time>
      </trkpt>
      <trkpt lat="37.065505" lon="-3.37110167">
        <ele>3092.0</ele>
        <time>2022-11-20T13:34:42.000Z</time>
      </trkpt>
      <trkpt lat="37.06550167" lon="-3.371105">
        <ele>3092.0</ele>
        <time>2022-11-20T13:34:43.000Z</time>
      </trkpt>
      <trkpt lat="37.06550167" lon="-3.37110333">
        <ele>3092.0</ele>
        <time>2022-11-20T13:34:44.000Z</time>
      </trkpt>
      <trkpt lat="37.0655" lon="-3.37110333">
        <ele>3092.0</ele>
        <time>2022-11-20T13:34:45.000Z</time>
      </trkpt>
      <trkpt lat="37.0655" lon="-3.37110333">
        <ele>3092.0</ele>
        <time>2022-11-20T13:34:46.000Z</time>
      </trkpt>
      <trkpt lat="37.06550167" lon="-3.371105">
        <ele>3092.0</ele>
        <time>2022-11-20T13:34:47.000Z</time>
      </trkpt>
      <trkpt lat="37.06550167" lon="-3.37110333">
        <ele>3092.0</ele>
        <time>2022-11-20T13:34:48.000Z</time>
      </trkpt>
      <trkpt lat="37.06550167" lon="-3.371105">
        <ele>3092.0</ele>
        <time>2022-11-20T13:34:49.000Z</time>
      </trkpt>
      <trkpt lat="37.06550333" lon="-3.37111167">
        <ele>3092.0</ele>
        <time>2022-11-20T13:34:50.000Z</time>
      </trkpt>
      <trkpt lat="37.06550667" lon="-3.37112333">
        <ele>3092.0</ele>
        <time>2022-11-20T13:34:51.000Z</time>
      </trkpt>
      <trkpt lat="37.06550333" lon="-3.37113167">
        <ele>3092.0</ele>
        <time>2022-11-20T13:34:52.000Z</time>
      </trkpt>
      <trkpt lat="37.06549833" lon="-3.37113833">
        <ele>3092.0</ele>
        <time>2022-11-20T13:34:53.000Z</time>
      </trkpt>
      <trkpt lat="37.06549333" lon="-3.371145">
        <ele>3091.0</ele>
        <time>2022-11-20T13:34:54.000Z</time>
      </trkpt>
      <trkpt lat="37.06548833" lon="-3.37115">
        <ele>3091.0</ele>
        <time>2022-11-20T13:34:55.000Z</time>
      </trkpt>
      <trkpt lat="37.06548833" lon="-3.37115667">
        <ele>3091.0</ele>
        <time>2022-11-20T13:34:56.000Z</time>
      </trkpt>
      <trkpt lat="37.06549167" lon="-3.37116167">
        <ele>3091.0</ele>
        <time>2022-11-20T13:34:57.000Z</time>
      </trkpt>
      <trkpt lat="37.06549833" lon="-3.37116667">
        <ele>3090.0</ele>
        <time>2022-11-20T13:34:58.000Z</time>
      </trkpt>
      <trkpt lat="37.06550667" lon="-3.37117167">
        <ele>3090.0</ele>
        <time>2022-11-20T13:34:59.000Z</time>
      </trkpt>
      <trkpt lat="37.06551833" lon="-3.371175">
        <ele>3090.0</ele>
        <time>2022-11-20T13:35:00.000Z</time>
      </trkpt>
      <trkpt lat="37.06552833" lon="-3.37117833">
        <ele>3090.0</ele>
        <time>2022-11-20T13:35:01.000Z</time>
      </trkpt>
      <trkpt lat="37.06553833" lon="-3.37118333">
        <ele>3090.0</ele>
        <time>2022-11-20T13:35:02.000Z</time>
      </trkpt>
      <trkpt lat="37.06554667" lon="-3.37119">
        <ele>3089.0</ele>
        <time>2022-11-20T13:35:03.000Z</time>
      </trkpt>
      <trkpt lat="37.06555667" lon="-3.37119833">
        <ele>3089.0</ele>
        <time>2022-11-20T13:35:04.000Z</time>
      </trkpt>
      <trkpt lat="37.06556667" lon="-3.37120667">
        <ele>3089.0</ele>
        <time>2022-11-20T13:35:05.000Z</time>
      </trkpt>
      <trkpt lat="37.06557833" lon="-3.371215">
        <ele>3089.0</ele>
        <time>2022-11-20T13:35:06.000Z</time>
      </trkpt>
      <trkpt lat="37.06559" lon="-3.37122167">
        <ele>3088.0</ele>
        <time>2022-11-20T13:35:07.000Z</time>
      </trkpt>
      <trkpt lat="37.06559833" lon="-3.37123">
        <ele>3088.0</ele>
        <time>2022-11-20T13:35:08.000Z</time>
      </trkpt>
      <trkpt lat="37.06560833" lon="-3.37123833">
        <ele>3088.0</ele>
        <time>2022-11-20T13:35:09.000Z</time>
      </trkpt>
      <trkpt lat="37.06561833" lon="-3.37124667">
        <ele>3088.0</ele>
        <time>2022-11-20T13:35:10.000Z</time>
      </trkpt>
      <trkpt lat="37.06562833" lon="-3.37125333">
        <ele>3088.0</ele>
        <time>2022-11-20T13:35:11.000Z</time>
      </trkpt>
      <trkpt lat="37.06563667" lon="-3.37126">
        <ele>3087.0</ele>
        <time>2022-11-20T13:35:12.000Z</time>
      </trkpt>
      <trkpt lat="37.065645" lon="-3.37126833">
        <ele>3087.0</ele>
        <time>2022-11-20T13:35:13.000Z</time>
      </trkpt>
      <trkpt lat="37.06565667" lon="-3.37127667">
        <ele>3087.0</ele>
        <time>2022-11-20T13:35:14.000Z</time>
      </trkpt>
      <trkpt lat="37.06566667" lon="-3.37128333">
        <ele>3087.0</ele>
        <time>2022-11-20T13:35:15.000Z</time>
      </trkpt>
      <trkpt lat="37.06567667" lon="-3.37129">
        <ele>3087.0</ele>
        <time>2022-11-20T13:35:16.000Z</time>
      </trkpt>
      <trkpt lat="37.065685" lon="-3.37129667">
        <ele>3086.0</ele>
        <time>2022-11-20T13:35:17.000Z</time>
      </trkpt>
      <trkpt lat="37.065695" lon="-3.37130167">
        <ele>3086.0</ele>
        <time>2022-11-20T13:35:18.000Z</time>
      </trkpt>
      <trkpt lat="37.06570333" lon="-3.37130833">
        <ele>3086.0</ele>
        <time>2022-11-20T13:35:19.000Z</time>
      </trkpt>
      <trkpt lat="37.06571333" lon="-3.37131833">
        <ele>3086.0</ele>
        <time>2022-11-20T13:35:20.000Z</time>
      </trkpt>
      <trkpt lat="37.06572167" lon="-3.371325">
        <ele>3086.0</ele>
        <time>2022-11-20T13:35:21.000Z</time>
      </trkpt>
      <trkpt lat="37.06573333" lon="-3.37133167">
        <ele>3086.0</ele>
        <time>2022-11-20T13:35:22.000Z</time>
      </trkpt>
      <trkpt lat="37.065745" lon="-3.37134">
        <ele>3085.0</ele>
        <time>2022-11-20T13:35:23.000Z</time>
      </trkpt>
      <trkpt lat="37.06575667" lon="-3.37134667">
        <ele>3085.0</ele>
        <time>2022-11-20T13:35:24.000Z</time>
      </trkpt>
      <trkpt lat="37.06576833" lon="-3.37135">
        <ele>3085.0</ele>
        <time>2022-11-20T13:35:25.000Z</time>
      </trkpt>
      <trkpt lat="37.06578" lon="-3.37135667">
        <ele>3085.0</ele>
        <time>2022-11-20T13:35:26.000Z</time>
      </trkpt>
      <trkpt lat="37.06579167" lon="-3.37136167">
        <ele>3085.0</ele>
        <time>2022-11-20T13:35:27.000Z</time>
      </trkpt>
      <trkpt lat="37.06580333" lon="-3.37136667">
        <ele>3085.0</ele>
        <time>2022-11-20T13:35:28.000Z</time>
      </trkpt>
      <trkpt lat="37.06581667" lon="-3.371375">
        <ele>3085.0</ele>
        <time>2022-11-20T13:35:29.000Z</time>
      </trkpt>
      <trkpt lat="37.06582833" lon="-3.37138167">
        <ele>3084.0</ele>
        <time>2022-11-20T13:35:30.000Z</time>
      </trkpt>
      <trkpt lat="37.06584" lon="-3.37138667">
        <ele>3084.0</ele>
        <time>2022-11-20T13:35:31.000Z</time>
      </trkpt>
      <trkpt lat="37.06585333" lon="-3.37139167">
        <ele>3084.0</ele>
        <time>2022-11-20T13:35:32.000Z</time>
      </trkpt>
      <trkpt lat="37.06586333" lon="-3.37139667">
        <ele>3084.0</ele>
        <time>2022-11-20T13:35:33.000Z</time>
      </trkpt>
      <trkpt lat="37.06587333" lon="-3.37140167">
        <ele>3084.0</ele>
        <time>2022-11-20T13:35:34.000Z</time>
      </trkpt>
      <trkpt lat="37.065885" lon="-3.37140167">
        <ele>3083.0</ele>
        <time>2022-11-20T13:35:35.000Z</time>
      </trkpt>
      <trkpt lat="37.06589667" lon="-3.37140167">
        <ele>3083.0</ele>
        <time>2022-11-20T13:35:36.000Z</time>
      </trkpt>
      <trkpt lat="37.06591" lon="-3.371405">
        <ele>3083.0</ele>
        <time>2022-11-20T13:35:37.000Z</time>
      </trkpt>
      <trkpt lat="37.06592333" lon="-3.37141167">
        <ele>3083.0</ele>
        <time>2022-11-20T13:35:38.000Z</time>
      </trkpt>
      <trkpt lat="37.065935" lon="-3.37141833">
        <ele>3083.0</ele>
        <time>2022-11-20T13:35:39.000Z</time>
      </trkpt>
      <trkpt lat="37.065945" lon="-3.37142333">
        <ele>3082.0</ele>
        <time>2022-11-20T13:35:40.000Z</time>
      </trkpt>
      <trkpt lat="37.06595667" lon="-3.37142667">
        <ele>3082.0</ele>
        <time>2022-11-20T13:35:41.000Z</time>
      </trkpt>
      <trkpt lat="37.06596833" lon="-3.37143">
        <ele>3082.0</ele>
        <time>2022-11-20T13:35:42.000Z</time>
      </trkpt>
      <trkpt lat="37.06598167" lon="-3.371435">
        <ele>3081.0</ele>
        <time>2022-11-20T13:35:43.000Z</time>
      </trkpt>
      <trkpt lat="37.065995" lon="-3.37144">
        <ele>3081.0</ele>
        <time>2022-11-20T13:35:44.000Z</time>
      </trkpt>
      <trkpt lat="37.06600667" lon="-3.37144333">
        <ele>3081.0</ele>
        <time>2022-11-20T13:35:45.000Z</time>
      </trkpt>
      <trkpt lat="37.06602167" lon="-3.37144667">
        <ele>3081.0</ele>
        <time>2022-11-20T13:35:46.000Z</time>
      </trkpt>
      <trkpt lat="37.066035" lon="-3.37144833">
        <ele>3081.0</ele>
        <time>2022-11-20T13:35:47.000Z</time>
      </trkpt>
      <trkpt lat="37.06604667" lon="-3.37145">
        <ele>3080.0</ele>
        <time>2022-11-20T13:35:48.000Z</time>
      </trkpt>
      <trkpt lat="37.06605667" lon="-3.37144833">
        <ele>3080.0</ele>
        <time>2022-11-20T13:35:49.000Z</time>
      </trkpt>
      <trkpt lat="37.06606833" lon="-3.37144667">
        <ele>3080.0</ele>
        <time>2022-11-20T13:35:50.000Z</time>
      </trkpt>
      <trkpt lat="37.06608" lon="-3.37144333">
        <ele>3080.0</ele>
        <time>2022-11-20T13:35:51.000Z</time>
      </trkpt>
      <trkpt lat="37.06609167" lon="-3.37144167">
        <ele>3080.0</ele>
        <time>2022-11-20T13:35:52.000Z</time>
      </trkpt>
      <trkpt lat="37.06610333" lon="-3.37143833">
        <ele>3080.0</ele>
        <time>2022-11-20T13:35:53.000Z</time>
      </trkpt>
      <trkpt lat="37.066115" lon="-3.37143833">
        <ele>3079.0</ele>
        <time>2022-11-20T13:35:54.000Z</time>
      </trkpt>
      <trkpt lat="37.066125" lon="-3.37144333">
        <ele>3079.0</ele>
        <time>2022-11-20T13:35:55.000Z</time>
      </trkpt>
      <trkpt lat="37.066135" lon="-3.37145167">
        <ele>3079.0</ele>
        <time>2022-11-20T13:35:56.000Z</time>
      </trkpt>
      <trkpt lat="37.066145" lon="-3.37146">
        <ele>3079.0</ele>
        <time>2022-11-20T13:35:57.000Z</time>
      </trkpt>
      <trkpt lat="37.06615667" lon="-3.37146833">
        <ele>3078.0</ele>
        <time>2022-11-20T13:35:58.000Z</time>
      </trkpt>
      <trkpt lat="37.06616667" lon="-3.37147833">
        <ele>3078.0</ele>
        <time>2022-11-20T13:35:59.000Z</time>
      </trkpt>
      <trkpt lat="37.066175" lon="-3.37148833">
        <ele>3077.0</ele>
        <time>2022-11-20T13:36:00.000Z</time>
      </trkpt>
      <trkpt lat="37.066185" lon="-3.371495">
        <ele>3077.0</ele>
        <time>2022-11-20T13:36:01.000Z</time>
      </trkpt>
      <trkpt lat="37.066195" lon="-3.37150333">
        <ele>3076.0</ele>
        <time>2022-11-20T13:36:02.000Z</time>
      </trkpt>
      <trkpt lat="37.066205" lon="-3.37151333">
        <ele>3076.0</ele>
        <time>2022-11-20T13:36:03.000Z</time>
      </trkpt>
      <trkpt lat="37.06621667" lon="-3.37152167">
        <ele>3076.0</ele>
        <time>2022-11-20T13:36:04.000Z</time>
      </trkpt>
      <trkpt lat="37.06622667" lon="-3.37153333">
        <ele>3075.0</ele>
        <time>2022-11-20T13:36:05.000Z</time>
      </trkpt>
      <trkpt lat="37.06623667" lon="-3.37154333">
        <ele>3075.0</ele>
        <time>2022-11-20T13:36:06.000Z</time>
      </trkpt>
      <trkpt lat="37.06624833" lon="-3.37155333">
        <ele>3075.0</ele>
        <time>2022-11-20T13:36:07.000Z</time>
      </trkpt>
      <trkpt lat="37.06626" lon="-3.37156">
        <ele>3074.0</ele>
        <time>2022-11-20T13:36:08.000Z</time>
      </trkpt>
      <trkpt lat="37.06627333" lon="-3.37157">
        <ele>3074.0</ele>
        <time>2022-11-20T13:36:09.000Z</time>
      </trkpt>
      <trkpt lat="37.06628833" lon="-3.37158">
        <ele>3074.0</ele>
        <time>2022-11-20T13:36:10.000Z</time>
      </trkpt>
      <trkpt lat="37.06630167" lon="-3.37159">
        <ele>3073.0</ele>
        <time>2022-11-20T13:36:11.000Z</time>
      </trkpt>
      <trkpt lat="37.06631667" lon="-3.37160333">
        <ele>3073.0</ele>
        <time>2022-11-20T13:36:12.000Z</time>
      </trkpt>
      <trkpt lat="37.06633167" lon="-3.371615">
        <ele>3073.0</ele>
        <time>2022-11-20T13:36:13.000Z</time>
      </trkpt>
      <trkpt lat="37.066345" lon="-3.37162667">
        <ele>3072.0</ele>
        <time>2022-11-20T13:36:14.000Z</time>
      </trkpt>
      <trkpt lat="37.066355" lon="-3.371635">
        <ele>3072.0</ele>
        <time>2022-11-20T13:36:15.000Z</time>
      </trkpt>
      <trkpt lat="37.06636667" lon="-3.37164333">
        <ele>3072.0</ele>
        <time>2022-11-20T13:36:16.000Z</time>
      </trkpt>
      <trkpt lat="37.06637833" lon="-3.37165333">
        <ele>3071.0</ele>
        <time>2022-11-20T13:36:17.000Z</time>
      </trkpt>
      <trkpt lat="37.06639167" lon="-3.37166333">
        <ele>3071.0</ele>
        <time>2022-11-20T13:36:18.000Z</time>
      </trkpt>
      <trkpt lat="37.066405" lon="-3.371675">
        <ele>3071.0</ele>
        <time>2022-11-20T13:36:19.000Z</time>
      </trkpt>
      <trkpt lat="37.06641667" lon="-3.371685">
        <ele>3071.0</ele>
        <time>2022-11-20T13:36:20.000Z</time>
      </trkpt>
      <trkpt lat="37.06642833" lon="-3.371695">
        <ele>3070.0</ele>
        <time>2022-11-20T13:36:21.000Z</time>
      </trkpt>
      <trkpt lat="37.06643833" lon="-3.37170167">
        <ele>3070.0</ele>
        <time>2022-11-20T13:36:22.000Z</time>
      </trkpt>
      <trkpt lat="37.06644833" lon="-3.37171167">
        <ele>3070.0</ele>
        <time>2022-11-20T13:36:23.000Z</time>
      </trkpt>
      <trkpt lat="37.06645667" lon="-3.37172167">
        <ele>3070.0</ele>
        <time>2022-11-20T13:36:24.000Z</time>
      </trkpt>
      <trkpt lat="37.066465" lon="-3.37173333">
        <ele>3069.0</ele>
        <time>2022-11-20T13:36:25.000Z</time>
      </trkpt>
      <trkpt lat="37.06647167" lon="-3.37173833">
        <ele>3069.0</ele>
        <time>2022-11-20T13:36:26.000Z</time>
      </trkpt>
      <trkpt lat="37.06648167" lon="-3.37174833">
        <ele>3069.0</ele>
        <time>2022-11-20T13:36:27.000Z</time>
      </trkpt>
      <trkpt lat="37.06648833" lon="-3.37176167">
        <ele>3069.0</ele>
        <time>2022-11-20T13:36:28.000Z</time>
      </trkpt>
      <trkpt lat="37.06649167" lon="-3.37176833">
        <ele>3068.0</ele>
        <time>2022-11-20T13:36:29.000Z</time>
      </trkpt>
      <trkpt lat="37.06649833" lon="-3.37177833">
        <ele>3068.0</ele>
        <time>2022-11-20T13:36:30.000Z</time>
      </trkpt>
      <trkpt lat="37.06650833" lon="-3.37179">
        <ele>3068.0</ele>
        <time>2022-11-20T13:36:31.000Z</time>
      </trkpt>
      <trkpt lat="37.06651667" lon="-3.3718">
        <ele>3067.0</ele>
        <time>2022-11-20T13:36:32.000Z</time>
      </trkpt>
      <trkpt lat="37.066525" lon="-3.37181">
        <ele>3067.0</ele>
        <time>2022-11-20T13:36:33.000Z</time>
      </trkpt>
      <trkpt lat="37.06653167" lon="-3.37182">
        <ele>3067.0</ele>
        <time>2022-11-20T13:36:34.000Z</time>
      </trkpt>
      <trkpt lat="37.06653833" lon="-3.37183167">
        <ele>3066.0</ele>
        <time>2022-11-20T13:36:35.000Z</time>
      </trkpt>
      <trkpt lat="37.06654667" lon="-3.37184333">
        <ele>3066.0</ele>
        <time>2022-11-20T13:36:36.000Z</time>
      </trkpt>
      <trkpt lat="37.06655333" lon="-3.37185333">
        <ele>3066.0</ele>
        <time>2022-11-20T13:36:37.000Z</time>
      </trkpt>
      <trkpt lat="37.06656167" lon="-3.371865">
        <ele>3066.0</ele>
        <time>2022-11-20T13:36:38.000Z</time>
      </trkpt>
      <trkpt lat="37.06657" lon="-3.37187667">
        <ele>3066.0</ele>
        <time>2022-11-20T13:36:39.000Z</time>
      </trkpt>
      <trkpt lat="37.06658" lon="-3.37188667">
        <ele>3065.0</ele>
        <time>2022-11-20T13:36:40.000Z</time>
      </trkpt>
      <trkpt lat="37.06659167" lon="-3.37189333">
        <ele>3065.0</ele>
        <time>2022-11-20T13:36:41.000Z</time>
      </trkpt>
      <trkpt lat="37.06660333" lon="-3.371905">
        <ele>3065.0</ele>
        <time>2022-11-20T13:36:42.000Z</time>
      </trkpt>
      <trkpt lat="37.066615" lon="-3.371915">
        <ele>3064.0</ele>
        <time>2022-11-20T13:36:43.000Z</time>
      </trkpt>
      <trkpt lat="37.06662667" lon="-3.37192333">
        <ele>3064.0</ele>
        <time>2022-11-20T13:36:44.000Z</time>
      </trkpt>
      <trkpt lat="37.06663833" lon="-3.37193167">
        <ele>3064.0</ele>
        <time>2022-11-20T13:36:45.000Z</time>
      </trkpt>
      <trkpt lat="37.06665167" lon="-3.371945">
        <ele>3063.0</ele>
        <time>2022-11-20T13:36:46.000Z</time>
      </trkpt>
      <trkpt lat="37.06666333" lon="-3.37195833">
        <ele>3063.0</ele>
        <time>2022-11-20T13:36:47.000Z</time>
      </trkpt>
      <trkpt lat="37.06667667" lon="-3.37197">
        <ele>3063.0</ele>
        <time>2022-11-20T13:36:48.000Z</time>
      </trkpt>
      <trkpt lat="37.06668833" lon="-3.37198167">
        <ele>3062.0</ele>
        <time>2022-11-20T13:36:49.000Z</time>
      </trkpt>
      <trkpt lat="37.06669833" lon="-3.37199333">
        <ele>3062.0</ele>
        <time>2022-11-20T13:36:50.000Z</time>
      </trkpt>
      <trkpt lat="37.06671" lon="-3.37200333">
        <ele>3062.0</ele>
        <time>2022-11-20T13:36:51.000Z</time>
      </trkpt>
      <trkpt lat="37.06672" lon="-3.37200833">
        <ele>3061.0</ele>
        <time>2022-11-20T13:36:52.000Z</time>
      </trkpt>
      <trkpt lat="37.06673167" lon="-3.37201333">
        <ele>3061.0</ele>
        <time>2022-11-20T13:36:53.000Z</time>
      </trkpt>
      <trkpt lat="37.06674333" lon="-3.37202">
        <ele>3061.0</ele>
        <time>2022-11-20T13:36:54.000Z</time>
      </trkpt>
      <trkpt lat="37.066755" lon="-3.37202833">
        <ele>3060.0</ele>
        <time>2022-11-20T13:36:55.000Z</time>
      </trkpt>
      <trkpt lat="37.066765" lon="-3.37203833">
        <ele>3060.0</ele>
        <time>2022-11-20T13:36:56.000Z</time>
      </trkpt>
      <trkpt lat="37.06677333" lon="-3.37205333">
        <ele>3060.0</ele>
        <time>2022-11-20T13:36:57.000Z</time>
      </trkpt>
      <trkpt lat="37.06678333" lon="-3.37206833">
        <ele>3059.0</ele>
        <time>2022-11-20T13:36:58.000Z</time>
      </trkpt>
      <trkpt lat="37.06679167" lon="-3.37208167">
        <ele>3059.0</ele>
        <time>2022-11-20T13:36:59.000Z</time>
      </trkpt>
      <trkpt lat="37.066805" lon="-3.37209667">
        <ele>3059.0</ele>
        <time>2022-11-20T13:37:00.000Z</time>
      </trkpt>
      <trkpt lat="37.066815" lon="-3.372115">
        <ele>3058.0</ele>
        <time>2022-11-20T13:37:01.000Z</time>
      </trkpt>
      <trkpt lat="37.066825" lon="-3.37213333">
        <ele>3058.0</ele>
        <time>2022-11-20T13:37:02.000Z</time>
      </trkpt>
      <trkpt lat="37.06683667" lon="-3.37215667">
        <ele>3057.0</ele>
        <time>2022-11-20T13:37:03.000Z</time>
      </trkpt>
      <trkpt lat="37.06684167" lon="-3.37218">
        <ele>3057.0</ele>
        <time>2022-11-20T13:37:04.000Z</time>
      </trkpt>
      <trkpt lat="37.06684333" lon="-3.37220167">
        <ele>3056.0</ele>
        <time>2022-11-20T13:37:05.000Z</time>
      </trkpt>
      <trkpt lat="37.06684667" lon="-3.37222">
        <ele>3056.0</ele>
        <time>2022-11-20T13:37:06.000Z</time>
      </trkpt>
      <trkpt lat="37.06684833" lon="-3.37223">
        <ele>3055.0</ele>
        <time>2022-11-20T13:37:07.000Z</time>
      </trkpt>
      <trkpt lat="37.06684667" lon="-3.37223667">
        <ele>3055.0</ele>
        <time>2022-11-20T13:37:08.000Z</time>
      </trkpt>
      <trkpt lat="37.06684667" lon="-3.37223667">
        <ele>3055.0</ele>
        <time>2022-11-20T13:37:09.000Z</time>
      </trkpt>
      <trkpt lat="37.06684833" lon="-3.37223667">
        <ele>3055.0</ele>
        <time>2022-11-20T13:37:10.000Z</time>
      </trkpt>
      <trkpt lat="37.06685167" lon="-3.37224">
        <ele>3055.0</ele>
        <time>2022-11-20T13:37:11.000Z</time>
      </trkpt>
      <trkpt lat="37.06685167" lon="-3.37224833">
        <ele>3055.0</ele>
        <time>2022-11-20T13:37:12.000Z</time>
      </trkpt>
      <trkpt lat="37.066855" lon="-3.372255">
        <ele>3055.0</ele>
        <time>2022-11-20T13:37:13.000Z</time>
      </trkpt>
      <trkpt lat="37.06685833" lon="-3.37226333">
        <ele>3054.0</ele>
        <time>2022-11-20T13:37:14.000Z</time>
      </trkpt>
      <trkpt lat="37.06686333" lon="-3.37227333">
        <ele>3054.0</ele>
        <time>2022-11-20T13:37:15.000Z</time>
      </trkpt>
      <trkpt lat="37.06686833" lon="-3.372285">
        <ele>3054.0</ele>
        <time>2022-11-20T13:37:16.000Z</time>
      </trkpt>
      <trkpt lat="37.06687167" lon="-3.37229667">
        <ele>3054.0</ele>
        <time>2022-11-20T13:37:17.000Z</time>
      </trkpt>
      <trkpt lat="37.06687833" lon="-3.37230833">
        <ele>3054.0</ele>
        <time>2022-11-20T13:37:18.000Z</time>
      </trkpt>
      <trkpt lat="37.06688333" lon="-3.37232167">
        <ele>3053.0</ele>
        <time>2022-11-20T13:37:19.000Z</time>
      </trkpt>
      <trkpt lat="37.06688667" lon="-3.37233333">
        <ele>3053.0</ele>
        <time>2022-11-20T13:37:20.000Z</time>
      </trkpt>
      <trkpt lat="37.06689" lon="-3.37234333">
        <ele>3053.0</ele>
        <time>2022-11-20T13:37:21.000Z</time>
      </trkpt>
      <trkpt lat="37.06689333" lon="-3.37234833">
        <ele>3053.0</ele>
        <time>2022-11-20T13:37:22.000Z</time>
      </trkpt>
      <trkpt lat="37.06689667" lon="-3.37235167">
        <ele>3053.0</ele>
        <time>2022-11-20T13:37:23.000Z</time>
      </trkpt>
      <trkpt lat="37.06690167" lon="-3.37235333">
        <ele>3052.0</ele>
        <time>2022-11-20T13:37:24.000Z</time>
      </trkpt>
      <trkpt lat="37.06690833" lon="-3.37235333">
        <ele>3052.0</ele>
        <time>2022-11-20T13:37:25.000Z</time>
      </trkpt>
      <trkpt lat="37.06690833" lon="-3.37235333">
        <ele>3052.0</ele>
        <time>2022-11-20T13:37:26.000Z</time>
      </trkpt>
      <trkpt lat="37.066915" lon="-3.37236">
        <ele>3052.0</ele>
        <time>2022-11-20T13:37:27.000Z</time>
      </trkpt>
      <trkpt lat="37.06692167" lon="-3.37236833">
        <ele>3052.0</ele>
        <time>2022-11-20T13:37:28.000Z</time>
      </trkpt>
      <trkpt lat="37.06693" lon="-3.37238">
        <ele>3052.0</ele>
        <time>2022-11-20T13:37:29.000Z</time>
      </trkpt>
      <trkpt lat="37.066935" lon="-3.37238833">
        <ele>3052.0</ele>
        <time>2022-11-20T13:37:30.000Z</time>
      </trkpt>
      <trkpt lat="37.06693667" lon="-3.37239667">
        <ele>3051.0</ele>
        <time>2022-11-20T13:37:31.000Z</time>
      </trkpt>
      <trkpt lat="37.06693833" lon="-3.37239833">
        <ele>3051.0</ele>
        <time>2022-11-20T13:37:32.000Z</time>
      </trkpt>
      <trkpt lat="37.06693833" lon="-3.37239833">
        <ele>3051.0</ele>
        <time>2022-11-20T13:37:33.000Z</time>
      </trkpt>
      <trkpt lat="37.06693833" lon="-3.37239833">
        <ele>3051.0</ele>
        <time>2022-11-20T13:37:34.000Z</time>
      </trkpt>
      <trkpt lat="37.06694" lon="-3.37239667">
        <ele>3051.0</ele>
        <time>2022-11-20T13:37:35.000Z</time>
      </trkpt>
      <trkpt lat="37.06694333" lon="-3.37239833">
        <ele>3051.0</ele>
        <time>2022-11-20T13:37:36.000Z</time>
      </trkpt>
      <trkpt lat="37.06694833" lon="-3.37240333">
        <ele>3051.0</ele>
        <time>2022-11-20T13:37:37.000Z</time>
      </trkpt>
      <trkpt lat="37.06695333" lon="-3.37240833">
        <ele>3051.0</ele>
        <time>2022-11-20T13:37:38.000Z</time>
      </trkpt>
      <trkpt lat="37.06696" lon="-3.372415">
        <ele>3051.0</ele>
        <time>2022-11-20T13:37:39.000Z</time>
      </trkpt>
      <trkpt lat="37.06696667" lon="-3.37242167">
        <ele>3050.0</ele>
        <time>2022-11-20T13:37:40.000Z</time>
      </trkpt>
      <trkpt lat="37.066975" lon="-3.37243">
        <ele>3050.0</ele>
        <time>2022-11-20T13:37:41.000Z</time>
      </trkpt>
      <trkpt lat="37.06698333" lon="-3.37243833">
        <ele>3050.0</ele>
        <time>2022-11-20T13:37:42.000Z</time>
      </trkpt>
      <trkpt lat="37.06699333" lon="-3.37245">
        <ele>3050.0</ele>
        <time>2022-11-20T13:37:43.000Z</time>
      </trkpt>
      <trkpt lat="37.06699833" lon="-3.37246167">
        <ele>3050.0</ele>
        <time>2022-11-20T13:37:44.000Z</time>
      </trkpt>
      <trkpt lat="37.06700167" lon="-3.37247167">
        <ele>3050.0</ele>
        <time>2022-11-20T13:37:45.000Z</time>
      </trkpt>
      <trkpt lat="37.06700667" lon="-3.37248167">
        <ele>3049.0</ele>
        <time>2022-11-20T13:37:46.000Z</time>
      </trkpt>
      <trkpt lat="37.06700833" lon="-3.37248833">
        <ele>3049.0</ele>
        <time>2022-11-20T13:37:47.000Z</time>
      </trkpt>
      <trkpt lat="37.06700833" lon="-3.372495">
        <ele>3049.0</ele>
        <time>2022-11-20T13:37:48.000Z</time>
      </trkpt>
      <trkpt lat="37.06701" lon="-3.372505">
        <ele>3049.0</ele>
        <time>2022-11-20T13:37:49.000Z</time>
      </trkpt>
      <trkpt lat="37.06701167" lon="-3.37251333">
        <ele>3049.0</ele>
        <time>2022-11-20T13:37:50.000Z</time>
      </trkpt>
      <trkpt lat="37.067015" lon="-3.37251833">
        <ele>3049.0</ele>
        <time>2022-11-20T13:37:51.000Z</time>
      </trkpt>
      <trkpt lat="37.06702" lon="-3.37252333">
        <ele>3048.0</ele>
        <time>2022-11-20T13:37:52.000Z</time>
      </trkpt>
      <trkpt lat="37.06702833" lon="-3.37252833">
        <ele>3048.0</ele>
        <time>2022-11-20T13:37:53.000Z</time>
      </trkpt>
      <trkpt lat="37.06703667" lon="-3.37253833">
        <ele>3048.0</ele>
        <time>2022-11-20T13:37:54.000Z</time>
      </trkpt>
      <trkpt lat="37.067045" lon="-3.37255167">
        <ele>3048.0</ele>
        <time>2022-11-20T13:37:55.000Z</time>
      </trkpt>
      <trkpt lat="37.06705333" lon="-3.37256167">
        <ele>3048.0</ele>
        <time>2022-11-20T13:37:56.000Z</time>
      </trkpt>
      <trkpt lat="37.06706167" lon="-3.37257167">
        <ele>3048.0</ele>
        <time>2022-11-20T13:37:57.000Z</time>
      </trkpt>
      <trkpt lat="37.06706833" lon="-3.37258333">
        <ele>3048.0</ele>
        <time>2022-11-20T13:37:58.000Z</time>
      </trkpt>
      <trkpt lat="37.06707167" lon="-3.372595">
        <ele>3047.0</ele>
        <time>2022-11-20T13:37:59.000Z</time>
      </trkpt>
      <trkpt lat="37.06707667" lon="-3.372605">
        <ele>3047.0</ele>
        <time>2022-11-20T13:38:00.000Z</time>
      </trkpt>
      <trkpt lat="37.067085" lon="-3.372615">
        <ele>3047.0</ele>
        <time>2022-11-20T13:38:01.000Z</time>
      </trkpt>
      <trkpt lat="37.06709167" lon="-3.37262667">
        <ele>3047.0</ele>
        <time>2022-11-20T13:38:02.000Z</time>
      </trkpt>
      <trkpt lat="37.06709833" lon="-3.372635">
        <ele>3047.0</ele>
        <time>2022-11-20T13:38:03.000Z</time>
      </trkpt>
      <trkpt lat="37.06710833" lon="-3.37264667">
        <ele>3046.0</ele>
        <time>2022-11-20T13:38:04.000Z</time>
      </trkpt>
      <trkpt lat="37.06712" lon="-3.37265833">
        <ele>3046.0</ele>
        <time>2022-11-20T13:38:05.000Z</time>
      </trkpt>
      <trkpt lat="37.06713" lon="-3.37266833">
        <ele>3046.0</ele>
        <time>2022-11-20T13:38:06.000Z</time>
      </trkpt>
      <trkpt lat="37.06714167" lon="-3.37267833">
        <ele>3046.0</ele>
        <time>2022-11-20T13:38:07.000Z</time>
      </trkpt>
      <trkpt lat="37.06715" lon="-3.37269">
        <ele>3046.0</ele>
        <time>2022-11-20T13:38:08.000Z</time>
      </trkpt>
      <trkpt lat="37.06715667" lon="-3.3727">
        <ele>3046.0</ele>
        <time>2022-11-20T13:38:09.000Z</time>
      </trkpt>
      <trkpt lat="37.06716333" lon="-3.37270833">
        <ele>3046.0</ele>
        <time>2022-11-20T13:38:10.000Z</time>
      </trkpt>
      <trkpt lat="37.06717" lon="-3.37271833">
        <ele>3046.0</ele>
        <time>2022-11-20T13:38:11.000Z</time>
      </trkpt>
      <trkpt lat="37.06718" lon="-3.37272833">
        <ele>3045.0</ele>
        <time>2022-11-20T13:38:12.000Z</time>
      </trkpt>
      <trkpt lat="37.06718833" lon="-3.37273333">
        <ele>3045.0</ele>
        <time>2022-11-20T13:38:13.000Z</time>
      </trkpt>
      <trkpt lat="37.06719667" lon="-3.37273333">
        <ele>3045.0</ele>
        <time>2022-11-20T13:38:14.000Z</time>
      </trkpt>
      <trkpt lat="37.06720333" lon="-3.37273667">
        <ele>3045.0</ele>
        <time>2022-11-20T13:38:15.000Z</time>
      </trkpt>
      <trkpt lat="37.06721" lon="-3.37274167">
        <ele>3045.0</ele>
        <time>2022-11-20T13:38:16.000Z</time>
      </trkpt>
      <trkpt lat="37.06721833" lon="-3.37275167">
        <ele>3045.0</ele>
        <time>2022-11-20T13:38:17.000Z</time>
      </trkpt>
      <trkpt lat="37.06722667" lon="-3.37276167">
        <ele>3045.0</ele>
        <time>2022-11-20T13:38:18.000Z</time>
      </trkpt>
      <trkpt lat="37.06723167" lon="-3.37277333">
        <ele>3045.0</ele>
        <time>2022-11-20T13:38:19.000Z</time>
      </trkpt>
      <trkpt lat="37.067235" lon="-3.372785">
        <ele>3045.0</ele>
        <time>2022-11-20T13:38:20.000Z</time>
      </trkpt>
      <trkpt lat="37.06723833" lon="-3.37279833">
        <ele>3045.0</ele>
        <time>2022-11-20T13:38:21.000Z</time>
      </trkpt>
      <trkpt lat="37.06724333" lon="-3.37280833">
        <ele>3045.0</ele>
        <time>2022-11-20T13:38:22.000Z</time>
      </trkpt>
      <trkpt lat="37.06725167" lon="-3.37281667">
        <ele>3044.0</ele>
        <time>2022-11-20T13:38:23.000Z</time>
      </trkpt>
      <trkpt lat="37.06726" lon="-3.372825">
        <ele>3044.0</ele>
        <time>2022-11-20T13:38:24.000Z</time>
      </trkpt>
      <trkpt lat="37.06726833" lon="-3.372835">
        <ele>3044.0</ele>
        <time>2022-11-20T13:38:25.000Z</time>
      </trkpt>
      <trkpt lat="37.06727667" lon="-3.372845">
        <ele>3044.0</ele>
        <time>2022-11-20T13:38:26.000Z</time>
      </trkpt>
      <trkpt lat="37.06728333" lon="-3.37285667">
        <ele>3044.0</ele>
        <time>2022-11-20T13:38:27.000Z</time>
      </trkpt>
      <trkpt lat="37.06729" lon="-3.37287">
        <ele>3044.0</ele>
        <time>2022-11-20T13:38:28.000Z</time>
      </trkpt>
      <trkpt lat="37.067295" lon="-3.37287833">
        <ele>3044.0</ele>
        <time>2022-11-20T13:38:29.000Z</time>
      </trkpt>
      <trkpt lat="37.06730167" lon="-3.37288667">
        <ele>3044.0</ele>
        <time>2022-11-20T13:38:30.000Z</time>
      </trkpt>
      <trkpt lat="37.06730833" lon="-3.37289667">
        <ele>3043.0</ele>
        <time>2022-11-20T13:38:31.000Z</time>
      </trkpt>
      <trkpt lat="37.067315" lon="-3.37290667">
        <ele>3043.0</ele>
        <time>2022-11-20T13:38:32.000Z</time>
      </trkpt>
      <trkpt lat="37.06732" lon="-3.37291667">
        <ele>3043.0</ele>
        <time>2022-11-20T13:38:33.000Z</time>
      </trkpt>
      <trkpt lat="37.06732667" lon="-3.37292667">
        <ele>3043.0</ele>
        <time>2022-11-20T13:38:34.000Z</time>
      </trkpt>
      <trkpt lat="37.06733333" lon="-3.37293833">
        <ele>3042.0</ele>
        <time>2022-11-20T13:38:35.000Z</time>
      </trkpt>
      <trkpt lat="37.06734" lon="-3.37295333">
        <ele>3042.0</ele>
        <time>2022-11-20T13:38:36.000Z</time>
      </trkpt>
      <trkpt lat="37.06734333" lon="-3.37296667">
        <ele>3042.0</ele>
        <time>2022-11-20T13:38:37.000Z</time>
      </trkpt>
      <trkpt lat="37.06734333" lon="-3.37297667">
        <ele>3042.0</ele>
        <time>2022-11-20T13:38:38.000Z</time>
      </trkpt>
      <trkpt lat="37.067345" lon="-3.37298667">
        <ele>3041.0</ele>
        <time>2022-11-20T13:38:39.000Z</time>
      </trkpt>
      <trkpt lat="37.06734667" lon="-3.373">
        <ele>3041.0</ele>
        <time>2022-11-20T13:38:40.000Z</time>
      </trkpt>
      <trkpt lat="37.06734833" lon="-3.37301">
        <ele>3041.0</ele>
        <time>2022-11-20T13:38:41.000Z</time>
      </trkpt>
      <trkpt lat="37.06735167" lon="-3.37302">
        <ele>3041.0</ele>
        <time>2022-11-20T13:38:42.000Z</time>
      </trkpt>
      <trkpt lat="37.06735667" lon="-3.37303">
        <ele>3040.0</ele>
        <time>2022-11-20T13:38:43.000Z</time>
      </trkpt>
      <trkpt lat="37.06735833" lon="-3.37304167">
        <ele>3040.0</ele>
        <time>2022-11-20T13:38:44.000Z</time>
      </trkpt>
      <trkpt lat="37.06736" lon="-3.37305333">
        <ele>3040.0</ele>
        <time>2022-11-20T13:38:45.000Z</time>
      </trkpt>
      <trkpt lat="37.06736333" lon="-3.37306333">
        <ele>3039.0</ele>
        <time>2022-11-20T13:38:46.000Z</time>
      </trkpt>
      <trkpt lat="37.06737333" lon="-3.37307167">
        <ele>3039.0</ele>
        <time>2022-11-20T13:38:47.000Z</time>
      </trkpt>
      <trkpt lat="37.06738167" lon="-3.373075">
        <ele>3039.0</ele>
        <time>2022-11-20T13:38:48.000Z</time>
      </trkpt>
      <trkpt lat="37.06738833" lon="-3.37308">
        <ele>3039.0</ele>
        <time>2022-11-20T13:38:49.000Z</time>
      </trkpt>
      <trkpt lat="37.06739333" lon="-3.37308833">
        <ele>3038.0</ele>
        <time>2022-11-20T13:38:50.000Z</time>
      </trkpt>
      <trkpt lat="37.0674" lon="-3.37309833">
        <ele>3038.0</ele>
        <time>2022-11-20T13:38:51.000Z</time>
      </trkpt>
      <trkpt lat="37.067405" lon="-3.373105">
        <ele>3038.0</ele>
        <time>2022-11-20T13:38:52.000Z</time>
      </trkpt>
      <trkpt lat="37.06741167" lon="-3.37311333">
        <ele>3038.0</ele>
        <time>2022-11-20T13:38:53.000Z</time>
      </trkpt>
      <trkpt lat="37.06742" lon="-3.37312">
        <ele>3037.0</ele>
        <time>2022-11-20T13:38:54.000Z</time>
      </trkpt>
      <trkpt lat="37.06742667" lon="-3.37312667">
        <ele>3037.0</ele>
        <time>2022-11-20T13:38:55.000Z</time>
      </trkpt>
      <trkpt lat="37.06743" lon="-3.37313333">
        <ele>3037.0</ele>
        <time>2022-11-20T13:38:56.000Z</time>
      </trkpt>
      <trkpt lat="37.067435" lon="-3.37314">
        <ele>3037.0</ele>
        <time>2022-11-20T13:38:57.000Z</time>
      </trkpt>
      <trkpt lat="37.06743833" lon="-3.37315">
        <ele>3037.0</ele>
        <time>2022-11-20T13:38:58.000Z</time>
      </trkpt>
      <trkpt lat="37.06744333" lon="-3.37316167">
        <ele>3036.0</ele>
        <time>2022-11-20T13:38:59.000Z</time>
      </trkpt>
      <trkpt lat="37.06744833" lon="-3.37317667">
        <ele>3036.0</ele>
        <time>2022-11-20T13:39:00.000Z</time>
      </trkpt>
      <trkpt lat="37.06745" lon="-3.37319">
        <ele>3036.0</ele>
        <time>2022-11-20T13:39:01.000Z</time>
      </trkpt>
      <trkpt lat="37.06744833" lon="-3.37320333">
        <ele>3035.0</ele>
        <time>2022-11-20T13:39:02.000Z</time>
      </trkpt>
      <trkpt lat="37.06745" lon="-3.37321667">
        <ele>3035.0</ele>
        <time>2022-11-20T13:39:03.000Z</time>
      </trkpt>
      <trkpt lat="37.06745" lon="-3.37323167">
        <ele>3035.0</ele>
        <time>2022-11-20T13:39:04.000Z</time>
      </trkpt>
      <trkpt lat="37.06745" lon="-3.37324333">
        <ele>3035.0</ele>
        <time>2022-11-20T13:39:05.000Z</time>
      </trkpt>
      <trkpt lat="37.06745667" lon="-3.37325">
        <ele>3034.0</ele>
        <time>2022-11-20T13:39:06.000Z</time>
      </trkpt>
      <trkpt lat="37.06746833" lon="-3.37325167">
        <ele>3034.0</ele>
        <time>2022-11-20T13:39:07.000Z</time>
      </trkpt>
      <trkpt lat="37.06748" lon="-3.37325333">
        <ele>3034.0</ele>
        <time>2022-11-20T13:39:08.000Z</time>
      </trkpt>
      <trkpt lat="37.06749333" lon="-3.37325833">
        <ele>3034.0</ele>
        <time>2022-11-20T13:39:09.000Z</time>
      </trkpt>
      <trkpt lat="37.06749833" lon="-3.37327">
        <ele>3033.0</ele>
        <time>2022-11-20T13:39:10.000Z</time>
      </trkpt>
      <trkpt lat="37.0675" lon="-3.373285">
        <ele>3033.0</ele>
        <time>2022-11-20T13:39:11.000Z</time>
      </trkpt>
      <trkpt lat="37.0675" lon="-3.3733">
        <ele>3033.0</ele>
        <time>2022-11-20T13:39:12.000Z</time>
      </trkpt>
      <trkpt lat="37.06749833" lon="-3.37331333">
        <ele>3032.0</ele>
        <time>2022-11-20T13:39:13.000Z</time>
      </trkpt>
      <trkpt lat="37.06749667" lon="-3.37332667">
        <ele>3032.0</ele>
        <time>2022-11-20T13:39:14.000Z</time>
      </trkpt>
      <trkpt lat="37.06749667" lon="-3.373335">
        <ele>3032.0</ele>
        <time>2022-11-20T13:39:15.000Z</time>
      </trkpt>
      <trkpt lat="37.06749667" lon="-3.37333667">
        <ele>3032.0</ele>
        <time>2022-11-20T13:39:16.000Z</time>
      </trkpt>
      <trkpt lat="37.06749667" lon="-3.37333333">
        <ele>3032.0</ele>
        <time>2022-11-20T13:39:17.000Z</time>
      </trkpt>
      <trkpt lat="37.06749667" lon="-3.37333333">
        <ele>3032.0</ele>
        <time>2022-11-20T13:39:18.000Z</time>
      </trkpt>
      <trkpt lat="37.06749667" lon="-3.37333333">
        <ele>3032.0</ele>
        <time>2022-11-20T13:39:19.000Z</time>
      </trkpt>
      <trkpt lat="37.06749667" lon="-3.37333667">
        <ele>3032.0</ele>
        <time>2022-11-20T13:39:20.000Z</time>
      </trkpt>
      <trkpt lat="37.0675" lon="-3.37334">
        <ele>3032.0</ele>
        <time>2022-11-20T13:39:21.000Z</time>
      </trkpt>
      <trkpt lat="37.06751" lon="-3.37334333">
        <ele>3032.0</ele>
        <time>2022-11-20T13:39:22.000Z</time>
      </trkpt>
      <trkpt lat="37.06752" lon="-3.37334667">
        <ele>3031.0</ele>
        <time>2022-11-20T13:39:23.000Z</time>
      </trkpt>
      <trkpt lat="37.06753" lon="-3.37334833">
        <ele>3031.0</ele>
        <time>2022-11-20T13:39:24.000Z</time>
      </trkpt>
      <trkpt lat="37.06754" lon="-3.37334833">
        <ele>3031.0</ele>
        <time>2022-11-20T13:39:25.000Z</time>
      </trkpt>
      <trkpt lat="37.06755" lon="-3.37335">
        <ele>3031.0</ele>
        <time>2022-11-20T13:39:26.000Z</time>
      </trkpt>
      <trkpt lat="37.06756" lon="-3.37335167">
        <ele>3030.0</ele>
        <time>2022-11-20T13:39:27.000Z</time>
      </trkpt>
      <trkpt lat="37.06756833" lon="-3.37335333">
        <ele>3030.0</ele>
        <time>2022-11-20T13:39:28.000Z</time>
      </trkpt>
      <trkpt lat="37.06757833" lon="-3.37335333">
        <ele>3030.0</ele>
        <time>2022-11-20T13:39:29.000Z</time>
      </trkpt>
      <trkpt lat="37.06758833" lon="-3.37335167">
        <ele>3029.0</ele>
        <time>2022-11-20T13:39:30.000Z</time>
      </trkpt>
      <trkpt lat="37.06759833" lon="-3.37335">
        <ele>3029.0</ele>
        <time>2022-11-20T13:39:31.000Z</time>
      </trkpt>
      <trkpt lat="37.06760833" lon="-3.37334667">
        <ele>3029.0</ele>
        <time>2022-11-20T13:39:32.000Z</time>
      </trkpt>
      <trkpt lat="37.06762" lon="-3.37334333">
        <ele>3029.0</ele>
        <time>2022-11-20T13:39:33.000Z</time>
      </trkpt>
      <trkpt lat="37.06763333" lon="-3.37333833">
        <ele>3028.0</ele>
        <time>2022-11-20T13:39:34.000Z</time>
      </trkpt>
      <trkpt lat="37.06764333" lon="-3.37333167">
        <ele>3028.0</ele>
        <time>2022-11-20T13:39:35.000Z</time>
      </trkpt>
      <trkpt lat="37.067655" lon="-3.37332333">
        <ele>3028.0</ele>
        <time>2022-11-20T13:39:36.000Z</time>
      </trkpt>
      <trkpt lat="37.067665" lon="-3.37331667">
        <ele>3028.0</ele>
        <time>2022-11-20T13:39:37.000Z</time>
      </trkpt>
      <trkpt lat="37.067675" lon="-3.37331167">
        <ele>3027.0</ele>
        <time>2022-11-20T13:39:38.000Z</time>
      </trkpt>
      <trkpt lat="37.067685" lon="-3.37330833">
        <ele>3027.0</ele>
        <time>2022-11-20T13:39:39.000Z</time>
      </trkpt>
      <trkpt lat="37.06769333" lon="-3.37330667">
        <ele>3027.0</ele>
        <time>2022-11-20T13:39:40.000Z</time>
      </trkpt>
      <trkpt lat="37.0677" lon="-3.37330833">
        <ele>3027.0</ele>
        <time>2022-11-20T13:39:41.000Z</time>
      </trkpt>
      <trkpt lat="37.06770833" lon="-3.37330833">
        <ele>3026.0</ele>
        <time>2022-11-20T13:39:42.000Z</time>
      </trkpt>
      <trkpt lat="37.06771833" lon="-3.37330667">
        <ele>3026.0</ele>
        <time>2022-11-20T13:39:43.000Z</time>
      </trkpt>
      <trkpt lat="37.067725" lon="-3.37330667">
        <ele>3026.0</ele>
        <time>2022-11-20T13:39:44.000Z</time>
      </trkpt>
      <trkpt lat="37.06773333" lon="-3.373305">
        <ele>3026.0</ele>
        <time>2022-11-20T13:39:45.000Z</time>
      </trkpt>
      <trkpt lat="37.06773833" lon="-3.37330333">
        <ele>3026.0</ele>
        <time>2022-11-20T13:39:46.000Z</time>
      </trkpt>
      <trkpt lat="37.067745" lon="-3.37330167">
        <ele>3025.0</ele>
        <time>2022-11-20T13:39:47.000Z</time>
      </trkpt>
      <trkpt lat="37.06775" lon="-3.3733">
        <ele>3025.0</ele>
        <time>2022-11-20T13:39:48.000Z</time>
      </trkpt>
      <trkpt lat="37.06775333" lon="-3.37329833">
        <ele>3025.0</ele>
        <time>2022-11-20T13:39:49.000Z</time>
      </trkpt>
      <trkpt lat="37.06775167" lon="-3.37329833">
        <ele>3025.0</ele>
        <time>2022-11-20T13:39:50.000Z</time>
      </trkpt>
      <trkpt lat="37.06775333" lon="-3.37329833">
        <ele>3025.0</ele>
        <time>2022-11-20T13:39:51.000Z</time>
      </trkpt>
      <trkpt lat="37.06775667" lon="-3.37329667">
        <ele>3025.0</ele>
        <time>2022-11-20T13:39:52.000Z</time>
      </trkpt>
      <trkpt lat="37.06776" lon="-3.373295">
        <ele>3025.0</ele>
        <time>2022-11-20T13:39:53.000Z</time>
      </trkpt>
      <trkpt lat="37.06776333" lon="-3.37329">
        <ele>3025.0</ele>
        <time>2022-11-20T13:39:54.000Z</time>
      </trkpt>
      <trkpt lat="37.067765" lon="-3.37328333">
        <ele>3025.0</ele>
        <time>2022-11-20T13:39:55.000Z</time>
      </trkpt>
      <trkpt lat="37.06777" lon="-3.373275">
        <ele>3024.0</ele>
        <time>2022-11-20T13:39:56.000Z</time>
      </trkpt>
      <trkpt lat="37.06777167" lon="-3.37327">
        <ele>3024.0</ele>
        <time>2022-11-20T13:39:57.000Z</time>
      </trkpt>
      <trkpt lat="37.06777833" lon="-3.37327333">
        <ele>3024.0</ele>
        <time>2022-11-20T13:39:58.000Z</time>
      </trkpt>
      <trkpt lat="37.067785" lon="-3.37328">
        <ele>3024.0</ele>
        <time>2022-11-20T13:39:59.000Z</time>
      </trkpt>
      <trkpt lat="37.067795" lon="-3.37329167">
        <ele>3024.0</ele>
        <time>2022-11-20T13:40:00.000Z</time>
      </trkpt>
      <trkpt lat="37.06780167" lon="-3.37330167">
        <ele>3024.0</ele>
        <time>2022-11-20T13:40:01.000Z</time>
      </trkpt>
      <trkpt lat="37.06781167" lon="-3.37331">
        <ele>3024.0</ele>
        <time>2022-11-20T13:40:02.000Z</time>
      </trkpt>
      <trkpt lat="37.06782" lon="-3.37332">
        <ele>3023.0</ele>
        <time>2022-11-20T13:40:03.000Z</time>
      </trkpt>
      <trkpt lat="37.06783" lon="-3.37333">
        <ele>3023.0</ele>
        <time>2022-11-20T13:40:04.000Z</time>
      </trkpt>
      <trkpt lat="37.06783833" lon="-3.37333833">
        <ele>3023.0</ele>
        <time>2022-11-20T13:40:05.000Z</time>
      </trkpt>
      <trkpt lat="37.067845" lon="-3.373345">
        <ele>3022.0</ele>
        <time>2022-11-20T13:40:06.000Z</time>
      </trkpt>
      <trkpt lat="37.06785333" lon="-3.37334667">
        <ele>3022.0</ele>
        <time>2022-11-20T13:40:07.000Z</time>
      </trkpt>
      <trkpt lat="37.06786667" lon="-3.37335333">
        <ele>3022.0</ele>
        <time>2022-11-20T13:40:08.000Z</time>
      </trkpt>
      <trkpt lat="37.06787667" lon="-3.37336167">
        <ele>3021.0</ele>
        <time>2022-11-20T13:40:09.000Z</time>
      </trkpt>
      <trkpt lat="37.06788833" lon="-3.37337167">
        <ele>3021.0</ele>
        <time>2022-11-20T13:40:10.000Z</time>
      </trkpt>
      <trkpt lat="37.0679" lon="-3.37338167">
        <ele>3020.0</ele>
        <time>2022-11-20T13:40:11.000Z</time>
      </trkpt>
      <trkpt lat="37.06791" lon="-3.37339833">
        <ele>3020.0</ele>
        <time>2022-11-20T13:40:12.000Z</time>
      </trkpt>
      <trkpt lat="37.06791667" lon="-3.37341833">
        <ele>3019.0</ele>
        <time>2022-11-20T13:40:13.000Z</time>
      </trkpt>
      <trkpt lat="37.06792167" lon="-3.37343667">
        <ele>3019.0</ele>
        <time>2022-11-20T13:40:14.000Z</time>
      </trkpt>
      <trkpt lat="37.067925" lon="-3.37345333">
        <ele>3019.0</ele>
        <time>2022-11-20T13:40:15.000Z</time>
      </trkpt>
      <trkpt lat="37.06792833" lon="-3.37347">
        <ele>3018.0</ele>
        <time>2022-11-20T13:40:16.000Z</time>
      </trkpt>
      <trkpt lat="37.067935" lon="-3.37348833">
        <ele>3018.0</ele>
        <time>2022-11-20T13:40:17.000Z</time>
      </trkpt>
      <trkpt lat="37.06794" lon="-3.373505">
        <ele>3018.0</ele>
        <time>2022-11-20T13:40:18.000Z</time>
      </trkpt>
      <trkpt lat="37.06794167" lon="-3.37352167">
        <ele>3018.0</ele>
        <time>2022-11-20T13:40:19.000Z</time>
      </trkpt>
      <trkpt lat="37.06794667" lon="-3.37353667">
        <ele>3017.0</ele>
        <time>2022-11-20T13:40:20.000Z</time>
      </trkpt>
      <trkpt lat="37.06795" lon="-3.37355167">
        <ele>3017.0</ele>
        <time>2022-11-20T13:40:21.000Z</time>
      </trkpt>
      <trkpt lat="37.06795167" lon="-3.37356667">
        <ele>3017.0</ele>
        <time>2022-11-20T13:40:22.000Z</time>
      </trkpt>
      <trkpt lat="37.06795667" lon="-3.37358167">
        <ele>3017.0</ele>
        <time>2022-11-20T13:40:23.000Z</time>
      </trkpt>
      <trkpt lat="37.06796" lon="-3.37359667">
        <ele>3016.0</ele>
        <time>2022-11-20T13:40:24.000Z</time>
      </trkpt>
      <trkpt lat="37.067965" lon="-3.37361">
        <ele>3016.0</ele>
        <time>2022-11-20T13:40:25.000Z</time>
      </trkpt>
      <trkpt lat="37.06796833" lon="-3.37362">
        <ele>3016.0</ele>
        <time>2022-11-20T13:40:26.000Z</time>
      </trkpt>
      <trkpt lat="37.067975" lon="-3.37363167">
        <ele>3016.0</ele>
        <time>2022-11-20T13:40:27.000Z</time>
      </trkpt>
      <trkpt lat="37.06798167" lon="-3.37364167">
        <ele>3015.0</ele>
        <time>2022-11-20T13:40:28.000Z</time>
      </trkpt>
      <trkpt lat="37.06798667" lon="-3.37365167">
        <ele>3015.0</ele>
        <time>2022-11-20T13:40:29.000Z</time>
      </trkpt>
      <trkpt lat="37.06799" lon="-3.37366167">
        <ele>3015.0</ele>
        <time>2022-11-20T13:40:30.000Z</time>
      </trkpt>
      <trkpt lat="37.06799333" lon="-3.37367333">
        <ele>3015.0</ele>
        <time>2022-11-20T13:40:31.000Z</time>
      </trkpt>
      <trkpt lat="37.067995" lon="-3.373685">
        <ele>3015.0</ele>
        <time>2022-11-20T13:40:32.000Z</time>
      </trkpt>
      <trkpt lat="37.06799833" lon="-3.3737">
        <ele>3014.0</ele>
        <time>2022-11-20T13:40:33.000Z</time>
      </trkpt>
      <trkpt lat="37.068" lon="-3.37371333">
        <ele>3014.0</ele>
        <time>2022-11-20T13:40:34.000Z</time>
      </trkpt>
      <trkpt lat="37.06800333" lon="-3.37372667">
        <ele>3014.0</ele>
        <time>2022-11-20T13:40:35.000Z</time>
      </trkpt>
      <trkpt lat="37.06800667" lon="-3.37374">
        <ele>3014.0</ele>
        <time>2022-11-20T13:40:36.000Z</time>
      </trkpt>
      <trkpt lat="37.06801167" lon="-3.37375333">
        <ele>3013.0</ele>
        <time>2022-11-20T13:40:37.000Z</time>
      </trkpt>
      <trkpt lat="37.06801833" lon="-3.37376833">
        <ele>3013.0</ele>
        <time>2022-11-20T13:40:38.000Z</time>
      </trkpt>
      <trkpt lat="37.06802333" lon="-3.373785">
        <ele>3013.0</ele>
        <time>2022-11-20T13:40:39.000Z</time>
      </trkpt>
      <trkpt lat="37.06803167" lon="-3.3738">
        <ele>3013.0</ele>
        <time>2022-11-20T13:40:40.000Z</time>
      </trkpt>
      <trkpt lat="37.06804333" lon="-3.37381167">
        <ele>3012.0</ele>
        <time>2022-11-20T13:40:41.000Z</time>
      </trkpt>
      <trkpt lat="37.06805167" lon="-3.37382167">
        <ele>3012.0</ele>
        <time>2022-11-20T13:40:42.000Z</time>
      </trkpt>
      <trkpt lat="37.06806333" lon="-3.37383167">
        <ele>3012.0</ele>
        <time>2022-11-20T13:40:43.000Z</time>
      </trkpt>
      <trkpt lat="37.06807167" lon="-3.373845">
        <ele>3012.0</ele>
        <time>2022-11-20T13:40:44.000Z</time>
      </trkpt>
      <trkpt lat="37.06808167" lon="-3.37385833">
        <ele>3012.0</ele>
        <time>2022-11-20T13:40:45.000Z</time>
      </trkpt>
      <trkpt lat="37.06809167" lon="-3.37387333">
        <ele>3012.0</ele>
        <time>2022-11-20T13:40:46.000Z</time>
      </trkpt>
      <trkpt lat="37.06809833" lon="-3.37388833">
        <ele>3011.0</ele>
        <time>2022-11-20T13:40:47.000Z</time>
      </trkpt>
      <trkpt lat="37.068105" lon="-3.37390333">
        <ele>3011.0</ele>
        <time>2022-11-20T13:40:48.000Z</time>
      </trkpt>
      <trkpt lat="37.06811167" lon="-3.37391833">
        <ele>3011.0</ele>
        <time>2022-11-20T13:40:49.000Z</time>
      </trkpt>
      <trkpt lat="37.068115" lon="-3.37393333">
        <ele>3011.0</ele>
        <time>2022-11-20T13:40:50.000Z</time>
      </trkpt>
      <trkpt lat="37.06811833" lon="-3.37395">
        <ele>3011.0</ele>
        <time>2022-11-20T13:40:51.000Z</time>
      </trkpt>
      <trkpt lat="37.06812" lon="-3.37396667">
        <ele>3011.0</ele>
        <time>2022-11-20T13:40:52.000Z</time>
      </trkpt>
      <trkpt lat="37.06811833" lon="-3.373985">
        <ele>3011.0</ele>
        <time>2022-11-20T13:40:53.000Z</time>
      </trkpt>
      <trkpt lat="37.068115" lon="-3.37400167">
        <ele>3011.0</ele>
        <time>2022-11-20T13:40:54.000Z</time>
      </trkpt>
      <trkpt lat="37.06811167" lon="-3.37401833">
        <ele>3011.0</ele>
        <time>2022-11-20T13:40:55.000Z</time>
      </trkpt>
      <trkpt lat="37.06810833" lon="-3.374035">
        <ele>3011.0</ele>
        <time>2022-11-20T13:40:56.000Z</time>
      </trkpt>
      <trkpt lat="37.068105" lon="-3.37405">
        <ele>3010.0</ele>
        <time>2022-11-20T13:40:57.000Z</time>
      </trkpt>
      <trkpt lat="37.06810167" lon="-3.37406667">
        <ele>3010.0</ele>
        <time>2022-11-20T13:40:58.000Z</time>
      </trkpt>
      <trkpt lat="37.06809667" lon="-3.37408167">
        <ele>3010.0</ele>
        <time>2022-11-20T13:40:59.000Z</time>
      </trkpt>
      <trkpt lat="37.06809167" lon="-3.37409667">
        <ele>3010.0</ele>
        <time>2022-11-20T13:41:00.000Z</time>
      </trkpt>
      <trkpt lat="37.06808667" lon="-3.37411333">
        <ele>3010.0</ele>
        <time>2022-11-20T13:41:01.000Z</time>
      </trkpt>
      <trkpt lat="37.06808167" lon="-3.37412833">
        <ele>3010.0</ele>
        <time>2022-11-20T13:41:02.000Z</time>
      </trkpt>
      <trkpt lat="37.06807667" lon="-3.37414167">
        <ele>3010.0</ele>
        <time>2022-11-20T13:41:03.000Z</time>
      </trkpt>
      <trkpt lat="37.06807" lon="-3.37415667">
        <ele>3010.0</ele>
        <time>2022-11-20T13:41:04.000Z</time>
      </trkpt>
      <trkpt lat="37.06806333" lon="-3.37416833">
        <ele>3010.0</ele>
        <time>2022-11-20T13:41:05.000Z</time>
      </trkpt>
      <trkpt lat="37.06805667" lon="-3.37418">
        <ele>3010.0</ele>
        <time>2022-11-20T13:41:06.000Z</time>
      </trkpt>
      <trkpt lat="37.06804833" lon="-3.37419167">
        <ele>3009.0</ele>
        <time>2022-11-20T13:41:07.000Z</time>
      </trkpt>
      <trkpt lat="37.06804333" lon="-3.3742">
        <ele>3009.0</ele>
        <time>2022-11-20T13:41:08.000Z</time>
      </trkpt>
      <trkpt lat="37.06804167" lon="-3.37421333">
        <ele>3009.0</ele>
        <time>2022-11-20T13:41:09.000Z</time>
      </trkpt>
      <trkpt lat="37.06804" lon="-3.374225">
        <ele>3009.0</ele>
        <time>2022-11-20T13:41:10.000Z</time>
      </trkpt>
      <trkpt lat="37.06804167" lon="-3.374235">
        <ele>3009.0</ele>
        <time>2022-11-20T13:41:11.000Z</time>
      </trkpt>
      <trkpt lat="37.06804" lon="-3.37423833">
        <ele>3009.0</ele>
        <time>2022-11-20T13:41:12.000Z</time>
      </trkpt>
      <trkpt lat="37.06804" lon="-3.37423833">
        <ele>3009.0</ele>
        <time>2022-11-20T13:41:13.000Z</time>
      </trkpt>
      <trkpt lat="37.06804333" lon="-3.37424">
        <ele>3009.0</ele>
        <time>2022-11-20T13:41:14.000Z</time>
      </trkpt>
      <trkpt lat="37.06804333" lon="-3.37424167">
        <ele>3009.0</ele>
        <time>2022-11-20T13:41:15.000Z</time>
      </trkpt>
      <trkpt lat="37.06804333" lon="-3.37424333">
        <ele>3009.0</ele>
        <time>2022-11-20T13:41:16.000Z</time>
      </trkpt>
      <trkpt lat="37.06804333" lon="-3.37424167">
        <ele>3009.0</ele>
        <time>2022-11-20T13:41:17.000Z</time>
      </trkpt>
      <trkpt lat="37.06804333" lon="-3.37424167">
        <ele>3009.0</ele>
        <time>2022-11-20T13:41:18.000Z</time>
      </trkpt>
      <trkpt lat="37.06804" lon="-3.37424833">
        <ele>3009.0</ele>
        <time>2022-11-20T13:41:19.000Z</time>
      </trkpt>
      <trkpt lat="37.068035" lon="-3.37425833">
        <ele>3009.0</ele>
        <time>2022-11-20T13:41:20.000Z</time>
      </trkpt>
      <trkpt lat="37.06803" lon="-3.37426833">
        <ele>3009.0</ele>
        <time>2022-11-20T13:41:21.000Z</time>
      </trkpt>
      <trkpt lat="37.06802333" lon="-3.37428167">
        <ele>3009.0</ele>
        <time>2022-11-20T13:41:22.000Z</time>
      </trkpt>
      <trkpt lat="37.068015" lon="-3.37429167">
        <ele>3009.0</ele>
        <time>2022-11-20T13:41:23.000Z</time>
      </trkpt>
      <trkpt lat="37.06800333" lon="-3.3743">
        <ele>3009.0</ele>
        <time>2022-11-20T13:41:24.000Z</time>
      </trkpt>
      <trkpt lat="37.06799167" lon="-3.37430333">
        <ele>3009.0</ele>
        <time>2022-11-20T13:41:25.000Z</time>
      </trkpt>
      <trkpt lat="37.06798" lon="-3.37430333">
        <ele>3009.0</ele>
        <time>2022-11-20T13:41:26.000Z</time>
      </trkpt>
      <trkpt lat="37.06796833" lon="-3.3743">
        <ele>3009.0</ele>
        <time>2022-11-20T13:41:27.000Z</time>
      </trkpt>
      <trkpt lat="37.06795833" lon="-3.37429833">
        <ele>3009.0</ele>
        <time>2022-11-20T13:41:28.000Z</time>
      </trkpt>
      <trkpt lat="37.06794833" lon="-3.37429667">
        <ele>3009.0</ele>
        <time>2022-11-20T13:41:29.000Z</time>
      </trkpt>
      <trkpt lat="37.06793833" lon="-3.374295">
        <ele>3009.0</ele>
        <time>2022-11-20T13:41:30.000Z</time>
      </trkpt>
      <trkpt lat="37.06792667" lon="-3.374295">
        <ele>3009.0</ele>
        <time>2022-11-20T13:41:31.000Z</time>
      </trkpt>
      <trkpt lat="37.067915" lon="-3.374295">
        <ele>3009.0</ele>
        <time>2022-11-20T13:41:32.000Z</time>
      </trkpt>
      <trkpt lat="37.06790333" lon="-3.37429667">
        <ele>3009.0</ele>
        <time>2022-11-20T13:41:33.000Z</time>
      </trkpt>
      <trkpt lat="37.06789" lon="-3.37429667">
        <ele>3009.0</ele>
        <time>2022-11-20T13:41:34.000Z</time>
      </trkpt>
      <trkpt lat="37.06787833" lon="-3.37429667">
        <ele>3010.0</ele>
        <time>2022-11-20T13:41:35.000Z</time>
      </trkpt>
      <trkpt lat="37.06786667" lon="-3.37429667">
        <ele>3010.0</ele>
        <time>2022-11-20T13:41:36.000Z</time>
      </trkpt>
      <trkpt lat="37.06785333" lon="-3.374295">
        <ele>3010.0</ele>
        <time>2022-11-20T13:41:37.000Z</time>
      </trkpt>
      <trkpt lat="37.06784" lon="-3.37429333">
        <ele>3010.0</ele>
        <time>2022-11-20T13:41:38.000Z</time>
      </trkpt>
      <trkpt lat="37.06782667" lon="-3.37429167">
        <ele>3010.0</ele>
        <time>2022-11-20T13:41:39.000Z</time>
      </trkpt>
      <trkpt lat="37.06781333" lon="-3.37429167">
        <ele>3010.0</ele>
        <time>2022-11-20T13:41:40.000Z</time>
      </trkpt>
      <trkpt lat="37.06780167" lon="-3.37429">
        <ele>3010.0</ele>
        <time>2022-11-20T13:41:41.000Z</time>
      </trkpt>
      <trkpt lat="37.06778833" lon="-3.37428833">
        <ele>3010.0</ele>
        <time>2022-11-20T13:41:42.000Z</time>
      </trkpt>
      <trkpt lat="37.067775" lon="-3.37428667">
        <ele>3010.0</ele>
        <time>2022-11-20T13:41:43.000Z</time>
      </trkpt>
      <trkpt lat="37.06776167" lon="-3.37428333">
        <ele>3010.0</ele>
        <time>2022-11-20T13:41:44.000Z</time>
      </trkpt>
      <trkpt lat="37.06774833" lon="-3.37428">
        <ele>3010.0</ele>
        <time>2022-11-20T13:41:45.000Z</time>
      </trkpt>
      <trkpt lat="37.067735" lon="-3.37427833">
        <ele>3010.0</ele>
        <time>2022-11-20T13:41:46.000Z</time>
      </trkpt>
      <trkpt lat="37.06772167" lon="-3.37427667">
        <ele>3010.0</ele>
        <time>2022-11-20T13:41:47.000Z</time>
      </trkpt>
      <trkpt lat="37.06770833" lon="-3.37427667">
        <ele>3010.0</ele>
        <time>2022-11-20T13:41:48.000Z</time>
      </trkpt>
      <trkpt lat="37.067695" lon="-3.37427333">
        <ele>3010.0</ele>
        <time>2022-11-20T13:41:49.000Z</time>
      </trkpt>
      <trkpt lat="37.06768167" lon="-3.37427167">
        <ele>3010.0</ele>
        <time>2022-11-20T13:41:50.000Z</time>
      </trkpt>
      <trkpt lat="37.06766833" lon="-3.37426667">
        <ele>3010.0</ele>
        <time>2022-11-20T13:41:51.000Z</time>
      </trkpt>
      <trkpt lat="37.067655" lon="-3.37426333">
        <ele>3010.0</ele>
        <time>2022-11-20T13:41:52.000Z</time>
      </trkpt>
      <trkpt lat="37.06764167" lon="-3.37425833">
        <ele>3010.0</ele>
        <time>2022-11-20T13:41:53.000Z</time>
      </trkpt>
      <trkpt lat="37.06763" lon="-3.37426">
        <ele>3010.0</ele>
        <time>2022-11-20T13:41:54.000Z</time>
      </trkpt>
      <trkpt lat="37.06761667" lon="-3.37425833">
        <ele>3010.0</ele>
        <time>2022-11-20T13:41:55.000Z</time>
      </trkpt>
      <trkpt lat="37.06760333" lon="-3.37425833">
        <ele>3010.0</ele>
        <time>2022-11-20T13:41:56.000Z</time>
      </trkpt>
      <trkpt lat="37.06759" lon="-3.374255">
        <ele>3009.0</ele>
        <time>2022-11-20T13:41:57.000Z</time>
      </trkpt>
      <trkpt lat="37.06757667" lon="-3.37425333">
        <ele>3009.0</ele>
        <time>2022-11-20T13:41:58.000Z</time>
      </trkpt>
      <trkpt lat="37.067565" lon="-3.37425">
        <ele>3009.0</ele>
        <time>2022-11-20T13:41:59.000Z</time>
      </trkpt>
      <trkpt lat="37.06755" lon="-3.37424667">
        <ele>3009.0</ele>
        <time>2022-11-20T13:42:00.000Z</time>
      </trkpt>
      <trkpt lat="37.06753667" lon="-3.37424167">
        <ele>3009.0</ele>
        <time>2022-11-20T13:42:01.000Z</time>
      </trkpt>
      <trkpt lat="37.06752333" lon="-3.37423667">
        <ele>3009.0</ele>
        <time>2022-11-20T13:42:02.000Z</time>
      </trkpt>
      <trkpt lat="37.06751" lon="-3.37423167">
        <ele>3009.0</ele>
        <time>2022-11-20T13:42:03.000Z</time>
      </trkpt>
      <trkpt lat="37.06749833" lon="-3.37422667">
        <ele>3009.0</ele>
        <time>2022-11-20T13:42:04.000Z</time>
      </trkpt>
      <trkpt lat="37.067485" lon="-3.37421833">
        <ele>3009.0</ele>
        <time>2022-11-20T13:42:05.000Z</time>
      </trkpt>
      <trkpt lat="37.06748" lon="-3.37421167">
        <ele>3009.0</ele>
        <time>2022-11-20T13:42:06.000Z</time>
      </trkpt>
      <trkpt lat="37.06747833" lon="-3.37421167">
        <ele>3009.0</ele>
        <time>2022-11-20T13:42:07.000Z</time>
      </trkpt>
      <trkpt lat="37.06747667" lon="-3.37421167">
        <ele>3009.0</ele>
        <time>2022-11-20T13:42:08.000Z</time>
      </trkpt>
      <trkpt lat="37.06747667" lon="-3.37421167">
        <ele>3008.0</ele>
        <time>2022-11-20T13:42:09.000Z</time>
      </trkpt>
      <trkpt lat="37.06747667" lon="-3.37421">
        <ele>3008.0</ele>
        <time>2022-11-20T13:42:10.000Z</time>
      </trkpt>
      <trkpt lat="37.06747667" lon="-3.37421">
        <ele>3009.0</ele>
        <time>2022-11-20T13:42:11.000Z</time>
      </trkpt>
      <trkpt lat="37.06747333" lon="-3.37420833">
        <ele>3008.0</ele>
        <time>2022-11-20T13:42:12.000Z</time>
      </trkpt>
      <trkpt lat="37.06746667" lon="-3.37420333">
        <ele>3009.0</ele>
        <time>2022-11-20T13:42:13.000Z</time>
      </trkpt>
      <trkpt lat="37.06745667" lon="-3.37419833">
        <ele>3009.0</ele>
        <time>2022-11-20T13:42:14.000Z</time>
      </trkpt>
      <trkpt lat="37.06744667" lon="-3.37419167">
        <ele>3009.0</ele>
        <time>2022-11-20T13:42:15.000Z</time>
      </trkpt>
      <trkpt lat="37.06743667" lon="-3.37418667">
        <ele>3009.0</ele>
        <time>2022-11-20T13:42:16.000Z</time>
      </trkpt>
      <trkpt lat="37.06742333" lon="-3.37418333">
        <ele>3009.0</ele>
        <time>2022-11-20T13:42:17.000Z</time>
      </trkpt>
      <trkpt lat="37.06741167" lon="-3.37418167">
        <ele>3009.0</ele>
        <time>2022-11-20T13:42:18.000Z</time>
      </trkpt>
      <trkpt lat="37.0674" lon="-3.37417667">
        <ele>3009.0</ele>
        <time>2022-11-20T13:42:19.000Z</time>
      </trkpt>
      <trkpt lat="37.06738833" lon="-3.37417333">
        <ele>3009.0</ele>
        <time>2022-11-20T13:42:20.000Z</time>
      </trkpt>
      <trkpt lat="37.06737667" lon="-3.37416833">
        <ele>3008.0</ele>
        <time>2022-11-20T13:42:21.000Z</time>
      </trkpt>
      <trkpt lat="37.067365" lon="-3.37416333">
        <ele>3008.0</ele>
        <time>2022-11-20T13:42:22.000Z</time>
      </trkpt>
      <trkpt lat="37.067355" lon="-3.37415667">
        <ele>3008.0</ele>
        <time>2022-11-20T13:42:23.000Z</time>
      </trkpt>
      <trkpt lat="37.06734333" lon="-3.37415">
        <ele>3008.0</ele>
        <time>2022-11-20T13:42:24.000Z</time>
      </trkpt>
      <trkpt lat="37.06733333" lon="-3.37414333">
        <ele>3008.0</ele>
        <time>2022-11-20T13:42:25.000Z</time>
      </trkpt>
      <trkpt lat="37.06732333" lon="-3.374135">
        <ele>3008.0</ele>
        <time>2022-11-20T13:42:26.000Z</time>
      </trkpt>
      <trkpt lat="37.06731333" lon="-3.37412667">
        <ele>3008.0</ele>
        <time>2022-11-20T13:42:27.000Z</time>
      </trkpt>
      <trkpt lat="37.06730333" lon="-3.37411833">
        <ele>3008.0</ele>
        <time>2022-11-20T13:42:28.000Z</time>
      </trkpt>
      <trkpt lat="37.06729333" lon="-3.37411167">
        <ele>3008.0</ele>
        <time>2022-11-20T13:42:29.000Z</time>
      </trkpt>
      <trkpt lat="37.06728167" lon="-3.374105">
        <ele>3008.0</ele>
        <time>2022-11-20T13:42:30.000Z</time>
      </trkpt>
      <trkpt lat="37.06727" lon="-3.3741">
        <ele>3008.0</ele>
        <time>2022-11-20T13:42:31.000Z</time>
      </trkpt>
      <trkpt lat="37.06725833" lon="-3.374095">
        <ele>3007.0</ele>
        <time>2022-11-20T13:42:32.000Z</time>
      </trkpt>
      <trkpt lat="37.06724667" lon="-3.37408833">
        <ele>3007.0</ele>
        <time>2022-11-20T13:42:33.000Z</time>
      </trkpt>
      <trkpt lat="37.067235" lon="-3.37408333">
        <ele>3007.0</ele>
        <time>2022-11-20T13:42:34.000Z</time>
      </trkpt>
      <trkpt lat="37.06722333" lon="-3.37407833">
        <ele>3007.0</ele>
        <time>2022-11-20T13:42:35.000Z</time>
      </trkpt>
      <trkpt lat="37.06721333" lon="-3.37407333">
        <ele>3007.0</ele>
        <time>2022-11-20T13:42:36.000Z</time>
      </trkpt>
      <trkpt lat="37.06720167" lon="-3.37407">
        <ele>3007.0</ele>
        <time>2022-11-20T13:42:37.000Z</time>
      </trkpt>
      <trkpt lat="37.06719" lon="-3.37406667">
        <ele>3007.0</ele>
        <time>2022-11-20T13:42:38.000Z</time>
      </trkpt>
      <trkpt lat="37.06717667" lon="-3.37406167">
        <ele>3007.0</ele>
        <time>2022-11-20T13:42:39.000Z</time>
      </trkpt>
      <trkpt lat="37.067165" lon="-3.374055">
        <ele>3007.0</ele>
        <time>2022-11-20T13:42:40.000Z</time>
      </trkpt>
      <trkpt lat="37.06715167" lon="-3.37405167">
        <ele>3007.0</ele>
        <time>2022-11-20T13:42:41.000Z</time>
      </trkpt>
      <trkpt lat="37.06714" lon="-3.37404833">
        <ele>3006.0</ele>
        <time>2022-11-20T13:42:42.000Z</time>
      </trkpt>
      <trkpt lat="37.06712667" lon="-3.374045">
        <ele>3006.0</ele>
        <time>2022-11-20T13:42:43.000Z</time>
      </trkpt>
      <trkpt lat="37.067115" lon="-3.37404167">
        <ele>3006.0</ele>
        <time>2022-11-20T13:42:44.000Z</time>
      </trkpt>
      <trkpt lat="37.06710167" lon="-3.37403833">
        <ele>3006.0</ele>
        <time>2022-11-20T13:42:45.000Z</time>
      </trkpt>
      <trkpt lat="37.06708833" lon="-3.374035">
        <ele>3006.0</ele>
        <time>2022-11-20T13:42:46.000Z</time>
      </trkpt>
      <trkpt lat="37.06707833" lon="-3.37403">
        <ele>3006.0</ele>
        <time>2022-11-20T13:42:47.000Z</time>
      </trkpt>
      <trkpt lat="37.067065" lon="-3.37402833">
        <ele>3006.0</ele>
        <time>2022-11-20T13:42:48.000Z</time>
      </trkpt>
      <trkpt lat="37.06705333" lon="-3.37402667">
        <ele>3006.0</ele>
        <time>2022-11-20T13:42:49.000Z</time>
      </trkpt>
      <trkpt lat="37.06704167" lon="-3.37402167">
        <ele>3006.0</ele>
        <time>2022-11-20T13:42:50.000Z</time>
      </trkpt>
      <trkpt lat="37.06703" lon="-3.37401833">
        <ele>3006.0</ele>
        <time>2022-11-20T13:42:51.000Z</time>
      </trkpt>
      <trkpt lat="37.06701667" lon="-3.374015">
        <ele>3006.0</ele>
        <time>2022-11-20T13:42:52.000Z</time>
      </trkpt>
      <trkpt lat="37.06700333" lon="-3.374015">
        <ele>3005.0</ele>
        <time>2022-11-20T13:42:53.000Z</time>
      </trkpt>
      <trkpt lat="37.06699" lon="-3.37401333">
        <ele>3005.0</ele>
        <time>2022-11-20T13:42:54.000Z</time>
      </trkpt>
      <trkpt lat="37.06697833" lon="-3.374015">
        <ele>3005.0</ele>
        <time>2022-11-20T13:42:55.000Z</time>
      </trkpt>
      <trkpt lat="37.06696667" lon="-3.37401833">
        <ele>3005.0</ele>
        <time>2022-11-20T13:42:56.000Z</time>
      </trkpt>
      <trkpt lat="37.06695333" lon="-3.37402">
        <ele>3005.0</ele>
        <time>2022-11-20T13:42:57.000Z</time>
      </trkpt>
      <trkpt lat="37.06694333" lon="-3.37402167">
        <ele>3005.0</ele>
        <time>2022-11-20T13:42:58.000Z</time>
      </trkpt>
      <trkpt lat="37.06693167" lon="-3.37402333">
        <ele>3005.0</ele>
        <time>2022-11-20T13:42:59.000Z</time>
      </trkpt>
      <trkpt lat="37.06692" lon="-3.374025">
        <ele>3005.0</ele>
        <time>2022-11-20T13:43:00.000Z</time>
      </trkpt>
      <trkpt lat="37.06690833" lon="-3.37403">
        <ele>3005.0</ele>
        <time>2022-11-20T13:43:01.000Z</time>
      </trkpt>
      <trkpt lat="37.0669" lon="-3.37403667">
        <ele>3004.0</ele>
        <time>2022-11-20T13:43:02.000Z</time>
      </trkpt>
      <trkpt lat="37.06689167" lon="-3.37404333">
        <ele>3004.0</ele>
        <time>2022-11-20T13:43:03.000Z</time>
      </trkpt>
      <trkpt lat="37.06688167" lon="-3.37404833">
        <ele>3004.0</ele>
        <time>2022-11-20T13:43:04.000Z</time>
      </trkpt>
      <trkpt lat="37.06687167" lon="-3.37405">
        <ele>3004.0</ele>
        <time>2022-11-20T13:43:05.000Z</time>
      </trkpt>
      <trkpt lat="37.06686" lon="-3.37405167">
        <ele>3004.0</ele>
        <time>2022-11-20T13:43:06.000Z</time>
      </trkpt>
      <trkpt lat="37.06685" lon="-3.374055">
        <ele>3004.0</ele>
        <time>2022-11-20T13:43:07.000Z</time>
      </trkpt>
      <trkpt lat="37.06684" lon="-3.37406">
        <ele>3004.0</ele>
        <time>2022-11-20T13:43:08.000Z</time>
      </trkpt>
      <trkpt lat="37.06682833" lon="-3.37406333">
        <ele>3004.0</ele>
        <time>2022-11-20T13:43:09.000Z</time>
      </trkpt>
      <trkpt lat="37.066815" lon="-3.37406833">
        <ele>3004.0</ele>
        <time>2022-11-20T13:43:10.000Z</time>
      </trkpt>
      <trkpt lat="37.06680333" lon="-3.37407">
        <ele>3004.0</ele>
        <time>2022-11-20T13:43:11.000Z</time>
      </trkpt>
      <trkpt lat="37.06679" lon="-3.37407">
        <ele>3003.0</ele>
        <time>2022-11-20T13:43:12.000Z</time>
      </trkpt>
      <trkpt lat="37.06677833" lon="-3.37407167">
        <ele>3003.0</ele>
        <time>2022-11-20T13:43:13.000Z</time>
      </trkpt>
      <trkpt lat="37.066765" lon="-3.37407167">
        <ele>3003.0</ele>
        <time>2022-11-20T13:43:14.000Z</time>
      </trkpt>
      <trkpt lat="37.06675167" lon="-3.37407">
        <ele>3003.0</ele>
        <time>2022-11-20T13:43:15.000Z</time>
      </trkpt>
      <trkpt lat="37.06673833" lon="-3.37406833">
        <ele>3003.0</ele>
        <time>2022-11-20T13:43:16.000Z</time>
      </trkpt>
      <trkpt lat="37.066725" lon="-3.374065">
        <ele>3003.0</ele>
        <time>2022-11-20T13:43:17.000Z</time>
      </trkpt>
      <trkpt lat="37.06671333" lon="-3.37406167">
        <ele>3003.0</ele>
        <time>2022-11-20T13:43:18.000Z</time>
      </trkpt>
      <trkpt lat="37.06670167" lon="-3.37405667">
        <ele>3003.0</ele>
        <time>2022-11-20T13:43:19.000Z</time>
      </trkpt>
      <trkpt lat="37.06668833" lon="-3.37405167">
        <ele>3003.0</ele>
        <time>2022-11-20T13:43:20.000Z</time>
      </trkpt>
      <trkpt lat="37.06667667" lon="-3.37404833">
        <ele>3003.0</ele>
        <time>2022-11-20T13:43:21.000Z</time>
      </trkpt>
      <trkpt lat="37.066665" lon="-3.37404167">
        <ele>3003.0</ele>
        <time>2022-11-20T13:43:22.000Z</time>
      </trkpt>
      <trkpt lat="37.066655" lon="-3.37403333">
        <ele>3002.0</ele>
        <time>2022-11-20T13:43:23.000Z</time>
      </trkpt>
      <trkpt lat="37.06664333" lon="-3.37402667">
        <ele>3002.0</ele>
        <time>2022-11-20T13:43:24.000Z</time>
      </trkpt>
      <trkpt lat="37.06663167" lon="-3.37401833">
        <ele>3002.0</ele>
        <time>2022-11-20T13:43:25.000Z</time>
      </trkpt>
      <trkpt lat="37.06662" lon="-3.37401">
        <ele>3002.0</ele>
        <time>2022-11-20T13:43:26.000Z</time>
      </trkpt>
      <trkpt lat="37.06661" lon="-3.37400333">
        <ele>3002.0</ele>
        <time>2022-11-20T13:43:27.000Z</time>
      </trkpt>
      <trkpt lat="37.06659833" lon="-3.373995">
        <ele>3002.0</ele>
        <time>2022-11-20T13:43:28.000Z</time>
      </trkpt>
      <trkpt lat="37.06658667" lon="-3.37398667">
        <ele>3002.0</ele>
        <time>2022-11-20T13:43:29.000Z</time>
      </trkpt>
      <trkpt lat="37.066575" lon="-3.37397833">
        <ele>3002.0</ele>
        <time>2022-11-20T13:43:30.000Z</time>
      </trkpt>
      <trkpt lat="37.06656333" lon="-3.37397">
        <ele>3002.0</ele>
        <time>2022-11-20T13:43:31.000Z</time>
      </trkpt>
      <trkpt lat="37.06655167" lon="-3.37396333">
        <ele>3001.0</ele>
        <time>2022-11-20T13:43:32.000Z</time>
      </trkpt>
      <trkpt lat="37.06654" lon="-3.37395667">
        <ele>3001.0</ele>
        <time>2022-11-20T13:43:33.000Z</time>
      </trkpt>
      <trkpt lat="37.06652833" lon="-3.37395">
        <ele>3001.0</ele>
        <time>2022-11-20T13:43:34.000Z</time>
      </trkpt>
      <trkpt lat="37.06651667" lon="-3.37394333">
        <ele>3001.0</ele>
        <time>2022-11-20T13:43:35.000Z</time>
      </trkpt>
      <trkpt lat="37.06650333" lon="-3.37393667">
        <ele>3001.0</ele>
        <time>2022-11-20T13:43:36.000Z</time>
      </trkpt>
      <trkpt lat="37.06649167" lon="-3.37393">
        <ele>3001.0</ele>
        <time>2022-11-20T13:43:37.000Z</time>
      </trkpt>
      <trkpt lat="37.06648" lon="-3.37392667">
        <ele>3001.0</ele>
        <time>2022-11-20T13:43:38.000Z</time>
      </trkpt>
      <trkpt lat="37.06646667" lon="-3.37392333">
        <ele>3000.0</ele>
        <time>2022-11-20T13:43:39.000Z</time>
      </trkpt>
      <trkpt lat="37.066455" lon="-3.37392167">
        <ele>3000.0</ele>
        <time>2022-11-20T13:43:40.000Z</time>
      </trkpt>
      <trkpt lat="37.06644167" lon="-3.37392167">
        <ele>3000.0</ele>
        <time>2022-11-20T13:43:41.000Z</time>
      </trkpt>
      <trkpt lat="37.06642833" lon="-3.37392333">
        <ele>3000.0</ele>
        <time>2022-11-20T13:43:42.000Z</time>
      </trkpt>
      <trkpt lat="37.06641667" lon="-3.373925">
        <ele>3000.0</ele>
        <time>2022-11-20T13:43:43.000Z</time>
      </trkpt>
      <trkpt lat="37.066405" lon="-3.37393">
        <ele>3000.0</ele>
        <time>2022-11-20T13:43:44.000Z</time>
      </trkpt>
      <trkpt lat="37.06639333" lon="-3.373935">
        <ele>2999.0</ele>
        <time>2022-11-20T13:43:45.000Z</time>
      </trkpt>
      <trkpt lat="37.06638" lon="-3.37394">
        <ele>2999.0</ele>
        <time>2022-11-20T13:43:46.000Z</time>
      </trkpt>
      <trkpt lat="37.06637" lon="-3.37394667">
        <ele>2999.0</ele>
        <time>2022-11-20T13:43:47.000Z</time>
      </trkpt>
      <trkpt lat="37.06635833" lon="-3.37395167">
        <ele>2999.0</ele>
        <time>2022-11-20T13:43:48.000Z</time>
      </trkpt>
      <trkpt lat="37.06634667" lon="-3.37395833">
        <ele>2999.0</ele>
        <time>2022-11-20T13:43:49.000Z</time>
      </trkpt>
      <trkpt lat="37.066335" lon="-3.37396667">
        <ele>2999.0</ele>
        <time>2022-11-20T13:43:50.000Z</time>
      </trkpt>
      <trkpt lat="37.066325" lon="-3.37397667">
        <ele>2999.0</ele>
        <time>2022-11-20T13:43:51.000Z</time>
      </trkpt>
      <trkpt lat="37.06631333" lon="-3.37398833">
        <ele>2999.0</ele>
        <time>2022-11-20T13:43:52.000Z</time>
      </trkpt>
      <trkpt lat="37.06630333" lon="-3.37400167">
        <ele>2999.0</ele>
        <time>2022-11-20T13:43:53.000Z</time>
      </trkpt>
      <trkpt lat="37.066295" lon="-3.37401667">
        <ele>2998.0</ele>
        <time>2022-11-20T13:43:54.000Z</time>
      </trkpt>
      <trkpt lat="37.06628667" lon="-3.37403167">
        <ele>2998.0</ele>
        <time>2022-11-20T13:43:55.000Z</time>
      </trkpt>
      <trkpt lat="37.06628" lon="-3.37404667">
        <ele>2998.0</ele>
        <time>2022-11-20T13:43:56.000Z</time>
      </trkpt>
      <trkpt lat="37.06627667" lon="-3.37406333">
        <ele>2998.0</ele>
        <time>2022-11-20T13:43:57.000Z</time>
      </trkpt>
      <trkpt lat="37.06627333" lon="-3.37408">
        <ele>2997.0</ele>
        <time>2022-11-20T13:43:58.000Z</time>
      </trkpt>
      <trkpt lat="37.06627167" lon="-3.374095">
        <ele>2997.0</ele>
        <time>2022-11-20T13:43:59.000Z</time>
      </trkpt>
      <trkpt lat="37.06627" lon="-3.37411">
        <ele>2997.0</ele>
        <time>2022-11-20T13:44:00.000Z</time>
      </trkpt>
      <trkpt lat="37.06627" lon="-3.374125">
        <ele>2996.0</ele>
        <time>2022-11-20T13:44:01.000Z</time>
      </trkpt>
      <trkpt lat="37.06627" lon="-3.37414">
        <ele>2996.0</ele>
        <time>2022-11-20T13:44:02.000Z</time>
      </trkpt>
      <trkpt lat="37.06627333" lon="-3.374155">
        <ele>2996.0</ele>
        <time>2022-11-20T13:44:03.000Z</time>
      </trkpt>
      <trkpt lat="37.066275" lon="-3.37417">
        <ele>2996.0</ele>
        <time>2022-11-20T13:44:04.000Z</time>
      </trkpt>
      <trkpt lat="37.06627833" lon="-3.374185">
        <ele>2995.0</ele>
        <time>2022-11-20T13:44:05.000Z</time>
      </trkpt>
      <trkpt lat="37.06628333" lon="-3.37419833">
        <ele>2995.0</ele>
        <time>2022-11-20T13:44:06.000Z</time>
      </trkpt>
      <trkpt lat="37.06628833" lon="-3.37421167">
        <ele>2995.0</ele>
        <time>2022-11-20T13:44:07.000Z</time>
      </trkpt>
      <trkpt lat="37.066295" lon="-3.37422333">
        <ele>2995.0</ele>
        <time>2022-11-20T13:44:08.000Z</time>
      </trkpt>
      <trkpt lat="37.06630333" lon="-3.37423333">
        <ele>2994.0</ele>
        <time>2022-11-20T13:44:09.000Z</time>
      </trkpt>
      <trkpt lat="37.06631167" lon="-3.37424333">
        <ele>2994.0</ele>
        <time>2022-11-20T13:44:10.000Z</time>
      </trkpt>
      <trkpt lat="37.06632333" lon="-3.37425333">
        <ele>2994.0</ele>
        <time>2022-11-20T13:44:11.000Z</time>
      </trkpt>
      <trkpt lat="37.06633333" lon="-3.37426333">
        <ele>2994.0</ele>
        <time>2022-11-20T13:44:12.000Z</time>
      </trkpt>
      <trkpt lat="37.066345" lon="-3.37427333">
        <ele>2993.0</ele>
        <time>2022-11-20T13:44:13.000Z</time>
      </trkpt>
      <trkpt lat="37.06635667" lon="-3.37428333">
        <ele>2993.0</ele>
        <time>2022-11-20T13:44:14.000Z</time>
      </trkpt>
      <trkpt lat="37.06636667" lon="-3.37429167">
        <ele>2993.0</ele>
        <time>2022-11-20T13:44:15.000Z</time>
      </trkpt>
      <trkpt lat="37.06638" lon="-3.37429833">
        <ele>2993.0</ele>
        <time>2022-11-20T13:44:16.000Z</time>
      </trkpt>
      <trkpt lat="37.06639333" lon="-3.37430167">
        <ele>2992.0</ele>
        <time>2022-11-20T13:44:17.000Z</time>
      </trkpt>
      <trkpt lat="37.06640667" lon="-3.37430667">
        <ele>2992.0</ele>
        <time>2022-11-20T13:44:18.000Z</time>
      </trkpt>
      <trkpt lat="37.06641833" lon="-3.37431167">
        <ele>2992.0</ele>
        <time>2022-11-20T13:44:19.000Z</time>
      </trkpt>
      <trkpt lat="37.06643167" lon="-3.374315">
        <ele>2992.0</ele>
        <time>2022-11-20T13:44:20.000Z</time>
      </trkpt>
      <trkpt lat="37.066445" lon="-3.37431833">
        <ele>2992.0</ele>
        <time>2022-11-20T13:44:21.000Z</time>
      </trkpt>
      <trkpt lat="37.06645833" lon="-3.37432167">
        <ele>2991.0</ele>
        <time>2022-11-20T13:44:22.000Z</time>
      </trkpt>
      <trkpt lat="37.06647167" lon="-3.374325">
        <ele>2991.0</ele>
        <time>2022-11-20T13:44:23.000Z</time>
      </trkpt>
      <trkpt lat="37.06648333" lon="-3.37432667">
        <ele>2991.0</ele>
        <time>2022-11-20T13:44:24.000Z</time>
      </trkpt>
      <trkpt lat="37.06649667" lon="-3.37432667">
        <ele>2991.0</ele>
        <time>2022-11-20T13:44:25.000Z</time>
      </trkpt>
      <trkpt lat="37.06651167" lon="-3.37433">
        <ele>2991.0</ele>
        <time>2022-11-20T13:44:26.000Z</time>
      </trkpt>
      <trkpt lat="37.06652333" lon="-3.374335">
        <ele>2991.0</ele>
        <time>2022-11-20T13:44:27.000Z</time>
      </trkpt>
      <trkpt lat="37.06653667" lon="-3.37433833">
        <ele>2991.0</ele>
        <time>2022-11-20T13:44:28.000Z</time>
      </trkpt>
      <trkpt lat="37.06655" lon="-3.37433833">
        <ele>2990.0</ele>
        <time>2022-11-20T13:44:29.000Z</time>
      </trkpt>
      <trkpt lat="37.06656333" lon="-3.37433833">
        <ele>2990.0</ele>
        <time>2022-11-20T13:44:30.000Z</time>
      </trkpt>
      <trkpt lat="37.066575" lon="-3.37433667">
        <ele>2990.0</ele>
        <time>2022-11-20T13:44:31.000Z</time>
      </trkpt>
      <trkpt lat="37.06658667" lon="-3.37433667">
        <ele>2990.0</ele>
        <time>2022-11-20T13:44:32.000Z</time>
      </trkpt>
      <trkpt lat="37.06659833" lon="-3.37433833">
        <ele>2990.0</ele>
        <time>2022-11-20T13:44:33.000Z</time>
      </trkpt>
      <trkpt lat="37.06661167" lon="-3.37433833">
        <ele>2990.0</ele>
        <time>2022-11-20T13:44:34.000Z</time>
      </trkpt>
      <trkpt lat="37.066625" lon="-3.37434">
        <ele>2990.0</ele>
        <time>2022-11-20T13:44:35.000Z</time>
      </trkpt>
      <trkpt lat="37.06663667" lon="-3.37434167">
        <ele>2990.0</ele>
        <time>2022-11-20T13:44:36.000Z</time>
      </trkpt>
      <trkpt lat="37.06665" lon="-3.37434333">
        <ele>2989.0</ele>
        <time>2022-11-20T13:44:37.000Z</time>
      </trkpt>
      <trkpt lat="37.06666333" lon="-3.374345">
        <ele>2989.0</ele>
        <time>2022-11-20T13:44:38.000Z</time>
      </trkpt>
      <trkpt lat="37.06667667" lon="-3.37434667">
        <ele>2989.0</ele>
        <time>2022-11-20T13:44:39.000Z</time>
      </trkpt>
      <trkpt lat="37.06669" lon="-3.37435">
        <ele>2989.0</ele>
        <time>2022-11-20T13:44:40.000Z</time>
      </trkpt>
      <trkpt lat="37.06670167" lon="-3.37435333">
        <ele>2989.0</ele>
        <time>2022-11-20T13:44:41.000Z</time>
      </trkpt>
      <trkpt lat="37.06671333" lon="-3.37435667">
        <ele>2989.0</ele>
        <time>2022-11-20T13:44:42.000Z</time>
      </trkpt>
      <trkpt lat="37.06672667" lon="-3.37435833">
        <ele>2989.0</ele>
        <time>2022-11-20T13:44:43.000Z</time>
      </trkpt>
      <trkpt lat="37.06674" lon="-3.37436">
        <ele>2989.0</ele>
        <time>2022-11-20T13:44:44.000Z</time>
      </trkpt>
      <trkpt lat="37.06675167" lon="-3.37436333">
        <ele>2988.0</ele>
        <time>2022-11-20T13:44:45.000Z</time>
      </trkpt>
      <trkpt lat="37.066765" lon="-3.37436667">
        <ele>2988.0</ele>
        <time>2022-11-20T13:44:46.000Z</time>
      </trkpt>
      <trkpt lat="37.06677833" lon="-3.37436833">
        <ele>2988.0</ele>
        <time>2022-11-20T13:44:47.000Z</time>
      </trkpt>
      <trkpt lat="37.06679" lon="-3.37437333">
        <ele>2988.0</ele>
        <time>2022-11-20T13:44:48.000Z</time>
      </trkpt>
      <trkpt lat="37.06680167" lon="-3.37437667">
        <ele>2988.0</ele>
        <time>2022-11-20T13:44:49.000Z</time>
      </trkpt>
      <trkpt lat="37.066815" lon="-3.37438">
        <ele>2988.0</ele>
        <time>2022-11-20T13:44:50.000Z</time>
      </trkpt>
      <trkpt lat="37.06682667" lon="-3.37438333">
        <ele>2988.0</ele>
        <time>2022-11-20T13:44:51.000Z</time>
      </trkpt>
      <trkpt lat="37.06683833" lon="-3.374385">
        <ele>2987.0</ele>
        <time>2022-11-20T13:44:52.000Z</time>
      </trkpt>
      <trkpt lat="37.06685167" lon="-3.37438667">
        <ele>2987.0</ele>
        <time>2022-11-20T13:44:53.000Z</time>
      </trkpt>
      <trkpt lat="37.066865" lon="-3.37438833">
        <ele>2987.0</ele>
        <time>2022-11-20T13:44:54.000Z</time>
      </trkpt>
      <trkpt lat="37.06687833" lon="-3.37439">
        <ele>2987.0</ele>
        <time>2022-11-20T13:44:55.000Z</time>
      </trkpt>
      <trkpt lat="37.06689167" lon="-3.37439167">
        <ele>2987.0</ele>
        <time>2022-11-20T13:44:56.000Z</time>
      </trkpt>
      <trkpt lat="37.06690333" lon="-3.37439333">
        <ele>2987.0</ele>
        <time>2022-11-20T13:44:57.000Z</time>
      </trkpt>
      <trkpt lat="37.06691667" lon="-3.374395">
        <ele>2987.0</ele>
        <time>2022-11-20T13:44:58.000Z</time>
      </trkpt>
      <trkpt lat="37.06692833" lon="-3.374395">
        <ele>2986.0</ele>
        <time>2022-11-20T13:44:59.000Z</time>
      </trkpt>
      <trkpt lat="37.06694" lon="-3.37439667">
        <ele>2986.0</ele>
        <time>2022-11-20T13:45:00.000Z</time>
      </trkpt>
      <trkpt lat="37.06695667" lon="-3.37439667">
        <ele>2986.0</ele>
        <time>2022-11-20T13:45:01.000Z</time>
      </trkpt>
      <trkpt lat="37.06697" lon="-3.37439833">
        <ele>2986.0</ele>
        <time>2022-11-20T13:45:02.000Z</time>
      </trkpt>
      <trkpt lat="37.06698" lon="-3.37439667">
        <ele>2986.0</ele>
        <time>2022-11-20T13:45:03.000Z</time>
      </trkpt>
      <trkpt lat="37.06699167" lon="-3.37439833">
        <ele>2986.0</ele>
        <time>2022-11-20T13:45:04.000Z</time>
      </trkpt>
      <trkpt lat="37.06700333" lon="-3.37439833">
        <ele>2986.0</ele>
        <time>2022-11-20T13:45:05.000Z</time>
      </trkpt>
      <trkpt lat="37.067015" lon="-3.37439833">
        <ele>2986.0</ele>
        <time>2022-11-20T13:45:06.000Z</time>
      </trkpt>
      <trkpt lat="37.06702667" lon="-3.3744">
        <ele>2986.0</ele>
        <time>2022-11-20T13:45:07.000Z</time>
      </trkpt>
      <trkpt lat="37.06703833" lon="-3.37440333">
        <ele>2986.0</ele>
        <time>2022-11-20T13:45:08.000Z</time>
      </trkpt>
      <trkpt lat="37.06704833" lon="-3.37440833">
        <ele>2986.0</ele>
        <time>2022-11-20T13:45:09.000Z</time>
      </trkpt>
      <trkpt lat="37.06706167" lon="-3.37441167">
        <ele>2986.0</ele>
        <time>2022-11-20T13:45:10.000Z</time>
      </trkpt>
      <trkpt lat="37.06707333" lon="-3.374415">
        <ele>2986.0</ele>
        <time>2022-11-20T13:45:11.000Z</time>
      </trkpt>
      <trkpt lat="37.06708667" lon="-3.37442">
        <ele>2986.0</ele>
        <time>2022-11-20T13:45:12.000Z</time>
      </trkpt>
      <trkpt lat="37.06709833" lon="-3.37442667">
        <ele>2986.0</ele>
        <time>2022-11-20T13:45:13.000Z</time>
      </trkpt>
      <trkpt lat="37.06710833" lon="-3.37443167">
        <ele>2986.0</ele>
        <time>2022-11-20T13:45:14.000Z</time>
      </trkpt>
      <trkpt lat="37.06712167" lon="-3.37443833">
        <ele>2986.0</ele>
        <time>2022-11-20T13:45:15.000Z</time>
      </trkpt>
      <trkpt lat="37.06713167" lon="-3.37444333">
        <ele>2986.0</ele>
        <time>2022-11-20T13:45:16.000Z</time>
      </trkpt>
      <trkpt lat="37.06714167" lon="-3.37444833">
        <ele>2986.0</ele>
        <time>2022-11-20T13:45:17.000Z</time>
      </trkpt>
      <trkpt lat="37.06715167" lon="-3.37445667">
        <ele>2985.0</ele>
        <time>2022-11-20T13:45:18.000Z</time>
      </trkpt>
      <trkpt lat="37.06716167" lon="-3.37446333">
        <ele>2985.0</ele>
        <time>2022-11-20T13:45:19.000Z</time>
      </trkpt>
      <trkpt lat="37.06717167" lon="-3.37446833">
        <ele>2985.0</ele>
        <time>2022-11-20T13:45:20.000Z</time>
      </trkpt>
      <trkpt lat="37.06718" lon="-3.37447333">
        <ele>2985.0</ele>
        <time>2022-11-20T13:45:21.000Z</time>
      </trkpt>
      <trkpt lat="37.06719" lon="-3.37447833">
        <ele>2985.0</ele>
        <time>2022-11-20T13:45:22.000Z</time>
      </trkpt>
      <trkpt lat="37.0672" lon="-3.37448333">
        <ele>2985.0</ele>
        <time>2022-11-20T13:45:23.000Z</time>
      </trkpt>
      <trkpt lat="37.06721167" lon="-3.37449">
        <ele>2985.0</ele>
        <time>2022-11-20T13:45:24.000Z</time>
      </trkpt>
      <trkpt lat="37.06722167" lon="-3.374495">
        <ele>2984.0</ele>
        <time>2022-11-20T13:45:25.000Z</time>
      </trkpt>
      <trkpt lat="37.06723" lon="-3.3745">
        <ele>2984.0</ele>
        <time>2022-11-20T13:45:26.000Z</time>
      </trkpt>
      <trkpt lat="37.06724" lon="-3.37450667">
        <ele>2984.0</ele>
        <time>2022-11-20T13:45:27.000Z</time>
      </trkpt>
      <trkpt lat="37.06725" lon="-3.37451333">
        <ele>2984.0</ele>
        <time>2022-11-20T13:45:28.000Z</time>
      </trkpt>
      <trkpt lat="37.06726167" lon="-3.37452">
        <ele>2984.0</ele>
        <time>2022-11-20T13:45:29.000Z</time>
      </trkpt>
      <trkpt lat="37.06727167" lon="-3.37452833">
        <ele>2984.0</ele>
        <time>2022-11-20T13:45:30.000Z</time>
      </trkpt>
      <trkpt lat="37.06728167" lon="-3.37453333">
        <ele>2984.0</ele>
        <time>2022-11-20T13:45:31.000Z</time>
      </trkpt>
      <trkpt lat="37.06729333" lon="-3.37453833">
        <ele>2984.0</ele>
        <time>2022-11-20T13:45:32.000Z</time>
      </trkpt>
      <trkpt lat="37.067305" lon="-3.37454667">
        <ele>2983.0</ele>
        <time>2022-11-20T13:45:33.000Z</time>
      </trkpt>
      <trkpt lat="37.06731667" lon="-3.37455333">
        <ele>2983.0</ele>
        <time>2022-11-20T13:45:34.000Z</time>
      </trkpt>
      <trkpt lat="37.06732833" lon="-3.37456167">
        <ele>2983.0</ele>
        <time>2022-11-20T13:45:35.000Z</time>
      </trkpt>
      <trkpt lat="37.06734" lon="-3.37457">
        <ele>2983.0</ele>
        <time>2022-11-20T13:45:36.000Z</time>
      </trkpt>
      <trkpt lat="37.06735" lon="-3.37457667">
        <ele>2983.0</ele>
        <time>2022-11-20T13:45:37.000Z</time>
      </trkpt>
      <trkpt lat="37.06736167" lon="-3.37458333">
        <ele>2983.0</ele>
        <time>2022-11-20T13:45:38.000Z</time>
      </trkpt>
      <trkpt lat="37.06737167" lon="-3.37458833">
        <ele>2983.0</ele>
        <time>2022-11-20T13:45:39.000Z</time>
      </trkpt>
      <trkpt lat="37.06738333" lon="-3.374595">
        <ele>2983.0</ele>
        <time>2022-11-20T13:45:40.000Z</time>
      </trkpt>
      <trkpt lat="37.06739333" lon="-3.3746">
        <ele>2982.0</ele>
        <time>2022-11-20T13:45:41.000Z</time>
      </trkpt>
      <trkpt lat="37.067405" lon="-3.37460667">
        <ele>2982.0</ele>
        <time>2022-11-20T13:45:42.000Z</time>
      </trkpt>
      <trkpt lat="37.06741667" lon="-3.37461167">
        <ele>2982.0</ele>
        <time>2022-11-20T13:45:43.000Z</time>
      </trkpt>
      <trkpt lat="37.06742833" lon="-3.37462">
        <ele>2982.0</ele>
        <time>2022-11-20T13:45:44.000Z</time>
      </trkpt>
      <trkpt lat="37.06744" lon="-3.37462667">
        <ele>2982.0</ele>
        <time>2022-11-20T13:45:45.000Z</time>
      </trkpt>
      <trkpt lat="37.06745167" lon="-3.374635">
        <ele>2982.0</ele>
        <time>2022-11-20T13:45:46.000Z</time>
      </trkpt>
      <trkpt lat="37.06746333" lon="-3.37464333">
        <ele>2981.0</ele>
        <time>2022-11-20T13:45:47.000Z</time>
      </trkpt>
      <trkpt lat="37.067475" lon="-3.37465167">
        <ele>2981.0</ele>
        <time>2022-11-20T13:45:48.000Z</time>
      </trkpt>
      <trkpt lat="37.067485" lon="-3.37466">
        <ele>2981.0</ele>
        <time>2022-11-20T13:45:49.000Z</time>
      </trkpt>
      <trkpt lat="37.067495" lon="-3.37466833">
        <ele>2981.0</ele>
        <time>2022-11-20T13:45:50.000Z</time>
      </trkpt>
      <trkpt lat="37.067505" lon="-3.37467667">
        <ele>2981.0</ele>
        <time>2022-11-20T13:45:51.000Z</time>
      </trkpt>
      <trkpt lat="37.06751667" lon="-3.374685">
        <ele>2981.0</ele>
        <time>2022-11-20T13:45:52.000Z</time>
      </trkpt>
      <trkpt lat="37.06752667" lon="-3.37469333">
        <ele>2981.0</ele>
        <time>2022-11-20T13:45:53.000Z</time>
      </trkpt>
      <trkpt lat="37.06753833" lon="-3.3747">
        <ele>2981.0</ele>
        <time>2022-11-20T13:45:54.000Z</time>
      </trkpt>
      <trkpt lat="37.06755" lon="-3.37470667">
        <ele>2981.0</ele>
        <time>2022-11-20T13:45:55.000Z</time>
      </trkpt>
      <trkpt lat="37.06756167" lon="-3.374715">
        <ele>2980.0</ele>
        <time>2022-11-20T13:45:56.000Z</time>
      </trkpt>
      <trkpt lat="37.06757333" lon="-3.37472333">
        <ele>2980.0</ele>
        <time>2022-11-20T13:45:57.000Z</time>
      </trkpt>
      <trkpt lat="37.067585" lon="-3.37473167">
        <ele>2980.0</ele>
        <time>2022-11-20T13:45:58.000Z</time>
      </trkpt>
      <trkpt lat="37.067595" lon="-3.37473833">
        <ele>2980.0</ele>
        <time>2022-11-20T13:45:59.000Z</time>
      </trkpt>
      <trkpt lat="37.06760667" lon="-3.37474667">
        <ele>2980.0</ele>
        <time>2022-11-20T13:46:00.000Z</time>
      </trkpt>
      <trkpt lat="37.06762" lon="-3.37475333">
        <ele>2980.0</ele>
        <time>2022-11-20T13:46:01.000Z</time>
      </trkpt>
      <trkpt lat="37.06763167" lon="-3.37475833">
        <ele>2980.0</ele>
        <time>2022-11-20T13:46:02.000Z</time>
      </trkpt>
      <trkpt lat="37.06764333" lon="-3.374765">
        <ele>2980.0</ele>
        <time>2022-11-20T13:46:03.000Z</time>
      </trkpt>
      <trkpt lat="37.06765667" lon="-3.37477167">
        <ele>2980.0</ele>
        <time>2022-11-20T13:46:04.000Z</time>
      </trkpt>
      <trkpt lat="37.06766833" lon="-3.37477833">
        <ele>2980.0</ele>
        <time>2022-11-20T13:46:05.000Z</time>
      </trkpt>
      <trkpt lat="37.06768" lon="-3.374785">
        <ele>2979.0</ele>
        <time>2022-11-20T13:46:06.000Z</time>
      </trkpt>
      <trkpt lat="37.06769167" lon="-3.37479333">
        <ele>2979.0</ele>
        <time>2022-11-20T13:46:07.000Z</time>
      </trkpt>
      <trkpt lat="37.06770167" lon="-3.3748">
        <ele>2979.0</ele>
        <time>2022-11-20T13:46:08.000Z</time>
      </trkpt>
      <trkpt lat="37.06771333" lon="-3.37480833">
        <ele>2979.0</ele>
        <time>2022-11-20T13:46:09.000Z</time>
      </trkpt>
      <trkpt lat="37.067725" lon="-3.374815">
        <ele>2979.0</ele>
        <time>2022-11-20T13:46:10.000Z</time>
      </trkpt>
      <trkpt lat="37.06773667" lon="-3.37482167">
        <ele>2979.0</ele>
        <time>2022-11-20T13:46:11.000Z</time>
      </trkpt>
      <trkpt lat="37.06774833" lon="-3.37482833">
        <ele>2979.0</ele>
        <time>2022-11-20T13:46:12.000Z</time>
      </trkpt>
      <trkpt lat="37.06776" lon="-3.37483333">
        <ele>2978.0</ele>
        <time>2022-11-20T13:46:13.000Z</time>
      </trkpt>
      <trkpt lat="37.06777167" lon="-3.37484">
        <ele>2978.0</ele>
        <time>2022-11-20T13:46:14.000Z</time>
      </trkpt>
      <trkpt lat="37.06778667" lon="-3.37485">
        <ele>2978.0</ele>
        <time>2022-11-20T13:46:15.000Z</time>
      </trkpt>
      <trkpt lat="37.0678" lon="-3.37485667">
        <ele>2978.0</ele>
        <time>2022-11-20T13:46:16.000Z</time>
      </trkpt>
      <trkpt lat="37.06781333" lon="-3.374865">
        <ele>2978.0</ele>
        <time>2022-11-20T13:46:17.000Z</time>
      </trkpt>
      <trkpt lat="37.067825" lon="-3.374875">
        <ele>2978.0</ele>
        <time>2022-11-20T13:46:18.000Z</time>
      </trkpt>
      <trkpt lat="37.06783667" lon="-3.37488333">
        <ele>2978.0</ele>
        <time>2022-11-20T13:46:19.000Z</time>
      </trkpt>
      <trkpt lat="37.06785" lon="-3.37489333">
        <ele>2978.0</ele>
        <time>2022-11-20T13:46:20.000Z</time>
      </trkpt>
      <trkpt lat="37.06785833" lon="-3.374905">
        <ele>2978.0</ele>
        <time>2022-11-20T13:46:21.000Z</time>
      </trkpt>
      <trkpt lat="37.06786833" lon="-3.37491667">
        <ele>2978.0</ele>
        <time>2022-11-20T13:46:22.000Z</time>
      </trkpt>
      <trkpt lat="37.06788" lon="-3.374925">
        <ele>2978.0</ele>
        <time>2022-11-20T13:46:23.000Z</time>
      </trkpt>
      <trkpt lat="37.06789167" lon="-3.37493667">
        <ele>2978.0</ele>
        <time>2022-11-20T13:46:24.000Z</time>
      </trkpt>
      <trkpt lat="37.06790167" lon="-3.37494833">
        <ele>2978.0</ele>
        <time>2022-11-20T13:46:25.000Z</time>
      </trkpt>
      <trkpt lat="37.06791167" lon="-3.37496167">
        <ele>2977.0</ele>
        <time>2022-11-20T13:46:26.000Z</time>
      </trkpt>
      <trkpt lat="37.06792333" lon="-3.37497167">
        <ele>2977.0</ele>
        <time>2022-11-20T13:46:27.000Z</time>
      </trkpt>
      <trkpt lat="37.06793333" lon="-3.37498333">
        <ele>2977.0</ele>
        <time>2022-11-20T13:46:28.000Z</time>
      </trkpt>
      <trkpt lat="37.067945" lon="-3.37499333">
        <ele>2977.0</ele>
        <time>2022-11-20T13:46:29.000Z</time>
      </trkpt>
      <trkpt lat="37.067955" lon="-3.37500333">
        <ele>2977.0</ele>
        <time>2022-11-20T13:46:30.000Z</time>
      </trkpt>
      <trkpt lat="37.06796333" lon="-3.37501333">
        <ele>2977.0</ele>
        <time>2022-11-20T13:46:31.000Z</time>
      </trkpt>
      <trkpt lat="37.06797167" lon="-3.375025">
        <ele>2977.0</ele>
        <time>2022-11-20T13:46:32.000Z</time>
      </trkpt>
      <trkpt lat="37.06798167" lon="-3.37503833">
        <ele>2977.0</ele>
        <time>2022-11-20T13:46:33.000Z</time>
      </trkpt>
      <trkpt lat="37.06799" lon="-3.37505">
        <ele>2977.0</ele>
        <time>2022-11-20T13:46:34.000Z</time>
      </trkpt>
      <trkpt lat="37.06799833" lon="-3.37506167">
        <ele>2977.0</ele>
        <time>2022-11-20T13:46:35.000Z</time>
      </trkpt>
      <trkpt lat="37.06800667" lon="-3.37507167">
        <ele>2977.0</ele>
        <time>2022-11-20T13:46:36.000Z</time>
      </trkpt>
      <trkpt lat="37.068015" lon="-3.37508333">
        <ele>2977.0</ele>
        <time>2022-11-20T13:46:37.000Z</time>
      </trkpt>
      <trkpt lat="37.06802167" lon="-3.37509333">
        <ele>2976.0</ele>
        <time>2022-11-20T13:46:38.000Z</time>
      </trkpt>
      <trkpt lat="37.06802833" lon="-3.37510833">
        <ele>2976.0</ele>
        <time>2022-11-20T13:46:39.000Z</time>
      </trkpt>
      <trkpt lat="37.06803333" lon="-3.37512167">
        <ele>2976.0</ele>
        <time>2022-11-20T13:46:40.000Z</time>
      </trkpt>
      <trkpt lat="37.06804" lon="-3.37513">
        <ele>2976.0</ele>
        <time>2022-11-20T13:46:41.000Z</time>
      </trkpt>
      <trkpt lat="37.06804833" lon="-3.37514">
        <ele>2976.0</ele>
        <time>2022-11-20T13:46:42.000Z</time>
      </trkpt>
      <trkpt lat="37.06805667" lon="-3.37515167">
        <ele>2976.0</ele>
        <time>2022-11-20T13:46:43.000Z</time>
      </trkpt>
      <trkpt lat="37.06806167" lon="-3.37516333">
        <ele>2976.0</ele>
        <time>2022-11-20T13:46:44.000Z</time>
      </trkpt>
      <trkpt lat="37.06806833" lon="-3.375175">
        <ele>2976.0</ele>
        <time>2022-11-20T13:46:45.000Z</time>
      </trkpt>
      <trkpt lat="37.06807667" lon="-3.37518667">
        <ele>2975.0</ele>
        <time>2022-11-20T13:46:46.000Z</time>
      </trkpt>
      <trkpt lat="37.06808167" lon="-3.37519667">
        <ele>2975.0</ele>
        <time>2022-11-20T13:46:47.000Z</time>
      </trkpt>
      <trkpt lat="37.06808833" lon="-3.37520833">
        <ele>2975.0</ele>
        <time>2022-11-20T13:46:48.000Z</time>
      </trkpt>
      <trkpt lat="37.068095" lon="-3.37522167">
        <ele>2975.0</ele>
        <time>2022-11-20T13:46:49.000Z</time>
      </trkpt>
      <trkpt lat="37.06810167" lon="-3.375235">
        <ele>2975.0</ele>
        <time>2022-11-20T13:46:50.000Z</time>
      </trkpt>
      <trkpt lat="37.06810833" lon="-3.37524833">
        <ele>2975.0</ele>
        <time>2022-11-20T13:46:51.000Z</time>
      </trkpt>
      <trkpt lat="37.068115" lon="-3.37526">
        <ele>2975.0</ele>
        <time>2022-11-20T13:46:52.000Z</time>
      </trkpt>
      <trkpt lat="37.06812167" lon="-3.37527167">
        <ele>2975.0</ele>
        <time>2022-11-20T13:46:53.000Z</time>
      </trkpt>
      <trkpt lat="37.06812833" lon="-3.375285">
        <ele>2975.0</ele>
        <time>2022-11-20T13:46:54.000Z</time>
      </trkpt>
      <trkpt lat="37.06813333" lon="-3.3753">
        <ele>2975.0</ele>
        <time>2022-11-20T13:46:55.000Z</time>
      </trkpt>
      <trkpt lat="37.06814" lon="-3.37531333">
        <ele>2974.0</ele>
        <time>2022-11-20T13:46:56.000Z</time>
      </trkpt>
      <trkpt lat="37.06814667" lon="-3.37532667">
        <ele>2974.0</ele>
        <time>2022-11-20T13:46:57.000Z</time>
      </trkpt>
      <trkpt lat="37.06815167" lon="-3.37533833">
        <ele>2974.0</ele>
        <time>2022-11-20T13:46:58.000Z</time>
      </trkpt>
      <trkpt lat="37.068155" lon="-3.37534667">
        <ele>2974.0</ele>
        <time>2022-11-20T13:46:59.000Z</time>
      </trkpt>
      <trkpt lat="37.06816" lon="-3.37535333">
        <ele>2974.0</ele>
        <time>2022-11-20T13:47:00.000Z</time>
      </trkpt>
      <trkpt lat="37.06816667" lon="-3.37536167">
        <ele>2974.0</ele>
        <time>2022-11-20T13:47:01.000Z</time>
      </trkpt>
      <trkpt lat="37.06817333" lon="-3.37537333">
        <ele>2974.0</ele>
        <time>2022-11-20T13:47:02.000Z</time>
      </trkpt>
      <trkpt lat="37.06818" lon="-3.37538667">
        <ele>2974.0</ele>
        <time>2022-11-20T13:47:03.000Z</time>
      </trkpt>
      <trkpt lat="37.06818667" lon="-3.37539667">
        <ele>2974.0</ele>
        <time>2022-11-20T13:47:04.000Z</time>
      </trkpt>
      <trkpt lat="37.06819167" lon="-3.37541">
        <ele>2974.0</ele>
        <time>2022-11-20T13:47:05.000Z</time>
      </trkpt>
      <trkpt lat="37.06819833" lon="-3.37542167">
        <ele>2974.0</ele>
        <time>2022-11-20T13:47:06.000Z</time>
      </trkpt>
      <trkpt lat="37.06820333" lon="-3.375435">
        <ele>2974.0</ele>
        <time>2022-11-20T13:47:07.000Z</time>
      </trkpt>
      <trkpt lat="37.06820833" lon="-3.37544833">
        <ele>2974.0</ele>
        <time>2022-11-20T13:47:08.000Z</time>
      </trkpt>
      <trkpt lat="37.06821333" lon="-3.37546333">
        <ele>2974.0</ele>
        <time>2022-11-20T13:47:09.000Z</time>
      </trkpt>
      <trkpt lat="37.06822" lon="-3.37547667">
        <ele>2974.0</ele>
        <time>2022-11-20T13:47:10.000Z</time>
      </trkpt>
      <trkpt lat="37.06822667" lon="-3.37549">
        <ele>2974.0</ele>
        <time>2022-11-20T13:47:11.000Z</time>
      </trkpt>
      <trkpt lat="37.06823167" lon="-3.37550333">
        <ele>2974.0</ele>
        <time>2022-11-20T13:47:12.000Z</time>
      </trkpt>
      <trkpt lat="37.06823667" lon="-3.37551833">
        <ele>2973.0</ele>
        <time>2022-11-20T13:47:13.000Z</time>
      </trkpt>
      <trkpt lat="37.06824333" lon="-3.37553167">
        <ele>2973.0</ele>
        <time>2022-11-20T13:47:14.000Z</time>
      </trkpt>
      <trkpt lat="37.06825" lon="-3.375545">
        <ele>2973.0</ele>
        <time>2022-11-20T13:47:15.000Z</time>
      </trkpt>
      <trkpt lat="37.068255" lon="-3.37555833">
        <ele>2973.0</ele>
        <time>2022-11-20T13:47:16.000Z</time>
      </trkpt>
      <trkpt lat="37.06826" lon="-3.37556833">
        <ele>2973.0</ele>
        <time>2022-11-20T13:47:17.000Z</time>
      </trkpt>
      <trkpt lat="37.068265" lon="-3.37557833">
        <ele>2973.0</ele>
        <time>2022-11-20T13:47:18.000Z</time>
      </trkpt>
      <trkpt lat="37.06826833" lon="-3.37558833">
        <ele>2973.0</ele>
        <time>2022-11-20T13:47:19.000Z</time>
      </trkpt>
      <trkpt lat="37.068275" lon="-3.37559833">
        <ele>2973.0</ele>
        <time>2022-11-20T13:47:20.000Z</time>
      </trkpt>
      <trkpt lat="37.06828167" lon="-3.37560833">
        <ele>2973.0</ele>
        <time>2022-11-20T13:47:21.000Z</time>
      </trkpt>
      <trkpt lat="37.06828667" lon="-3.37562167">
        <ele>2972.0</ele>
        <time>2022-11-20T13:47:22.000Z</time>
      </trkpt>
      <trkpt lat="37.06829167" lon="-3.37563167">
        <ele>2972.0</ele>
        <time>2022-11-20T13:47:23.000Z</time>
      </trkpt>
      <trkpt lat="37.068295" lon="-3.37563833">
        <ele>2972.0</ele>
        <time>2022-11-20T13:47:24.000Z</time>
      </trkpt>
      <trkpt lat="37.06829833" lon="-3.375645">
        <ele>2972.0</ele>
        <time>2022-11-20T13:47:25.000Z</time>
      </trkpt>
      <trkpt lat="37.06830333" lon="-3.37565">
        <ele>2972.0</ele>
        <time>2022-11-20T13:47:26.000Z</time>
      </trkpt>
      <trkpt lat="37.06830833" lon="-3.37566">
        <ele>2972.0</ele>
        <time>2022-11-20T13:47:27.000Z</time>
      </trkpt>
      <trkpt lat="37.06831333" lon="-3.37567">
        <ele>2972.0</ele>
        <time>2022-11-20T13:47:28.000Z</time>
      </trkpt>
      <trkpt lat="37.06832167" lon="-3.37567833">
        <ele>2972.0</ele>
        <time>2022-11-20T13:47:29.000Z</time>
      </trkpt>
      <trkpt lat="37.06832833" lon="-3.37568833">
        <ele>2972.0</ele>
        <time>2022-11-20T13:47:30.000Z</time>
      </trkpt>
      <trkpt lat="37.06833667" lon="-3.3757">
        <ele>2972.0</ele>
        <time>2022-11-20T13:47:31.000Z</time>
      </trkpt>
      <trkpt lat="37.06834333" lon="-3.37571167">
        <ele>2972.0</ele>
        <time>2022-11-20T13:47:32.000Z</time>
      </trkpt>
      <trkpt lat="37.06835167" lon="-3.37572167">
        <ele>2972.0</ele>
        <time>2022-11-20T13:47:33.000Z</time>
      </trkpt>
      <trkpt lat="37.06836" lon="-3.37573167">
        <ele>2972.0</ele>
        <time>2022-11-20T13:47:34.000Z</time>
      </trkpt>
      <trkpt lat="37.06836833" lon="-3.37574">
        <ele>2971.0</ele>
        <time>2022-11-20T13:47:35.000Z</time>
      </trkpt>
      <trkpt lat="37.06837667" lon="-3.37574667">
        <ele>2971.0</ele>
        <time>2022-11-20T13:47:36.000Z</time>
      </trkpt>
      <trkpt lat="37.068385" lon="-3.375755">
        <ele>2971.0</ele>
        <time>2022-11-20T13:47:37.000Z</time>
      </trkpt>
      <trkpt lat="37.06839333" lon="-3.37576167">
        <ele>2971.0</ele>
        <time>2022-11-20T13:47:38.000Z</time>
      </trkpt>
      <trkpt lat="37.06840167" lon="-3.37576833">
        <ele>2971.0</ele>
        <time>2022-11-20T13:47:39.000Z</time>
      </trkpt>
      <trkpt lat="37.06841" lon="-3.375775">
        <ele>2971.0</ele>
        <time>2022-11-20T13:47:40.000Z</time>
      </trkpt>
      <trkpt lat="37.06841833" lon="-3.37578333">
        <ele>2971.0</ele>
        <time>2022-11-20T13:47:41.000Z</time>
      </trkpt>
      <trkpt lat="37.06842667" lon="-3.37579167">
        <ele>2971.0</ele>
        <time>2022-11-20T13:47:42.000Z</time>
      </trkpt>
      <trkpt lat="37.06843667" lon="-3.37579833">
        <ele>2970.0</ele>
        <time>2022-11-20T13:47:43.000Z</time>
      </trkpt>
      <trkpt lat="37.06844667" lon="-3.37580333">
        <ele>2970.0</ele>
        <time>2022-11-20T13:47:44.000Z</time>
      </trkpt>
      <trkpt lat="37.06845667" lon="-3.37580833">
        <ele>2970.0</ele>
        <time>2022-11-20T13:47:45.000Z</time>
      </trkpt>
      <trkpt lat="37.06846833" lon="-3.37581167">
        <ele>2970.0</ele>
        <time>2022-11-20T13:47:46.000Z</time>
      </trkpt>
      <trkpt lat="37.06848167" lon="-3.37581667">
        <ele>2970.0</ele>
        <time>2022-11-20T13:47:47.000Z</time>
      </trkpt>
      <trkpt lat="37.06849333" lon="-3.375825">
        <ele>2970.0</ele>
        <time>2022-11-20T13:47:48.000Z</time>
      </trkpt>
      <trkpt lat="37.06850333" lon="-3.37583333">
        <ele>2970.0</ele>
        <time>2022-11-20T13:47:49.000Z</time>
      </trkpt>
      <trkpt lat="37.06851333" lon="-3.37583833">
        <ele>2970.0</ele>
        <time>2022-11-20T13:47:50.000Z</time>
      </trkpt>
      <trkpt lat="37.06852333" lon="-3.375845">
        <ele>2969.0</ele>
        <time>2022-11-20T13:47:51.000Z</time>
      </trkpt>
      <trkpt lat="37.068535" lon="-3.37585">
        <ele>2969.0</ele>
        <time>2022-11-20T13:47:52.000Z</time>
      </trkpt>
      <trkpt lat="37.06854167" lon="-3.37585833">
        <ele>2969.0</ele>
        <time>2022-11-20T13:47:53.000Z</time>
      </trkpt>
      <trkpt lat="37.06854667" lon="-3.37586333">
        <ele>2969.0</ele>
        <time>2022-11-20T13:47:54.000Z</time>
      </trkpt>
      <trkpt lat="37.06854667" lon="-3.375865">
        <ele>2969.0</ele>
        <time>2022-11-20T13:47:55.000Z</time>
      </trkpt>
      <trkpt lat="37.06854833" lon="-3.375865">
        <ele>2969.0</ele>
        <time>2022-11-20T13:47:56.000Z</time>
      </trkpt>
      <trkpt lat="37.06854833" lon="-3.37586667">
        <ele>2969.0</ele>
        <time>2022-11-20T13:47:57.000Z</time>
      </trkpt>
      <trkpt lat="37.06854833" lon="-3.37586667">
        <ele>2969.0</ele>
        <time>2022-11-20T13:47:58.000Z</time>
      </trkpt>
      <trkpt lat="37.06854833" lon="-3.37586667">
        <ele>2969.0</ele>
        <time>2022-11-20T13:47:59.000Z</time>
      </trkpt>
      <trkpt lat="37.06854833" lon="-3.37586667">
        <ele>2969.0</ele>
        <time>2022-11-20T13:48:00.000Z</time>
      </trkpt>
      <trkpt lat="37.06855" lon="-3.37586667">
        <ele>2969.0</ele>
        <time>2022-11-20T13:48:01.000Z</time>
      </trkpt>
      <trkpt lat="37.06855" lon="-3.37586833">
        <ele>2969.0</ele>
        <time>2022-11-20T13:48:02.000Z</time>
      </trkpt>
      <trkpt lat="37.06855" lon="-3.37586833">
        <ele>2969.0</ele>
        <time>2022-11-20T13:48:03.000Z</time>
      </trkpt>
      <trkpt lat="37.06855167" lon="-3.37586667">
        <ele>2969.0</ele>
        <time>2022-11-20T13:48:04.000Z</time>
      </trkpt>
      <trkpt lat="37.06855167" lon="-3.375865">
        <ele>2969.0</ele>
        <time>2022-11-20T13:48:05.000Z</time>
      </trkpt>
      <trkpt lat="37.068555" lon="-3.375865">
        <ele>2969.0</ele>
        <time>2022-11-20T13:48:06.000Z</time>
      </trkpt>
      <trkpt lat="37.06856167" lon="-3.37586833">
        <ele>2969.0</ele>
        <time>2022-11-20T13:48:07.000Z</time>
      </trkpt>
      <trkpt lat="37.06856667" lon="-3.375875">
        <ele>2969.0</ele>
        <time>2022-11-20T13:48:08.000Z</time>
      </trkpt>
      <trkpt lat="37.06856667" lon="-3.37587667">
        <ele>2969.0</ele>
        <time>2022-11-20T13:48:09.000Z</time>
      </trkpt>
      <trkpt lat="37.06856667" lon="-3.37587833">
        <ele>2969.0</ele>
        <time>2022-11-20T13:48:10.000Z</time>
      </trkpt>
      <trkpt lat="37.06856667" lon="-3.37587833">
        <ele>2969.0</ele>
        <time>2022-11-20T13:48:11.000Z</time>
      </trkpt>
      <trkpt lat="37.06856667" lon="-3.37587833">
        <ele>2969.0</ele>
        <time>2022-11-20T13:48:12.000Z</time>
      </trkpt>
      <trkpt lat="37.068565" lon="-3.37587833">
        <ele>2969.0</ele>
        <time>2022-11-20T13:48:13.000Z</time>
      </trkpt>
      <trkpt lat="37.068565" lon="-3.375875">
        <ele>2969.0</ele>
        <time>2022-11-20T13:48:14.000Z</time>
      </trkpt>
      <trkpt lat="37.06856667" lon="-3.37587667">
        <ele>2968.0</ele>
        <time>2022-11-20T13:48:15.000Z</time>
      </trkpt>
      <trkpt lat="37.06857333" lon="-3.37588">
        <ele>2968.0</ele>
        <time>2022-11-20T13:48:16.000Z</time>
      </trkpt>
      <trkpt lat="37.06858167" lon="-3.375885">
        <ele>2968.0</ele>
        <time>2022-11-20T13:48:17.000Z</time>
      </trkpt>
      <trkpt lat="37.06858833" lon="-3.37589">
        <ele>2968.0</ele>
        <time>2022-11-20T13:48:18.000Z</time>
      </trkpt>
      <trkpt lat="37.06859667" lon="-3.37589667">
        <ele>2968.0</ele>
        <time>2022-11-20T13:48:19.000Z</time>
      </trkpt>
      <trkpt lat="37.06860333" lon="-3.37590167">
        <ele>2968.0</ele>
        <time>2022-11-20T13:48:20.000Z</time>
      </trkpt>
      <trkpt lat="37.06861" lon="-3.37590667">
        <ele>2968.0</ele>
        <time>2022-11-20T13:48:21.000Z</time>
      </trkpt>
      <trkpt lat="37.06861667" lon="-3.37591">
        <ele>2968.0</ele>
        <time>2022-11-20T13:48:22.000Z</time>
      </trkpt>
      <trkpt lat="37.068625" lon="-3.375915">
        <ele>2967.0</ele>
        <time>2022-11-20T13:48:23.000Z</time>
      </trkpt>
      <trkpt lat="37.06863333" lon="-3.37592167">
        <ele>2967.0</ele>
        <time>2022-11-20T13:48:24.000Z</time>
      </trkpt>
      <trkpt lat="37.06864333" lon="-3.37592667">
        <ele>2967.0</ele>
        <time>2022-11-20T13:48:25.000Z</time>
      </trkpt>
      <trkpt lat="37.06865333" lon="-3.375935">
        <ele>2967.0</ele>
        <time>2022-11-20T13:48:26.000Z</time>
      </trkpt>
      <trkpt lat="37.06866167" lon="-3.37594167">
        <ele>2967.0</ele>
        <time>2022-11-20T13:48:27.000Z</time>
      </trkpt>
      <trkpt lat="37.06867" lon="-3.37594667">
        <ele>2967.0</ele>
        <time>2022-11-20T13:48:28.000Z</time>
      </trkpt>
      <trkpt lat="37.06868" lon="-3.375955">
        <ele>2967.0</ele>
        <time>2022-11-20T13:48:29.000Z</time>
      </trkpt>
      <trkpt lat="37.06869" lon="-3.37596333">
        <ele>2967.0</ele>
        <time>2022-11-20T13:48:30.000Z</time>
      </trkpt>
      <trkpt lat="37.0687" lon="-3.37597167">
        <ele>2967.0</ele>
        <time>2022-11-20T13:48:31.000Z</time>
      </trkpt>
      <trkpt lat="37.06871" lon="-3.37597833">
        <ele>2966.0</ele>
        <time>2022-11-20T13:48:32.000Z</time>
      </trkpt>
      <trkpt lat="37.06872" lon="-3.375985">
        <ele>2966.0</ele>
        <time>2022-11-20T13:48:33.000Z</time>
      </trkpt>
      <trkpt lat="37.06872833" lon="-3.37599333">
        <ele>2966.0</ele>
        <time>2022-11-20T13:48:34.000Z</time>
      </trkpt>
      <trkpt lat="37.06873833" lon="-3.376">
        <ele>2966.0</ele>
        <time>2022-11-20T13:48:35.000Z</time>
      </trkpt>
      <trkpt lat="37.06874833" lon="-3.37600833">
        <ele>2966.0</ele>
        <time>2022-11-20T13:48:36.000Z</time>
      </trkpt>
      <trkpt lat="37.06875833" lon="-3.376015">
        <ele>2966.0</ele>
        <time>2022-11-20T13:48:37.000Z</time>
      </trkpt>
      <trkpt lat="37.06876667" lon="-3.376025">
        <ele>2966.0</ele>
        <time>2022-11-20T13:48:38.000Z</time>
      </trkpt>
      <trkpt lat="37.06877667" lon="-3.37603167">
        <ele>2966.0</ele>
        <time>2022-11-20T13:48:39.000Z</time>
      </trkpt>
      <trkpt lat="37.068785" lon="-3.37603833">
        <ele>2966.0</ele>
        <time>2022-11-20T13:48:40.000Z</time>
      </trkpt>
      <trkpt lat="37.068795" lon="-3.376045">
        <ele>2965.0</ele>
        <time>2022-11-20T13:48:41.000Z</time>
      </trkpt>
      <trkpt lat="37.068805" lon="-3.37605333">
        <ele>2965.0</ele>
        <time>2022-11-20T13:48:42.000Z</time>
      </trkpt>
      <trkpt lat="37.06881667" lon="-3.37606167">
        <ele>2965.0</ele>
        <time>2022-11-20T13:48:43.000Z</time>
      </trkpt>
      <trkpt lat="37.06882667" lon="-3.37607">
        <ele>2965.0</ele>
        <time>2022-11-20T13:48:44.000Z</time>
      </trkpt>
      <trkpt lat="37.068835" lon="-3.37607667">
        <ele>2965.0</ele>
        <time>2022-11-20T13:48:45.000Z</time>
      </trkpt>
      <trkpt lat="37.068845" lon="-3.37608333">
        <ele>2965.0</ele>
        <time>2022-11-20T13:48:46.000Z</time>
      </trkpt>
      <trkpt lat="37.06885333" lon="-3.37609167">
        <ele>2965.0</ele>
        <time>2022-11-20T13:48:47.000Z</time>
      </trkpt>
      <trkpt lat="37.06886333" lon="-3.37609833">
        <ele>2965.0</ele>
        <time>2022-11-20T13:48:48.000Z</time>
      </trkpt>
      <trkpt lat="37.06887" lon="-3.37610333">
        <ele>2964.0</ele>
        <time>2022-11-20T13:48:49.000Z</time>
      </trkpt>
      <trkpt lat="37.06887833" lon="-3.37610833">
        <ele>2964.0</ele>
        <time>2022-11-20T13:48:50.000Z</time>
      </trkpt>
      <trkpt lat="37.06888667" lon="-3.37611333">
        <ele>2964.0</ele>
        <time>2022-11-20T13:48:51.000Z</time>
      </trkpt>
      <trkpt lat="37.06889333" lon="-3.37612167">
        <ele>2964.0</ele>
        <time>2022-11-20T13:48:52.000Z</time>
      </trkpt>
      <trkpt lat="37.06889833" lon="-3.37613167">
        <ele>2964.0</ele>
        <time>2022-11-20T13:48:53.000Z</time>
      </trkpt>
      <trkpt lat="37.06890667" lon="-3.37613833">
        <ele>2964.0</ele>
        <time>2022-11-20T13:48:54.000Z</time>
      </trkpt>
      <trkpt lat="37.068915" lon="-3.37614833">
        <ele>2964.0</ele>
        <time>2022-11-20T13:48:55.000Z</time>
      </trkpt>
      <trkpt lat="37.06892333" lon="-3.37616">
        <ele>2963.0</ele>
        <time>2022-11-20T13:48:56.000Z</time>
      </trkpt>
      <trkpt lat="37.06893" lon="-3.37617">
        <ele>2963.0</ele>
        <time>2022-11-20T13:48:57.000Z</time>
      </trkpt>
      <trkpt lat="37.06894" lon="-3.37617833">
        <ele>2963.0</ele>
        <time>2022-11-20T13:48:58.000Z</time>
      </trkpt>
      <trkpt lat="37.06895167" lon="-3.37618667">
        <ele>2963.0</ele>
        <time>2022-11-20T13:48:59.000Z</time>
      </trkpt>
      <trkpt lat="37.06896167" lon="-3.37619333">
        <ele>2963.0</ele>
        <time>2022-11-20T13:49:00.000Z</time>
      </trkpt>
      <trkpt lat="37.06897333" lon="-3.3762">
        <ele>2963.0</ele>
        <time>2022-11-20T13:49:01.000Z</time>
      </trkpt>
      <trkpt lat="37.068985" lon="-3.37620667">
        <ele>2963.0</ele>
        <time>2022-11-20T13:49:02.000Z</time>
      </trkpt>
      <trkpt lat="37.06899667" lon="-3.37620833">
        <ele>2963.0</ele>
        <time>2022-11-20T13:49:03.000Z</time>
      </trkpt>
      <trkpt lat="37.06901167" lon="-3.37621">
        <ele>2963.0</ele>
        <time>2022-11-20T13:49:04.000Z</time>
      </trkpt>
      <trkpt lat="37.06902833" lon="-3.376215">
        <ele>2963.0</ele>
        <time>2022-11-20T13:49:05.000Z</time>
      </trkpt>
      <trkpt lat="37.06904167" lon="-3.37621667">
        <ele>2963.0</ele>
        <time>2022-11-20T13:49:06.000Z</time>
      </trkpt>
      <trkpt lat="37.06905667" lon="-3.37621833">
        <ele>2963.0</ele>
        <time>2022-11-20T13:49:07.000Z</time>
      </trkpt>
      <trkpt lat="37.06907" lon="-3.37621833">
        <ele>2963.0</ele>
        <time>2022-11-20T13:49:08.000Z</time>
      </trkpt>
      <trkpt lat="37.06908167" lon="-3.37621833">
        <ele>2963.0</ele>
        <time>2022-11-20T13:49:09.000Z</time>
      </trkpt>
      <trkpt lat="37.069095" lon="-3.37622">
        <ele>2963.0</ele>
        <time>2022-11-20T13:49:10.000Z</time>
      </trkpt>
      <trkpt lat="37.06910833" lon="-3.37622">
        <ele>2963.0</ele>
        <time>2022-11-20T13:49:11.000Z</time>
      </trkpt>
      <trkpt lat="37.06912167" lon="-3.37622">
        <ele>2963.0</ele>
        <time>2022-11-20T13:49:12.000Z</time>
      </trkpt>
      <trkpt lat="37.06913333" lon="-3.37622">
        <ele>2963.0</ele>
        <time>2022-11-20T13:49:13.000Z</time>
      </trkpt>
      <trkpt lat="37.06914667" lon="-3.37621833">
        <ele>2963.0</ele>
        <time>2022-11-20T13:49:14.000Z</time>
      </trkpt>
      <trkpt lat="37.06915833" lon="-3.376215">
        <ele>2963.0</ele>
        <time>2022-11-20T13:49:15.000Z</time>
      </trkpt>
      <trkpt lat="37.06917167" lon="-3.37621333">
        <ele>2963.0</ele>
        <time>2022-11-20T13:49:16.000Z</time>
      </trkpt>
      <trkpt lat="37.06918167" lon="-3.37621167">
        <ele>2963.0</ele>
        <time>2022-11-20T13:49:17.000Z</time>
      </trkpt>
      <trkpt lat="37.06919333" lon="-3.37621">
        <ele>2963.0</ele>
        <time>2022-11-20T13:49:18.000Z</time>
      </trkpt>
      <trkpt lat="37.06920667" lon="-3.37620333">
        <ele>2963.0</ele>
        <time>2022-11-20T13:49:19.000Z</time>
      </trkpt>
      <trkpt lat="37.06921833" lon="-3.37619833">
        <ele>2963.0</ele>
        <time>2022-11-20T13:49:20.000Z</time>
      </trkpt>
      <trkpt lat="37.06923" lon="-3.37619333">
        <ele>2962.0</ele>
        <time>2022-11-20T13:49:21.000Z</time>
      </trkpt>
      <trkpt lat="37.06924" lon="-3.37619">
        <ele>2962.0</ele>
        <time>2022-11-20T13:49:22.000Z</time>
      </trkpt>
      <trkpt lat="37.06925" lon="-3.37618333">
        <ele>2962.0</ele>
        <time>2022-11-20T13:49:23.000Z</time>
      </trkpt>
      <trkpt lat="37.06925667" lon="-3.37617667">
        <ele>2962.0</ele>
        <time>2022-11-20T13:49:24.000Z</time>
      </trkpt>
      <trkpt lat="37.06926333" lon="-3.37617">
        <ele>2962.0</ele>
        <time>2022-11-20T13:49:25.000Z</time>
      </trkpt>
      <trkpt lat="37.06927167" lon="-3.37616333">
        <ele>2962.0</ele>
        <time>2022-11-20T13:49:26.000Z</time>
      </trkpt>
      <trkpt lat="37.06928" lon="-3.37615833">
        <ele>2962.0</ele>
        <time>2022-11-20T13:49:27.000Z</time>
      </trkpt>
      <trkpt lat="37.06928833" lon="-3.37615167">
        <ele>2962.0</ele>
        <time>2022-11-20T13:49:28.000Z</time>
      </trkpt>
      <trkpt lat="37.06929667" lon="-3.37614333">
        <ele>2962.0</ele>
        <time>2022-11-20T13:49:29.000Z</time>
      </trkpt>
      <trkpt lat="37.06930333" lon="-3.376135">
        <ele>2962.0</ele>
        <time>2022-11-20T13:49:30.000Z</time>
      </trkpt>
      <trkpt lat="37.06931" lon="-3.376125">
        <ele>2962.0</ele>
        <time>2022-11-20T13:49:31.000Z</time>
      </trkpt>
      <trkpt lat="37.06931333" lon="-3.37612167">
        <ele>2962.0</ele>
        <time>2022-11-20T13:49:32.000Z</time>
      </trkpt>
      <trkpt lat="37.069315" lon="-3.37612167">
        <ele>2962.0</ele>
        <time>2022-11-20T13:49:33.000Z</time>
      </trkpt>
      <trkpt lat="37.069315" lon="-3.37612167">
        <ele>2962.0</ele>
        <time>2022-11-20T13:49:34.000Z</time>
      </trkpt>
      <trkpt lat="37.069315" lon="-3.37612167">
        <ele>2962.0</ele>
        <time>2022-11-20T13:49:35.000Z</time>
      </trkpt>
      <trkpt lat="37.06931833" lon="-3.376125">
        <ele>2962.0</ele>
        <time>2022-11-20T13:49:36.000Z</time>
      </trkpt>
      <trkpt lat="37.06932167" lon="-3.37612667">
        <ele>2962.0</ele>
        <time>2022-11-20T13:49:37.000Z</time>
      </trkpt>
      <trkpt lat="37.069325" lon="-3.37612833">
        <ele>2962.0</ele>
        <time>2022-11-20T13:49:38.000Z</time>
      </trkpt>
      <trkpt lat="37.06932833" lon="-3.37613333">
        <ele>2962.0</ele>
        <time>2022-11-20T13:49:39.000Z</time>
      </trkpt>
      <trkpt lat="37.06933333" lon="-3.37613833">
        <ele>2962.0</ele>
        <time>2022-11-20T13:49:40.000Z</time>
      </trkpt>
      <trkpt lat="37.069335" lon="-3.37614167">
        <ele>2962.0</ele>
        <time>2022-11-20T13:49:41.000Z</time>
      </trkpt>
      <trkpt lat="37.069335" lon="-3.37614333">
        <ele>2961.0</ele>
        <time>2022-11-20T13:49:42.000Z</time>
      </trkpt>
      <trkpt lat="37.069335" lon="-3.37614333">
        <ele>2961.0</ele>
        <time>2022-11-20T13:49:43.000Z</time>
      </trkpt>
      <trkpt lat="37.069335" lon="-3.37614333">
        <ele>2961.0</ele>
        <time>2022-11-20T13:49:44.000Z</time>
      </trkpt>
      <trkpt lat="37.06933667" lon="-3.37614333">
        <ele>2962.0</ele>
        <time>2022-11-20T13:49:45.000Z</time>
      </trkpt>
      <trkpt lat="37.06933667" lon="-3.37614333">
        <ele>2962.0</ele>
        <time>2022-11-20T13:49:46.000Z</time>
      </trkpt>
      <trkpt lat="37.06933667" lon="-3.37614667">
        <ele>2962.0</ele>
        <time>2022-11-20T13:49:47.000Z</time>
      </trkpt>
      <trkpt lat="37.06934" lon="-3.37615333">
        <ele>2961.0</ele>
        <time>2022-11-20T13:49:48.000Z</time>
      </trkpt>
      <trkpt lat="37.06934167" lon="-3.37616">
        <ele>2961.0</ele>
        <time>2022-11-20T13:49:49.000Z</time>
      </trkpt>
      <trkpt lat="37.069345" lon="-3.37616833">
        <ele>2961.0</ele>
        <time>2022-11-20T13:49:50.000Z</time>
      </trkpt>
      <trkpt lat="37.06934833" lon="-3.376175">
        <ele>2961.0</ele>
        <time>2022-11-20T13:49:51.000Z</time>
      </trkpt>
      <trkpt lat="37.06935333" lon="-3.37618167">
        <ele>2961.0</ele>
        <time>2022-11-20T13:49:52.000Z</time>
      </trkpt>
      <trkpt lat="37.06936167" lon="-3.37618833">
        <ele>2960.0</ele>
        <time>2022-11-20T13:49:53.000Z</time>
      </trkpt>
      <trkpt lat="37.06936833" lon="-3.376195">
        <ele>2960.0</ele>
        <time>2022-11-20T13:49:54.000Z</time>
      </trkpt>
      <trkpt lat="37.069375" lon="-3.37620167">
        <ele>2960.0</ele>
        <time>2022-11-20T13:49:55.000Z</time>
      </trkpt>
      <trkpt lat="37.06938333" lon="-3.376205">
        <ele>2960.0</ele>
        <time>2022-11-20T13:49:56.000Z</time>
      </trkpt>
      <trkpt lat="37.06939" lon="-3.37621">
        <ele>2959.0</ele>
        <time>2022-11-20T13:49:57.000Z</time>
      </trkpt>
      <trkpt lat="37.06939833" lon="-3.376215">
        <ele>2959.0</ele>
        <time>2022-11-20T13:49:58.000Z</time>
      </trkpt>
      <trkpt lat="37.06940667" lon="-3.37622">
        <ele>2959.0</ele>
        <time>2022-11-20T13:49:59.000Z</time>
      </trkpt>
      <trkpt lat="37.06941833" lon="-3.376225">
        <ele>2958.0</ele>
        <time>2022-11-20T13:50:00.000Z</time>
      </trkpt>
      <trkpt lat="37.06942833" lon="-3.37622833">
        <ele>2958.0</ele>
        <time>2022-11-20T13:50:01.000Z</time>
      </trkpt>
      <trkpt lat="37.06943833" lon="-3.376235">
        <ele>2958.0</ele>
        <time>2022-11-20T13:50:02.000Z</time>
      </trkpt>
      <trkpt lat="37.06944667" lon="-3.376245">
        <ele>2958.0</ele>
        <time>2022-11-20T13:50:03.000Z</time>
      </trkpt>
      <trkpt lat="37.06945333" lon="-3.37625833">
        <ele>2957.0</ele>
        <time>2022-11-20T13:50:04.000Z</time>
      </trkpt>
      <trkpt lat="37.06946167" lon="-3.37627">
        <ele>2957.0</ele>
        <time>2022-11-20T13:50:05.000Z</time>
      </trkpt>
      <trkpt lat="37.06946833" lon="-3.37628667">
        <ele>2957.0</ele>
        <time>2022-11-20T13:50:06.000Z</time>
      </trkpt>
      <trkpt lat="37.069475" lon="-3.37630167">
        <ele>2956.0</ele>
        <time>2022-11-20T13:50:07.000Z</time>
      </trkpt>
      <trkpt lat="37.06948167" lon="-3.37631333">
        <ele>2956.0</ele>
        <time>2022-11-20T13:50:08.000Z</time>
      </trkpt>
      <trkpt lat="37.06948833" lon="-3.37632333">
        <ele>2955.0</ele>
        <time>2022-11-20T13:50:09.000Z</time>
      </trkpt>
      <trkpt lat="37.06949333" lon="-3.37633667">
        <ele>2955.0</ele>
        <time>2022-11-20T13:50:10.000Z</time>
      </trkpt>
      <trkpt lat="37.06950167" lon="-3.37634833">
        <ele>2955.0</ele>
        <time>2022-11-20T13:50:11.000Z</time>
      </trkpt>
      <trkpt lat="37.06951" lon="-3.37636">
        <ele>2954.0</ele>
        <time>2022-11-20T13:50:12.000Z</time>
      </trkpt>
      <trkpt lat="37.06951667" lon="-3.37636833">
        <ele>2954.0</ele>
        <time>2022-11-20T13:50:13.000Z</time>
      </trkpt>
      <trkpt lat="37.06952167" lon="-3.37637667">
        <ele>2954.0</ele>
        <time>2022-11-20T13:50:14.000Z</time>
      </trkpt>
      <trkpt lat="37.06952667" lon="-3.37638333">
        <ele>2954.0</ele>
        <time>2022-11-20T13:50:15.000Z</time>
      </trkpt>
      <trkpt lat="37.069535" lon="-3.37639">
        <ele>2953.0</ele>
        <time>2022-11-20T13:50:16.000Z</time>
      </trkpt>
      <trkpt lat="37.06954333" lon="-3.376395">
        <ele>2953.0</ele>
        <time>2022-11-20T13:50:17.000Z</time>
      </trkpt>
      <trkpt lat="37.06955167" lon="-3.3764">
        <ele>2953.0</ele>
        <time>2022-11-20T13:50:18.000Z</time>
      </trkpt>
      <trkpt lat="37.06956167" lon="-3.37640333">
        <ele>2953.0</ele>
        <time>2022-11-20T13:50:19.000Z</time>
      </trkpt>
      <trkpt lat="37.06957167" lon="-3.376405">
        <ele>2952.0</ele>
        <time>2022-11-20T13:50:20.000Z</time>
      </trkpt>
      <trkpt lat="37.06958167" lon="-3.376405">
        <ele>2952.0</ele>
        <time>2022-11-20T13:50:21.000Z</time>
      </trkpt>
      <trkpt lat="37.069595" lon="-3.376405">
        <ele>2952.0</ele>
        <time>2022-11-20T13:50:22.000Z</time>
      </trkpt>
      <trkpt lat="37.069605" lon="-3.37641167">
        <ele>2952.0</ele>
        <time>2022-11-20T13:50:23.000Z</time>
      </trkpt>
      <trkpt lat="37.069615" lon="-3.37642167">
        <ele>2951.0</ele>
        <time>2022-11-20T13:50:24.000Z</time>
      </trkpt>
      <trkpt lat="37.06962333" lon="-3.37642833">
        <ele>2951.0</ele>
        <time>2022-11-20T13:50:25.000Z</time>
      </trkpt>
      <trkpt lat="37.06962833" lon="-3.37643333">
        <ele>2951.0</ele>
        <time>2022-11-20T13:50:26.000Z</time>
      </trkpt>
      <trkpt lat="37.06963167" lon="-3.37643667">
        <ele>2951.0</ele>
        <time>2022-11-20T13:50:27.000Z</time>
      </trkpt>
      <trkpt lat="37.069635" lon="-3.37644167">
        <ele>2951.0</ele>
        <time>2022-11-20T13:50:28.000Z</time>
      </trkpt>
      <trkpt lat="37.06963833" lon="-3.37644333">
        <ele>2951.0</ele>
        <time>2022-11-20T13:50:29.000Z</time>
      </trkpt>
      <trkpt lat="37.06964167" lon="-3.37644667">
        <ele>2951.0</ele>
        <time>2022-11-20T13:50:30.000Z</time>
      </trkpt>
      <trkpt lat="37.06964167" lon="-3.37644667">
        <ele>2951.0</ele>
        <time>2022-11-20T13:50:31.000Z</time>
      </trkpt>
      <trkpt lat="37.06964333" lon="-3.37644833">
        <ele>2951.0</ele>
        <time>2022-11-20T13:50:32.000Z</time>
      </trkpt>
      <trkpt lat="37.06964333" lon="-3.37644833">
        <ele>2951.0</ele>
        <time>2022-11-20T13:50:33.000Z</time>
      </trkpt>
      <trkpt lat="37.06964333" lon="-3.37644833">
        <ele>2951.0</ele>
        <time>2022-11-20T13:50:34.000Z</time>
      </trkpt>
      <trkpt lat="37.06964333" lon="-3.37645">
        <ele>2950.0</ele>
        <time>2022-11-20T13:50:35.000Z</time>
      </trkpt>
      <trkpt lat="37.069645" lon="-3.37645">
        <ele>2950.0</ele>
        <time>2022-11-20T13:50:36.000Z</time>
      </trkpt>
      <trkpt lat="37.069645" lon="-3.37645167">
        <ele>2950.0</ele>
        <time>2022-11-20T13:50:37.000Z</time>
      </trkpt>
      <trkpt lat="37.06965167" lon="-3.37645833">
        <ele>2950.0</ele>
        <time>2022-11-20T13:50:38.000Z</time>
      </trkpt>
      <trkpt lat="37.06965667" lon="-3.37646167">
        <ele>2950.0</ele>
        <time>2022-11-20T13:50:39.000Z</time>
      </trkpt>
      <trkpt lat="37.069665" lon="-3.37646667">
        <ele>2950.0</ele>
        <time>2022-11-20T13:50:40.000Z</time>
      </trkpt>
      <trkpt lat="37.069675" lon="-3.37647167">
        <ele>2950.0</ele>
        <time>2022-11-20T13:50:41.000Z</time>
      </trkpt>
      <trkpt lat="37.06968333" lon="-3.37647667">
        <ele>2949.0</ele>
        <time>2022-11-20T13:50:42.000Z</time>
      </trkpt>
      <trkpt lat="37.069695" lon="-3.37648">
        <ele>2949.0</ele>
        <time>2022-11-20T13:50:43.000Z</time>
      </trkpt>
      <trkpt lat="37.06970833" lon="-3.37648333">
        <ele>2949.0</ele>
        <time>2022-11-20T13:50:44.000Z</time>
      </trkpt>
      <trkpt lat="37.06972167" lon="-3.37648333">
        <ele>2949.0</ele>
        <time>2022-11-20T13:50:45.000Z</time>
      </trkpt>
      <trkpt lat="37.06973667" lon="-3.37648667">
        <ele>2948.0</ele>
        <time>2022-11-20T13:50:46.000Z</time>
      </trkpt>
      <trkpt lat="37.06975" lon="-3.37649">
        <ele>2948.0</ele>
        <time>2022-11-20T13:50:47.000Z</time>
      </trkpt>
      <trkpt lat="37.06976333" lon="-3.376495">
        <ele>2947.0</ele>
        <time>2022-11-20T13:50:48.000Z</time>
      </trkpt>
      <trkpt lat="37.06977667" lon="-3.37650167">
        <ele>2947.0</ele>
        <time>2022-11-20T13:50:49.000Z</time>
      </trkpt>
      <trkpt lat="37.06979" lon="-3.37650833">
        <ele>2946.0</ele>
        <time>2022-11-20T13:50:50.000Z</time>
      </trkpt>
      <trkpt lat="37.06980333" lon="-3.376515">
        <ele>2946.0</ele>
        <time>2022-11-20T13:50:51.000Z</time>
      </trkpt>
      <trkpt lat="37.06981667" lon="-3.37652167">
        <ele>2945.0</ele>
        <time>2022-11-20T13:50:52.000Z</time>
      </trkpt>
      <trkpt lat="37.06983333" lon="-3.37653167">
        <ele>2945.0</ele>
        <time>2022-11-20T13:50:53.000Z</time>
      </trkpt>
      <trkpt lat="37.06985" lon="-3.37654333">
        <ele>2945.0</ele>
        <time>2022-11-20T13:50:54.000Z</time>
      </trkpt>
      <trkpt lat="37.06986833" lon="-3.376555">
        <ele>2944.0</ele>
        <time>2022-11-20T13:50:55.000Z</time>
      </trkpt>
      <trkpt lat="37.069885" lon="-3.376565">
        <ele>2944.0</ele>
        <time>2022-11-20T13:50:56.000Z</time>
      </trkpt>
      <trkpt lat="37.0699" lon="-3.37657833">
        <ele>2944.0</ele>
        <time>2022-11-20T13:50:57.000Z</time>
      </trkpt>
      <trkpt lat="37.06991667" lon="-3.37659167">
        <ele>2943.0</ele>
        <time>2022-11-20T13:50:58.000Z</time>
      </trkpt>
      <trkpt lat="37.06993167" lon="-3.37659667">
        <ele>2943.0</ele>
        <time>2022-11-20T13:50:59.000Z</time>
      </trkpt>
      <trkpt lat="37.06993667" lon="-3.37660167">
        <ele>2942.0</ele>
        <time>2022-11-20T13:51:00.000Z</time>
      </trkpt>
      <trkpt lat="37.06993667" lon="-3.376605">
        <ele>2942.0</ele>
        <time>2022-11-20T13:51:01.000Z</time>
      </trkpt>
      <trkpt lat="37.06993833" lon="-3.376605">
        <ele>2942.0</ele>
        <time>2022-11-20T13:51:02.000Z</time>
      </trkpt>
      <trkpt lat="37.06993833" lon="-3.37660667">
        <ele>2942.0</ele>
        <time>2022-11-20T13:51:03.000Z</time>
      </trkpt>
      <trkpt lat="37.06993833" lon="-3.37660833">
        <ele>2942.0</ele>
        <time>2022-11-20T13:51:04.000Z</time>
      </trkpt>
      <trkpt lat="37.06993833" lon="-3.37660833">
        <ele>2942.0</ele>
        <time>2022-11-20T13:51:05.000Z</time>
      </trkpt>
      <trkpt lat="37.06993833" lon="-3.37660833">
        <ele>2942.0</ele>
        <time>2022-11-20T13:51:06.000Z</time>
      </trkpt>
      <trkpt lat="37.06994" lon="-3.37661">
        <ele>2942.0</ele>
        <time>2022-11-20T13:51:07.000Z</time>
      </trkpt>
      <trkpt lat="37.06994333" lon="-3.376615">
        <ele>2942.0</ele>
        <time>2022-11-20T13:51:08.000Z</time>
      </trkpt>
      <trkpt lat="37.06994667" lon="-3.37661667">
        <ele>2942.0</ele>
        <time>2022-11-20T13:51:09.000Z</time>
      </trkpt>
      <trkpt lat="37.06995167" lon="-3.37661833">
        <ele>2941.0</ele>
        <time>2022-11-20T13:51:10.000Z</time>
      </trkpt>
      <trkpt lat="37.06995833" lon="-3.37661833">
        <ele>2941.0</ele>
        <time>2022-11-20T13:51:11.000Z</time>
      </trkpt>
      <trkpt lat="37.06996333" lon="-3.37662333">
        <ele>2941.0</ele>
        <time>2022-11-20T13:51:12.000Z</time>
      </trkpt>
      <trkpt lat="37.06997" lon="-3.37662833">
        <ele>2941.0</ele>
        <time>2022-11-20T13:51:13.000Z</time>
      </trkpt>
      <trkpt lat="37.06997833" lon="-3.37663667">
        <ele>2941.0</ele>
        <time>2022-11-20T13:51:14.000Z</time>
      </trkpt>
      <trkpt lat="37.06998167" lon="-3.376645">
        <ele>2941.0</ele>
        <time>2022-11-20T13:51:15.000Z</time>
      </trkpt>
      <trkpt lat="37.06998333" lon="-3.376645">
        <ele>2941.0</ele>
        <time>2022-11-20T13:51:16.000Z</time>
      </trkpt>
      <trkpt lat="37.06998167" lon="-3.376645">
        <ele>2941.0</ele>
        <time>2022-11-20T13:51:17.000Z</time>
      </trkpt>
      <trkpt lat="37.06998167" lon="-3.376645">
        <ele>2941.0</ele>
        <time>2022-11-20T13:51:18.000Z</time>
      </trkpt>
      <trkpt lat="37.06998167" lon="-3.376645">
        <ele>2940.0</ele>
        <time>2022-11-20T13:51:19.000Z</time>
      </trkpt>
      <trkpt lat="37.06998167" lon="-3.37664833">
        <ele>2940.0</ele>
        <time>2022-11-20T13:51:20.000Z</time>
      </trkpt>
      <trkpt lat="37.06998" lon="-3.37664833">
        <ele>2940.0</ele>
        <time>2022-11-20T13:51:21.000Z</time>
      </trkpt>
      <trkpt lat="37.06997667" lon="-3.37664667">
        <ele>2940.0</ele>
        <time>2022-11-20T13:51:22.000Z</time>
      </trkpt>
      <trkpt lat="37.06997667" lon="-3.376645">
        <ele>2940.0</ele>
        <time>2022-11-20T13:51:23.000Z</time>
      </trkpt>
      <trkpt lat="37.06998" lon="-3.37664833">
        <ele>2940.0</ele>
        <time>2022-11-20T13:51:24.000Z</time>
      </trkpt>
      <trkpt lat="37.06998167" lon="-3.37664833">
        <ele>2940.0</ele>
        <time>2022-11-20T13:51:25.000Z</time>
      </trkpt>
      <trkpt lat="37.069985" lon="-3.37665">
        <ele>2940.0</ele>
        <time>2022-11-20T13:51:26.000Z</time>
      </trkpt>
      <trkpt lat="37.06999" lon="-3.37665167">
        <ele>2940.0</ele>
        <time>2022-11-20T13:51:27.000Z</time>
      </trkpt>
      <trkpt lat="37.07000167" lon="-3.376655">
        <ele>2940.0</ele>
        <time>2022-11-20T13:51:28.000Z</time>
      </trkpt>
      <trkpt lat="37.070015" lon="-3.37666167">
        <ele>2940.0</ele>
        <time>2022-11-20T13:51:29.000Z</time>
      </trkpt>
      <trkpt lat="37.07002833" lon="-3.37667">
        <ele>2939.0</ele>
        <time>2022-11-20T13:51:30.000Z</time>
      </trkpt>
      <trkpt lat="37.07004167" lon="-3.37667667">
        <ele>2939.0</ele>
        <time>2022-11-20T13:51:31.000Z</time>
      </trkpt>
      <trkpt lat="37.070055" lon="-3.37668333">
        <ele>2939.0</ele>
        <time>2022-11-20T13:51:32.000Z</time>
      </trkpt>
      <trkpt lat="37.07007" lon="-3.37668833">
        <ele>2939.0</ele>
        <time>2022-11-20T13:51:33.000Z</time>
      </trkpt>
      <trkpt lat="37.07008333" lon="-3.376695">
        <ele>2938.0</ele>
        <time>2022-11-20T13:51:34.000Z</time>
      </trkpt>
      <trkpt lat="37.07009833" lon="-3.37670667">
        <ele>2938.0</ele>
        <time>2022-11-20T13:51:35.000Z</time>
      </trkpt>
      <trkpt lat="37.07011167" lon="-3.37671833">
        <ele>2938.0</ele>
        <time>2022-11-20T13:51:36.000Z</time>
      </trkpt>
      <trkpt lat="37.070125" lon="-3.37673">
        <ele>2937.0</ele>
        <time>2022-11-20T13:51:37.000Z</time>
      </trkpt>
      <trkpt lat="37.07014" lon="-3.37674167">
        <ele>2937.0</ele>
        <time>2022-11-20T13:51:38.000Z</time>
      </trkpt>
      <trkpt lat="37.07015333" lon="-3.37674833">
        <ele>2937.0</ele>
        <time>2022-11-20T13:51:39.000Z</time>
      </trkpt>
      <trkpt lat="37.07016833" lon="-3.37675167">
        <ele>2936.0</ele>
        <time>2022-11-20T13:51:40.000Z</time>
      </trkpt>
      <trkpt lat="37.07018" lon="-3.37675333">
        <ele>2936.0</ele>
        <time>2022-11-20T13:51:41.000Z</time>
      </trkpt>
      <trkpt lat="37.070195" lon="-3.37676">
        <ele>2936.0</ele>
        <time>2022-11-20T13:51:42.000Z</time>
      </trkpt>
      <trkpt lat="37.070205" lon="-3.37676667">
        <ele>2936.0</ele>
        <time>2022-11-20T13:51:43.000Z</time>
      </trkpt>
      <trkpt lat="37.07021833" lon="-3.376775">
        <ele>2936.0</ele>
        <time>2022-11-20T13:51:44.000Z</time>
      </trkpt>
      <trkpt lat="37.07022833" lon="-3.37678333">
        <ele>2935.0</ele>
        <time>2022-11-20T13:51:45.000Z</time>
      </trkpt>
      <trkpt lat="37.07024167" lon="-3.37679167">
        <ele>2935.0</ele>
        <time>2022-11-20T13:51:46.000Z</time>
      </trkpt>
      <trkpt lat="37.070255" lon="-3.37679833">
        <ele>2935.0</ele>
        <time>2022-11-20T13:51:47.000Z</time>
      </trkpt>
      <trkpt lat="37.07026833" lon="-3.376805">
        <ele>2935.0</ele>
        <time>2022-11-20T13:51:48.000Z</time>
      </trkpt>
      <trkpt lat="37.07028" lon="-3.37681333">
        <ele>2935.0</ele>
        <time>2022-11-20T13:51:49.000Z</time>
      </trkpt>
      <trkpt lat="37.07029333" lon="-3.37682">
        <ele>2934.0</ele>
        <time>2022-11-20T13:51:50.000Z</time>
      </trkpt>
      <trkpt lat="37.07030667" lon="-3.37682167">
        <ele>2934.0</ele>
        <time>2022-11-20T13:51:51.000Z</time>
      </trkpt>
      <trkpt lat="37.07032333" lon="-3.37682667">
        <ele>2934.0</ele>
        <time>2022-11-20T13:51:52.000Z</time>
      </trkpt>
      <trkpt lat="37.07033667" lon="-3.376835">
        <ele>2934.0</ele>
        <time>2022-11-20T13:51:53.000Z</time>
      </trkpt>
      <trkpt lat="37.07034833" lon="-3.37684667">
        <ele>2934.0</ele>
        <time>2022-11-20T13:51:54.000Z</time>
      </trkpt>
      <trkpt lat="37.07036" lon="-3.37685667">
        <ele>2933.0</ele>
        <time>2022-11-20T13:51:55.000Z</time>
      </trkpt>
      <trkpt lat="37.07037167" lon="-3.376865">
        <ele>2933.0</ele>
        <time>2022-11-20T13:51:56.000Z</time>
      </trkpt>
      <trkpt lat="37.07038333" lon="-3.37687333">
        <ele>2933.0</ele>
        <time>2022-11-20T13:51:57.000Z</time>
      </trkpt>
      <trkpt lat="37.07039833" lon="-3.37688">
        <ele>2933.0</ele>
        <time>2022-11-20T13:51:58.000Z</time>
      </trkpt>
      <trkpt lat="37.07041" lon="-3.37688667">
        <ele>2933.0</ele>
        <time>2022-11-20T13:51:59.000Z</time>
      </trkpt>
      <trkpt lat="37.07042333" lon="-3.376895">
        <ele>2932.0</ele>
        <time>2022-11-20T13:52:00.000Z</time>
      </trkpt>
      <trkpt lat="37.07043667" lon="-3.37690333">
        <ele>2932.0</ele>
        <time>2022-11-20T13:52:01.000Z</time>
      </trkpt>
      <trkpt lat="37.07044833" lon="-3.37691167">
        <ele>2932.0</ele>
        <time>2022-11-20T13:52:02.000Z</time>
      </trkpt>
      <trkpt lat="37.07046" lon="-3.37692">
        <ele>2932.0</ele>
        <time>2022-11-20T13:52:03.000Z</time>
      </trkpt>
      <trkpt lat="37.07047167" lon="-3.37692833">
        <ele>2932.0</ele>
        <time>2022-11-20T13:52:04.000Z</time>
      </trkpt>
      <trkpt lat="37.07048333" lon="-3.37693667">
        <ele>2931.0</ele>
        <time>2022-11-20T13:52:05.000Z</time>
      </trkpt>
      <trkpt lat="37.07049667" lon="-3.376945">
        <ele>2931.0</ele>
        <time>2022-11-20T13:52:06.000Z</time>
      </trkpt>
      <trkpt lat="37.07050833" lon="-3.37695333">
        <ele>2931.0</ele>
        <time>2022-11-20T13:52:07.000Z</time>
      </trkpt>
      <trkpt lat="37.07052" lon="-3.37696167">
        <ele>2931.0</ele>
        <time>2022-11-20T13:52:08.000Z</time>
      </trkpt>
      <trkpt lat="37.070535" lon="-3.37697">
        <ele>2931.0</ele>
        <time>2022-11-20T13:52:09.000Z</time>
      </trkpt>
      <trkpt lat="37.07054667" lon="-3.37698">
        <ele>2930.0</ele>
        <time>2022-11-20T13:52:10.000Z</time>
      </trkpt>
      <trkpt lat="37.07055833" lon="-3.37699">
        <ele>2930.0</ele>
        <time>2022-11-20T13:52:11.000Z</time>
      </trkpt>
      <trkpt lat="37.07057167" lon="-3.377">
        <ele>2930.0</ele>
        <time>2022-11-20T13:52:12.000Z</time>
      </trkpt>
      <trkpt lat="37.070585" lon="-3.37701167">
        <ele>2929.0</ele>
        <time>2022-11-20T13:52:13.000Z</time>
      </trkpt>
      <trkpt lat="37.070595" lon="-3.37702333">
        <ele>2929.0</ele>
        <time>2022-11-20T13:52:14.000Z</time>
      </trkpt>
      <trkpt lat="37.07060667" lon="-3.377035">
        <ele>2929.0</ele>
        <time>2022-11-20T13:52:15.000Z</time>
      </trkpt>
      <trkpt lat="37.07061833" lon="-3.377045">
        <ele>2929.0</ele>
        <time>2022-11-20T13:52:16.000Z</time>
      </trkpt>
      <trkpt lat="37.07063" lon="-3.377055">
        <ele>2928.0</ele>
        <time>2022-11-20T13:52:17.000Z</time>
      </trkpt>
      <trkpt lat="37.07064333" lon="-3.37706167">
        <ele>2928.0</ele>
        <time>2022-11-20T13:52:18.000Z</time>
      </trkpt>
      <trkpt lat="37.07066" lon="-3.37707">
        <ele>2928.0</ele>
        <time>2022-11-20T13:52:19.000Z</time>
      </trkpt>
      <trkpt lat="37.07067333" lon="-3.37707667">
        <ele>2928.0</ele>
        <time>2022-11-20T13:52:20.000Z</time>
      </trkpt>
      <trkpt lat="37.07068833" lon="-3.377085">
        <ele>2928.0</ele>
        <time>2022-11-20T13:52:21.000Z</time>
      </trkpt>
      <trkpt lat="37.0707" lon="-3.377095">
        <ele>2927.0</ele>
        <time>2022-11-20T13:52:22.000Z</time>
      </trkpt>
      <trkpt lat="37.07071167" lon="-3.37710333">
        <ele>2927.0</ele>
        <time>2022-11-20T13:52:23.000Z</time>
      </trkpt>
      <trkpt lat="37.07072167" lon="-3.37711">
        <ele>2927.0</ele>
        <time>2022-11-20T13:52:24.000Z</time>
      </trkpt>
      <trkpt lat="37.07073333" lon="-3.37712">
        <ele>2927.0</ele>
        <time>2022-11-20T13:52:25.000Z</time>
      </trkpt>
      <trkpt lat="37.070745" lon="-3.37712833">
        <ele>2927.0</ele>
        <time>2022-11-20T13:52:26.000Z</time>
      </trkpt>
      <trkpt lat="37.07075833" lon="-3.377135">
        <ele>2926.0</ele>
        <time>2022-11-20T13:52:27.000Z</time>
      </trkpt>
      <trkpt lat="37.07077" lon="-3.37714167">
        <ele>2926.0</ele>
        <time>2022-11-20T13:52:28.000Z</time>
      </trkpt>
      <trkpt lat="37.07078" lon="-3.37715">
        <ele>2926.0</ele>
        <time>2022-11-20T13:52:29.000Z</time>
      </trkpt>
      <trkpt lat="37.07079333" lon="-3.37715333">
        <ele>2926.0</ele>
        <time>2022-11-20T13:52:30.000Z</time>
      </trkpt>
      <trkpt lat="37.07080667" lon="-3.37715167">
        <ele>2926.0</ele>
        <time>2022-11-20T13:52:31.000Z</time>
      </trkpt>
      <trkpt lat="37.07081833" lon="-3.37715">
        <ele>2926.0</ele>
        <time>2022-11-20T13:52:32.000Z</time>
      </trkpt>
      <trkpt lat="37.07082833" lon="-3.37714667">
        <ele>2925.0</ele>
        <time>2022-11-20T13:52:33.000Z</time>
      </trkpt>
      <trkpt lat="37.07084167" lon="-3.37714667">
        <ele>2925.0</ele>
        <time>2022-11-20T13:52:34.000Z</time>
      </trkpt>
      <trkpt lat="37.070855" lon="-3.37715">
        <ele>2925.0</ele>
        <time>2022-11-20T13:52:35.000Z</time>
      </trkpt>
      <trkpt lat="37.07087" lon="-3.377155">
        <ele>2925.0</ele>
        <time>2022-11-20T13:52:36.000Z</time>
      </trkpt>
      <trkpt lat="37.07088333" lon="-3.37715833">
        <ele>2925.0</ele>
        <time>2022-11-20T13:52:37.000Z</time>
      </trkpt>
      <trkpt lat="37.07089833" lon="-3.377165">
        <ele>2924.0</ele>
        <time>2022-11-20T13:52:38.000Z</time>
      </trkpt>
      <trkpt lat="37.07091167" lon="-3.37717167">
        <ele>2924.0</ele>
        <time>2022-11-20T13:52:39.000Z</time>
      </trkpt>
      <trkpt lat="37.07092333" lon="-3.37717833">
        <ele>2924.0</ele>
        <time>2022-11-20T13:52:40.000Z</time>
      </trkpt>
      <trkpt lat="37.07093667" lon="-3.37718333">
        <ele>2924.0</ele>
        <time>2022-11-20T13:52:41.000Z</time>
      </trkpt>
      <trkpt lat="37.07095167" lon="-3.37719">
        <ele>2923.0</ele>
        <time>2022-11-20T13:52:42.000Z</time>
      </trkpt>
      <trkpt lat="37.07096333" lon="-3.37719667">
        <ele>2923.0</ele>
        <time>2022-11-20T13:52:43.000Z</time>
      </trkpt>
      <trkpt lat="37.070975" lon="-3.37720667">
        <ele>2923.0</ele>
        <time>2022-11-20T13:52:44.000Z</time>
      </trkpt>
      <trkpt lat="37.070985" lon="-3.37722">
        <ele>2923.0</ele>
        <time>2022-11-20T13:52:45.000Z</time>
      </trkpt>
      <trkpt lat="37.070995" lon="-3.37722833">
        <ele>2922.0</ele>
        <time>2022-11-20T13:52:46.000Z</time>
      </trkpt>
      <trkpt lat="37.071005" lon="-3.37723333">
        <ele>2922.0</ele>
        <time>2022-11-20T13:52:47.000Z</time>
      </trkpt>
      <trkpt lat="37.07101833" lon="-3.37723167">
        <ele>2922.0</ele>
        <time>2022-11-20T13:52:48.000Z</time>
      </trkpt>
      <trkpt lat="37.07103" lon="-3.37723">
        <ele>2922.0</ele>
        <time>2022-11-20T13:52:49.000Z</time>
      </trkpt>
      <trkpt lat="37.07104667" lon="-3.37723167">
        <ele>2921.0</ele>
        <time>2022-11-20T13:52:50.000Z</time>
      </trkpt>
      <trkpt lat="37.07105833" lon="-3.37723833">
        <ele>2921.0</ele>
        <time>2022-11-20T13:52:51.000Z</time>
      </trkpt>
      <trkpt lat="37.07107167" lon="-3.37725167">
        <ele>2921.0</ele>
        <time>2022-11-20T13:52:52.000Z</time>
      </trkpt>
      <trkpt lat="37.07108167" lon="-3.37726333">
        <ele>2921.0</ele>
        <time>2022-11-20T13:52:53.000Z</time>
      </trkpt>
      <trkpt lat="37.07109167" lon="-3.377275">
        <ele>2920.0</ele>
        <time>2022-11-20T13:52:54.000Z</time>
      </trkpt>
      <trkpt lat="37.07110333" lon="-3.37728667">
        <ele>2920.0</ele>
        <time>2022-11-20T13:52:55.000Z</time>
      </trkpt>
      <trkpt lat="37.07111833" lon="-3.37729833">
        <ele>2920.0</ele>
        <time>2022-11-20T13:52:56.000Z</time>
      </trkpt>
      <trkpt lat="37.07113333" lon="-3.37730667">
        <ele>2919.0</ele>
        <time>2022-11-20T13:52:57.000Z</time>
      </trkpt>
      <trkpt lat="37.07115167" lon="-3.37731333">
        <ele>2919.0</ele>
        <time>2022-11-20T13:52:58.000Z</time>
      </trkpt>
      <trkpt lat="37.07117167" lon="-3.37732167">
        <ele>2918.0</ele>
        <time>2022-11-20T13:52:59.000Z</time>
      </trkpt>
      <trkpt lat="37.07119" lon="-3.37732833">
        <ele>2918.0</ele>
        <time>2022-11-20T13:53:00.000Z</time>
      </trkpt>
      <trkpt lat="37.07121" lon="-3.37734">
        <ele>2917.0</ele>
        <time>2022-11-20T13:53:01.000Z</time>
      </trkpt>
      <trkpt lat="37.07123" lon="-3.37734833">
        <ele>2917.0</ele>
        <time>2022-11-20T13:53:02.000Z</time>
      </trkpt>
      <trkpt lat="37.07124833" lon="-3.37735667">
        <ele>2917.0</ele>
        <time>2022-11-20T13:53:03.000Z</time>
      </trkpt>
      <trkpt lat="37.07127" lon="-3.37736667">
        <ele>2916.0</ele>
        <time>2022-11-20T13:53:04.000Z</time>
      </trkpt>
      <trkpt lat="37.07129167" lon="-3.37737667">
        <ele>2916.0</ele>
        <time>2022-11-20T13:53:05.000Z</time>
      </trkpt>
      <trkpt lat="37.071315" lon="-3.377385">
        <ele>2915.0</ele>
        <time>2022-11-20T13:53:06.000Z</time>
      </trkpt>
      <trkpt lat="37.07133833" lon="-3.37739">
        <ele>2915.0</ele>
        <time>2022-11-20T13:53:07.000Z</time>
      </trkpt>
      <trkpt lat="37.07136" lon="-3.377395">
        <ele>2915.0</ele>
        <time>2022-11-20T13:53:08.000Z</time>
      </trkpt>
      <trkpt lat="37.07138" lon="-3.3774">
        <ele>2915.0</ele>
        <time>2022-11-20T13:53:09.000Z</time>
      </trkpt>
      <trkpt lat="37.07139833" lon="-3.37740333">
        <ele>2914.0</ele>
        <time>2022-11-20T13:53:10.000Z</time>
      </trkpt>
      <trkpt lat="37.071415" lon="-3.37740667">
        <ele>2914.0</ele>
        <time>2022-11-20T13:53:11.000Z</time>
      </trkpt>
      <trkpt lat="37.07142167" lon="-3.37741167">
        <ele>2914.0</ele>
        <time>2022-11-20T13:53:12.000Z</time>
      </trkpt>
      <trkpt lat="37.07142167" lon="-3.37741833">
        <ele>2914.0</ele>
        <time>2022-11-20T13:53:13.000Z</time>
      </trkpt>
      <trkpt lat="37.07142167" lon="-3.37741833">
        <ele>2914.0</ele>
        <time>2022-11-20T13:53:14.000Z</time>
      </trkpt>
      <trkpt lat="37.07142167" lon="-3.37741833">
        <ele>2914.0</ele>
        <time>2022-11-20T13:53:15.000Z</time>
      </trkpt>
      <trkpt lat="37.071425" lon="-3.37741667">
        <ele>2914.0</ele>
        <time>2022-11-20T13:53:16.000Z</time>
      </trkpt>
      <trkpt lat="37.071435" lon="-3.377415">
        <ele>2914.0</ele>
        <time>2022-11-20T13:53:17.000Z</time>
      </trkpt>
      <trkpt lat="37.071445" lon="-3.377415">
        <ele>2914.0</ele>
        <time>2022-11-20T13:53:18.000Z</time>
      </trkpt>
      <trkpt lat="37.071455" lon="-3.37741667">
        <ele>2914.0</ele>
        <time>2022-11-20T13:53:19.000Z</time>
      </trkpt>
      <trkpt lat="37.071465" lon="-3.37741833">
        <ele>2913.0</ele>
        <time>2022-11-20T13:53:20.000Z</time>
      </trkpt>
      <trkpt lat="37.07147667" lon="-3.37742167">
        <ele>2913.0</ele>
        <time>2022-11-20T13:53:21.000Z</time>
      </trkpt>
      <trkpt lat="37.07149" lon="-3.377425">
        <ele>2913.0</ele>
        <time>2022-11-20T13:53:22.000Z</time>
      </trkpt>
      <trkpt lat="37.07150167" lon="-3.37742833">
        <ele>2913.0</ele>
        <time>2022-11-20T13:53:23.000Z</time>
      </trkpt>
      <trkpt lat="37.07151333" lon="-3.37743167">
        <ele>2913.0</ele>
        <time>2022-11-20T13:53:24.000Z</time>
      </trkpt>
      <trkpt lat="37.07152667" lon="-3.377435">
        <ele>2913.0</ele>
        <time>2022-11-20T13:53:25.000Z</time>
      </trkpt>
      <trkpt lat="37.07153833" lon="-3.37743833">
        <ele>2913.0</ele>
        <time>2022-11-20T13:53:26.000Z</time>
      </trkpt>
      <trkpt lat="37.07155" lon="-3.37744333">
        <ele>2912.0</ele>
        <time>2022-11-20T13:53:27.000Z</time>
      </trkpt>
      <trkpt lat="37.07156167" lon="-3.37744833">
        <ele>2912.0</ele>
        <time>2022-11-20T13:53:28.000Z</time>
      </trkpt>
      <trkpt lat="37.07157167" lon="-3.37745333">
        <ele>2912.0</ele>
        <time>2022-11-20T13:53:29.000Z</time>
      </trkpt>
      <trkpt lat="37.07158167" lon="-3.37746">
        <ele>2912.0</ele>
        <time>2022-11-20T13:53:30.000Z</time>
      </trkpt>
      <trkpt lat="37.07159167" lon="-3.377465">
        <ele>2912.0</ele>
        <time>2022-11-20T13:53:31.000Z</time>
      </trkpt>
      <trkpt lat="37.07160333" lon="-3.37747">
        <ele>2912.0</ele>
        <time>2022-11-20T13:53:32.000Z</time>
      </trkpt>
      <trkpt lat="37.071615" lon="-3.377475">
        <ele>2912.0</ele>
        <time>2022-11-20T13:53:33.000Z</time>
      </trkpt>
      <trkpt lat="37.071625" lon="-3.37748333">
        <ele>2912.0</ele>
        <time>2022-11-20T13:53:34.000Z</time>
      </trkpt>
      <trkpt lat="37.07163667" lon="-3.37749167">
        <ele>2912.0</ele>
        <time>2022-11-20T13:53:35.000Z</time>
      </trkpt>
      <trkpt lat="37.07164833" lon="-3.3775">
        <ele>2912.0</ele>
        <time>2022-11-20T13:53:36.000Z</time>
      </trkpt>
      <trkpt lat="37.07166" lon="-3.377505">
        <ele>2912.0</ele>
        <time>2022-11-20T13:53:37.000Z</time>
      </trkpt>
      <trkpt lat="37.07167" lon="-3.377515">
        <ele>2912.0</ele>
        <time>2022-11-20T13:53:38.000Z</time>
      </trkpt>
      <trkpt lat="37.07167667" lon="-3.37752">
        <ele>2912.0</ele>
        <time>2022-11-20T13:53:39.000Z</time>
      </trkpt>
      <trkpt lat="37.07167833" lon="-3.37752167">
        <ele>2912.0</ele>
        <time>2022-11-20T13:53:40.000Z</time>
      </trkpt>
      <trkpt lat="37.07167833" lon="-3.37752167">
        <ele>2912.0</ele>
        <time>2022-11-20T13:53:41.000Z</time>
      </trkpt>
      <trkpt lat="37.07167667" lon="-3.37752167">
        <ele>2912.0</ele>
        <time>2022-11-20T13:53:42.000Z</time>
      </trkpt>
      <trkpt lat="37.07167667" lon="-3.37752167">
        <ele>2912.0</ele>
        <time>2022-11-20T13:53:43.000Z</time>
      </trkpt>
      <trkpt lat="37.07167667" lon="-3.37752167">
        <ele>2912.0</ele>
        <time>2022-11-20T13:53:44.000Z</time>
      </trkpt>
      <trkpt lat="37.07167667" lon="-3.37752167">
        <ele>2911.0</ele>
        <time>2022-11-20T13:53:45.000Z</time>
      </trkpt>
      <trkpt lat="37.07167667" lon="-3.37752167">
        <ele>2911.0</ele>
        <time>2022-11-20T13:53:46.000Z</time>
      </trkpt>
      <trkpt lat="37.071675" lon="-3.37752333">
        <ele>2911.0</ele>
        <time>2022-11-20T13:53:47.000Z</time>
      </trkpt>
      <trkpt lat="37.071675" lon="-3.37752333">
        <ele>2911.0</ele>
        <time>2022-11-20T13:53:48.000Z</time>
      </trkpt>
      <trkpt lat="37.07167667" lon="-3.37752333">
        <ele>2911.0</ele>
        <time>2022-11-20T13:53:49.000Z</time>
      </trkpt>
      <trkpt lat="37.07168" lon="-3.37752167">
        <ele>2911.0</ele>
        <time>2022-11-20T13:53:50.000Z</time>
      </trkpt>
      <trkpt lat="37.071685" lon="-3.377525">
        <ele>2911.0</ele>
        <time>2022-11-20T13:53:51.000Z</time>
      </trkpt>
      <trkpt lat="37.07169333" lon="-3.37752667">
        <ele>2911.0</ele>
        <time>2022-11-20T13:53:52.000Z</time>
      </trkpt>
      <trkpt lat="37.07170333" lon="-3.37753167">
        <ele>2911.0</ele>
        <time>2022-11-20T13:53:53.000Z</time>
      </trkpt>
      <trkpt lat="37.07171333" lon="-3.377535">
        <ele>2911.0</ele>
        <time>2022-11-20T13:53:54.000Z</time>
      </trkpt>
      <trkpt lat="37.071725" lon="-3.37753667">
        <ele>2911.0</ele>
        <time>2022-11-20T13:53:55.000Z</time>
      </trkpt>
      <trkpt lat="37.07173333" lon="-3.37753833">
        <ele>2911.0</ele>
        <time>2022-11-20T13:53:56.000Z</time>
      </trkpt>
      <trkpt lat="37.071745" lon="-3.37754167">
        <ele>2911.0</ele>
        <time>2022-11-20T13:53:57.000Z</time>
      </trkpt>
      <trkpt lat="37.071755" lon="-3.37754667">
        <ele>2911.0</ele>
        <time>2022-11-20T13:53:58.000Z</time>
      </trkpt>
      <trkpt lat="37.07176167" lon="-3.37755">
        <ele>2910.0</ele>
        <time>2022-11-20T13:53:59.000Z</time>
      </trkpt>
      <trkpt lat="37.07176667" lon="-3.37755">
        <ele>2910.0</ele>
        <time>2022-11-20T13:54:00.000Z</time>
      </trkpt>
      <trkpt lat="37.071775" lon="-3.37754833">
        <ele>2910.0</ele>
        <time>2022-11-20T13:54:01.000Z</time>
      </trkpt>
      <trkpt lat="37.07178333" lon="-3.37755167">
        <ele>2910.0</ele>
        <time>2022-11-20T13:54:02.000Z</time>
      </trkpt>
      <trkpt lat="37.071795" lon="-3.37755667">
        <ele>2910.0</ele>
        <time>2022-11-20T13:54:03.000Z</time>
      </trkpt>
      <trkpt lat="37.07180667" lon="-3.37756">
        <ele>2910.0</ele>
        <time>2022-11-20T13:54:04.000Z</time>
      </trkpt>
      <trkpt lat="37.07181667" lon="-3.377565">
        <ele>2910.0</ele>
        <time>2022-11-20T13:54:05.000Z</time>
      </trkpt>
      <trkpt lat="37.07182833" lon="-3.37757">
        <ele>2910.0</ele>
        <time>2022-11-20T13:54:06.000Z</time>
      </trkpt>
      <trkpt lat="37.07184167" lon="-3.37757667">
        <ele>2909.0</ele>
        <time>2022-11-20T13:54:07.000Z</time>
      </trkpt>
      <trkpt lat="37.07185333" lon="-3.37758333">
        <ele>2909.0</ele>
        <time>2022-11-20T13:54:08.000Z</time>
      </trkpt>
      <trkpt lat="37.07186333" lon="-3.37759">
        <ele>2909.0</ele>
        <time>2022-11-20T13:54:09.000Z</time>
      </trkpt>
      <trkpt lat="37.071875" lon="-3.377595">
        <ele>2909.0</ele>
        <time>2022-11-20T13:54:10.000Z</time>
      </trkpt>
      <trkpt lat="37.07188667" lon="-3.37759833">
        <ele>2909.0</ele>
        <time>2022-11-20T13:54:11.000Z</time>
      </trkpt>
      <trkpt lat="37.07189833" lon="-3.37760333">
        <ele>2909.0</ele>
        <time>2022-11-20T13:54:12.000Z</time>
      </trkpt>
      <trkpt lat="37.07191" lon="-3.37760833">
        <ele>2909.0</ele>
        <time>2022-11-20T13:54:13.000Z</time>
      </trkpt>
      <trkpt lat="37.07192167" lon="-3.377615">
        <ele>2908.0</ele>
        <time>2022-11-20T13:54:14.000Z</time>
      </trkpt>
      <trkpt lat="37.071935" lon="-3.37762">
        <ele>2908.0</ele>
        <time>2022-11-20T13:54:15.000Z</time>
      </trkpt>
      <trkpt lat="37.07194667" lon="-3.377625">
        <ele>2908.0</ele>
        <time>2022-11-20T13:54:16.000Z</time>
      </trkpt>
      <trkpt lat="37.07195833" lon="-3.37763">
        <ele>2908.0</ele>
        <time>2022-11-20T13:54:17.000Z</time>
      </trkpt>
      <trkpt lat="37.07197" lon="-3.377635">
        <ele>2908.0</ele>
        <time>2022-11-20T13:54:18.000Z</time>
      </trkpt>
      <trkpt lat="37.07198333" lon="-3.37764">
        <ele>2908.0</ele>
        <time>2022-11-20T13:54:19.000Z</time>
      </trkpt>
      <trkpt lat="37.071995" lon="-3.37764333">
        <ele>2908.0</ele>
        <time>2022-11-20T13:54:20.000Z</time>
      </trkpt>
      <trkpt lat="37.07200833" lon="-3.37764333">
        <ele>2907.0</ele>
        <time>2022-11-20T13:54:21.000Z</time>
      </trkpt>
      <trkpt lat="37.07202" lon="-3.377645">
        <ele>2907.0</ele>
        <time>2022-11-20T13:54:22.000Z</time>
      </trkpt>
      <trkpt lat="37.07203333" lon="-3.37764667">
        <ele>2907.0</ele>
        <time>2022-11-20T13:54:23.000Z</time>
      </trkpt>
      <trkpt lat="37.07204667" lon="-3.37764833">
        <ele>2907.0</ele>
        <time>2022-11-20T13:54:24.000Z</time>
      </trkpt>
      <trkpt lat="37.07206167" lon="-3.37765167">
        <ele>2907.0</ele>
        <time>2022-11-20T13:54:25.000Z</time>
      </trkpt>
      <trkpt lat="37.072075" lon="-3.377655">
        <ele>2907.0</ele>
        <time>2022-11-20T13:54:26.000Z</time>
      </trkpt>
      <trkpt lat="37.07208667" lon="-3.37765667">
        <ele>2906.0</ele>
        <time>2022-11-20T13:54:27.000Z</time>
      </trkpt>
      <trkpt lat="37.07209833" lon="-3.37766167">
        <ele>2906.0</ele>
        <time>2022-11-20T13:54:28.000Z</time>
      </trkpt>
      <trkpt lat="37.07211" lon="-3.377665">
        <ele>2906.0</ele>
        <time>2022-11-20T13:54:29.000Z</time>
      </trkpt>
      <trkpt lat="37.07212167" lon="-3.37766667">
        <ele>2906.0</ele>
        <time>2022-11-20T13:54:30.000Z</time>
      </trkpt>
      <trkpt lat="37.07213333" lon="-3.377665">
        <ele>2906.0</ele>
        <time>2022-11-20T13:54:31.000Z</time>
      </trkpt>
      <trkpt lat="37.07214333" lon="-3.37766333">
        <ele>2905.0</ele>
        <time>2022-11-20T13:54:32.000Z</time>
      </trkpt>
      <trkpt lat="37.07215167" lon="-3.37766667">
        <ele>2905.0</ele>
        <time>2022-11-20T13:54:33.000Z</time>
      </trkpt>
      <trkpt lat="37.07216167" lon="-3.377675">
        <ele>2905.0</ele>
        <time>2022-11-20T13:54:34.000Z</time>
      </trkpt>
      <trkpt lat="37.07217" lon="-3.37768333">
        <ele>2905.0</ele>
        <time>2022-11-20T13:54:35.000Z</time>
      </trkpt>
      <trkpt lat="37.07218" lon="-3.37769">
        <ele>2904.0</ele>
        <time>2022-11-20T13:54:36.000Z</time>
      </trkpt>
      <trkpt lat="37.07219" lon="-3.37769333">
        <ele>2904.0</ele>
        <time>2022-11-20T13:54:37.000Z</time>
      </trkpt>
      <trkpt lat="37.07220167" lon="-3.3777">
        <ele>2904.0</ele>
        <time>2022-11-20T13:54:38.000Z</time>
      </trkpt>
      <trkpt lat="37.07221167" lon="-3.377705">
        <ele>2904.0</ele>
        <time>2022-11-20T13:54:39.000Z</time>
      </trkpt>
      <trkpt lat="37.07222333" lon="-3.37771">
        <ele>2904.0</ele>
        <time>2022-11-20T13:54:40.000Z</time>
      </trkpt>
      <trkpt lat="37.07223333" lon="-3.377715">
        <ele>2903.0</ele>
        <time>2022-11-20T13:54:41.000Z</time>
      </trkpt>
      <trkpt lat="37.07224667" lon="-3.37772167">
        <ele>2903.0</ele>
        <time>2022-11-20T13:54:42.000Z</time>
      </trkpt>
      <trkpt lat="37.07225667" lon="-3.37772667">
        <ele>2903.0</ele>
        <time>2022-11-20T13:54:43.000Z</time>
      </trkpt>
      <trkpt lat="37.07226667" lon="-3.37773333">
        <ele>2903.0</ele>
        <time>2022-11-20T13:54:44.000Z</time>
      </trkpt>
      <trkpt lat="37.07227833" lon="-3.37773667">
        <ele>2903.0</ele>
        <time>2022-11-20T13:54:45.000Z</time>
      </trkpt>
      <trkpt lat="37.07229" lon="-3.37774333">
        <ele>2903.0</ele>
        <time>2022-11-20T13:54:46.000Z</time>
      </trkpt>
      <trkpt lat="37.0723" lon="-3.37774833">
        <ele>2903.0</ele>
        <time>2022-11-20T13:54:47.000Z</time>
      </trkpt>
      <trkpt lat="37.07231" lon="-3.37775167">
        <ele>2902.0</ele>
        <time>2022-11-20T13:54:48.000Z</time>
      </trkpt>
      <trkpt lat="37.07232" lon="-3.377755">
        <ele>2902.0</ele>
        <time>2022-11-20T13:54:49.000Z</time>
      </trkpt>
      <trkpt lat="37.07233" lon="-3.37776">
        <ele>2902.0</ele>
        <time>2022-11-20T13:54:50.000Z</time>
      </trkpt>
      <trkpt lat="37.07233833" lon="-3.37776167">
        <ele>2902.0</ele>
        <time>2022-11-20T13:54:51.000Z</time>
      </trkpt>
      <trkpt lat="37.07234833" lon="-3.377765">
        <ele>2902.0</ele>
        <time>2022-11-20T13:54:52.000Z</time>
      </trkpt>
      <trkpt lat="37.07236167" lon="-3.37777">
        <ele>2902.0</ele>
        <time>2022-11-20T13:54:53.000Z</time>
      </trkpt>
      <trkpt lat="37.07237333" lon="-3.37777667">
        <ele>2902.0</ele>
        <time>2022-11-20T13:54:54.000Z</time>
      </trkpt>
      <trkpt lat="37.072385" lon="-3.37778333">
        <ele>2902.0</ele>
        <time>2022-11-20T13:54:55.000Z</time>
      </trkpt>
      <trkpt lat="37.07239667" lon="-3.37779">
        <ele>2902.0</ele>
        <time>2022-11-20T13:54:56.000Z</time>
      </trkpt>
      <trkpt lat="37.07240833" lon="-3.37779833">
        <ele>2902.0</ele>
        <time>2022-11-20T13:54:57.000Z</time>
      </trkpt>
      <trkpt lat="37.07242" lon="-3.377805">
        <ele>2902.0</ele>
        <time>2022-11-20T13:54:58.000Z</time>
      </trkpt>
      <trkpt lat="37.07243167" lon="-3.37781167">
        <ele>2902.0</ele>
        <time>2022-11-20T13:54:59.000Z</time>
      </trkpt>
      <trkpt lat="37.07244167" lon="-3.37781667">
        <ele>2902.0</ele>
        <time>2022-11-20T13:55:00.000Z</time>
      </trkpt>
      <trkpt lat="37.07245167" lon="-3.37782333">
        <ele>2901.0</ele>
        <time>2022-11-20T13:55:01.000Z</time>
      </trkpt>
      <trkpt lat="37.07246333" lon="-3.37783">
        <ele>2901.0</ele>
        <time>2022-11-20T13:55:02.000Z</time>
      </trkpt>
      <trkpt lat="37.07247667" lon="-3.37783667">
        <ele>2901.0</ele>
        <time>2022-11-20T13:55:03.000Z</time>
      </trkpt>
      <trkpt lat="37.07248833" lon="-3.377845">
        <ele>2901.0</ele>
        <time>2022-11-20T13:55:04.000Z</time>
      </trkpt>
      <trkpt lat="37.07249833" lon="-3.37785167">
        <ele>2901.0</ele>
        <time>2022-11-20T13:55:05.000Z</time>
      </trkpt>
      <trkpt lat="37.07250833" lon="-3.37786">
        <ele>2901.0</ele>
        <time>2022-11-20T13:55:06.000Z</time>
      </trkpt>
      <trkpt lat="37.07252" lon="-3.37786833">
        <ele>2901.0</ele>
        <time>2022-11-20T13:55:07.000Z</time>
      </trkpt>
      <trkpt lat="37.07253167" lon="-3.37787667">
        <ele>2901.0</ele>
        <time>2022-11-20T13:55:08.000Z</time>
      </trkpt>
      <trkpt lat="37.07254333" lon="-3.377885">
        <ele>2901.0</ele>
        <time>2022-11-20T13:55:09.000Z</time>
      </trkpt>
      <trkpt lat="37.072555" lon="-3.37789">
        <ele>2901.0</ele>
        <time>2022-11-20T13:55:10.000Z</time>
      </trkpt>
      <trkpt lat="37.072565" lon="-3.377895">
        <ele>2901.0</ele>
        <time>2022-11-20T13:55:11.000Z</time>
      </trkpt>
      <trkpt lat="37.07257667" lon="-3.37790167">
        <ele>2901.0</ele>
        <time>2022-11-20T13:55:12.000Z</time>
      </trkpt>
      <trkpt lat="37.07258833" lon="-3.37790833">
        <ele>2901.0</ele>
        <time>2022-11-20T13:55:13.000Z</time>
      </trkpt>
      <trkpt lat="37.0726" lon="-3.377915">
        <ele>2901.0</ele>
        <time>2022-11-20T13:55:14.000Z</time>
      </trkpt>
      <trkpt lat="37.07261167" lon="-3.37792167">
        <ele>2901.0</ele>
        <time>2022-11-20T13:55:15.000Z</time>
      </trkpt>
      <trkpt lat="37.07262333" lon="-3.37792667">
        <ele>2901.0</ele>
        <time>2022-11-20T13:55:16.000Z</time>
      </trkpt>
      <trkpt lat="37.072635" lon="-3.37793333">
        <ele>2901.0</ele>
        <time>2022-11-20T13:55:17.000Z</time>
      </trkpt>
      <trkpt lat="37.072645" lon="-3.37793833">
        <ele>2901.0</ele>
        <time>2022-11-20T13:55:18.000Z</time>
      </trkpt>
      <trkpt lat="37.07265667" lon="-3.37794167">
        <ele>2901.0</ele>
        <time>2022-11-20T13:55:19.000Z</time>
      </trkpt>
      <trkpt lat="37.07267" lon="-3.377945">
        <ele>2901.0</ele>
        <time>2022-11-20T13:55:20.000Z</time>
      </trkpt>
      <trkpt lat="37.07268167" lon="-3.37794833">
        <ele>2900.0</ele>
        <time>2022-11-20T13:55:21.000Z</time>
      </trkpt>
      <trkpt lat="37.07269333" lon="-3.37795167">
        <ele>2900.0</ele>
        <time>2022-11-20T13:55:22.000Z</time>
      </trkpt>
      <trkpt lat="37.07270667" lon="-3.377955">
        <ele>2900.0</ele>
        <time>2022-11-20T13:55:23.000Z</time>
      </trkpt>
      <trkpt lat="37.07272167" lon="-3.37796">
        <ele>2900.0</ele>
        <time>2022-11-20T13:55:24.000Z</time>
      </trkpt>
      <trkpt lat="37.072735" lon="-3.37796333">
        <ele>2900.0</ele>
        <time>2022-11-20T13:55:25.000Z</time>
      </trkpt>
      <trkpt lat="37.07274833" lon="-3.37796833">
        <ele>2900.0</ele>
        <time>2022-11-20T13:55:26.000Z</time>
      </trkpt>
      <trkpt lat="37.07276333" lon="-3.37797167">
        <ele>2900.0</ele>
        <time>2022-11-20T13:55:27.000Z</time>
      </trkpt>
      <trkpt lat="37.07277667" lon="-3.37797333">
        <ele>2899.0</ele>
        <time>2022-11-20T13:55:28.000Z</time>
      </trkpt>
      <trkpt lat="37.07279" lon="-3.377975">
        <ele>2899.0</ele>
        <time>2022-11-20T13:55:29.000Z</time>
      </trkpt>
      <trkpt lat="37.07280333" lon="-3.37797667">
        <ele>2899.0</ele>
        <time>2022-11-20T13:55:30.000Z</time>
      </trkpt>
      <trkpt lat="37.07281333" lon="-3.37797833">
        <ele>2899.0</ele>
        <time>2022-11-20T13:55:31.000Z</time>
      </trkpt>
      <trkpt lat="37.072825" lon="-3.37798">
        <ele>2899.0</ele>
        <time>2022-11-20T13:55:32.000Z</time>
      </trkpt>
      <trkpt lat="37.07283833" lon="-3.37798">
        <ele>2899.0</ele>
        <time>2022-11-20T13:55:33.000Z</time>
      </trkpt>
      <trkpt lat="37.07285" lon="-3.37798">
        <ele>2898.0</ele>
        <time>2022-11-20T13:55:34.000Z</time>
      </trkpt>
      <trkpt lat="37.07286167" lon="-3.37798">
        <ele>2898.0</ele>
        <time>2022-11-20T13:55:35.000Z</time>
      </trkpt>
      <trkpt lat="37.07287333" lon="-3.37797833">
        <ele>2898.0</ele>
        <time>2022-11-20T13:55:36.000Z</time>
      </trkpt>
      <trkpt lat="37.07288667" lon="-3.37797833">
        <ele>2898.0</ele>
        <time>2022-11-20T13:55:37.000Z</time>
      </trkpt>
      <trkpt lat="37.07289833" lon="-3.37797833">
        <ele>2897.0</ele>
        <time>2022-11-20T13:55:38.000Z</time>
      </trkpt>
      <trkpt lat="37.07290833" lon="-3.37798">
        <ele>2897.0</ele>
        <time>2022-11-20T13:55:39.000Z</time>
      </trkpt>
      <trkpt lat="37.07292167" lon="-3.37798167">
        <ele>2897.0</ele>
        <time>2022-11-20T13:55:40.000Z</time>
      </trkpt>
      <trkpt lat="37.072935" lon="-3.37798333">
        <ele>2897.0</ele>
        <time>2022-11-20T13:55:41.000Z</time>
      </trkpt>
      <trkpt lat="37.07294833" lon="-3.377985">
        <ele>2897.0</ele>
        <time>2022-11-20T13:55:42.000Z</time>
      </trkpt>
      <trkpt lat="37.07296" lon="-3.37798833">
        <ele>2897.0</ele>
        <time>2022-11-20T13:55:43.000Z</time>
      </trkpt>
      <trkpt lat="37.07297167" lon="-3.37799333">
        <ele>2897.0</ele>
        <time>2022-11-20T13:55:44.000Z</time>
      </trkpt>
      <trkpt lat="37.072985" lon="-3.37799667">
        <ele>2897.0</ele>
        <time>2022-11-20T13:55:45.000Z</time>
      </trkpt>
      <trkpt lat="37.07299667" lon="-3.378">
        <ele>2897.0</ele>
        <time>2022-11-20T13:55:46.000Z</time>
      </trkpt>
      <trkpt lat="37.07301" lon="-3.37800333">
        <ele>2896.0</ele>
        <time>2022-11-20T13:55:47.000Z</time>
      </trkpt>
      <trkpt lat="37.07302167" lon="-3.37800833">
        <ele>2896.0</ele>
        <time>2022-11-20T13:55:48.000Z</time>
      </trkpt>
      <trkpt lat="37.073035" lon="-3.37801">
        <ele>2896.0</ele>
        <time>2022-11-20T13:55:49.000Z</time>
      </trkpt>
      <trkpt lat="37.07304667" lon="-3.37801333">
        <ele>2896.0</ele>
        <time>2022-11-20T13:55:50.000Z</time>
      </trkpt>
      <trkpt lat="37.07305833" lon="-3.378015">
        <ele>2896.0</ele>
        <time>2022-11-20T13:55:51.000Z</time>
      </trkpt>
      <trkpt lat="37.07307" lon="-3.378015">
        <ele>2896.0</ele>
        <time>2022-11-20T13:55:52.000Z</time>
      </trkpt>
      <trkpt lat="37.073085" lon="-3.37801667">
        <ele>2895.0</ele>
        <time>2022-11-20T13:55:53.000Z</time>
      </trkpt>
      <trkpt lat="37.0731" lon="-3.37801667">
        <ele>2895.0</ele>
        <time>2022-11-20T13:55:54.000Z</time>
      </trkpt>
      <trkpt lat="37.073115" lon="-3.37801833">
        <ele>2895.0</ele>
        <time>2022-11-20T13:55:55.000Z</time>
      </trkpt>
      <trkpt lat="37.07313" lon="-3.37801833">
        <ele>2895.0</ele>
        <time>2022-11-20T13:55:56.000Z</time>
      </trkpt>
      <trkpt lat="37.07314333" lon="-3.37801833">
        <ele>2894.0</ele>
        <time>2022-11-20T13:55:57.000Z</time>
      </trkpt>
      <trkpt lat="37.07316167" lon="-3.37801833">
        <ele>2894.0</ele>
        <time>2022-11-20T13:55:58.000Z</time>
      </trkpt>
      <trkpt lat="37.07317833" lon="-3.37801667">
        <ele>2894.0</ele>
        <time>2022-11-20T13:55:59.000Z</time>
      </trkpt>
      <trkpt lat="37.07319333" lon="-3.37801667">
        <ele>2894.0</ele>
        <time>2022-11-20T13:56:00.000Z</time>
      </trkpt>
      <trkpt lat="37.07320833" lon="-3.378015">
        <ele>2893.0</ele>
        <time>2022-11-20T13:56:01.000Z</time>
      </trkpt>
      <trkpt lat="37.07322333" lon="-3.378015">
        <ele>2893.0</ele>
        <time>2022-11-20T13:56:02.000Z</time>
      </trkpt>
      <trkpt lat="37.07323667" lon="-3.37801167">
        <ele>2893.0</ele>
        <time>2022-11-20T13:56:03.000Z</time>
      </trkpt>
      <trkpt lat="37.07325167" lon="-3.37800833">
        <ele>2892.0</ele>
        <time>2022-11-20T13:56:04.000Z</time>
      </trkpt>
      <trkpt lat="37.07326667" lon="-3.378005">
        <ele>2892.0</ele>
        <time>2022-11-20T13:56:05.000Z</time>
      </trkpt>
      <trkpt lat="37.07328167" lon="-3.378">
        <ele>2892.0</ele>
        <time>2022-11-20T13:56:06.000Z</time>
      </trkpt>
      <trkpt lat="37.073295" lon="-3.37799667">
        <ele>2892.0</ele>
        <time>2022-11-20T13:56:07.000Z</time>
      </trkpt>
      <trkpt lat="37.07330833" lon="-3.37799333">
        <ele>2892.0</ele>
        <time>2022-11-20T13:56:08.000Z</time>
      </trkpt>
      <trkpt lat="37.07332167" lon="-3.37799167">
        <ele>2892.0</ele>
        <time>2022-11-20T13:56:09.000Z</time>
      </trkpt>
      <trkpt lat="37.073335" lon="-3.37798833">
        <ele>2891.0</ele>
        <time>2022-11-20T13:56:10.000Z</time>
      </trkpt>
      <trkpt lat="37.07334667" lon="-3.37799">
        <ele>2891.0</ele>
        <time>2022-11-20T13:56:11.000Z</time>
      </trkpt>
      <trkpt lat="37.07336" lon="-3.37799">
        <ele>2891.0</ele>
        <time>2022-11-20T13:56:12.000Z</time>
      </trkpt>
      <trkpt lat="37.07337167" lon="-3.37799">
        <ele>2891.0</ele>
        <time>2022-11-20T13:56:13.000Z</time>
      </trkpt>
      <trkpt lat="37.07338667" lon="-3.37799167">
        <ele>2891.0</ele>
        <time>2022-11-20T13:56:14.000Z</time>
      </trkpt>
      <trkpt lat="37.07339833" lon="-3.37799333">
        <ele>2890.0</ele>
        <time>2022-11-20T13:56:15.000Z</time>
      </trkpt>
      <trkpt lat="37.07341" lon="-3.37799167">
        <ele>2890.0</ele>
        <time>2022-11-20T13:56:16.000Z</time>
      </trkpt>
      <trkpt lat="37.07342333" lon="-3.37799">
        <ele>2890.0</ele>
        <time>2022-11-20T13:56:17.000Z</time>
      </trkpt>
      <trkpt lat="37.073435" lon="-3.37798833">
        <ele>2890.0</ele>
        <time>2022-11-20T13:56:18.000Z</time>
      </trkpt>
      <trkpt lat="37.07344667" lon="-3.377985">
        <ele>2889.0</ele>
        <time>2022-11-20T13:56:19.000Z</time>
      </trkpt>
      <trkpt lat="37.07345667" lon="-3.37798">
        <ele>2889.0</ele>
        <time>2022-11-20T13:56:20.000Z</time>
      </trkpt>
      <trkpt lat="37.07346833" lon="-3.37797667">
        <ele>2889.0</ele>
        <time>2022-11-20T13:56:21.000Z</time>
      </trkpt>
      <trkpt lat="37.07348" lon="-3.37797">
        <ele>2889.0</ele>
        <time>2022-11-20T13:56:22.000Z</time>
      </trkpt>
      <trkpt lat="37.07349333" lon="-3.37796333">
        <ele>2889.0</ele>
        <time>2022-11-20T13:56:23.000Z</time>
      </trkpt>
      <trkpt lat="37.07351" lon="-3.37795833">
        <ele>2888.0</ele>
        <time>2022-11-20T13:56:24.000Z</time>
      </trkpt>
      <trkpt lat="37.07352333" lon="-3.377955">
        <ele>2888.0</ele>
        <time>2022-11-20T13:56:25.000Z</time>
      </trkpt>
      <trkpt lat="37.07353667" lon="-3.37795">
        <ele>2888.0</ele>
        <time>2022-11-20T13:56:26.000Z</time>
      </trkpt>
      <trkpt lat="37.07354833" lon="-3.37794333">
        <ele>2888.0</ele>
        <time>2022-11-20T13:56:27.000Z</time>
      </trkpt>
      <trkpt lat="37.07356" lon="-3.37793667">
        <ele>2887.0</ele>
        <time>2022-11-20T13:56:28.000Z</time>
      </trkpt>
      <trkpt lat="37.07357333" lon="-3.37793">
        <ele>2887.0</ele>
        <time>2022-11-20T13:56:29.000Z</time>
      </trkpt>
      <trkpt lat="37.073585" lon="-3.37792167">
        <ele>2887.0</ele>
        <time>2022-11-20T13:56:30.000Z</time>
      </trkpt>
      <trkpt lat="37.07359833" lon="-3.377915">
        <ele>2887.0</ele>
        <time>2022-11-20T13:56:31.000Z</time>
      </trkpt>
      <trkpt lat="37.07361" lon="-3.37790833">
        <ele>2886.0</ele>
        <time>2022-11-20T13:56:32.000Z</time>
      </trkpt>
      <trkpt lat="37.07362333" lon="-3.3779">
        <ele>2886.0</ele>
        <time>2022-11-20T13:56:33.000Z</time>
      </trkpt>
      <trkpt lat="37.073635" lon="-3.37789167">
        <ele>2886.0</ele>
        <time>2022-11-20T13:56:34.000Z</time>
      </trkpt>
      <trkpt lat="37.07364667" lon="-3.37788333">
        <ele>2886.0</ele>
        <time>2022-11-20T13:56:35.000Z</time>
      </trkpt>
      <trkpt lat="37.07365833" lon="-3.377875">
        <ele>2885.0</ele>
        <time>2022-11-20T13:56:36.000Z</time>
      </trkpt>
      <trkpt lat="37.07367" lon="-3.37786833">
        <ele>2885.0</ele>
        <time>2022-11-20T13:56:37.000Z</time>
      </trkpt>
      <trkpt lat="37.07368167" lon="-3.37786333">
        <ele>2885.0</ele>
        <time>2022-11-20T13:56:38.000Z</time>
      </trkpt>
      <trkpt lat="37.07369333" lon="-3.37786167">
        <ele>2885.0</ele>
        <time>2022-11-20T13:56:39.000Z</time>
      </trkpt>
      <trkpt lat="37.07370333" lon="-3.37785833">
        <ele>2885.0</ele>
        <time>2022-11-20T13:56:40.000Z</time>
      </trkpt>
      <trkpt lat="37.073715" lon="-3.377855">
        <ele>2885.0</ele>
        <time>2022-11-20T13:56:41.000Z</time>
      </trkpt>
      <trkpt lat="37.07372667" lon="-3.37784833">
        <ele>2884.0</ele>
        <time>2022-11-20T13:56:42.000Z</time>
      </trkpt>
      <trkpt lat="37.07374" lon="-3.37784333">
        <ele>2884.0</ele>
        <time>2022-11-20T13:56:43.000Z</time>
      </trkpt>
      <trkpt lat="37.07375667" lon="-3.37784">
        <ele>2884.0</ele>
        <time>2022-11-20T13:56:44.000Z</time>
      </trkpt>
      <trkpt lat="37.07377333" lon="-3.37783833">
        <ele>2883.0</ele>
        <time>2022-11-20T13:56:45.000Z</time>
      </trkpt>
      <trkpt lat="37.07378667" lon="-3.377835">
        <ele>2883.0</ele>
        <time>2022-11-20T13:56:46.000Z</time>
      </trkpt>
      <trkpt lat="37.07380333" lon="-3.37782833">
        <ele>2883.0</ele>
        <time>2022-11-20T13:56:47.000Z</time>
      </trkpt>
      <trkpt lat="37.07381833" lon="-3.37782167">
        <ele>2882.0</ele>
        <time>2022-11-20T13:56:48.000Z</time>
      </trkpt>
      <trkpt lat="37.073835" lon="-3.377815">
        <ele>2882.0</ele>
        <time>2022-11-20T13:56:49.000Z</time>
      </trkpt>
      <trkpt lat="37.07384667" lon="-3.37781">
        <ele>2882.0</ele>
        <time>2022-11-20T13:56:50.000Z</time>
      </trkpt>
      <trkpt lat="37.07386" lon="-3.377805">
        <ele>2881.0</ele>
        <time>2022-11-20T13:56:51.000Z</time>
      </trkpt>
      <trkpt lat="37.07387333" lon="-3.37779667">
        <ele>2881.0</ele>
        <time>2022-11-20T13:56:52.000Z</time>
      </trkpt>
      <trkpt lat="37.073885" lon="-3.37779167">
        <ele>2881.0</ele>
        <time>2022-11-20T13:56:53.000Z</time>
      </trkpt>
      <trkpt lat="37.0739" lon="-3.37778333">
        <ele>2880.0</ele>
        <time>2022-11-20T13:56:54.000Z</time>
      </trkpt>
      <trkpt lat="37.07391667" lon="-3.37778167">
        <ele>2880.0</ele>
        <time>2022-11-20T13:56:55.000Z</time>
      </trkpt>
      <trkpt lat="37.07393167" lon="-3.37778167">
        <ele>2880.0</ele>
        <time>2022-11-20T13:56:56.000Z</time>
      </trkpt>
      <trkpt lat="37.07394667" lon="-3.37778333">
        <ele>2880.0</ele>
        <time>2022-11-20T13:56:57.000Z</time>
      </trkpt>
      <trkpt lat="37.07396" lon="-3.37778333">
        <ele>2880.0</ele>
        <time>2022-11-20T13:56:58.000Z</time>
      </trkpt>
      <trkpt lat="37.07397333" lon="-3.37778667">
        <ele>2879.0</ele>
        <time>2022-11-20T13:56:59.000Z</time>
      </trkpt>
      <trkpt lat="37.07398833" lon="-3.37778667">
        <ele>2879.0</ele>
        <time>2022-11-20T13:57:00.000Z</time>
      </trkpt>
      <trkpt lat="37.07400167" lon="-3.37778833">
        <ele>2879.0</ele>
        <time>2022-11-20T13:57:01.000Z</time>
      </trkpt>
      <trkpt lat="37.074015" lon="-3.37778833">
        <ele>2879.0</ele>
        <time>2022-11-20T13:57:02.000Z</time>
      </trkpt>
      <trkpt lat="37.07403" lon="-3.37778833">
        <ele>2879.0</ele>
        <time>2022-11-20T13:57:03.000Z</time>
      </trkpt>
      <trkpt lat="37.074045" lon="-3.37779">
        <ele>2879.0</ele>
        <time>2022-11-20T13:57:04.000Z</time>
      </trkpt>
      <trkpt lat="37.07405667" lon="-3.37779167">
        <ele>2879.0</ele>
        <time>2022-11-20T13:57:05.000Z</time>
      </trkpt>
      <trkpt lat="37.07406833" lon="-3.37779333">
        <ele>2878.0</ele>
        <time>2022-11-20T13:57:06.000Z</time>
      </trkpt>
      <trkpt lat="37.07408" lon="-3.377795">
        <ele>2878.0</ele>
        <time>2022-11-20T13:57:07.000Z</time>
      </trkpt>
      <trkpt lat="37.07409167" lon="-3.37779667">
        <ele>2878.0</ele>
        <time>2022-11-20T13:57:08.000Z</time>
      </trkpt>
      <trkpt lat="37.0741" lon="-3.37780167">
        <ele>2878.0</ele>
        <time>2022-11-20T13:57:09.000Z</time>
      </trkpt>
      <trkpt lat="37.074105" lon="-3.37780167">
        <ele>2878.0</ele>
        <time>2022-11-20T13:57:10.000Z</time>
      </trkpt>
      <trkpt lat="37.07410833" lon="-3.377805">
        <ele>2878.0</ele>
        <time>2022-11-20T13:57:11.000Z</time>
      </trkpt>
      <trkpt lat="37.07411667" lon="-3.37780833">
        <ele>2877.0</ele>
        <time>2022-11-20T13:57:12.000Z</time>
      </trkpt>
      <trkpt lat="37.07412833" lon="-3.37781167">
        <ele>2877.0</ele>
        <time>2022-11-20T13:57:13.000Z</time>
      </trkpt>
      <trkpt lat="37.07414" lon="-3.37781167">
        <ele>2877.0</ele>
        <time>2022-11-20T13:57:14.000Z</time>
      </trkpt>
      <trkpt lat="37.07415" lon="-3.37781167">
        <ele>2877.0</ele>
        <time>2022-11-20T13:57:15.000Z</time>
      </trkpt>
      <trkpt lat="37.07416" lon="-3.37781">
        <ele>2876.0</ele>
        <time>2022-11-20T13:57:16.000Z</time>
      </trkpt>
      <trkpt lat="37.07417333" lon="-3.37781167">
        <ele>2876.0</ele>
        <time>2022-11-20T13:57:17.000Z</time>
      </trkpt>
      <trkpt lat="37.074185" lon="-3.37781">
        <ele>2876.0</ele>
        <time>2022-11-20T13:57:18.000Z</time>
      </trkpt>
      <trkpt lat="37.07419833" lon="-3.37781167">
        <ele>2876.0</ele>
        <time>2022-11-20T13:57:19.000Z</time>
      </trkpt>
      <trkpt lat="37.07421" lon="-3.37781">
        <ele>2876.0</ele>
        <time>2022-11-20T13:57:20.000Z</time>
      </trkpt>
      <trkpt lat="37.07422333" lon="-3.37781">
        <ele>2876.0</ele>
        <time>2022-11-20T13:57:21.000Z</time>
      </trkpt>
      <trkpt lat="37.074235" lon="-3.37780833">
        <ele>2875.0</ele>
        <time>2022-11-20T13:57:22.000Z</time>
      </trkpt>
      <trkpt lat="37.07424667" lon="-3.37780333">
        <ele>2875.0</ele>
        <time>2022-11-20T13:57:23.000Z</time>
      </trkpt>
      <trkpt lat="37.07426" lon="-3.37780167">
        <ele>2875.0</ele>
        <time>2022-11-20T13:57:24.000Z</time>
      </trkpt>
      <trkpt lat="37.07427167" lon="-3.3778">
        <ele>2875.0</ele>
        <time>2022-11-20T13:57:25.000Z</time>
      </trkpt>
      <trkpt lat="37.074285" lon="-3.3778">
        <ele>2875.0</ele>
        <time>2022-11-20T13:57:26.000Z</time>
      </trkpt>
      <trkpt lat="37.07429667" lon="-3.37779833">
        <ele>2875.0</ele>
        <time>2022-11-20T13:57:27.000Z</time>
      </trkpt>
      <trkpt lat="37.07430667" lon="-3.37779667">
        <ele>2875.0</ele>
        <time>2022-11-20T13:57:28.000Z</time>
      </trkpt>
      <trkpt lat="37.074315" lon="-3.37779333">
        <ele>2874.0</ele>
        <time>2022-11-20T13:57:29.000Z</time>
      </trkpt>
      <trkpt lat="37.07432333" lon="-3.37779333">
        <ele>2874.0</ele>
        <time>2022-11-20T13:57:30.000Z</time>
      </trkpt>
      <trkpt lat="37.07432833" lon="-3.377795">
        <ele>2874.0</ele>
        <time>2022-11-20T13:57:31.000Z</time>
      </trkpt>
      <trkpt lat="37.07433667" lon="-3.377795">
        <ele>2874.0</ele>
        <time>2022-11-20T13:57:32.000Z</time>
      </trkpt>
      <trkpt lat="37.07434833" lon="-3.377795">
        <ele>2874.0</ele>
        <time>2022-11-20T13:57:33.000Z</time>
      </trkpt>
      <trkpt lat="37.07435833" lon="-3.377795">
        <ele>2874.0</ele>
        <time>2022-11-20T13:57:34.000Z</time>
      </trkpt>
      <trkpt lat="37.07437" lon="-3.377795">
        <ele>2873.0</ele>
        <time>2022-11-20T13:57:35.000Z</time>
      </trkpt>
      <trkpt lat="37.07438" lon="-3.37779667">
        <ele>2873.0</ele>
        <time>2022-11-20T13:57:36.000Z</time>
      </trkpt>
      <trkpt lat="37.07439" lon="-3.37779667">
        <ele>2873.0</ele>
        <time>2022-11-20T13:57:37.000Z</time>
      </trkpt>
      <trkpt lat="37.0744" lon="-3.37779833">
        <ele>2873.0</ele>
        <time>2022-11-20T13:57:38.000Z</time>
      </trkpt>
      <trkpt lat="37.07441" lon="-3.37779833">
        <ele>2873.0</ele>
        <time>2022-11-20T13:57:39.000Z</time>
      </trkpt>
      <trkpt lat="37.07442167" lon="-3.37780167">
        <ele>2872.0</ele>
        <time>2022-11-20T13:57:40.000Z</time>
      </trkpt>
      <trkpt lat="37.07443333" lon="-3.377805">
        <ele>2872.0</ele>
        <time>2022-11-20T13:57:41.000Z</time>
      </trkpt>
      <trkpt lat="37.074445" lon="-3.37780333">
        <ele>2872.0</ele>
        <time>2022-11-20T13:57:42.000Z</time>
      </trkpt>
      <trkpt lat="37.07445667" lon="-3.37780167">
        <ele>2872.0</ele>
        <time>2022-11-20T13:57:43.000Z</time>
      </trkpt>
      <trkpt lat="37.07446833" lon="-3.37780167">
        <ele>2872.0</ele>
        <time>2022-11-20T13:57:44.000Z</time>
      </trkpt>
      <trkpt lat="37.07448" lon="-3.37780333">
        <ele>2871.0</ele>
        <time>2022-11-20T13:57:45.000Z</time>
      </trkpt>
      <trkpt lat="37.07449167" lon="-3.377805">
        <ele>2871.0</ele>
        <time>2022-11-20T13:57:46.000Z</time>
      </trkpt>
      <trkpt lat="37.074505" lon="-3.37780667">
        <ele>2871.0</ele>
        <time>2022-11-20T13:57:47.000Z</time>
      </trkpt>
      <trkpt lat="37.07451833" lon="-3.37780667">
        <ele>2870.0</ele>
        <time>2022-11-20T13:57:48.000Z</time>
      </trkpt>
      <trkpt lat="37.07453167" lon="-3.37781">
        <ele>2870.0</ele>
        <time>2022-11-20T13:57:49.000Z</time>
      </trkpt>
      <trkpt lat="37.07454667" lon="-3.37781">
        <ele>2870.0</ele>
        <time>2022-11-20T13:57:50.000Z</time>
      </trkpt>
      <trkpt lat="37.07456" lon="-3.37780833">
        <ele>2870.0</ele>
        <time>2022-11-20T13:57:51.000Z</time>
      </trkpt>
      <trkpt lat="37.07457333" lon="-3.377805">
        <ele>2870.0</ele>
        <time>2022-11-20T13:57:52.000Z</time>
      </trkpt>
      <trkpt lat="37.074585" lon="-3.377805">
        <ele>2869.0</ele>
        <time>2022-11-20T13:57:53.000Z</time>
      </trkpt>
      <trkpt lat="37.0746" lon="-3.377805">
        <ele>2869.0</ele>
        <time>2022-11-20T13:57:54.000Z</time>
      </trkpt>
      <trkpt lat="37.07461333" lon="-3.37780333">
        <ele>2869.0</ele>
        <time>2022-11-20T13:57:55.000Z</time>
      </trkpt>
      <trkpt lat="37.074625" lon="-3.3778">
        <ele>2869.0</ele>
        <time>2022-11-20T13:57:56.000Z</time>
      </trkpt>
      <trkpt lat="37.074635" lon="-3.377795">
        <ele>2868.0</ele>
        <time>2022-11-20T13:57:57.000Z</time>
      </trkpt>
      <trkpt lat="37.074645" lon="-3.37779167">
        <ele>2868.0</ele>
        <time>2022-11-20T13:57:58.000Z</time>
      </trkpt>
      <trkpt lat="37.074655" lon="-3.37779167">
        <ele>2868.0</ele>
        <time>2022-11-20T13:57:59.000Z</time>
      </trkpt>
      <trkpt lat="37.07466" lon="-3.37779167">
        <ele>2868.0</ele>
        <time>2022-11-20T13:58:00.000Z</time>
      </trkpt>
      <trkpt lat="37.074665" lon="-3.37779167">
        <ele>2868.0</ele>
        <time>2022-11-20T13:58:01.000Z</time>
      </trkpt>
      <trkpt lat="37.074675" lon="-3.37779167">
        <ele>2868.0</ele>
        <time>2022-11-20T13:58:02.000Z</time>
      </trkpt>
      <trkpt lat="37.074685" lon="-3.37778833">
        <ele>2867.0</ele>
        <time>2022-11-20T13:58:03.000Z</time>
      </trkpt>
      <trkpt lat="37.07469833" lon="-3.37778833">
        <ele>2867.0</ele>
        <time>2022-11-20T13:58:04.000Z</time>
      </trkpt>
      <trkpt lat="37.07471" lon="-3.37778667">
        <ele>2867.0</ele>
        <time>2022-11-20T13:58:05.000Z</time>
      </trkpt>
      <trkpt lat="37.07472167" lon="-3.377785">
        <ele>2866.0</ele>
        <time>2022-11-20T13:58:06.000Z</time>
      </trkpt>
      <trkpt lat="37.07473333" lon="-3.37779">
        <ele>2866.0</ele>
        <time>2022-11-20T13:58:07.000Z</time>
      </trkpt>
      <trkpt lat="37.074745" lon="-3.37779667">
        <ele>2866.0</ele>
        <time>2022-11-20T13:58:08.000Z</time>
      </trkpt>
      <trkpt lat="37.07475667" lon="-3.3778">
        <ele>2865.0</ele>
        <time>2022-11-20T13:58:09.000Z</time>
      </trkpt>
      <trkpt lat="37.07476667" lon="-3.377805">
        <ele>2865.0</ele>
        <time>2022-11-20T13:58:10.000Z</time>
      </trkpt>
      <trkpt lat="37.07477833" lon="-3.37780833">
        <ele>2865.0</ele>
        <time>2022-11-20T13:58:11.000Z</time>
      </trkpt>
      <trkpt lat="37.07479" lon="-3.37781167">
        <ele>2864.0</ele>
        <time>2022-11-20T13:58:12.000Z</time>
      </trkpt>
      <trkpt lat="37.0748" lon="-3.37781667">
        <ele>2864.0</ele>
        <time>2022-11-20T13:58:13.000Z</time>
      </trkpt>
      <trkpt lat="37.07481167" lon="-3.37781833">
        <ele>2864.0</ele>
        <time>2022-11-20T13:58:14.000Z</time>
      </trkpt>
      <trkpt lat="37.07482333" lon="-3.37781833">
        <ele>2864.0</ele>
        <time>2022-11-20T13:58:15.000Z</time>
      </trkpt>
      <trkpt lat="37.074835" lon="-3.37781833">
        <ele>2863.0</ele>
        <time>2022-11-20T13:58:16.000Z</time>
      </trkpt>
      <trkpt lat="37.07484833" lon="-3.37781833">
        <ele>2863.0</ele>
        <time>2022-11-20T13:58:17.000Z</time>
      </trkpt>
      <trkpt lat="37.07486" lon="-3.37781833">
        <ele>2863.0</ele>
        <time>2022-11-20T13:58:18.000Z</time>
      </trkpt>
      <trkpt lat="37.07487167" lon="-3.37781833">
        <ele>2863.0</ele>
        <time>2022-11-20T13:58:19.000Z</time>
      </trkpt>
      <trkpt lat="37.07488333" lon="-3.37781833">
        <ele>2863.0</ele>
        <time>2022-11-20T13:58:20.000Z</time>
      </trkpt>
      <trkpt lat="37.07489333" lon="-3.37781833">
        <ele>2862.0</ele>
        <time>2022-11-20T13:58:21.000Z</time>
      </trkpt>
      <trkpt lat="37.07490333" lon="-3.37782">
        <ele>2862.0</ele>
        <time>2022-11-20T13:58:22.000Z</time>
      </trkpt>
      <trkpt lat="37.074915" lon="-3.37782333">
        <ele>2862.0</ele>
        <time>2022-11-20T13:58:23.000Z</time>
      </trkpt>
      <trkpt lat="37.07492833" lon="-3.377825">
        <ele>2861.0</ele>
        <time>2022-11-20T13:58:24.000Z</time>
      </trkpt>
      <trkpt lat="37.07494" lon="-3.377825">
        <ele>2861.0</ele>
        <time>2022-11-20T13:58:25.000Z</time>
      </trkpt>
      <trkpt lat="37.07495" lon="-3.37782333">
        <ele>2861.0</ele>
        <time>2022-11-20T13:58:26.000Z</time>
      </trkpt>
      <trkpt lat="37.07495333" lon="-3.37782667">
        <ele>2861.0</ele>
        <time>2022-11-20T13:58:27.000Z</time>
      </trkpt>
      <trkpt lat="37.07495833" lon="-3.37782833">
        <ele>2861.0</ele>
        <time>2022-11-20T13:58:28.000Z</time>
      </trkpt>
      <trkpt lat="37.07496" lon="-3.37783167">
        <ele>2861.0</ele>
        <time>2022-11-20T13:58:29.000Z</time>
      </trkpt>
      <trkpt lat="37.07496167" lon="-3.37783167">
        <ele>2860.0</ele>
        <time>2022-11-20T13:58:30.000Z</time>
      </trkpt>
      <trkpt lat="37.07496167" lon="-3.37783333">
        <ele>2860.0</ele>
        <time>2022-11-20T13:58:31.000Z</time>
      </trkpt>
      <trkpt lat="37.07496167" lon="-3.37783333">
        <ele>2860.0</ele>
        <time>2022-11-20T13:58:32.000Z</time>
      </trkpt>
      <trkpt lat="37.074965" lon="-3.377835">
        <ele>2860.0</ele>
        <time>2022-11-20T13:58:33.000Z</time>
      </trkpt>
      <trkpt lat="37.07497333" lon="-3.37783833">
        <ele>2860.0</ele>
        <time>2022-11-20T13:58:34.000Z</time>
      </trkpt>
      <trkpt lat="37.07498167" lon="-3.37784333">
        <ele>2860.0</ele>
        <time>2022-11-20T13:58:35.000Z</time>
      </trkpt>
      <trkpt lat="37.07499" lon="-3.37784833">
        <ele>2860.0</ele>
        <time>2022-11-20T13:58:36.000Z</time>
      </trkpt>
      <trkpt lat="37.07499667" lon="-3.377855">
        <ele>2859.0</ele>
        <time>2022-11-20T13:58:37.000Z</time>
      </trkpt>
      <trkpt lat="37.07500667" lon="-3.37786333">
        <ele>2859.0</ele>
        <time>2022-11-20T13:58:38.000Z</time>
      </trkpt>
      <trkpt lat="37.07501333" lon="-3.377875">
        <ele>2859.0</ele>
        <time>2022-11-20T13:58:39.000Z</time>
      </trkpt>
      <trkpt lat="37.07502167" lon="-3.37788667">
        <ele>2859.0</ele>
        <time>2022-11-20T13:58:40.000Z</time>
      </trkpt>
      <trkpt lat="37.07503" lon="-3.37789333">
        <ele>2859.0</ele>
        <time>2022-11-20T13:58:41.000Z</time>
      </trkpt>
      <trkpt lat="37.07503667" lon="-3.3779">
        <ele>2858.0</ele>
        <time>2022-11-20T13:58:42.000Z</time>
      </trkpt>
      <trkpt lat="37.075045" lon="-3.37790667">
        <ele>2858.0</ele>
        <time>2022-11-20T13:58:43.000Z</time>
      </trkpt>
      <trkpt lat="37.07505167" lon="-3.377915">
        <ele>2858.0</ele>
        <time>2022-11-20T13:58:44.000Z</time>
      </trkpt>
      <trkpt lat="37.07506" lon="-3.37792333">
        <ele>2858.0</ele>
        <time>2022-11-20T13:58:45.000Z</time>
      </trkpt>
      <trkpt lat="37.07506833" lon="-3.37792833">
        <ele>2858.0</ele>
        <time>2022-11-20T13:58:46.000Z</time>
      </trkpt>
      <trkpt lat="37.075075" lon="-3.377935">
        <ele>2857.0</ele>
        <time>2022-11-20T13:58:47.000Z</time>
      </trkpt>
      <trkpt lat="37.07508333" lon="-3.37793833">
        <ele>2857.0</ele>
        <time>2022-11-20T13:58:48.000Z</time>
      </trkpt>
      <trkpt lat="37.07509167" lon="-3.37793833">
        <ele>2857.0</ele>
        <time>2022-11-20T13:58:49.000Z</time>
      </trkpt>
      <trkpt lat="37.0751" lon="-3.37793333">
        <ele>2857.0</ele>
        <time>2022-11-20T13:58:50.000Z</time>
      </trkpt>
      <trkpt lat="37.07511" lon="-3.37793">
        <ele>2856.0</ele>
        <time>2022-11-20T13:58:51.000Z</time>
      </trkpt>
      <trkpt lat="37.075125" lon="-3.37793167">
        <ele>2856.0</ele>
        <time>2022-11-20T13:58:52.000Z</time>
      </trkpt>
      <trkpt lat="37.07514" lon="-3.37793833">
        <ele>2856.0</ele>
        <time>2022-11-20T13:58:53.000Z</time>
      </trkpt>
      <trkpt lat="37.075155" lon="-3.377945">
        <ele>2855.0</ele>
        <time>2022-11-20T13:58:54.000Z</time>
      </trkpt>
      <trkpt lat="37.07516833" lon="-3.37795167">
        <ele>2855.0</ele>
        <time>2022-11-20T13:58:55.000Z</time>
      </trkpt>
      <trkpt lat="37.07518" lon="-3.37796167">
        <ele>2855.0</ele>
        <time>2022-11-20T13:58:56.000Z</time>
      </trkpt>
      <trkpt lat="37.07518667" lon="-3.37797333">
        <ele>2854.0</ele>
        <time>2022-11-20T13:58:57.000Z</time>
      </trkpt>
      <trkpt lat="37.07519167" lon="-3.37798667">
        <ele>2854.0</ele>
        <time>2022-11-20T13:58:58.000Z</time>
      </trkpt>
      <trkpt lat="37.0752" lon="-3.37799833">
        <ele>2854.0</ele>
        <time>2022-11-20T13:58:59.000Z</time>
      </trkpt>
      <trkpt lat="37.07521" lon="-3.37800833">
        <ele>2853.0</ele>
        <time>2022-11-20T13:59:00.000Z</time>
      </trkpt>
      <trkpt lat="37.07522" lon="-3.37801833">
        <ele>2853.0</ele>
        <time>2022-11-20T13:59:01.000Z</time>
      </trkpt>
      <trkpt lat="37.07522833" lon="-3.37803167">
        <ele>2853.0</ele>
        <time>2022-11-20T13:59:02.000Z</time>
      </trkpt>
      <trkpt lat="37.07523667" lon="-3.37804">
        <ele>2853.0</ele>
        <time>2022-11-20T13:59:03.000Z</time>
      </trkpt>
      <trkpt lat="37.07524333" lon="-3.37805167">
        <ele>2852.0</ele>
        <time>2022-11-20T13:59:04.000Z</time>
      </trkpt>
      <trkpt lat="37.07524833" lon="-3.37805833">
        <ele>2852.0</ele>
        <time>2022-11-20T13:59:05.000Z</time>
      </trkpt>
      <trkpt lat="37.07524833" lon="-3.37806167">
        <ele>2852.0</ele>
        <time>2022-11-20T13:59:06.000Z</time>
      </trkpt>
      <trkpt lat="37.07525" lon="-3.37806167">
        <ele>2852.0</ele>
        <time>2022-11-20T13:59:07.000Z</time>
      </trkpt>
      <trkpt lat="37.07525" lon="-3.37806167">
        <ele>2852.0</ele>
        <time>2022-11-20T13:59:08.000Z</time>
      </trkpt>
      <trkpt lat="37.07525" lon="-3.37806333">
        <ele>2852.0</ele>
        <time>2022-11-20T13:59:09.000Z</time>
      </trkpt>
      <trkpt lat="37.07525" lon="-3.37806333">
        <ele>2852.0</ele>
        <time>2022-11-20T13:59:10.000Z</time>
      </trkpt>
      <trkpt lat="37.07525" lon="-3.37806333">
        <ele>2852.0</ele>
        <time>2022-11-20T13:59:11.000Z</time>
      </trkpt>
      <trkpt lat="37.07525" lon="-3.37806333">
        <ele>2852.0</ele>
        <time>2022-11-20T13:59:12.000Z</time>
      </trkpt>
      <trkpt lat="37.07525167" lon="-3.37806833">
        <ele>2851.0</ele>
        <time>2022-11-20T13:59:13.000Z</time>
      </trkpt>
      <trkpt lat="37.07525167" lon="-3.37807667">
        <ele>2851.0</ele>
        <time>2022-11-20T13:59:14.000Z</time>
      </trkpt>
      <trkpt lat="37.07525167" lon="-3.37808333">
        <ele>2851.0</ele>
        <time>2022-11-20T13:59:15.000Z</time>
      </trkpt>
      <trkpt lat="37.07525167" lon="-3.37809167">
        <ele>2851.0</ele>
        <time>2022-11-20T13:59:16.000Z</time>
      </trkpt>
      <trkpt lat="37.07525333" lon="-3.37809833">
        <ele>2851.0</ele>
        <time>2022-11-20T13:59:17.000Z</time>
      </trkpt>
      <trkpt lat="37.075255" lon="-3.37810333">
        <ele>2851.0</ele>
        <time>2022-11-20T13:59:18.000Z</time>
      </trkpt>
      <trkpt lat="37.075255" lon="-3.37811">
        <ele>2850.0</ele>
        <time>2022-11-20T13:59:19.000Z</time>
      </trkpt>
      <trkpt lat="37.07525833" lon="-3.37811833">
        <ele>2850.0</ele>
        <time>2022-11-20T13:59:20.000Z</time>
      </trkpt>
      <trkpt lat="37.07526" lon="-3.37812167">
        <ele>2850.0</ele>
        <time>2022-11-20T13:59:21.000Z</time>
      </trkpt>
      <trkpt lat="37.07526333" lon="-3.37812167">
        <ele>2850.0</ele>
        <time>2022-11-20T13:59:22.000Z</time>
      </trkpt>
      <trkpt lat="37.07527" lon="-3.37812">
        <ele>2850.0</ele>
        <time>2022-11-20T13:59:23.000Z</time>
      </trkpt>
      <trkpt lat="37.07527667" lon="-3.37812167">
        <ele>2849.0</ele>
        <time>2022-11-20T13:59:24.000Z</time>
      </trkpt>
      <trkpt lat="37.07528167" lon="-3.37812">
        <ele>2849.0</ele>
        <time>2022-11-20T13:59:25.000Z</time>
      </trkpt>
      <trkpt lat="37.07528833" lon="-3.37811833">
        <ele>2849.0</ele>
        <time>2022-11-20T13:59:26.000Z</time>
      </trkpt>
      <trkpt lat="37.075295" lon="-3.378115">
        <ele>2849.0</ele>
        <time>2022-11-20T13:59:27.000Z</time>
      </trkpt>
      <trkpt lat="37.07530333" lon="-3.37811167">
        <ele>2849.0</ele>
        <time>2022-11-20T13:59:28.000Z</time>
      </trkpt>
      <trkpt lat="37.07531333" lon="-3.37811167">
        <ele>2848.0</ele>
        <time>2022-11-20T13:59:29.000Z</time>
      </trkpt>
      <trkpt lat="37.07532333" lon="-3.37811667">
        <ele>2848.0</ele>
        <time>2022-11-20T13:59:30.000Z</time>
      </trkpt>
      <trkpt lat="37.07532833" lon="-3.37812667">
        <ele>2848.0</ele>
        <time>2022-11-20T13:59:31.000Z</time>
      </trkpt>
      <trkpt lat="37.07532833" lon="-3.37813833">
        <ele>2848.0</ele>
        <time>2022-11-20T13:59:32.000Z</time>
      </trkpt>
      <trkpt lat="37.07532667" lon="-3.37814">
        <ele>2847.0</ele>
        <time>2022-11-20T13:59:33.000Z</time>
      </trkpt>
      <trkpt lat="37.075325" lon="-3.37814167">
        <ele>2847.0</ele>
        <time>2022-11-20T13:59:34.000Z</time>
      </trkpt>
      <trkpt lat="37.07532667" lon="-3.37814167">
        <ele>2847.0</ele>
        <time>2022-11-20T13:59:35.000Z</time>
      </trkpt>
      <trkpt lat="37.07532833" lon="-3.37814333">
        <ele>2847.0</ele>
        <time>2022-11-20T13:59:36.000Z</time>
      </trkpt>
      <trkpt lat="37.07533333" lon="-3.37814667">
        <ele>2847.0</ele>
        <time>2022-11-20T13:59:37.000Z</time>
      </trkpt>
      <trkpt lat="37.07533833" lon="-3.37814833">
        <ele>2847.0</ele>
        <time>2022-11-20T13:59:38.000Z</time>
      </trkpt>
      <trkpt lat="37.07534667" lon="-3.37814833">
        <ele>2847.0</ele>
        <time>2022-11-20T13:59:39.000Z</time>
      </trkpt>
      <trkpt lat="37.075355" lon="-3.37815">
        <ele>2846.0</ele>
        <time>2022-11-20T13:59:40.000Z</time>
      </trkpt>
      <trkpt lat="37.075365" lon="-3.37815333">
        <ele>2846.0</ele>
        <time>2022-11-20T13:59:41.000Z</time>
      </trkpt>
      <trkpt lat="37.07537333" lon="-3.37816">
        <ele>2846.0</ele>
        <time>2022-11-20T13:59:42.000Z</time>
      </trkpt>
      <trkpt lat="37.07538167" lon="-3.37816833">
        <ele>2845.0</ele>
        <time>2022-11-20T13:59:43.000Z</time>
      </trkpt>
      <trkpt lat="37.07538833" lon="-3.37817667">
        <ele>2845.0</ele>
        <time>2022-11-20T13:59:44.000Z</time>
      </trkpt>
      <trkpt lat="37.075395" lon="-3.37818">
        <ele>2845.0</ele>
        <time>2022-11-20T13:59:45.000Z</time>
      </trkpt>
      <trkpt lat="37.075405" lon="-3.37818333">
        <ele>2845.0</ele>
        <time>2022-11-20T13:59:46.000Z</time>
      </trkpt>
      <trkpt lat="37.07541167" lon="-3.37819167">
        <ele>2844.0</ele>
        <time>2022-11-20T13:59:47.000Z</time>
      </trkpt>
      <trkpt lat="37.075415" lon="-3.37820167">
        <ele>2844.0</ele>
        <time>2022-11-20T13:59:48.000Z</time>
      </trkpt>
      <trkpt lat="37.07542333" lon="-3.37821">
        <ele>2844.0</ele>
        <time>2022-11-20T13:59:49.000Z</time>
      </trkpt>
      <trkpt lat="37.07543167" lon="-3.37821333">
        <ele>2844.0</ele>
        <time>2022-11-20T13:59:50.000Z</time>
      </trkpt>
      <trkpt lat="37.07544333" lon="-3.37821333">
        <ele>2843.0</ele>
        <time>2022-11-20T13:59:51.000Z</time>
      </trkpt>
      <trkpt lat="37.07545333" lon="-3.37822">
        <ele>2843.0</ele>
        <time>2022-11-20T13:59:52.000Z</time>
      </trkpt>
      <trkpt lat="37.07546167" lon="-3.37822833">
        <ele>2843.0</ele>
        <time>2022-11-20T13:59:53.000Z</time>
      </trkpt>
      <trkpt lat="37.07547167" lon="-3.37824">
        <ele>2843.0</ele>
        <time>2022-11-20T13:59:54.000Z</time>
      </trkpt>
      <trkpt lat="37.07548" lon="-3.37825">
        <ele>2843.0</ele>
        <time>2022-11-20T13:59:55.000Z</time>
      </trkpt>
      <trkpt lat="37.07548667" lon="-3.37826167">
        <ele>2842.0</ele>
        <time>2022-11-20T13:59:56.000Z</time>
      </trkpt>
      <trkpt lat="37.075495" lon="-3.37827167">
        <ele>2842.0</ele>
        <time>2022-11-20T13:59:57.000Z</time>
      </trkpt>
      <trkpt lat="37.075505" lon="-3.37827667">
        <ele>2842.0</ele>
        <time>2022-11-20T13:59:58.000Z</time>
      </trkpt>
      <trkpt lat="37.07551667" lon="-3.37828167">
        <ele>2842.0</ele>
        <time>2022-11-20T13:59:59.000Z</time>
      </trkpt>
      <trkpt lat="37.075525" lon="-3.37829">
        <ele>2841.0</ele>
        <time>2022-11-20T14:00:00.000Z</time>
      </trkpt>
      <trkpt lat="37.075535" lon="-3.37829667">
        <ele>2841.0</ele>
        <time>2022-11-20T14:00:01.000Z</time>
      </trkpt>
      <trkpt lat="37.075545" lon="-3.3783">
        <ele>2841.0</ele>
        <time>2022-11-20T14:00:02.000Z</time>
      </trkpt>
      <trkpt lat="37.07555833" lon="-3.3783">
        <ele>2841.0</ele>
        <time>2022-11-20T14:00:03.000Z</time>
      </trkpt>
      <trkpt lat="37.07557167" lon="-3.37830833">
        <ele>2840.0</ele>
        <time>2022-11-20T14:00:04.000Z</time>
      </trkpt>
      <trkpt lat="37.07558" lon="-3.37832">
        <ele>2840.0</ele>
        <time>2022-11-20T14:00:05.000Z</time>
      </trkpt>
      <trkpt lat="37.07558667" lon="-3.37833">
        <ele>2840.0</ele>
        <time>2022-11-20T14:00:06.000Z</time>
      </trkpt>
      <trkpt lat="37.075595" lon="-3.37833667">
        <ele>2839.0</ele>
        <time>2022-11-20T14:00:07.000Z</time>
      </trkpt>
      <trkpt lat="37.07560667" lon="-3.37834">
        <ele>2839.0</ele>
        <time>2022-11-20T14:00:08.000Z</time>
      </trkpt>
      <trkpt lat="37.07561333" lon="-3.37835">
        <ele>2839.0</ele>
        <time>2022-11-20T14:00:09.000Z</time>
      </trkpt>
      <trkpt lat="37.07561667" lon="-3.37836333">
        <ele>2839.0</ele>
        <time>2022-11-20T14:00:10.000Z</time>
      </trkpt>
      <trkpt lat="37.07562" lon="-3.37837667">
        <ele>2838.0</ele>
        <time>2022-11-20T14:00:11.000Z</time>
      </trkpt>
      <trkpt lat="37.075625" lon="-3.37838833">
        <ele>2838.0</ele>
        <time>2022-11-20T14:00:12.000Z</time>
      </trkpt>
      <trkpt lat="37.07563" lon="-3.3784">
        <ele>2838.0</ele>
        <time>2022-11-20T14:00:13.000Z</time>
      </trkpt>
      <trkpt lat="37.07563667" lon="-3.37841">
        <ele>2838.0</ele>
        <time>2022-11-20T14:00:14.000Z</time>
      </trkpt>
      <trkpt lat="37.07564333" lon="-3.37841667">
        <ele>2837.0</ele>
        <time>2022-11-20T14:00:15.000Z</time>
      </trkpt>
      <trkpt lat="37.075655" lon="-3.37842167">
        <ele>2837.0</ele>
        <time>2022-11-20T14:00:16.000Z</time>
      </trkpt>
      <trkpt lat="37.07566833" lon="-3.37842667">
        <ele>2837.0</ele>
        <time>2022-11-20T14:00:17.000Z</time>
      </trkpt>
      <trkpt lat="37.07568" lon="-3.37843333">
        <ele>2837.0</ele>
        <time>2022-11-20T14:00:18.000Z</time>
      </trkpt>
      <trkpt lat="37.07569" lon="-3.37844">
        <ele>2836.0</ele>
        <time>2022-11-20T14:00:19.000Z</time>
      </trkpt>
      <trkpt lat="37.07570167" lon="-3.37844167">
        <ele>2836.0</ele>
        <time>2022-11-20T14:00:20.000Z</time>
      </trkpt>
      <trkpt lat="37.07571167" lon="-3.37844667">
        <ele>2836.0</ele>
        <time>2022-11-20T14:00:21.000Z</time>
      </trkpt>
      <trkpt lat="37.07572" lon="-3.37845167">
        <ele>2835.0</ele>
        <time>2022-11-20T14:00:22.000Z</time>
      </trkpt>
      <trkpt lat="37.07573" lon="-3.37845333">
        <ele>2835.0</ele>
        <time>2022-11-20T14:00:23.000Z</time>
      </trkpt>
      <trkpt lat="37.07574" lon="-3.378455">
        <ele>2835.0</ele>
        <time>2022-11-20T14:00:24.000Z</time>
      </trkpt>
      <trkpt lat="37.07575" lon="-3.37845667">
        <ele>2835.0</ele>
        <time>2022-11-20T14:00:25.000Z</time>
      </trkpt>
      <trkpt lat="37.07576333" lon="-3.37845833">
        <ele>2835.0</ele>
        <time>2022-11-20T14:00:26.000Z</time>
      </trkpt>
      <trkpt lat="37.07577667" lon="-3.37846167">
        <ele>2834.0</ele>
        <time>2022-11-20T14:00:27.000Z</time>
      </trkpt>
      <trkpt lat="37.07579" lon="-3.37847">
        <ele>2834.0</ele>
        <time>2022-11-20T14:00:28.000Z</time>
      </trkpt>
      <trkpt lat="37.07580167" lon="-3.37847833">
        <ele>2834.0</ele>
        <time>2022-11-20T14:00:29.000Z</time>
      </trkpt>
      <trkpt lat="37.07581167" lon="-3.37848833">
        <ele>2834.0</ele>
        <time>2022-11-20T14:00:30.000Z</time>
      </trkpt>
      <trkpt lat="37.07582333" lon="-3.37849833">
        <ele>2834.0</ele>
        <time>2022-11-20T14:00:31.000Z</time>
      </trkpt>
      <trkpt lat="37.07583333" lon="-3.37851">
        <ele>2834.0</ele>
        <time>2022-11-20T14:00:32.000Z</time>
      </trkpt>
      <trkpt lat="37.07584167" lon="-3.37852167">
        <ele>2833.0</ele>
        <time>2022-11-20T14:00:33.000Z</time>
      </trkpt>
      <trkpt lat="37.07585167" lon="-3.37853667">
        <ele>2833.0</ele>
        <time>2022-11-20T14:00:34.000Z</time>
      </trkpt>
      <trkpt lat="37.07586" lon="-3.37854833">
        <ele>2833.0</ele>
        <time>2022-11-20T14:00:35.000Z</time>
      </trkpt>
      <trkpt lat="37.07587" lon="-3.37855333">
        <ele>2833.0</ele>
        <time>2022-11-20T14:00:36.000Z</time>
      </trkpt>
      <trkpt lat="37.07588167" lon="-3.37855833">
        <ele>2833.0</ele>
        <time>2022-11-20T14:00:37.000Z</time>
      </trkpt>
      <trkpt lat="37.07589333" lon="-3.37856167">
        <ele>2832.0</ele>
        <time>2022-11-20T14:00:38.000Z</time>
      </trkpt>
      <trkpt lat="37.075905" lon="-3.37856833">
        <ele>2832.0</ele>
        <time>2022-11-20T14:00:39.000Z</time>
      </trkpt>
      <trkpt lat="37.075915" lon="-3.37857333">
        <ele>2832.0</ele>
        <time>2022-11-20T14:00:40.000Z</time>
      </trkpt>
      <trkpt lat="37.07592833" lon="-3.37857833">
        <ele>2832.0</ele>
        <time>2022-11-20T14:00:41.000Z</time>
      </trkpt>
      <trkpt lat="37.07594" lon="-3.378585">
        <ele>2832.0</ele>
        <time>2022-11-20T14:00:42.000Z</time>
      </trkpt>
      <trkpt lat="37.07595167" lon="-3.37859167">
        <ele>2832.0</ele>
        <time>2022-11-20T14:00:43.000Z</time>
      </trkpt>
      <trkpt lat="37.07596333" lon="-3.37859667">
        <ele>2831.0</ele>
        <time>2022-11-20T14:00:44.000Z</time>
      </trkpt>
      <trkpt lat="37.075975" lon="-3.37860167">
        <ele>2831.0</ele>
        <time>2022-11-20T14:00:45.000Z</time>
      </trkpt>
      <trkpt lat="37.07598333" lon="-3.37860667">
        <ele>2831.0</ele>
        <time>2022-11-20T14:00:46.000Z</time>
      </trkpt>
      <trkpt lat="37.075995" lon="-3.37861167">
        <ele>2831.0</ele>
        <time>2022-11-20T14:00:47.000Z</time>
      </trkpt>
      <trkpt lat="37.07600833" lon="-3.378615">
        <ele>2830.0</ele>
        <time>2022-11-20T14:00:48.000Z</time>
      </trkpt>
      <trkpt lat="37.07602167" lon="-3.37861667">
        <ele>2830.0</ele>
        <time>2022-11-20T14:00:49.000Z</time>
      </trkpt>
      <trkpt lat="37.076035" lon="-3.37861667">
        <ele>2830.0</ele>
        <time>2022-11-20T14:00:50.000Z</time>
      </trkpt>
      <trkpt lat="37.07605" lon="-3.37862167">
        <ele>2829.0</ele>
        <time>2022-11-20T14:00:51.000Z</time>
      </trkpt>
      <trkpt lat="37.07606333" lon="-3.37863167">
        <ele>2829.0</ele>
        <time>2022-11-20T14:00:52.000Z</time>
      </trkpt>
      <trkpt lat="37.07607333" lon="-3.37864167">
        <ele>2829.0</ele>
        <time>2022-11-20T14:00:53.000Z</time>
      </trkpt>
      <trkpt lat="37.07608333" lon="-3.37865333">
        <ele>2829.0</ele>
        <time>2022-11-20T14:00:54.000Z</time>
      </trkpt>
      <trkpt lat="37.07609333" lon="-3.37866333">
        <ele>2828.0</ele>
        <time>2022-11-20T14:00:55.000Z</time>
      </trkpt>
      <trkpt lat="37.076105" lon="-3.37867">
        <ele>2828.0</ele>
        <time>2022-11-20T14:00:56.000Z</time>
      </trkpt>
      <trkpt lat="37.076115" lon="-3.378675">
        <ele>2828.0</ele>
        <time>2022-11-20T14:00:57.000Z</time>
      </trkpt>
      <trkpt lat="37.076125" lon="-3.37867833">
        <ele>2828.0</ele>
        <time>2022-11-20T14:00:58.000Z</time>
      </trkpt>
      <trkpt lat="37.07613667" lon="-3.378685">
        <ele>2827.0</ele>
        <time>2022-11-20T14:00:59.000Z</time>
      </trkpt>
      <trkpt lat="37.07614667" lon="-3.37869">
        <ele>2827.0</ele>
        <time>2022-11-20T14:01:00.000Z</time>
      </trkpt>
      <trkpt lat="37.07615667" lon="-3.37869333">
        <ele>2827.0</ele>
        <time>2022-11-20T14:01:01.000Z</time>
      </trkpt>
      <trkpt lat="37.07616667" lon="-3.37869333">
        <ele>2826.0</ele>
        <time>2022-11-20T14:01:02.000Z</time>
      </trkpt>
      <trkpt lat="37.07617833" lon="-3.37869333">
        <ele>2826.0</ele>
        <time>2022-11-20T14:01:03.000Z</time>
      </trkpt>
      <trkpt lat="37.07619" lon="-3.378695">
        <ele>2826.0</ele>
        <time>2022-11-20T14:01:04.000Z</time>
      </trkpt>
      <trkpt lat="37.076205" lon="-3.37869833">
        <ele>2825.0</ele>
        <time>2022-11-20T14:01:05.000Z</time>
      </trkpt>
      <trkpt lat="37.07621833" lon="-3.37870167">
        <ele>2825.0</ele>
        <time>2022-11-20T14:01:06.000Z</time>
      </trkpt>
      <trkpt lat="37.07623333" lon="-3.37870667">
        <ele>2825.0</ele>
        <time>2022-11-20T14:01:07.000Z</time>
      </trkpt>
      <trkpt lat="37.07624667" lon="-3.37871667">
        <ele>2824.0</ele>
        <time>2022-11-20T14:01:08.000Z</time>
      </trkpt>
      <trkpt lat="37.07625667" lon="-3.37872667">
        <ele>2824.0</ele>
        <time>2022-11-20T14:01:09.000Z</time>
      </trkpt>
      <trkpt lat="37.07626833" lon="-3.378735">
        <ele>2824.0</ele>
        <time>2022-11-20T14:01:10.000Z</time>
      </trkpt>
      <trkpt lat="37.07628" lon="-3.37874167">
        <ele>2824.0</ele>
        <time>2022-11-20T14:01:11.000Z</time>
      </trkpt>
      <trkpt lat="37.07629333" lon="-3.378745">
        <ele>2823.0</ele>
        <time>2022-11-20T14:01:12.000Z</time>
      </trkpt>
      <trkpt lat="37.07630667" lon="-3.378745">
        <ele>2823.0</ele>
        <time>2022-11-20T14:01:13.000Z</time>
      </trkpt>
      <trkpt lat="37.07632" lon="-3.37874833">
        <ele>2823.0</ele>
        <time>2022-11-20T14:01:14.000Z</time>
      </trkpt>
      <trkpt lat="37.07633" lon="-3.378755">
        <ele>2823.0</ele>
        <time>2022-11-20T14:01:15.000Z</time>
      </trkpt>
      <trkpt lat="37.07634167" lon="-3.37876">
        <ele>2823.0</ele>
        <time>2022-11-20T14:01:16.000Z</time>
      </trkpt>
      <trkpt lat="37.07635333" lon="-3.37876333">
        <ele>2823.0</ele>
        <time>2022-11-20T14:01:17.000Z</time>
      </trkpt>
      <trkpt lat="37.07636333" lon="-3.37876833">
        <ele>2822.0</ele>
        <time>2022-11-20T14:01:18.000Z</time>
      </trkpt>
      <trkpt lat="37.07637333" lon="-3.37877667">
        <ele>2822.0</ele>
        <time>2022-11-20T14:01:19.000Z</time>
      </trkpt>
      <trkpt lat="37.07638167" lon="-3.378785">
        <ele>2822.0</ele>
        <time>2022-11-20T14:01:20.000Z</time>
      </trkpt>
      <trkpt lat="37.07639333" lon="-3.37879167">
        <ele>2822.0</ele>
        <time>2022-11-20T14:01:21.000Z</time>
      </trkpt>
      <trkpt lat="37.07640333" lon="-3.37879333">
        <ele>2822.0</ele>
        <time>2022-11-20T14:01:22.000Z</time>
      </trkpt>
      <trkpt lat="37.076415" lon="-3.37879833">
        <ele>2822.0</ele>
        <time>2022-11-20T14:01:23.000Z</time>
      </trkpt>
      <trkpt lat="37.07642667" lon="-3.37880333">
        <ele>2822.0</ele>
        <time>2022-11-20T14:01:24.000Z</time>
      </trkpt>
      <trkpt lat="37.07643833" lon="-3.37880667">
        <ele>2822.0</ele>
        <time>2022-11-20T14:01:25.000Z</time>
      </trkpt>
      <trkpt lat="37.07645" lon="-3.37880667">
        <ele>2821.0</ele>
        <time>2022-11-20T14:01:26.000Z</time>
      </trkpt>
      <trkpt lat="37.07646" lon="-3.37881">
        <ele>2821.0</ele>
        <time>2022-11-20T14:01:27.000Z</time>
      </trkpt>
      <trkpt lat="37.07647167" lon="-3.37881167">
        <ele>2821.0</ele>
        <time>2022-11-20T14:01:28.000Z</time>
      </trkpt>
      <trkpt lat="37.07648333" lon="-3.378815">
        <ele>2821.0</ele>
        <time>2022-11-20T14:01:29.000Z</time>
      </trkpt>
      <trkpt lat="37.07649833" lon="-3.37882">
        <ele>2821.0</ele>
        <time>2022-11-20T14:01:30.000Z</time>
      </trkpt>
      <trkpt lat="37.07651" lon="-3.378825">
        <ele>2820.0</ele>
        <time>2022-11-20T14:01:31.000Z</time>
      </trkpt>
      <trkpt lat="37.07652" lon="-3.378825">
        <ele>2820.0</ele>
        <time>2022-11-20T14:01:32.000Z</time>
      </trkpt>
      <trkpt lat="37.07653333" lon="-3.37882667">
        <ele>2820.0</ele>
        <time>2022-11-20T14:01:33.000Z</time>
      </trkpt>
      <trkpt lat="37.076545" lon="-3.378835">
        <ele>2820.0</ele>
        <time>2022-11-20T14:01:34.000Z</time>
      </trkpt>
      <trkpt lat="37.07655833" lon="-3.37884167">
        <ele>2819.0</ele>
        <time>2022-11-20T14:01:35.000Z</time>
      </trkpt>
      <trkpt lat="37.07657" lon="-3.37885">
        <ele>2819.0</ele>
        <time>2022-11-20T14:01:36.000Z</time>
      </trkpt>
      <trkpt lat="37.076585" lon="-3.378855">
        <ele>2819.0</ele>
        <time>2022-11-20T14:01:37.000Z</time>
      </trkpt>
      <trkpt lat="37.07659667" lon="-3.37886167">
        <ele>2819.0</ele>
        <time>2022-11-20T14:01:38.000Z</time>
      </trkpt>
      <trkpt lat="37.07660667" lon="-3.37886667">
        <ele>2819.0</ele>
        <time>2022-11-20T14:01:39.000Z</time>
      </trkpt>
      <trkpt lat="37.07661833" lon="-3.37886667">
        <ele>2819.0</ele>
        <time>2022-11-20T14:01:40.000Z</time>
      </trkpt>
      <trkpt lat="37.07662667" lon="-3.37886167">
        <ele>2819.0</ele>
        <time>2022-11-20T14:01:41.000Z</time>
      </trkpt>
      <trkpt lat="37.07663667" lon="-3.378855">
        <ele>2819.0</ele>
        <time>2022-11-20T14:01:42.000Z</time>
      </trkpt>
      <trkpt lat="37.076645" lon="-3.37885167">
        <ele>2819.0</ele>
        <time>2022-11-20T14:01:43.000Z</time>
      </trkpt>
      <trkpt lat="37.07665667" lon="-3.378855">
        <ele>2819.0</ele>
        <time>2022-11-20T14:01:44.000Z</time>
      </trkpt>
      <trkpt lat="37.07666667" lon="-3.37886167">
        <ele>2819.0</ele>
        <time>2022-11-20T14:01:45.000Z</time>
      </trkpt>
      <trkpt lat="37.076675" lon="-3.37887">
        <ele>2818.0</ele>
        <time>2022-11-20T14:01:46.000Z</time>
      </trkpt>
      <trkpt lat="37.076685" lon="-3.37888">
        <ele>2818.0</ele>
        <time>2022-11-20T14:01:47.000Z</time>
      </trkpt>
      <trkpt lat="37.076695" lon="-3.37889167">
        <ele>2818.0</ele>
        <time>2022-11-20T14:01:48.000Z</time>
      </trkpt>
      <trkpt lat="37.076705" lon="-3.37890167">
        <ele>2818.0</ele>
        <time>2022-11-20T14:01:49.000Z</time>
      </trkpt>
      <trkpt lat="37.07671667" lon="-3.37891167">
        <ele>2817.0</ele>
        <time>2022-11-20T14:01:50.000Z</time>
      </trkpt>
      <trkpt lat="37.07672667" lon="-3.37891667">
        <ele>2817.0</ele>
        <time>2022-11-20T14:01:51.000Z</time>
      </trkpt>
      <trkpt lat="37.07674167" lon="-3.37892333">
        <ele>2817.0</ele>
        <time>2022-11-20T14:01:52.000Z</time>
      </trkpt>
      <trkpt lat="37.076755" lon="-3.37892833">
        <ele>2817.0</ele>
        <time>2022-11-20T14:01:53.000Z</time>
      </trkpt>
      <trkpt lat="37.07677" lon="-3.37893167">
        <ele>2817.0</ele>
        <time>2022-11-20T14:01:54.000Z</time>
      </trkpt>
      <trkpt lat="37.076785" lon="-3.37893333">
        <ele>2816.0</ele>
        <time>2022-11-20T14:01:55.000Z</time>
      </trkpt>
      <trkpt lat="37.0768" lon="-3.37893833">
        <ele>2816.0</ele>
        <time>2022-11-20T14:01:56.000Z</time>
      </trkpt>
      <trkpt lat="37.07681333" lon="-3.37894">
        <ele>2816.0</ele>
        <time>2022-11-20T14:01:57.000Z</time>
      </trkpt>
      <trkpt lat="37.076825" lon="-3.378945">
        <ele>2816.0</ele>
        <time>2022-11-20T14:01:58.000Z</time>
      </trkpt>
      <trkpt lat="37.07683667" lon="-3.37894833">
        <ele>2815.0</ele>
        <time>2022-11-20T14:01:59.000Z</time>
      </trkpt>
      <trkpt lat="37.07685" lon="-3.37895167">
        <ele>2815.0</ele>
        <time>2022-11-20T14:02:00.000Z</time>
      </trkpt>
      <trkpt lat="37.07686333" lon="-3.378955">
        <ele>2815.0</ele>
        <time>2022-11-20T14:02:01.000Z</time>
      </trkpt>
      <trkpt lat="37.07687667" lon="-3.37895833">
        <ele>2815.0</ele>
        <time>2022-11-20T14:02:02.000Z</time>
      </trkpt>
      <trkpt lat="37.07689" lon="-3.37896333">
        <ele>2814.0</ele>
        <time>2022-11-20T14:02:03.000Z</time>
      </trkpt>
      <trkpt lat="37.07690333" lon="-3.378965">
        <ele>2814.0</ele>
        <time>2022-11-20T14:02:04.000Z</time>
      </trkpt>
      <trkpt lat="37.07691667" lon="-3.378965">
        <ele>2814.0</ele>
        <time>2022-11-20T14:02:05.000Z</time>
      </trkpt>
      <trkpt lat="37.07693" lon="-3.37897">
        <ele>2814.0</ele>
        <time>2022-11-20T14:02:06.000Z</time>
      </trkpt>
      <trkpt lat="37.07694333" lon="-3.37897333">
        <ele>2813.0</ele>
        <time>2022-11-20T14:02:07.000Z</time>
      </trkpt>
      <trkpt lat="37.07695667" lon="-3.37897667">
        <ele>2813.0</ele>
        <time>2022-11-20T14:02:08.000Z</time>
      </trkpt>
      <trkpt lat="37.07697" lon="-3.37898167">
        <ele>2813.0</ele>
        <time>2022-11-20T14:02:09.000Z</time>
      </trkpt>
      <trkpt lat="37.07698333" lon="-3.37898833">
        <ele>2813.0</ele>
        <time>2022-11-20T14:02:10.000Z</time>
      </trkpt>
      <trkpt lat="37.07699833" lon="-3.378995">
        <ele>2813.0</ele>
        <time>2022-11-20T14:02:11.000Z</time>
      </trkpt>
      <trkpt lat="37.07701167" lon="-3.379">
        <ele>2812.0</ele>
        <time>2022-11-20T14:02:12.000Z</time>
      </trkpt>
      <trkpt lat="37.077025" lon="-3.379005">
        <ele>2812.0</ele>
        <time>2022-11-20T14:02:13.000Z</time>
      </trkpt>
      <trkpt lat="37.07704" lon="-3.37900833">
        <ele>2812.0</ele>
        <time>2022-11-20T14:02:14.000Z</time>
      </trkpt>
      <trkpt lat="37.077055" lon="-3.37901">
        <ele>2811.0</ele>
        <time>2022-11-20T14:02:15.000Z</time>
      </trkpt>
      <trkpt lat="37.07706833" lon="-3.37901333">
        <ele>2811.0</ele>
        <time>2022-11-20T14:02:16.000Z</time>
      </trkpt>
      <trkpt lat="37.077085" lon="-3.379015">
        <ele>2811.0</ele>
        <time>2022-11-20T14:02:17.000Z</time>
      </trkpt>
      <trkpt lat="37.07709833" lon="-3.37901833">
        <ele>2811.0</ele>
        <time>2022-11-20T14:02:18.000Z</time>
      </trkpt>
      <trkpt lat="37.07711333" lon="-3.37902167">
        <ele>2810.0</ele>
        <time>2022-11-20T14:02:19.000Z</time>
      </trkpt>
      <trkpt lat="37.07712833" lon="-3.379025">
        <ele>2810.0</ele>
        <time>2022-11-20T14:02:20.000Z</time>
      </trkpt>
      <trkpt lat="37.07714167" lon="-3.37903">
        <ele>2810.0</ele>
        <time>2022-11-20T14:02:21.000Z</time>
      </trkpt>
      <trkpt lat="37.07715667" lon="-3.37903667">
        <ele>2809.0</ele>
        <time>2022-11-20T14:02:22.000Z</time>
      </trkpt>
      <trkpt lat="37.07717" lon="-3.37904167">
        <ele>2809.0</ele>
        <time>2022-11-20T14:02:23.000Z</time>
      </trkpt>
      <trkpt lat="37.077185" lon="-3.37904833">
        <ele>2809.0</ele>
        <time>2022-11-20T14:02:24.000Z</time>
      </trkpt>
      <trkpt lat="37.0772" lon="-3.379055">
        <ele>2809.0</ele>
        <time>2022-11-20T14:02:25.000Z</time>
      </trkpt>
      <trkpt lat="37.07721667" lon="-3.37906167">
        <ele>2808.0</ele>
        <time>2022-11-20T14:02:26.000Z</time>
      </trkpt>
      <trkpt lat="37.07723167" lon="-3.37906667">
        <ele>2808.0</ele>
        <time>2022-11-20T14:02:27.000Z</time>
      </trkpt>
      <trkpt lat="37.07724667" lon="-3.37907167">
        <ele>2808.0</ele>
        <time>2022-11-20T14:02:28.000Z</time>
      </trkpt>
      <trkpt lat="37.07726167" lon="-3.37907833">
        <ele>2808.0</ele>
        <time>2022-11-20T14:02:29.000Z</time>
      </trkpt>
      <trkpt lat="37.07727667" lon="-3.37908333">
        <ele>2808.0</ele>
        <time>2022-11-20T14:02:30.000Z</time>
      </trkpt>
      <trkpt lat="37.07728833" lon="-3.37908833">
        <ele>2807.0</ele>
        <time>2022-11-20T14:02:31.000Z</time>
      </trkpt>
      <trkpt lat="37.07729667" lon="-3.379095">
        <ele>2807.0</ele>
        <time>2022-11-20T14:02:32.000Z</time>
      </trkpt>
      <trkpt lat="37.07730167" lon="-3.37909667">
        <ele>2807.0</ele>
        <time>2022-11-20T14:02:33.000Z</time>
      </trkpt>
      <trkpt lat="37.07731" lon="-3.37909667">
        <ele>2807.0</ele>
        <time>2022-11-20T14:02:34.000Z</time>
      </trkpt>
      <trkpt lat="37.07731667" lon="-3.37909833">
        <ele>2806.0</ele>
        <time>2022-11-20T14:02:35.000Z</time>
      </trkpt>
      <trkpt lat="37.07731833" lon="-3.37910333">
        <ele>2806.0</ele>
        <time>2022-11-20T14:02:36.000Z</time>
      </trkpt>
      <trkpt lat="37.07731833" lon="-3.379105">
        <ele>2806.0</ele>
        <time>2022-11-20T14:02:37.000Z</time>
      </trkpt>
      <trkpt lat="37.077325" lon="-3.379105">
        <ele>2806.0</ele>
        <time>2022-11-20T14:02:38.000Z</time>
      </trkpt>
      <trkpt lat="37.07733667" lon="-3.37910833">
        <ele>2806.0</ele>
        <time>2022-11-20T14:02:39.000Z</time>
      </trkpt>
      <trkpt lat="37.07735" lon="-3.37911333">
        <ele>2806.0</ele>
        <time>2022-11-20T14:02:40.000Z</time>
      </trkpt>
      <trkpt lat="37.07736167" lon="-3.379115">
        <ele>2806.0</ele>
        <time>2022-11-20T14:02:41.000Z</time>
      </trkpt>
      <trkpt lat="37.077375" lon="-3.37912">
        <ele>2806.0</ele>
        <time>2022-11-20T14:02:42.000Z</time>
      </trkpt>
      <trkpt lat="37.07738833" lon="-3.37912333">
        <ele>2806.0</ele>
        <time>2022-11-20T14:02:43.000Z</time>
      </trkpt>
      <trkpt lat="37.07739833" lon="-3.37912167">
        <ele>2806.0</ele>
        <time>2022-11-20T14:02:44.000Z</time>
      </trkpt>
      <trkpt lat="37.07741" lon="-3.379125">
        <ele>2805.0</ele>
        <time>2022-11-20T14:02:45.000Z</time>
      </trkpt>
      <trkpt lat="37.07742167" lon="-3.37912833">
        <ele>2805.0</ele>
        <time>2022-11-20T14:02:46.000Z</time>
      </trkpt>
      <trkpt lat="37.07743167" lon="-3.37913167">
        <ele>2805.0</ele>
        <time>2022-11-20T14:02:47.000Z</time>
      </trkpt>
      <trkpt lat="37.07744" lon="-3.379135">
        <ele>2805.0</ele>
        <time>2022-11-20T14:02:48.000Z</time>
      </trkpt>
      <trkpt lat="37.07744833" lon="-3.379135">
        <ele>2805.0</ele>
        <time>2022-11-20T14:02:49.000Z</time>
      </trkpt>
      <trkpt lat="37.07745333" lon="-3.379135">
        <ele>2805.0</ele>
        <time>2022-11-20T14:02:50.000Z</time>
      </trkpt>
      <trkpt lat="37.077455" lon="-3.379135">
        <ele>2805.0</ele>
        <time>2022-11-20T14:02:51.000Z</time>
      </trkpt>
      <trkpt lat="37.077455" lon="-3.37913667">
        <ele>2805.0</ele>
        <time>2022-11-20T14:02:52.000Z</time>
      </trkpt>
      <trkpt lat="37.07745667" lon="-3.37913667">
        <ele>2805.0</ele>
        <time>2022-11-20T14:02:53.000Z</time>
      </trkpt>
      <trkpt lat="37.07745667" lon="-3.37913833">
        <ele>2805.0</ele>
        <time>2022-11-20T14:02:54.000Z</time>
      </trkpt>
      <trkpt lat="37.07745667" lon="-3.37913833">
        <ele>2805.0</ele>
        <time>2022-11-20T14:02:55.000Z</time>
      </trkpt>
      <trkpt lat="37.07745833" lon="-3.37913833">
        <ele>2805.0</ele>
        <time>2022-11-20T14:02:56.000Z</time>
      </trkpt>
      <trkpt lat="37.07745833" lon="-3.37914">
        <ele>2805.0</ele>
        <time>2022-11-20T14:02:57.000Z</time>
      </trkpt>
      <trkpt lat="37.07745833" lon="-3.37914">
        <ele>2805.0</ele>
        <time>2022-11-20T14:02:58.000Z</time>
      </trkpt>
      <trkpt lat="37.07745833" lon="-3.37914">
        <ele>2805.0</ele>
        <time>2022-11-20T14:02:59.000Z</time>
      </trkpt>
      <trkpt lat="37.07746" lon="-3.37914167">
        <ele>2805.0</ele>
        <time>2022-11-20T14:03:00.000Z</time>
      </trkpt>
      <trkpt lat="37.07746" lon="-3.37914167">
        <ele>2805.0</ele>
        <time>2022-11-20T14:03:01.000Z</time>
      </trkpt>
      <trkpt lat="37.07746167" lon="-3.37914167">
        <ele>2804.0</ele>
        <time>2022-11-20T14:03:02.000Z</time>
      </trkpt>
      <trkpt lat="37.07746833" lon="-3.37914333">
        <ele>2804.0</ele>
        <time>2022-11-20T14:03:03.000Z</time>
      </trkpt>
      <trkpt lat="37.07747833" lon="-3.379145">
        <ele>2804.0</ele>
        <time>2022-11-20T14:03:04.000Z</time>
      </trkpt>
      <trkpt lat="37.07748833" lon="-3.37914833">
        <ele>2804.0</ele>
        <time>2022-11-20T14:03:05.000Z</time>
      </trkpt>
      <trkpt lat="37.0775" lon="-3.37915167">
        <ele>2804.0</ele>
        <time>2022-11-20T14:03:06.000Z</time>
      </trkpt>
      <trkpt lat="37.07751333" lon="-3.379155">
        <ele>2804.0</ele>
        <time>2022-11-20T14:03:07.000Z</time>
      </trkpt>
      <trkpt lat="37.077525" lon="-3.37915667">
        <ele>2804.0</ele>
        <time>2022-11-20T14:03:08.000Z</time>
      </trkpt>
      <trkpt lat="37.07753833" lon="-3.37915833">
        <ele>2804.0</ele>
        <time>2022-11-20T14:03:09.000Z</time>
      </trkpt>
      <trkpt lat="37.07755167" lon="-3.37916167">
        <ele>2803.0</ele>
        <time>2022-11-20T14:03:10.000Z</time>
      </trkpt>
      <trkpt lat="37.077565" lon="-3.37916333">
        <ele>2803.0</ele>
        <time>2022-11-20T14:03:11.000Z</time>
      </trkpt>
      <trkpt lat="37.07757667" lon="-3.37916667">
        <ele>2803.0</ele>
        <time>2022-11-20T14:03:12.000Z</time>
      </trkpt>
      <trkpt lat="37.07758833" lon="-3.37916833">
        <ele>2803.0</ele>
        <time>2022-11-20T14:03:13.000Z</time>
      </trkpt>
      <trkpt lat="37.07760167" lon="-3.37917167">
        <ele>2803.0</ele>
        <time>2022-11-20T14:03:14.000Z</time>
      </trkpt>
      <trkpt lat="37.07761333" lon="-3.37917167">
        <ele>2802.0</ele>
        <time>2022-11-20T14:03:15.000Z</time>
      </trkpt>
      <trkpt lat="37.07762667" lon="-3.37917167">
        <ele>2802.0</ele>
        <time>2022-11-20T14:03:16.000Z</time>
      </trkpt>
      <trkpt lat="37.07763833" lon="-3.379175">
        <ele>2802.0</ele>
        <time>2022-11-20T14:03:17.000Z</time>
      </trkpt>
      <trkpt lat="37.07765167" lon="-3.37917667">
        <ele>2802.0</ele>
        <time>2022-11-20T14:03:18.000Z</time>
      </trkpt>
      <trkpt lat="37.077665" lon="-3.37917833">
        <ele>2802.0</ele>
        <time>2022-11-20T14:03:19.000Z</time>
      </trkpt>
      <trkpt lat="37.07768" lon="-3.37918167">
        <ele>2802.0</ele>
        <time>2022-11-20T14:03:20.000Z</time>
      </trkpt>
      <trkpt lat="37.07769667" lon="-3.379185">
        <ele>2801.0</ele>
        <time>2022-11-20T14:03:21.000Z</time>
      </trkpt>
      <trkpt lat="37.077715" lon="-3.37919">
        <ele>2801.0</ele>
        <time>2022-11-20T14:03:22.000Z</time>
      </trkpt>
      <trkpt lat="37.07773167" lon="-3.379195">
        <ele>2801.0</ele>
        <time>2022-11-20T14:03:23.000Z</time>
      </trkpt>
      <trkpt lat="37.077745" lon="-3.3792">
        <ele>2801.0</ele>
        <time>2022-11-20T14:03:24.000Z</time>
      </trkpt>
      <trkpt lat="37.07776" lon="-3.37920667">
        <ele>2801.0</ele>
        <time>2022-11-20T14:03:25.000Z</time>
      </trkpt>
      <trkpt lat="37.07777333" lon="-3.37921167">
        <ele>2801.0</ele>
        <time>2022-11-20T14:03:26.000Z</time>
      </trkpt>
      <trkpt lat="37.07778667" lon="-3.37921667">
        <ele>2800.0</ele>
        <time>2022-11-20T14:03:27.000Z</time>
      </trkpt>
      <trkpt lat="37.0778" lon="-3.37922167">
        <ele>2800.0</ele>
        <time>2022-11-20T14:03:28.000Z</time>
      </trkpt>
      <trkpt lat="37.077815" lon="-3.379225">
        <ele>2800.0</ele>
        <time>2022-11-20T14:03:29.000Z</time>
      </trkpt>
      <trkpt lat="37.07782833" lon="-3.37922833">
        <ele>2800.0</ele>
        <time>2022-11-20T14:03:30.000Z</time>
      </trkpt>
      <trkpt lat="37.07784" lon="-3.37923333">
        <ele>2800.0</ele>
        <time>2022-11-20T14:03:31.000Z</time>
      </trkpt>
      <trkpt lat="37.077855" lon="-3.37923667">
        <ele>2800.0</ele>
        <time>2022-11-20T14:03:32.000Z</time>
      </trkpt>
      <trkpt lat="37.07786833" lon="-3.37924">
        <ele>2800.0</ele>
        <time>2022-11-20T14:03:33.000Z</time>
      </trkpt>
      <trkpt lat="37.07788167" lon="-3.379245">
        <ele>2800.0</ele>
        <time>2022-11-20T14:03:34.000Z</time>
      </trkpt>
      <trkpt lat="37.077895" lon="-3.37924833">
        <ele>2799.0</ele>
        <time>2022-11-20T14:03:35.000Z</time>
      </trkpt>
      <trkpt lat="37.07790833" lon="-3.37925333">
        <ele>2799.0</ele>
        <time>2022-11-20T14:03:36.000Z</time>
      </trkpt>
      <trkpt lat="37.07792167" lon="-3.37925667">
        <ele>2799.0</ele>
        <time>2022-11-20T14:03:37.000Z</time>
      </trkpt>
      <trkpt lat="37.077935" lon="-3.37926167">
        <ele>2799.0</ele>
        <time>2022-11-20T14:03:38.000Z</time>
      </trkpt>
      <trkpt lat="37.07794833" lon="-3.37926667">
        <ele>2799.0</ele>
        <time>2022-11-20T14:03:39.000Z</time>
      </trkpt>
      <trkpt lat="37.07796167" lon="-3.37926833">
        <ele>2799.0</ele>
        <time>2022-11-20T14:03:40.000Z</time>
      </trkpt>
      <trkpt lat="37.07797667" lon="-3.37927167">
        <ele>2799.0</ele>
        <time>2022-11-20T14:03:41.000Z</time>
      </trkpt>
      <trkpt lat="37.07799" lon="-3.37927333">
        <ele>2799.0</ele>
        <time>2022-11-20T14:03:42.000Z</time>
      </trkpt>
      <trkpt lat="37.07800333" lon="-3.37927667">
        <ele>2798.0</ele>
        <time>2022-11-20T14:03:43.000Z</time>
      </trkpt>
      <trkpt lat="37.07801667" lon="-3.37927667">
        <ele>2798.0</ele>
        <time>2022-11-20T14:03:44.000Z</time>
      </trkpt>
      <trkpt lat="37.07803" lon="-3.37927833">
        <ele>2798.0</ele>
        <time>2022-11-20T14:03:45.000Z</time>
      </trkpt>
      <trkpt lat="37.078045" lon="-3.37928">
        <ele>2798.0</ele>
        <time>2022-11-20T14:03:46.000Z</time>
      </trkpt>
      <trkpt lat="37.07805833" lon="-3.37928333">
        <ele>2798.0</ele>
        <time>2022-11-20T14:03:47.000Z</time>
      </trkpt>
      <trkpt lat="37.07807333" lon="-3.37928667">
        <ele>2798.0</ele>
        <time>2022-11-20T14:03:48.000Z</time>
      </trkpt>
      <trkpt lat="37.07808667" lon="-3.37929">
        <ele>2798.0</ele>
        <time>2022-11-20T14:03:49.000Z</time>
      </trkpt>
      <trkpt lat="37.07810167" lon="-3.37929333">
        <ele>2798.0</ele>
        <time>2022-11-20T14:03:50.000Z</time>
      </trkpt>
      <trkpt lat="37.078115" lon="-3.37929667">
        <ele>2798.0</ele>
        <time>2022-11-20T14:03:51.000Z</time>
      </trkpt>
      <trkpt lat="37.07812833" lon="-3.3793">
        <ele>2798.0</ele>
        <time>2022-11-20T14:03:52.000Z</time>
      </trkpt>
      <trkpt lat="37.07814167" lon="-3.37930333">
        <ele>2798.0</ele>
        <time>2022-11-20T14:03:53.000Z</time>
      </trkpt>
      <trkpt lat="37.078155" lon="-3.37930667">
        <ele>2797.0</ele>
        <time>2022-11-20T14:03:54.000Z</time>
      </trkpt>
      <trkpt lat="37.07816833" lon="-3.37930833">
        <ele>2797.0</ele>
        <time>2022-11-20T14:03:55.000Z</time>
      </trkpt>
      <trkpt lat="37.07818167" lon="-3.37931167">
        <ele>2797.0</ele>
        <time>2022-11-20T14:03:56.000Z</time>
      </trkpt>
      <trkpt lat="37.078195" lon="-3.379315">
        <ele>2797.0</ele>
        <time>2022-11-20T14:03:57.000Z</time>
      </trkpt>
      <trkpt lat="37.07820833" lon="-3.37931833">
        <ele>2797.0</ele>
        <time>2022-11-20T14:03:58.000Z</time>
      </trkpt>
      <trkpt lat="37.07822167" lon="-3.37932167">
        <ele>2797.0</ele>
        <time>2022-11-20T14:03:59.000Z</time>
      </trkpt>
      <trkpt lat="37.078235" lon="-3.37932333">
        <ele>2797.0</ele>
        <time>2022-11-20T14:04:00.000Z</time>
      </trkpt>
      <trkpt lat="37.07824667" lon="-3.37932667">
        <ele>2797.0</ele>
        <time>2022-11-20T14:04:01.000Z</time>
      </trkpt>
      <trkpt lat="37.07826" lon="-3.37933">
        <ele>2796.0</ele>
        <time>2022-11-20T14:04:02.000Z</time>
      </trkpt>
      <trkpt lat="37.07827167" lon="-3.37933333">
        <ele>2796.0</ele>
        <time>2022-11-20T14:04:03.000Z</time>
      </trkpt>
      <trkpt lat="37.078285" lon="-3.37933667">
        <ele>2796.0</ele>
        <time>2022-11-20T14:04:04.000Z</time>
      </trkpt>
      <trkpt lat="37.07829667" lon="-3.37934">
        <ele>2796.0</ele>
        <time>2022-11-20T14:04:05.000Z</time>
      </trkpt>
      <trkpt lat="37.07831" lon="-3.37934167">
        <ele>2796.0</ele>
        <time>2022-11-20T14:04:06.000Z</time>
      </trkpt>
      <trkpt lat="37.07832167" lon="-3.37934167">
        <ele>2796.0</ele>
        <time>2022-11-20T14:04:07.000Z</time>
      </trkpt>
      <trkpt lat="37.078335" lon="-3.37934333">
        <ele>2796.0</ele>
        <time>2022-11-20T14:04:08.000Z</time>
      </trkpt>
      <trkpt lat="37.07834833" lon="-3.379345">
        <ele>2795.0</ele>
        <time>2022-11-20T14:04:09.000Z</time>
      </trkpt>
      <trkpt lat="37.07836167" lon="-3.37934667">
        <ele>2795.0</ele>
        <time>2022-11-20T14:04:10.000Z</time>
      </trkpt>
      <trkpt lat="37.078375" lon="-3.37934833">
        <ele>2795.0</ele>
        <time>2022-11-20T14:04:11.000Z</time>
      </trkpt>
      <trkpt lat="37.07838667" lon="-3.37935">
        <ele>2795.0</ele>
        <time>2022-11-20T14:04:12.000Z</time>
      </trkpt>
      <trkpt lat="37.0784" lon="-3.37935">
        <ele>2795.0</ele>
        <time>2022-11-20T14:04:13.000Z</time>
      </trkpt>
      <trkpt lat="37.07841333" lon="-3.37935167">
        <ele>2795.0</ele>
        <time>2022-11-20T14:04:14.000Z</time>
      </trkpt>
      <trkpt lat="37.078425" lon="-3.37935167">
        <ele>2794.0</ele>
        <time>2022-11-20T14:04:15.000Z</time>
      </trkpt>
      <trkpt lat="37.07843833" lon="-3.37935">
        <ele>2794.0</ele>
        <time>2022-11-20T14:04:16.000Z</time>
      </trkpt>
      <trkpt lat="37.07845167" lon="-3.37934833">
        <ele>2794.0</ele>
        <time>2022-11-20T14:04:17.000Z</time>
      </trkpt>
      <trkpt lat="37.078465" lon="-3.379345">
        <ele>2793.0</ele>
        <time>2022-11-20T14:04:18.000Z</time>
      </trkpt>
      <trkpt lat="37.07847833" lon="-3.37934333">
        <ele>2793.0</ele>
        <time>2022-11-20T14:04:19.000Z</time>
      </trkpt>
      <trkpt lat="37.07849333" lon="-3.37934333">
        <ele>2793.0</ele>
        <time>2022-11-20T14:04:20.000Z</time>
      </trkpt>
      <trkpt lat="37.07850667" lon="-3.379345">
        <ele>2793.0</ele>
        <time>2022-11-20T14:04:21.000Z</time>
      </trkpt>
      <trkpt lat="37.07852167" lon="-3.37934333">
        <ele>2793.0</ele>
        <time>2022-11-20T14:04:22.000Z</time>
      </trkpt>
      <trkpt lat="37.07853667" lon="-3.379345">
        <ele>2793.0</ele>
        <time>2022-11-20T14:04:23.000Z</time>
      </trkpt>
      <trkpt lat="37.07855167" lon="-3.37934833">
        <ele>2792.0</ele>
        <time>2022-11-20T14:04:24.000Z</time>
      </trkpt>
      <trkpt lat="37.07856667" lon="-3.37935">
        <ele>2792.0</ele>
        <time>2022-11-20T14:04:25.000Z</time>
      </trkpt>
      <trkpt lat="37.07858167" lon="-3.379355">
        <ele>2792.0</ele>
        <time>2022-11-20T14:04:26.000Z</time>
      </trkpt>
      <trkpt lat="37.07859667" lon="-3.37936">
        <ele>2791.0</ele>
        <time>2022-11-20T14:04:27.000Z</time>
      </trkpt>
      <trkpt lat="37.07861167" lon="-3.37936333">
        <ele>2791.0</ele>
        <time>2022-11-20T14:04:28.000Z</time>
      </trkpt>
      <trkpt lat="37.078625" lon="-3.37936667">
        <ele>2791.0</ele>
        <time>2022-11-20T14:04:29.000Z</time>
      </trkpt>
      <trkpt lat="37.07864" lon="-3.37937167">
        <ele>2791.0</ele>
        <time>2022-11-20T14:04:30.000Z</time>
      </trkpt>
      <trkpt lat="37.07865333" lon="-3.37937667">
        <ele>2790.0</ele>
        <time>2022-11-20T14:04:31.000Z</time>
      </trkpt>
      <trkpt lat="37.07866833" lon="-3.37938167">
        <ele>2790.0</ele>
        <time>2022-11-20T14:04:32.000Z</time>
      </trkpt>
      <trkpt lat="37.07868167" lon="-3.37938667">
        <ele>2790.0</ele>
        <time>2022-11-20T14:04:33.000Z</time>
      </trkpt>
      <trkpt lat="37.07869667" lon="-3.37939">
        <ele>2789.0</ele>
        <time>2022-11-20T14:04:34.000Z</time>
      </trkpt>
      <trkpt lat="37.07871" lon="-3.37939667">
        <ele>2789.0</ele>
        <time>2022-11-20T14:04:35.000Z</time>
      </trkpt>
      <trkpt lat="37.07872167" lon="-3.37940333">
        <ele>2789.0</ele>
        <time>2022-11-20T14:04:36.000Z</time>
      </trkpt>
      <trkpt lat="37.078735" lon="-3.37940833">
        <ele>2789.0</ele>
        <time>2022-11-20T14:04:37.000Z</time>
      </trkpt>
      <trkpt lat="37.078745" lon="-3.37941333">
        <ele>2788.0</ele>
        <time>2022-11-20T14:04:38.000Z</time>
      </trkpt>
      <trkpt lat="37.07875833" lon="-3.37941667">
        <ele>2788.0</ele>
        <time>2022-11-20T14:04:39.000Z</time>
      </trkpt>
      <trkpt lat="37.07877333" lon="-3.37942167">
        <ele>2788.0</ele>
        <time>2022-11-20T14:04:40.000Z</time>
      </trkpt>
      <trkpt lat="37.07878667" lon="-3.37942833">
        <ele>2788.0</ele>
        <time>2022-11-20T14:04:41.000Z</time>
      </trkpt>
      <trkpt lat="37.07880167" lon="-3.379435">
        <ele>2787.0</ele>
        <time>2022-11-20T14:04:42.000Z</time>
      </trkpt>
      <trkpt lat="37.07881333" lon="-3.37944333">
        <ele>2787.0</ele>
        <time>2022-11-20T14:04:43.000Z</time>
      </trkpt>
      <trkpt lat="37.07882667" lon="-3.37945">
        <ele>2787.0</ele>
        <time>2022-11-20T14:04:44.000Z</time>
      </trkpt>
      <trkpt lat="37.07883833" lon="-3.37945833">
        <ele>2786.0</ele>
        <time>2022-11-20T14:04:45.000Z</time>
      </trkpt>
      <trkpt lat="37.07885167" lon="-3.37946833">
        <ele>2786.0</ele>
        <time>2022-11-20T14:04:46.000Z</time>
      </trkpt>
      <trkpt lat="37.078865" lon="-3.37947833">
        <ele>2786.0</ele>
        <time>2022-11-20T14:04:47.000Z</time>
      </trkpt>
      <trkpt lat="37.078875" lon="-3.37948667">
        <ele>2786.0</ele>
        <time>2022-11-20T14:04:48.000Z</time>
      </trkpt>
      <trkpt lat="37.078885" lon="-3.37949833">
        <ele>2785.0</ele>
        <time>2022-11-20T14:04:49.000Z</time>
      </trkpt>
      <trkpt lat="37.078895" lon="-3.37950833">
        <ele>2785.0</ele>
        <time>2022-11-20T14:04:50.000Z</time>
      </trkpt>
      <trkpt lat="37.07890667" lon="-3.37951667">
        <ele>2785.0</ele>
        <time>2022-11-20T14:04:51.000Z</time>
      </trkpt>
      <trkpt lat="37.07892" lon="-3.37952333">
        <ele>2785.0</ele>
        <time>2022-11-20T14:04:52.000Z</time>
      </trkpt>
      <trkpt lat="37.07893333" lon="-3.37953167">
        <ele>2784.0</ele>
        <time>2022-11-20T14:04:53.000Z</time>
      </trkpt>
      <trkpt lat="37.078945" lon="-3.37954">
        <ele>2784.0</ele>
        <time>2022-11-20T14:04:54.000Z</time>
      </trkpt>
      <trkpt lat="37.07895667" lon="-3.37954833">
        <ele>2784.0</ele>
        <time>2022-11-20T14:04:55.000Z</time>
      </trkpt>
      <trkpt lat="37.07896667" lon="-3.37955667">
        <ele>2783.0</ele>
        <time>2022-11-20T14:04:56.000Z</time>
      </trkpt>
      <trkpt lat="37.07897667" lon="-3.37956667">
        <ele>2783.0</ele>
        <time>2022-11-20T14:04:57.000Z</time>
      </trkpt>
      <trkpt lat="37.078985" lon="-3.37957833">
        <ele>2783.0</ele>
        <time>2022-11-20T14:04:58.000Z</time>
      </trkpt>
      <trkpt lat="37.078995" lon="-3.37958833">
        <ele>2783.0</ele>
        <time>2022-11-20T14:04:59.000Z</time>
      </trkpt>
      <trkpt lat="37.079005" lon="-3.379595">
        <ele>2782.0</ele>
        <time>2022-11-20T14:05:00.000Z</time>
      </trkpt>
      <trkpt lat="37.07901667" lon="-3.379605">
        <ele>2782.0</ele>
        <time>2022-11-20T14:05:01.000Z</time>
      </trkpt>
      <trkpt lat="37.07902667" lon="-3.37961167">
        <ele>2782.0</ele>
        <time>2022-11-20T14:05:02.000Z</time>
      </trkpt>
      <trkpt lat="37.07903667" lon="-3.37962">
        <ele>2782.0</ele>
        <time>2022-11-20T14:05:03.000Z</time>
      </trkpt>
      <trkpt lat="37.07904667" lon="-3.37962833">
        <ele>2781.0</ele>
        <time>2022-11-20T14:05:04.000Z</time>
      </trkpt>
      <trkpt lat="37.07905667" lon="-3.37963667">
        <ele>2781.0</ele>
        <time>2022-11-20T14:05:05.000Z</time>
      </trkpt>
      <trkpt lat="37.07906833" lon="-3.37964167">
        <ele>2781.0</ele>
        <time>2022-11-20T14:05:06.000Z</time>
      </trkpt>
      <trkpt lat="37.07908" lon="-3.37964667">
        <ele>2781.0</ele>
        <time>2022-11-20T14:05:07.000Z</time>
      </trkpt>
      <trkpt lat="37.07909167" lon="-3.379655">
        <ele>2780.0</ele>
        <time>2022-11-20T14:05:08.000Z</time>
      </trkpt>
      <trkpt lat="37.07910333" lon="-3.37966333">
        <ele>2780.0</ele>
        <time>2022-11-20T14:05:09.000Z</time>
      </trkpt>
      <trkpt lat="37.079115" lon="-3.37967167">
        <ele>2780.0</ele>
        <time>2022-11-20T14:05:10.000Z</time>
      </trkpt>
      <trkpt lat="37.07912667" lon="-3.37967833">
        <ele>2779.0</ele>
        <time>2022-11-20T14:05:11.000Z</time>
      </trkpt>
      <trkpt lat="37.07913833" lon="-3.37968667">
        <ele>2779.0</ele>
        <time>2022-11-20T14:05:12.000Z</time>
      </trkpt>
      <trkpt lat="37.07914833" lon="-3.37969">
        <ele>2779.0</ele>
        <time>2022-11-20T14:05:13.000Z</time>
      </trkpt>
      <trkpt lat="37.07915833" lon="-3.37969833">
        <ele>2779.0</ele>
        <time>2022-11-20T14:05:14.000Z</time>
      </trkpt>
      <trkpt lat="37.07917333" lon="-3.37970667">
        <ele>2778.0</ele>
        <time>2022-11-20T14:05:15.000Z</time>
      </trkpt>
      <trkpt lat="37.07918667" lon="-3.379715">
        <ele>2778.0</ele>
        <time>2022-11-20T14:05:16.000Z</time>
      </trkpt>
      <trkpt lat="37.0792" lon="-3.37972333">
        <ele>2778.0</ele>
        <time>2022-11-20T14:05:17.000Z</time>
      </trkpt>
      <trkpt lat="37.07921167" lon="-3.37973167">
        <ele>2777.0</ele>
        <time>2022-11-20T14:05:18.000Z</time>
      </trkpt>
      <trkpt lat="37.079225" lon="-3.37974">
        <ele>2777.0</ele>
        <time>2022-11-20T14:05:19.000Z</time>
      </trkpt>
      <trkpt lat="37.07923833" lon="-3.37975">
        <ele>2777.0</ele>
        <time>2022-11-20T14:05:20.000Z</time>
      </trkpt>
      <trkpt lat="37.07925" lon="-3.37975667">
        <ele>2777.0</ele>
        <time>2022-11-20T14:05:21.000Z</time>
      </trkpt>
      <trkpt lat="37.07926167" lon="-3.379765">
        <ele>2776.0</ele>
        <time>2022-11-20T14:05:22.000Z</time>
      </trkpt>
      <trkpt lat="37.07927167" lon="-3.37977167">
        <ele>2776.0</ele>
        <time>2022-11-20T14:05:23.000Z</time>
      </trkpt>
      <trkpt lat="37.079285" lon="-3.37977833">
        <ele>2776.0</ele>
        <time>2022-11-20T14:05:24.000Z</time>
      </trkpt>
      <trkpt lat="37.079295" lon="-3.37978833">
        <ele>2775.0</ele>
        <time>2022-11-20T14:05:25.000Z</time>
      </trkpt>
      <trkpt lat="37.07930667" lon="-3.37979667">
        <ele>2775.0</ele>
        <time>2022-11-20T14:05:26.000Z</time>
      </trkpt>
      <trkpt lat="37.079315" lon="-3.37980167">
        <ele>2775.0</ele>
        <time>2022-11-20T14:05:27.000Z</time>
      </trkpt>
      <trkpt lat="37.07932667" lon="-3.37980833">
        <ele>2774.0</ele>
        <time>2022-11-20T14:05:28.000Z</time>
      </trkpt>
      <trkpt lat="37.07933667" lon="-3.37981333">
        <ele>2774.0</ele>
        <time>2022-11-20T14:05:29.000Z</time>
      </trkpt>
      <trkpt lat="37.07934833" lon="-3.37981667">
        <ele>2773.0</ele>
        <time>2022-11-20T14:05:30.000Z</time>
      </trkpt>
      <trkpt lat="37.07936" lon="-3.37982167">
        <ele>2773.0</ele>
        <time>2022-11-20T14:05:31.000Z</time>
      </trkpt>
      <trkpt lat="37.07937" lon="-3.37983">
        <ele>2773.0</ele>
        <time>2022-11-20T14:05:32.000Z</time>
      </trkpt>
      <trkpt lat="37.07938" lon="-3.37984">
        <ele>2772.0</ele>
        <time>2022-11-20T14:05:33.000Z</time>
      </trkpt>
      <trkpt lat="37.07938833" lon="-3.37984833">
        <ele>2772.0</ele>
        <time>2022-11-20T14:05:34.000Z</time>
      </trkpt>
      <trkpt lat="37.07939833" lon="-3.37985833">
        <ele>2771.0</ele>
        <time>2022-11-20T14:05:35.000Z</time>
      </trkpt>
      <trkpt lat="37.07941" lon="-3.37986833">
        <ele>2771.0</ele>
        <time>2022-11-20T14:05:36.000Z</time>
      </trkpt>
      <trkpt lat="37.07941833" lon="-3.37988">
        <ele>2771.0</ele>
        <time>2022-11-20T14:05:37.000Z</time>
      </trkpt>
      <trkpt lat="37.07942833" lon="-3.37989">
        <ele>2770.0</ele>
        <time>2022-11-20T14:05:38.000Z</time>
      </trkpt>
      <trkpt lat="37.07943667" lon="-3.3799">
        <ele>2770.0</ele>
        <time>2022-11-20T14:05:39.000Z</time>
      </trkpt>
      <trkpt lat="37.07943833" lon="-3.37990667">
        <ele>2769.0</ele>
        <time>2022-11-20T14:05:40.000Z</time>
      </trkpt>
      <trkpt lat="37.07943833" lon="-3.37991167">
        <ele>2769.0</ele>
        <time>2022-11-20T14:05:41.000Z</time>
      </trkpt>
      <trkpt lat="37.07943833" lon="-3.37991167">
        <ele>2769.0</ele>
        <time>2022-11-20T14:05:42.000Z</time>
      </trkpt>
      <trkpt lat="37.07943833" lon="-3.37991167">
        <ele>2769.0</ele>
        <time>2022-11-20T14:05:43.000Z</time>
      </trkpt>
      <trkpt lat="37.07944" lon="-3.37991">
        <ele>2769.0</ele>
        <time>2022-11-20T14:05:44.000Z</time>
      </trkpt>
      <trkpt lat="37.07944333" lon="-3.37991167">
        <ele>2768.0</ele>
        <time>2022-11-20T14:05:45.000Z</time>
      </trkpt>
      <trkpt lat="37.07944333" lon="-3.37991167">
        <ele>2768.0</ele>
        <time>2022-11-20T14:05:46.000Z</time>
      </trkpt>
      <trkpt lat="37.07944333" lon="-3.37991167">
        <ele>2768.0</ele>
        <time>2022-11-20T14:05:47.000Z</time>
      </trkpt>
      <trkpt lat="37.07944333" lon="-3.37991167">
        <ele>2768.0</ele>
        <time>2022-11-20T14:05:48.000Z</time>
      </trkpt>
      <trkpt lat="37.07944333" lon="-3.37991333">
        <ele>2768.0</ele>
        <time>2022-11-20T14:05:49.000Z</time>
      </trkpt>
      <trkpt lat="37.079445" lon="-3.379915">
        <ele>2768.0</ele>
        <time>2022-11-20T14:05:50.000Z</time>
      </trkpt>
      <trkpt lat="37.07945" lon="-3.37992333">
        <ele>2768.0</ele>
        <time>2022-11-20T14:05:51.000Z</time>
      </trkpt>
      <trkpt lat="37.07945667" lon="-3.37993167">
        <ele>2768.0</ele>
        <time>2022-11-20T14:05:52.000Z</time>
      </trkpt>
      <trkpt lat="37.07946167" lon="-3.37994167">
        <ele>2767.0</ele>
        <time>2022-11-20T14:05:53.000Z</time>
      </trkpt>
      <trkpt lat="37.07946833" lon="-3.37995167">
        <ele>2767.0</ele>
        <time>2022-11-20T14:05:54.000Z</time>
      </trkpt>
      <trkpt lat="37.07947167" lon="-3.37995667">
        <ele>2767.0</ele>
        <time>2022-11-20T14:05:55.000Z</time>
      </trkpt>
      <trkpt lat="37.07947167" lon="-3.37995833">
        <ele>2767.0</ele>
        <time>2022-11-20T14:05:56.000Z</time>
      </trkpt>
      <trkpt lat="37.07947167" lon="-3.37995833">
        <ele>2767.0</ele>
        <time>2022-11-20T14:05:57.000Z</time>
      </trkpt>
      <trkpt lat="37.07947167" lon="-3.37996">
        <ele>2767.0</ele>
        <time>2022-11-20T14:05:58.000Z</time>
      </trkpt>
      <trkpt lat="37.07947" lon="-3.37996">
        <ele>2767.0</ele>
        <time>2022-11-20T14:05:59.000Z</time>
      </trkpt>
      <trkpt lat="37.07947" lon="-3.37996">
        <ele>2767.0</ele>
        <time>2022-11-20T14:06:00.000Z</time>
      </trkpt>
      <trkpt lat="37.07947" lon="-3.37996">
        <ele>2767.0</ele>
        <time>2022-11-20T14:06:01.000Z</time>
      </trkpt>
      <trkpt lat="37.07947333" lon="-3.37996167">
        <ele>2767.0</ele>
        <time>2022-11-20T14:06:02.000Z</time>
      </trkpt>
      <trkpt lat="37.07948" lon="-3.379965">
        <ele>2766.0</ele>
        <time>2022-11-20T14:06:03.000Z</time>
      </trkpt>
      <trkpt lat="37.079485" lon="-3.37997333">
        <ele>2766.0</ele>
        <time>2022-11-20T14:06:04.000Z</time>
      </trkpt>
      <trkpt lat="37.07949333" lon="-3.37998167">
        <ele>2766.0</ele>
        <time>2022-11-20T14:06:05.000Z</time>
      </trkpt>
      <trkpt lat="37.07950333" lon="-3.37999">
        <ele>2766.0</ele>
        <time>2022-11-20T14:06:06.000Z</time>
      </trkpt>
      <trkpt lat="37.07951" lon="-3.38000167">
        <ele>2766.0</ele>
        <time>2022-11-20T14:06:07.000Z</time>
      </trkpt>
      <trkpt lat="37.079515" lon="-3.38001167">
        <ele>2765.0</ele>
        <time>2022-11-20T14:06:08.000Z</time>
      </trkpt>
      <trkpt lat="37.07951833" lon="-3.38002167">
        <ele>2765.0</ele>
        <time>2022-11-20T14:06:09.000Z</time>
      </trkpt>
      <trkpt lat="37.07952" lon="-3.38003333">
        <ele>2765.0</ele>
        <time>2022-11-20T14:06:10.000Z</time>
      </trkpt>
      <trkpt lat="37.07952167" lon="-3.38004667">
        <ele>2765.0</ele>
        <time>2022-11-20T14:06:11.000Z</time>
      </trkpt>
      <trkpt lat="37.07952333" lon="-3.38005667">
        <ele>2765.0</ele>
        <time>2022-11-20T14:06:12.000Z</time>
      </trkpt>
      <trkpt lat="37.07952667" lon="-3.38006833">
        <ele>2764.0</ele>
        <time>2022-11-20T14:06:13.000Z</time>
      </trkpt>
      <trkpt lat="37.07953167" lon="-3.38008">
        <ele>2764.0</ele>
        <time>2022-11-20T14:06:14.000Z</time>
      </trkpt>
      <trkpt lat="37.07953833" lon="-3.38009333">
        <ele>2764.0</ele>
        <time>2022-11-20T14:06:15.000Z</time>
      </trkpt>
      <trkpt lat="37.07954667" lon="-3.380105">
        <ele>2763.0</ele>
        <time>2022-11-20T14:06:16.000Z</time>
      </trkpt>
      <trkpt lat="37.079555" lon="-3.380115">
        <ele>2763.0</ele>
        <time>2022-11-20T14:06:17.000Z</time>
      </trkpt>
      <trkpt lat="37.079565" lon="-3.38012833">
        <ele>2763.0</ele>
        <time>2022-11-20T14:06:18.000Z</time>
      </trkpt>
      <trkpt lat="37.07957333" lon="-3.38014">
        <ele>2762.0</ele>
        <time>2022-11-20T14:06:19.000Z</time>
      </trkpt>
      <trkpt lat="37.079585" lon="-3.38015667">
        <ele>2762.0</ele>
        <time>2022-11-20T14:06:20.000Z</time>
      </trkpt>
      <trkpt lat="37.079595" lon="-3.38017">
        <ele>2761.0</ele>
        <time>2022-11-20T14:06:21.000Z</time>
      </trkpt>
      <trkpt lat="37.07960333" lon="-3.38018167">
        <ele>2761.0</ele>
        <time>2022-11-20T14:06:22.000Z</time>
      </trkpt>
      <trkpt lat="37.079615" lon="-3.38019167">
        <ele>2761.0</ele>
        <time>2022-11-20T14:06:23.000Z</time>
      </trkpt>
      <trkpt lat="37.079625" lon="-3.38019667">
        <ele>2760.0</ele>
        <time>2022-11-20T14:06:24.000Z</time>
      </trkpt>
      <trkpt lat="37.07963667" lon="-3.3802">
        <ele>2760.0</ele>
        <time>2022-11-20T14:06:25.000Z</time>
      </trkpt>
      <trkpt lat="37.07964833" lon="-3.38020167">
        <ele>2760.0</ele>
        <time>2022-11-20T14:06:26.000Z</time>
      </trkpt>
      <trkpt lat="37.07966" lon="-3.38020833">
        <ele>2760.0</ele>
        <time>2022-11-20T14:06:27.000Z</time>
      </trkpt>
      <trkpt lat="37.07967167" lon="-3.38021333">
        <ele>2759.0</ele>
        <time>2022-11-20T14:06:28.000Z</time>
      </trkpt>
      <trkpt lat="37.07968333" lon="-3.38021833">
        <ele>2759.0</ele>
        <time>2022-11-20T14:06:29.000Z</time>
      </trkpt>
      <trkpt lat="37.07969667" lon="-3.38022333">
        <ele>2759.0</ele>
        <time>2022-11-20T14:06:30.000Z</time>
      </trkpt>
      <trkpt lat="37.07970833" lon="-3.38022833">
        <ele>2759.0</ele>
        <time>2022-11-20T14:06:31.000Z</time>
      </trkpt>
      <trkpt lat="37.07972167" lon="-3.38023167">
        <ele>2758.0</ele>
        <time>2022-11-20T14:06:32.000Z</time>
      </trkpt>
      <trkpt lat="37.07973667" lon="-3.38023333">
        <ele>2758.0</ele>
        <time>2022-11-20T14:06:33.000Z</time>
      </trkpt>
      <trkpt lat="37.07975" lon="-3.38023333">
        <ele>2758.0</ele>
        <time>2022-11-20T14:06:34.000Z</time>
      </trkpt>
      <trkpt lat="37.07976333" lon="-3.380235">
        <ele>2758.0</ele>
        <time>2022-11-20T14:06:35.000Z</time>
      </trkpt>
      <trkpt lat="37.079775" lon="-3.38023667">
        <ele>2757.0</ele>
        <time>2022-11-20T14:06:36.000Z</time>
      </trkpt>
      <trkpt lat="37.07978833" lon="-3.38024">
        <ele>2757.0</ele>
        <time>2022-11-20T14:06:37.000Z</time>
      </trkpt>
      <trkpt lat="37.07980167" lon="-3.380245">
        <ele>2757.0</ele>
        <time>2022-11-20T14:06:38.000Z</time>
      </trkpt>
      <trkpt lat="37.079815" lon="-3.38024833">
        <ele>2757.0</ele>
        <time>2022-11-20T14:06:39.000Z</time>
      </trkpt>
      <trkpt lat="37.07982667" lon="-3.38025167">
        <ele>2756.0</ele>
        <time>2022-11-20T14:06:40.000Z</time>
      </trkpt>
      <trkpt lat="37.07984" lon="-3.38025333">
        <ele>2756.0</ele>
        <time>2022-11-20T14:06:41.000Z</time>
      </trkpt>
      <trkpt lat="37.07985333" lon="-3.38025833">
        <ele>2756.0</ele>
        <time>2022-11-20T14:06:42.000Z</time>
      </trkpt>
      <trkpt lat="37.07986667" lon="-3.380265">
        <ele>2756.0</ele>
        <time>2022-11-20T14:06:43.000Z</time>
      </trkpt>
      <trkpt lat="37.079875" lon="-3.380265">
        <ele>2755.0</ele>
        <time>2022-11-20T14:06:44.000Z</time>
      </trkpt>
      <trkpt lat="37.07988" lon="-3.38027">
        <ele>2755.0</ele>
        <time>2022-11-20T14:06:45.000Z</time>
      </trkpt>
      <trkpt lat="37.07988" lon="-3.38027333">
        <ele>2755.0</ele>
        <time>2022-11-20T14:06:46.000Z</time>
      </trkpt>
      <trkpt lat="37.07988167" lon="-3.380275">
        <ele>2755.0</ele>
        <time>2022-11-20T14:06:47.000Z</time>
      </trkpt>
      <trkpt lat="37.07988167" lon="-3.380275">
        <ele>2755.0</ele>
        <time>2022-11-20T14:06:48.000Z</time>
      </trkpt>
      <trkpt lat="37.07988167" lon="-3.380275">
        <ele>2755.0</ele>
        <time>2022-11-20T14:06:49.000Z</time>
      </trkpt>
      <trkpt lat="37.07988167" lon="-3.380275">
        <ele>2755.0</ele>
        <time>2022-11-20T14:06:50.000Z</time>
      </trkpt>
      <trkpt lat="37.07988167" lon="-3.380275">
        <ele>2755.0</ele>
        <time>2022-11-20T14:06:51.000Z</time>
      </trkpt>
      <trkpt lat="37.07988167" lon="-3.380275">
        <ele>2755.0</ele>
        <time>2022-11-20T14:06:52.000Z</time>
      </trkpt>
      <trkpt lat="37.07988167" lon="-3.380275">
        <ele>2755.0</ele>
        <time>2022-11-20T14:06:53.000Z</time>
      </trkpt>
      <trkpt lat="37.07988167" lon="-3.38027333">
        <ele>2755.0</ele>
        <time>2022-11-20T14:06:54.000Z</time>
      </trkpt>
      <trkpt lat="37.07988333" lon="-3.38027167">
        <ele>2754.0</ele>
        <time>2022-11-20T14:06:55.000Z</time>
      </trkpt>
      <trkpt lat="37.07989167" lon="-3.38027333">
        <ele>2754.0</ele>
        <time>2022-11-20T14:06:56.000Z</time>
      </trkpt>
      <trkpt lat="37.0799" lon="-3.380275">
        <ele>2754.0</ele>
        <time>2022-11-20T14:06:57.000Z</time>
      </trkpt>
      <trkpt lat="37.07991167" lon="-3.38027667">
        <ele>2754.0</ele>
        <time>2022-11-20T14:06:58.000Z</time>
      </trkpt>
      <trkpt lat="37.07992333" lon="-3.38028167">
        <ele>2754.0</ele>
        <time>2022-11-20T14:06:59.000Z</time>
      </trkpt>
      <trkpt lat="37.079935" lon="-3.38028833">
        <ele>2754.0</ele>
        <time>2022-11-20T14:07:00.000Z</time>
      </trkpt>
      <trkpt lat="37.079945" lon="-3.380295">
        <ele>2753.0</ele>
        <time>2022-11-20T14:07:01.000Z</time>
      </trkpt>
      <trkpt lat="37.07995333" lon="-3.38030167">
        <ele>2753.0</ele>
        <time>2022-11-20T14:07:02.000Z</time>
      </trkpt>
      <trkpt lat="37.07996167" lon="-3.380305">
        <ele>2753.0</ele>
        <time>2022-11-20T14:07:03.000Z</time>
      </trkpt>
      <trkpt lat="37.07997167" lon="-3.380305">
        <ele>2753.0</ele>
        <time>2022-11-20T14:07:04.000Z</time>
      </trkpt>
      <trkpt lat="37.07998167" lon="-3.38030333">
        <ele>2752.0</ele>
        <time>2022-11-20T14:07:05.000Z</time>
      </trkpt>
      <trkpt lat="37.079995" lon="-3.380305">
        <ele>2752.0</ele>
        <time>2022-11-20T14:07:06.000Z</time>
      </trkpt>
      <trkpt lat="37.08000833" lon="-3.38030667">
        <ele>2752.0</ele>
        <time>2022-11-20T14:07:07.000Z</time>
      </trkpt>
      <trkpt lat="37.08002167" lon="-3.38031">
        <ele>2752.0</ele>
        <time>2022-11-20T14:07:08.000Z</time>
      </trkpt>
      <trkpt lat="37.080035" lon="-3.38031333">
        <ele>2751.0</ele>
        <time>2022-11-20T14:07:09.000Z</time>
      </trkpt>
      <trkpt lat="37.08004667" lon="-3.380315">
        <ele>2751.0</ele>
        <time>2022-11-20T14:07:10.000Z</time>
      </trkpt>
      <trkpt lat="37.08006" lon="-3.38031833">
        <ele>2751.0</ele>
        <time>2022-11-20T14:07:11.000Z</time>
      </trkpt>
      <trkpt lat="37.08007167" lon="-3.38032">
        <ele>2751.0</ele>
        <time>2022-11-20T14:07:12.000Z</time>
      </trkpt>
      <trkpt lat="37.08008167" lon="-3.38032333">
        <ele>2750.0</ele>
        <time>2022-11-20T14:07:13.000Z</time>
      </trkpt>
      <trkpt lat="37.08009167" lon="-3.380325">
        <ele>2750.0</ele>
        <time>2022-11-20T14:07:14.000Z</time>
      </trkpt>
      <trkpt lat="37.08010333" lon="-3.38032333">
        <ele>2750.0</ele>
        <time>2022-11-20T14:07:15.000Z</time>
      </trkpt>
      <trkpt lat="37.080115" lon="-3.38032667">
        <ele>2750.0</ele>
        <time>2022-11-20T14:07:16.000Z</time>
      </trkpt>
      <trkpt lat="37.08012667" lon="-3.38033167">
        <ele>2749.0</ele>
        <time>2022-11-20T14:07:17.000Z</time>
      </trkpt>
      <trkpt lat="37.08014" lon="-3.380335">
        <ele>2749.0</ele>
        <time>2022-11-20T14:07:18.000Z</time>
      </trkpt>
      <trkpt lat="37.08015333" lon="-3.38033667">
        <ele>2749.0</ele>
        <time>2022-11-20T14:07:19.000Z</time>
      </trkpt>
      <trkpt lat="37.08016333" lon="-3.38034167">
        <ele>2749.0</ele>
        <time>2022-11-20T14:07:20.000Z</time>
      </trkpt>
      <trkpt lat="37.08017167" lon="-3.38034833">
        <ele>2749.0</ele>
        <time>2022-11-20T14:07:21.000Z</time>
      </trkpt>
      <trkpt lat="37.08018333" lon="-3.380355">
        <ele>2748.0</ele>
        <time>2022-11-20T14:07:22.000Z</time>
      </trkpt>
      <trkpt lat="37.08019667" lon="-3.38036167">
        <ele>2748.0</ele>
        <time>2022-11-20T14:07:23.000Z</time>
      </trkpt>
      <trkpt lat="37.08020833" lon="-3.38037">
        <ele>2748.0</ele>
        <time>2022-11-20T14:07:24.000Z</time>
      </trkpt>
      <trkpt lat="37.08021833" lon="-3.38038">
        <ele>2748.0</ele>
        <time>2022-11-20T14:07:25.000Z</time>
      </trkpt>
      <trkpt lat="37.08023" lon="-3.38038833">
        <ele>2748.0</ele>
        <time>2022-11-20T14:07:26.000Z</time>
      </trkpt>
      <trkpt lat="37.08024" lon="-3.380395">
        <ele>2748.0</ele>
        <time>2022-11-20T14:07:27.000Z</time>
      </trkpt>
      <trkpt lat="37.08025" lon="-3.3804">
        <ele>2747.0</ele>
        <time>2022-11-20T14:07:28.000Z</time>
      </trkpt>
      <trkpt lat="37.08026167" lon="-3.380405">
        <ele>2747.0</ele>
        <time>2022-11-20T14:07:29.000Z</time>
      </trkpt>
      <trkpt lat="37.08027333" lon="-3.38041">
        <ele>2747.0</ele>
        <time>2022-11-20T14:07:30.000Z</time>
      </trkpt>
      <trkpt lat="37.08028667" lon="-3.38041333">
        <ele>2747.0</ele>
        <time>2022-11-20T14:07:31.000Z</time>
      </trkpt>
      <trkpt lat="37.08030167" lon="-3.38041833">
        <ele>2746.0</ele>
        <time>2022-11-20T14:07:32.000Z</time>
      </trkpt>
      <trkpt lat="37.08031333" lon="-3.38042333">
        <ele>2746.0</ele>
        <time>2022-11-20T14:07:33.000Z</time>
      </trkpt>
      <trkpt lat="37.08032667" lon="-3.38042833">
        <ele>2746.0</ele>
        <time>2022-11-20T14:07:34.000Z</time>
      </trkpt>
      <trkpt lat="37.08034" lon="-3.38043667">
        <ele>2746.0</ele>
        <time>2022-11-20T14:07:35.000Z</time>
      </trkpt>
      <trkpt lat="37.08035333" lon="-3.380445">
        <ele>2746.0</ele>
        <time>2022-11-20T14:07:36.000Z</time>
      </trkpt>
      <trkpt lat="37.080365" lon="-3.38045333">
        <ele>2745.0</ele>
        <time>2022-11-20T14:07:37.000Z</time>
      </trkpt>
      <trkpt lat="37.08037667" lon="-3.38046167">
        <ele>2745.0</ele>
        <time>2022-11-20T14:07:38.000Z</time>
      </trkpt>
      <trkpt lat="37.08038833" lon="-3.38046833">
        <ele>2745.0</ele>
        <time>2022-11-20T14:07:39.000Z</time>
      </trkpt>
      <trkpt lat="37.080395" lon="-3.38047333">
        <ele>2745.0</ele>
        <time>2022-11-20T14:07:40.000Z</time>
      </trkpt>
      <trkpt lat="37.08039667" lon="-3.380475">
        <ele>2745.0</ele>
        <time>2022-11-20T14:07:41.000Z</time>
      </trkpt>
      <trkpt lat="37.08039667" lon="-3.38047667">
        <ele>2745.0</ele>
        <time>2022-11-20T14:07:42.000Z</time>
      </trkpt>
      <trkpt lat="37.08039667" lon="-3.38047667">
        <ele>2744.0</ele>
        <time>2022-11-20T14:07:43.000Z</time>
      </trkpt>
      <trkpt lat="37.08039667" lon="-3.38047833">
        <ele>2744.0</ele>
        <time>2022-11-20T14:07:44.000Z</time>
      </trkpt>
      <trkpt lat="37.0804" lon="-3.38048667">
        <ele>2744.0</ele>
        <time>2022-11-20T14:07:45.000Z</time>
      </trkpt>
      <trkpt lat="37.080405" lon="-3.38049">
        <ele>2744.0</ele>
        <time>2022-11-20T14:07:46.000Z</time>
      </trkpt>
      <trkpt lat="37.080405" lon="-3.38049">
        <ele>2744.0</ele>
        <time>2022-11-20T14:07:47.000Z</time>
      </trkpt>
      <trkpt lat="37.080405" lon="-3.38049">
        <ele>2744.0</ele>
        <time>2022-11-20T14:07:48.000Z</time>
      </trkpt>
      <trkpt lat="37.080405" lon="-3.38049">
        <ele>2744.0</ele>
        <time>2022-11-20T14:07:49.000Z</time>
      </trkpt>
      <trkpt lat="37.08040333" lon="-3.38049">
        <ele>2744.0</ele>
        <time>2022-11-20T14:07:50.000Z</time>
      </trkpt>
      <trkpt lat="37.08040333" lon="-3.38049">
        <ele>2744.0</ele>
        <time>2022-11-20T14:07:51.000Z</time>
      </trkpt>
      <trkpt lat="37.08040333" lon="-3.38049">
        <ele>2744.0</ele>
        <time>2022-11-20T14:07:52.000Z</time>
      </trkpt>
      <trkpt lat="37.08040333" lon="-3.38049">
        <ele>2744.0</ele>
        <time>2022-11-20T14:07:53.000Z</time>
      </trkpt>
      <trkpt lat="37.08040167" lon="-3.38049">
        <ele>2744.0</ele>
        <time>2022-11-20T14:07:54.000Z</time>
      </trkpt>
      <trkpt lat="37.08040167" lon="-3.38049">
        <ele>2744.0</ele>
        <time>2022-11-20T14:07:55.000Z</time>
      </trkpt>
      <trkpt lat="37.08040167" lon="-3.38049">
        <ele>2743.0</ele>
        <time>2022-11-20T14:07:56.000Z</time>
      </trkpt>
      <trkpt lat="37.08040167" lon="-3.38049167">
        <ele>2743.0</ele>
        <time>2022-11-20T14:07:57.000Z</time>
      </trkpt>
      <trkpt lat="37.08040167" lon="-3.38049167">
        <ele>2743.0</ele>
        <time>2022-11-20T14:07:58.000Z</time>
      </trkpt>
      <trkpt lat="37.08040167" lon="-3.38049167">
        <ele>2743.0</ele>
        <time>2022-11-20T14:07:59.000Z</time>
      </trkpt>
      <trkpt lat="37.08040167" lon="-3.38049167">
        <ele>2743.0</ele>
        <time>2022-11-20T14:08:00.000Z</time>
      </trkpt>
      <trkpt lat="37.08040167" lon="-3.38049167">
        <ele>2743.0</ele>
        <time>2022-11-20T14:08:01.000Z</time>
      </trkpt>
      <trkpt lat="37.0804" lon="-3.38049167">
        <ele>2743.0</ele>
        <time>2022-11-20T14:08:02.000Z</time>
      </trkpt>
      <trkpt lat="37.0804" lon="-3.38049167">
        <ele>2743.0</ele>
        <time>2022-11-20T14:08:03.000Z</time>
      </trkpt>
      <trkpt lat="37.0804" lon="-3.38049167">
        <ele>2743.0</ele>
        <time>2022-11-20T14:08:04.000Z</time>
      </trkpt>
      <trkpt lat="37.0804" lon="-3.38049167">
        <ele>2743.0</ele>
        <time>2022-11-20T14:08:05.000Z</time>
      </trkpt>
      <trkpt lat="37.0804" lon="-3.38049167">
        <ele>2743.0</ele>
        <time>2022-11-20T14:08:06.000Z</time>
      </trkpt>
      <trkpt lat="37.0804" lon="-3.38049167">
        <ele>2743.0</ele>
        <time>2022-11-20T14:08:07.000Z</time>
      </trkpt>
      <trkpt lat="37.0804" lon="-3.38049167">
        <ele>2743.0</ele>
        <time>2022-11-20T14:08:08.000Z</time>
      </trkpt>
      <trkpt lat="37.0804" lon="-3.38049167">
        <ele>2743.0</ele>
        <time>2022-11-20T14:08:09.000Z</time>
      </trkpt>
      <trkpt lat="37.0804" lon="-3.38049333">
        <ele>2743.0</ele>
        <time>2022-11-20T14:08:10.000Z</time>
      </trkpt>
      <trkpt lat="37.08039833" lon="-3.38049333">
        <ele>2743.0</ele>
        <time>2022-11-20T14:08:11.000Z</time>
      </trkpt>
      <trkpt lat="37.08039667" lon="-3.38049333">
        <ele>2743.0</ele>
        <time>2022-11-20T14:08:12.000Z</time>
      </trkpt>
      <trkpt lat="37.08039667" lon="-3.380495">
        <ele>2743.0</ele>
        <time>2022-11-20T14:08:13.000Z</time>
      </trkpt>
      <trkpt lat="37.08039667" lon="-3.38049333">
        <ele>2743.0</ele>
        <time>2022-11-20T14:08:14.000Z</time>
      </trkpt>
      <trkpt lat="37.08039667" lon="-3.380495">
        <ele>2743.0</ele>
        <time>2022-11-20T14:08:15.000Z</time>
      </trkpt>
      <trkpt lat="37.0804" lon="-3.38049167">
        <ele>2743.0</ele>
        <time>2022-11-20T14:08:16.000Z</time>
      </trkpt>
      <trkpt lat="37.080405" lon="-3.38049333">
        <ele>2743.0</ele>
        <time>2022-11-20T14:08:17.000Z</time>
      </trkpt>
      <trkpt lat="37.08041333" lon="-3.38049667">
        <ele>2743.0</ele>
        <time>2022-11-20T14:08:18.000Z</time>
      </trkpt>
      <trkpt lat="37.08042333" lon="-3.38050333">
        <ele>2742.0</ele>
        <time>2022-11-20T14:08:19.000Z</time>
      </trkpt>
      <trkpt lat="37.08043167" lon="-3.380505">
        <ele>2742.0</ele>
        <time>2022-11-20T14:08:20.000Z</time>
      </trkpt>
      <trkpt lat="37.08044333" lon="-3.38050833">
        <ele>2742.0</ele>
        <time>2022-11-20T14:08:21.000Z</time>
      </trkpt>
      <trkpt lat="37.08045333" lon="-3.38051">
        <ele>2742.0</ele>
        <time>2022-11-20T14:08:22.000Z</time>
      </trkpt>
      <trkpt lat="37.08046333" lon="-3.38051167">
        <ele>2741.0</ele>
        <time>2022-11-20T14:08:23.000Z</time>
      </trkpt>
      <trkpt lat="37.08047333" lon="-3.38051667">
        <ele>2741.0</ele>
        <time>2022-11-20T14:08:24.000Z</time>
      </trkpt>
      <trkpt lat="37.08048333" lon="-3.38052">
        <ele>2741.0</ele>
        <time>2022-11-20T14:08:25.000Z</time>
      </trkpt>
      <trkpt lat="37.080495" lon="-3.38052167">
        <ele>2741.0</ele>
        <time>2022-11-20T14:08:26.000Z</time>
      </trkpt>
      <trkpt lat="37.08050667" lon="-3.38052333">
        <ele>2740.0</ele>
        <time>2022-11-20T14:08:27.000Z</time>
      </trkpt>
      <trkpt lat="37.08051833" lon="-3.38052667">
        <ele>2740.0</ele>
        <time>2022-11-20T14:08:28.000Z</time>
      </trkpt>
      <trkpt lat="37.08053167" lon="-3.38053">
        <ele>2740.0</ele>
        <time>2022-11-20T14:08:29.000Z</time>
      </trkpt>
      <trkpt lat="37.08054167" lon="-3.380535">
        <ele>2739.0</ele>
        <time>2022-11-20T14:08:30.000Z</time>
      </trkpt>
      <trkpt lat="37.08055167" lon="-3.38054">
        <ele>2739.0</ele>
        <time>2022-11-20T14:08:31.000Z</time>
      </trkpt>
      <trkpt lat="37.08056167" lon="-3.380545">
        <ele>2739.0</ele>
        <time>2022-11-20T14:08:32.000Z</time>
      </trkpt>
      <trkpt lat="37.08057333" lon="-3.38054833">
        <ele>2739.0</ele>
        <time>2022-11-20T14:08:33.000Z</time>
      </trkpt>
      <trkpt lat="37.080585" lon="-3.38055333">
        <ele>2738.0</ele>
        <time>2022-11-20T14:08:34.000Z</time>
      </trkpt>
      <trkpt lat="37.08059667" lon="-3.38055833">
        <ele>2738.0</ele>
        <time>2022-11-20T14:08:35.000Z</time>
      </trkpt>
      <trkpt lat="37.08060833" lon="-3.38056333">
        <ele>2738.0</ele>
        <time>2022-11-20T14:08:36.000Z</time>
      </trkpt>
      <trkpt lat="37.08062167" lon="-3.38056833">
        <ele>2737.0</ele>
        <time>2022-11-20T14:08:37.000Z</time>
      </trkpt>
      <trkpt lat="37.080635" lon="-3.38057167">
        <ele>2737.0</ele>
        <time>2022-11-20T14:08:38.000Z</time>
      </trkpt>
      <trkpt lat="37.08064833" lon="-3.38057833">
        <ele>2737.0</ele>
        <time>2022-11-20T14:08:39.000Z</time>
      </trkpt>
      <trkpt lat="37.08065833" lon="-3.38058333">
        <ele>2737.0</ele>
        <time>2022-11-20T14:08:40.000Z</time>
      </trkpt>
      <trkpt lat="37.08066" lon="-3.38058833">
        <ele>2737.0</ele>
        <time>2022-11-20T14:08:41.000Z</time>
      </trkpt>
      <trkpt lat="37.08066" lon="-3.38058833">
        <ele>2736.0</ele>
        <time>2022-11-20T14:08:42.000Z</time>
      </trkpt>
      <trkpt lat="37.08066" lon="-3.38058833">
        <ele>2736.0</ele>
        <time>2022-11-20T14:08:43.000Z</time>
      </trkpt>
      <trkpt lat="37.08066" lon="-3.38059">
        <ele>2736.0</ele>
        <time>2022-11-20T14:08:44.000Z</time>
      </trkpt>
      <trkpt lat="37.080665" lon="-3.38058667">
        <ele>2736.0</ele>
        <time>2022-11-20T14:08:45.000Z</time>
      </trkpt>
      <trkpt lat="37.08067667" lon="-3.38059">
        <ele>2736.0</ele>
        <time>2022-11-20T14:08:46.000Z</time>
      </trkpt>
      <trkpt lat="37.08069" lon="-3.380595">
        <ele>2736.0</ele>
        <time>2022-11-20T14:08:47.000Z</time>
      </trkpt>
      <trkpt lat="37.0807" lon="-3.38059833">
        <ele>2736.0</ele>
        <time>2022-11-20T14:08:48.000Z</time>
      </trkpt>
      <trkpt lat="37.08071167" lon="-3.38060333">
        <ele>2736.0</ele>
        <time>2022-11-20T14:08:49.000Z</time>
      </trkpt>
      <trkpt lat="37.08072333" lon="-3.38060833">
        <ele>2736.0</ele>
        <time>2022-11-20T14:08:50.000Z</time>
      </trkpt>
      <trkpt lat="37.08073167" lon="-3.38061333">
        <ele>2735.0</ele>
        <time>2022-11-20T14:08:51.000Z</time>
      </trkpt>
      <trkpt lat="37.08074333" lon="-3.38061667">
        <ele>2735.0</ele>
        <time>2022-11-20T14:08:52.000Z</time>
      </trkpt>
      <trkpt lat="37.08075333" lon="-3.38062">
        <ele>2735.0</ele>
        <time>2022-11-20T14:08:53.000Z</time>
      </trkpt>
      <trkpt lat="37.08076333" lon="-3.380625">
        <ele>2735.0</ele>
        <time>2022-11-20T14:08:54.000Z</time>
      </trkpt>
      <trkpt lat="37.08077333" lon="-3.38063">
        <ele>2734.0</ele>
        <time>2022-11-20T14:08:55.000Z</time>
      </trkpt>
      <trkpt lat="37.080785" lon="-3.380635">
        <ele>2734.0</ele>
        <time>2022-11-20T14:08:56.000Z</time>
      </trkpt>
      <trkpt lat="37.080795" lon="-3.38064167">
        <ele>2734.0</ele>
        <time>2022-11-20T14:08:57.000Z</time>
      </trkpt>
      <trkpt lat="37.08080667" lon="-3.38065">
        <ele>2734.0</ele>
        <time>2022-11-20T14:08:58.000Z</time>
      </trkpt>
      <trkpt lat="37.08081833" lon="-3.38065667">
        <ele>2733.0</ele>
        <time>2022-11-20T14:08:59.000Z</time>
      </trkpt>
      <trkpt lat="37.08083" lon="-3.38066333">
        <ele>2733.0</ele>
        <time>2022-11-20T14:09:00.000Z</time>
      </trkpt>
      <trkpt lat="37.08084" lon="-3.38067">
        <ele>2733.0</ele>
        <time>2022-11-20T14:09:01.000Z</time>
      </trkpt>
      <trkpt lat="37.08085167" lon="-3.380675">
        <ele>2733.0</ele>
        <time>2022-11-20T14:09:02.000Z</time>
      </trkpt>
      <trkpt lat="37.08086333" lon="-3.38068">
        <ele>2732.0</ele>
        <time>2022-11-20T14:09:03.000Z</time>
      </trkpt>
      <trkpt lat="37.080875" lon="-3.380685">
        <ele>2732.0</ele>
        <time>2022-11-20T14:09:04.000Z</time>
      </trkpt>
      <trkpt lat="37.08088667" lon="-3.38068833">
        <ele>2732.0</ele>
        <time>2022-11-20T14:09:05.000Z</time>
      </trkpt>
      <trkpt lat="37.08089667" lon="-3.38069167">
        <ele>2732.0</ele>
        <time>2022-11-20T14:09:06.000Z</time>
      </trkpt>
      <trkpt lat="37.08090833" lon="-3.380695">
        <ele>2731.0</ele>
        <time>2022-11-20T14:09:07.000Z</time>
      </trkpt>
      <trkpt lat="37.08092" lon="-3.38069833">
        <ele>2731.0</ele>
        <time>2022-11-20T14:09:08.000Z</time>
      </trkpt>
      <trkpt lat="37.08093167" lon="-3.38069833">
        <ele>2731.0</ele>
        <time>2022-11-20T14:09:09.000Z</time>
      </trkpt>
      <trkpt lat="37.080945" lon="-3.38070333">
        <ele>2730.0</ele>
        <time>2022-11-20T14:09:10.000Z</time>
      </trkpt>
      <trkpt lat="37.08095667" lon="-3.38070833">
        <ele>2730.0</ele>
        <time>2022-11-20T14:09:11.000Z</time>
      </trkpt>
      <trkpt lat="37.08096833" lon="-3.380715">
        <ele>2730.0</ele>
        <time>2022-11-20T14:09:12.000Z</time>
      </trkpt>
      <trkpt lat="37.08097833" lon="-3.38072167">
        <ele>2730.0</ele>
        <time>2022-11-20T14:09:13.000Z</time>
      </trkpt>
      <trkpt lat="37.08098833" lon="-3.38072667">
        <ele>2729.0</ele>
        <time>2022-11-20T14:09:14.000Z</time>
      </trkpt>
      <trkpt lat="37.08099833" lon="-3.38073">
        <ele>2729.0</ele>
        <time>2022-11-20T14:09:15.000Z</time>
      </trkpt>
      <trkpt lat="37.08101" lon="-3.38073333">
        <ele>2729.0</ele>
        <time>2022-11-20T14:09:16.000Z</time>
      </trkpt>
      <trkpt lat="37.08102" lon="-3.38073167">
        <ele>2729.0</ele>
        <time>2022-11-20T14:09:17.000Z</time>
      </trkpt>
      <trkpt lat="37.08103167" lon="-3.38073333">
        <ele>2729.0</ele>
        <time>2022-11-20T14:09:18.000Z</time>
      </trkpt>
      <trkpt lat="37.08104" lon="-3.38073833">
        <ele>2728.0</ele>
        <time>2022-11-20T14:09:19.000Z</time>
      </trkpt>
      <trkpt lat="37.081045" lon="-3.38074167">
        <ele>2728.0</ele>
        <time>2022-11-20T14:09:20.000Z</time>
      </trkpt>
      <trkpt lat="37.08104667" lon="-3.380745">
        <ele>2728.0</ele>
        <time>2022-11-20T14:09:21.000Z</time>
      </trkpt>
      <trkpt lat="37.08105" lon="-3.38073667">
        <ele>2728.0</ele>
        <time>2022-11-20T14:09:22.000Z</time>
      </trkpt>
      <trkpt lat="37.08105667" lon="-3.380735">
        <ele>2728.0</ele>
        <time>2022-11-20T14:09:23.000Z</time>
      </trkpt>
      <trkpt lat="37.08106833" lon="-3.380735">
        <ele>2728.0</ele>
        <time>2022-11-20T14:09:24.000Z</time>
      </trkpt>
      <trkpt lat="37.08107667" lon="-3.38074">
        <ele>2727.0</ele>
        <time>2022-11-20T14:09:25.000Z</time>
      </trkpt>
      <trkpt lat="37.08108333" lon="-3.38074333">
        <ele>2727.0</ele>
        <time>2022-11-20T14:09:26.000Z</time>
      </trkpt>
      <trkpt lat="37.08108333" lon="-3.38074667">
        <ele>2727.0</ele>
        <time>2022-11-20T14:09:27.000Z</time>
      </trkpt>
      <trkpt lat="37.08108333" lon="-3.38074833">
        <ele>2727.0</ele>
        <time>2022-11-20T14:09:28.000Z</time>
      </trkpt>
      <trkpt lat="37.08108333" lon="-3.38074833">
        <ele>2727.0</ele>
        <time>2022-11-20T14:09:29.000Z</time>
      </trkpt>
      <trkpt lat="37.08108333" lon="-3.38074833">
        <ele>2727.0</ele>
        <time>2022-11-20T14:09:30.000Z</time>
      </trkpt>
      <trkpt lat="37.08108333" lon="-3.38074833">
        <ele>2727.0</ele>
        <time>2022-11-20T14:09:31.000Z</time>
      </trkpt>
      <trkpt lat="37.08108333" lon="-3.38074833">
        <ele>2727.0</ele>
        <time>2022-11-20T14:09:32.000Z</time>
      </trkpt>
      <trkpt lat="37.08108333" lon="-3.38074667">
        <ele>2727.0</ele>
        <time>2022-11-20T14:09:33.000Z</time>
      </trkpt>
      <trkpt lat="37.081085" lon="-3.38074667">
        <ele>2727.0</ele>
        <time>2022-11-20T14:09:34.000Z</time>
      </trkpt>
      <trkpt lat="37.08109167" lon="-3.38074833">
        <ele>2727.0</ele>
        <time>2022-11-20T14:09:35.000Z</time>
      </trkpt>
      <trkpt lat="37.0811" lon="-3.38075167">
        <ele>2727.0</ele>
        <time>2022-11-20T14:09:36.000Z</time>
      </trkpt>
      <trkpt lat="37.08110833" lon="-3.38075667">
        <ele>2727.0</ele>
        <time>2022-11-20T14:09:37.000Z</time>
      </trkpt>
      <trkpt lat="37.08111833" lon="-3.38076">
        <ele>2726.0</ele>
        <time>2022-11-20T14:09:38.000Z</time>
      </trkpt>
      <trkpt lat="37.08112167" lon="-3.38076167">
        <ele>2726.0</ele>
        <time>2022-11-20T14:09:39.000Z</time>
      </trkpt>
      <trkpt lat="37.08112333" lon="-3.38076333">
        <ele>2726.0</ele>
        <time>2022-11-20T14:09:40.000Z</time>
      </trkpt>
      <trkpt lat="37.08112333" lon="-3.38076333">
        <ele>2726.0</ele>
        <time>2022-11-20T14:09:41.000Z</time>
      </trkpt>
      <trkpt lat="37.08112667" lon="-3.38076167">
        <ele>2726.0</ele>
        <time>2022-11-20T14:09:42.000Z</time>
      </trkpt>
      <trkpt lat="37.08113667" lon="-3.38076167">
        <ele>2726.0</ele>
        <time>2022-11-20T14:09:43.000Z</time>
      </trkpt>
      <trkpt lat="37.08114667" lon="-3.38076333">
        <ele>2726.0</ele>
        <time>2022-11-20T14:09:44.000Z</time>
      </trkpt>
      <trkpt lat="37.08115667" lon="-3.38076333">
        <ele>2726.0</ele>
        <time>2022-11-20T14:09:45.000Z</time>
      </trkpt>
      <trkpt lat="37.08117167" lon="-3.38076167">
        <ele>2725.0</ele>
        <time>2022-11-20T14:09:46.000Z</time>
      </trkpt>
      <trkpt lat="37.08118333" lon="-3.38076333">
        <ele>2725.0</ele>
        <time>2022-11-20T14:09:47.000Z</time>
      </trkpt>
      <trkpt lat="37.08119333" lon="-3.38076833">
        <ele>2725.0</ele>
        <time>2022-11-20T14:09:48.000Z</time>
      </trkpt>
      <trkpt lat="37.08120333" lon="-3.38077333">
        <ele>2725.0</ele>
        <time>2022-11-20T14:09:49.000Z</time>
      </trkpt>
      <trkpt lat="37.08121333" lon="-3.38077667">
        <ele>2724.0</ele>
        <time>2022-11-20T14:09:50.000Z</time>
      </trkpt>
      <trkpt lat="37.081225" lon="-3.38077667">
        <ele>2724.0</ele>
        <time>2022-11-20T14:09:51.000Z</time>
      </trkpt>
      <trkpt lat="37.08123667" lon="-3.38077833">
        <ele>2724.0</ele>
        <time>2022-11-20T14:09:52.000Z</time>
      </trkpt>
      <trkpt lat="37.08125167" lon="-3.38078167">
        <ele>2723.0</ele>
        <time>2022-11-20T14:09:53.000Z</time>
      </trkpt>
      <trkpt lat="37.08126167" lon="-3.38078333">
        <ele>2723.0</ele>
        <time>2022-11-20T14:09:54.000Z</time>
      </trkpt>
      <trkpt lat="37.08127333" lon="-3.380785">
        <ele>2723.0</ele>
        <time>2022-11-20T14:09:55.000Z</time>
      </trkpt>
      <trkpt lat="37.08128667" lon="-3.380785">
        <ele>2722.0</ele>
        <time>2022-11-20T14:09:56.000Z</time>
      </trkpt>
      <trkpt lat="37.0813" lon="-3.38079">
        <ele>2722.0</ele>
        <time>2022-11-20T14:09:57.000Z</time>
      </trkpt>
      <trkpt lat="37.08130667" lon="-3.38079167">
        <ele>2722.0</ele>
        <time>2022-11-20T14:09:58.000Z</time>
      </trkpt>
      <trkpt lat="37.08131" lon="-3.38079333">
        <ele>2722.0</ele>
        <time>2022-11-20T14:09:59.000Z</time>
      </trkpt>
      <trkpt lat="37.08131167" lon="-3.38079333">
        <ele>2722.0</ele>
        <time>2022-11-20T14:10:00.000Z</time>
      </trkpt>
      <trkpt lat="37.08131167" lon="-3.38079167">
        <ele>2722.0</ele>
        <time>2022-11-20T14:10:01.000Z</time>
      </trkpt>
      <trkpt lat="37.081315" lon="-3.38079333">
        <ele>2721.0</ele>
        <time>2022-11-20T14:10:02.000Z</time>
      </trkpt>
      <trkpt lat="37.08132167" lon="-3.38079667">
        <ele>2721.0</ele>
        <time>2022-11-20T14:10:03.000Z</time>
      </trkpt>
      <trkpt lat="37.08132833" lon="-3.38079667">
        <ele>2721.0</ele>
        <time>2022-11-20T14:10:04.000Z</time>
      </trkpt>
      <trkpt lat="37.081335" lon="-3.3808">
        <ele>2721.0</ele>
        <time>2022-11-20T14:10:05.000Z</time>
      </trkpt>
      <trkpt lat="37.08134" lon="-3.38080167">
        <ele>2721.0</ele>
        <time>2022-11-20T14:10:06.000Z</time>
      </trkpt>
      <trkpt lat="37.08134167" lon="-3.38080167">
        <ele>2721.0</ele>
        <time>2022-11-20T14:10:07.000Z</time>
      </trkpt>
      <trkpt lat="37.08135" lon="-3.380805">
        <ele>2720.0</ele>
        <time>2022-11-20T14:10:08.000Z</time>
      </trkpt>
      <trkpt lat="37.08135833" lon="-3.380805">
        <ele>2720.0</ele>
        <time>2022-11-20T14:10:09.000Z</time>
      </trkpt>
      <trkpt lat="37.08136667" lon="-3.38080667">
        <ele>2720.0</ele>
        <time>2022-11-20T14:10:10.000Z</time>
      </trkpt>
      <trkpt lat="37.081375" lon="-3.38081">
        <ele>2720.0</ele>
        <time>2022-11-20T14:10:11.000Z</time>
      </trkpt>
      <trkpt lat="37.08138333" lon="-3.38081333">
        <ele>2720.0</ele>
        <time>2022-11-20T14:10:12.000Z</time>
      </trkpt>
      <trkpt lat="37.08139167" lon="-3.38081833">
        <ele>2719.0</ele>
        <time>2022-11-20T14:10:13.000Z</time>
      </trkpt>
      <trkpt lat="37.0814" lon="-3.38081833">
        <ele>2719.0</ele>
        <time>2022-11-20T14:10:14.000Z</time>
      </trkpt>
      <trkpt lat="37.08140167" lon="-3.38081833">
        <ele>2719.0</ele>
        <time>2022-11-20T14:10:15.000Z</time>
      </trkpt>
      <trkpt lat="37.08140667" lon="-3.38082">
        <ele>2719.0</ele>
        <time>2022-11-20T14:10:16.000Z</time>
      </trkpt>
      <trkpt lat="37.081415" lon="-3.38082333">
        <ele>2719.0</ele>
        <time>2022-11-20T14:10:17.000Z</time>
      </trkpt>
      <trkpt lat="37.08142333" lon="-3.38082667">
        <ele>2718.0</ele>
        <time>2022-11-20T14:10:18.000Z</time>
      </trkpt>
      <trkpt lat="37.081435" lon="-3.380825">
        <ele>2718.0</ele>
        <time>2022-11-20T14:10:19.000Z</time>
      </trkpt>
      <trkpt lat="37.081445" lon="-3.38082333">
        <ele>2718.0</ele>
        <time>2022-11-20T14:10:20.000Z</time>
      </trkpt>
      <trkpt lat="37.08145667" lon="-3.380825">
        <ele>2717.0</ele>
        <time>2022-11-20T14:10:21.000Z</time>
      </trkpt>
      <trkpt lat="37.08146833" lon="-3.380825">
        <ele>2717.0</ele>
        <time>2022-11-20T14:10:22.000Z</time>
      </trkpt>
      <trkpt lat="37.08148167" lon="-3.38082667">
        <ele>2717.0</ele>
        <time>2022-11-20T14:10:23.000Z</time>
      </trkpt>
      <trkpt lat="37.081495" lon="-3.38082333">
        <ele>2717.0</ele>
        <time>2022-11-20T14:10:24.000Z</time>
      </trkpt>
      <trkpt lat="37.08151" lon="-3.38081833">
        <ele>2716.0</ele>
        <time>2022-11-20T14:10:25.000Z</time>
      </trkpt>
      <trkpt lat="37.081525" lon="-3.38082167">
        <ele>2716.0</ele>
        <time>2022-11-20T14:10:26.000Z</time>
      </trkpt>
      <trkpt lat="37.08154167" lon="-3.38082167">
        <ele>2716.0</ele>
        <time>2022-11-20T14:10:27.000Z</time>
      </trkpt>
      <trkpt lat="37.08155333" lon="-3.38082333">
        <ele>2715.0</ele>
        <time>2022-11-20T14:10:28.000Z</time>
      </trkpt>
      <trkpt lat="37.08156833" lon="-3.380825">
        <ele>2715.0</ele>
        <time>2022-11-20T14:10:29.000Z</time>
      </trkpt>
      <trkpt lat="37.08158333" lon="-3.38082667">
        <ele>2715.0</ele>
        <time>2022-11-20T14:10:30.000Z</time>
      </trkpt>
      <trkpt lat="37.08159667" lon="-3.38082833">
        <ele>2714.0</ele>
        <time>2022-11-20T14:10:31.000Z</time>
      </trkpt>
      <trkpt lat="37.08161167" lon="-3.38082667">
        <ele>2714.0</ele>
        <time>2022-11-20T14:10:32.000Z</time>
      </trkpt>
      <trkpt lat="37.081625" lon="-3.38082667">
        <ele>2713.0</ele>
        <time>2022-11-20T14:10:33.000Z</time>
      </trkpt>
      <trkpt lat="37.08164" lon="-3.38082333">
        <ele>2713.0</ele>
        <time>2022-11-20T14:10:34.000Z</time>
      </trkpt>
      <trkpt lat="37.081655" lon="-3.38082167">
        <ele>2713.0</ele>
        <time>2022-11-20T14:10:35.000Z</time>
      </trkpt>
      <trkpt lat="37.08167333" lon="-3.38082333">
        <ele>2712.0</ele>
        <time>2022-11-20T14:10:36.000Z</time>
      </trkpt>
      <trkpt lat="37.08169" lon="-3.38082333">
        <ele>2712.0</ele>
        <time>2022-11-20T14:10:37.000Z</time>
      </trkpt>
      <trkpt lat="37.081705" lon="-3.38082333">
        <ele>2712.0</ele>
        <time>2022-11-20T14:10:38.000Z</time>
      </trkpt>
      <trkpt lat="37.08172333" lon="-3.38082333">
        <ele>2711.0</ele>
        <time>2022-11-20T14:10:39.000Z</time>
      </trkpt>
      <trkpt lat="37.08174333" lon="-3.38082667">
        <ele>2711.0</ele>
        <time>2022-11-20T14:10:40.000Z</time>
      </trkpt>
      <trkpt lat="37.08176167" lon="-3.38083">
        <ele>2710.0</ele>
        <time>2022-11-20T14:10:41.000Z</time>
      </trkpt>
      <trkpt lat="37.08177833" lon="-3.38083167">
        <ele>2710.0</ele>
        <time>2022-11-20T14:10:42.000Z</time>
      </trkpt>
      <trkpt lat="37.08179833" lon="-3.38083167">
        <ele>2709.0</ele>
        <time>2022-11-20T14:10:43.000Z</time>
      </trkpt>
      <trkpt lat="37.08181667" lon="-3.38083">
        <ele>2709.0</ele>
        <time>2022-11-20T14:10:44.000Z</time>
      </trkpt>
      <trkpt lat="37.08183667" lon="-3.38082833">
        <ele>2709.0</ele>
        <time>2022-11-20T14:10:45.000Z</time>
      </trkpt>
      <trkpt lat="37.081855" lon="-3.38082667">
        <ele>2708.0</ele>
        <time>2022-11-20T14:10:46.000Z</time>
      </trkpt>
      <trkpt lat="37.08187667" lon="-3.380825">
        <ele>2708.0</ele>
        <time>2022-11-20T14:10:47.000Z</time>
      </trkpt>
      <trkpt lat="37.08189667" lon="-3.38082333">
        <ele>2707.0</ele>
        <time>2022-11-20T14:10:48.000Z</time>
      </trkpt>
      <trkpt lat="37.08191667" lon="-3.38082167">
        <ele>2707.0</ele>
        <time>2022-11-20T14:10:49.000Z</time>
      </trkpt>
      <trkpt lat="37.08193667" lon="-3.38082667">
        <ele>2706.0</ele>
        <time>2022-11-20T14:10:50.000Z</time>
      </trkpt>
      <trkpt lat="37.081955" lon="-3.380835">
        <ele>2706.0</ele>
        <time>2022-11-20T14:10:51.000Z</time>
      </trkpt>
      <trkpt lat="37.08197167" lon="-3.38084333">
        <ele>2705.0</ele>
        <time>2022-11-20T14:10:52.000Z</time>
      </trkpt>
      <trkpt lat="37.08198833" lon="-3.38084833">
        <ele>2705.0</ele>
        <time>2022-11-20T14:10:53.000Z</time>
      </trkpt>
      <trkpt lat="37.08200167" lon="-3.38085">
        <ele>2705.0</ele>
        <time>2022-11-20T14:10:54.000Z</time>
      </trkpt>
      <trkpt lat="37.08200833" lon="-3.38085">
        <ele>2704.0</ele>
        <time>2022-11-20T14:10:55.000Z</time>
      </trkpt>
      <trkpt lat="37.08201" lon="-3.38085167">
        <ele>2704.0</ele>
        <time>2022-11-20T14:10:56.000Z</time>
      </trkpt>
      <trkpt lat="37.08201" lon="-3.38085167">
        <ele>2704.0</ele>
        <time>2022-11-20T14:10:57.000Z</time>
      </trkpt>
      <trkpt lat="37.08201" lon="-3.38085167">
        <ele>2704.0</ele>
        <time>2022-11-20T14:10:58.000Z</time>
      </trkpt>
      <trkpt lat="37.08201167" lon="-3.38085333">
        <ele>2704.0</ele>
        <time>2022-11-20T14:10:59.000Z</time>
      </trkpt>
      <trkpt lat="37.08201667" lon="-3.380855">
        <ele>2704.0</ele>
        <time>2022-11-20T14:11:00.000Z</time>
      </trkpt>
      <trkpt lat="37.082025" lon="-3.38085667">
        <ele>2703.0</ele>
        <time>2022-11-20T14:11:01.000Z</time>
      </trkpt>
      <trkpt lat="37.082035" lon="-3.38085833">
        <ele>2703.0</ele>
        <time>2022-11-20T14:11:02.000Z</time>
      </trkpt>
      <trkpt lat="37.082045" lon="-3.38086">
        <ele>2703.0</ele>
        <time>2022-11-20T14:11:03.000Z</time>
      </trkpt>
      <trkpt lat="37.082055" lon="-3.38085833">
        <ele>2703.0</ele>
        <time>2022-11-20T14:11:04.000Z</time>
      </trkpt>
      <trkpt lat="37.082065" lon="-3.38086167">
        <ele>2702.0</ele>
        <time>2022-11-20T14:11:05.000Z</time>
      </trkpt>
      <trkpt lat="37.082075" lon="-3.38086167">
        <ele>2702.0</ele>
        <time>2022-11-20T14:11:06.000Z</time>
      </trkpt>
      <trkpt lat="37.08208667" lon="-3.38086333">
        <ele>2702.0</ele>
        <time>2022-11-20T14:11:07.000Z</time>
      </trkpt>
      <trkpt lat="37.08209667" lon="-3.38086667">
        <ele>2701.0</ele>
        <time>2022-11-20T14:11:08.000Z</time>
      </trkpt>
      <trkpt lat="37.08211" lon="-3.38087167">
        <ele>2701.0</ele>
        <time>2022-11-20T14:11:09.000Z</time>
      </trkpt>
      <trkpt lat="37.082125" lon="-3.380875">
        <ele>2701.0</ele>
        <time>2022-11-20T14:11:10.000Z</time>
      </trkpt>
      <trkpt lat="37.08213833" lon="-3.38087667">
        <ele>2700.0</ele>
        <time>2022-11-20T14:11:11.000Z</time>
      </trkpt>
      <trkpt lat="37.08215" lon="-3.38088">
        <ele>2700.0</ele>
        <time>2022-11-20T14:11:12.000Z</time>
      </trkpt>
      <trkpt lat="37.08216167" lon="-3.38088333">
        <ele>2700.0</ele>
        <time>2022-11-20T14:11:13.000Z</time>
      </trkpt>
      <trkpt lat="37.08217167" lon="-3.38088833">
        <ele>2699.0</ele>
        <time>2022-11-20T14:11:14.000Z</time>
      </trkpt>
      <trkpt lat="37.08218167" lon="-3.380895">
        <ele>2699.0</ele>
        <time>2022-11-20T14:11:15.000Z</time>
      </trkpt>
      <trkpt lat="37.08219333" lon="-3.38090333">
        <ele>2699.0</ele>
        <time>2022-11-20T14:11:16.000Z</time>
      </trkpt>
      <trkpt lat="37.08220833" lon="-3.38091">
        <ele>2698.0</ele>
        <time>2022-11-20T14:11:17.000Z</time>
      </trkpt>
      <trkpt lat="37.08222667" lon="-3.38091833">
        <ele>2698.0</ele>
        <time>2022-11-20T14:11:18.000Z</time>
      </trkpt>
      <trkpt lat="37.082245" lon="-3.38092833">
        <ele>2698.0</ele>
        <time>2022-11-20T14:11:19.000Z</time>
      </trkpt>
      <trkpt lat="37.082265" lon="-3.38094">
        <ele>2697.0</ele>
        <time>2022-11-20T14:11:20.000Z</time>
      </trkpt>
      <trkpt lat="37.08228667" lon="-3.38095167">
        <ele>2697.0</ele>
        <time>2022-11-20T14:11:21.000Z</time>
      </trkpt>
      <trkpt lat="37.08230833" lon="-3.38096333">
        <ele>2696.0</ele>
        <time>2022-11-20T14:11:22.000Z</time>
      </trkpt>
      <trkpt lat="37.08233" lon="-3.380975">
        <ele>2696.0</ele>
        <time>2022-11-20T14:11:23.000Z</time>
      </trkpt>
      <trkpt lat="37.08235167" lon="-3.38098167">
        <ele>2695.0</ele>
        <time>2022-11-20T14:11:24.000Z</time>
      </trkpt>
      <trkpt lat="37.08237167" lon="-3.38098833">
        <ele>2695.0</ele>
        <time>2022-11-20T14:11:25.000Z</time>
      </trkpt>
      <trkpt lat="37.08239333" lon="-3.380995">
        <ele>2694.0</ele>
        <time>2022-11-20T14:11:26.000Z</time>
      </trkpt>
      <trkpt lat="37.08241333" lon="-3.38100333">
        <ele>2694.0</ele>
        <time>2022-11-20T14:11:27.000Z</time>
      </trkpt>
      <trkpt lat="37.08243" lon="-3.38100667">
        <ele>2694.0</ele>
        <time>2022-11-20T14:11:28.000Z</time>
      </trkpt>
      <trkpt lat="37.08244833" lon="-3.38100667">
        <ele>2693.0</ele>
        <time>2022-11-20T14:11:29.000Z</time>
      </trkpt>
      <trkpt lat="37.08246833" lon="-3.38100333">
        <ele>2693.0</ele>
        <time>2022-11-20T14:11:30.000Z</time>
      </trkpt>
      <trkpt lat="37.08248667" lon="-3.38100167">
        <ele>2693.0</ele>
        <time>2022-11-20T14:11:31.000Z</time>
      </trkpt>
      <trkpt lat="37.082505" lon="-3.381">
        <ele>2692.0</ele>
        <time>2022-11-20T14:11:32.000Z</time>
      </trkpt>
      <trkpt lat="37.08252" lon="-3.38099833">
        <ele>2692.0</ele>
        <time>2022-11-20T14:11:33.000Z</time>
      </trkpt>
      <trkpt lat="37.08253333" lon="-3.38099833">
        <ele>2692.0</ele>
        <time>2022-11-20T14:11:34.000Z</time>
      </trkpt>
      <trkpt lat="37.08254833" lon="-3.38099833">
        <ele>2691.0</ele>
        <time>2022-11-20T14:11:35.000Z</time>
      </trkpt>
      <trkpt lat="37.08256167" lon="-3.38100167">
        <ele>2691.0</ele>
        <time>2022-11-20T14:11:36.000Z</time>
      </trkpt>
      <trkpt lat="37.082575" lon="-3.381005">
        <ele>2691.0</ele>
        <time>2022-11-20T14:11:37.000Z</time>
      </trkpt>
      <trkpt lat="37.08259" lon="-3.38100833">
        <ele>2690.0</ele>
        <time>2022-11-20T14:11:38.000Z</time>
      </trkpt>
      <trkpt lat="37.08260667" lon="-3.38101167">
        <ele>2690.0</ele>
        <time>2022-11-20T14:11:39.000Z</time>
      </trkpt>
      <trkpt lat="37.08262167" lon="-3.381015">
        <ele>2690.0</ele>
        <time>2022-11-20T14:11:40.000Z</time>
      </trkpt>
      <trkpt lat="37.08263667" lon="-3.381015">
        <ele>2689.0</ele>
        <time>2022-11-20T14:11:41.000Z</time>
      </trkpt>
      <trkpt lat="37.08265167" lon="-3.38101833">
        <ele>2689.0</ele>
        <time>2022-11-20T14:11:42.000Z</time>
      </trkpt>
      <trkpt lat="37.08266833" lon="-3.38102">
        <ele>2689.0</ele>
        <time>2022-11-20T14:11:43.000Z</time>
      </trkpt>
      <trkpt lat="37.08268" lon="-3.38102333">
        <ele>2689.0</ele>
        <time>2022-11-20T14:11:44.000Z</time>
      </trkpt>
      <trkpt lat="37.08269333" lon="-3.381025">
        <ele>2689.0</ele>
        <time>2022-11-20T14:11:45.000Z</time>
      </trkpt>
      <trkpt lat="37.08270667" lon="-3.38102667">
        <ele>2688.0</ele>
        <time>2022-11-20T14:11:46.000Z</time>
      </trkpt>
      <trkpt lat="37.08272" lon="-3.38103167">
        <ele>2688.0</ele>
        <time>2022-11-20T14:11:47.000Z</time>
      </trkpt>
      <trkpt lat="37.082735" lon="-3.38103333">
        <ele>2688.0</ele>
        <time>2022-11-20T14:11:48.000Z</time>
      </trkpt>
      <trkpt lat="37.08275" lon="-3.38103333">
        <ele>2687.0</ele>
        <time>2022-11-20T14:11:49.000Z</time>
      </trkpt>
      <trkpt lat="37.082765" lon="-3.381035">
        <ele>2687.0</ele>
        <time>2022-11-20T14:11:50.000Z</time>
      </trkpt>
      <trkpt lat="37.08278" lon="-3.381035">
        <ele>2687.0</ele>
        <time>2022-11-20T14:11:51.000Z</time>
      </trkpt>
      <trkpt lat="37.082795" lon="-3.381035">
        <ele>2687.0</ele>
        <time>2022-11-20T14:11:52.000Z</time>
      </trkpt>
      <trkpt lat="37.08280667" lon="-3.38103167">
        <ele>2686.0</ele>
        <time>2022-11-20T14:11:53.000Z</time>
      </trkpt>
      <trkpt lat="37.08282167" lon="-3.38102833">
        <ele>2686.0</ele>
        <time>2022-11-20T14:11:54.000Z</time>
      </trkpt>
      <trkpt lat="37.08283333" lon="-3.381025">
        <ele>2686.0</ele>
        <time>2022-11-20T14:11:55.000Z</time>
      </trkpt>
      <trkpt lat="37.08284667" lon="-3.38102">
        <ele>2685.0</ele>
        <time>2022-11-20T14:11:56.000Z</time>
      </trkpt>
      <trkpt lat="37.08286167" lon="-3.381015">
        <ele>2685.0</ele>
        <time>2022-11-20T14:11:57.000Z</time>
      </trkpt>
      <trkpt lat="37.08287667" lon="-3.38101333">
        <ele>2685.0</ele>
        <time>2022-11-20T14:11:58.000Z</time>
      </trkpt>
      <trkpt lat="37.08289167" lon="-3.38101">
        <ele>2685.0</ele>
        <time>2022-11-20T14:11:59.000Z</time>
      </trkpt>
      <trkpt lat="37.08290667" lon="-3.38100667">
        <ele>2684.0</ele>
        <time>2022-11-20T14:12:00.000Z</time>
      </trkpt>
      <trkpt lat="37.08292167" lon="-3.38100667">
        <ele>2684.0</ele>
        <time>2022-11-20T14:12:01.000Z</time>
      </trkpt>
      <trkpt lat="37.082935" lon="-3.38100833">
        <ele>2684.0</ele>
        <time>2022-11-20T14:12:02.000Z</time>
      </trkpt>
      <trkpt lat="37.08294833" lon="-3.38100833">
        <ele>2684.0</ele>
        <time>2022-11-20T14:12:03.000Z</time>
      </trkpt>
      <trkpt lat="37.08296167" lon="-3.38100833">
        <ele>2683.0</ele>
        <time>2022-11-20T14:12:04.000Z</time>
      </trkpt>
      <trkpt lat="37.08297667" lon="-3.38100667">
        <ele>2683.0</ele>
        <time>2022-11-20T14:12:05.000Z</time>
      </trkpt>
      <trkpt lat="37.08299167" lon="-3.38100167">
        <ele>2683.0</ele>
        <time>2022-11-20T14:12:06.000Z</time>
      </trkpt>
      <trkpt lat="37.083005" lon="-3.381">
        <ele>2683.0</ele>
        <time>2022-11-20T14:12:07.000Z</time>
      </trkpt>
      <trkpt lat="37.08301833" lon="-3.381">
        <ele>2682.0</ele>
        <time>2022-11-20T14:12:08.000Z</time>
      </trkpt>
      <trkpt lat="37.08303167" lon="-3.38099833">
        <ele>2682.0</ele>
        <time>2022-11-20T14:12:09.000Z</time>
      </trkpt>
      <trkpt lat="37.083045" lon="-3.38099667">
        <ele>2682.0</ele>
        <time>2022-11-20T14:12:10.000Z</time>
      </trkpt>
      <trkpt lat="37.083055" lon="-3.38099833">
        <ele>2682.0</ele>
        <time>2022-11-20T14:12:11.000Z</time>
      </trkpt>
      <trkpt lat="37.08306667" lon="-3.38100333">
        <ele>2682.0</ele>
        <time>2022-11-20T14:12:12.000Z</time>
      </trkpt>
      <trkpt lat="37.08307333" lon="-3.38100667">
        <ele>2681.0</ele>
        <time>2022-11-20T14:12:13.000Z</time>
      </trkpt>
      <trkpt lat="37.08308167" lon="-3.38100833">
        <ele>2681.0</ele>
        <time>2022-11-20T14:12:14.000Z</time>
      </trkpt>
      <trkpt lat="37.08309333" lon="-3.38101">
        <ele>2681.0</ele>
        <time>2022-11-20T14:12:15.000Z</time>
      </trkpt>
      <trkpt lat="37.083105" lon="-3.38101167">
        <ele>2681.0</ele>
        <time>2022-11-20T14:12:16.000Z</time>
      </trkpt>
      <trkpt lat="37.08311833" lon="-3.38101333">
        <ele>2681.0</ele>
        <time>2022-11-20T14:12:17.000Z</time>
      </trkpt>
      <trkpt lat="37.08313333" lon="-3.381015">
        <ele>2680.0</ele>
        <time>2022-11-20T14:12:18.000Z</time>
      </trkpt>
      <trkpt lat="37.083145" lon="-3.38101667">
        <ele>2680.0</ele>
        <time>2022-11-20T14:12:19.000Z</time>
      </trkpt>
      <trkpt lat="37.08315833" lon="-3.38101833">
        <ele>2680.0</ele>
        <time>2022-11-20T14:12:20.000Z</time>
      </trkpt>
      <trkpt lat="37.08317333" lon="-3.38102167">
        <ele>2680.0</ele>
        <time>2022-11-20T14:12:21.000Z</time>
      </trkpt>
      <trkpt lat="37.08318833" lon="-3.38102667">
        <ele>2680.0</ele>
        <time>2022-11-20T14:12:22.000Z</time>
      </trkpt>
      <trkpt lat="37.0832" lon="-3.38103">
        <ele>2680.0</ele>
        <time>2022-11-20T14:12:23.000Z</time>
      </trkpt>
      <trkpt lat="37.083215" lon="-3.381035">
        <ele>2679.0</ele>
        <time>2022-11-20T14:12:24.000Z</time>
      </trkpt>
      <trkpt lat="37.08322667" lon="-3.38104167">
        <ele>2679.0</ele>
        <time>2022-11-20T14:12:25.000Z</time>
      </trkpt>
      <trkpt lat="37.08324" lon="-3.38104833">
        <ele>2679.0</ele>
        <time>2022-11-20T14:12:26.000Z</time>
      </trkpt>
      <trkpt lat="37.08325333" lon="-3.381055">
        <ele>2679.0</ele>
        <time>2022-11-20T14:12:27.000Z</time>
      </trkpt>
      <trkpt lat="37.08326667" lon="-3.381065">
        <ele>2679.0</ele>
        <time>2022-11-20T14:12:28.000Z</time>
      </trkpt>
      <trkpt lat="37.08327667" lon="-3.38107333">
        <ele>2679.0</ele>
        <time>2022-11-20T14:12:29.000Z</time>
      </trkpt>
      <trkpt lat="37.08329" lon="-3.38108">
        <ele>2679.0</ele>
        <time>2022-11-20T14:12:30.000Z</time>
      </trkpt>
      <trkpt lat="37.08330167" lon="-3.381085">
        <ele>2679.0</ele>
        <time>2022-11-20T14:12:31.000Z</time>
      </trkpt>
      <trkpt lat="37.08331333" lon="-3.38109167">
        <ele>2679.0</ele>
        <time>2022-11-20T14:12:32.000Z</time>
      </trkpt>
      <trkpt lat="37.08332667" lon="-3.3811">
        <ele>2678.0</ele>
        <time>2022-11-20T14:12:33.000Z</time>
      </trkpt>
      <trkpt lat="37.08333833" lon="-3.38110667">
        <ele>2678.0</ele>
        <time>2022-11-20T14:12:34.000Z</time>
      </trkpt>
      <trkpt lat="37.08335167" lon="-3.38111333">
        <ele>2678.0</ele>
        <time>2022-11-20T14:12:35.000Z</time>
      </trkpt>
      <trkpt lat="37.08336167" lon="-3.38112333">
        <ele>2678.0</ele>
        <time>2022-11-20T14:12:36.000Z</time>
      </trkpt>
      <trkpt lat="37.08337333" lon="-3.38113167">
        <ele>2678.0</ele>
        <time>2022-11-20T14:12:37.000Z</time>
      </trkpt>
      <trkpt lat="37.08338333" lon="-3.38113833">
        <ele>2678.0</ele>
        <time>2022-11-20T14:12:38.000Z</time>
      </trkpt>
      <trkpt lat="37.083395" lon="-3.381145">
        <ele>2678.0</ele>
        <time>2022-11-20T14:12:39.000Z</time>
      </trkpt>
      <trkpt lat="37.08340667" lon="-3.38115333">
        <ele>2678.0</ele>
        <time>2022-11-20T14:12:40.000Z</time>
      </trkpt>
      <trkpt lat="37.08341667" lon="-3.38116">
        <ele>2677.0</ele>
        <time>2022-11-20T14:12:41.000Z</time>
      </trkpt>
      <trkpt lat="37.08342667" lon="-3.38116667">
        <ele>2677.0</ele>
        <time>2022-11-20T14:12:42.000Z</time>
      </trkpt>
      <trkpt lat="37.08344" lon="-3.38117167">
        <ele>2677.0</ele>
        <time>2022-11-20T14:12:43.000Z</time>
      </trkpt>
      <trkpt lat="37.08345333" lon="-3.38117667">
        <ele>2677.0</ele>
        <time>2022-11-20T14:12:44.000Z</time>
      </trkpt>
      <trkpt lat="37.08346667" lon="-3.38118333">
        <ele>2677.0</ele>
        <time>2022-11-20T14:12:45.000Z</time>
      </trkpt>
      <trkpt lat="37.08347833" lon="-3.38119">
        <ele>2677.0</ele>
        <time>2022-11-20T14:12:46.000Z</time>
      </trkpt>
      <trkpt lat="37.08349167" lon="-3.38119667">
        <ele>2677.0</ele>
        <time>2022-11-20T14:12:47.000Z</time>
      </trkpt>
      <trkpt lat="37.08350333" lon="-3.381205">
        <ele>2677.0</ele>
        <time>2022-11-20T14:12:48.000Z</time>
      </trkpt>
      <trkpt lat="37.083515" lon="-3.38121167">
        <ele>2677.0</ele>
        <time>2022-11-20T14:12:49.000Z</time>
      </trkpt>
      <trkpt lat="37.08352833" lon="-3.38121833">
        <ele>2676.0</ele>
        <time>2022-11-20T14:12:50.000Z</time>
      </trkpt>
      <trkpt lat="37.08354167" lon="-3.38122667">
        <ele>2676.0</ele>
        <time>2022-11-20T14:12:51.000Z</time>
      </trkpt>
      <trkpt lat="37.08355333" lon="-3.38123333">
        <ele>2676.0</ele>
        <time>2022-11-20T14:12:52.000Z</time>
      </trkpt>
      <trkpt lat="37.083565" lon="-3.38123833">
        <ele>2676.0</ele>
        <time>2022-11-20T14:12:53.000Z</time>
      </trkpt>
      <trkpt lat="37.08357667" lon="-3.38124333">
        <ele>2676.0</ele>
        <time>2022-11-20T14:12:54.000Z</time>
      </trkpt>
      <trkpt lat="37.08358667" lon="-3.381245">
        <ele>2675.0</ele>
        <time>2022-11-20T14:12:55.000Z</time>
      </trkpt>
      <trkpt lat="37.083595" lon="-3.38124833">
        <ele>2675.0</ele>
        <time>2022-11-20T14:12:56.000Z</time>
      </trkpt>
      <trkpt lat="37.08360167" lon="-3.38125167">
        <ele>2675.0</ele>
        <time>2022-11-20T14:12:57.000Z</time>
      </trkpt>
      <trkpt lat="37.08361167" lon="-3.381255">
        <ele>2675.0</ele>
        <time>2022-11-20T14:12:58.000Z</time>
      </trkpt>
      <trkpt lat="37.08362167" lon="-3.38126">
        <ele>2675.0</ele>
        <time>2022-11-20T14:12:59.000Z</time>
      </trkpt>
      <trkpt lat="37.08363333" lon="-3.38126333">
        <ele>2674.0</ele>
        <time>2022-11-20T14:13:00.000Z</time>
      </trkpt>
      <trkpt lat="37.08364333" lon="-3.381265">
        <ele>2674.0</ele>
        <time>2022-11-20T14:13:01.000Z</time>
      </trkpt>
      <trkpt lat="37.083655" lon="-3.38127167">
        <ele>2674.0</ele>
        <time>2022-11-20T14:13:02.000Z</time>
      </trkpt>
      <trkpt lat="37.083665" lon="-3.381275">
        <ele>2674.0</ele>
        <time>2022-11-20T14:13:03.000Z</time>
      </trkpt>
      <trkpt lat="37.083675" lon="-3.381275">
        <ele>2673.0</ele>
        <time>2022-11-20T14:13:04.000Z</time>
      </trkpt>
      <trkpt lat="37.08368833" lon="-3.381275">
        <ele>2673.0</ele>
        <time>2022-11-20T14:13:05.000Z</time>
      </trkpt>
      <trkpt lat="37.08370167" lon="-3.38127667">
        <ele>2673.0</ele>
        <time>2022-11-20T14:13:06.000Z</time>
      </trkpt>
      <trkpt lat="37.08371333" lon="-3.38127833">
        <ele>2673.0</ele>
        <time>2022-11-20T14:13:07.000Z</time>
      </trkpt>
      <trkpt lat="37.083725" lon="-3.381275">
        <ele>2672.0</ele>
        <time>2022-11-20T14:13:08.000Z</time>
      </trkpt>
      <trkpt lat="37.08373833" lon="-3.38127167">
        <ele>2672.0</ele>
        <time>2022-11-20T14:13:09.000Z</time>
      </trkpt>
      <trkpt lat="37.08375167" lon="-3.38127">
        <ele>2672.0</ele>
        <time>2022-11-20T14:13:10.000Z</time>
      </trkpt>
      <trkpt lat="37.083765" lon="-3.38126833">
        <ele>2672.0</ele>
        <time>2022-11-20T14:13:11.000Z</time>
      </trkpt>
      <trkpt lat="37.08377833" lon="-3.381265">
        <ele>2672.0</ele>
        <time>2022-11-20T14:13:12.000Z</time>
      </trkpt>
      <trkpt lat="37.08379" lon="-3.38126833">
        <ele>2671.0</ele>
        <time>2022-11-20T14:13:13.000Z</time>
      </trkpt>
      <trkpt lat="37.0838" lon="-3.38127333">
        <ele>2671.0</ele>
        <time>2022-11-20T14:13:14.000Z</time>
      </trkpt>
      <trkpt lat="37.083805" lon="-3.381275">
        <ele>2671.0</ele>
        <time>2022-11-20T14:13:15.000Z</time>
      </trkpt>
      <trkpt lat="37.08381" lon="-3.381275">
        <ele>2671.0</ele>
        <time>2022-11-20T14:13:16.000Z</time>
      </trkpt>
      <trkpt lat="37.08381833" lon="-3.38127667">
        <ele>2671.0</ele>
        <time>2022-11-20T14:13:17.000Z</time>
      </trkpt>
      <trkpt lat="37.08383" lon="-3.38127833">
        <ele>2671.0</ele>
        <time>2022-11-20T14:13:18.000Z</time>
      </trkpt>
      <trkpt lat="37.08384167" lon="-3.38128333">
        <ele>2670.0</ele>
        <time>2022-11-20T14:13:19.000Z</time>
      </trkpt>
      <trkpt lat="37.08385333" lon="-3.38129">
        <ele>2670.0</ele>
        <time>2022-11-20T14:13:20.000Z</time>
      </trkpt>
      <trkpt lat="37.083865" lon="-3.38129833">
        <ele>2670.0</ele>
        <time>2022-11-20T14:13:21.000Z</time>
      </trkpt>
      <trkpt lat="37.08387667" lon="-3.38130833">
        <ele>2670.0</ele>
        <time>2022-11-20T14:13:22.000Z</time>
      </trkpt>
      <trkpt lat="37.08388667" lon="-3.38132">
        <ele>2669.0</ele>
        <time>2022-11-20T14:13:23.000Z</time>
      </trkpt>
      <trkpt lat="37.0839" lon="-3.381335">
        <ele>2669.0</ele>
        <time>2022-11-20T14:13:24.000Z</time>
      </trkpt>
      <trkpt lat="37.08391167" lon="-3.38134833">
        <ele>2669.0</ele>
        <time>2022-11-20T14:13:25.000Z</time>
      </trkpt>
      <trkpt lat="37.08392333" lon="-3.38135667">
        <ele>2669.0</ele>
        <time>2022-11-20T14:13:26.000Z</time>
      </trkpt>
      <trkpt lat="37.08393333" lon="-3.38136">
        <ele>2669.0</ele>
        <time>2022-11-20T14:13:27.000Z</time>
      </trkpt>
      <trkpt lat="37.083945" lon="-3.38136333">
        <ele>2669.0</ele>
        <time>2022-11-20T14:13:28.000Z</time>
      </trkpt>
      <trkpt lat="37.083955" lon="-3.381365">
        <ele>2668.0</ele>
        <time>2022-11-20T14:13:29.000Z</time>
      </trkpt>
      <trkpt lat="37.08396667" lon="-3.38136167">
        <ele>2668.0</ele>
        <time>2022-11-20T14:13:30.000Z</time>
      </trkpt>
      <trkpt lat="37.083975" lon="-3.38135667">
        <ele>2668.0</ele>
        <time>2022-11-20T14:13:31.000Z</time>
      </trkpt>
      <trkpt lat="37.08398167" lon="-3.38135">
        <ele>2668.0</ele>
        <time>2022-11-20T14:13:32.000Z</time>
      </trkpt>
      <trkpt lat="37.08398833" lon="-3.381345">
        <ele>2668.0</ele>
        <time>2022-11-20T14:13:33.000Z</time>
      </trkpt>
      <trkpt lat="37.08399" lon="-3.38134333">
        <ele>2668.0</ele>
        <time>2022-11-20T14:13:34.000Z</time>
      </trkpt>
      <trkpt lat="37.08399" lon="-3.38134333">
        <ele>2668.0</ele>
        <time>2022-11-20T14:13:35.000Z</time>
      </trkpt>
      <trkpt lat="37.08399167" lon="-3.38134167">
        <ele>2668.0</ele>
        <time>2022-11-20T14:13:36.000Z</time>
      </trkpt>
      <trkpt lat="37.08399667" lon="-3.381335">
        <ele>2668.0</ele>
        <time>2022-11-20T14:13:37.000Z</time>
      </trkpt>
      <trkpt lat="37.08400667" lon="-3.38133">
        <ele>2667.0</ele>
        <time>2022-11-20T14:13:38.000Z</time>
      </trkpt>
      <trkpt lat="37.08401833" lon="-3.38132333">
        <ele>2667.0</ele>
        <time>2022-11-20T14:13:39.000Z</time>
      </trkpt>
      <trkpt lat="37.08403" lon="-3.38131667">
        <ele>2667.0</ele>
        <time>2022-11-20T14:13:40.000Z</time>
      </trkpt>
      <trkpt lat="37.08404167" lon="-3.38131">
        <ele>2667.0</ele>
        <time>2022-11-20T14:13:41.000Z</time>
      </trkpt>
      <trkpt lat="37.08405333" lon="-3.381305">
        <ele>2667.0</ele>
        <time>2022-11-20T14:13:42.000Z</time>
      </trkpt>
      <trkpt lat="37.08406333" lon="-3.38130167">
        <ele>2667.0</ele>
        <time>2022-11-20T14:13:43.000Z</time>
      </trkpt>
      <trkpt lat="37.08407333" lon="-3.38129833">
        <ele>2667.0</ele>
        <time>2022-11-20T14:13:44.000Z</time>
      </trkpt>
      <trkpt lat="37.08408" lon="-3.38129333">
        <ele>2667.0</ele>
        <time>2022-11-20T14:13:45.000Z</time>
      </trkpt>
      <trkpt lat="37.08408833" lon="-3.38129">
        <ele>2667.0</ele>
        <time>2022-11-20T14:13:46.000Z</time>
      </trkpt>
      <trkpt lat="37.08409333" lon="-3.38128333">
        <ele>2667.0</ele>
        <time>2022-11-20T14:13:47.000Z</time>
      </trkpt>
      <trkpt lat="37.08410167" lon="-3.381275">
        <ele>2667.0</ele>
        <time>2022-11-20T14:13:48.000Z</time>
      </trkpt>
      <trkpt lat="37.08410833" lon="-3.381265">
        <ele>2667.0</ele>
        <time>2022-11-20T14:13:49.000Z</time>
      </trkpt>
      <trkpt lat="37.084115" lon="-3.38125167">
        <ele>2667.0</ele>
        <time>2022-11-20T14:13:50.000Z</time>
      </trkpt>
      <trkpt lat="37.08412167" lon="-3.38124">
        <ele>2666.0</ele>
        <time>2022-11-20T14:13:51.000Z</time>
      </trkpt>
      <trkpt lat="37.08412833" lon="-3.38123">
        <ele>2666.0</ele>
        <time>2022-11-20T14:13:52.000Z</time>
      </trkpt>
      <trkpt lat="37.08414" lon="-3.38122">
        <ele>2666.0</ele>
        <time>2022-11-20T14:13:53.000Z</time>
      </trkpt>
      <trkpt lat="37.08415" lon="-3.38121167">
        <ele>2666.0</ele>
        <time>2022-11-20T14:13:54.000Z</time>
      </trkpt>
      <trkpt lat="37.08416" lon="-3.38120333">
        <ele>2666.0</ele>
        <time>2022-11-20T14:13:55.000Z</time>
      </trkpt>
      <trkpt lat="37.08417" lon="-3.38119333">
        <ele>2666.0</ele>
        <time>2022-11-20T14:13:56.000Z</time>
      </trkpt>
      <trkpt lat="37.08418167" lon="-3.38118333">
        <ele>2666.0</ele>
        <time>2022-11-20T14:13:57.000Z</time>
      </trkpt>
      <trkpt lat="37.08419333" lon="-3.38117667">
        <ele>2666.0</ele>
        <time>2022-11-20T14:13:58.000Z</time>
      </trkpt>
      <trkpt lat="37.084205" lon="-3.381175">
        <ele>2666.0</ele>
        <time>2022-11-20T14:13:59.000Z</time>
      </trkpt>
      <trkpt lat="37.08421667" lon="-3.38117333">
        <ele>2666.0</ele>
        <time>2022-11-20T14:14:00.000Z</time>
      </trkpt>
      <trkpt lat="37.08422833" lon="-3.38117167">
        <ele>2666.0</ele>
        <time>2022-11-20T14:14:01.000Z</time>
      </trkpt>
      <trkpt lat="37.08424" lon="-3.38116833">
        <ele>2666.0</ele>
        <time>2022-11-20T14:14:02.000Z</time>
      </trkpt>
      <trkpt lat="37.08425" lon="-3.38116333">
        <ele>2666.0</ele>
        <time>2022-11-20T14:14:03.000Z</time>
      </trkpt>
      <trkpt lat="37.08426" lon="-3.38115667">
        <ele>2665.0</ele>
        <time>2022-11-20T14:14:04.000Z</time>
      </trkpt>
      <trkpt lat="37.08427" lon="-3.38114833">
        <ele>2665.0</ele>
        <time>2022-11-20T14:14:05.000Z</time>
      </trkpt>
      <trkpt lat="37.08428167" lon="-3.38114167">
        <ele>2665.0</ele>
        <time>2022-11-20T14:14:06.000Z</time>
      </trkpt>
      <trkpt lat="37.08429333" lon="-3.38113667">
        <ele>2665.0</ele>
        <time>2022-11-20T14:14:07.000Z</time>
      </trkpt>
      <trkpt lat="37.084305" lon="-3.38113167">
        <ele>2665.0</ele>
        <time>2022-11-20T14:14:08.000Z</time>
      </trkpt>
      <trkpt lat="37.08431667" lon="-3.381125">
        <ele>2665.0</ele>
        <time>2022-11-20T14:14:09.000Z</time>
      </trkpt>
      <trkpt lat="37.08432833" lon="-3.38112167">
        <ele>2665.0</ele>
        <time>2022-11-20T14:14:10.000Z</time>
      </trkpt>
      <trkpt lat="37.08434167" lon="-3.38111833">
        <ele>2665.0</ele>
        <time>2022-11-20T14:14:11.000Z</time>
      </trkpt>
      <trkpt lat="37.08435333" lon="-3.38111333">
        <ele>2665.0</ele>
        <time>2022-11-20T14:14:12.000Z</time>
      </trkpt>
      <trkpt lat="37.084365" lon="-3.38111">
        <ele>2665.0</ele>
        <time>2022-11-20T14:14:13.000Z</time>
      </trkpt>
      <trkpt lat="37.08438" lon="-3.38110667">
        <ele>2665.0</ele>
        <time>2022-11-20T14:14:14.000Z</time>
      </trkpt>
      <trkpt lat="37.08439333" lon="-3.38110167">
        <ele>2665.0</ele>
        <time>2022-11-20T14:14:15.000Z</time>
      </trkpt>
      <trkpt lat="37.08440667" lon="-3.38109833">
        <ele>2665.0</ele>
        <time>2022-11-20T14:14:16.000Z</time>
      </trkpt>
      <trkpt lat="37.08442" lon="-3.381095">
        <ele>2665.0</ele>
        <time>2022-11-20T14:14:17.000Z</time>
      </trkpt>
      <trkpt lat="37.08443333" lon="-3.38109333">
        <ele>2665.0</ele>
        <time>2022-11-20T14:14:18.000Z</time>
      </trkpt>
      <trkpt lat="37.08444667" lon="-3.38109167">
        <ele>2664.0</ele>
        <time>2022-11-20T14:14:19.000Z</time>
      </trkpt>
      <trkpt lat="37.08445833" lon="-3.38109">
        <ele>2664.0</ele>
        <time>2022-11-20T14:14:20.000Z</time>
      </trkpt>
      <trkpt lat="37.08447167" lon="-3.38109167">
        <ele>2664.0</ele>
        <time>2022-11-20T14:14:21.000Z</time>
      </trkpt>
      <trkpt lat="37.08448167" lon="-3.38109333">
        <ele>2664.0</ele>
        <time>2022-11-20T14:14:22.000Z</time>
      </trkpt>
      <trkpt lat="37.08449" lon="-3.38109333">
        <ele>2664.0</ele>
        <time>2022-11-20T14:14:23.000Z</time>
      </trkpt>
      <trkpt lat="37.08449833" lon="-3.381095">
        <ele>2664.0</ele>
        <time>2022-11-20T14:14:24.000Z</time>
      </trkpt>
      <trkpt lat="37.08450833" lon="-3.38109333">
        <ele>2664.0</ele>
        <time>2022-11-20T14:14:25.000Z</time>
      </trkpt>
      <trkpt lat="37.08452167" lon="-3.381095">
        <ele>2664.0</ele>
        <time>2022-11-20T14:14:26.000Z</time>
      </trkpt>
      <trkpt lat="37.08453333" lon="-3.38109667">
        <ele>2664.0</ele>
        <time>2022-11-20T14:14:27.000Z</time>
      </trkpt>
      <trkpt lat="37.08454667" lon="-3.381095">
        <ele>2664.0</ele>
        <time>2022-11-20T14:14:28.000Z</time>
      </trkpt>
      <trkpt lat="37.08456" lon="-3.381095">
        <ele>2664.0</ele>
        <time>2022-11-20T14:14:29.000Z</time>
      </trkpt>
      <trkpt lat="37.08457167" lon="-3.38109667">
        <ele>2664.0</ele>
        <time>2022-11-20T14:14:30.000Z</time>
      </trkpt>
      <trkpt lat="37.08458333" lon="-3.38110167">
        <ele>2664.0</ele>
        <time>2022-11-20T14:14:31.000Z</time>
      </trkpt>
      <trkpt lat="37.08459667" lon="-3.381105">
        <ele>2664.0</ele>
        <time>2022-11-20T14:14:32.000Z</time>
      </trkpt>
      <trkpt lat="37.08461" lon="-3.38111">
        <ele>2664.0</ele>
        <time>2022-11-20T14:14:33.000Z</time>
      </trkpt>
      <trkpt lat="37.08462333" lon="-3.381115">
        <ele>2664.0</ele>
        <time>2022-11-20T14:14:34.000Z</time>
      </trkpt>
      <trkpt lat="37.08463667" lon="-3.38111833">
        <ele>2664.0</ele>
        <time>2022-11-20T14:14:35.000Z</time>
      </trkpt>
      <trkpt lat="37.08465" lon="-3.38112333">
        <ele>2664.0</ele>
        <time>2022-11-20T14:14:36.000Z</time>
      </trkpt>
      <trkpt lat="37.08466167" lon="-3.38113">
        <ele>2664.0</ele>
        <time>2022-11-20T14:14:37.000Z</time>
      </trkpt>
      <trkpt lat="37.084675" lon="-3.38113667">
        <ele>2664.0</ele>
        <time>2022-11-20T14:14:38.000Z</time>
      </trkpt>
      <trkpt lat="37.08468833" lon="-3.38114333">
        <ele>2664.0</ele>
        <time>2022-11-20T14:14:39.000Z</time>
      </trkpt>
      <trkpt lat="37.08470167" lon="-3.38115">
        <ele>2663.0</ele>
        <time>2022-11-20T14:14:40.000Z</time>
      </trkpt>
      <trkpt lat="37.084715" lon="-3.38115667">
        <ele>2663.0</ele>
        <time>2022-11-20T14:14:41.000Z</time>
      </trkpt>
      <trkpt lat="37.08472833" lon="-3.38116167">
        <ele>2663.0</ele>
        <time>2022-11-20T14:14:42.000Z</time>
      </trkpt>
      <trkpt lat="37.08474" lon="-3.38116833">
        <ele>2663.0</ele>
        <time>2022-11-20T14:14:43.000Z</time>
      </trkpt>
      <trkpt lat="37.08475333" lon="-3.381175">
        <ele>2663.0</ele>
        <time>2022-11-20T14:14:44.000Z</time>
      </trkpt>
      <trkpt lat="37.084765" lon="-3.38118">
        <ele>2663.0</ele>
        <time>2022-11-20T14:14:45.000Z</time>
      </trkpt>
      <trkpt lat="37.08477667" lon="-3.38118833">
        <ele>2663.0</ele>
        <time>2022-11-20T14:14:46.000Z</time>
      </trkpt>
      <trkpt lat="37.08478667" lon="-3.38119667">
        <ele>2663.0</ele>
        <time>2022-11-20T14:14:47.000Z</time>
      </trkpt>
      <trkpt lat="37.08479833" lon="-3.381205">
        <ele>2663.0</ele>
        <time>2022-11-20T14:14:48.000Z</time>
      </trkpt>
      <trkpt lat="37.08481" lon="-3.38121333">
        <ele>2663.0</ele>
        <time>2022-11-20T14:14:49.000Z</time>
      </trkpt>
      <trkpt lat="37.08482167" lon="-3.381225">
        <ele>2663.0</ele>
        <time>2022-11-20T14:14:50.000Z</time>
      </trkpt>
      <trkpt lat="37.08483" lon="-3.38123667">
        <ele>2663.0</ele>
        <time>2022-11-20T14:14:51.000Z</time>
      </trkpt>
      <trkpt lat="37.08484" lon="-3.38124833">
        <ele>2663.0</ele>
        <time>2022-11-20T14:14:52.000Z</time>
      </trkpt>
      <trkpt lat="37.08484667" lon="-3.38126333">
        <ele>2662.0</ele>
        <time>2022-11-20T14:14:53.000Z</time>
      </trkpt>
      <trkpt lat="37.08485333" lon="-3.38127667">
        <ele>2662.0</ele>
        <time>2022-11-20T14:14:54.000Z</time>
      </trkpt>
      <trkpt lat="37.08486" lon="-3.38129">
        <ele>2662.0</ele>
        <time>2022-11-20T14:14:55.000Z</time>
      </trkpt>
      <trkpt lat="37.08486667" lon="-3.381305">
        <ele>2662.0</ele>
        <time>2022-11-20T14:14:56.000Z</time>
      </trkpt>
      <trkpt lat="37.08487333" lon="-3.38132167">
        <ele>2662.0</ele>
        <time>2022-11-20T14:14:57.000Z</time>
      </trkpt>
      <trkpt lat="37.08487833" lon="-3.38133667">
        <ele>2662.0</ele>
        <time>2022-11-20T14:14:58.000Z</time>
      </trkpt>
      <trkpt lat="37.08488333" lon="-3.38135167">
        <ele>2662.0</ele>
        <time>2022-11-20T14:14:59.000Z</time>
      </trkpt>
      <trkpt lat="37.08488833" lon="-3.38136667">
        <ele>2662.0</ele>
        <time>2022-11-20T14:15:00.000Z</time>
      </trkpt>
      <trkpt lat="37.08489167" lon="-3.38138333">
        <ele>2662.0</ele>
        <time>2022-11-20T14:15:01.000Z</time>
      </trkpt>
      <trkpt lat="37.08489667" lon="-3.38139833">
        <ele>2661.0</ele>
        <time>2022-11-20T14:15:02.000Z</time>
      </trkpt>
      <trkpt lat="37.08490167" lon="-3.381415">
        <ele>2661.0</ele>
        <time>2022-11-20T14:15:03.000Z</time>
      </trkpt>
      <trkpt lat="37.084905" lon="-3.38143167">
        <ele>2661.0</ele>
        <time>2022-11-20T14:15:04.000Z</time>
      </trkpt>
      <trkpt lat="37.08491" lon="-3.38144833">
        <ele>2661.0</ele>
        <time>2022-11-20T14:15:05.000Z</time>
      </trkpt>
      <trkpt lat="37.084915" lon="-3.38146167">
        <ele>2661.0</ele>
        <time>2022-11-20T14:15:06.000Z</time>
      </trkpt>
      <trkpt lat="37.08492167" lon="-3.381475">
        <ele>2661.0</ele>
        <time>2022-11-20T14:15:07.000Z</time>
      </trkpt>
      <trkpt lat="37.08492667" lon="-3.38149">
        <ele>2661.0</ele>
        <time>2022-11-20T14:15:08.000Z</time>
      </trkpt>
      <trkpt lat="37.08493167" lon="-3.38150333">
        <ele>2661.0</ele>
        <time>2022-11-20T14:15:09.000Z</time>
      </trkpt>
      <trkpt lat="37.084935" lon="-3.38151667">
        <ele>2661.0</ele>
        <time>2022-11-20T14:15:10.000Z</time>
      </trkpt>
      <trkpt lat="37.08494" lon="-3.38152833">
        <ele>2661.0</ele>
        <time>2022-11-20T14:15:11.000Z</time>
      </trkpt>
      <trkpt lat="37.084945" lon="-3.38154167">
        <ele>2661.0</ele>
        <time>2022-11-20T14:15:12.000Z</time>
      </trkpt>
      <trkpt lat="37.08495" lon="-3.381555">
        <ele>2661.0</ele>
        <time>2022-11-20T14:15:13.000Z</time>
      </trkpt>
      <trkpt lat="37.08495667" lon="-3.38157">
        <ele>2660.0</ele>
        <time>2022-11-20T14:15:14.000Z</time>
      </trkpt>
      <trkpt lat="37.08496167" lon="-3.38158333">
        <ele>2660.0</ele>
        <time>2022-11-20T14:15:15.000Z</time>
      </trkpt>
      <trkpt lat="37.08496667" lon="-3.38159833">
        <ele>2660.0</ele>
        <time>2022-11-20T14:15:16.000Z</time>
      </trkpt>
      <trkpt lat="37.08497167" lon="-3.381615">
        <ele>2660.0</ele>
        <time>2022-11-20T14:15:17.000Z</time>
      </trkpt>
      <trkpt lat="37.084975" lon="-3.38163">
        <ele>2660.0</ele>
        <time>2022-11-20T14:15:18.000Z</time>
      </trkpt>
      <trkpt lat="37.08497833" lon="-3.38164667">
        <ele>2660.0</ele>
        <time>2022-11-20T14:15:19.000Z</time>
      </trkpt>
      <trkpt lat="37.08498333" lon="-3.38166">
        <ele>2660.0</ele>
        <time>2022-11-20T14:15:20.000Z</time>
      </trkpt>
      <trkpt lat="37.08499167" lon="-3.38167333">
        <ele>2660.0</ele>
        <time>2022-11-20T14:15:21.000Z</time>
      </trkpt>
      <trkpt lat="37.08500167" lon="-3.381685">
        <ele>2660.0</ele>
        <time>2022-11-20T14:15:22.000Z</time>
      </trkpt>
      <trkpt lat="37.08501" lon="-3.38169833">
        <ele>2660.0</ele>
        <time>2022-11-20T14:15:23.000Z</time>
      </trkpt>
      <trkpt lat="37.08502" lon="-3.38170833">
        <ele>2659.0</ele>
        <time>2022-11-20T14:15:24.000Z</time>
      </trkpt>
      <trkpt lat="37.08503333" lon="-3.38171833">
        <ele>2659.0</ele>
        <time>2022-11-20T14:15:25.000Z</time>
      </trkpt>
      <trkpt lat="37.08504833" lon="-3.38172833">
        <ele>2659.0</ele>
        <time>2022-11-20T14:15:26.000Z</time>
      </trkpt>
      <trkpt lat="37.08506" lon="-3.38173667">
        <ele>2659.0</ele>
        <time>2022-11-20T14:15:27.000Z</time>
      </trkpt>
      <trkpt lat="37.08507333" lon="-3.38174667">
        <ele>2659.0</ele>
        <time>2022-11-20T14:15:28.000Z</time>
      </trkpt>
      <trkpt lat="37.085085" lon="-3.38175333">
        <ele>2659.0</ele>
        <time>2022-11-20T14:15:29.000Z</time>
      </trkpt>
      <trkpt lat="37.08509833" lon="-3.38176167">
        <ele>2659.0</ele>
        <time>2022-11-20T14:15:30.000Z</time>
      </trkpt>
      <trkpt lat="37.08511" lon="-3.38176833">
        <ele>2659.0</ele>
        <time>2022-11-20T14:15:31.000Z</time>
      </trkpt>
      <trkpt lat="37.08512333" lon="-3.38177333">
        <ele>2659.0</ele>
        <time>2022-11-20T14:15:32.000Z</time>
      </trkpt>
      <trkpt lat="37.08513667" lon="-3.38177833">
        <ele>2659.0</ele>
        <time>2022-11-20T14:15:33.000Z</time>
      </trkpt>
      <trkpt lat="37.08514833" lon="-3.38178167">
        <ele>2659.0</ele>
        <time>2022-11-20T14:15:34.000Z</time>
      </trkpt>
      <trkpt lat="37.08516167" lon="-3.38178333">
        <ele>2659.0</ele>
        <time>2022-11-20T14:15:35.000Z</time>
      </trkpt>
      <trkpt lat="37.085175" lon="-3.38178333">
        <ele>2659.0</ele>
        <time>2022-11-20T14:15:36.000Z</time>
      </trkpt>
      <trkpt lat="37.08518833" lon="-3.381785">
        <ele>2659.0</ele>
        <time>2022-11-20T14:15:37.000Z</time>
      </trkpt>
      <trkpt lat="37.08520167" lon="-3.38178667">
        <ele>2658.0</ele>
        <time>2022-11-20T14:15:38.000Z</time>
      </trkpt>
      <trkpt lat="37.08521667" lon="-3.38178667">
        <ele>2658.0</ele>
        <time>2022-11-20T14:15:39.000Z</time>
      </trkpt>
      <trkpt lat="37.08523" lon="-3.381785">
        <ele>2658.0</ele>
        <time>2022-11-20T14:15:40.000Z</time>
      </trkpt>
      <trkpt lat="37.08524333" lon="-3.38178333">
        <ele>2658.0</ele>
        <time>2022-11-20T14:15:41.000Z</time>
      </trkpt>
      <trkpt lat="37.08525667" lon="-3.38178">
        <ele>2658.0</ele>
        <time>2022-11-20T14:15:42.000Z</time>
      </trkpt>
      <trkpt lat="37.08527" lon="-3.381775">
        <ele>2658.0</ele>
        <time>2022-11-20T14:15:43.000Z</time>
      </trkpt>
      <trkpt lat="37.08528167" lon="-3.38176833">
        <ele>2658.0</ele>
        <time>2022-11-20T14:15:44.000Z</time>
      </trkpt>
      <trkpt lat="37.08529167" lon="-3.38176167">
        <ele>2658.0</ele>
        <time>2022-11-20T14:15:45.000Z</time>
      </trkpt>
      <trkpt lat="37.08530333" lon="-3.38175333">
        <ele>2657.0</ele>
        <time>2022-11-20T14:15:46.000Z</time>
      </trkpt>
      <trkpt lat="37.085315" lon="-3.381745">
        <ele>2657.0</ele>
        <time>2022-11-20T14:15:47.000Z</time>
      </trkpt>
      <trkpt lat="37.08532667" lon="-3.38173667">
        <ele>2657.0</ele>
        <time>2022-11-20T14:15:48.000Z</time>
      </trkpt>
      <trkpt lat="37.08533667" lon="-3.38172667">
        <ele>2657.0</ele>
        <time>2022-11-20T14:15:49.000Z</time>
      </trkpt>
      <trkpt lat="37.08534833" lon="-3.38171833">
        <ele>2657.0</ele>
        <time>2022-11-20T14:15:50.000Z</time>
      </trkpt>
      <trkpt lat="37.08536" lon="-3.38170833">
        <ele>2657.0</ele>
        <time>2022-11-20T14:15:51.000Z</time>
      </trkpt>
      <trkpt lat="37.085365" lon="-3.38169667">
        <ele>2657.0</ele>
        <time>2022-11-20T14:15:52.000Z</time>
      </trkpt>
      <trkpt lat="37.08537333" lon="-3.381685">
        <ele>2656.0</ele>
        <time>2022-11-20T14:15:53.000Z</time>
      </trkpt>
      <trkpt lat="37.08538" lon="-3.38167167">
        <ele>2656.0</ele>
        <time>2022-11-20T14:15:54.000Z</time>
      </trkpt>
      <trkpt lat="37.085385" lon="-3.38165833">
        <ele>2656.0</ele>
        <time>2022-11-20T14:15:55.000Z</time>
      </trkpt>
      <trkpt lat="37.08539167" lon="-3.38164333">
        <ele>2656.0</ele>
        <time>2022-11-20T14:15:56.000Z</time>
      </trkpt>
      <trkpt lat="37.085395" lon="-3.38163167">
        <ele>2656.0</ele>
        <time>2022-11-20T14:15:57.000Z</time>
      </trkpt>
      <trkpt lat="37.0854" lon="-3.38161833">
        <ele>2655.0</ele>
        <time>2022-11-20T14:15:58.000Z</time>
      </trkpt>
      <trkpt lat="37.08540667" lon="-3.381605">
        <ele>2655.0</ele>
        <time>2022-11-20T14:15:59.000Z</time>
      </trkpt>
      <trkpt lat="37.08541333" lon="-3.3816">
        <ele>2655.0</ele>
        <time>2022-11-20T14:16:00.000Z</time>
      </trkpt>
      <trkpt lat="37.08542" lon="-3.38159833">
        <ele>2655.0</ele>
        <time>2022-11-20T14:16:01.000Z</time>
      </trkpt>
      <trkpt lat="37.08543" lon="-3.38159333">
        <ele>2655.0</ele>
        <time>2022-11-20T14:16:02.000Z</time>
      </trkpt>
      <trkpt lat="37.08544" lon="-3.38159333">
        <ele>2655.0</ele>
        <time>2022-11-20T14:16:03.000Z</time>
      </trkpt>
      <trkpt lat="37.08544833" lon="-3.38158833">
        <ele>2655.0</ele>
        <time>2022-11-20T14:16:04.000Z</time>
      </trkpt>
      <trkpt lat="37.08545833" lon="-3.38158333">
        <ele>2655.0</ele>
        <time>2022-11-20T14:16:05.000Z</time>
      </trkpt>
      <trkpt lat="37.08547167" lon="-3.38158667">
        <ele>2654.0</ele>
        <time>2022-11-20T14:16:06.000Z</time>
      </trkpt>
      <trkpt lat="37.08548167" lon="-3.38159833">
        <ele>2654.0</ele>
        <time>2022-11-20T14:16:07.000Z</time>
      </trkpt>
      <trkpt lat="37.08548833" lon="-3.38161">
        <ele>2654.0</ele>
        <time>2022-11-20T14:16:08.000Z</time>
      </trkpt>
      <trkpt lat="37.08549833" lon="-3.38162167">
        <ele>2654.0</ele>
        <time>2022-11-20T14:16:09.000Z</time>
      </trkpt>
      <trkpt lat="37.08550667" lon="-3.38163167">
        <ele>2654.0</ele>
        <time>2022-11-20T14:16:10.000Z</time>
      </trkpt>
      <trkpt lat="37.08551667" lon="-3.38164167">
        <ele>2653.0</ele>
        <time>2022-11-20T14:16:11.000Z</time>
      </trkpt>
      <trkpt lat="37.08552667" lon="-3.38165167">
        <ele>2653.0</ele>
        <time>2022-11-20T14:16:12.000Z</time>
      </trkpt>
      <trkpt lat="37.08553667" lon="-3.38166">
        <ele>2653.0</ele>
        <time>2022-11-20T14:16:13.000Z</time>
      </trkpt>
      <trkpt lat="37.08554667" lon="-3.381665">
        <ele>2653.0</ele>
        <time>2022-11-20T14:16:14.000Z</time>
      </trkpt>
      <trkpt lat="37.085555" lon="-3.38166667">
        <ele>2652.0</ele>
        <time>2022-11-20T14:16:15.000Z</time>
      </trkpt>
      <trkpt lat="37.08556167" lon="-3.38166167">
        <ele>2652.0</ele>
        <time>2022-11-20T14:16:16.000Z</time>
      </trkpt>
      <trkpt lat="37.08557" lon="-3.38165667">
        <ele>2652.0</ele>
        <time>2022-11-20T14:16:17.000Z</time>
      </trkpt>
      <trkpt lat="37.08557667" lon="-3.38164833">
        <ele>2652.0</ele>
        <time>2022-11-20T14:16:18.000Z</time>
      </trkpt>
      <trkpt lat="37.08558667" lon="-3.38164167">
        <ele>2651.0</ele>
        <time>2022-11-20T14:16:19.000Z</time>
      </trkpt>
      <trkpt lat="37.08559333" lon="-3.38164">
        <ele>2651.0</ele>
        <time>2022-11-20T14:16:20.000Z</time>
      </trkpt>
      <trkpt lat="37.0856" lon="-3.381645">
        <ele>2651.0</ele>
        <time>2022-11-20T14:16:21.000Z</time>
      </trkpt>
      <trkpt lat="37.08560167" lon="-3.381655">
        <ele>2651.0</ele>
        <time>2022-11-20T14:16:22.000Z</time>
      </trkpt>
      <trkpt lat="37.0856" lon="-3.38166333">
        <ele>2651.0</ele>
        <time>2022-11-20T14:16:23.000Z</time>
      </trkpt>
      <trkpt lat="37.08560167" lon="-3.38167667">
        <ele>2650.0</ele>
        <time>2022-11-20T14:16:24.000Z</time>
      </trkpt>
      <trkpt lat="37.08560667" lon="-3.38168833">
        <ele>2650.0</ele>
        <time>2022-11-20T14:16:25.000Z</time>
      </trkpt>
      <trkpt lat="37.08561167" lon="-3.3817">
        <ele>2650.0</ele>
        <time>2022-11-20T14:16:26.000Z</time>
      </trkpt>
      <trkpt lat="37.08562" lon="-3.38171167">
        <ele>2650.0</ele>
        <time>2022-11-20T14:16:27.000Z</time>
      </trkpt>
      <trkpt lat="37.08562833" lon="-3.38172167">
        <ele>2650.0</ele>
        <time>2022-11-20T14:16:28.000Z</time>
      </trkpt>
      <trkpt lat="37.08563667" lon="-3.38173333">
        <ele>2650.0</ele>
        <time>2022-11-20T14:16:29.000Z</time>
      </trkpt>
      <trkpt lat="37.085645" lon="-3.38174333">
        <ele>2650.0</ele>
        <time>2022-11-20T14:16:30.000Z</time>
      </trkpt>
      <trkpt lat="37.08565333" lon="-3.381755">
        <ele>2650.0</ele>
        <time>2022-11-20T14:16:31.000Z</time>
      </trkpt>
      <trkpt lat="37.08566" lon="-3.381765">
        <ele>2650.0</ele>
        <time>2022-11-20T14:16:32.000Z</time>
      </trkpt>
      <trkpt lat="37.08566833" lon="-3.381775">
        <ele>2649.0</ele>
        <time>2022-11-20T14:16:33.000Z</time>
      </trkpt>
      <trkpt lat="37.08567667" lon="-3.38178667">
        <ele>2649.0</ele>
        <time>2022-11-20T14:16:34.000Z</time>
      </trkpt>
      <trkpt lat="37.085685" lon="-3.38179833">
        <ele>2649.0</ele>
        <time>2022-11-20T14:16:35.000Z</time>
      </trkpt>
      <trkpt lat="37.08569333" lon="-3.38180833">
        <ele>2649.0</ele>
        <time>2022-11-20T14:16:36.000Z</time>
      </trkpt>
      <trkpt lat="37.08570333" lon="-3.38181667">
        <ele>2649.0</ele>
        <time>2022-11-20T14:16:37.000Z</time>
      </trkpt>
      <trkpt lat="37.08571333" lon="-3.38182333">
        <ele>2649.0</ele>
        <time>2022-11-20T14:16:38.000Z</time>
      </trkpt>
      <trkpt lat="37.08572333" lon="-3.38182833">
        <ele>2649.0</ele>
        <time>2022-11-20T14:16:39.000Z</time>
      </trkpt>
      <trkpt lat="37.08573167" lon="-3.381835">
        <ele>2649.0</ele>
        <time>2022-11-20T14:16:40.000Z</time>
      </trkpt>
      <trkpt lat="37.08574" lon="-3.381845">
        <ele>2649.0</ele>
        <time>2022-11-20T14:16:41.000Z</time>
      </trkpt>
      <trkpt lat="37.08575" lon="-3.38185333">
        <ele>2649.0</ele>
        <time>2022-11-20T14:16:42.000Z</time>
      </trkpt>
      <trkpt lat="37.08576" lon="-3.38186">
        <ele>2649.0</ele>
        <time>2022-11-20T14:16:43.000Z</time>
      </trkpt>
      <trkpt lat="37.08577" lon="-3.38187">
        <ele>2649.0</ele>
        <time>2022-11-20T14:16:44.000Z</time>
      </trkpt>
      <trkpt lat="37.08578167" lon="-3.38188167">
        <ele>2649.0</ele>
        <time>2022-11-20T14:16:45.000Z</time>
      </trkpt>
      <trkpt lat="37.08579167" lon="-3.38189167">
        <ele>2649.0</ele>
        <time>2022-11-20T14:16:46.000Z</time>
      </trkpt>
      <trkpt lat="37.08580167" lon="-3.38190167">
        <ele>2649.0</ele>
        <time>2022-11-20T14:16:47.000Z</time>
      </trkpt>
      <trkpt lat="37.08581167" lon="-3.38191167">
        <ele>2649.0</ele>
        <time>2022-11-20T14:16:48.000Z</time>
      </trkpt>
      <trkpt lat="37.08581833" lon="-3.38192333">
        <ele>2648.0</ele>
        <time>2022-11-20T14:16:49.000Z</time>
      </trkpt>
      <trkpt lat="37.08582667" lon="-3.381935">
        <ele>2648.0</ele>
        <time>2022-11-20T14:16:50.000Z</time>
      </trkpt>
      <trkpt lat="37.085835" lon="-3.38194667">
        <ele>2648.0</ele>
        <time>2022-11-20T14:16:51.000Z</time>
      </trkpt>
      <trkpt lat="37.08584333" lon="-3.38195833">
        <ele>2648.0</ele>
        <time>2022-11-20T14:16:52.000Z</time>
      </trkpt>
      <trkpt lat="37.08585167" lon="-3.38197167">
        <ele>2648.0</ele>
        <time>2022-11-20T14:16:53.000Z</time>
      </trkpt>
      <trkpt lat="37.08586" lon="-3.381985">
        <ele>2648.0</ele>
        <time>2022-11-20T14:16:54.000Z</time>
      </trkpt>
      <trkpt lat="37.08586667" lon="-3.38199667">
        <ele>2648.0</ele>
        <time>2022-11-20T14:16:55.000Z</time>
      </trkpt>
      <trkpt lat="37.085875" lon="-3.38200667">
        <ele>2647.0</ele>
        <time>2022-11-20T14:16:56.000Z</time>
      </trkpt>
      <trkpt lat="37.08588333" lon="-3.38202">
        <ele>2647.0</ele>
        <time>2022-11-20T14:16:57.000Z</time>
      </trkpt>
      <trkpt lat="37.08589333" lon="-3.38203167">
        <ele>2647.0</ele>
        <time>2022-11-20T14:16:58.000Z</time>
      </trkpt>
      <trkpt lat="37.08590333" lon="-3.382045">
        <ele>2647.0</ele>
        <time>2022-11-20T14:16:59.000Z</time>
      </trkpt>
      <trkpt lat="37.08591167" lon="-3.382055">
        <ele>2647.0</ele>
        <time>2022-11-20T14:17:00.000Z</time>
      </trkpt>
      <trkpt lat="37.08592333" lon="-3.382065">
        <ele>2647.0</ele>
        <time>2022-11-20T14:17:01.000Z</time>
      </trkpt>
      <trkpt lat="37.085935" lon="-3.38207167">
        <ele>2647.0</ele>
        <time>2022-11-20T14:17:02.000Z</time>
      </trkpt>
      <trkpt lat="37.08594833" lon="-3.38208">
        <ele>2646.0</ele>
        <time>2022-11-20T14:17:03.000Z</time>
      </trkpt>
      <trkpt lat="37.08595833" lon="-3.38208833">
        <ele>2646.0</ele>
        <time>2022-11-20T14:17:04.000Z</time>
      </trkpt>
      <trkpt lat="37.08596833" lon="-3.382095">
        <ele>2646.0</ele>
        <time>2022-11-20T14:17:05.000Z</time>
      </trkpt>
      <trkpt lat="37.08597833" lon="-3.38210167">
        <ele>2646.0</ele>
        <time>2022-11-20T14:17:06.000Z</time>
      </trkpt>
      <trkpt lat="37.08598667" lon="-3.38211">
        <ele>2646.0</ele>
        <time>2022-11-20T14:17:07.000Z</time>
      </trkpt>
      <trkpt lat="37.08599667" lon="-3.382115">
        <ele>2646.0</ele>
        <time>2022-11-20T14:17:08.000Z</time>
      </trkpt>
      <trkpt lat="37.086005" lon="-3.38212167">
        <ele>2646.0</ele>
        <time>2022-11-20T14:17:09.000Z</time>
      </trkpt>
      <trkpt lat="37.08601333" lon="-3.38212833">
        <ele>2646.0</ele>
        <time>2022-11-20T14:17:10.000Z</time>
      </trkpt>
      <trkpt lat="37.08602333" lon="-3.382135">
        <ele>2646.0</ele>
        <time>2022-11-20T14:17:11.000Z</time>
      </trkpt>
      <trkpt lat="37.08603" lon="-3.38213833">
        <ele>2646.0</ele>
        <time>2022-11-20T14:17:12.000Z</time>
      </trkpt>
      <trkpt lat="37.08603333" lon="-3.38214">
        <ele>2646.0</ele>
        <time>2022-11-20T14:17:13.000Z</time>
      </trkpt>
      <trkpt lat="37.08603333" lon="-3.38214">
        <ele>2646.0</ele>
        <time>2022-11-20T14:17:14.000Z</time>
      </trkpt>
      <trkpt lat="37.08603833" lon="-3.38213667">
        <ele>2645.0</ele>
        <time>2022-11-20T14:17:15.000Z</time>
      </trkpt>
      <trkpt lat="37.08604833" lon="-3.38213167">
        <ele>2645.0</ele>
        <time>2022-11-20T14:17:16.000Z</time>
      </trkpt>
      <trkpt lat="37.08605833" lon="-3.382125">
        <ele>2645.0</ele>
        <time>2022-11-20T14:17:17.000Z</time>
      </trkpt>
      <trkpt lat="37.08607" lon="-3.38212">
        <ele>2645.0</ele>
        <time>2022-11-20T14:17:18.000Z</time>
      </trkpt>
      <trkpt lat="37.08608333" lon="-3.38211833">
        <ele>2645.0</ele>
        <time>2022-11-20T14:17:19.000Z</time>
      </trkpt>
      <trkpt lat="37.08609333" lon="-3.38212333">
        <ele>2644.0</ele>
        <time>2022-11-20T14:17:20.000Z</time>
      </trkpt>
      <trkpt lat="37.08610333" lon="-3.38213167">
        <ele>2644.0</ele>
        <time>2022-11-20T14:17:21.000Z</time>
      </trkpt>
      <trkpt lat="37.08611167" lon="-3.38213667">
        <ele>2644.0</ele>
        <time>2022-11-20T14:17:22.000Z</time>
      </trkpt>
      <trkpt lat="37.08612167" lon="-3.38214167">
        <ele>2644.0</ele>
        <time>2022-11-20T14:17:23.000Z</time>
      </trkpt>
      <trkpt lat="37.08613333" lon="-3.38214667">
        <ele>2644.0</ele>
        <time>2022-11-20T14:17:24.000Z</time>
      </trkpt>
      <trkpt lat="37.08614333" lon="-3.38215333">
        <ele>2643.0</ele>
        <time>2022-11-20T14:17:25.000Z</time>
      </trkpt>
      <trkpt lat="37.08614833" lon="-3.38216167">
        <ele>2643.0</ele>
        <time>2022-11-20T14:17:26.000Z</time>
      </trkpt>
      <trkpt lat="37.08615167" lon="-3.38216667">
        <ele>2643.0</ele>
        <time>2022-11-20T14:17:27.000Z</time>
      </trkpt>
      <trkpt lat="37.08615333" lon="-3.38216833">
        <ele>2643.0</ele>
        <time>2022-11-20T14:17:28.000Z</time>
      </trkpt>
      <trkpt lat="37.08615833" lon="-3.38217333">
        <ele>2643.0</ele>
        <time>2022-11-20T14:17:29.000Z</time>
      </trkpt>
      <trkpt lat="37.08616667" lon="-3.38218">
        <ele>2643.0</ele>
        <time>2022-11-20T14:17:30.000Z</time>
      </trkpt>
      <trkpt lat="37.08617667" lon="-3.38219">
        <ele>2643.0</ele>
        <time>2022-11-20T14:17:31.000Z</time>
      </trkpt>
      <trkpt lat="37.08618833" lon="-3.3822">
        <ele>2643.0</ele>
        <time>2022-11-20T14:17:32.000Z</time>
      </trkpt>
      <trkpt lat="37.08619833" lon="-3.38221167">
        <ele>2642.0</ele>
        <time>2022-11-20T14:17:33.000Z</time>
      </trkpt>
      <trkpt lat="37.08620667" lon="-3.38222">
        <ele>2642.0</ele>
        <time>2022-11-20T14:17:34.000Z</time>
      </trkpt>
      <trkpt lat="37.08621833" lon="-3.38222833">
        <ele>2642.0</ele>
        <time>2022-11-20T14:17:35.000Z</time>
      </trkpt>
      <trkpt lat="37.08623" lon="-3.38223667">
        <ele>2642.0</ele>
        <time>2022-11-20T14:17:36.000Z</time>
      </trkpt>
      <trkpt lat="37.08624" lon="-3.38224667">
        <ele>2642.0</ele>
        <time>2022-11-20T14:17:37.000Z</time>
      </trkpt>
      <trkpt lat="37.08625167" lon="-3.382255">
        <ele>2641.0</ele>
        <time>2022-11-20T14:17:38.000Z</time>
      </trkpt>
      <trkpt lat="37.08626167" lon="-3.38226">
        <ele>2641.0</ele>
        <time>2022-11-20T14:17:39.000Z</time>
      </trkpt>
      <trkpt lat="37.08627333" lon="-3.38226333">
        <ele>2641.0</ele>
        <time>2022-11-20T14:17:40.000Z</time>
      </trkpt>
      <trkpt lat="37.086285" lon="-3.38226833">
        <ele>2641.0</ele>
        <time>2022-11-20T14:17:41.000Z</time>
      </trkpt>
      <trkpt lat="37.08629333" lon="-3.38227833">
        <ele>2640.0</ele>
        <time>2022-11-20T14:17:42.000Z</time>
      </trkpt>
      <trkpt lat="37.08630333" lon="-3.38228833">
        <ele>2640.0</ele>
        <time>2022-11-20T14:17:43.000Z</time>
      </trkpt>
      <trkpt lat="37.086315" lon="-3.382295">
        <ele>2640.0</ele>
        <time>2022-11-20T14:17:44.000Z</time>
      </trkpt>
      <trkpt lat="37.08632667" lon="-3.38230333">
        <ele>2639.0</ele>
        <time>2022-11-20T14:17:45.000Z</time>
      </trkpt>
      <trkpt lat="37.08634" lon="-3.38231">
        <ele>2639.0</ele>
        <time>2022-11-20T14:17:46.000Z</time>
      </trkpt>
      <trkpt lat="37.08635333" lon="-3.382315">
        <ele>2639.0</ele>
        <time>2022-11-20T14:17:47.000Z</time>
      </trkpt>
      <trkpt lat="37.08636833" lon="-3.38232">
        <ele>2638.0</ele>
        <time>2022-11-20T14:17:48.000Z</time>
      </trkpt>
      <trkpt lat="37.08638167" lon="-3.382325">
        <ele>2638.0</ele>
        <time>2022-11-20T14:17:49.000Z</time>
      </trkpt>
      <trkpt lat="37.08639167" lon="-3.38233167">
        <ele>2638.0</ele>
        <time>2022-11-20T14:17:50.000Z</time>
      </trkpt>
      <trkpt lat="37.08640333" lon="-3.38234">
        <ele>2638.0</ele>
        <time>2022-11-20T14:17:51.000Z</time>
      </trkpt>
      <trkpt lat="37.08641333" lon="-3.38234667">
        <ele>2637.0</ele>
        <time>2022-11-20T14:17:52.000Z</time>
      </trkpt>
      <trkpt lat="37.086425" lon="-3.382355">
        <ele>2637.0</ele>
        <time>2022-11-20T14:17:53.000Z</time>
      </trkpt>
      <trkpt lat="37.08643667" lon="-3.38236833">
        <ele>2637.0</ele>
        <time>2022-11-20T14:17:54.000Z</time>
      </trkpt>
      <trkpt lat="37.08644667" lon="-3.38237667">
        <ele>2636.0</ele>
        <time>2022-11-20T14:17:55.000Z</time>
      </trkpt>
      <trkpt lat="37.08645833" lon="-3.38238333">
        <ele>2636.0</ele>
        <time>2022-11-20T14:17:56.000Z</time>
      </trkpt>
      <trkpt lat="37.08646833" lon="-3.38239333">
        <ele>2635.0</ele>
        <time>2022-11-20T14:17:57.000Z</time>
      </trkpt>
      <trkpt lat="37.08648" lon="-3.382405">
        <ele>2635.0</ele>
        <time>2022-11-20T14:17:58.000Z</time>
      </trkpt>
      <trkpt lat="37.08649" lon="-3.38241333">
        <ele>2635.0</ele>
        <time>2022-11-20T14:17:59.000Z</time>
      </trkpt>
      <trkpt lat="37.08650333" lon="-3.38242167">
        <ele>2634.0</ele>
        <time>2022-11-20T14:18:00.000Z</time>
      </trkpt>
      <trkpt lat="37.08651667" lon="-3.38243">
        <ele>2634.0</ele>
        <time>2022-11-20T14:18:01.000Z</time>
      </trkpt>
      <trkpt lat="37.08653" lon="-3.38243833">
        <ele>2634.0</ele>
        <time>2022-11-20T14:18:02.000Z</time>
      </trkpt>
      <trkpt lat="37.08654333" lon="-3.38245">
        <ele>2633.0</ele>
        <time>2022-11-20T14:18:03.000Z</time>
      </trkpt>
      <trkpt lat="37.086555" lon="-3.38245833">
        <ele>2633.0</ele>
        <time>2022-11-20T14:18:04.000Z</time>
      </trkpt>
      <trkpt lat="37.08656667" lon="-3.38246833">
        <ele>2633.0</ele>
        <time>2022-11-20T14:18:05.000Z</time>
      </trkpt>
      <trkpt lat="37.08658167" lon="-3.38247667">
        <ele>2632.0</ele>
        <time>2022-11-20T14:18:06.000Z</time>
      </trkpt>
      <trkpt lat="37.086595" lon="-3.38248667">
        <ele>2632.0</ele>
        <time>2022-11-20T14:18:07.000Z</time>
      </trkpt>
      <trkpt lat="37.08661" lon="-3.38249667">
        <ele>2632.0</ele>
        <time>2022-11-20T14:18:08.000Z</time>
      </trkpt>
      <trkpt lat="37.08662333" lon="-3.38250667">
        <ele>2632.0</ele>
        <time>2022-11-20T14:18:09.000Z</time>
      </trkpt>
      <trkpt lat="37.086635" lon="-3.382515">
        <ele>2631.0</ele>
        <time>2022-11-20T14:18:10.000Z</time>
      </trkpt>
      <trkpt lat="37.08665" lon="-3.38252667">
        <ele>2631.0</ele>
        <time>2022-11-20T14:18:11.000Z</time>
      </trkpt>
      <trkpt lat="37.08666333" lon="-3.38253667">
        <ele>2631.0</ele>
        <time>2022-11-20T14:18:12.000Z</time>
      </trkpt>
      <trkpt lat="37.08666333" lon="-3.38253833">
        <ele>2631.0</ele>
        <time>2022-11-20T14:18:13.000Z</time>
      </trkpt>
      <trkpt lat="37.086665" lon="-3.382545">
        <ele>2630.0</ele>
        <time>2022-11-20T14:18:14.000Z</time>
      </trkpt>
      <trkpt lat="37.08666833" lon="-3.38255167">
        <ele>2630.0</ele>
        <time>2022-11-20T14:18:15.000Z</time>
      </trkpt>
      <trkpt lat="37.086675" lon="-3.38256167">
        <ele>2630.0</ele>
        <time>2022-11-20T14:18:16.000Z</time>
      </trkpt>
      <trkpt lat="37.08668333" lon="-3.38257167">
        <ele>2630.0</ele>
        <time>2022-11-20T14:18:17.000Z</time>
      </trkpt>
      <trkpt lat="37.08669333" lon="-3.38258167">
        <ele>2630.0</ele>
        <time>2022-11-20T14:18:18.000Z</time>
      </trkpt>
      <trkpt lat="37.086705" lon="-3.38259333">
        <ele>2630.0</ele>
        <time>2022-11-20T14:18:19.000Z</time>
      </trkpt>
      <trkpt lat="37.08671833" lon="-3.38260167">
        <ele>2629.0</ele>
        <time>2022-11-20T14:18:20.000Z</time>
      </trkpt>
      <trkpt lat="37.08673167" lon="-3.38261333">
        <ele>2629.0</ele>
        <time>2022-11-20T14:18:21.000Z</time>
      </trkpt>
      <trkpt lat="37.08674333" lon="-3.38262667">
        <ele>2629.0</ele>
        <time>2022-11-20T14:18:22.000Z</time>
      </trkpt>
      <trkpt lat="37.086755" lon="-3.38263833">
        <ele>2629.0</ele>
        <time>2022-11-20T14:18:23.000Z</time>
      </trkpt>
      <trkpt lat="37.08676667" lon="-3.382645">
        <ele>2628.0</ele>
        <time>2022-11-20T14:18:24.000Z</time>
      </trkpt>
      <trkpt lat="37.08677667" lon="-3.38265167">
        <ele>2628.0</ele>
        <time>2022-11-20T14:18:25.000Z</time>
      </trkpt>
      <trkpt lat="37.08678833" lon="-3.382655">
        <ele>2628.0</ele>
        <time>2022-11-20T14:18:26.000Z</time>
      </trkpt>
      <trkpt lat="37.0868" lon="-3.38265667">
        <ele>2628.0</ele>
        <time>2022-11-20T14:18:27.000Z</time>
      </trkpt>
      <trkpt lat="37.08681" lon="-3.38265833">
        <ele>2628.0</ele>
        <time>2022-11-20T14:18:28.000Z</time>
      </trkpt>
      <trkpt lat="37.086825" lon="-3.38266167">
        <ele>2627.0</ele>
        <time>2022-11-20T14:18:29.000Z</time>
      </trkpt>
      <trkpt lat="37.08683667" lon="-3.38266833">
        <ele>2627.0</ele>
        <time>2022-11-20T14:18:30.000Z</time>
      </trkpt>
      <trkpt lat="37.08685" lon="-3.382675">
        <ele>2627.0</ele>
        <time>2022-11-20T14:18:31.000Z</time>
      </trkpt>
      <trkpt lat="37.08686167" lon="-3.38268333">
        <ele>2627.0</ele>
        <time>2022-11-20T14:18:32.000Z</time>
      </trkpt>
      <trkpt lat="37.08687333" lon="-3.38269">
        <ele>2627.0</ele>
        <time>2022-11-20T14:18:33.000Z</time>
      </trkpt>
      <trkpt lat="37.08688333" lon="-3.3827">
        <ele>2626.0</ele>
        <time>2022-11-20T14:18:34.000Z</time>
      </trkpt>
      <trkpt lat="37.086895" lon="-3.38271">
        <ele>2626.0</ele>
        <time>2022-11-20T14:18:35.000Z</time>
      </trkpt>
      <trkpt lat="37.08690833" lon="-3.38271833">
        <ele>2626.0</ele>
        <time>2022-11-20T14:18:36.000Z</time>
      </trkpt>
      <trkpt lat="37.08692" lon="-3.38272667">
        <ele>2626.0</ele>
        <time>2022-11-20T14:18:37.000Z</time>
      </trkpt>
      <trkpt lat="37.08693" lon="-3.38273667">
        <ele>2625.0</ele>
        <time>2022-11-20T14:18:38.000Z</time>
      </trkpt>
      <trkpt lat="37.08694167" lon="-3.38274333">
        <ele>2625.0</ele>
        <time>2022-11-20T14:18:39.000Z</time>
      </trkpt>
      <trkpt lat="37.08695333" lon="-3.38274667">
        <ele>2625.0</ele>
        <time>2022-11-20T14:18:40.000Z</time>
      </trkpt>
      <trkpt lat="37.08696667" lon="-3.38275">
        <ele>2624.0</ele>
        <time>2022-11-20T14:18:41.000Z</time>
      </trkpt>
      <trkpt lat="37.08698" lon="-3.38275">
        <ele>2624.0</ele>
        <time>2022-11-20T14:18:42.000Z</time>
      </trkpt>
      <trkpt lat="37.086995" lon="-3.38275">
        <ele>2623.0</ele>
        <time>2022-11-20T14:18:43.000Z</time>
      </trkpt>
      <trkpt lat="37.08701167" lon="-3.38274833">
        <ele>2623.0</ele>
        <time>2022-11-20T14:18:44.000Z</time>
      </trkpt>
      <trkpt lat="37.08703" lon="-3.38274667">
        <ele>2623.0</ele>
        <time>2022-11-20T14:18:45.000Z</time>
      </trkpt>
      <trkpt lat="37.08704667" lon="-3.382745">
        <ele>2623.0</ele>
        <time>2022-11-20T14:18:46.000Z</time>
      </trkpt>
      <trkpt lat="37.08706167" lon="-3.38274167">
        <ele>2623.0</ele>
        <time>2022-11-20T14:18:47.000Z</time>
      </trkpt>
      <trkpt lat="37.087075" lon="-3.38274">
        <ele>2622.0</ele>
        <time>2022-11-20T14:18:48.000Z</time>
      </trkpt>
      <trkpt lat="37.08708833" lon="-3.38274">
        <ele>2622.0</ele>
        <time>2022-11-20T14:18:49.000Z</time>
      </trkpt>
      <trkpt lat="37.08710333" lon="-3.38274">
        <ele>2622.0</ele>
        <time>2022-11-20T14:18:50.000Z</time>
      </trkpt>
      <trkpt lat="37.087115" lon="-3.382745">
        <ele>2622.0</ele>
        <time>2022-11-20T14:18:51.000Z</time>
      </trkpt>
      <trkpt lat="37.08712667" lon="-3.38275">
        <ele>2622.0</ele>
        <time>2022-11-20T14:18:52.000Z</time>
      </trkpt>
      <trkpt lat="37.08713833" lon="-3.382755">
        <ele>2622.0</ele>
        <time>2022-11-20T14:18:53.000Z</time>
      </trkpt>
      <trkpt lat="37.08715" lon="-3.38276167">
        <ele>2623.0</ele>
        <time>2022-11-20T14:18:54.000Z</time>
      </trkpt>
      <trkpt lat="37.08716167" lon="-3.382765">
        <ele>2623.0</ele>
        <time>2022-11-20T14:18:55.000Z</time>
      </trkpt>
      <trkpt lat="37.087175" lon="-3.38277">
        <ele>2623.0</ele>
        <time>2022-11-20T14:18:56.000Z</time>
      </trkpt>
      <trkpt lat="37.08718667" lon="-3.38277333">
        <ele>2623.0</ele>
        <time>2022-11-20T14:18:57.000Z</time>
      </trkpt>
      <trkpt lat="37.0872" lon="-3.38278">
        <ele>2623.0</ele>
        <time>2022-11-20T14:18:58.000Z</time>
      </trkpt>
      <trkpt lat="37.087215" lon="-3.38278333">
        <ele>2623.0</ele>
        <time>2022-11-20T14:18:59.000Z</time>
      </trkpt>
      <trkpt lat="37.08722833" lon="-3.38278833">
        <ele>2623.0</ele>
        <time>2022-11-20T14:19:00.000Z</time>
      </trkpt>
      <trkpt lat="37.08724" lon="-3.382795">
        <ele>2623.0</ele>
        <time>2022-11-20T14:19:01.000Z</time>
      </trkpt>
      <trkpt lat="37.08725" lon="-3.38280167">
        <ele>2623.0</ele>
        <time>2022-11-20T14:19:02.000Z</time>
      </trkpt>
      <trkpt lat="37.08726167" lon="-3.38280833">
        <ele>2623.0</ele>
        <time>2022-11-20T14:19:03.000Z</time>
      </trkpt>
      <trkpt lat="37.08727333" lon="-3.38281333">
        <ele>2623.0</ele>
        <time>2022-11-20T14:19:04.000Z</time>
      </trkpt>
      <trkpt lat="37.087285" lon="-3.382815">
        <ele>2623.0</ele>
        <time>2022-11-20T14:19:05.000Z</time>
      </trkpt>
      <trkpt lat="37.087295" lon="-3.38282">
        <ele>2623.0</ele>
        <time>2022-11-20T14:19:06.000Z</time>
      </trkpt>
      <trkpt lat="37.08730333" lon="-3.382825">
        <ele>2623.0</ele>
        <time>2022-11-20T14:19:07.000Z</time>
      </trkpt>
      <trkpt lat="37.08731833" lon="-3.38283333">
        <ele>2623.0</ele>
        <time>2022-11-20T14:19:08.000Z</time>
      </trkpt>
      <trkpt lat="37.08733167" lon="-3.38284">
        <ele>2623.0</ele>
        <time>2022-11-20T14:19:09.000Z</time>
      </trkpt>
      <trkpt lat="37.08734667" lon="-3.38284167">
        <ele>2623.0</ele>
        <time>2022-11-20T14:19:10.000Z</time>
      </trkpt>
      <trkpt lat="37.08736" lon="-3.38284333">
        <ele>2623.0</ele>
        <time>2022-11-20T14:19:11.000Z</time>
      </trkpt>
      <trkpt lat="37.087375" lon="-3.382845">
        <ele>2623.0</ele>
        <time>2022-11-20T14:19:12.000Z</time>
      </trkpt>
      <trkpt lat="37.08739" lon="-3.38284667">
        <ele>2622.0</ele>
        <time>2022-11-20T14:19:13.000Z</time>
      </trkpt>
      <trkpt lat="37.08740333" lon="-3.38285">
        <ele>2622.0</ele>
        <time>2022-11-20T14:19:14.000Z</time>
      </trkpt>
      <trkpt lat="37.08741833" lon="-3.38285">
        <ele>2622.0</ele>
        <time>2022-11-20T14:19:15.000Z</time>
      </trkpt>
      <trkpt lat="37.087435" lon="-3.38284833">
        <ele>2622.0</ele>
        <time>2022-11-20T14:19:16.000Z</time>
      </trkpt>
      <trkpt lat="37.08744833" lon="-3.38285">
        <ele>2622.0</ele>
        <time>2022-11-20T14:19:17.000Z</time>
      </trkpt>
      <trkpt lat="37.08746167" lon="-3.38285">
        <ele>2622.0</ele>
        <time>2022-11-20T14:19:18.000Z</time>
      </trkpt>
      <trkpt lat="37.08747667" lon="-3.38285333">
        <ele>2622.0</ele>
        <time>2022-11-20T14:19:19.000Z</time>
      </trkpt>
      <trkpt lat="37.08749167" lon="-3.38285333">
        <ele>2622.0</ele>
        <time>2022-11-20T14:19:20.000Z</time>
      </trkpt>
      <trkpt lat="37.08750667" lon="-3.382855">
        <ele>2622.0</ele>
        <time>2022-11-20T14:19:21.000Z</time>
      </trkpt>
      <trkpt lat="37.08752167" lon="-3.38285833">
        <ele>2621.0</ele>
        <time>2022-11-20T14:19:22.000Z</time>
      </trkpt>
      <trkpt lat="37.087535" lon="-3.38285833">
        <ele>2621.0</ele>
        <time>2022-11-20T14:19:23.000Z</time>
      </trkpt>
      <trkpt lat="37.08754833" lon="-3.38285833">
        <ele>2621.0</ele>
        <time>2022-11-20T14:19:24.000Z</time>
      </trkpt>
      <trkpt lat="37.087565" lon="-3.38285833">
        <ele>2621.0</ele>
        <time>2022-11-20T14:19:25.000Z</time>
      </trkpt>
      <trkpt lat="37.08758" lon="-3.38285833">
        <ele>2621.0</ele>
        <time>2022-11-20T14:19:26.000Z</time>
      </trkpt>
      <trkpt lat="37.087595" lon="-3.38286">
        <ele>2621.0</ele>
        <time>2022-11-20T14:19:27.000Z</time>
      </trkpt>
      <trkpt lat="37.08760833" lon="-3.38285833">
        <ele>2621.0</ele>
        <time>2022-11-20T14:19:28.000Z</time>
      </trkpt>
      <trkpt lat="37.08762333" lon="-3.38285833">
        <ele>2620.0</ele>
        <time>2022-11-20T14:19:29.000Z</time>
      </trkpt>
      <trkpt lat="37.08763833" lon="-3.38285833">
        <ele>2620.0</ele>
        <time>2022-11-20T14:19:30.000Z</time>
      </trkpt>
      <trkpt lat="37.08765333" lon="-3.38286">
        <ele>2620.0</ele>
        <time>2022-11-20T14:19:31.000Z</time>
      </trkpt>
      <trkpt lat="37.08766833" lon="-3.38286333">
        <ele>2620.0</ele>
        <time>2022-11-20T14:19:32.000Z</time>
      </trkpt>
      <trkpt lat="37.08768167" lon="-3.38286667">
        <ele>2620.0</ele>
        <time>2022-11-20T14:19:33.000Z</time>
      </trkpt>
      <trkpt lat="37.087695" lon="-3.38286667">
        <ele>2620.0</ele>
        <time>2022-11-20T14:19:34.000Z</time>
      </trkpt>
      <trkpt lat="37.08771" lon="-3.382865">
        <ele>2620.0</ele>
        <time>2022-11-20T14:19:35.000Z</time>
      </trkpt>
      <trkpt lat="37.087725" lon="-3.382865">
        <ele>2620.0</ele>
        <time>2022-11-20T14:19:36.000Z</time>
      </trkpt>
      <trkpt lat="37.08774" lon="-3.382865">
        <ele>2619.0</ele>
        <time>2022-11-20T14:19:37.000Z</time>
      </trkpt>
      <trkpt lat="37.087755" lon="-3.38286833">
        <ele>2619.0</ele>
        <time>2022-11-20T14:19:38.000Z</time>
      </trkpt>
      <trkpt lat="37.08776833" lon="-3.38287">
        <ele>2619.0</ele>
        <time>2022-11-20T14:19:39.000Z</time>
      </trkpt>
      <trkpt lat="37.08778" lon="-3.38287">
        <ele>2619.0</ele>
        <time>2022-11-20T14:19:40.000Z</time>
      </trkpt>
      <trkpt lat="37.087795" lon="-3.38287167">
        <ele>2619.0</ele>
        <time>2022-11-20T14:19:41.000Z</time>
      </trkpt>
      <trkpt lat="37.08780833" lon="-3.38287333">
        <ele>2619.0</ele>
        <time>2022-11-20T14:19:42.000Z</time>
      </trkpt>
      <trkpt lat="37.08782167" lon="-3.38287667">
        <ele>2619.0</ele>
        <time>2022-11-20T14:19:43.000Z</time>
      </trkpt>
      <trkpt lat="37.087835" lon="-3.38287667">
        <ele>2619.0</ele>
        <time>2022-11-20T14:19:44.000Z</time>
      </trkpt>
      <trkpt lat="37.08784833" lon="-3.38287833">
        <ele>2619.0</ele>
        <time>2022-11-20T14:19:45.000Z</time>
      </trkpt>
      <trkpt lat="37.08786167" lon="-3.38287833">
        <ele>2619.0</ele>
        <time>2022-11-20T14:19:46.000Z</time>
      </trkpt>
      <trkpt lat="37.08787333" lon="-3.38287667">
        <ele>2618.0</ele>
        <time>2022-11-20T14:19:47.000Z</time>
      </trkpt>
      <trkpt lat="37.08788667" lon="-3.382875">
        <ele>2618.0</ele>
        <time>2022-11-20T14:19:48.000Z</time>
      </trkpt>
      <trkpt lat="37.08790167" lon="-3.38287833">
        <ele>2618.0</ele>
        <time>2022-11-20T14:19:49.000Z</time>
      </trkpt>
      <trkpt lat="37.08791333" lon="-3.382885">
        <ele>2618.0</ele>
        <time>2022-11-20T14:19:50.000Z</time>
      </trkpt>
      <trkpt lat="37.087925" lon="-3.38289333">
        <ele>2618.0</ele>
        <time>2022-11-20T14:19:51.000Z</time>
      </trkpt>
      <trkpt lat="37.08793833" lon="-3.38289667">
        <ele>2618.0</ele>
        <time>2022-11-20T14:19:52.000Z</time>
      </trkpt>
      <trkpt lat="37.08795333" lon="-3.38289833">
        <ele>2618.0</ele>
        <time>2022-11-20T14:19:53.000Z</time>
      </trkpt>
      <trkpt lat="37.08796667" lon="-3.38290167">
        <ele>2617.0</ele>
        <time>2022-11-20T14:19:54.000Z</time>
      </trkpt>
      <trkpt lat="37.08798167" lon="-3.38290667">
        <ele>2617.0</ele>
        <time>2022-11-20T14:19:55.000Z</time>
      </trkpt>
      <trkpt lat="37.087995" lon="-3.38291167">
        <ele>2617.0</ele>
        <time>2022-11-20T14:19:56.000Z</time>
      </trkpt>
      <trkpt lat="37.08801167" lon="-3.38291833">
        <ele>2617.0</ele>
        <time>2022-11-20T14:19:57.000Z</time>
      </trkpt>
      <trkpt lat="37.08802667" lon="-3.38292333">
        <ele>2616.0</ele>
        <time>2022-11-20T14:19:58.000Z</time>
      </trkpt>
      <trkpt lat="37.08804167" lon="-3.38292833">
        <ele>2616.0</ele>
        <time>2022-11-20T14:19:59.000Z</time>
      </trkpt>
      <trkpt lat="37.088055" lon="-3.38293167">
        <ele>2616.0</ele>
        <time>2022-11-20T14:20:00.000Z</time>
      </trkpt>
      <trkpt lat="37.08807" lon="-3.38293833">
        <ele>2616.0</ele>
        <time>2022-11-20T14:20:01.000Z</time>
      </trkpt>
      <trkpt lat="37.088085" lon="-3.38294167">
        <ele>2616.0</ele>
        <time>2022-11-20T14:20:02.000Z</time>
      </trkpt>
      <trkpt lat="37.08809833" lon="-3.38294667">
        <ele>2616.0</ele>
        <time>2022-11-20T14:20:03.000Z</time>
      </trkpt>
      <trkpt lat="37.08811167" lon="-3.38295">
        <ele>2615.0</ele>
        <time>2022-11-20T14:20:04.000Z</time>
      </trkpt>
      <trkpt lat="37.08812667" lon="-3.382955">
        <ele>2615.0</ele>
        <time>2022-11-20T14:20:05.000Z</time>
      </trkpt>
      <trkpt lat="37.08814167" lon="-3.38296333">
        <ele>2615.0</ele>
        <time>2022-11-20T14:20:06.000Z</time>
      </trkpt>
      <trkpt lat="37.088155" lon="-3.38297167">
        <ele>2615.0</ele>
        <time>2022-11-20T14:20:07.000Z</time>
      </trkpt>
      <trkpt lat="37.088165" lon="-3.38298">
        <ele>2615.0</ele>
        <time>2022-11-20T14:20:08.000Z</time>
      </trkpt>
      <trkpt lat="37.08817833" lon="-3.38298667">
        <ele>2615.0</ele>
        <time>2022-11-20T14:20:09.000Z</time>
      </trkpt>
      <trkpt lat="37.08819" lon="-3.38299333">
        <ele>2615.0</ele>
        <time>2022-11-20T14:20:10.000Z</time>
      </trkpt>
      <trkpt lat="37.08820167" lon="-3.383">
        <ele>2614.0</ele>
        <time>2022-11-20T14:20:11.000Z</time>
      </trkpt>
      <trkpt lat="37.088215" lon="-3.383005">
        <ele>2614.0</ele>
        <time>2022-11-20T14:20:12.000Z</time>
      </trkpt>
      <trkpt lat="37.08823" lon="-3.38301167">
        <ele>2614.0</ele>
        <time>2022-11-20T14:20:13.000Z</time>
      </trkpt>
      <trkpt lat="37.08824333" lon="-3.38301833">
        <ele>2614.0</ele>
        <time>2022-11-20T14:20:14.000Z</time>
      </trkpt>
      <trkpt lat="37.08825833" lon="-3.38302333">
        <ele>2613.0</ele>
        <time>2022-11-20T14:20:15.000Z</time>
      </trkpt>
      <trkpt lat="37.08827333" lon="-3.38303">
        <ele>2613.0</ele>
        <time>2022-11-20T14:20:16.000Z</time>
      </trkpt>
      <trkpt lat="37.08828667" lon="-3.38303333">
        <ele>2613.0</ele>
        <time>2022-11-20T14:20:17.000Z</time>
      </trkpt>
      <trkpt lat="37.08830167" lon="-3.38303833">
        <ele>2613.0</ele>
        <time>2022-11-20T14:20:18.000Z</time>
      </trkpt>
      <trkpt lat="37.088315" lon="-3.38304333">
        <ele>2613.0</ele>
        <time>2022-11-20T14:20:19.000Z</time>
      </trkpt>
      <trkpt lat="37.08833" lon="-3.38304833">
        <ele>2613.0</ele>
        <time>2022-11-20T14:20:20.000Z</time>
      </trkpt>
      <trkpt lat="37.08834333" lon="-3.383055">
        <ele>2613.0</ele>
        <time>2022-11-20T14:20:21.000Z</time>
      </trkpt>
      <trkpt lat="37.08835833" lon="-3.38306">
        <ele>2613.0</ele>
        <time>2022-11-20T14:20:22.000Z</time>
      </trkpt>
      <trkpt lat="37.08837167" lon="-3.38306167">
        <ele>2613.0</ele>
        <time>2022-11-20T14:20:23.000Z</time>
      </trkpt>
      <trkpt lat="37.08838667" lon="-3.383065">
        <ele>2613.0</ele>
        <time>2022-11-20T14:20:24.000Z</time>
      </trkpt>
      <trkpt lat="37.08840167" lon="-3.38306667">
        <ele>2613.0</ele>
        <time>2022-11-20T14:20:25.000Z</time>
      </trkpt>
      <trkpt lat="37.088415" lon="-3.38307">
        <ele>2613.0</ele>
        <time>2022-11-20T14:20:26.000Z</time>
      </trkpt>
      <trkpt lat="37.08843" lon="-3.38307167">
        <ele>2613.0</ele>
        <time>2022-11-20T14:20:27.000Z</time>
      </trkpt>
      <trkpt lat="37.08844333" lon="-3.38307833">
        <ele>2612.0</ele>
        <time>2022-11-20T14:20:28.000Z</time>
      </trkpt>
      <trkpt lat="37.08845667" lon="-3.383085">
        <ele>2612.0</ele>
        <time>2022-11-20T14:20:29.000Z</time>
      </trkpt>
      <trkpt lat="37.08847167" lon="-3.38309">
        <ele>2612.0</ele>
        <time>2022-11-20T14:20:30.000Z</time>
      </trkpt>
      <trkpt lat="37.08848667" lon="-3.38309667">
        <ele>2612.0</ele>
        <time>2022-11-20T14:20:31.000Z</time>
      </trkpt>
      <trkpt lat="37.08850167" lon="-3.38310333">
        <ele>2612.0</ele>
        <time>2022-11-20T14:20:32.000Z</time>
      </trkpt>
      <trkpt lat="37.08851667" lon="-3.38310833">
        <ele>2612.0</ele>
        <time>2022-11-20T14:20:33.000Z</time>
      </trkpt>
      <trkpt lat="37.08853" lon="-3.38311167">
        <ele>2612.0</ele>
        <time>2022-11-20T14:20:34.000Z</time>
      </trkpt>
      <trkpt lat="37.088545" lon="-3.383115">
        <ele>2612.0</ele>
        <time>2022-11-20T14:20:35.000Z</time>
      </trkpt>
      <trkpt lat="37.08856" lon="-3.38311833">
        <ele>2611.0</ele>
        <time>2022-11-20T14:20:36.000Z</time>
      </trkpt>
      <trkpt lat="37.08857333" lon="-3.38312167">
        <ele>2611.0</ele>
        <time>2022-11-20T14:20:37.000Z</time>
      </trkpt>
      <trkpt lat="37.08858833" lon="-3.383125">
        <ele>2611.0</ele>
        <time>2022-11-20T14:20:38.000Z</time>
      </trkpt>
      <trkpt lat="37.08860167" lon="-3.38313">
        <ele>2611.0</ele>
        <time>2022-11-20T14:20:39.000Z</time>
      </trkpt>
      <trkpt lat="37.088615" lon="-3.38313333">
        <ele>2611.0</ele>
        <time>2022-11-20T14:20:40.000Z</time>
      </trkpt>
      <trkpt lat="37.08863" lon="-3.383135">
        <ele>2611.0</ele>
        <time>2022-11-20T14:20:41.000Z</time>
      </trkpt>
      <trkpt lat="37.08864333" lon="-3.38313667">
        <ele>2611.0</ele>
        <time>2022-11-20T14:20:42.000Z</time>
      </trkpt>
      <trkpt lat="37.08865667" lon="-3.38313833">
        <ele>2611.0</ele>
        <time>2022-11-20T14:20:43.000Z</time>
      </trkpt>
      <trkpt lat="37.08867" lon="-3.38313833">
        <ele>2611.0</ele>
        <time>2022-11-20T14:20:44.000Z</time>
      </trkpt>
      <trkpt lat="37.08868333" lon="-3.38314">
        <ele>2611.0</ele>
        <time>2022-11-20T14:20:45.000Z</time>
      </trkpt>
      <trkpt lat="37.088695" lon="-3.383145">
        <ele>2611.0</ele>
        <time>2022-11-20T14:20:46.000Z</time>
      </trkpt>
      <trkpt lat="37.08870667" lon="-3.38315">
        <ele>2611.0</ele>
        <time>2022-11-20T14:20:47.000Z</time>
      </trkpt>
      <trkpt lat="37.08871833" lon="-3.38315833">
        <ele>2611.0</ele>
        <time>2022-11-20T14:20:48.000Z</time>
      </trkpt>
      <trkpt lat="37.08872833" lon="-3.383165">
        <ele>2611.0</ele>
        <time>2022-11-20T14:20:49.000Z</time>
      </trkpt>
      <trkpt lat="37.08873833" lon="-3.38317333">
        <ele>2611.0</ele>
        <time>2022-11-20T14:20:50.000Z</time>
      </trkpt>
      <trkpt lat="37.08875" lon="-3.38318">
        <ele>2611.0</ele>
        <time>2022-11-20T14:20:51.000Z</time>
      </trkpt>
      <trkpt lat="37.08876" lon="-3.38318833">
        <ele>2611.0</ele>
        <time>2022-11-20T14:20:52.000Z</time>
      </trkpt>
      <trkpt lat="37.08877" lon="-3.38319667">
        <ele>2611.0</ele>
        <time>2022-11-20T14:20:53.000Z</time>
      </trkpt>
      <trkpt lat="37.08878167" lon="-3.383205">
        <ele>2611.0</ele>
        <time>2022-11-20T14:20:54.000Z</time>
      </trkpt>
      <trkpt lat="37.08879167" lon="-3.38321333">
        <ele>2611.0</ele>
        <time>2022-11-20T14:20:55.000Z</time>
      </trkpt>
      <trkpt lat="37.08880333" lon="-3.38322333">
        <ele>2611.0</ele>
        <time>2022-11-20T14:20:56.000Z</time>
      </trkpt>
      <trkpt lat="37.08881333" lon="-3.383235">
        <ele>2611.0</ele>
        <time>2022-11-20T14:20:57.000Z</time>
      </trkpt>
      <trkpt lat="37.08882167" lon="-3.383245">
        <ele>2611.0</ele>
        <time>2022-11-20T14:20:58.000Z</time>
      </trkpt>
      <trkpt lat="37.088825" lon="-3.38325167">
        <ele>2611.0</ele>
        <time>2022-11-20T14:20:59.000Z</time>
      </trkpt>
      <trkpt lat="37.088825" lon="-3.38325333">
        <ele>2611.0</ele>
        <time>2022-11-20T14:21:00.000Z</time>
      </trkpt>
      <trkpt lat="37.08882667" lon="-3.383255">
        <ele>2611.0</ele>
        <time>2022-11-20T14:21:01.000Z</time>
      </trkpt>
      <trkpt lat="37.08882833" lon="-3.38325667">
        <ele>2611.0</ele>
        <time>2022-11-20T14:21:02.000Z</time>
      </trkpt>
      <trkpt lat="37.08882833" lon="-3.38325667">
        <ele>2611.0</ele>
        <time>2022-11-20T14:21:03.000Z</time>
      </trkpt>
      <trkpt lat="37.08882833" lon="-3.38325833">
        <ele>2611.0</ele>
        <time>2022-11-20T14:21:04.000Z</time>
      </trkpt>
      <trkpt lat="37.08883333" lon="-3.383265">
        <ele>2611.0</ele>
        <time>2022-11-20T14:21:05.000Z</time>
      </trkpt>
      <trkpt lat="37.08884167" lon="-3.383275">
        <ele>2611.0</ele>
        <time>2022-11-20T14:21:06.000Z</time>
      </trkpt>
      <trkpt lat="37.08884833" lon="-3.38328833">
        <ele>2611.0</ele>
        <time>2022-11-20T14:21:07.000Z</time>
      </trkpt>
      <trkpt lat="37.088855" lon="-3.38330333">
        <ele>2611.0</ele>
        <time>2022-11-20T14:21:08.000Z</time>
      </trkpt>
      <trkpt lat="37.08886333" lon="-3.383315">
        <ele>2611.0</ele>
        <time>2022-11-20T14:21:09.000Z</time>
      </trkpt>
      <trkpt lat="37.08887167" lon="-3.383325">
        <ele>2611.0</ele>
        <time>2022-11-20T14:21:10.000Z</time>
      </trkpt>
      <trkpt lat="37.08888167" lon="-3.38333333">
        <ele>2610.0</ele>
        <time>2022-11-20T14:21:11.000Z</time>
      </trkpt>
      <trkpt lat="37.08889333" lon="-3.38334333">
        <ele>2610.0</ele>
        <time>2022-11-20T14:21:12.000Z</time>
      </trkpt>
      <trkpt lat="37.088905" lon="-3.38335167">
        <ele>2610.0</ele>
        <time>2022-11-20T14:21:13.000Z</time>
      </trkpt>
      <trkpt lat="37.08891667" lon="-3.38335833">
        <ele>2610.0</ele>
        <time>2022-11-20T14:21:14.000Z</time>
      </trkpt>
      <trkpt lat="37.08893" lon="-3.38336333">
        <ele>2610.0</ele>
        <time>2022-11-20T14:21:15.000Z</time>
      </trkpt>
      <trkpt lat="37.08894333" lon="-3.38336833">
        <ele>2610.0</ele>
        <time>2022-11-20T14:21:16.000Z</time>
      </trkpt>
      <trkpt lat="37.08895667" lon="-3.383375">
        <ele>2610.0</ele>
        <time>2022-11-20T14:21:17.000Z</time>
      </trkpt>
      <trkpt lat="37.08897167" lon="-3.38338">
        <ele>2610.0</ele>
        <time>2022-11-20T14:21:18.000Z</time>
      </trkpt>
      <trkpt lat="37.08898333" lon="-3.38338667">
        <ele>2610.0</ele>
        <time>2022-11-20T14:21:19.000Z</time>
      </trkpt>
      <trkpt lat="37.08899667" lon="-3.38339167">
        <ele>2610.0</ele>
        <time>2022-11-20T14:21:20.000Z</time>
      </trkpt>
      <trkpt lat="37.08901" lon="-3.38339667">
        <ele>2610.0</ele>
        <time>2022-11-20T14:21:21.000Z</time>
      </trkpt>
      <trkpt lat="37.08902167" lon="-3.38340167">
        <ele>2610.0</ele>
        <time>2022-11-20T14:21:22.000Z</time>
      </trkpt>
      <trkpt lat="37.089035" lon="-3.38340833">
        <ele>2610.0</ele>
        <time>2022-11-20T14:21:23.000Z</time>
      </trkpt>
      <trkpt lat="37.08904667" lon="-3.38341333">
        <ele>2610.0</ele>
        <time>2022-11-20T14:21:24.000Z</time>
      </trkpt>
      <trkpt lat="37.08906167" lon="-3.38342">
        <ele>2610.0</ele>
        <time>2022-11-20T14:21:25.000Z</time>
      </trkpt>
      <trkpt lat="37.089075" lon="-3.383425">
        <ele>2610.0</ele>
        <time>2022-11-20T14:21:26.000Z</time>
      </trkpt>
      <trkpt lat="37.08909" lon="-3.38342833">
        <ele>2610.0</ele>
        <time>2022-11-20T14:21:27.000Z</time>
      </trkpt>
      <trkpt lat="37.08910333" lon="-3.38343167">
        <ele>2610.0</ele>
        <time>2022-11-20T14:21:28.000Z</time>
      </trkpt>
      <trkpt lat="37.08911667" lon="-3.383435">
        <ele>2610.0</ele>
        <time>2022-11-20T14:21:29.000Z</time>
      </trkpt>
      <trkpt lat="37.08913167" lon="-3.38343833">
        <ele>2610.0</ele>
        <time>2022-11-20T14:21:30.000Z</time>
      </trkpt>
      <trkpt lat="37.089145" lon="-3.383445">
        <ele>2609.0</ele>
        <time>2022-11-20T14:21:31.000Z</time>
      </trkpt>
      <trkpt lat="37.08915833" lon="-3.38345">
        <ele>2609.0</ele>
        <time>2022-11-20T14:21:32.000Z</time>
      </trkpt>
      <trkpt lat="37.08917167" lon="-3.38345667">
        <ele>2609.0</ele>
        <time>2022-11-20T14:21:33.000Z</time>
      </trkpt>
      <trkpt lat="37.08918667" lon="-3.383465">
        <ele>2609.0</ele>
        <time>2022-11-20T14:21:34.000Z</time>
      </trkpt>
      <trkpt lat="37.08919833" lon="-3.383475">
        <ele>2609.0</ele>
        <time>2022-11-20T14:21:35.000Z</time>
      </trkpt>
      <trkpt lat="37.08921167" lon="-3.38348333">
        <ele>2609.0</ele>
        <time>2022-11-20T14:21:36.000Z</time>
      </trkpt>
      <trkpt lat="37.08922333" lon="-3.38349333">
        <ele>2609.0</ele>
        <time>2022-11-20T14:21:37.000Z</time>
      </trkpt>
      <trkpt lat="37.08923333" lon="-3.38350167">
        <ele>2609.0</ele>
        <time>2022-11-20T14:21:38.000Z</time>
      </trkpt>
      <trkpt lat="37.089245" lon="-3.38351">
        <ele>2609.0</ele>
        <time>2022-11-20T14:21:39.000Z</time>
      </trkpt>
      <trkpt lat="37.08925667" lon="-3.38351667">
        <ele>2608.0</ele>
        <time>2022-11-20T14:21:40.000Z</time>
      </trkpt>
      <trkpt lat="37.08926833" lon="-3.38352167">
        <ele>2608.0</ele>
        <time>2022-11-20T14:21:41.000Z</time>
      </trkpt>
      <trkpt lat="37.08928333" lon="-3.383525">
        <ele>2608.0</ele>
        <time>2022-11-20T14:21:42.000Z</time>
      </trkpt>
      <trkpt lat="37.089295" lon="-3.38352667">
        <ele>2608.0</ele>
        <time>2022-11-20T14:21:43.000Z</time>
      </trkpt>
      <trkpt lat="37.08930833" lon="-3.38353167">
        <ele>2608.0</ele>
        <time>2022-11-20T14:21:44.000Z</time>
      </trkpt>
      <trkpt lat="37.08931833" lon="-3.383535">
        <ele>2608.0</ele>
        <time>2022-11-20T14:21:45.000Z</time>
      </trkpt>
      <trkpt lat="37.08932833" lon="-3.38353667">
        <ele>2608.0</ele>
        <time>2022-11-20T14:21:46.000Z</time>
      </trkpt>
      <trkpt lat="37.08933833" lon="-3.38353667">
        <ele>2607.0</ele>
        <time>2022-11-20T14:21:47.000Z</time>
      </trkpt>
      <trkpt lat="37.08934833" lon="-3.38352833">
        <ele>2607.0</ele>
        <time>2022-11-20T14:21:48.000Z</time>
      </trkpt>
      <trkpt lat="37.08936" lon="-3.38352167">
        <ele>2607.0</ele>
        <time>2022-11-20T14:21:49.000Z</time>
      </trkpt>
      <trkpt lat="37.08937333" lon="-3.38352167">
        <ele>2607.0</ele>
        <time>2022-11-20T14:21:50.000Z</time>
      </trkpt>
      <trkpt lat="37.08939" lon="-3.38352833">
        <ele>2607.0</ele>
        <time>2022-11-20T14:21:51.000Z</time>
      </trkpt>
      <trkpt lat="37.08940333" lon="-3.38353667">
        <ele>2606.0</ele>
        <time>2022-11-20T14:21:52.000Z</time>
      </trkpt>
      <trkpt lat="37.08941167" lon="-3.38354667">
        <ele>2606.0</ele>
        <time>2022-11-20T14:21:53.000Z</time>
      </trkpt>
      <trkpt lat="37.08941" lon="-3.38355667">
        <ele>2606.0</ele>
        <time>2022-11-20T14:21:54.000Z</time>
      </trkpt>
      <trkpt lat="37.08940333" lon="-3.383565">
        <ele>2606.0</ele>
        <time>2022-11-20T14:21:55.000Z</time>
      </trkpt>
      <trkpt lat="37.089395" lon="-3.383575">
        <ele>2606.0</ele>
        <time>2022-11-20T14:21:56.000Z</time>
      </trkpt>
      <trkpt lat="37.08939" lon="-3.38358667">
        <ele>2605.0</ele>
        <time>2022-11-20T14:21:57.000Z</time>
      </trkpt>
      <trkpt lat="37.08938667" lon="-3.38360167">
        <ele>2605.0</ele>
        <time>2022-11-20T14:21:58.000Z</time>
      </trkpt>
      <trkpt lat="37.08938667" lon="-3.38361833">
        <ele>2605.0</ele>
        <time>2022-11-20T14:21:59.000Z</time>
      </trkpt>
      <trkpt lat="37.08938667" lon="-3.38363333">
        <ele>2605.0</ele>
        <time>2022-11-20T14:22:00.000Z</time>
      </trkpt>
      <trkpt lat="37.08939" lon="-3.38364667">
        <ele>2605.0</ele>
        <time>2022-11-20T14:22:01.000Z</time>
      </trkpt>
      <trkpt lat="37.08939667" lon="-3.38365833">
        <ele>2604.0</ele>
        <time>2022-11-20T14:22:02.000Z</time>
      </trkpt>
      <trkpt lat="37.089405" lon="-3.38366833">
        <ele>2604.0</ele>
        <time>2022-11-20T14:22:03.000Z</time>
      </trkpt>
      <trkpt lat="37.089415" lon="-3.38367833">
        <ele>2604.0</ele>
        <time>2022-11-20T14:22:04.000Z</time>
      </trkpt>
      <trkpt lat="37.08942333" lon="-3.38368833">
        <ele>2604.0</ele>
        <time>2022-11-20T14:22:05.000Z</time>
      </trkpt>
      <trkpt lat="37.08943167" lon="-3.38369833">
        <ele>2604.0</ele>
        <time>2022-11-20T14:22:06.000Z</time>
      </trkpt>
      <trkpt lat="37.08944167" lon="-3.38370833">
        <ele>2603.0</ele>
        <time>2022-11-20T14:22:07.000Z</time>
      </trkpt>
      <trkpt lat="37.08945167" lon="-3.38371667">
        <ele>2603.0</ele>
        <time>2022-11-20T14:22:08.000Z</time>
      </trkpt>
      <trkpt lat="37.089465" lon="-3.383725">
        <ele>2603.0</ele>
        <time>2022-11-20T14:22:09.000Z</time>
      </trkpt>
      <trkpt lat="37.08947667" lon="-3.38372833">
        <ele>2603.0</ele>
        <time>2022-11-20T14:22:10.000Z</time>
      </trkpt>
      <trkpt lat="37.08948833" lon="-3.38373">
        <ele>2602.0</ele>
        <time>2022-11-20T14:22:11.000Z</time>
      </trkpt>
      <trkpt lat="37.08950167" lon="-3.38372833">
        <ele>2602.0</ele>
        <time>2022-11-20T14:22:12.000Z</time>
      </trkpt>
      <trkpt lat="37.08951333" lon="-3.38372667">
        <ele>2602.0</ele>
        <time>2022-11-20T14:22:13.000Z</time>
      </trkpt>
      <trkpt lat="37.08952833" lon="-3.38372167">
        <ele>2602.0</ele>
        <time>2022-11-20T14:22:14.000Z</time>
      </trkpt>
      <trkpt lat="37.08954667" lon="-3.38372167">
        <ele>2602.0</ele>
        <time>2022-11-20T14:22:15.000Z</time>
      </trkpt>
      <trkpt lat="37.08956333" lon="-3.38372">
        <ele>2602.0</ele>
        <time>2022-11-20T14:22:16.000Z</time>
      </trkpt>
      <trkpt lat="37.08957667" lon="-3.38371833">
        <ele>2602.0</ele>
        <time>2022-11-20T14:22:17.000Z</time>
      </trkpt>
      <trkpt lat="37.08958833" lon="-3.38371667">
        <ele>2602.0</ele>
        <time>2022-11-20T14:22:18.000Z</time>
      </trkpt>
      <trkpt lat="37.08959833" lon="-3.38371">
        <ele>2601.0</ele>
        <time>2022-11-20T14:22:19.000Z</time>
      </trkpt>
      <trkpt lat="37.08961" lon="-3.383705">
        <ele>2601.0</ele>
        <time>2022-11-20T14:22:20.000Z</time>
      </trkpt>
      <trkpt lat="37.08962167" lon="-3.3837">
        <ele>2601.0</ele>
        <time>2022-11-20T14:22:21.000Z</time>
      </trkpt>
      <trkpt lat="37.089635" lon="-3.38369333">
        <ele>2601.0</ele>
        <time>2022-11-20T14:22:22.000Z</time>
      </trkpt>
      <trkpt lat="37.08964833" lon="-3.38368333">
        <ele>2601.0</ele>
        <time>2022-11-20T14:22:23.000Z</time>
      </trkpt>
      <trkpt lat="37.08966" lon="-3.38367333">
        <ele>2600.0</ele>
        <time>2022-11-20T14:22:24.000Z</time>
      </trkpt>
      <trkpt lat="37.08967" lon="-3.38366333">
        <ele>2600.0</ele>
        <time>2022-11-20T14:22:25.000Z</time>
      </trkpt>
      <trkpt lat="37.08968167" lon="-3.383655">
        <ele>2600.0</ele>
        <time>2022-11-20T14:22:26.000Z</time>
      </trkpt>
      <trkpt lat="37.089695" lon="-3.38364833">
        <ele>2599.0</ele>
        <time>2022-11-20T14:22:27.000Z</time>
      </trkpt>
      <trkpt lat="37.08970833" lon="-3.38364167">
        <ele>2599.0</ele>
        <time>2022-11-20T14:22:28.000Z</time>
      </trkpt>
      <trkpt lat="37.08971833" lon="-3.38363833">
        <ele>2599.0</ele>
        <time>2022-11-20T14:22:29.000Z</time>
      </trkpt>
      <trkpt lat="37.08973167" lon="-3.383635">
        <ele>2598.0</ele>
        <time>2022-11-20T14:22:30.000Z</time>
      </trkpt>
      <trkpt lat="37.089745" lon="-3.38363333">
        <ele>2598.0</ele>
        <time>2022-11-20T14:22:31.000Z</time>
      </trkpt>
      <trkpt lat="37.08975833" lon="-3.38363">
        <ele>2598.0</ele>
        <time>2022-11-20T14:22:32.000Z</time>
      </trkpt>
      <trkpt lat="37.08977167" lon="-3.38362333">
        <ele>2598.0</ele>
        <time>2022-11-20T14:22:33.000Z</time>
      </trkpt>
      <trkpt lat="37.08978333" lon="-3.38361667">
        <ele>2597.0</ele>
        <time>2022-11-20T14:22:34.000Z</time>
      </trkpt>
      <trkpt lat="37.08979333" lon="-3.383605">
        <ele>2597.0</ele>
        <time>2022-11-20T14:22:35.000Z</time>
      </trkpt>
      <trkpt lat="37.08980667" lon="-3.38359667">
        <ele>2597.0</ele>
        <time>2022-11-20T14:22:36.000Z</time>
      </trkpt>
      <trkpt lat="37.08981833" lon="-3.38359">
        <ele>2597.0</ele>
        <time>2022-11-20T14:22:37.000Z</time>
      </trkpt>
      <trkpt lat="37.08983167" lon="-3.383585">
        <ele>2597.0</ele>
        <time>2022-11-20T14:22:38.000Z</time>
      </trkpt>
      <trkpt lat="37.08984667" lon="-3.38358">
        <ele>2597.0</ele>
        <time>2022-11-20T14:22:39.000Z</time>
      </trkpt>
      <trkpt lat="37.08986167" lon="-3.383575">
        <ele>2596.0</ele>
        <time>2022-11-20T14:22:40.000Z</time>
      </trkpt>
      <trkpt lat="37.089875" lon="-3.38356833">
        <ele>2596.0</ele>
        <time>2022-11-20T14:22:41.000Z</time>
      </trkpt>
      <trkpt lat="37.08988833" lon="-3.38356333">
        <ele>2596.0</ele>
        <time>2022-11-20T14:22:42.000Z</time>
      </trkpt>
      <trkpt lat="37.08990167" lon="-3.38356">
        <ele>2596.0</ele>
        <time>2022-11-20T14:22:43.000Z</time>
      </trkpt>
      <trkpt lat="37.08991667" lon="-3.38355667">
        <ele>2596.0</ele>
        <time>2022-11-20T14:22:44.000Z</time>
      </trkpt>
      <trkpt lat="37.08993167" lon="-3.38355333">
        <ele>2595.0</ele>
        <time>2022-11-20T14:22:45.000Z</time>
      </trkpt>
      <trkpt lat="37.08994333" lon="-3.38354667">
        <ele>2595.0</ele>
        <time>2022-11-20T14:22:46.000Z</time>
      </trkpt>
      <trkpt lat="37.089955" lon="-3.38353833">
        <ele>2595.0</ele>
        <time>2022-11-20T14:22:47.000Z</time>
      </trkpt>
      <trkpt lat="37.08996833" lon="-3.38353333">
        <ele>2595.0</ele>
        <time>2022-11-20T14:22:48.000Z</time>
      </trkpt>
      <trkpt lat="37.08998333" lon="-3.38352667">
        <ele>2594.0</ele>
        <time>2022-11-20T14:22:49.000Z</time>
      </trkpt>
      <trkpt lat="37.089995" lon="-3.38352">
        <ele>2594.0</ele>
        <time>2022-11-20T14:22:50.000Z</time>
      </trkpt>
      <trkpt lat="37.09000667" lon="-3.38351333">
        <ele>2594.0</ele>
        <time>2022-11-20T14:22:51.000Z</time>
      </trkpt>
      <trkpt lat="37.09002167" lon="-3.38350667">
        <ele>2594.0</ele>
        <time>2022-11-20T14:22:52.000Z</time>
      </trkpt>
      <trkpt lat="37.090035" lon="-3.38350667">
        <ele>2593.0</ele>
        <time>2022-11-20T14:22:53.000Z</time>
      </trkpt>
      <trkpt lat="37.09004833" lon="-3.38351">
        <ele>2593.0</ele>
        <time>2022-11-20T14:22:54.000Z</time>
      </trkpt>
      <trkpt lat="37.09006" lon="-3.38351">
        <ele>2593.0</ele>
        <time>2022-11-20T14:22:55.000Z</time>
      </trkpt>
      <trkpt lat="37.09007333" lon="-3.38350833">
        <ele>2593.0</ele>
        <time>2022-11-20T14:22:56.000Z</time>
      </trkpt>
      <trkpt lat="37.09008667" lon="-3.383505">
        <ele>2592.0</ele>
        <time>2022-11-20T14:22:57.000Z</time>
      </trkpt>
      <trkpt lat="37.0901" lon="-3.38350333">
        <ele>2592.0</ele>
        <time>2022-11-20T14:22:58.000Z</time>
      </trkpt>
      <trkpt lat="37.09011333" lon="-3.38350167">
        <ele>2592.0</ele>
        <time>2022-11-20T14:22:59.000Z</time>
      </trkpt>
      <trkpt lat="37.09012833" lon="-3.383505">
        <ele>2591.0</ele>
        <time>2022-11-20T14:23:00.000Z</time>
      </trkpt>
      <trkpt lat="37.09014167" lon="-3.38351">
        <ele>2591.0</ele>
        <time>2022-11-20T14:23:01.000Z</time>
      </trkpt>
      <trkpt lat="37.090155" lon="-3.38351833">
        <ele>2591.0</ele>
        <time>2022-11-20T14:23:02.000Z</time>
      </trkpt>
      <trkpt lat="37.09017" lon="-3.383525">
        <ele>2591.0</ele>
        <time>2022-11-20T14:23:03.000Z</time>
      </trkpt>
      <trkpt lat="37.09018167" lon="-3.38352833">
        <ele>2591.0</ele>
        <time>2022-11-20T14:23:04.000Z</time>
      </trkpt>
      <trkpt lat="37.09019667" lon="-3.38353167">
        <ele>2591.0</ele>
        <time>2022-11-20T14:23:05.000Z</time>
      </trkpt>
      <trkpt lat="37.09021" lon="-3.38353333">
        <ele>2591.0</ele>
        <time>2022-11-20T14:23:06.000Z</time>
      </trkpt>
      <trkpt lat="37.09022" lon="-3.38353833">
        <ele>2591.0</ele>
        <time>2022-11-20T14:23:07.000Z</time>
      </trkpt>
      <trkpt lat="37.09023167" lon="-3.383545">
        <ele>2591.0</ele>
        <time>2022-11-20T14:23:08.000Z</time>
      </trkpt>
      <trkpt lat="37.090245" lon="-3.38355">
        <ele>2591.0</ele>
        <time>2022-11-20T14:23:09.000Z</time>
      </trkpt>
      <trkpt lat="37.09025667" lon="-3.38355667">
        <ele>2591.0</ele>
        <time>2022-11-20T14:23:10.000Z</time>
      </trkpt>
      <trkpt lat="37.09026833" lon="-3.383565">
        <ele>2591.0</ele>
        <time>2022-11-20T14:23:11.000Z</time>
      </trkpt>
      <trkpt lat="37.09028" lon="-3.38357333">
        <ele>2591.0</ele>
        <time>2022-11-20T14:23:12.000Z</time>
      </trkpt>
      <trkpt lat="37.09028833" lon="-3.38358">
        <ele>2590.0</ele>
        <time>2022-11-20T14:23:13.000Z</time>
      </trkpt>
      <trkpt lat="37.09029667" lon="-3.38358333">
        <ele>2590.0</ele>
        <time>2022-11-20T14:23:14.000Z</time>
      </trkpt>
      <trkpt lat="37.09030667" lon="-3.38358833">
        <ele>2590.0</ele>
        <time>2022-11-20T14:23:15.000Z</time>
      </trkpt>
      <trkpt lat="37.09031667" lon="-3.38359167">
        <ele>2590.0</ele>
        <time>2022-11-20T14:23:16.000Z</time>
      </trkpt>
      <trkpt lat="37.09032167" lon="-3.38359667">
        <ele>2590.0</ele>
        <time>2022-11-20T14:23:17.000Z</time>
      </trkpt>
      <trkpt lat="37.09032667" lon="-3.38360167">
        <ele>2589.0</ele>
        <time>2022-11-20T14:23:18.000Z</time>
      </trkpt>
      <trkpt lat="37.09033167" lon="-3.38360667">
        <ele>2589.0</ele>
        <time>2022-11-20T14:23:19.000Z</time>
      </trkpt>
      <trkpt lat="37.09034" lon="-3.383615">
        <ele>2589.0</ele>
        <time>2022-11-20T14:23:20.000Z</time>
      </trkpt>
      <trkpt lat="37.09034833" lon="-3.38362333">
        <ele>2589.0</ele>
        <time>2022-11-20T14:23:21.000Z</time>
      </trkpt>
      <trkpt lat="37.09036" lon="-3.38363167">
        <ele>2588.0</ele>
        <time>2022-11-20T14:23:22.000Z</time>
      </trkpt>
      <trkpt lat="37.09037167" lon="-3.383645">
        <ele>2588.0</ele>
        <time>2022-11-20T14:23:23.000Z</time>
      </trkpt>
      <trkpt lat="37.09038333" lon="-3.38365833">
        <ele>2588.0</ele>
        <time>2022-11-20T14:23:24.000Z</time>
      </trkpt>
      <trkpt lat="37.090395" lon="-3.38366667">
        <ele>2587.0</ele>
        <time>2022-11-20T14:23:25.000Z</time>
      </trkpt>
      <trkpt lat="37.09041" lon="-3.38367333">
        <ele>2587.0</ele>
        <time>2022-11-20T14:23:26.000Z</time>
      </trkpt>
      <trkpt lat="37.090425" lon="-3.38368">
        <ele>2587.0</ele>
        <time>2022-11-20T14:23:27.000Z</time>
      </trkpt>
      <trkpt lat="37.09044" lon="-3.38368667">
        <ele>2587.0</ele>
        <time>2022-11-20T14:23:28.000Z</time>
      </trkpt>
      <trkpt lat="37.09045667" lon="-3.383695">
        <ele>2587.0</ele>
        <time>2022-11-20T14:23:29.000Z</time>
      </trkpt>
      <trkpt lat="37.09046833" lon="-3.38370667">
        <ele>2586.0</ele>
        <time>2022-11-20T14:23:30.000Z</time>
      </trkpt>
      <trkpt lat="37.09048" lon="-3.38371667">
        <ele>2586.0</ele>
        <time>2022-11-20T14:23:31.000Z</time>
      </trkpt>
      <trkpt lat="37.09049" lon="-3.38373167">
        <ele>2586.0</ele>
        <time>2022-11-20T14:23:32.000Z</time>
      </trkpt>
      <trkpt lat="37.09049833" lon="-3.38374667">
        <ele>2585.0</ele>
        <time>2022-11-20T14:23:33.000Z</time>
      </trkpt>
      <trkpt lat="37.09050667" lon="-3.38375833">
        <ele>2585.0</ele>
        <time>2022-11-20T14:23:34.000Z</time>
      </trkpt>
      <trkpt lat="37.09051167" lon="-3.383765">
        <ele>2585.0</ele>
        <time>2022-11-20T14:23:35.000Z</time>
      </trkpt>
      <trkpt lat="37.09051167" lon="-3.38376667">
        <ele>2585.0</ele>
        <time>2022-11-20T14:23:36.000Z</time>
      </trkpt>
      <trkpt lat="37.09051333" lon="-3.38376833">
        <ele>2585.0</ele>
        <time>2022-11-20T14:23:37.000Z</time>
      </trkpt>
      <trkpt lat="37.09052" lon="-3.38377">
        <ele>2585.0</ele>
        <time>2022-11-20T14:23:38.000Z</time>
      </trkpt>
      <trkpt lat="37.09052833" lon="-3.38377667">
        <ele>2585.0</ele>
        <time>2022-11-20T14:23:39.000Z</time>
      </trkpt>
      <trkpt lat="37.09053833" lon="-3.38378167">
        <ele>2584.0</ele>
        <time>2022-11-20T14:23:40.000Z</time>
      </trkpt>
      <trkpt lat="37.09054667" lon="-3.38378667">
        <ele>2584.0</ele>
        <time>2022-11-20T14:23:41.000Z</time>
      </trkpt>
      <trkpt lat="37.090555" lon="-3.38379167">
        <ele>2584.0</ele>
        <time>2022-11-20T14:23:42.000Z</time>
      </trkpt>
      <trkpt lat="37.09056333" lon="-3.383795">
        <ele>2584.0</ele>
        <time>2022-11-20T14:23:43.000Z</time>
      </trkpt>
      <trkpt lat="37.09057167" lon="-3.38379833">
        <ele>2584.0</ele>
        <time>2022-11-20T14:23:44.000Z</time>
      </trkpt>
      <trkpt lat="37.09058" lon="-3.38380333">
        <ele>2583.0</ele>
        <time>2022-11-20T14:23:45.000Z</time>
      </trkpt>
      <trkpt lat="37.090585" lon="-3.38381167">
        <ele>2583.0</ele>
        <time>2022-11-20T14:23:46.000Z</time>
      </trkpt>
      <trkpt lat="37.09058833" lon="-3.38381833">
        <ele>2583.0</ele>
        <time>2022-11-20T14:23:47.000Z</time>
      </trkpt>
      <trkpt lat="37.09059167" lon="-3.38382167">
        <ele>2583.0</ele>
        <time>2022-11-20T14:23:48.000Z</time>
      </trkpt>
      <trkpt lat="37.09059667" lon="-3.38382667">
        <ele>2583.0</ele>
        <time>2022-11-20T14:23:49.000Z</time>
      </trkpt>
      <trkpt lat="37.09060333" lon="-3.383835">
        <ele>2583.0</ele>
        <time>2022-11-20T14:23:50.000Z</time>
      </trkpt>
      <trkpt lat="37.09061167" lon="-3.38384167">
        <ele>2583.0</ele>
        <time>2022-11-20T14:23:51.000Z</time>
      </trkpt>
      <trkpt lat="37.09062167" lon="-3.38384667">
        <ele>2582.0</ele>
        <time>2022-11-20T14:23:52.000Z</time>
      </trkpt>
      <trkpt lat="37.09063" lon="-3.38385333">
        <ele>2582.0</ele>
        <time>2022-11-20T14:23:53.000Z</time>
      </trkpt>
      <trkpt lat="37.09063833" lon="-3.38385833">
        <ele>2582.0</ele>
        <time>2022-11-20T14:23:54.000Z</time>
      </trkpt>
      <trkpt lat="37.09065" lon="-3.38386333">
        <ele>2582.0</ele>
        <time>2022-11-20T14:23:55.000Z</time>
      </trkpt>
      <trkpt lat="37.09065833" lon="-3.38386833">
        <ele>2582.0</ele>
        <time>2022-11-20T14:23:56.000Z</time>
      </trkpt>
      <trkpt lat="37.09066667" lon="-3.383875">
        <ele>2581.0</ele>
        <time>2022-11-20T14:23:57.000Z</time>
      </trkpt>
      <trkpt lat="37.090675" lon="-3.38388167">
        <ele>2581.0</ele>
        <time>2022-11-20T14:23:58.000Z</time>
      </trkpt>
      <trkpt lat="37.09068167" lon="-3.38388667">
        <ele>2581.0</ele>
        <time>2022-11-20T14:23:59.000Z</time>
      </trkpt>
      <trkpt lat="37.09068833" lon="-3.38389167">
        <ele>2580.0</ele>
        <time>2022-11-20T14:24:00.000Z</time>
      </trkpt>
      <trkpt lat="37.090695" lon="-3.38389833">
        <ele>2580.0</ele>
        <time>2022-11-20T14:24:01.000Z</time>
      </trkpt>
      <trkpt lat="37.09070167" lon="-3.383905">
        <ele>2580.0</ele>
        <time>2022-11-20T14:24:02.000Z</time>
      </trkpt>
      <trkpt lat="37.09071" lon="-3.38391">
        <ele>2580.0</ele>
        <time>2022-11-20T14:24:03.000Z</time>
      </trkpt>
      <trkpt lat="37.09071833" lon="-3.38391833">
        <ele>2579.0</ele>
        <time>2022-11-20T14:24:04.000Z</time>
      </trkpt>
      <trkpt lat="37.09072667" lon="-3.38392833">
        <ele>2579.0</ele>
        <time>2022-11-20T14:24:05.000Z</time>
      </trkpt>
      <trkpt lat="37.090735" lon="-3.38393833">
        <ele>2579.0</ele>
        <time>2022-11-20T14:24:06.000Z</time>
      </trkpt>
      <trkpt lat="37.09074333" lon="-3.38394833">
        <ele>2579.0</ele>
        <time>2022-11-20T14:24:07.000Z</time>
      </trkpt>
      <trkpt lat="37.09075167" lon="-3.38395833">
        <ele>2579.0</ele>
        <time>2022-11-20T14:24:08.000Z</time>
      </trkpt>
      <trkpt lat="37.09076" lon="-3.38396833">
        <ele>2579.0</ele>
        <time>2022-11-20T14:24:09.000Z</time>
      </trkpt>
      <trkpt lat="37.090765" lon="-3.38398">
        <ele>2578.0</ele>
        <time>2022-11-20T14:24:10.000Z</time>
      </trkpt>
      <trkpt lat="37.09077167" lon="-3.38399667">
        <ele>2578.0</ele>
        <time>2022-11-20T14:24:11.000Z</time>
      </trkpt>
      <trkpt lat="37.090775" lon="-3.38401">
        <ele>2578.0</ele>
        <time>2022-11-20T14:24:12.000Z</time>
      </trkpt>
      <trkpt lat="37.09077833" lon="-3.38402167">
        <ele>2578.0</ele>
        <time>2022-11-20T14:24:13.000Z</time>
      </trkpt>
      <trkpt lat="37.09078167" lon="-3.384035">
        <ele>2578.0</ele>
        <time>2022-11-20T14:24:14.000Z</time>
      </trkpt>
      <trkpt lat="37.090785" lon="-3.384045">
        <ele>2577.0</ele>
        <time>2022-11-20T14:24:15.000Z</time>
      </trkpt>
      <trkpt lat="37.09079" lon="-3.38405667">
        <ele>2577.0</ele>
        <time>2022-11-20T14:24:16.000Z</time>
      </trkpt>
      <trkpt lat="37.090795" lon="-3.384065">
        <ele>2577.0</ele>
        <time>2022-11-20T14:24:17.000Z</time>
      </trkpt>
      <trkpt lat="37.0908" lon="-3.384075">
        <ele>2577.0</ele>
        <time>2022-11-20T14:24:18.000Z</time>
      </trkpt>
      <trkpt lat="37.09081" lon="-3.38408333">
        <ele>2577.0</ele>
        <time>2022-11-20T14:24:19.000Z</time>
      </trkpt>
      <trkpt lat="37.09082" lon="-3.38409">
        <ele>2577.0</ele>
        <time>2022-11-20T14:24:20.000Z</time>
      </trkpt>
      <trkpt lat="37.09083" lon="-3.38409667">
        <ele>2577.0</ele>
        <time>2022-11-20T14:24:21.000Z</time>
      </trkpt>
      <trkpt lat="37.09083833" lon="-3.38410333">
        <ele>2577.0</ele>
        <time>2022-11-20T14:24:22.000Z</time>
      </trkpt>
      <trkpt lat="37.09085" lon="-3.38411">
        <ele>2576.0</ele>
        <time>2022-11-20T14:24:23.000Z</time>
      </trkpt>
      <trkpt lat="37.09085833" lon="-3.384115">
        <ele>2576.0</ele>
        <time>2022-11-20T14:24:24.000Z</time>
      </trkpt>
      <trkpt lat="37.09087" lon="-3.384125">
        <ele>2576.0</ele>
        <time>2022-11-20T14:24:25.000Z</time>
      </trkpt>
      <trkpt lat="37.09088" lon="-3.38413167">
        <ele>2576.0</ele>
        <time>2022-11-20T14:24:26.000Z</time>
      </trkpt>
      <trkpt lat="37.09089167" lon="-3.38413667">
        <ele>2576.0</ele>
        <time>2022-11-20T14:24:27.000Z</time>
      </trkpt>
      <trkpt lat="37.09090167" lon="-3.384145">
        <ele>2576.0</ele>
        <time>2022-11-20T14:24:28.000Z</time>
      </trkpt>
      <trkpt lat="37.09091" lon="-3.38415333">
        <ele>2576.0</ele>
        <time>2022-11-20T14:24:29.000Z</time>
      </trkpt>
      <trkpt lat="37.090915" lon="-3.38415833">
        <ele>2576.0</ele>
        <time>2022-11-20T14:24:30.000Z</time>
      </trkpt>
      <trkpt lat="37.09092333" lon="-3.38416167">
        <ele>2576.0</ele>
        <time>2022-11-20T14:24:31.000Z</time>
      </trkpt>
      <trkpt lat="37.090925" lon="-3.38416333">
        <ele>2576.0</ele>
        <time>2022-11-20T14:24:32.000Z</time>
      </trkpt>
      <trkpt lat="37.09092667" lon="-3.38416333">
        <ele>2576.0</ele>
        <time>2022-11-20T14:24:33.000Z</time>
      </trkpt>
      <trkpt lat="37.090925" lon="-3.38416333">
        <ele>2576.0</ele>
        <time>2022-11-20T14:24:34.000Z</time>
      </trkpt>
      <trkpt lat="37.09092667" lon="-3.384165">
        <ele>2576.0</ele>
        <time>2022-11-20T14:24:35.000Z</time>
      </trkpt>
      <trkpt lat="37.09092833" lon="-3.38416667">
        <ele>2576.0</ele>
        <time>2022-11-20T14:24:36.000Z</time>
      </trkpt>
      <trkpt lat="37.09093" lon="-3.38416667">
        <ele>2576.0</ele>
        <time>2022-11-20T14:24:37.000Z</time>
      </trkpt>
      <trkpt lat="37.090935" lon="-3.38416833">
        <ele>2576.0</ele>
        <time>2022-11-20T14:24:38.000Z</time>
      </trkpt>
      <trkpt lat="37.09094167" lon="-3.38417">
        <ele>2576.0</ele>
        <time>2022-11-20T14:24:39.000Z</time>
      </trkpt>
      <trkpt lat="37.09095167" lon="-3.38417333">
        <ele>2575.0</ele>
        <time>2022-11-20T14:24:40.000Z</time>
      </trkpt>
      <trkpt lat="37.09096333" lon="-3.384175">
        <ele>2575.0</ele>
        <time>2022-11-20T14:24:41.000Z</time>
      </trkpt>
      <trkpt lat="37.090975" lon="-3.38417833">
        <ele>2575.0</ele>
        <time>2022-11-20T14:24:42.000Z</time>
      </trkpt>
      <trkpt lat="37.09098667" lon="-3.38418167">
        <ele>2575.0</ele>
        <time>2022-11-20T14:24:43.000Z</time>
      </trkpt>
      <trkpt lat="37.091" lon="-3.38418833">
        <ele>2575.0</ele>
        <time>2022-11-20T14:24:44.000Z</time>
      </trkpt>
      <trkpt lat="37.09101333" lon="-3.38419833">
        <ele>2575.0</ele>
        <time>2022-11-20T14:24:45.000Z</time>
      </trkpt>
      <trkpt lat="37.091025" lon="-3.38420667">
        <ele>2575.0</ele>
        <time>2022-11-20T14:24:46.000Z</time>
      </trkpt>
      <trkpt lat="37.09103667" lon="-3.38421667">
        <ele>2575.0</ele>
        <time>2022-11-20T14:24:47.000Z</time>
      </trkpt>
      <trkpt lat="37.09104833" lon="-3.384225">
        <ele>2575.0</ele>
        <time>2022-11-20T14:24:48.000Z</time>
      </trkpt>
      <trkpt lat="37.09106" lon="-3.38423333">
        <ele>2574.0</ele>
        <time>2022-11-20T14:24:49.000Z</time>
      </trkpt>
      <trkpt lat="37.09107333" lon="-3.38424333">
        <ele>2574.0</ele>
        <time>2022-11-20T14:24:50.000Z</time>
      </trkpt>
      <trkpt lat="37.091085" lon="-3.38425333">
        <ele>2574.0</ele>
        <time>2022-11-20T14:24:51.000Z</time>
      </trkpt>
      <trkpt lat="37.09109833" lon="-3.38426167">
        <ele>2574.0</ele>
        <time>2022-11-20T14:24:52.000Z</time>
      </trkpt>
      <trkpt lat="37.09111" lon="-3.38427167">
        <ele>2574.0</ele>
        <time>2022-11-20T14:24:53.000Z</time>
      </trkpt>
      <trkpt lat="37.09112167" lon="-3.38428">
        <ele>2574.0</ele>
        <time>2022-11-20T14:24:54.000Z</time>
      </trkpt>
      <trkpt lat="37.09113333" lon="-3.38428833">
        <ele>2574.0</ele>
        <time>2022-11-20T14:24:55.000Z</time>
      </trkpt>
      <trkpt lat="37.09114333" lon="-3.38429667">
        <ele>2574.0</ele>
        <time>2022-11-20T14:24:56.000Z</time>
      </trkpt>
      <trkpt lat="37.091155" lon="-3.38430667">
        <ele>2573.0</ele>
        <time>2022-11-20T14:24:57.000Z</time>
      </trkpt>
      <trkpt lat="37.09116167" lon="-3.38431833">
        <ele>2573.0</ele>
        <time>2022-11-20T14:24:58.000Z</time>
      </trkpt>
      <trkpt lat="37.09117333" lon="-3.38432667">
        <ele>2573.0</ele>
        <time>2022-11-20T14:24:59.000Z</time>
      </trkpt>
      <trkpt lat="37.09118667" lon="-3.384335">
        <ele>2573.0</ele>
        <time>2022-11-20T14:25:00.000Z</time>
      </trkpt>
      <trkpt lat="37.09119833" lon="-3.38434167">
        <ele>2573.0</ele>
        <time>2022-11-20T14:25:01.000Z</time>
      </trkpt>
      <trkpt lat="37.09121" lon="-3.38435167">
        <ele>2573.0</ele>
        <time>2022-11-20T14:25:02.000Z</time>
      </trkpt>
      <trkpt lat="37.09122" lon="-3.38435667">
        <ele>2573.0</ele>
        <time>2022-11-20T14:25:03.000Z</time>
      </trkpt>
      <trkpt lat="37.09123" lon="-3.38436333">
        <ele>2572.0</ele>
        <time>2022-11-20T14:25:04.000Z</time>
      </trkpt>
      <trkpt lat="37.09124" lon="-3.38436833">
        <ele>2572.0</ele>
        <time>2022-11-20T14:25:05.000Z</time>
      </trkpt>
      <trkpt lat="37.09124833" lon="-3.38437333">
        <ele>2572.0</ele>
        <time>2022-11-20T14:25:06.000Z</time>
      </trkpt>
      <trkpt lat="37.09125833" lon="-3.38437833">
        <ele>2572.0</ele>
        <time>2022-11-20T14:25:07.000Z</time>
      </trkpt>
      <trkpt lat="37.09126833" lon="-3.38438167">
        <ele>2572.0</ele>
        <time>2022-11-20T14:25:08.000Z</time>
      </trkpt>
      <trkpt lat="37.09127667" lon="-3.38438667">
        <ele>2572.0</ele>
        <time>2022-11-20T14:25:09.000Z</time>
      </trkpt>
      <trkpt lat="37.09128667" lon="-3.38439333">
        <ele>2571.0</ele>
        <time>2022-11-20T14:25:10.000Z</time>
      </trkpt>
      <trkpt lat="37.09129333" lon="-3.38440333">
        <ele>2571.0</ele>
        <time>2022-11-20T14:25:11.000Z</time>
      </trkpt>
      <trkpt lat="37.09129833" lon="-3.38441">
        <ele>2571.0</ele>
        <time>2022-11-20T14:25:12.000Z</time>
      </trkpt>
      <trkpt lat="37.09130333" lon="-3.384415">
        <ele>2571.0</ele>
        <time>2022-11-20T14:25:13.000Z</time>
      </trkpt>
      <trkpt lat="37.09131333" lon="-3.38442333">
        <ele>2570.0</ele>
        <time>2022-11-20T14:25:14.000Z</time>
      </trkpt>
      <trkpt lat="37.09132167" lon="-3.38443333">
        <ele>2570.0</ele>
        <time>2022-11-20T14:25:15.000Z</time>
      </trkpt>
      <trkpt lat="37.09133" lon="-3.38444167">
        <ele>2570.0</ele>
        <time>2022-11-20T14:25:16.000Z</time>
      </trkpt>
      <trkpt lat="37.09134" lon="-3.38444833">
        <ele>2570.0</ele>
        <time>2022-11-20T14:25:17.000Z</time>
      </trkpt>
      <trkpt lat="37.09134667" lon="-3.38445667">
        <ele>2569.0</ele>
        <time>2022-11-20T14:25:18.000Z</time>
      </trkpt>
      <trkpt lat="37.09135333" lon="-3.38446333">
        <ele>2569.0</ele>
        <time>2022-11-20T14:25:19.000Z</time>
      </trkpt>
      <trkpt lat="37.09136167" lon="-3.38447">
        <ele>2569.0</ele>
        <time>2022-11-20T14:25:20.000Z</time>
      </trkpt>
      <trkpt lat="37.09137333" lon="-3.384475">
        <ele>2568.0</ele>
        <time>2022-11-20T14:25:21.000Z</time>
      </trkpt>
      <trkpt lat="37.09138167" lon="-3.38448">
        <ele>2568.0</ele>
        <time>2022-11-20T14:25:22.000Z</time>
      </trkpt>
      <trkpt lat="37.09139333" lon="-3.384485">
        <ele>2568.0</ele>
        <time>2022-11-20T14:25:23.000Z</time>
      </trkpt>
      <trkpt lat="37.091405" lon="-3.38449">
        <ele>2568.0</ele>
        <time>2022-11-20T14:25:24.000Z</time>
      </trkpt>
      <trkpt lat="37.091415" lon="-3.38449333">
        <ele>2567.0</ele>
        <time>2022-11-20T14:25:25.000Z</time>
      </trkpt>
      <trkpt lat="37.091425" lon="-3.384495">
        <ele>2567.0</ele>
        <time>2022-11-20T14:25:26.000Z</time>
      </trkpt>
      <trkpt lat="37.091435" lon="-3.38449833">
        <ele>2567.0</ele>
        <time>2022-11-20T14:25:27.000Z</time>
      </trkpt>
      <trkpt lat="37.09144333" lon="-3.38450333">
        <ele>2566.0</ele>
        <time>2022-11-20T14:25:28.000Z</time>
      </trkpt>
      <trkpt lat="37.09145333" lon="-3.38451">
        <ele>2566.0</ele>
        <time>2022-11-20T14:25:29.000Z</time>
      </trkpt>
      <trkpt lat="37.09146333" lon="-3.38451667">
        <ele>2566.0</ele>
        <time>2022-11-20T14:25:30.000Z</time>
      </trkpt>
      <trkpt lat="37.09147333" lon="-3.38452167">
        <ele>2566.0</ele>
        <time>2022-11-20T14:25:31.000Z</time>
      </trkpt>
      <trkpt lat="37.091485" lon="-3.384525">
        <ele>2565.0</ele>
        <time>2022-11-20T14:25:32.000Z</time>
      </trkpt>
      <trkpt lat="37.091495" lon="-3.38452833">
        <ele>2565.0</ele>
        <time>2022-11-20T14:25:33.000Z</time>
      </trkpt>
      <trkpt lat="37.091505" lon="-3.38453167">
        <ele>2565.0</ele>
        <time>2022-11-20T14:25:34.000Z</time>
      </trkpt>
      <trkpt lat="37.091515" lon="-3.384535">
        <ele>2565.0</ele>
        <time>2022-11-20T14:25:35.000Z</time>
      </trkpt>
      <trkpt lat="37.091525" lon="-3.38454167">
        <ele>2565.0</ele>
        <time>2022-11-20T14:25:36.000Z</time>
      </trkpt>
      <trkpt lat="37.09153667" lon="-3.38454833">
        <ele>2564.0</ele>
        <time>2022-11-20T14:25:37.000Z</time>
      </trkpt>
      <trkpt lat="37.09154833" lon="-3.38455333">
        <ele>2564.0</ele>
        <time>2022-11-20T14:25:38.000Z</time>
      </trkpt>
      <trkpt lat="37.09155833" lon="-3.38456167">
        <ele>2564.0</ele>
        <time>2022-11-20T14:25:39.000Z</time>
      </trkpt>
      <trkpt lat="37.09157167" lon="-3.38456833">
        <ele>2564.0</ele>
        <time>2022-11-20T14:25:40.000Z</time>
      </trkpt>
      <trkpt lat="37.09158333" lon="-3.38457333">
        <ele>2564.0</ele>
        <time>2022-11-20T14:25:41.000Z</time>
      </trkpt>
      <trkpt lat="37.091595" lon="-3.38457833">
        <ele>2563.0</ele>
        <time>2022-11-20T14:25:42.000Z</time>
      </trkpt>
      <trkpt lat="37.09160333" lon="-3.384585">
        <ele>2563.0</ele>
        <time>2022-11-20T14:25:43.000Z</time>
      </trkpt>
      <trkpt lat="37.091615" lon="-3.38459">
        <ele>2563.0</ele>
        <time>2022-11-20T14:25:44.000Z</time>
      </trkpt>
      <trkpt lat="37.09162667" lon="-3.384595">
        <ele>2563.0</ele>
        <time>2022-11-20T14:25:45.000Z</time>
      </trkpt>
      <trkpt lat="37.09163833" lon="-3.38460333">
        <ele>2563.0</ele>
        <time>2022-11-20T14:25:46.000Z</time>
      </trkpt>
      <trkpt lat="37.09164833" lon="-3.38460833">
        <ele>2562.0</ele>
        <time>2022-11-20T14:25:47.000Z</time>
      </trkpt>
      <trkpt lat="37.09166167" lon="-3.38461333">
        <ele>2562.0</ele>
        <time>2022-11-20T14:25:48.000Z</time>
      </trkpt>
      <trkpt lat="37.09167167" lon="-3.38461833">
        <ele>2562.0</ele>
        <time>2022-11-20T14:25:49.000Z</time>
      </trkpt>
      <trkpt lat="37.09168" lon="-3.38462667">
        <ele>2562.0</ele>
        <time>2022-11-20T14:25:50.000Z</time>
      </trkpt>
      <trkpt lat="37.09169167" lon="-3.38463333">
        <ele>2561.0</ele>
        <time>2022-11-20T14:25:51.000Z</time>
      </trkpt>
      <trkpt lat="37.09170333" lon="-3.38464">
        <ele>2561.0</ele>
        <time>2022-11-20T14:25:52.000Z</time>
      </trkpt>
      <trkpt lat="37.091715" lon="-3.384645">
        <ele>2561.0</ele>
        <time>2022-11-20T14:25:53.000Z</time>
      </trkpt>
      <trkpt lat="37.09172667" lon="-3.38465167">
        <ele>2560.0</ele>
        <time>2022-11-20T14:25:54.000Z</time>
      </trkpt>
      <trkpt lat="37.09173833" lon="-3.38465833">
        <ele>2560.0</ele>
        <time>2022-11-20T14:25:55.000Z</time>
      </trkpt>
      <trkpt lat="37.09173833" lon="-3.38466">
        <ele>2560.0</ele>
        <time>2022-11-20T14:25:56.000Z</time>
      </trkpt>
      <trkpt lat="37.09174167" lon="-3.38466">
        <ele>2560.0</ele>
        <time>2022-11-20T14:25:57.000Z</time>
      </trkpt>
      <trkpt lat="37.09175" lon="-3.38466833">
        <ele>2560.0</ele>
        <time>2022-11-20T14:25:58.000Z</time>
      </trkpt>
      <trkpt lat="37.09176167" lon="-3.384675">
        <ele>2560.0</ele>
        <time>2022-11-20T14:25:59.000Z</time>
      </trkpt>
      <trkpt lat="37.09177167" lon="-3.38468167">
        <ele>2559.0</ele>
        <time>2022-11-20T14:26:00.000Z</time>
      </trkpt>
      <trkpt lat="37.09178167" lon="-3.38468667">
        <ele>2559.0</ele>
        <time>2022-11-20T14:26:01.000Z</time>
      </trkpt>
      <trkpt lat="37.09179333" lon="-3.384695">
        <ele>2559.0</ele>
        <time>2022-11-20T14:26:02.000Z</time>
      </trkpt>
      <trkpt lat="37.091805" lon="-3.384705">
        <ele>2559.0</ele>
        <time>2022-11-20T14:26:03.000Z</time>
      </trkpt>
      <trkpt lat="37.09181667" lon="-3.38471333">
        <ele>2559.0</ele>
        <time>2022-11-20T14:26:04.000Z</time>
      </trkpt>
      <trkpt lat="37.091825" lon="-3.38472167">
        <ele>2558.0</ele>
        <time>2022-11-20T14:26:05.000Z</time>
      </trkpt>
      <trkpt lat="37.09183667" lon="-3.38472833">
        <ele>2558.0</ele>
        <time>2022-11-20T14:26:06.000Z</time>
      </trkpt>
      <trkpt lat="37.09184833" lon="-3.38473667">
        <ele>2558.0</ele>
        <time>2022-11-20T14:26:07.000Z</time>
      </trkpt>
      <trkpt lat="37.09185833" lon="-3.38474333">
        <ele>2558.0</ele>
        <time>2022-11-20T14:26:08.000Z</time>
      </trkpt>
      <trkpt lat="37.09187167" lon="-3.38475">
        <ele>2558.0</ele>
        <time>2022-11-20T14:26:09.000Z</time>
      </trkpt>
      <trkpt lat="37.09188333" lon="-3.38475667">
        <ele>2557.0</ele>
        <time>2022-11-20T14:26:10.000Z</time>
      </trkpt>
      <trkpt lat="37.09189667" lon="-3.38476333">
        <ele>2557.0</ele>
        <time>2022-11-20T14:26:11.000Z</time>
      </trkpt>
      <trkpt lat="37.09190833" lon="-3.38476833">
        <ele>2557.0</ele>
        <time>2022-11-20T14:26:12.000Z</time>
      </trkpt>
      <trkpt lat="37.09191833" lon="-3.38477333">
        <ele>2556.0</ele>
        <time>2022-11-20T14:26:13.000Z</time>
      </trkpt>
      <trkpt lat="37.09193" lon="-3.38477833">
        <ele>2556.0</ele>
        <time>2022-11-20T14:26:14.000Z</time>
      </trkpt>
      <trkpt lat="37.09194167" lon="-3.38478167">
        <ele>2556.0</ele>
        <time>2022-11-20T14:26:15.000Z</time>
      </trkpt>
      <trkpt lat="37.09195167" lon="-3.38478667">
        <ele>2555.0</ele>
        <time>2022-11-20T14:26:16.000Z</time>
      </trkpt>
      <trkpt lat="37.09196333" lon="-3.38479">
        <ele>2555.0</ele>
        <time>2022-11-20T14:26:17.000Z</time>
      </trkpt>
      <trkpt lat="37.09197667" lon="-3.384795">
        <ele>2555.0</ele>
        <time>2022-11-20T14:26:18.000Z</time>
      </trkpt>
      <trkpt lat="37.09199333" lon="-3.38480167">
        <ele>2554.0</ele>
        <time>2022-11-20T14:26:19.000Z</time>
      </trkpt>
      <trkpt lat="37.09200667" lon="-3.38480833">
        <ele>2554.0</ele>
        <time>2022-11-20T14:26:20.000Z</time>
      </trkpt>
      <trkpt lat="37.09201667" lon="-3.38481333">
        <ele>2554.0</ele>
        <time>2022-11-20T14:26:21.000Z</time>
      </trkpt>
      <trkpt lat="37.09202667" lon="-3.38481833">
        <ele>2554.0</ele>
        <time>2022-11-20T14:26:22.000Z</time>
      </trkpt>
      <trkpt lat="37.09203667" lon="-3.38482">
        <ele>2554.0</ele>
        <time>2022-11-20T14:26:23.000Z</time>
      </trkpt>
      <trkpt lat="37.092045" lon="-3.38482167">
        <ele>2554.0</ele>
        <time>2022-11-20T14:26:24.000Z</time>
      </trkpt>
      <trkpt lat="37.09205333" lon="-3.38482167">
        <ele>2553.0</ele>
        <time>2022-11-20T14:26:25.000Z</time>
      </trkpt>
      <trkpt lat="37.09205833" lon="-3.38482833">
        <ele>2553.0</ele>
        <time>2022-11-20T14:26:26.000Z</time>
      </trkpt>
      <trkpt lat="37.092065" lon="-3.38483667">
        <ele>2553.0</ele>
        <time>2022-11-20T14:26:27.000Z</time>
      </trkpt>
      <trkpt lat="37.09207" lon="-3.38484333">
        <ele>2553.0</ele>
        <time>2022-11-20T14:26:28.000Z</time>
      </trkpt>
      <trkpt lat="37.09208" lon="-3.38484833">
        <ele>2553.0</ele>
        <time>2022-11-20T14:26:29.000Z</time>
      </trkpt>
      <trkpt lat="37.09208833" lon="-3.384855">
        <ele>2552.0</ele>
        <time>2022-11-20T14:26:30.000Z</time>
      </trkpt>
      <trkpt lat="37.09209667" lon="-3.38486167">
        <ele>2552.0</ele>
        <time>2022-11-20T14:26:31.000Z</time>
      </trkpt>
      <trkpt lat="37.09210333" lon="-3.38486833">
        <ele>2552.0</ele>
        <time>2022-11-20T14:26:32.000Z</time>
      </trkpt>
      <trkpt lat="37.09210833" lon="-3.384875">
        <ele>2552.0</ele>
        <time>2022-11-20T14:26:33.000Z</time>
      </trkpt>
      <trkpt lat="37.09211167" lon="-3.38487833">
        <ele>2551.0</ele>
        <time>2022-11-20T14:26:34.000Z</time>
      </trkpt>
      <trkpt lat="37.09211833" lon="-3.384885">
        <ele>2551.0</ele>
        <time>2022-11-20T14:26:35.000Z</time>
      </trkpt>
      <trkpt lat="37.092125" lon="-3.38489">
        <ele>2551.0</ele>
        <time>2022-11-20T14:26:36.000Z</time>
      </trkpt>
      <trkpt lat="37.09213333" lon="-3.384895">
        <ele>2551.0</ele>
        <time>2022-11-20T14:26:37.000Z</time>
      </trkpt>
      <trkpt lat="37.09214333" lon="-3.38490167">
        <ele>2551.0</ele>
        <time>2022-11-20T14:26:38.000Z</time>
      </trkpt>
      <trkpt lat="37.09215333" lon="-3.38490833">
        <ele>2550.0</ele>
        <time>2022-11-20T14:26:39.000Z</time>
      </trkpt>
      <trkpt lat="37.09216167" lon="-3.38491667">
        <ele>2550.0</ele>
        <time>2022-11-20T14:26:40.000Z</time>
      </trkpt>
      <trkpt lat="37.09217" lon="-3.38492333">
        <ele>2550.0</ele>
        <time>2022-11-20T14:26:41.000Z</time>
      </trkpt>
      <trkpt lat="37.09217667" lon="-3.38493">
        <ele>2550.0</ele>
        <time>2022-11-20T14:26:42.000Z</time>
      </trkpt>
      <trkpt lat="37.09218167" lon="-3.38494167">
        <ele>2550.0</ele>
        <time>2022-11-20T14:26:43.000Z</time>
      </trkpt>
      <trkpt lat="37.09218667" lon="-3.38495167">
        <ele>2549.0</ele>
        <time>2022-11-20T14:26:44.000Z</time>
      </trkpt>
      <trkpt lat="37.09219333" lon="-3.38496333">
        <ele>2549.0</ele>
        <time>2022-11-20T14:26:45.000Z</time>
      </trkpt>
      <trkpt lat="37.09220167" lon="-3.38497">
        <ele>2549.0</ele>
        <time>2022-11-20T14:26:46.000Z</time>
      </trkpt>
      <trkpt lat="37.09221" lon="-3.38497667">
        <ele>2549.0</ele>
        <time>2022-11-20T14:26:47.000Z</time>
      </trkpt>
      <trkpt lat="37.09222" lon="-3.38498333">
        <ele>2549.0</ele>
        <time>2022-11-20T14:26:48.000Z</time>
      </trkpt>
      <trkpt lat="37.09222667" lon="-3.38498833">
        <ele>2548.0</ele>
        <time>2022-11-20T14:26:49.000Z</time>
      </trkpt>
      <trkpt lat="37.092235" lon="-3.38499333">
        <ele>2548.0</ele>
        <time>2022-11-20T14:26:50.000Z</time>
      </trkpt>
      <trkpt lat="37.09224167" lon="-3.38499833">
        <ele>2548.0</ele>
        <time>2022-11-20T14:26:51.000Z</time>
      </trkpt>
      <trkpt lat="37.09224833" lon="-3.38500333">
        <ele>2547.0</ele>
        <time>2022-11-20T14:26:52.000Z</time>
      </trkpt>
      <trkpt lat="37.09225833" lon="-3.38500667">
        <ele>2547.0</ele>
        <time>2022-11-20T14:26:53.000Z</time>
      </trkpt>
      <trkpt lat="37.092265" lon="-3.38501">
        <ele>2547.0</ele>
        <time>2022-11-20T14:26:54.000Z</time>
      </trkpt>
      <trkpt lat="37.09227333" lon="-3.38501333">
        <ele>2547.0</ele>
        <time>2022-11-20T14:26:55.000Z</time>
      </trkpt>
      <trkpt lat="37.092275" lon="-3.385015">
        <ele>2547.0</ele>
        <time>2022-11-20T14:26:56.000Z</time>
      </trkpt>
      <trkpt lat="37.09227333" lon="-3.38501667">
        <ele>2547.0</ele>
        <time>2022-11-20T14:26:57.000Z</time>
      </trkpt>
      <trkpt lat="37.09227167" lon="-3.38501667">
        <ele>2547.0</ele>
        <time>2022-11-20T14:26:58.000Z</time>
      </trkpt>
      <trkpt lat="37.09227167" lon="-3.385015">
        <ele>2547.0</ele>
        <time>2022-11-20T14:26:59.000Z</time>
      </trkpt>
      <trkpt lat="37.09227667" lon="-3.38501667">
        <ele>2546.0</ele>
        <time>2022-11-20T14:27:00.000Z</time>
      </trkpt>
      <trkpt lat="37.09228167" lon="-3.38502167">
        <ele>2546.0</ele>
        <time>2022-11-20T14:27:01.000Z</time>
      </trkpt>
      <trkpt lat="37.09229167" lon="-3.38502667">
        <ele>2546.0</ele>
        <time>2022-11-20T14:27:02.000Z</time>
      </trkpt>
      <trkpt lat="37.0923" lon="-3.38503167">
        <ele>2546.0</ele>
        <time>2022-11-20T14:27:03.000Z</time>
      </trkpt>
      <trkpt lat="37.09231" lon="-3.38503667">
        <ele>2545.0</ele>
        <time>2022-11-20T14:27:04.000Z</time>
      </trkpt>
      <trkpt lat="37.09232" lon="-3.38504333">
        <ele>2545.0</ele>
        <time>2022-11-20T14:27:05.000Z</time>
      </trkpt>
      <trkpt lat="37.09233" lon="-3.38505">
        <ele>2545.0</ele>
        <time>2022-11-20T14:27:06.000Z</time>
      </trkpt>
      <trkpt lat="37.09234" lon="-3.38505667">
        <ele>2545.0</ele>
        <time>2022-11-20T14:27:07.000Z</time>
      </trkpt>
      <trkpt lat="37.09234667" lon="-3.38506333">
        <ele>2544.0</ele>
        <time>2022-11-20T14:27:08.000Z</time>
      </trkpt>
      <trkpt lat="37.09235167" lon="-3.38506667">
        <ele>2544.0</ele>
        <time>2022-11-20T14:27:09.000Z</time>
      </trkpt>
      <trkpt lat="37.09235333" lon="-3.38506833">
        <ele>2544.0</ele>
        <time>2022-11-20T14:27:10.000Z</time>
      </trkpt>
      <trkpt lat="37.09236" lon="-3.38507167">
        <ele>2544.0</ele>
        <time>2022-11-20T14:27:11.000Z</time>
      </trkpt>
      <trkpt lat="37.09237" lon="-3.38508">
        <ele>2544.0</ele>
        <time>2022-11-20T14:27:12.000Z</time>
      </trkpt>
      <trkpt lat="37.09237833" lon="-3.38508833">
        <ele>2544.0</ele>
        <time>2022-11-20T14:27:13.000Z</time>
      </trkpt>
      <trkpt lat="37.09239" lon="-3.385095">
        <ele>2543.0</ele>
        <time>2022-11-20T14:27:14.000Z</time>
      </trkpt>
      <trkpt lat="37.09240167" lon="-3.3851">
        <ele>2543.0</ele>
        <time>2022-11-20T14:27:15.000Z</time>
      </trkpt>
      <trkpt lat="37.09241333" lon="-3.38510833">
        <ele>2543.0</ele>
        <time>2022-11-20T14:27:16.000Z</time>
      </trkpt>
      <trkpt lat="37.092425" lon="-3.38511333">
        <ele>2543.0</ele>
        <time>2022-11-20T14:27:17.000Z</time>
      </trkpt>
      <trkpt lat="37.092435" lon="-3.385115">
        <ele>2543.0</ele>
        <time>2022-11-20T14:27:18.000Z</time>
      </trkpt>
      <trkpt lat="37.09244667" lon="-3.38511833">
        <ele>2542.0</ele>
        <time>2022-11-20T14:27:19.000Z</time>
      </trkpt>
      <trkpt lat="37.09245667" lon="-3.38512167">
        <ele>2542.0</ele>
        <time>2022-11-20T14:27:20.000Z</time>
      </trkpt>
      <trkpt lat="37.09246833" lon="-3.385125">
        <ele>2542.0</ele>
        <time>2022-11-20T14:27:21.000Z</time>
      </trkpt>
      <trkpt lat="37.09248167" lon="-3.38512833">
        <ele>2542.0</ele>
        <time>2022-11-20T14:27:22.000Z</time>
      </trkpt>
      <trkpt lat="37.09249333" lon="-3.38513333">
        <ele>2542.0</ele>
        <time>2022-11-20T14:27:23.000Z</time>
      </trkpt>
      <trkpt lat="37.09250333" lon="-3.38514167">
        <ele>2541.0</ele>
        <time>2022-11-20T14:27:24.000Z</time>
      </trkpt>
      <trkpt lat="37.09251333" lon="-3.38514833">
        <ele>2541.0</ele>
        <time>2022-11-20T14:27:25.000Z</time>
      </trkpt>
      <trkpt lat="37.09252333" lon="-3.38515833">
        <ele>2541.0</ele>
        <time>2022-11-20T14:27:26.000Z</time>
      </trkpt>
      <trkpt lat="37.09252833" lon="-3.38517">
        <ele>2541.0</ele>
        <time>2022-11-20T14:27:27.000Z</time>
      </trkpt>
      <trkpt lat="37.09253667" lon="-3.38517833">
        <ele>2540.0</ele>
        <time>2022-11-20T14:27:28.000Z</time>
      </trkpt>
      <trkpt lat="37.092545" lon="-3.38518667">
        <ele>2540.0</ele>
        <time>2022-11-20T14:27:29.000Z</time>
      </trkpt>
      <trkpt lat="37.09255167" lon="-3.38519">
        <ele>2540.0</ele>
        <time>2022-11-20T14:27:30.000Z</time>
      </trkpt>
      <trkpt lat="37.09255333" lon="-3.38519167">
        <ele>2540.0</ele>
        <time>2022-11-20T14:27:31.000Z</time>
      </trkpt>
      <trkpt lat="37.09255667" lon="-3.38519333">
        <ele>2539.0</ele>
        <time>2022-11-20T14:27:32.000Z</time>
      </trkpt>
      <trkpt lat="37.09256167" lon="-3.38519833">
        <ele>2539.0</ele>
        <time>2022-11-20T14:27:33.000Z</time>
      </trkpt>
      <trkpt lat="37.09256667" lon="-3.38520667">
        <ele>2539.0</ele>
        <time>2022-11-20T14:27:34.000Z</time>
      </trkpt>
      <trkpt lat="37.092575" lon="-3.38521667">
        <ele>2539.0</ele>
        <time>2022-11-20T14:27:35.000Z</time>
      </trkpt>
      <trkpt lat="37.09258" lon="-3.38522333">
        <ele>2539.0</ele>
        <time>2022-11-20T14:27:36.000Z</time>
      </trkpt>
      <trkpt lat="37.09258333" lon="-3.38522333">
        <ele>2539.0</ele>
        <time>2022-11-20T14:27:37.000Z</time>
      </trkpt>
      <trkpt lat="37.09259167" lon="-3.38522667">
        <ele>2539.0</ele>
        <time>2022-11-20T14:27:38.000Z</time>
      </trkpt>
      <trkpt lat="37.09260167" lon="-3.38523">
        <ele>2538.0</ele>
        <time>2022-11-20T14:27:39.000Z</time>
      </trkpt>
      <trkpt lat="37.09261167" lon="-3.38523667">
        <ele>2538.0</ele>
        <time>2022-11-20T14:27:40.000Z</time>
      </trkpt>
      <trkpt lat="37.09261667" lon="-3.38524333">
        <ele>2538.0</ele>
        <time>2022-11-20T14:27:41.000Z</time>
      </trkpt>
      <trkpt lat="37.09262167" lon="-3.38524833">
        <ele>2538.0</ele>
        <time>2022-11-20T14:27:42.000Z</time>
      </trkpt>
      <trkpt lat="37.09262667" lon="-3.385255">
        <ele>2538.0</ele>
        <time>2022-11-20T14:27:43.000Z</time>
      </trkpt>
      <trkpt lat="37.09263667" lon="-3.38526667">
        <ele>2538.0</ele>
        <time>2022-11-20T14:27:44.000Z</time>
      </trkpt>
      <trkpt lat="37.092645" lon="-3.38527667">
        <ele>2538.0</ele>
        <time>2022-11-20T14:27:45.000Z</time>
      </trkpt>
      <trkpt lat="37.092655" lon="-3.38529">
        <ele>2538.0</ele>
        <time>2022-11-20T14:27:46.000Z</time>
      </trkpt>
      <trkpt lat="37.09266667" lon="-3.385305">
        <ele>2537.0</ele>
        <time>2022-11-20T14:27:47.000Z</time>
      </trkpt>
      <trkpt lat="37.092675" lon="-3.38531667">
        <ele>2537.0</ele>
        <time>2022-11-20T14:27:48.000Z</time>
      </trkpt>
      <trkpt lat="37.09268" lon="-3.38532833">
        <ele>2537.0</ele>
        <time>2022-11-20T14:27:49.000Z</time>
      </trkpt>
      <trkpt lat="37.092685" lon="-3.38533167">
        <ele>2537.0</ele>
        <time>2022-11-20T14:27:50.000Z</time>
      </trkpt>
      <trkpt lat="37.09269" lon="-3.38534">
        <ele>2537.0</ele>
        <time>2022-11-20T14:27:51.000Z</time>
      </trkpt>
      <trkpt lat="37.092695" lon="-3.38534833">
        <ele>2537.0</ele>
        <time>2022-11-20T14:27:52.000Z</time>
      </trkpt>
      <trkpt lat="37.09270167" lon="-3.38535667">
        <ele>2537.0</ele>
        <time>2022-11-20T14:27:53.000Z</time>
      </trkpt>
      <trkpt lat="37.09270833" lon="-3.38536667">
        <ele>2537.0</ele>
        <time>2022-11-20T14:27:54.000Z</time>
      </trkpt>
      <trkpt lat="37.092715" lon="-3.38537333">
        <ele>2537.0</ele>
        <time>2022-11-20T14:27:55.000Z</time>
      </trkpt>
      <trkpt lat="37.09271833" lon="-3.385375">
        <ele>2537.0</ele>
        <time>2022-11-20T14:27:56.000Z</time>
      </trkpt>
      <trkpt lat="37.09272" lon="-3.38537667">
        <ele>2537.0</ele>
        <time>2022-11-20T14:27:57.000Z</time>
      </trkpt>
      <trkpt lat="37.09271833" lon="-3.38537667">
        <ele>2536.0</ele>
        <time>2022-11-20T14:27:58.000Z</time>
      </trkpt>
      <trkpt lat="37.09271833" lon="-3.38537833">
        <ele>2536.0</ele>
        <time>2022-11-20T14:27:59.000Z</time>
      </trkpt>
      <trkpt lat="37.09271833" lon="-3.38537833">
        <ele>2536.0</ele>
        <time>2022-11-20T14:28:00.000Z</time>
      </trkpt>
      <trkpt lat="37.09272167" lon="-3.38538167">
        <ele>2536.0</ele>
        <time>2022-11-20T14:28:01.000Z</time>
      </trkpt>
      <trkpt lat="37.09272833" lon="-3.38538667">
        <ele>2536.0</ele>
        <time>2022-11-20T14:28:02.000Z</time>
      </trkpt>
      <trkpt lat="37.09273333" lon="-3.38539167">
        <ele>2536.0</ele>
        <time>2022-11-20T14:28:03.000Z</time>
      </trkpt>
      <trkpt lat="37.09274" lon="-3.38539167">
        <ele>2536.0</ele>
        <time>2022-11-20T14:28:04.000Z</time>
      </trkpt>
      <trkpt lat="37.092745" lon="-3.38539167">
        <ele>2536.0</ele>
        <time>2022-11-20T14:28:05.000Z</time>
      </trkpt>
      <trkpt lat="37.09275" lon="-3.38539">
        <ele>2536.0</ele>
        <time>2022-11-20T14:28:06.000Z</time>
      </trkpt>
      <trkpt lat="37.092755" lon="-3.385385">
        <ele>2535.0</ele>
        <time>2022-11-20T14:28:07.000Z</time>
      </trkpt>
      <trkpt lat="37.09276" lon="-3.38537667">
        <ele>2535.0</ele>
        <time>2022-11-20T14:28:08.000Z</time>
      </trkpt>
      <trkpt lat="37.09276667" lon="-3.38537167">
        <ele>2535.0</ele>
        <time>2022-11-20T14:28:09.000Z</time>
      </trkpt>
      <trkpt lat="37.09277333" lon="-3.38536667">
        <ele>2535.0</ele>
        <time>2022-11-20T14:28:10.000Z</time>
      </trkpt>
      <trkpt lat="37.09277833" lon="-3.385365">
        <ele>2535.0</ele>
        <time>2022-11-20T14:28:11.000Z</time>
      </trkpt>
      <trkpt lat="37.092785" lon="-3.38536167">
        <ele>2535.0</ele>
        <time>2022-11-20T14:28:12.000Z</time>
      </trkpt>
      <trkpt lat="37.09279167" lon="-3.38536167">
        <ele>2535.0</ele>
        <time>2022-11-20T14:28:13.000Z</time>
      </trkpt>
      <trkpt lat="37.09279667" lon="-3.38537">
        <ele>2535.0</ele>
        <time>2022-11-20T14:28:14.000Z</time>
      </trkpt>
      <trkpt lat="37.0928" lon="-3.38538">
        <ele>2535.0</ele>
        <time>2022-11-20T14:28:15.000Z</time>
      </trkpt>
      <trkpt lat="37.092805" lon="-3.38539167">
        <ele>2535.0</ele>
        <time>2022-11-20T14:28:16.000Z</time>
      </trkpt>
      <trkpt lat="37.09281" lon="-3.385405">
        <ele>2534.0</ele>
        <time>2022-11-20T14:28:17.000Z</time>
      </trkpt>
      <trkpt lat="37.09281667" lon="-3.385415">
        <ele>2534.0</ele>
        <time>2022-11-20T14:28:18.000Z</time>
      </trkpt>
      <trkpt lat="37.09282333" lon="-3.38542167">
        <ele>2534.0</ele>
        <time>2022-11-20T14:28:19.000Z</time>
      </trkpt>
      <trkpt lat="37.09282833" lon="-3.385425">
        <ele>2534.0</ele>
        <time>2022-11-20T14:28:20.000Z</time>
      </trkpt>
      <trkpt lat="37.092835" lon="-3.38542833">
        <ele>2534.0</ele>
        <time>2022-11-20T14:28:21.000Z</time>
      </trkpt>
      <trkpt lat="37.09284" lon="-3.38543167">
        <ele>2534.0</ele>
        <time>2022-11-20T14:28:22.000Z</time>
      </trkpt>
      <trkpt lat="37.092845" lon="-3.38543333">
        <ele>2534.0</ele>
        <time>2022-11-20T14:28:23.000Z</time>
      </trkpt>
      <trkpt lat="37.09284833" lon="-3.38543333">
        <ele>2533.0</ele>
        <time>2022-11-20T14:28:24.000Z</time>
      </trkpt>
      <trkpt lat="37.09285167" lon="-3.38543333">
        <ele>2533.0</ele>
        <time>2022-11-20T14:28:25.000Z</time>
      </trkpt>
      <trkpt lat="37.09285667" lon="-3.38543333">
        <ele>2533.0</ele>
        <time>2022-11-20T14:28:26.000Z</time>
      </trkpt>
      <trkpt lat="37.09286667" lon="-3.385435">
        <ele>2533.0</ele>
        <time>2022-11-20T14:28:27.000Z</time>
      </trkpt>
      <trkpt lat="37.09287667" lon="-3.38544">
        <ele>2533.0</ele>
        <time>2022-11-20T14:28:28.000Z</time>
      </trkpt>
      <trkpt lat="37.092885" lon="-3.385445">
        <ele>2533.0</ele>
        <time>2022-11-20T14:28:29.000Z</time>
      </trkpt>
      <trkpt lat="37.09289333" lon="-3.38545">
        <ele>2532.0</ele>
        <time>2022-11-20T14:28:30.000Z</time>
      </trkpt>
      <trkpt lat="37.0929" lon="-3.38545667">
        <ele>2532.0</ele>
        <time>2022-11-20T14:28:31.000Z</time>
      </trkpt>
      <trkpt lat="37.09290833" lon="-3.38546667">
        <ele>2532.0</ele>
        <time>2022-11-20T14:28:32.000Z</time>
      </trkpt>
      <trkpt lat="37.092915" lon="-3.385475">
        <ele>2532.0</ele>
        <time>2022-11-20T14:28:33.000Z</time>
      </trkpt>
      <trkpt lat="37.09292167" lon="-3.385485">
        <ele>2532.0</ele>
        <time>2022-11-20T14:28:34.000Z</time>
      </trkpt>
      <trkpt lat="37.09292667" lon="-3.385495">
        <ele>2532.0</ele>
        <time>2022-11-20T14:28:35.000Z</time>
      </trkpt>
      <trkpt lat="37.09293" lon="-3.38550333">
        <ele>2531.0</ele>
        <time>2022-11-20T14:28:36.000Z</time>
      </trkpt>
      <trkpt lat="37.09293333" lon="-3.38551333">
        <ele>2531.0</ele>
        <time>2022-11-20T14:28:37.000Z</time>
      </trkpt>
      <trkpt lat="37.092935" lon="-3.385525">
        <ele>2531.0</ele>
        <time>2022-11-20T14:28:38.000Z</time>
      </trkpt>
      <trkpt lat="37.09293833" lon="-3.385535">
        <ele>2531.0</ele>
        <time>2022-11-20T14:28:39.000Z</time>
      </trkpt>
      <trkpt lat="37.09294167" lon="-3.38554667">
        <ele>2531.0</ele>
        <time>2022-11-20T14:28:40.000Z</time>
      </trkpt>
      <trkpt lat="37.092945" lon="-3.38555667">
        <ele>2531.0</ele>
        <time>2022-11-20T14:28:41.000Z</time>
      </trkpt>
      <trkpt lat="37.09295167" lon="-3.385565">
        <ele>2530.0</ele>
        <time>2022-11-20T14:28:42.000Z</time>
      </trkpt>
      <trkpt lat="37.09296" lon="-3.38557333">
        <ele>2530.0</ele>
        <time>2022-11-20T14:28:43.000Z</time>
      </trkpt>
      <trkpt lat="37.09296667" lon="-3.38558">
        <ele>2530.0</ele>
        <time>2022-11-20T14:28:44.000Z</time>
      </trkpt>
      <trkpt lat="37.092975" lon="-3.38558167">
        <ele>2530.0</ele>
        <time>2022-11-20T14:28:45.000Z</time>
      </trkpt>
      <trkpt lat="37.092985" lon="-3.385585">
        <ele>2530.0</ele>
        <time>2022-11-20T14:28:46.000Z</time>
      </trkpt>
      <trkpt lat="37.092995" lon="-3.38558667">
        <ele>2530.0</ele>
        <time>2022-11-20T14:28:47.000Z</time>
      </trkpt>
      <trkpt lat="37.09300333" lon="-3.38559">
        <ele>2529.0</ele>
        <time>2022-11-20T14:28:48.000Z</time>
      </trkpt>
      <trkpt lat="37.09301" lon="-3.385595">
        <ele>2529.0</ele>
        <time>2022-11-20T14:28:49.000Z</time>
      </trkpt>
      <trkpt lat="37.09301833" lon="-3.38559833">
        <ele>2529.0</ele>
        <time>2022-11-20T14:28:50.000Z</time>
      </trkpt>
      <trkpt lat="37.093025" lon="-3.38560333">
        <ele>2529.0</ele>
        <time>2022-11-20T14:28:51.000Z</time>
      </trkpt>
      <trkpt lat="37.093035" lon="-3.38560833">
        <ele>2529.0</ele>
        <time>2022-11-20T14:28:52.000Z</time>
      </trkpt>
      <trkpt lat="37.09304667" lon="-3.38561833">
        <ele>2529.0</ele>
        <time>2022-11-20T14:28:53.000Z</time>
      </trkpt>
      <trkpt lat="37.09305667" lon="-3.38562833">
        <ele>2528.0</ele>
        <time>2022-11-20T14:28:54.000Z</time>
      </trkpt>
      <trkpt lat="37.093065" lon="-3.38564">
        <ele>2528.0</ele>
        <time>2022-11-20T14:28:55.000Z</time>
      </trkpt>
      <trkpt lat="37.09307333" lon="-3.385655">
        <ele>2528.0</ele>
        <time>2022-11-20T14:28:56.000Z</time>
      </trkpt>
      <trkpt lat="37.09307833" lon="-3.38566833">
        <ele>2528.0</ele>
        <time>2022-11-20T14:28:57.000Z</time>
      </trkpt>
      <trkpt lat="37.093085" lon="-3.38567667">
        <ele>2528.0</ele>
        <time>2022-11-20T14:28:58.000Z</time>
      </trkpt>
      <trkpt lat="37.09309167" lon="-3.385685">
        <ele>2528.0</ele>
        <time>2022-11-20T14:28:59.000Z</time>
      </trkpt>
      <trkpt lat="37.0931" lon="-3.38569333">
        <ele>2527.0</ele>
        <time>2022-11-20T14:29:00.000Z</time>
      </trkpt>
      <trkpt lat="37.09311167" lon="-3.38569833">
        <ele>2527.0</ele>
        <time>2022-11-20T14:29:01.000Z</time>
      </trkpt>
      <trkpt lat="37.09312" lon="-3.38570667">
        <ele>2527.0</ele>
        <time>2022-11-20T14:29:02.000Z</time>
      </trkpt>
      <trkpt lat="37.09313" lon="-3.385715">
        <ele>2527.0</ele>
        <time>2022-11-20T14:29:03.000Z</time>
      </trkpt>
      <trkpt lat="37.09314" lon="-3.38572333">
        <ele>2526.0</ele>
        <time>2022-11-20T14:29:04.000Z</time>
      </trkpt>
      <trkpt lat="37.09314833" lon="-3.38573333">
        <ele>2526.0</ele>
        <time>2022-11-20T14:29:05.000Z</time>
      </trkpt>
      <trkpt lat="37.09315667" lon="-3.38574333">
        <ele>2526.0</ele>
        <time>2022-11-20T14:29:06.000Z</time>
      </trkpt>
      <trkpt lat="37.093165" lon="-3.38575167">
        <ele>2525.0</ele>
        <time>2022-11-20T14:29:07.000Z</time>
      </trkpt>
      <trkpt lat="37.09317333" lon="-3.38576">
        <ele>2525.0</ele>
        <time>2022-11-20T14:29:08.000Z</time>
      </trkpt>
      <trkpt lat="37.09318167" lon="-3.38577">
        <ele>2525.0</ele>
        <time>2022-11-20T14:29:09.000Z</time>
      </trkpt>
      <trkpt lat="37.09318833" lon="-3.38578">
        <ele>2525.0</ele>
        <time>2022-11-20T14:29:10.000Z</time>
      </trkpt>
      <trkpt lat="37.09319333" lon="-3.38578833">
        <ele>2524.0</ele>
        <time>2022-11-20T14:29:11.000Z</time>
      </trkpt>
      <trkpt lat="37.09319667" lon="-3.3858">
        <ele>2524.0</ele>
        <time>2022-11-20T14:29:12.000Z</time>
      </trkpt>
      <trkpt lat="37.09319833" lon="-3.38581333">
        <ele>2524.0</ele>
        <time>2022-11-20T14:29:13.000Z</time>
      </trkpt>
      <trkpt lat="37.09320167" lon="-3.38582833">
        <ele>2523.0</ele>
        <time>2022-11-20T14:29:14.000Z</time>
      </trkpt>
      <trkpt lat="37.09320167" lon="-3.38583667">
        <ele>2523.0</ele>
        <time>2022-11-20T14:29:15.000Z</time>
      </trkpt>
      <trkpt lat="37.09320333" lon="-3.385845">
        <ele>2523.0</ele>
        <time>2022-11-20T14:29:16.000Z</time>
      </trkpt>
      <trkpt lat="37.09320333" lon="-3.38585">
        <ele>2522.0</ele>
        <time>2022-11-20T14:29:17.000Z</time>
      </trkpt>
      <trkpt lat="37.09320667" lon="-3.38585667">
        <ele>2522.0</ele>
        <time>2022-11-20T14:29:18.000Z</time>
      </trkpt>
      <trkpt lat="37.09321333" lon="-3.385865">
        <ele>2522.0</ele>
        <time>2022-11-20T14:29:19.000Z</time>
      </trkpt>
      <trkpt lat="37.09322167" lon="-3.385875">
        <ele>2522.0</ele>
        <time>2022-11-20T14:29:20.000Z</time>
      </trkpt>
      <trkpt lat="37.09322833" lon="-3.38588667">
        <ele>2522.0</ele>
        <time>2022-11-20T14:29:21.000Z</time>
      </trkpt>
      <trkpt lat="37.09323833" lon="-3.38589667">
        <ele>2522.0</ele>
        <time>2022-11-20T14:29:22.000Z</time>
      </trkpt>
      <trkpt lat="37.093245" lon="-3.38590667">
        <ele>2521.0</ele>
        <time>2022-11-20T14:29:23.000Z</time>
      </trkpt>
      <trkpt lat="37.093255" lon="-3.38591833">
        <ele>2521.0</ele>
        <time>2022-11-20T14:29:24.000Z</time>
      </trkpt>
      <trkpt lat="37.093265" lon="-3.38593">
        <ele>2521.0</ele>
        <time>2022-11-20T14:29:25.000Z</time>
      </trkpt>
      <trkpt lat="37.093275" lon="-3.38594">
        <ele>2521.0</ele>
        <time>2022-11-20T14:29:26.000Z</time>
      </trkpt>
      <trkpt lat="37.09328667" lon="-3.38595">
        <ele>2520.0</ele>
        <time>2022-11-20T14:29:27.000Z</time>
      </trkpt>
      <trkpt lat="37.09329667" lon="-3.38596">
        <ele>2520.0</ele>
        <time>2022-11-20T14:29:28.000Z</time>
      </trkpt>
      <trkpt lat="37.09330667" lon="-3.38596833">
        <ele>2520.0</ele>
        <time>2022-11-20T14:29:29.000Z</time>
      </trkpt>
      <trkpt lat="37.09331833" lon="-3.38597667">
        <ele>2520.0</ele>
        <time>2022-11-20T14:29:30.000Z</time>
      </trkpt>
      <trkpt lat="37.09332833" lon="-3.38598667">
        <ele>2519.0</ele>
        <time>2022-11-20T14:29:31.000Z</time>
      </trkpt>
      <trkpt lat="37.09334" lon="-3.385995">
        <ele>2519.0</ele>
        <time>2022-11-20T14:29:32.000Z</time>
      </trkpt>
      <trkpt lat="37.09335" lon="-3.386005">
        <ele>2519.0</ele>
        <time>2022-11-20T14:29:33.000Z</time>
      </trkpt>
      <trkpt lat="37.09336" lon="-3.38601333">
        <ele>2519.0</ele>
        <time>2022-11-20T14:29:34.000Z</time>
      </trkpt>
      <trkpt lat="37.09337" lon="-3.38602167">
        <ele>2519.0</ele>
        <time>2022-11-20T14:29:35.000Z</time>
      </trkpt>
      <trkpt lat="37.09338" lon="-3.38603167">
        <ele>2518.0</ele>
        <time>2022-11-20T14:29:36.000Z</time>
      </trkpt>
      <trkpt lat="37.09339167" lon="-3.38604167">
        <ele>2518.0</ele>
        <time>2022-11-20T14:29:37.000Z</time>
      </trkpt>
      <trkpt lat="37.09340333" lon="-3.38605333">
        <ele>2518.0</ele>
        <time>2022-11-20T14:29:38.000Z</time>
      </trkpt>
      <trkpt lat="37.093415" lon="-3.38606167">
        <ele>2517.0</ele>
        <time>2022-11-20T14:29:39.000Z</time>
      </trkpt>
      <trkpt lat="37.09342667" lon="-3.38607">
        <ele>2517.0</ele>
        <time>2022-11-20T14:29:40.000Z</time>
      </trkpt>
      <trkpt lat="37.09343667" lon="-3.38608">
        <ele>2517.0</ele>
        <time>2022-11-20T14:29:41.000Z</time>
      </trkpt>
      <trkpt lat="37.09344667" lon="-3.38608667">
        <ele>2517.0</ele>
        <time>2022-11-20T14:29:42.000Z</time>
      </trkpt>
      <trkpt lat="37.09345667" lon="-3.38609333">
        <ele>2517.0</ele>
        <time>2022-11-20T14:29:43.000Z</time>
      </trkpt>
      <trkpt lat="37.093465" lon="-3.3861">
        <ele>2517.0</ele>
        <time>2022-11-20T14:29:44.000Z</time>
      </trkpt>
      <trkpt lat="37.09347333" lon="-3.38611">
        <ele>2516.0</ele>
        <time>2022-11-20T14:29:45.000Z</time>
      </trkpt>
      <trkpt lat="37.09348167" lon="-3.38611667">
        <ele>2516.0</ele>
        <time>2022-11-20T14:29:46.000Z</time>
      </trkpt>
      <trkpt lat="37.09349167" lon="-3.386125">
        <ele>2516.0</ele>
        <time>2022-11-20T14:29:47.000Z</time>
      </trkpt>
      <trkpt lat="37.0935" lon="-3.38613333">
        <ele>2516.0</ele>
        <time>2022-11-20T14:29:48.000Z</time>
      </trkpt>
      <trkpt lat="37.09350833" lon="-3.38614333">
        <ele>2516.0</ele>
        <time>2022-11-20T14:29:49.000Z</time>
      </trkpt>
      <trkpt lat="37.093515" lon="-3.38615333">
        <ele>2516.0</ele>
        <time>2022-11-20T14:29:50.000Z</time>
      </trkpt>
      <trkpt lat="37.09352333" lon="-3.386165">
        <ele>2516.0</ele>
        <time>2022-11-20T14:29:51.000Z</time>
      </trkpt>
      <trkpt lat="37.09353167" lon="-3.38618">
        <ele>2516.0</ele>
        <time>2022-11-20T14:29:52.000Z</time>
      </trkpt>
      <trkpt lat="37.09354" lon="-3.38619">
        <ele>2515.0</ele>
        <time>2022-11-20T14:29:53.000Z</time>
      </trkpt>
      <trkpt lat="37.09355" lon="-3.38619833">
        <ele>2515.0</ele>
        <time>2022-11-20T14:29:54.000Z</time>
      </trkpt>
      <trkpt lat="37.09356167" lon="-3.386205">
        <ele>2515.0</ele>
        <time>2022-11-20T14:29:55.000Z</time>
      </trkpt>
      <trkpt lat="37.09357333" lon="-3.386215">
        <ele>2515.0</ele>
        <time>2022-11-20T14:29:56.000Z</time>
      </trkpt>
      <trkpt lat="37.093585" lon="-3.38622333">
        <ele>2514.0</ele>
        <time>2022-11-20T14:29:57.000Z</time>
      </trkpt>
      <trkpt lat="37.093595" lon="-3.38622833">
        <ele>2514.0</ele>
        <time>2022-11-20T14:29:58.000Z</time>
      </trkpt>
      <trkpt lat="37.093605" lon="-3.38623833">
        <ele>2514.0</ele>
        <time>2022-11-20T14:29:59.000Z</time>
      </trkpt>
      <trkpt lat="37.093615" lon="-3.38624667">
        <ele>2514.0</ele>
        <time>2022-11-20T14:30:00.000Z</time>
      </trkpt>
      <trkpt lat="37.093625" lon="-3.38625667">
        <ele>2513.0</ele>
        <time>2022-11-20T14:30:01.000Z</time>
      </trkpt>
      <trkpt lat="37.09363667" lon="-3.38626833">
        <ele>2513.0</ele>
        <time>2022-11-20T14:30:02.000Z</time>
      </trkpt>
      <trkpt lat="37.09364833" lon="-3.38627833">
        <ele>2513.0</ele>
        <time>2022-11-20T14:30:03.000Z</time>
      </trkpt>
      <trkpt lat="37.09365" lon="-3.38628">
        <ele>2513.0</ele>
        <time>2022-11-20T14:30:04.000Z</time>
      </trkpt>
      <trkpt lat="37.09365333" lon="-3.38628167">
        <ele>2513.0</ele>
        <time>2022-11-20T14:30:05.000Z</time>
      </trkpt>
      <trkpt lat="37.09366167" lon="-3.38628667">
        <ele>2513.0</ele>
        <time>2022-11-20T14:30:06.000Z</time>
      </trkpt>
      <trkpt lat="37.09367167" lon="-3.386295">
        <ele>2513.0</ele>
        <time>2022-11-20T14:30:07.000Z</time>
      </trkpt>
      <trkpt lat="37.09368333" lon="-3.38630167">
        <ele>2513.0</ele>
        <time>2022-11-20T14:30:08.000Z</time>
      </trkpt>
      <trkpt lat="37.093695" lon="-3.38630667">
        <ele>2513.0</ele>
        <time>2022-11-20T14:30:09.000Z</time>
      </trkpt>
      <trkpt lat="37.09370333" lon="-3.38631667">
        <ele>2513.0</ele>
        <time>2022-11-20T14:30:10.000Z</time>
      </trkpt>
      <trkpt lat="37.09371167" lon="-3.38632667">
        <ele>2513.0</ele>
        <time>2022-11-20T14:30:11.000Z</time>
      </trkpt>
      <trkpt lat="37.09371833" lon="-3.38633833">
        <ele>2513.0</ele>
        <time>2022-11-20T14:30:12.000Z</time>
      </trkpt>
      <trkpt lat="37.093725" lon="-3.38634833">
        <ele>2513.0</ele>
        <time>2022-11-20T14:30:13.000Z</time>
      </trkpt>
      <trkpt lat="37.09373167" lon="-3.38635833">
        <ele>2513.0</ele>
        <time>2022-11-20T14:30:14.000Z</time>
      </trkpt>
      <trkpt lat="37.09373833" lon="-3.38637">
        <ele>2513.0</ele>
        <time>2022-11-20T14:30:15.000Z</time>
      </trkpt>
      <trkpt lat="37.09374333" lon="-3.38637833">
        <ele>2513.0</ele>
        <time>2022-11-20T14:30:16.000Z</time>
      </trkpt>
      <trkpt lat="37.09375167" lon="-3.38638667">
        <ele>2512.0</ele>
        <time>2022-11-20T14:30:17.000Z</time>
      </trkpt>
      <trkpt lat="37.09376" lon="-3.386395">
        <ele>2512.0</ele>
        <time>2022-11-20T14:30:18.000Z</time>
      </trkpt>
      <trkpt lat="37.09377" lon="-3.38640333">
        <ele>2512.0</ele>
        <time>2022-11-20T14:30:19.000Z</time>
      </trkpt>
      <trkpt lat="37.09377833" lon="-3.38641">
        <ele>2512.0</ele>
        <time>2022-11-20T14:30:20.000Z</time>
      </trkpt>
      <trkpt lat="37.09378667" lon="-3.38642167">
        <ele>2512.0</ele>
        <time>2022-11-20T14:30:21.000Z</time>
      </trkpt>
      <trkpt lat="37.09379333" lon="-3.38643333">
        <ele>2512.0</ele>
        <time>2022-11-20T14:30:22.000Z</time>
      </trkpt>
      <trkpt lat="37.09379833" lon="-3.386445">
        <ele>2512.0</ele>
        <time>2022-11-20T14:30:23.000Z</time>
      </trkpt>
      <trkpt lat="37.09380333" lon="-3.38645833">
        <ele>2512.0</ele>
        <time>2022-11-20T14:30:24.000Z</time>
      </trkpt>
      <trkpt lat="37.09380667" lon="-3.38647">
        <ele>2512.0</ele>
        <time>2022-11-20T14:30:25.000Z</time>
      </trkpt>
      <trkpt lat="37.09380833" lon="-3.38648333">
        <ele>2511.0</ele>
        <time>2022-11-20T14:30:26.000Z</time>
      </trkpt>
      <trkpt lat="37.09381" lon="-3.38649833">
        <ele>2511.0</ele>
        <time>2022-11-20T14:30:27.000Z</time>
      </trkpt>
      <trkpt lat="37.09381167" lon="-3.386515">
        <ele>2511.0</ele>
        <time>2022-11-20T14:30:28.000Z</time>
      </trkpt>
      <trkpt lat="37.09381167" lon="-3.38653">
        <ele>2511.0</ele>
        <time>2022-11-20T14:30:29.000Z</time>
      </trkpt>
      <trkpt lat="37.09381333" lon="-3.38654667">
        <ele>2511.0</ele>
        <time>2022-11-20T14:30:30.000Z</time>
      </trkpt>
      <trkpt lat="37.093815" lon="-3.38656167">
        <ele>2511.0</ele>
        <time>2022-11-20T14:30:31.000Z</time>
      </trkpt>
      <trkpt lat="37.09381667" lon="-3.38657333">
        <ele>2511.0</ele>
        <time>2022-11-20T14:30:32.000Z</time>
      </trkpt>
      <trkpt lat="37.09381667" lon="-3.386585">
        <ele>2511.0</ele>
        <time>2022-11-20T14:30:33.000Z</time>
      </trkpt>
      <trkpt lat="37.09381833" lon="-3.38659833">
        <ele>2511.0</ele>
        <time>2022-11-20T14:30:34.000Z</time>
      </trkpt>
      <trkpt lat="37.09382" lon="-3.38661167">
        <ele>2511.0</ele>
        <time>2022-11-20T14:30:35.000Z</time>
      </trkpt>
      <trkpt lat="37.09382167" lon="-3.38662667">
        <ele>2511.0</ele>
        <time>2022-11-20T14:30:36.000Z</time>
      </trkpt>
      <trkpt lat="37.09382333" lon="-3.38664333">
        <ele>2511.0</ele>
        <time>2022-11-20T14:30:37.000Z</time>
      </trkpt>
      <trkpt lat="37.093825" lon="-3.38665667">
        <ele>2511.0</ele>
        <time>2022-11-20T14:30:38.000Z</time>
      </trkpt>
      <trkpt lat="37.09382667" lon="-3.38667">
        <ele>2511.0</ele>
        <time>2022-11-20T14:30:39.000Z</time>
      </trkpt>
      <trkpt lat="37.09382833" lon="-3.38668167">
        <ele>2511.0</ele>
        <time>2022-11-20T14:30:40.000Z</time>
      </trkpt>
      <trkpt lat="37.09383167" lon="-3.38669333">
        <ele>2511.0</ele>
        <time>2022-11-20T14:30:41.000Z</time>
      </trkpt>
      <trkpt lat="37.09383333" lon="-3.38670667">
        <ele>2511.0</ele>
        <time>2022-11-20T14:30:42.000Z</time>
      </trkpt>
      <trkpt lat="37.09383833" lon="-3.38671833">
        <ele>2511.0</ele>
        <time>2022-11-20T14:30:43.000Z</time>
      </trkpt>
      <trkpt lat="37.09384167" lon="-3.38673167">
        <ele>2511.0</ele>
        <time>2022-11-20T14:30:44.000Z</time>
      </trkpt>
      <trkpt lat="37.09384667" lon="-3.386745">
        <ele>2511.0</ele>
        <time>2022-11-20T14:30:45.000Z</time>
      </trkpt>
      <trkpt lat="37.09385" lon="-3.38675667">
        <ele>2511.0</ele>
        <time>2022-11-20T14:30:46.000Z</time>
      </trkpt>
      <trkpt lat="37.093855" lon="-3.38677">
        <ele>2510.0</ele>
        <time>2022-11-20T14:30:47.000Z</time>
      </trkpt>
      <trkpt lat="37.09386" lon="-3.38678167">
        <ele>2510.0</ele>
        <time>2022-11-20T14:30:48.000Z</time>
      </trkpt>
      <trkpt lat="37.09386667" lon="-3.38679333">
        <ele>2510.0</ele>
        <time>2022-11-20T14:30:49.000Z</time>
      </trkpt>
      <trkpt lat="37.09387333" lon="-3.38680333">
        <ele>2510.0</ele>
        <time>2022-11-20T14:30:50.000Z</time>
      </trkpt>
      <trkpt lat="37.09388167" lon="-3.38681333">
        <ele>2510.0</ele>
        <time>2022-11-20T14:30:51.000Z</time>
      </trkpt>
      <trkpt lat="37.09389" lon="-3.38682333">
        <ele>2510.0</ele>
        <time>2022-11-20T14:30:52.000Z</time>
      </trkpt>
      <trkpt lat="37.09389667" lon="-3.38683">
        <ele>2510.0</ele>
        <time>2022-11-20T14:30:53.000Z</time>
      </trkpt>
      <trkpt lat="37.09390667" lon="-3.38683833">
        <ele>2510.0</ele>
        <time>2022-11-20T14:30:54.000Z</time>
      </trkpt>
      <trkpt lat="37.093915" lon="-3.386845">
        <ele>2510.0</ele>
        <time>2022-11-20T14:30:55.000Z</time>
      </trkpt>
      <trkpt lat="37.09392167" lon="-3.38685333">
        <ele>2510.0</ele>
        <time>2022-11-20T14:30:56.000Z</time>
      </trkpt>
      <trkpt lat="37.09393167" lon="-3.38686">
        <ele>2509.0</ele>
        <time>2022-11-20T14:30:57.000Z</time>
      </trkpt>
      <trkpt lat="37.09394" lon="-3.386865">
        <ele>2509.0</ele>
        <time>2022-11-20T14:30:58.000Z</time>
      </trkpt>
      <trkpt lat="37.09394833" lon="-3.38687">
        <ele>2509.0</ele>
        <time>2022-11-20T14:30:59.000Z</time>
      </trkpt>
      <trkpt lat="37.09395667" lon="-3.38687333">
        <ele>2509.0</ele>
        <time>2022-11-20T14:31:00.000Z</time>
      </trkpt>
      <trkpt lat="37.09396667" lon="-3.38687667">
        <ele>2509.0</ele>
        <time>2022-11-20T14:31:01.000Z</time>
      </trkpt>
      <trkpt lat="37.093975" lon="-3.38688167">
        <ele>2509.0</ele>
        <time>2022-11-20T14:31:02.000Z</time>
      </trkpt>
      <trkpt lat="37.093985" lon="-3.386885">
        <ele>2509.0</ele>
        <time>2022-11-20T14:31:03.000Z</time>
      </trkpt>
      <trkpt lat="37.093995" lon="-3.38688667">
        <ele>2509.0</ele>
        <time>2022-11-20T14:31:04.000Z</time>
      </trkpt>
      <trkpt lat="37.094005" lon="-3.38688833">
        <ele>2509.0</ele>
        <time>2022-11-20T14:31:05.000Z</time>
      </trkpt>
      <trkpt lat="37.09401333" lon="-3.38689">
        <ele>2509.0</ele>
        <time>2022-11-20T14:31:06.000Z</time>
      </trkpt>
      <trkpt lat="37.09402" lon="-3.38689333">
        <ele>2509.0</ele>
        <time>2022-11-20T14:31:07.000Z</time>
      </trkpt>
      <trkpt lat="37.09403" lon="-3.386895">
        <ele>2509.0</ele>
        <time>2022-11-20T14:31:08.000Z</time>
      </trkpt>
      <trkpt lat="37.09404167" lon="-3.38689333">
        <ele>2508.0</ele>
        <time>2022-11-20T14:31:09.000Z</time>
      </trkpt>
      <trkpt lat="37.09405333" lon="-3.386895">
        <ele>2508.0</ele>
        <time>2022-11-20T14:31:10.000Z</time>
      </trkpt>
      <trkpt lat="37.09406167" lon="-3.386895">
        <ele>2508.0</ele>
        <time>2022-11-20T14:31:11.000Z</time>
      </trkpt>
      <trkpt lat="37.09407167" lon="-3.38689667">
        <ele>2508.0</ele>
        <time>2022-11-20T14:31:12.000Z</time>
      </trkpt>
      <trkpt lat="37.09408" lon="-3.38689833">
        <ele>2508.0</ele>
        <time>2022-11-20T14:31:13.000Z</time>
      </trkpt>
      <trkpt lat="37.09409167" lon="-3.3869">
        <ele>2508.0</ele>
        <time>2022-11-20T14:31:14.000Z</time>
      </trkpt>
      <trkpt lat="37.09410167" lon="-3.38690167">
        <ele>2508.0</ele>
        <time>2022-11-20T14:31:15.000Z</time>
      </trkpt>
      <trkpt lat="37.09411167" lon="-3.38690167">
        <ele>2508.0</ele>
        <time>2022-11-20T14:31:16.000Z</time>
      </trkpt>
      <trkpt lat="37.09412333" lon="-3.38690167">
        <ele>2508.0</ele>
        <time>2022-11-20T14:31:17.000Z</time>
      </trkpt>
      <trkpt lat="37.09413167" lon="-3.38690167">
        <ele>2508.0</ele>
        <time>2022-11-20T14:31:18.000Z</time>
      </trkpt>
      <trkpt lat="37.09414" lon="-3.38689833">
        <ele>2508.0</ele>
        <time>2022-11-20T14:31:19.000Z</time>
      </trkpt>
      <trkpt lat="37.09415" lon="-3.38689833">
        <ele>2508.0</ele>
        <time>2022-11-20T14:31:20.000Z</time>
      </trkpt>
      <trkpt lat="37.09416" lon="-3.386895">
        <ele>2508.0</ele>
        <time>2022-11-20T14:31:21.000Z</time>
      </trkpt>
      <trkpt lat="37.09416667" lon="-3.38689333">
        <ele>2508.0</ele>
        <time>2022-11-20T14:31:22.000Z</time>
      </trkpt>
      <trkpt lat="37.09417833" lon="-3.38689">
        <ele>2508.0</ele>
        <time>2022-11-20T14:31:23.000Z</time>
      </trkpt>
      <trkpt lat="37.09418833" lon="-3.38688833">
        <ele>2508.0</ele>
        <time>2022-11-20T14:31:24.000Z</time>
      </trkpt>
      <trkpt lat="37.0942" lon="-3.38688833">
        <ele>2507.0</ele>
        <time>2022-11-20T14:31:25.000Z</time>
      </trkpt>
      <trkpt lat="37.09421" lon="-3.38688667">
        <ele>2507.0</ele>
        <time>2022-11-20T14:31:26.000Z</time>
      </trkpt>
      <trkpt lat="37.09422" lon="-3.38688667">
        <ele>2507.0</ele>
        <time>2022-11-20T14:31:27.000Z</time>
      </trkpt>
      <trkpt lat="37.09423" lon="-3.386885">
        <ele>2507.0</ele>
        <time>2022-11-20T14:31:28.000Z</time>
      </trkpt>
      <trkpt lat="37.09423833" lon="-3.386885">
        <ele>2507.0</ele>
        <time>2022-11-20T14:31:29.000Z</time>
      </trkpt>
      <trkpt lat="37.09424833" lon="-3.38688">
        <ele>2507.0</ele>
        <time>2022-11-20T14:31:30.000Z</time>
      </trkpt>
      <trkpt lat="37.09425667" lon="-3.38687833">
        <ele>2507.0</ele>
        <time>2022-11-20T14:31:31.000Z</time>
      </trkpt>
      <trkpt lat="37.09426833" lon="-3.386875">
        <ele>2507.0</ele>
        <time>2022-11-20T14:31:32.000Z</time>
      </trkpt>
      <trkpt lat="37.09427833" lon="-3.38687333">
        <ele>2507.0</ele>
        <time>2022-11-20T14:31:33.000Z</time>
      </trkpt>
      <trkpt lat="37.09428833" lon="-3.38687333">
        <ele>2507.0</ele>
        <time>2022-11-20T14:31:34.000Z</time>
      </trkpt>
      <trkpt lat="37.09429833" lon="-3.38687333">
        <ele>2507.0</ele>
        <time>2022-11-20T14:31:35.000Z</time>
      </trkpt>
      <trkpt lat="37.09430667" lon="-3.38687167">
        <ele>2507.0</ele>
        <time>2022-11-20T14:31:36.000Z</time>
      </trkpt>
      <trkpt lat="37.09431833" lon="-3.38687">
        <ele>2507.0</ele>
        <time>2022-11-20T14:31:37.000Z</time>
      </trkpt>
      <trkpt lat="37.09432833" lon="-3.38686833">
        <ele>2507.0</ele>
        <time>2022-11-20T14:31:38.000Z</time>
      </trkpt>
      <trkpt lat="37.09433833" lon="-3.386865">
        <ele>2507.0</ele>
        <time>2022-11-20T14:31:39.000Z</time>
      </trkpt>
      <trkpt lat="37.09434833" lon="-3.38686333">
        <ele>2506.0</ele>
        <time>2022-11-20T14:31:40.000Z</time>
      </trkpt>
      <trkpt lat="37.09435667" lon="-3.38686">
        <ele>2506.0</ele>
        <time>2022-11-20T14:31:41.000Z</time>
      </trkpt>
      <trkpt lat="37.09436667" lon="-3.38686">
        <ele>2506.0</ele>
        <time>2022-11-20T14:31:42.000Z</time>
      </trkpt>
      <trkpt lat="37.09437667" lon="-3.38686167">
        <ele>2506.0</ele>
        <time>2022-11-20T14:31:43.000Z</time>
      </trkpt>
      <trkpt lat="37.094385" lon="-3.38686">
        <ele>2506.0</ele>
        <time>2022-11-20T14:31:44.000Z</time>
      </trkpt>
      <trkpt lat="37.09439333" lon="-3.38685667">
        <ele>2506.0</ele>
        <time>2022-11-20T14:31:45.000Z</time>
      </trkpt>
      <trkpt lat="37.09440333" lon="-3.38685">
        <ele>2506.0</ele>
        <time>2022-11-20T14:31:46.000Z</time>
      </trkpt>
      <trkpt lat="37.09441333" lon="-3.38684833">
        <ele>2506.0</ele>
        <time>2022-11-20T14:31:47.000Z</time>
      </trkpt>
      <trkpt lat="37.09442" lon="-3.38684667">
        <ele>2506.0</ele>
        <time>2022-11-20T14:31:48.000Z</time>
      </trkpt>
      <trkpt lat="37.09443167" lon="-3.386845">
        <ele>2506.0</ele>
        <time>2022-11-20T14:31:49.000Z</time>
      </trkpt>
      <trkpt lat="37.09444" lon="-3.38684">
        <ele>2506.0</ele>
        <time>2022-11-20T14:31:50.000Z</time>
      </trkpt>
      <trkpt lat="37.09445167" lon="-3.386835">
        <ele>2506.0</ele>
        <time>2022-11-20T14:31:51.000Z</time>
      </trkpt>
      <trkpt lat="37.09446167" lon="-3.38683333">
        <ele>2506.0</ele>
        <time>2022-11-20T14:31:52.000Z</time>
      </trkpt>
      <trkpt lat="37.09447" lon="-3.38683167">
        <ele>2506.0</ele>
        <time>2022-11-20T14:31:53.000Z</time>
      </trkpt>
      <trkpt lat="37.09448" lon="-3.38682833">
        <ele>2505.0</ele>
        <time>2022-11-20T14:31:54.000Z</time>
      </trkpt>
      <trkpt lat="37.09449" lon="-3.386825">
        <ele>2505.0</ele>
        <time>2022-11-20T14:31:55.000Z</time>
      </trkpt>
      <trkpt lat="37.0945" lon="-3.38682333">
        <ele>2505.0</ele>
        <time>2022-11-20T14:31:56.000Z</time>
      </trkpt>
      <trkpt lat="37.09450833" lon="-3.38682333">
        <ele>2505.0</ele>
        <time>2022-11-20T14:31:57.000Z</time>
      </trkpt>
      <trkpt lat="37.09451833" lon="-3.38682167">
        <ele>2505.0</ele>
        <time>2022-11-20T14:31:58.000Z</time>
      </trkpt>
      <trkpt lat="37.09452833" lon="-3.38682">
        <ele>2505.0</ele>
        <time>2022-11-20T14:31:59.000Z</time>
      </trkpt>
      <trkpt lat="37.09454" lon="-3.38682">
        <ele>2505.0</ele>
        <time>2022-11-20T14:32:00.000Z</time>
      </trkpt>
      <trkpt lat="37.09455" lon="-3.38682">
        <ele>2504.0</ele>
        <time>2022-11-20T14:32:01.000Z</time>
      </trkpt>
      <trkpt lat="37.09456" lon="-3.38681833">
        <ele>2504.0</ele>
        <time>2022-11-20T14:32:02.000Z</time>
      </trkpt>
      <trkpt lat="37.09457" lon="-3.38681333">
        <ele>2504.0</ele>
        <time>2022-11-20T14:32:03.000Z</time>
      </trkpt>
      <trkpt lat="37.09458" lon="-3.38680833">
        <ele>2504.0</ele>
        <time>2022-11-20T14:32:04.000Z</time>
      </trkpt>
      <trkpt lat="37.09459167" lon="-3.38680167">
        <ele>2504.0</ele>
        <time>2022-11-20T14:32:05.000Z</time>
      </trkpt>
      <trkpt lat="37.09460333" lon="-3.38679667">
        <ele>2504.0</ele>
        <time>2022-11-20T14:32:06.000Z</time>
      </trkpt>
      <trkpt lat="37.094615" lon="-3.38679333">
        <ele>2504.0</ele>
        <time>2022-11-20T14:32:07.000Z</time>
      </trkpt>
      <trkpt lat="37.09462667" lon="-3.38679">
        <ele>2504.0</ele>
        <time>2022-11-20T14:32:08.000Z</time>
      </trkpt>
      <trkpt lat="37.09463667" lon="-3.38678667">
        <ele>2503.0</ele>
        <time>2022-11-20T14:32:09.000Z</time>
      </trkpt>
      <trkpt lat="37.09464667" lon="-3.386785">
        <ele>2503.0</ele>
        <time>2022-11-20T14:32:10.000Z</time>
      </trkpt>
      <trkpt lat="37.094655" lon="-3.38678167">
        <ele>2503.0</ele>
        <time>2022-11-20T14:32:11.000Z</time>
      </trkpt>
      <trkpt lat="37.09466333" lon="-3.38678">
        <ele>2503.0</ele>
        <time>2022-11-20T14:32:12.000Z</time>
      </trkpt>
      <trkpt lat="37.09467167" lon="-3.38677833">
        <ele>2503.0</ele>
        <time>2022-11-20T14:32:13.000Z</time>
      </trkpt>
      <trkpt lat="37.09467833" lon="-3.386775">
        <ele>2503.0</ele>
        <time>2022-11-20T14:32:14.000Z</time>
      </trkpt>
      <trkpt lat="37.094685" lon="-3.38677333">
        <ele>2503.0</ele>
        <time>2022-11-20T14:32:15.000Z</time>
      </trkpt>
      <trkpt lat="37.094695" lon="-3.38677167">
        <ele>2503.0</ele>
        <time>2022-11-20T14:32:16.000Z</time>
      </trkpt>
      <trkpt lat="37.09470667" lon="-3.38677">
        <ele>2503.0</ele>
        <time>2022-11-20T14:32:17.000Z</time>
      </trkpt>
      <trkpt lat="37.09471667" lon="-3.38677">
        <ele>2503.0</ele>
        <time>2022-11-20T14:32:18.000Z</time>
      </trkpt>
      <trkpt lat="37.094725" lon="-3.38676833">
        <ele>2503.0</ele>
        <time>2022-11-20T14:32:19.000Z</time>
      </trkpt>
      <trkpt lat="37.09473667" lon="-3.38676333">
        <ele>2503.0</ele>
        <time>2022-11-20T14:32:20.000Z</time>
      </trkpt>
      <trkpt lat="37.09474667" lon="-3.38676">
        <ele>2503.0</ele>
        <time>2022-11-20T14:32:21.000Z</time>
      </trkpt>
      <trkpt lat="37.09475667" lon="-3.38676">
        <ele>2503.0</ele>
        <time>2022-11-20T14:32:22.000Z</time>
      </trkpt>
      <trkpt lat="37.09476667" lon="-3.38675667">
        <ele>2503.0</ele>
        <time>2022-11-20T14:32:23.000Z</time>
      </trkpt>
      <trkpt lat="37.09477833" lon="-3.38675333">
        <ele>2503.0</ele>
        <time>2022-11-20T14:32:24.000Z</time>
      </trkpt>
      <trkpt lat="37.09478667" lon="-3.38675">
        <ele>2503.0</ele>
        <time>2022-11-20T14:32:25.000Z</time>
      </trkpt>
      <trkpt lat="37.09479833" lon="-3.38674667">
        <ele>2503.0</ele>
        <time>2022-11-20T14:32:26.000Z</time>
      </trkpt>
      <trkpt lat="37.09481167" lon="-3.38674667">
        <ele>2503.0</ele>
        <time>2022-11-20T14:32:27.000Z</time>
      </trkpt>
      <trkpt lat="37.094825" lon="-3.386745">
        <ele>2503.0</ele>
        <time>2022-11-20T14:32:28.000Z</time>
      </trkpt>
      <trkpt lat="37.094835" lon="-3.38674333">
        <ele>2502.0</ele>
        <time>2022-11-20T14:32:29.000Z</time>
      </trkpt>
      <trkpt lat="37.09484" lon="-3.38674333">
        <ele>2502.0</ele>
        <time>2022-11-20T14:32:30.000Z</time>
      </trkpt>
      <trkpt lat="37.09484333" lon="-3.38674333">
        <ele>2502.0</ele>
        <time>2022-11-20T14:32:31.000Z</time>
      </trkpt>
      <trkpt lat="37.09484667" lon="-3.386745">
        <ele>2502.0</ele>
        <time>2022-11-20T14:32:32.000Z</time>
      </trkpt>
      <trkpt lat="37.09484833" lon="-3.38674333">
        <ele>2502.0</ele>
        <time>2022-11-20T14:32:33.000Z</time>
      </trkpt>
      <trkpt lat="37.09485333" lon="-3.38674167">
        <ele>2502.0</ele>
        <time>2022-11-20T14:32:34.000Z</time>
      </trkpt>
      <trkpt lat="37.09486333" lon="-3.38674">
        <ele>2502.0</ele>
        <time>2022-11-20T14:32:35.000Z</time>
      </trkpt>
      <trkpt lat="37.09487333" lon="-3.38673667">
        <ele>2502.0</ele>
        <time>2022-11-20T14:32:36.000Z</time>
      </trkpt>
      <trkpt lat="37.094885" lon="-3.386735">
        <ele>2502.0</ele>
        <time>2022-11-20T14:32:37.000Z</time>
      </trkpt>
      <trkpt lat="37.09489667" lon="-3.38673167">
        <ele>2502.0</ele>
        <time>2022-11-20T14:32:38.000Z</time>
      </trkpt>
      <trkpt lat="37.09490833" lon="-3.38673">
        <ele>2502.0</ele>
        <time>2022-11-20T14:32:39.000Z</time>
      </trkpt>
      <trkpt lat="37.09492" lon="-3.38672833">
        <ele>2502.0</ele>
        <time>2022-11-20T14:32:40.000Z</time>
      </trkpt>
      <trkpt lat="37.09493167" lon="-3.38672833">
        <ele>2502.0</ele>
        <time>2022-11-20T14:32:41.000Z</time>
      </trkpt>
      <trkpt lat="37.09494333" lon="-3.38672833">
        <ele>2502.0</ele>
        <time>2022-11-20T14:32:42.000Z</time>
      </trkpt>
      <trkpt lat="37.094955" lon="-3.38672667">
        <ele>2502.0</ele>
        <time>2022-11-20T14:32:43.000Z</time>
      </trkpt>
      <trkpt lat="37.094965" lon="-3.386725">
        <ele>2502.0</ele>
        <time>2022-11-20T14:32:44.000Z</time>
      </trkpt>
      <trkpt lat="37.09497667" lon="-3.38672333">
        <ele>2502.0</ele>
        <time>2022-11-20T14:32:45.000Z</time>
      </trkpt>
      <trkpt lat="37.09499" lon="-3.38672167">
        <ele>2501.0</ele>
        <time>2022-11-20T14:32:46.000Z</time>
      </trkpt>
      <trkpt lat="37.09500167" lon="-3.38672">
        <ele>2501.0</ele>
        <time>2022-11-20T14:32:47.000Z</time>
      </trkpt>
      <trkpt lat="37.09501167" lon="-3.38671833">
        <ele>2501.0</ele>
        <time>2022-11-20T14:32:48.000Z</time>
      </trkpt>
      <trkpt lat="37.09502333" lon="-3.386715">
        <ele>2501.0</ele>
        <time>2022-11-20T14:32:49.000Z</time>
      </trkpt>
      <trkpt lat="37.095035" lon="-3.386715">
        <ele>2501.0</ele>
        <time>2022-11-20T14:32:50.000Z</time>
      </trkpt>
      <trkpt lat="37.09504667" lon="-3.38671333">
        <ele>2501.0</ele>
        <time>2022-11-20T14:32:51.000Z</time>
      </trkpt>
      <trkpt lat="37.09505667" lon="-3.38671167">
        <ele>2501.0</ele>
        <time>2022-11-20T14:32:52.000Z</time>
      </trkpt>
      <trkpt lat="37.09506833" lon="-3.38671">
        <ele>2501.0</ele>
        <time>2022-11-20T14:32:53.000Z</time>
      </trkpt>
      <trkpt lat="37.09507833" lon="-3.38671">
        <ele>2501.0</ele>
        <time>2022-11-20T14:32:54.000Z</time>
      </trkpt>
      <trkpt lat="37.09508667" lon="-3.38670833">
        <ele>2501.0</ele>
        <time>2022-11-20T14:32:55.000Z</time>
      </trkpt>
      <trkpt lat="37.095095" lon="-3.38670833">
        <ele>2501.0</ele>
        <time>2022-11-20T14:32:56.000Z</time>
      </trkpt>
      <trkpt lat="37.09510333" lon="-3.38670667">
        <ele>2501.0</ele>
        <time>2022-11-20T14:32:57.000Z</time>
      </trkpt>
      <trkpt lat="37.095115" lon="-3.386705">
        <ele>2501.0</ele>
        <time>2022-11-20T14:32:58.000Z</time>
      </trkpt>
      <trkpt lat="37.09512667" lon="-3.386705">
        <ele>2501.0</ele>
        <time>2022-11-20T14:32:59.000Z</time>
      </trkpt>
      <trkpt lat="37.09514" lon="-3.386705">
        <ele>2501.0</ele>
        <time>2022-11-20T14:33:00.000Z</time>
      </trkpt>
      <trkpt lat="37.09515167" lon="-3.38670333">
        <ele>2501.0</ele>
        <time>2022-11-20T14:33:01.000Z</time>
      </trkpt>
      <trkpt lat="37.09516167" lon="-3.38669833">
        <ele>2501.0</ele>
        <time>2022-11-20T14:33:02.000Z</time>
      </trkpt>
      <trkpt lat="37.09517333" lon="-3.38669333">
        <ele>2501.0</ele>
        <time>2022-11-20T14:33:03.000Z</time>
      </trkpt>
      <trkpt lat="37.095185" lon="-3.38668667">
        <ele>2501.0</ele>
        <time>2022-11-20T14:33:04.000Z</time>
      </trkpt>
      <trkpt lat="37.09519833" lon="-3.38668">
        <ele>2501.0</ele>
        <time>2022-11-20T14:33:05.000Z</time>
      </trkpt>
      <trkpt lat="37.09521167" lon="-3.386675">
        <ele>2501.0</ele>
        <time>2022-11-20T14:33:06.000Z</time>
      </trkpt>
      <trkpt lat="37.095225" lon="-3.386675">
        <ele>2501.0</ele>
        <time>2022-11-20T14:33:07.000Z</time>
      </trkpt>
      <trkpt lat="37.095235" lon="-3.38668">
        <ele>2501.0</ele>
        <time>2022-11-20T14:33:08.000Z</time>
      </trkpt>
      <trkpt lat="37.09524333" lon="-3.38668667">
        <ele>2501.0</ele>
        <time>2022-11-20T14:33:09.000Z</time>
      </trkpt>
      <trkpt lat="37.09525167" lon="-3.38669333">
        <ele>2501.0</ele>
        <time>2022-11-20T14:33:10.000Z</time>
      </trkpt>
      <trkpt lat="37.09526167" lon="-3.386695">
        <ele>2501.0</ele>
        <time>2022-11-20T14:33:11.000Z</time>
      </trkpt>
      <trkpt lat="37.09526833" lon="-3.38669833">
        <ele>2501.0</ele>
        <time>2022-11-20T14:33:12.000Z</time>
      </trkpt>
      <trkpt lat="37.09527167" lon="-3.38669833">
        <ele>2501.0</ele>
        <time>2022-11-20T14:33:13.000Z</time>
      </trkpt>
      <trkpt lat="37.095275" lon="-3.38669833">
        <ele>2501.0</ele>
        <time>2022-11-20T14:33:14.000Z</time>
      </trkpt>
      <trkpt lat="37.09527667" lon="-3.38669833">
        <ele>2501.0</ele>
        <time>2022-11-20T14:33:15.000Z</time>
      </trkpt>
      <trkpt lat="37.09528167" lon="-3.38669833">
        <ele>2501.0</ele>
        <time>2022-11-20T14:33:16.000Z</time>
      </trkpt>
      <trkpt lat="37.09529" lon="-3.38669667">
        <ele>2501.0</ele>
        <time>2022-11-20T14:33:17.000Z</time>
      </trkpt>
      <trkpt lat="37.09530167" lon="-3.38669333">
        <ele>2501.0</ele>
        <time>2022-11-20T14:33:18.000Z</time>
      </trkpt>
      <trkpt lat="37.09531333" lon="-3.38669333">
        <ele>2501.0</ele>
        <time>2022-11-20T14:33:19.000Z</time>
      </trkpt>
      <trkpt lat="37.09532667" lon="-3.38669333">
        <ele>2501.0</ele>
        <time>2022-11-20T14:33:20.000Z</time>
      </trkpt>
      <trkpt lat="37.09534" lon="-3.38669167">
        <ele>2501.0</ele>
        <time>2022-11-20T14:33:21.000Z</time>
      </trkpt>
      <trkpt lat="37.09535" lon="-3.38669333">
        <ele>2501.0</ele>
        <time>2022-11-20T14:33:22.000Z</time>
      </trkpt>
      <trkpt lat="37.09536" lon="-3.386695">
        <ele>2501.0</ele>
        <time>2022-11-20T14:33:23.000Z</time>
      </trkpt>
      <trkpt lat="37.09537" lon="-3.38669667">
        <ele>2501.0</ele>
        <time>2022-11-20T14:33:24.000Z</time>
      </trkpt>
      <trkpt lat="37.09538167" lon="-3.3867">
        <ele>2501.0</ele>
        <time>2022-11-20T14:33:25.000Z</time>
      </trkpt>
      <trkpt lat="37.09539167" lon="-3.38670333">
        <ele>2501.0</ele>
        <time>2022-11-20T14:33:26.000Z</time>
      </trkpt>
      <trkpt lat="37.09540167" lon="-3.386705">
        <ele>2501.0</ele>
        <time>2022-11-20T14:33:27.000Z</time>
      </trkpt>
      <trkpt lat="37.09540833" lon="-3.38671">
        <ele>2501.0</ele>
        <time>2022-11-20T14:33:28.000Z</time>
      </trkpt>
      <trkpt lat="37.09541833" lon="-3.38671333">
        <ele>2501.0</ele>
        <time>2022-11-20T14:33:29.000Z</time>
      </trkpt>
      <trkpt lat="37.09542667" lon="-3.38671667">
        <ele>2501.0</ele>
        <time>2022-11-20T14:33:30.000Z</time>
      </trkpt>
      <trkpt lat="37.095435" lon="-3.38672">
        <ele>2501.0</ele>
        <time>2022-11-20T14:33:31.000Z</time>
      </trkpt>
      <trkpt lat="37.09544333" lon="-3.38672333">
        <ele>2501.0</ele>
        <time>2022-11-20T14:33:32.000Z</time>
      </trkpt>
      <trkpt lat="37.09545333" lon="-3.386725">
        <ele>2501.0</ele>
        <time>2022-11-20T14:33:33.000Z</time>
      </trkpt>
      <trkpt lat="37.09546333" lon="-3.38672667">
        <ele>2501.0</ele>
        <time>2022-11-20T14:33:34.000Z</time>
      </trkpt>
      <trkpt lat="37.095475" lon="-3.38672833">
        <ele>2501.0</ele>
        <time>2022-11-20T14:33:35.000Z</time>
      </trkpt>
      <trkpt lat="37.09548333" lon="-3.38673">
        <ele>2501.0</ele>
        <time>2022-11-20T14:33:36.000Z</time>
      </trkpt>
      <trkpt lat="37.09549" lon="-3.38673167">
        <ele>2501.0</ele>
        <time>2022-11-20T14:33:37.000Z</time>
      </trkpt>
      <trkpt lat="37.09549167" lon="-3.38673167">
        <ele>2501.0</ele>
        <time>2022-11-20T14:33:38.000Z</time>
      </trkpt>
      <trkpt lat="37.09549167" lon="-3.38673167">
        <ele>2501.0</ele>
        <time>2022-11-20T14:33:39.000Z</time>
      </trkpt>
      <trkpt lat="37.09549333" lon="-3.38673167">
        <ele>2501.0</ele>
        <time>2022-11-20T14:33:40.000Z</time>
      </trkpt>
      <trkpt lat="37.09549333" lon="-3.38673333">
        <ele>2501.0</ele>
        <time>2022-11-20T14:33:41.000Z</time>
      </trkpt>
      <trkpt lat="37.095495" lon="-3.38673667">
        <ele>2501.0</ele>
        <time>2022-11-20T14:33:42.000Z</time>
      </trkpt>
      <trkpt lat="37.09544333" lon="-3.38666">
        <ele>2516.0</ele>
        <time>2022-11-20T09:16:39.000Z</time>
      </trkpt>
      <trkpt lat="37.09544" lon="-3.38666">
        <ele>2516.0</ele>
        <time>2022-11-20T09:16:40.000Z</time>
      </trkpt>
      <trkpt lat="37.09544" lon="-3.38666">
        <ele>2516.0</ele>
        <time>2022-11-20T09:16:41.000Z</time>
      </trkpt>
      <trkpt lat="37.09544167" lon="-3.38666">
        <ele>2516.0</ele>
        <time>2022-11-20T09:16:42.000Z</time>
      </trkpt>
      <trkpt lat="37.09544333" lon="-3.38666">
        <ele>2516.0</ele>
        <time>2022-11-20T09:16:43.000Z</time>
      </trkpt>
      <trkpt lat="37.09544333" lon="-3.38666">
        <ele>2516.0</ele>
        <time>2022-11-20T09:16:44.000Z</time>
      </trkpt>
      <trkpt lat="37.09544333" lon="-3.38666">
        <ele>2516.0</ele>
        <time>2022-11-20T09:16:45.000Z</time>
      </trkpt>
      <trkpt lat="37.095445" lon="-3.38666">
        <ele>2516.0</ele>
        <time>2022-11-20T09:16:46.000Z</time>
      </trkpt>
      <trkpt lat="37.095445" lon="-3.38666">
        <ele>2516.0</ele>
        <time>2022-11-20T09:16:47.000Z</time>
      </trkpt>
      <trkpt lat="37.09544667" lon="-3.38666">
        <ele>2516.0</ele>
        <time>2022-11-20T09:16:48.000Z</time>
      </trkpt>
      <trkpt lat="37.09544667" lon="-3.38665833">
        <ele>2516.0</ele>
        <time>2022-11-20T09:16:49.000Z</time>
      </trkpt>
      <trkpt lat="37.09544667" lon="-3.38665833">
        <ele>2516.0</ele>
        <time>2022-11-20T09:16:50.000Z</time>
      </trkpt>
      <trkpt lat="37.09544667" lon="-3.38665833">
        <ele>2516.0</ele>
        <time>2022-11-20T09:16:51.000Z</time>
      </trkpt>
      <trkpt lat="37.09544667" lon="-3.38665833">
        <ele>2516.0</ele>
        <time>2022-11-20T09:16:52.000Z</time>
      </trkpt>
      <trkpt lat="37.09544833" lon="-3.38665833">
        <ele>2516.0</ele>
        <time>2022-11-20T09:16:53.000Z</time>
      </trkpt>
      <trkpt lat="37.09544833" lon="-3.38665833">
        <ele>2516.0</ele>
        <time>2022-11-20T09:16:54.000Z</time>
      </trkpt>
      <trkpt lat="37.09544833" lon="-3.38665667">
        <ele>2516.0</ele>
        <time>2022-11-20T09:16:55.000Z</time>
      </trkpt>
      <trkpt lat="37.09544667" lon="-3.38665667">
        <ele>2516.0</ele>
        <time>2022-11-20T09:16:56.000Z</time>
      </trkpt>
      <trkpt lat="37.095445" lon="-3.386655">
        <ele>2516.0</ele>
        <time>2022-11-20T09:16:57.000Z</time>
      </trkpt>
      <trkpt lat="37.09544" lon="-3.38665333">
        <ele>2516.0</ele>
        <time>2022-11-20T09:16:58.000Z</time>
      </trkpt>
      <trkpt lat="37.09543167" lon="-3.38665333">
        <ele>2516.0</ele>
        <time>2022-11-20T09:16:59.000Z</time>
      </trkpt>
      <trkpt lat="37.09542167" lon="-3.38665333">
        <ele>2516.0</ele>
        <time>2022-11-20T09:17:00.000Z</time>
      </trkpt>
      <trkpt lat="37.09541333" lon="-3.38665">
        <ele>2516.0</ele>
        <time>2022-11-20T09:17:01.000Z</time>
      </trkpt>
      <trkpt lat="37.09540333" lon="-3.38664667">
        <ele>2516.0</ele>
        <time>2022-11-20T09:17:02.000Z</time>
      </trkpt>
      <trkpt lat="37.09539667" lon="-3.38664667">
        <ele>2516.0</ele>
        <time>2022-11-20T09:17:03.000Z</time>
      </trkpt>
      <trkpt lat="37.09538833" lon="-3.38665">
        <ele>2516.0</ele>
        <time>2022-11-20T09:17:04.000Z</time>
      </trkpt>
      <trkpt lat="37.09538167" lon="-3.38665">
        <ele>2516.0</ele>
        <time>2022-11-20T09:17:05.000Z</time>
      </trkpt>
      <trkpt lat="37.095375" lon="-3.38665">
        <ele>2516.0</ele>
        <time>2022-11-20T09:17:06.000Z</time>
      </trkpt>
      <trkpt lat="37.095365" lon="-3.38665167">
        <ele>2516.0</ele>
        <time>2022-11-20T09:17:07.000Z</time>
      </trkpt>
      <trkpt lat="37.09535667" lon="-3.38665667">
        <ele>2516.0</ele>
        <time>2022-11-20T09:17:08.000Z</time>
      </trkpt>
      <trkpt lat="37.09534833" lon="-3.38666167">
        <ele>2516.0</ele>
        <time>2022-11-20T09:17:09.000Z</time>
      </trkpt>
      <trkpt lat="37.09534" lon="-3.386665">
        <ele>2516.0</ele>
        <time>2022-11-20T09:17:10.000Z</time>
      </trkpt>
      <trkpt lat="37.09533167" lon="-3.38667">
        <ele>2516.0</ele>
        <time>2022-11-20T09:17:11.000Z</time>
      </trkpt>
      <trkpt lat="37.09532333" lon="-3.38667667">
        <ele>2515.0</ele>
        <time>2022-11-20T09:17:12.000Z</time>
      </trkpt>
      <trkpt lat="37.095315" lon="-3.38668333">
        <ele>2515.0</ele>
        <time>2022-11-20T09:17:13.000Z</time>
      </trkpt>
      <trkpt lat="37.09530833" lon="-3.38668833">
        <ele>2515.0</ele>
        <time>2022-11-20T09:17:14.000Z</time>
      </trkpt>
      <trkpt lat="37.09529833" lon="-3.38669333">
        <ele>2515.0</ele>
        <time>2022-11-20T09:17:15.000Z</time>
      </trkpt>
      <trkpt lat="37.09528667" lon="-3.386695">
        <ele>2514.0</ele>
        <time>2022-11-20T09:17:16.000Z</time>
      </trkpt>
      <trkpt lat="37.09527667" lon="-3.386695">
        <ele>2514.0</ele>
        <time>2022-11-20T09:17:17.000Z</time>
      </trkpt>
      <trkpt lat="37.09526667" lon="-3.386695">
        <ele>2514.0</ele>
        <time>2022-11-20T09:17:18.000Z</time>
      </trkpt>
      <trkpt lat="37.09525667" lon="-3.38669667">
        <ele>2514.0</ele>
        <time>2022-11-20T09:17:19.000Z</time>
      </trkpt>
      <trkpt lat="37.09524833" lon="-3.38670167">
        <ele>2514.0</ele>
        <time>2022-11-20T09:17:20.000Z</time>
      </trkpt>
      <trkpt lat="37.09523833" lon="-3.386705">
        <ele>2514.0</ele>
        <time>2022-11-20T09:17:21.000Z</time>
      </trkpt>
      <trkpt lat="37.09522833" lon="-3.38670667">
        <ele>2514.0</ele>
        <time>2022-11-20T09:17:22.000Z</time>
      </trkpt>
      <trkpt lat="37.09521833" lon="-3.38670833">
        <ele>2514.0</ele>
        <time>2022-11-20T09:17:23.000Z</time>
      </trkpt>
      <trkpt lat="37.09521" lon="-3.38670667">
        <ele>2514.0</ele>
        <time>2022-11-20T09:17:24.000Z</time>
      </trkpt>
      <trkpt lat="37.09521" lon="-3.386705">
        <ele>2513.0</ele>
        <time>2022-11-20T09:17:25.000Z</time>
      </trkpt>
      <trkpt lat="37.09520833" lon="-3.386705">
        <ele>2513.0</ele>
        <time>2022-11-20T09:17:26.000Z</time>
      </trkpt>
      <trkpt lat="37.09520833" lon="-3.38670833">
        <ele>2513.0</ele>
        <time>2022-11-20T09:17:27.000Z</time>
      </trkpt>
      <trkpt lat="37.09520333" lon="-3.38670833">
        <ele>2513.0</ele>
        <time>2022-11-20T09:17:28.000Z</time>
      </trkpt>
      <trkpt lat="37.09519333" lon="-3.38671">
        <ele>2513.0</ele>
        <time>2022-11-20T09:17:29.000Z</time>
      </trkpt>
      <trkpt lat="37.09518167" lon="-3.38671333">
        <ele>2512.0</ele>
        <time>2022-11-20T09:17:30.000Z</time>
      </trkpt>
      <trkpt lat="37.09517" lon="-3.386715">
        <ele>2512.0</ele>
        <time>2022-11-20T09:17:31.000Z</time>
      </trkpt>
      <trkpt lat="37.09516" lon="-3.38671833">
        <ele>2512.0</ele>
        <time>2022-11-20T09:17:32.000Z</time>
      </trkpt>
      <trkpt lat="37.09514833" lon="-3.38672167">
        <ele>2512.0</ele>
        <time>2022-11-20T09:17:33.000Z</time>
      </trkpt>
      <trkpt lat="37.09513833" lon="-3.38672333">
        <ele>2512.0</ele>
        <time>2022-11-20T09:17:34.000Z</time>
      </trkpt>
      <trkpt lat="37.09512667" lon="-3.386725">
        <ele>2511.0</ele>
        <time>2022-11-20T09:17:35.000Z</time>
      </trkpt>
      <trkpt lat="37.09511667" lon="-3.38672667">
        <ele>2511.0</ele>
        <time>2022-11-20T09:17:36.000Z</time>
      </trkpt>
      <trkpt lat="37.09510667" lon="-3.38672667">
        <ele>2511.0</ele>
        <time>2022-11-20T09:17:37.000Z</time>
      </trkpt>
      <trkpt lat="37.095095" lon="-3.38673">
        <ele>2511.0</ele>
        <time>2022-11-20T09:17:38.000Z</time>
      </trkpt>
      <trkpt lat="37.09508333" lon="-3.38673">
        <ele>2511.0</ele>
        <time>2022-11-20T09:17:39.000Z</time>
      </trkpt>
      <trkpt lat="37.09507167" lon="-3.38673167">
        <ele>2511.0</ele>
        <time>2022-11-20T09:17:40.000Z</time>
      </trkpt>
      <trkpt lat="37.09506167" lon="-3.38673333">
        <ele>2510.0</ele>
        <time>2022-11-20T09:17:41.000Z</time>
      </trkpt>
      <trkpt lat="37.09505167" lon="-3.386735">
        <ele>2510.0</ele>
        <time>2022-11-20T09:17:42.000Z</time>
      </trkpt>
      <trkpt lat="37.09504167" lon="-3.38673833">
        <ele>2510.0</ele>
        <time>2022-11-20T09:17:43.000Z</time>
      </trkpt>
      <trkpt lat="37.09503167" lon="-3.38674167">
        <ele>2510.0</ele>
        <time>2022-11-20T09:17:44.000Z</time>
      </trkpt>
      <trkpt lat="37.09502167" lon="-3.38674333">
        <ele>2510.0</ele>
        <time>2022-11-20T09:17:45.000Z</time>
      </trkpt>
      <trkpt lat="37.09501" lon="-3.38674667">
        <ele>2510.0</ele>
        <time>2022-11-20T09:17:46.000Z</time>
      </trkpt>
      <trkpt lat="37.095" lon="-3.38674833">
        <ele>2509.0</ele>
        <time>2022-11-20T09:17:47.000Z</time>
      </trkpt>
      <trkpt lat="37.09499" lon="-3.38675167">
        <ele>2509.0</ele>
        <time>2022-11-20T09:17:48.000Z</time>
      </trkpt>
      <trkpt lat="37.09497833" lon="-3.38675333">
        <ele>2509.0</ele>
        <time>2022-11-20T09:17:49.000Z</time>
      </trkpt>
      <trkpt lat="37.09496833" lon="-3.38675667">
        <ele>2509.0</ele>
        <time>2022-11-20T09:17:50.000Z</time>
      </trkpt>
      <trkpt lat="37.09495833" lon="-3.38676">
        <ele>2509.0</ele>
        <time>2022-11-20T09:17:51.000Z</time>
      </trkpt>
      <trkpt lat="37.09494667" lon="-3.38676333">
        <ele>2509.0</ele>
        <time>2022-11-20T09:17:52.000Z</time>
      </trkpt>
      <trkpt lat="37.094935" lon="-3.386765">
        <ele>2509.0</ele>
        <time>2022-11-20T09:17:53.000Z</time>
      </trkpt>
      <trkpt lat="37.09492667" lon="-3.38676667">
        <ele>2509.0</ele>
        <time>2022-11-20T09:17:54.000Z</time>
      </trkpt>
      <trkpt lat="37.09491667" lon="-3.38677">
        <ele>2509.0</ele>
        <time>2022-11-20T09:17:55.000Z</time>
      </trkpt>
      <trkpt lat="37.09490667" lon="-3.386775">
        <ele>2508.0</ele>
        <time>2022-11-20T09:17:56.000Z</time>
      </trkpt>
      <trkpt lat="37.09489667" lon="-3.38677833">
        <ele>2508.0</ele>
        <time>2022-11-20T09:17:57.000Z</time>
      </trkpt>
      <trkpt lat="37.09488667" lon="-3.38677833">
        <ele>2508.0</ele>
        <time>2022-11-20T09:17:58.000Z</time>
      </trkpt>
      <trkpt lat="37.09487667" lon="-3.38678167">
        <ele>2508.0</ele>
        <time>2022-11-20T09:17:59.000Z</time>
      </trkpt>
      <trkpt lat="37.09486667" lon="-3.38678333">
        <ele>2508.0</ele>
        <time>2022-11-20T09:18:00.000Z</time>
      </trkpt>
      <trkpt lat="37.09485667" lon="-3.38678667">
        <ele>2508.0</ele>
        <time>2022-11-20T09:18:01.000Z</time>
      </trkpt>
      <trkpt lat="37.09484667" lon="-3.38679">
        <ele>2508.0</ele>
        <time>2022-11-20T09:18:02.000Z</time>
      </trkpt>
      <trkpt lat="37.094835" lon="-3.38679167">
        <ele>2508.0</ele>
        <time>2022-11-20T09:18:03.000Z</time>
      </trkpt>
      <trkpt lat="37.09482333" lon="-3.386795">
        <ele>2508.0</ele>
        <time>2022-11-20T09:18:04.000Z</time>
      </trkpt>
      <trkpt lat="37.09481167" lon="-3.38679833">
        <ele>2508.0</ele>
        <time>2022-11-20T09:18:05.000Z</time>
      </trkpt>
      <trkpt lat="37.09480167" lon="-3.38680333">
        <ele>2508.0</ele>
        <time>2022-11-20T09:18:06.000Z</time>
      </trkpt>
      <trkpt lat="37.09479167" lon="-3.38680667">
        <ele>2508.0</ele>
        <time>2022-11-20T09:18:07.000Z</time>
      </trkpt>
      <trkpt lat="37.09478167" lon="-3.38681">
        <ele>2508.0</ele>
        <time>2022-11-20T09:18:08.000Z</time>
      </trkpt>
      <trkpt lat="37.09477" lon="-3.38681333">
        <ele>2508.0</ele>
        <time>2022-11-20T09:18:09.000Z</time>
      </trkpt>
      <trkpt lat="37.09476" lon="-3.38681667">
        <ele>2508.0</ele>
        <time>2022-11-20T09:18:10.000Z</time>
      </trkpt>
      <trkpt lat="37.09475" lon="-3.38681833">
        <ele>2508.0</ele>
        <time>2022-11-20T09:18:11.000Z</time>
      </trkpt>
      <trkpt lat="37.09473833" lon="-3.38682">
        <ele>2508.0</ele>
        <time>2022-11-20T09:18:12.000Z</time>
      </trkpt>
      <trkpt lat="37.09472667" lon="-3.38682333">
        <ele>2508.0</ele>
        <time>2022-11-20T09:18:13.000Z</time>
      </trkpt>
      <trkpt lat="37.09471667" lon="-3.38682667">
        <ele>2508.0</ele>
        <time>2022-11-20T09:18:14.000Z</time>
      </trkpt>
      <trkpt lat="37.094705" lon="-3.38683">
        <ele>2508.0</ele>
        <time>2022-11-20T09:18:15.000Z</time>
      </trkpt>
      <trkpt lat="37.094695" lon="-3.38683167">
        <ele>2508.0</ele>
        <time>2022-11-20T09:18:16.000Z</time>
      </trkpt>
      <trkpt lat="37.09468333" lon="-3.386835">
        <ele>2508.0</ele>
        <time>2022-11-20T09:18:17.000Z</time>
      </trkpt>
      <trkpt lat="37.09467167" lon="-3.38683833">
        <ele>2508.0</ele>
        <time>2022-11-20T09:18:18.000Z</time>
      </trkpt>
      <trkpt lat="37.09466167" lon="-3.38684167">
        <ele>2508.0</ele>
        <time>2022-11-20T09:18:19.000Z</time>
      </trkpt>
      <trkpt lat="37.09465" lon="-3.38684167">
        <ele>2508.0</ele>
        <time>2022-11-20T09:18:20.000Z</time>
      </trkpt>
      <trkpt lat="37.09464" lon="-3.38684333">
        <ele>2508.0</ele>
        <time>2022-11-20T09:18:21.000Z</time>
      </trkpt>
      <trkpt lat="37.09463" lon="-3.38684333">
        <ele>2508.0</ele>
        <time>2022-11-20T09:18:22.000Z</time>
      </trkpt>
      <trkpt lat="37.09462" lon="-3.38684833">
        <ele>2508.0</ele>
        <time>2022-11-20T09:18:23.000Z</time>
      </trkpt>
      <trkpt lat="37.09460833" lon="-3.38685333">
        <ele>2509.0</ele>
        <time>2022-11-20T09:18:24.000Z</time>
      </trkpt>
      <trkpt lat="37.09459833" lon="-3.38685667">
        <ele>2509.0</ele>
        <time>2022-11-20T09:18:25.000Z</time>
      </trkpt>
      <trkpt lat="37.09458667" lon="-3.38685667">
        <ele>2509.0</ele>
        <time>2022-11-20T09:18:26.000Z</time>
      </trkpt>
      <trkpt lat="37.09457833" lon="-3.38685833">
        <ele>2509.0</ele>
        <time>2022-11-20T09:18:27.000Z</time>
      </trkpt>
      <trkpt lat="37.09457" lon="-3.38686167">
        <ele>2509.0</ele>
        <time>2022-11-20T09:18:28.000Z</time>
      </trkpt>
      <trkpt lat="37.09456167" lon="-3.38686333">
        <ele>2509.0</ele>
        <time>2022-11-20T09:18:29.000Z</time>
      </trkpt>
      <trkpt lat="37.09455167" lon="-3.38686333">
        <ele>2509.0</ele>
        <time>2022-11-20T09:18:30.000Z</time>
      </trkpt>
      <trkpt lat="37.09454333" lon="-3.38686167">
        <ele>2509.0</ele>
        <time>2022-11-20T09:18:31.000Z</time>
      </trkpt>
      <trkpt lat="37.09453333" lon="-3.38686167">
        <ele>2509.0</ele>
        <time>2022-11-20T09:18:32.000Z</time>
      </trkpt>
      <trkpt lat="37.09452167" lon="-3.38686167">
        <ele>2509.0</ele>
        <time>2022-11-20T09:18:33.000Z</time>
      </trkpt>
      <trkpt lat="37.09451167" lon="-3.38686167">
        <ele>2509.0</ele>
        <time>2022-11-20T09:18:34.000Z</time>
      </trkpt>
      <trkpt lat="37.0945" lon="-3.38686167">
        <ele>2509.0</ele>
        <time>2022-11-20T09:18:35.000Z</time>
      </trkpt>
      <trkpt lat="37.09449" lon="-3.38686333">
        <ele>2509.0</ele>
        <time>2022-11-20T09:18:36.000Z</time>
      </trkpt>
      <trkpt lat="37.09447833" lon="-3.386865">
        <ele>2509.0</ele>
        <time>2022-11-20T09:18:37.000Z</time>
      </trkpt>
      <trkpt lat="37.09446833" lon="-3.38686667">
        <ele>2509.0</ele>
        <time>2022-11-20T09:18:38.000Z</time>
      </trkpt>
      <trkpt lat="37.09446167" lon="-3.386865">
        <ele>2509.0</ele>
        <time>2022-11-20T09:18:39.000Z</time>
      </trkpt>
      <trkpt lat="37.09446" lon="-3.38686333">
        <ele>2509.0</ele>
        <time>2022-11-20T09:18:40.000Z</time>
      </trkpt>
      <trkpt lat="37.09445833" lon="-3.38686333">
        <ele>2509.0</ele>
        <time>2022-11-20T09:18:41.000Z</time>
      </trkpt>
      <trkpt lat="37.09446" lon="-3.38686">
        <ele>2509.0</ele>
        <time>2022-11-20T09:18:42.000Z</time>
      </trkpt>
      <trkpt lat="37.09445833" lon="-3.38686333">
        <ele>2509.0</ele>
        <time>2022-11-20T09:18:43.000Z</time>
      </trkpt>
      <trkpt lat="37.09445167" lon="-3.38686833">
        <ele>2509.0</ele>
        <time>2022-11-20T09:18:44.000Z</time>
      </trkpt>
      <trkpt lat="37.09444333" lon="-3.38687333">
        <ele>2509.0</ele>
        <time>2022-11-20T09:18:45.000Z</time>
      </trkpt>
      <trkpt lat="37.09443333" lon="-3.38687667">
        <ele>2509.0</ele>
        <time>2022-11-20T09:18:46.000Z</time>
      </trkpt>
      <trkpt lat="37.09442333" lon="-3.38688">
        <ele>2509.0</ele>
        <time>2022-11-20T09:18:47.000Z</time>
      </trkpt>
      <trkpt lat="37.09441333" lon="-3.38688333">
        <ele>2509.0</ele>
        <time>2022-11-20T09:18:48.000Z</time>
      </trkpt>
      <trkpt lat="37.09440333" lon="-3.386885">
        <ele>2509.0</ele>
        <time>2022-11-20T09:18:49.000Z</time>
      </trkpt>
      <trkpt lat="37.094395" lon="-3.38688667">
        <ele>2509.0</ele>
        <time>2022-11-20T09:18:50.000Z</time>
      </trkpt>
      <trkpt lat="37.094385" lon="-3.38688833">
        <ele>2509.0</ele>
        <time>2022-11-20T09:18:51.000Z</time>
      </trkpt>
      <trkpt lat="37.094375" lon="-3.38689">
        <ele>2509.0</ele>
        <time>2022-11-20T09:18:52.000Z</time>
      </trkpt>
      <trkpt lat="37.094365" lon="-3.38689333">
        <ele>2509.0</ele>
        <time>2022-11-20T09:18:53.000Z</time>
      </trkpt>
      <trkpt lat="37.094355" lon="-3.386895">
        <ele>2509.0</ele>
        <time>2022-11-20T09:18:54.000Z</time>
      </trkpt>
      <trkpt lat="37.094345" lon="-3.38689833">
        <ele>2509.0</ele>
        <time>2022-11-20T09:18:55.000Z</time>
      </trkpt>
      <trkpt lat="37.094335" lon="-3.38690167">
        <ele>2510.0</ele>
        <time>2022-11-20T09:18:56.000Z</time>
      </trkpt>
      <trkpt lat="37.094325" lon="-3.38690333">
        <ele>2510.0</ele>
        <time>2022-11-20T09:18:57.000Z</time>
      </trkpt>
      <trkpt lat="37.09431667" lon="-3.386905">
        <ele>2510.0</ele>
        <time>2022-11-20T09:18:58.000Z</time>
      </trkpt>
      <trkpt lat="37.09430833" lon="-3.38690667">
        <ele>2510.0</ele>
        <time>2022-11-20T09:18:59.000Z</time>
      </trkpt>
      <trkpt lat="37.09429833" lon="-3.38690833">
        <ele>2510.0</ele>
        <time>2022-11-20T09:19:00.000Z</time>
      </trkpt>
      <trkpt lat="37.09429" lon="-3.38691167">
        <ele>2510.0</ele>
        <time>2022-11-20T09:19:01.000Z</time>
      </trkpt>
      <trkpt lat="37.09428" lon="-3.386915">
        <ele>2510.0</ele>
        <time>2022-11-20T09:19:02.000Z</time>
      </trkpt>
      <trkpt lat="37.09427167" lon="-3.38691667">
        <ele>2510.0</ele>
        <time>2022-11-20T09:19:03.000Z</time>
      </trkpt>
      <trkpt lat="37.09426167" lon="-3.38691833">
        <ele>2510.0</ele>
        <time>2022-11-20T09:19:04.000Z</time>
      </trkpt>
      <trkpt lat="37.09425167" lon="-3.38692">
        <ele>2510.0</ele>
        <time>2022-11-20T09:19:05.000Z</time>
      </trkpt>
      <trkpt lat="37.09424167" lon="-3.38692333">
        <ele>2510.0</ele>
        <time>2022-11-20T09:19:06.000Z</time>
      </trkpt>
      <trkpt lat="37.09423" lon="-3.386925">
        <ele>2510.0</ele>
        <time>2022-11-20T09:19:07.000Z</time>
      </trkpt>
      <trkpt lat="37.09422" lon="-3.38692667">
        <ele>2510.0</ele>
        <time>2022-11-20T09:19:08.000Z</time>
      </trkpt>
      <trkpt lat="37.09420833" lon="-3.38692833">
        <ele>2510.0</ele>
        <time>2022-11-20T09:19:09.000Z</time>
      </trkpt>
      <trkpt lat="37.09419833" lon="-3.38693167">
        <ele>2510.0</ele>
        <time>2022-11-20T09:19:10.000Z</time>
      </trkpt>
      <trkpt lat="37.09418667" lon="-3.38693333">
        <ele>2510.0</ele>
        <time>2022-11-20T09:19:11.000Z</time>
      </trkpt>
      <trkpt lat="37.09417667" lon="-3.386935">
        <ele>2510.0</ele>
        <time>2022-11-20T09:19:12.000Z</time>
      </trkpt>
      <trkpt lat="37.09416667" lon="-3.386935">
        <ele>2510.0</ele>
        <time>2022-11-20T09:19:13.000Z</time>
      </trkpt>
      <trkpt lat="37.09415667" lon="-3.38693667">
        <ele>2510.0</ele>
        <time>2022-11-20T09:19:14.000Z</time>
      </trkpt>
      <trkpt lat="37.094145" lon="-3.38694">
        <ele>2510.0</ele>
        <time>2022-11-20T09:19:15.000Z</time>
      </trkpt>
      <trkpt lat="37.09413667" lon="-3.38693667">
        <ele>2510.0</ele>
        <time>2022-11-20T09:19:16.000Z</time>
      </trkpt>
      <trkpt lat="37.09413333" lon="-3.386935">
        <ele>2510.0</ele>
        <time>2022-11-20T09:19:17.000Z</time>
      </trkpt>
      <trkpt lat="37.09413" lon="-3.386935">
        <ele>2510.0</ele>
        <time>2022-11-20T09:19:18.000Z</time>
      </trkpt>
      <trkpt lat="37.094125" lon="-3.38693667">
        <ele>2510.0</ele>
        <time>2022-11-20T09:19:19.000Z</time>
      </trkpt>
      <trkpt lat="37.09411667" lon="-3.38694">
        <ele>2510.0</ele>
        <time>2022-11-20T09:19:20.000Z</time>
      </trkpt>
      <trkpt lat="37.09411" lon="-3.38694">
        <ele>2510.0</ele>
        <time>2022-11-20T09:19:21.000Z</time>
      </trkpt>
      <trkpt lat="37.09409833" lon="-3.38694">
        <ele>2510.0</ele>
        <time>2022-11-20T09:19:22.000Z</time>
      </trkpt>
      <trkpt lat="37.09408833" lon="-3.38694">
        <ele>2510.0</ele>
        <time>2022-11-20T09:19:23.000Z</time>
      </trkpt>
      <trkpt lat="37.09407667" lon="-3.38694">
        <ele>2510.0</ele>
        <time>2022-11-20T09:19:24.000Z</time>
      </trkpt>
      <trkpt lat="37.09406667" lon="-3.38694">
        <ele>2510.0</ele>
        <time>2022-11-20T09:19:25.000Z</time>
      </trkpt>
      <trkpt lat="37.094055" lon="-3.38694">
        <ele>2510.0</ele>
        <time>2022-11-20T09:19:26.000Z</time>
      </trkpt>
      <trkpt lat="37.09404333" lon="-3.38693833">
        <ele>2510.0</ele>
        <time>2022-11-20T09:19:27.000Z</time>
      </trkpt>
      <trkpt lat="37.09403167" lon="-3.386935">
        <ele>2510.0</ele>
        <time>2022-11-20T09:19:28.000Z</time>
      </trkpt>
      <trkpt lat="37.09402167" lon="-3.38693">
        <ele>2510.0</ele>
        <time>2022-11-20T09:19:29.000Z</time>
      </trkpt>
      <trkpt lat="37.09401167" lon="-3.38692667">
        <ele>2510.0</ele>
        <time>2022-11-20T09:19:30.000Z</time>
      </trkpt>
      <trkpt lat="37.09400333" lon="-3.38692333">
        <ele>2511.0</ele>
        <time>2022-11-20T09:19:31.000Z</time>
      </trkpt>
      <trkpt lat="37.093995" lon="-3.38692167">
        <ele>2511.0</ele>
        <time>2022-11-20T09:19:32.000Z</time>
      </trkpt>
      <trkpt lat="37.09398333" lon="-3.38691833">
        <ele>2511.0</ele>
        <time>2022-11-20T09:19:33.000Z</time>
      </trkpt>
      <trkpt lat="37.09397333" lon="-3.386915">
        <ele>2511.0</ele>
        <time>2022-11-20T09:19:34.000Z</time>
      </trkpt>
      <trkpt lat="37.09396333" lon="-3.38690833">
        <ele>2511.0</ele>
        <time>2022-11-20T09:19:35.000Z</time>
      </trkpt>
      <trkpt lat="37.09395333" lon="-3.386905">
        <ele>2511.0</ele>
        <time>2022-11-20T09:19:36.000Z</time>
      </trkpt>
      <trkpt lat="37.09394333" lon="-3.3869">
        <ele>2511.0</ele>
        <time>2022-11-20T09:19:37.000Z</time>
      </trkpt>
      <trkpt lat="37.093935" lon="-3.38689667">
        <ele>2511.0</ele>
        <time>2022-11-20T09:19:38.000Z</time>
      </trkpt>
      <trkpt lat="37.09392667" lon="-3.38689">
        <ele>2511.0</ele>
        <time>2022-11-20T09:19:39.000Z</time>
      </trkpt>
      <trkpt lat="37.09391667" lon="-3.38688333">
        <ele>2511.0</ele>
        <time>2022-11-20T09:19:40.000Z</time>
      </trkpt>
      <trkpt lat="37.09390667" lon="-3.38687667">
        <ele>2511.0</ele>
        <time>2022-11-20T09:19:41.000Z</time>
      </trkpt>
      <trkpt lat="37.09389833" lon="-3.38686833">
        <ele>2511.0</ele>
        <time>2022-11-20T09:19:42.000Z</time>
      </trkpt>
      <trkpt lat="37.09389" lon="-3.38686">
        <ele>2511.0</ele>
        <time>2022-11-20T09:19:43.000Z</time>
      </trkpt>
      <trkpt lat="37.09388" lon="-3.38685">
        <ele>2511.0</ele>
        <time>2022-11-20T09:19:44.000Z</time>
      </trkpt>
      <trkpt lat="37.09387167" lon="-3.38684167">
        <ele>2511.0</ele>
        <time>2022-11-20T09:19:45.000Z</time>
      </trkpt>
      <trkpt lat="37.09386333" lon="-3.38683333">
        <ele>2511.0</ele>
        <time>2022-11-20T09:19:46.000Z</time>
      </trkpt>
      <trkpt lat="37.09385667" lon="-3.38682167">
        <ele>2512.0</ele>
        <time>2022-11-20T09:19:47.000Z</time>
      </trkpt>
      <trkpt lat="37.09385" lon="-3.38681167">
        <ele>2512.0</ele>
        <time>2022-11-20T09:19:48.000Z</time>
      </trkpt>
      <trkpt lat="37.093845" lon="-3.3868">
        <ele>2512.0</ele>
        <time>2022-11-20T09:19:49.000Z</time>
      </trkpt>
      <trkpt lat="37.09384" lon="-3.38678833">
        <ele>2512.0</ele>
        <time>2022-11-20T09:19:50.000Z</time>
      </trkpt>
      <trkpt lat="37.09383667" lon="-3.38677667">
        <ele>2512.0</ele>
        <time>2022-11-20T09:19:51.000Z</time>
      </trkpt>
      <trkpt lat="37.093835" lon="-3.38676333">
        <ele>2512.0</ele>
        <time>2022-11-20T09:19:52.000Z</time>
      </trkpt>
      <trkpt lat="37.09383667" lon="-3.38674833">
        <ele>2512.0</ele>
        <time>2022-11-20T09:19:53.000Z</time>
      </trkpt>
      <trkpt lat="37.09383667" lon="-3.386735">
        <ele>2512.0</ele>
        <time>2022-11-20T09:19:54.000Z</time>
      </trkpt>
      <trkpt lat="37.09383667" lon="-3.38672333">
        <ele>2513.0</ele>
        <time>2022-11-20T09:19:55.000Z</time>
      </trkpt>
      <trkpt lat="37.09383333" lon="-3.38671167">
        <ele>2513.0</ele>
        <time>2022-11-20T09:19:56.000Z</time>
      </trkpt>
      <trkpt lat="37.09383333" lon="-3.3867">
        <ele>2513.0</ele>
        <time>2022-11-20T09:19:57.000Z</time>
      </trkpt>
      <trkpt lat="37.09383167" lon="-3.38669">
        <ele>2513.0</ele>
        <time>2022-11-20T09:19:58.000Z</time>
      </trkpt>
      <trkpt lat="37.09383" lon="-3.386675">
        <ele>2513.0</ele>
        <time>2022-11-20T09:19:59.000Z</time>
      </trkpt>
      <trkpt lat="37.09382833" lon="-3.38666833">
        <ele>2513.0</ele>
        <time>2022-11-20T09:20:00.000Z</time>
      </trkpt>
      <trkpt lat="37.093825" lon="-3.38665333">
        <ele>2513.0</ele>
        <time>2022-11-20T09:20:01.000Z</time>
      </trkpt>
      <trkpt lat="37.09382167" lon="-3.38664">
        <ele>2513.0</ele>
        <time>2022-11-20T09:20:02.000Z</time>
      </trkpt>
      <trkpt lat="37.09382" lon="-3.38662667">
        <ele>2514.0</ele>
        <time>2022-11-20T09:20:03.000Z</time>
      </trkpt>
      <trkpt lat="37.09381833" lon="-3.38661833">
        <ele>2514.0</ele>
        <time>2022-11-20T09:20:04.000Z</time>
      </trkpt>
      <trkpt lat="37.09381833" lon="-3.386615">
        <ele>2514.0</ele>
        <time>2022-11-20T09:20:05.000Z</time>
      </trkpt>
      <trkpt lat="37.09381833" lon="-3.38661333">
        <ele>2514.0</ele>
        <time>2022-11-20T09:20:06.000Z</time>
      </trkpt>
      <trkpt lat="37.09381833" lon="-3.38661167">
        <ele>2514.0</ele>
        <time>2022-11-20T09:20:07.000Z</time>
      </trkpt>
      <trkpt lat="37.09381833" lon="-3.38660667">
        <ele>2514.0</ele>
        <time>2022-11-20T09:20:08.000Z</time>
      </trkpt>
      <trkpt lat="37.09381333" lon="-3.3866">
        <ele>2514.0</ele>
        <time>2022-11-20T09:20:09.000Z</time>
      </trkpt>
      <trkpt lat="37.09381" lon="-3.38659333">
        <ele>2514.0</ele>
        <time>2022-11-20T09:20:10.000Z</time>
      </trkpt>
      <trkpt lat="37.093805" lon="-3.38658333">
        <ele>2514.0</ele>
        <time>2022-11-20T09:20:11.000Z</time>
      </trkpt>
      <trkpt lat="37.0938" lon="-3.386575">
        <ele>2515.0</ele>
        <time>2022-11-20T09:20:12.000Z</time>
      </trkpt>
      <trkpt lat="37.09379667" lon="-3.38656333">
        <ele>2515.0</ele>
        <time>2022-11-20T09:20:13.000Z</time>
      </trkpt>
      <trkpt lat="37.093795" lon="-3.386555">
        <ele>2515.0</ele>
        <time>2022-11-20T09:20:14.000Z</time>
      </trkpt>
      <trkpt lat="37.09379333" lon="-3.38654667">
        <ele>2515.0</ele>
        <time>2022-11-20T09:20:15.000Z</time>
      </trkpt>
      <trkpt lat="37.09378833" lon="-3.38653833">
        <ele>2515.0</ele>
        <time>2022-11-20T09:20:16.000Z</time>
      </trkpt>
      <trkpt lat="37.09378333" lon="-3.38652833">
        <ele>2515.0</ele>
        <time>2022-11-20T09:20:17.000Z</time>
      </trkpt>
      <trkpt lat="37.09377833" lon="-3.38651667">
        <ele>2515.0</ele>
        <time>2022-11-20T09:20:18.000Z</time>
      </trkpt>
      <trkpt lat="37.09377333" lon="-3.38650667">
        <ele>2515.0</ele>
        <time>2022-11-20T09:20:19.000Z</time>
      </trkpt>
      <trkpt lat="37.09377" lon="-3.386495">
        <ele>2515.0</ele>
        <time>2022-11-20T09:20:20.000Z</time>
      </trkpt>
      <trkpt lat="37.09376833" lon="-3.38648333">
        <ele>2515.0</ele>
        <time>2022-11-20T09:20:21.000Z</time>
      </trkpt>
      <trkpt lat="37.09376333" lon="-3.38647167">
        <ele>2516.0</ele>
        <time>2022-11-20T09:20:22.000Z</time>
      </trkpt>
      <trkpt lat="37.09376" lon="-3.38646">
        <ele>2516.0</ele>
        <time>2022-11-20T09:20:23.000Z</time>
      </trkpt>
      <trkpt lat="37.093755" lon="-3.38644833">
        <ele>2516.0</ele>
        <time>2022-11-20T09:20:24.000Z</time>
      </trkpt>
      <trkpt lat="37.09375167" lon="-3.386435">
        <ele>2516.0</ele>
        <time>2022-11-20T09:20:25.000Z</time>
      </trkpt>
      <trkpt lat="37.09374833" lon="-3.386425">
        <ele>2516.0</ele>
        <time>2022-11-20T09:20:26.000Z</time>
      </trkpt>
      <trkpt lat="37.09374167" lon="-3.38641167">
        <ele>2516.0</ele>
        <time>2022-11-20T09:20:27.000Z</time>
      </trkpt>
      <trkpt lat="37.09373667" lon="-3.38640167">
        <ele>2516.0</ele>
        <time>2022-11-20T09:20:28.000Z</time>
      </trkpt>
      <trkpt lat="37.09373167" lon="-3.38639">
        <ele>2516.0</ele>
        <time>2022-11-20T09:20:29.000Z</time>
      </trkpt>
      <trkpt lat="37.09372333" lon="-3.38638167">
        <ele>2516.0</ele>
        <time>2022-11-20T09:20:30.000Z</time>
      </trkpt>
      <trkpt lat="37.09372" lon="-3.386375">
        <ele>2516.0</ele>
        <time>2022-11-20T09:20:31.000Z</time>
      </trkpt>
      <trkpt lat="37.09372" lon="-3.38636833">
        <ele>2516.0</ele>
        <time>2022-11-20T09:20:32.000Z</time>
      </trkpt>
      <trkpt lat="37.09372" lon="-3.38636833">
        <ele>2516.0</ele>
        <time>2022-11-20T09:20:33.000Z</time>
      </trkpt>
      <trkpt lat="37.09371833" lon="-3.38636667">
        <ele>2516.0</ele>
        <time>2022-11-20T09:20:34.000Z</time>
      </trkpt>
      <trkpt lat="37.09371833" lon="-3.38636667">
        <ele>2517.0</ele>
        <time>2022-11-20T09:20:35.000Z</time>
      </trkpt>
      <trkpt lat="37.093715" lon="-3.386365">
        <ele>2517.0</ele>
        <time>2022-11-20T09:20:36.000Z</time>
      </trkpt>
      <trkpt lat="37.09370833" lon="-3.38636333">
        <ele>2517.0</ele>
        <time>2022-11-20T09:20:37.000Z</time>
      </trkpt>
      <trkpt lat="37.0937" lon="-3.38635833">
        <ele>2517.0</ele>
        <time>2022-11-20T09:20:38.000Z</time>
      </trkpt>
      <trkpt lat="37.09369167" lon="-3.386355">
        <ele>2517.0</ele>
        <time>2022-11-20T09:20:39.000Z</time>
      </trkpt>
      <trkpt lat="37.093685" lon="-3.38635167">
        <ele>2517.0</ele>
        <time>2022-11-20T09:20:40.000Z</time>
      </trkpt>
      <trkpt lat="37.09368" lon="-3.38634667">
        <ele>2517.0</ele>
        <time>2022-11-20T09:20:41.000Z</time>
      </trkpt>
      <trkpt lat="37.09367333" lon="-3.38633833">
        <ele>2517.0</ele>
        <time>2022-11-20T09:20:42.000Z</time>
      </trkpt>
      <trkpt lat="37.09366667" lon="-3.38632833">
        <ele>2517.0</ele>
        <time>2022-11-20T09:20:43.000Z</time>
      </trkpt>
      <trkpt lat="37.09366" lon="-3.38632167">
        <ele>2517.0</ele>
        <time>2022-11-20T09:20:44.000Z</time>
      </trkpt>
      <trkpt lat="37.09365167" lon="-3.386315">
        <ele>2518.0</ele>
        <time>2022-11-20T09:20:45.000Z</time>
      </trkpt>
      <trkpt lat="37.09364167" lon="-3.38630667">
        <ele>2518.0</ele>
        <time>2022-11-20T09:20:46.000Z</time>
      </trkpt>
      <trkpt lat="37.093635" lon="-3.3863">
        <ele>2518.0</ele>
        <time>2022-11-20T09:20:47.000Z</time>
      </trkpt>
      <trkpt lat="37.09362667" lon="-3.38629">
        <ele>2518.0</ele>
        <time>2022-11-20T09:20:48.000Z</time>
      </trkpt>
      <trkpt lat="37.09362" lon="-3.38628">
        <ele>2518.0</ele>
        <time>2022-11-20T09:20:49.000Z</time>
      </trkpt>
      <trkpt lat="37.09361167" lon="-3.38627167">
        <ele>2518.0</ele>
        <time>2022-11-20T09:20:50.000Z</time>
      </trkpt>
      <trkpt lat="37.093605" lon="-3.38626333">
        <ele>2518.0</ele>
        <time>2022-11-20T09:20:51.000Z</time>
      </trkpt>
      <trkpt lat="37.09359667" lon="-3.38625667">
        <ele>2518.0</ele>
        <time>2022-11-20T09:20:52.000Z</time>
      </trkpt>
      <trkpt lat="37.09359" lon="-3.38624833">
        <ele>2518.0</ele>
        <time>2022-11-20T09:20:53.000Z</time>
      </trkpt>
      <trkpt lat="37.09358167" lon="-3.38624">
        <ele>2519.0</ele>
        <time>2022-11-20T09:20:54.000Z</time>
      </trkpt>
      <trkpt lat="37.09357333" lon="-3.38623167">
        <ele>2519.0</ele>
        <time>2022-11-20T09:20:55.000Z</time>
      </trkpt>
      <trkpt lat="37.09356667" lon="-3.38622167">
        <ele>2519.0</ele>
        <time>2022-11-20T09:20:56.000Z</time>
      </trkpt>
      <trkpt lat="37.09356" lon="-3.38621333">
        <ele>2519.0</ele>
        <time>2022-11-20T09:20:57.000Z</time>
      </trkpt>
      <trkpt lat="37.093555" lon="-3.386205">
        <ele>2519.0</ele>
        <time>2022-11-20T09:20:58.000Z</time>
      </trkpt>
      <trkpt lat="37.09354833" lon="-3.38619833">
        <ele>2519.0</ele>
        <time>2022-11-20T09:20:59.000Z</time>
      </trkpt>
      <trkpt lat="37.09354167" lon="-3.38619">
        <ele>2519.0</ele>
        <time>2022-11-20T09:21:00.000Z</time>
      </trkpt>
      <trkpt lat="37.09353667" lon="-3.38618333">
        <ele>2519.0</ele>
        <time>2022-11-20T09:21:01.000Z</time>
      </trkpt>
      <trkpt lat="37.09353" lon="-3.38617667">
        <ele>2519.0</ele>
        <time>2022-11-20T09:21:02.000Z</time>
      </trkpt>
      <trkpt lat="37.09352333" lon="-3.38616833">
        <ele>2519.0</ele>
        <time>2022-11-20T09:21:03.000Z</time>
      </trkpt>
      <trkpt lat="37.09351667" lon="-3.38615833">
        <ele>2519.0</ele>
        <time>2022-11-20T09:21:04.000Z</time>
      </trkpt>
      <trkpt lat="37.09351167" lon="-3.38615167">
        <ele>2519.0</ele>
        <time>2022-11-20T09:21:05.000Z</time>
      </trkpt>
      <trkpt lat="37.09350667" lon="-3.386145">
        <ele>2519.0</ele>
        <time>2022-11-20T09:21:06.000Z</time>
      </trkpt>
      <trkpt lat="37.0935" lon="-3.38613833">
        <ele>2519.0</ele>
        <time>2022-11-20T09:21:07.000Z</time>
      </trkpt>
      <trkpt lat="37.09349333" lon="-3.38613">
        <ele>2520.0</ele>
        <time>2022-11-20T09:21:08.000Z</time>
      </trkpt>
      <trkpt lat="37.09348833" lon="-3.38612167">
        <ele>2520.0</ele>
        <time>2022-11-20T09:21:09.000Z</time>
      </trkpt>
      <trkpt lat="37.09348333" lon="-3.38611833">
        <ele>2520.0</ele>
        <time>2022-11-20T09:21:10.000Z</time>
      </trkpt>
      <trkpt lat="37.09347667" lon="-3.38611167">
        <ele>2520.0</ele>
        <time>2022-11-20T09:21:11.000Z</time>
      </trkpt>
      <trkpt lat="37.09346833" lon="-3.386105">
        <ele>2520.0</ele>
        <time>2022-11-20T09:21:12.000Z</time>
      </trkpt>
      <trkpt lat="37.09346167" lon="-3.3861">
        <ele>2520.0</ele>
        <time>2022-11-20T09:21:13.000Z</time>
      </trkpt>
      <trkpt lat="37.09345667" lon="-3.38609167">
        <ele>2520.0</ele>
        <time>2022-11-20T09:21:14.000Z</time>
      </trkpt>
      <trkpt lat="37.09345167" lon="-3.386085">
        <ele>2520.0</ele>
        <time>2022-11-20T09:21:15.000Z</time>
      </trkpt>
      <trkpt lat="37.09344667" lon="-3.38607667">
        <ele>2520.0</ele>
        <time>2022-11-20T09:21:16.000Z</time>
      </trkpt>
      <trkpt lat="37.09344333" lon="-3.38606667">
        <ele>2520.0</ele>
        <time>2022-11-20T09:21:17.000Z</time>
      </trkpt>
      <trkpt lat="37.09344" lon="-3.38606">
        <ele>2520.0</ele>
        <time>2022-11-20T09:21:18.000Z</time>
      </trkpt>
      <trkpt lat="37.093435" lon="-3.38604833">
        <ele>2520.0</ele>
        <time>2022-11-20T09:21:19.000Z</time>
      </trkpt>
      <trkpt lat="37.09343" lon="-3.38604167">
        <ele>2520.0</ele>
        <time>2022-11-20T09:21:20.000Z</time>
      </trkpt>
      <trkpt lat="37.093425" lon="-3.38603667">
        <ele>2520.0</ele>
        <time>2022-11-20T09:21:21.000Z</time>
      </trkpt>
      <trkpt lat="37.09342" lon="-3.38602833">
        <ele>2520.0</ele>
        <time>2022-11-20T09:21:22.000Z</time>
      </trkpt>
      <trkpt lat="37.093415" lon="-3.38602333">
        <ele>2520.0</ele>
        <time>2022-11-20T09:21:23.000Z</time>
      </trkpt>
      <trkpt lat="37.09340833" lon="-3.38601667">
        <ele>2520.0</ele>
        <time>2022-11-20T09:21:24.000Z</time>
      </trkpt>
      <trkpt lat="37.09340333" lon="-3.38600833">
        <ele>2520.0</ele>
        <time>2022-11-20T09:21:25.000Z</time>
      </trkpt>
      <trkpt lat="37.09339833" lon="-3.38600333">
        <ele>2520.0</ele>
        <time>2022-11-20T09:21:26.000Z</time>
      </trkpt>
      <trkpt lat="37.093395" lon="-3.38599333">
        <ele>2520.0</ele>
        <time>2022-11-20T09:21:27.000Z</time>
      </trkpt>
      <trkpt lat="37.09339167" lon="-3.38598333">
        <ele>2520.0</ele>
        <time>2022-11-20T09:21:28.000Z</time>
      </trkpt>
      <trkpt lat="37.09339" lon="-3.385975">
        <ele>2520.0</ele>
        <time>2022-11-20T09:21:29.000Z</time>
      </trkpt>
      <trkpt lat="37.093385" lon="-3.38596667">
        <ele>2520.0</ele>
        <time>2022-11-20T09:21:30.000Z</time>
      </trkpt>
      <trkpt lat="37.09338" lon="-3.38595833">
        <ele>2520.0</ele>
        <time>2022-11-20T09:21:31.000Z</time>
      </trkpt>
      <trkpt lat="37.09337667" lon="-3.38595333">
        <ele>2520.0</ele>
        <time>2022-11-20T09:21:32.000Z</time>
      </trkpt>
      <trkpt lat="37.09337" lon="-3.38594667">
        <ele>2520.0</ele>
        <time>2022-11-20T09:21:33.000Z</time>
      </trkpt>
      <trkpt lat="37.09336333" lon="-3.38594">
        <ele>2520.0</ele>
        <time>2022-11-20T09:21:34.000Z</time>
      </trkpt>
      <trkpt lat="37.09336" lon="-3.38593333">
        <ele>2521.0</ele>
        <time>2022-11-20T09:21:35.000Z</time>
      </trkpt>
      <trkpt lat="37.09335333" lon="-3.38592667">
        <ele>2521.0</ele>
        <time>2022-11-20T09:21:36.000Z</time>
      </trkpt>
      <trkpt lat="37.09334833" lon="-3.38592">
        <ele>2521.0</ele>
        <time>2022-11-20T09:21:37.000Z</time>
      </trkpt>
      <trkpt lat="37.09334333" lon="-3.385915">
        <ele>2521.0</ele>
        <time>2022-11-20T09:21:38.000Z</time>
      </trkpt>
      <trkpt lat="37.09333667" lon="-3.38590667">
        <ele>2521.0</ele>
        <time>2022-11-20T09:21:39.000Z</time>
      </trkpt>
      <trkpt lat="37.09333333" lon="-3.38589833">
        <ele>2522.0</ele>
        <time>2022-11-20T09:21:40.000Z</time>
      </trkpt>
      <trkpt lat="37.09333" lon="-3.38589167">
        <ele>2522.0</ele>
        <time>2022-11-20T09:21:41.000Z</time>
      </trkpt>
      <trkpt lat="37.093325" lon="-3.385885">
        <ele>2522.0</ele>
        <time>2022-11-20T09:21:42.000Z</time>
      </trkpt>
      <trkpt lat="37.09332" lon="-3.38587833">
        <ele>2522.0</ele>
        <time>2022-11-20T09:21:43.000Z</time>
      </trkpt>
      <trkpt lat="37.09331667" lon="-3.38587333">
        <ele>2522.0</ele>
        <time>2022-11-20T09:21:44.000Z</time>
      </trkpt>
      <trkpt lat="37.09331167" lon="-3.38586833">
        <ele>2522.0</ele>
        <time>2022-11-20T09:21:45.000Z</time>
      </trkpt>
      <trkpt lat="37.09330667" lon="-3.38586333">
        <ele>2522.0</ele>
        <time>2022-11-20T09:21:46.000Z</time>
      </trkpt>
      <trkpt lat="37.09330167" lon="-3.38585833">
        <ele>2522.0</ele>
        <time>2022-11-20T09:21:47.000Z</time>
      </trkpt>
      <trkpt lat="37.09329667" lon="-3.38585333">
        <ele>2523.0</ele>
        <time>2022-11-20T09:21:48.000Z</time>
      </trkpt>
      <trkpt lat="37.09329" lon="-3.38584833">
        <ele>2523.0</ele>
        <time>2022-11-20T09:21:49.000Z</time>
      </trkpt>
      <trkpt lat="37.093285" lon="-3.385845">
        <ele>2523.0</ele>
        <time>2022-11-20T09:21:50.000Z</time>
      </trkpt>
      <trkpt lat="37.09327833" lon="-3.38584">
        <ele>2523.0</ele>
        <time>2022-11-20T09:21:51.000Z</time>
      </trkpt>
      <trkpt lat="37.09327333" lon="-3.38583167">
        <ele>2523.0</ele>
        <time>2022-11-20T09:21:52.000Z</time>
      </trkpt>
      <trkpt lat="37.09327" lon="-3.38582833">
        <ele>2523.0</ele>
        <time>2022-11-20T09:21:53.000Z</time>
      </trkpt>
      <trkpt lat="37.09326667" lon="-3.38581667">
        <ele>2523.0</ele>
        <time>2022-11-20T09:21:54.000Z</time>
      </trkpt>
      <trkpt lat="37.09326333" lon="-3.38581">
        <ele>2524.0</ele>
        <time>2022-11-20T09:21:55.000Z</time>
      </trkpt>
      <trkpt lat="37.09326" lon="-3.38580333">
        <ele>2524.0</ele>
        <time>2022-11-20T09:21:56.000Z</time>
      </trkpt>
      <trkpt lat="37.09325667" lon="-3.38579667">
        <ele>2524.0</ele>
        <time>2022-11-20T09:21:57.000Z</time>
      </trkpt>
      <trkpt lat="37.09325167" lon="-3.38578833">
        <ele>2524.0</ele>
        <time>2022-11-20T09:21:58.000Z</time>
      </trkpt>
      <trkpt lat="37.09325" lon="-3.38578333">
        <ele>2524.0</ele>
        <time>2022-11-20T09:21:59.000Z</time>
      </trkpt>
      <trkpt lat="37.09324833" lon="-3.38578">
        <ele>2524.0</ele>
        <time>2022-11-20T09:22:00.000Z</time>
      </trkpt>
      <trkpt lat="37.09324333" lon="-3.38577333">
        <ele>2524.0</ele>
        <time>2022-11-20T09:22:01.000Z</time>
      </trkpt>
      <trkpt lat="37.09323833" lon="-3.38577">
        <ele>2524.0</ele>
        <time>2022-11-20T09:22:02.000Z</time>
      </trkpt>
      <trkpt lat="37.09323667" lon="-3.38576833">
        <ele>2524.0</ele>
        <time>2022-11-20T09:22:03.000Z</time>
      </trkpt>
      <trkpt lat="37.09323167" lon="-3.38576667">
        <ele>2524.0</ele>
        <time>2022-11-20T09:22:04.000Z</time>
      </trkpt>
      <trkpt lat="37.09322667" lon="-3.38576167">
        <ele>2525.0</ele>
        <time>2022-11-20T09:22:05.000Z</time>
      </trkpt>
      <trkpt lat="37.09322667" lon="-3.38576">
        <ele>2525.0</ele>
        <time>2022-11-20T09:22:06.000Z</time>
      </trkpt>
      <trkpt lat="37.09322667" lon="-3.38576">
        <ele>2525.0</ele>
        <time>2022-11-20T09:22:07.000Z</time>
      </trkpt>
      <trkpt lat="37.093225" lon="-3.38576">
        <ele>2525.0</ele>
        <time>2022-11-20T09:22:08.000Z</time>
      </trkpt>
      <trkpt lat="37.09322" lon="-3.38576167">
        <ele>2525.0</ele>
        <time>2022-11-20T09:22:09.000Z</time>
      </trkpt>
      <trkpt lat="37.093215" lon="-3.38575667">
        <ele>2525.0</ele>
        <time>2022-11-20T09:22:10.000Z</time>
      </trkpt>
      <trkpt lat="37.09321" lon="-3.38575333">
        <ele>2525.0</ele>
        <time>2022-11-20T09:22:11.000Z</time>
      </trkpt>
      <trkpt lat="37.09320333" lon="-3.38575167">
        <ele>2525.0</ele>
        <time>2022-11-20T09:22:12.000Z</time>
      </trkpt>
      <trkpt lat="37.09319667" lon="-3.38575">
        <ele>2525.0</ele>
        <time>2022-11-20T09:22:13.000Z</time>
      </trkpt>
      <trkpt lat="37.09319" lon="-3.38574667">
        <ele>2525.0</ele>
        <time>2022-11-20T09:22:14.000Z</time>
      </trkpt>
      <trkpt lat="37.09318333" lon="-3.38574333">
        <ele>2526.0</ele>
        <time>2022-11-20T09:22:15.000Z</time>
      </trkpt>
      <trkpt lat="37.09317667" lon="-3.38573833">
        <ele>2526.0</ele>
        <time>2022-11-20T09:22:16.000Z</time>
      </trkpt>
      <trkpt lat="37.09317167" lon="-3.38573333">
        <ele>2526.0</ele>
        <time>2022-11-20T09:22:17.000Z</time>
      </trkpt>
      <trkpt lat="37.093165" lon="-3.38572833">
        <ele>2526.0</ele>
        <time>2022-11-20T09:22:18.000Z</time>
      </trkpt>
      <trkpt lat="37.09316" lon="-3.385725">
        <ele>2526.0</ele>
        <time>2022-11-20T09:22:19.000Z</time>
      </trkpt>
      <trkpt lat="37.09315333" lon="-3.38571833">
        <ele>2526.0</ele>
        <time>2022-11-20T09:22:20.000Z</time>
      </trkpt>
      <trkpt lat="37.09314833" lon="-3.38571333">
        <ele>2526.0</ele>
        <time>2022-11-20T09:22:21.000Z</time>
      </trkpt>
      <trkpt lat="37.09314333" lon="-3.38570833">
        <ele>2527.0</ele>
        <time>2022-11-20T09:22:22.000Z</time>
      </trkpt>
      <trkpt lat="37.09313833" lon="-3.38570167">
        <ele>2527.0</ele>
        <time>2022-11-20T09:22:23.000Z</time>
      </trkpt>
      <trkpt lat="37.09313333" lon="-3.38569667">
        <ele>2527.0</ele>
        <time>2022-11-20T09:22:24.000Z</time>
      </trkpt>
      <trkpt lat="37.09312833" lon="-3.38569167">
        <ele>2527.0</ele>
        <time>2022-11-20T09:22:25.000Z</time>
      </trkpt>
      <trkpt lat="37.09312167" lon="-3.38568333">
        <ele>2527.0</ele>
        <time>2022-11-20T09:22:26.000Z</time>
      </trkpt>
      <trkpt lat="37.093115" lon="-3.38567667">
        <ele>2527.0</ele>
        <time>2022-11-20T09:22:27.000Z</time>
      </trkpt>
      <trkpt lat="37.09311" lon="-3.38567333">
        <ele>2528.0</ele>
        <time>2022-11-20T09:22:28.000Z</time>
      </trkpt>
      <trkpt lat="37.09310333" lon="-3.38566667">
        <ele>2528.0</ele>
        <time>2022-11-20T09:22:29.000Z</time>
      </trkpt>
      <trkpt lat="37.09309833" lon="-3.38566">
        <ele>2528.0</ele>
        <time>2022-11-20T09:22:30.000Z</time>
      </trkpt>
      <trkpt lat="37.09309333" lon="-3.38565333">
        <ele>2528.0</ele>
        <time>2022-11-20T09:22:31.000Z</time>
      </trkpt>
      <trkpt lat="37.09308833" lon="-3.38564667">
        <ele>2528.0</ele>
        <time>2022-11-20T09:22:32.000Z</time>
      </trkpt>
      <trkpt lat="37.09308167" lon="-3.38564">
        <ele>2528.0</ele>
        <time>2022-11-20T09:22:33.000Z</time>
      </trkpt>
      <trkpt lat="37.09307667" lon="-3.38563667">
        <ele>2529.0</ele>
        <time>2022-11-20T09:22:34.000Z</time>
      </trkpt>
      <trkpt lat="37.09307" lon="-3.38563167">
        <ele>2529.0</ele>
        <time>2022-11-20T09:22:35.000Z</time>
      </trkpt>
      <trkpt lat="37.093065" lon="-3.385625">
        <ele>2529.0</ele>
        <time>2022-11-20T09:22:36.000Z</time>
      </trkpt>
      <trkpt lat="37.09305833" lon="-3.38562">
        <ele>2529.0</ele>
        <time>2022-11-20T09:22:37.000Z</time>
      </trkpt>
      <trkpt lat="37.09305167" lon="-3.38561333">
        <ele>2529.0</ele>
        <time>2022-11-20T09:22:38.000Z</time>
      </trkpt>
      <trkpt lat="37.09304667" lon="-3.38560833">
        <ele>2529.0</ele>
        <time>2022-11-20T09:22:39.000Z</time>
      </trkpt>
      <trkpt lat="37.09304167" lon="-3.38560167">
        <ele>2530.0</ele>
        <time>2022-11-20T09:22:40.000Z</time>
      </trkpt>
      <trkpt lat="37.09303667" lon="-3.385595">
        <ele>2530.0</ele>
        <time>2022-11-20T09:22:41.000Z</time>
      </trkpt>
      <trkpt lat="37.09303167" lon="-3.38559167">
        <ele>2530.0</ele>
        <time>2022-11-20T09:22:42.000Z</time>
      </trkpt>
      <trkpt lat="37.09302667" lon="-3.38558833">
        <ele>2530.0</ele>
        <time>2022-11-20T09:22:43.000Z</time>
      </trkpt>
      <trkpt lat="37.09302" lon="-3.38558333">
        <ele>2530.0</ele>
        <time>2022-11-20T09:22:44.000Z</time>
      </trkpt>
      <trkpt lat="37.09301667" lon="-3.38558">
        <ele>2530.0</ele>
        <time>2022-11-20T09:22:45.000Z</time>
      </trkpt>
      <trkpt lat="37.09301" lon="-3.38557333">
        <ele>2530.0</ele>
        <time>2022-11-20T09:22:46.000Z</time>
      </trkpt>
      <trkpt lat="37.093005" lon="-3.38556667">
        <ele>2530.0</ele>
        <time>2022-11-20T09:22:47.000Z</time>
      </trkpt>
      <trkpt lat="37.09299833" lon="-3.38556333">
        <ele>2530.0</ele>
        <time>2022-11-20T09:22:48.000Z</time>
      </trkpt>
      <trkpt lat="37.09299167" lon="-3.38556">
        <ele>2531.0</ele>
        <time>2022-11-20T09:22:49.000Z</time>
      </trkpt>
      <trkpt lat="37.092985" lon="-3.385555">
        <ele>2531.0</ele>
        <time>2022-11-20T09:22:50.000Z</time>
      </trkpt>
      <trkpt lat="37.09297833" lon="-3.38554833">
        <ele>2531.0</ele>
        <time>2022-11-20T09:22:51.000Z</time>
      </trkpt>
      <trkpt lat="37.09297333" lon="-3.38554333">
        <ele>2531.0</ele>
        <time>2022-11-20T09:22:52.000Z</time>
      </trkpt>
      <trkpt lat="37.09296833" lon="-3.38553833">
        <ele>2531.0</ele>
        <time>2022-11-20T09:22:53.000Z</time>
      </trkpt>
      <trkpt lat="37.09296" lon="-3.385535">
        <ele>2532.0</ele>
        <time>2022-11-20T09:22:54.000Z</time>
      </trkpt>
      <trkpt lat="37.09295167" lon="-3.38553167">
        <ele>2532.0</ele>
        <time>2022-11-20T09:22:55.000Z</time>
      </trkpt>
      <trkpt lat="37.09294833" lon="-3.38552667">
        <ele>2532.0</ele>
        <time>2022-11-20T09:22:56.000Z</time>
      </trkpt>
      <trkpt lat="37.09294167" lon="-3.38552167">
        <ele>2532.0</ele>
        <time>2022-11-20T09:22:57.000Z</time>
      </trkpt>
      <trkpt lat="37.092935" lon="-3.38551833">
        <ele>2532.0</ele>
        <time>2022-11-20T09:22:58.000Z</time>
      </trkpt>
      <trkpt lat="37.09293" lon="-3.38551667">
        <ele>2532.0</ele>
        <time>2022-11-20T09:22:59.000Z</time>
      </trkpt>
      <trkpt lat="37.09292167" lon="-3.38551333">
        <ele>2532.0</ele>
        <time>2022-11-20T09:23:00.000Z</time>
      </trkpt>
      <trkpt lat="37.092915" lon="-3.38551167">
        <ele>2533.0</ele>
        <time>2022-11-20T09:23:01.000Z</time>
      </trkpt>
      <trkpt lat="37.09291" lon="-3.38551167">
        <ele>2533.0</ele>
        <time>2022-11-20T09:23:02.000Z</time>
      </trkpt>
      <trkpt lat="37.092905" lon="-3.38551667">
        <ele>2533.0</ele>
        <time>2022-11-20T09:23:03.000Z</time>
      </trkpt>
      <trkpt lat="37.09289833" lon="-3.38552">
        <ele>2533.0</ele>
        <time>2022-11-20T09:23:04.000Z</time>
      </trkpt>
      <trkpt lat="37.09289" lon="-3.38552">
        <ele>2533.0</ele>
        <time>2022-11-20T09:23:05.000Z</time>
      </trkpt>
      <trkpt lat="37.092885" lon="-3.385515">
        <ele>2533.0</ele>
        <time>2022-11-20T09:23:06.000Z</time>
      </trkpt>
      <trkpt lat="37.09287667" lon="-3.38551">
        <ele>2533.0</ele>
        <time>2022-11-20T09:23:07.000Z</time>
      </trkpt>
      <trkpt lat="37.09287167" lon="-3.38550667">
        <ele>2533.0</ele>
        <time>2022-11-20T09:23:08.000Z</time>
      </trkpt>
      <trkpt lat="37.09286833" lon="-3.3855">
        <ele>2534.0</ele>
        <time>2022-11-20T09:23:09.000Z</time>
      </trkpt>
      <trkpt lat="37.09286333" lon="-3.38549667">
        <ele>2534.0</ele>
        <time>2022-11-20T09:23:10.000Z</time>
      </trkpt>
      <trkpt lat="37.09286" lon="-3.38548833">
        <ele>2534.0</ele>
        <time>2022-11-20T09:23:11.000Z</time>
      </trkpt>
      <trkpt lat="37.092855" lon="-3.38548167">
        <ele>2534.0</ele>
        <time>2022-11-20T09:23:12.000Z</time>
      </trkpt>
      <trkpt lat="37.09285" lon="-3.38547667">
        <ele>2534.0</ele>
        <time>2022-11-20T09:23:13.000Z</time>
      </trkpt>
      <trkpt lat="37.092845" lon="-3.38547">
        <ele>2534.0</ele>
        <time>2022-11-20T09:23:14.000Z</time>
      </trkpt>
      <trkpt lat="37.09284167" lon="-3.38546333">
        <ele>2535.0</ele>
        <time>2022-11-20T09:23:15.000Z</time>
      </trkpt>
      <trkpt lat="37.09284" lon="-3.38545833">
        <ele>2535.0</ele>
        <time>2022-11-20T09:23:16.000Z</time>
      </trkpt>
      <trkpt lat="37.09284" lon="-3.38545167">
        <ele>2535.0</ele>
        <time>2022-11-20T09:23:17.000Z</time>
      </trkpt>
      <trkpt lat="37.09283667" lon="-3.38544667">
        <ele>2535.0</ele>
        <time>2022-11-20T09:23:18.000Z</time>
      </trkpt>
      <trkpt lat="37.09283" lon="-3.38544333">
        <ele>2535.0</ele>
        <time>2022-11-20T09:23:19.000Z</time>
      </trkpt>
      <trkpt lat="37.092825" lon="-3.38544">
        <ele>2535.0</ele>
        <time>2022-11-20T09:23:20.000Z</time>
      </trkpt>
      <trkpt lat="37.09282" lon="-3.38543667">
        <ele>2535.0</ele>
        <time>2022-11-20T09:23:21.000Z</time>
      </trkpt>
      <trkpt lat="37.09281333" lon="-3.38543167">
        <ele>2536.0</ele>
        <time>2022-11-20T09:23:22.000Z</time>
      </trkpt>
      <trkpt lat="37.09280667" lon="-3.385425">
        <ele>2536.0</ele>
        <time>2022-11-20T09:23:23.000Z</time>
      </trkpt>
      <trkpt lat="37.092805" lon="-3.38541833">
        <ele>2536.0</ele>
        <time>2022-11-20T09:23:24.000Z</time>
      </trkpt>
      <trkpt lat="37.09280167" lon="-3.38541">
        <ele>2536.0</ele>
        <time>2022-11-20T09:23:25.000Z</time>
      </trkpt>
      <trkpt lat="37.0928" lon="-3.38540333">
        <ele>2536.0</ele>
        <time>2022-11-20T09:23:26.000Z</time>
      </trkpt>
      <trkpt lat="37.0928" lon="-3.3854">
        <ele>2536.0</ele>
        <time>2022-11-20T09:23:27.000Z</time>
      </trkpt>
      <trkpt lat="37.09279833" lon="-3.38539167">
        <ele>2537.0</ele>
        <time>2022-11-20T09:23:28.000Z</time>
      </trkpt>
      <trkpt lat="37.09279667" lon="-3.38538667">
        <ele>2537.0</ele>
        <time>2022-11-20T09:23:29.000Z</time>
      </trkpt>
      <trkpt lat="37.09279667" lon="-3.38538333">
        <ele>2537.0</ele>
        <time>2022-11-20T09:23:30.000Z</time>
      </trkpt>
      <trkpt lat="37.09279333" lon="-3.38537833">
        <ele>2537.0</ele>
        <time>2022-11-20T09:23:31.000Z</time>
      </trkpt>
      <trkpt lat="37.09279" lon="-3.38537167">
        <ele>2537.0</ele>
        <time>2022-11-20T09:23:32.000Z</time>
      </trkpt>
      <trkpt lat="37.09278833" lon="-3.385365">
        <ele>2537.0</ele>
        <time>2022-11-20T09:23:33.000Z</time>
      </trkpt>
      <trkpt lat="37.09278333" lon="-3.38535667">
        <ele>2537.0</ele>
        <time>2022-11-20T09:23:34.000Z</time>
      </trkpt>
      <trkpt lat="37.09277833" lon="-3.38535167">
        <ele>2537.0</ele>
        <time>2022-11-20T09:23:35.000Z</time>
      </trkpt>
      <trkpt lat="37.09277167" lon="-3.38534667">
        <ele>2538.0</ele>
        <time>2022-11-20T09:23:36.000Z</time>
      </trkpt>
      <trkpt lat="37.09276333" lon="-3.38534167">
        <ele>2538.0</ele>
        <time>2022-11-20T09:23:37.000Z</time>
      </trkpt>
      <trkpt lat="37.09275667" lon="-3.385335">
        <ele>2538.0</ele>
        <time>2022-11-20T09:23:38.000Z</time>
      </trkpt>
      <trkpt lat="37.09274833" lon="-3.38533">
        <ele>2538.0</ele>
        <time>2022-11-20T09:23:39.000Z</time>
      </trkpt>
      <trkpt lat="37.09274167" lon="-3.38532333">
        <ele>2538.0</ele>
        <time>2022-11-20T09:23:40.000Z</time>
      </trkpt>
      <trkpt lat="37.09273333" lon="-3.38532">
        <ele>2538.0</ele>
        <time>2022-11-20T09:23:41.000Z</time>
      </trkpt>
      <trkpt lat="37.09272333" lon="-3.385315">
        <ele>2538.0</ele>
        <time>2022-11-20T09:23:42.000Z</time>
      </trkpt>
      <trkpt lat="37.092715" lon="-3.38531333">
        <ele>2538.0</ele>
        <time>2022-11-20T09:23:43.000Z</time>
      </trkpt>
      <trkpt lat="37.092705" lon="-3.385315">
        <ele>2539.0</ele>
        <time>2022-11-20T09:23:44.000Z</time>
      </trkpt>
      <trkpt lat="37.092695" lon="-3.38531833">
        <ele>2539.0</ele>
        <time>2022-11-20T09:23:45.000Z</time>
      </trkpt>
      <trkpt lat="37.09268333" lon="-3.38531833">
        <ele>2539.0</ele>
        <time>2022-11-20T09:23:46.000Z</time>
      </trkpt>
      <trkpt lat="37.09267333" lon="-3.38531833">
        <ele>2539.0</ele>
        <time>2022-11-20T09:23:47.000Z</time>
      </trkpt>
      <trkpt lat="37.092665" lon="-3.38531667">
        <ele>2539.0</ele>
        <time>2022-11-20T09:23:48.000Z</time>
      </trkpt>
      <trkpt lat="37.092655" lon="-3.38531333">
        <ele>2539.0</ele>
        <time>2022-11-20T09:23:49.000Z</time>
      </trkpt>
      <trkpt lat="37.09264667" lon="-3.38531">
        <ele>2539.0</ele>
        <time>2022-11-20T09:23:50.000Z</time>
      </trkpt>
      <trkpt lat="37.09264" lon="-3.385305">
        <ele>2539.0</ele>
        <time>2022-11-20T09:23:51.000Z</time>
      </trkpt>
      <trkpt lat="37.09263167" lon="-3.38529833">
        <ele>2539.0</ele>
        <time>2022-11-20T09:23:52.000Z</time>
      </trkpt>
      <trkpt lat="37.09262667" lon="-3.38529333">
        <ele>2539.0</ele>
        <time>2022-11-20T09:23:53.000Z</time>
      </trkpt>
      <trkpt lat="37.09262" lon="-3.38528833">
        <ele>2540.0</ele>
        <time>2022-11-20T09:23:54.000Z</time>
      </trkpt>
      <trkpt lat="37.09261333" lon="-3.38528333">
        <ele>2540.0</ele>
        <time>2022-11-20T09:23:55.000Z</time>
      </trkpt>
      <trkpt lat="37.09261" lon="-3.38528">
        <ele>2540.0</ele>
        <time>2022-11-20T09:23:56.000Z</time>
      </trkpt>
      <trkpt lat="37.09260333" lon="-3.385275">
        <ele>2540.0</ele>
        <time>2022-11-20T09:23:57.000Z</time>
      </trkpt>
      <trkpt lat="37.09259833" lon="-3.38527">
        <ele>2540.0</ele>
        <time>2022-11-20T09:23:58.000Z</time>
      </trkpt>
      <trkpt lat="37.09259167" lon="-3.385265">
        <ele>2541.0</ele>
        <time>2022-11-20T09:23:59.000Z</time>
      </trkpt>
      <trkpt lat="37.09258833" lon="-3.38526167">
        <ele>2541.0</ele>
        <time>2022-11-20T09:24:00.000Z</time>
      </trkpt>
      <trkpt lat="37.09258" lon="-3.38525833">
        <ele>2541.0</ele>
        <time>2022-11-20T09:24:01.000Z</time>
      </trkpt>
      <trkpt lat="37.092575" lon="-3.385255">
        <ele>2541.0</ele>
        <time>2022-11-20T09:24:02.000Z</time>
      </trkpt>
      <trkpt lat="37.09256833" lon="-3.38524833">
        <ele>2541.0</ele>
        <time>2022-11-20T09:24:03.000Z</time>
      </trkpt>
      <trkpt lat="37.092565" lon="-3.38524167">
        <ele>2542.0</ele>
        <time>2022-11-20T09:24:04.000Z</time>
      </trkpt>
      <trkpt lat="37.09256" lon="-3.38523667">
        <ele>2542.0</ele>
        <time>2022-11-20T09:24:05.000Z</time>
      </trkpt>
      <trkpt lat="37.092555" lon="-3.38523167">
        <ele>2542.0</ele>
        <time>2022-11-20T09:24:06.000Z</time>
      </trkpt>
      <trkpt lat="37.09255" lon="-3.385225">
        <ele>2542.0</ele>
        <time>2022-11-20T09:24:07.000Z</time>
      </trkpt>
      <trkpt lat="37.092545" lon="-3.38522">
        <ele>2542.0</ele>
        <time>2022-11-20T09:24:08.000Z</time>
      </trkpt>
      <trkpt lat="37.09253833" lon="-3.38521333">
        <ele>2542.0</ele>
        <time>2022-11-20T09:24:09.000Z</time>
      </trkpt>
      <trkpt lat="37.09253333" lon="-3.38520667">
        <ele>2543.0</ele>
        <time>2022-11-20T09:24:10.000Z</time>
      </trkpt>
      <trkpt lat="37.09252667" lon="-3.38520167">
        <ele>2543.0</ele>
        <time>2022-11-20T09:24:11.000Z</time>
      </trkpt>
      <trkpt lat="37.09252" lon="-3.38519667">
        <ele>2543.0</ele>
        <time>2022-11-20T09:24:12.000Z</time>
      </trkpt>
      <trkpt lat="37.092515" lon="-3.38519333">
        <ele>2543.0</ele>
        <time>2022-11-20T09:24:13.000Z</time>
      </trkpt>
      <trkpt lat="37.09250833" lon="-3.38518833">
        <ele>2543.0</ele>
        <time>2022-11-20T09:24:14.000Z</time>
      </trkpt>
      <trkpt lat="37.0925" lon="-3.38518167">
        <ele>2543.0</ele>
        <time>2022-11-20T09:24:15.000Z</time>
      </trkpt>
      <trkpt lat="37.092495" lon="-3.38517833">
        <ele>2543.0</ele>
        <time>2022-11-20T09:24:16.000Z</time>
      </trkpt>
      <trkpt lat="37.09248833" lon="-3.38517167">
        <ele>2543.0</ele>
        <time>2022-11-20T09:24:17.000Z</time>
      </trkpt>
      <trkpt lat="37.09248167" lon="-3.385165">
        <ele>2544.0</ele>
        <time>2022-11-20T09:24:18.000Z</time>
      </trkpt>
      <trkpt lat="37.09247667" lon="-3.38516">
        <ele>2544.0</ele>
        <time>2022-11-20T09:24:19.000Z</time>
      </trkpt>
      <trkpt lat="37.09247" lon="-3.385155">
        <ele>2544.0</ele>
        <time>2022-11-20T09:24:20.000Z</time>
      </trkpt>
      <trkpt lat="37.09246333" lon="-3.38514833">
        <ele>2544.0</ele>
        <time>2022-11-20T09:24:21.000Z</time>
      </trkpt>
      <trkpt lat="37.09245833" lon="-3.385145">
        <ele>2544.0</ele>
        <time>2022-11-20T09:24:22.000Z</time>
      </trkpt>
      <trkpt lat="37.09245333" lon="-3.38513833">
        <ele>2544.0</ele>
        <time>2022-11-20T09:24:23.000Z</time>
      </trkpt>
      <trkpt lat="37.09244667" lon="-3.38513167">
        <ele>2544.0</ele>
        <time>2022-11-20T09:24:24.000Z</time>
      </trkpt>
      <trkpt lat="37.09244167" lon="-3.38512667">
        <ele>2544.0</ele>
        <time>2022-11-20T09:24:25.000Z</time>
      </trkpt>
      <trkpt lat="37.092435" lon="-3.38512">
        <ele>2544.0</ele>
        <time>2022-11-20T09:24:26.000Z</time>
      </trkpt>
      <trkpt lat="37.09242833" lon="-3.385115">
        <ele>2544.0</ele>
        <time>2022-11-20T09:24:27.000Z</time>
      </trkpt>
      <trkpt lat="37.09242167" lon="-3.38511">
        <ele>2544.0</ele>
        <time>2022-11-20T09:24:28.000Z</time>
      </trkpt>
      <trkpt lat="37.09241667" lon="-3.38510667">
        <ele>2545.0</ele>
        <time>2022-11-20T09:24:29.000Z</time>
      </trkpt>
      <trkpt lat="37.09241" lon="-3.38510167">
        <ele>2545.0</ele>
        <time>2022-11-20T09:24:30.000Z</time>
      </trkpt>
      <trkpt lat="37.09240333" lon="-3.38509667">
        <ele>2545.0</ele>
        <time>2022-11-20T09:24:31.000Z</time>
      </trkpt>
      <trkpt lat="37.09239667" lon="-3.38509167">
        <ele>2545.0</ele>
        <time>2022-11-20T09:24:32.000Z</time>
      </trkpt>
      <trkpt lat="37.09239" lon="-3.38508833">
        <ele>2545.0</ele>
        <time>2022-11-20T09:24:33.000Z</time>
      </trkpt>
      <trkpt lat="37.09238333" lon="-3.38508333">
        <ele>2545.0</ele>
        <time>2022-11-20T09:24:34.000Z</time>
      </trkpt>
      <trkpt lat="37.09237667" lon="-3.38508">
        <ele>2546.0</ele>
        <time>2022-11-20T09:24:35.000Z</time>
      </trkpt>
      <trkpt lat="37.09237167" lon="-3.38507667">
        <ele>2546.0</ele>
        <time>2022-11-20T09:24:36.000Z</time>
      </trkpt>
      <trkpt lat="37.092365" lon="-3.38507333">
        <ele>2546.0</ele>
        <time>2022-11-20T09:24:37.000Z</time>
      </trkpt>
      <trkpt lat="37.09235833" lon="-3.38507">
        <ele>2546.0</ele>
        <time>2022-11-20T09:24:38.000Z</time>
      </trkpt>
      <trkpt lat="37.09235167" lon="-3.38506667">
        <ele>2546.0</ele>
        <time>2022-11-20T09:24:39.000Z</time>
      </trkpt>
      <trkpt lat="37.092345" lon="-3.38506167">
        <ele>2546.0</ele>
        <time>2022-11-20T09:24:40.000Z</time>
      </trkpt>
      <trkpt lat="37.09233833" lon="-3.38505667">
        <ele>2546.0</ele>
        <time>2022-11-20T09:24:41.000Z</time>
      </trkpt>
      <trkpt lat="37.09233333" lon="-3.38505333">
        <ele>2546.0</ele>
        <time>2022-11-20T09:24:42.000Z</time>
      </trkpt>
      <trkpt lat="37.09232667" lon="-3.38504833">
        <ele>2547.0</ele>
        <time>2022-11-20T09:24:43.000Z</time>
      </trkpt>
      <trkpt lat="37.09232" lon="-3.385045">
        <ele>2547.0</ele>
        <time>2022-11-20T09:24:44.000Z</time>
      </trkpt>
      <trkpt lat="37.092315" lon="-3.38504167">
        <ele>2547.0</ele>
        <time>2022-11-20T09:24:45.000Z</time>
      </trkpt>
      <trkpt lat="37.09230667" lon="-3.38503667">
        <ele>2547.0</ele>
        <time>2022-11-20T09:24:46.000Z</time>
      </trkpt>
      <trkpt lat="37.09230167" lon="-3.38503167">
        <ele>2547.0</ele>
        <time>2022-11-20T09:24:47.000Z</time>
      </trkpt>
      <trkpt lat="37.092295" lon="-3.38502833">
        <ele>2547.0</ele>
        <time>2022-11-20T09:24:48.000Z</time>
      </trkpt>
      <trkpt lat="37.09228667" lon="-3.38502667">
        <ele>2547.0</ele>
        <time>2022-11-20T09:24:49.000Z</time>
      </trkpt>
      <trkpt lat="37.09228" lon="-3.38502333">
        <ele>2548.0</ele>
        <time>2022-11-20T09:24:50.000Z</time>
      </trkpt>
      <trkpt lat="37.092275" lon="-3.38501833">
        <ele>2548.0</ele>
        <time>2022-11-20T09:24:51.000Z</time>
      </trkpt>
      <trkpt lat="37.09226667" lon="-3.385015">
        <ele>2548.0</ele>
        <time>2022-11-20T09:24:52.000Z</time>
      </trkpt>
      <trkpt lat="37.09226" lon="-3.38501">
        <ele>2548.0</ele>
        <time>2022-11-20T09:24:53.000Z</time>
      </trkpt>
      <trkpt lat="37.092255" lon="-3.38500667">
        <ele>2548.0</ele>
        <time>2022-11-20T09:24:54.000Z</time>
      </trkpt>
      <trkpt lat="37.09224833" lon="-3.38500333">
        <ele>2548.0</ele>
        <time>2022-11-20T09:24:55.000Z</time>
      </trkpt>
      <trkpt lat="37.09224" lon="-3.38500167">
        <ele>2548.0</ele>
        <time>2022-11-20T09:24:56.000Z</time>
      </trkpt>
      <trkpt lat="37.092235" lon="-3.38499667">
        <ele>2548.0</ele>
        <time>2022-11-20T09:24:57.000Z</time>
      </trkpt>
      <trkpt lat="37.09222833" lon="-3.38499167">
        <ele>2549.0</ele>
        <time>2022-11-20T09:24:58.000Z</time>
      </trkpt>
      <trkpt lat="37.09222167" lon="-3.38498833">
        <ele>2549.0</ele>
        <time>2022-11-20T09:24:59.000Z</time>
      </trkpt>
      <trkpt lat="37.092215" lon="-3.38498667">
        <ele>2549.0</ele>
        <time>2022-11-20T09:25:00.000Z</time>
      </trkpt>
      <trkpt lat="37.09220833" lon="-3.38498333">
        <ele>2549.0</ele>
        <time>2022-11-20T09:25:01.000Z</time>
      </trkpt>
      <trkpt lat="37.0922" lon="-3.38498">
        <ele>2549.0</ele>
        <time>2022-11-20T09:25:02.000Z</time>
      </trkpt>
      <trkpt lat="37.09219333" lon="-3.38497667">
        <ele>2549.0</ele>
        <time>2022-11-20T09:25:03.000Z</time>
      </trkpt>
      <trkpt lat="37.09218667" lon="-3.38497">
        <ele>2549.0</ele>
        <time>2022-11-20T09:25:04.000Z</time>
      </trkpt>
      <trkpt lat="37.09218" lon="-3.384965">
        <ele>2549.0</ele>
        <time>2022-11-20T09:25:05.000Z</time>
      </trkpt>
      <trkpt lat="37.09217333" lon="-3.38496167">
        <ele>2550.0</ele>
        <time>2022-11-20T09:25:06.000Z</time>
      </trkpt>
      <trkpt lat="37.09216667" lon="-3.38495667">
        <ele>2550.0</ele>
        <time>2022-11-20T09:25:07.000Z</time>
      </trkpt>
      <trkpt lat="37.09216" lon="-3.38495333">
        <ele>2550.0</ele>
        <time>2022-11-20T09:25:08.000Z</time>
      </trkpt>
      <trkpt lat="37.09215333" lon="-3.38494833">
        <ele>2550.0</ele>
        <time>2022-11-20T09:25:09.000Z</time>
      </trkpt>
      <trkpt lat="37.09214833" lon="-3.38494333">
        <ele>2550.0</ele>
        <time>2022-11-20T09:25:10.000Z</time>
      </trkpt>
      <trkpt lat="37.09214333" lon="-3.38493833">
        <ele>2550.0</ele>
        <time>2022-11-20T09:25:11.000Z</time>
      </trkpt>
      <trkpt lat="37.09213667" lon="-3.384935">
        <ele>2550.0</ele>
        <time>2022-11-20T09:25:12.000Z</time>
      </trkpt>
      <trkpt lat="37.09213167" lon="-3.38493">
        <ele>2551.0</ele>
        <time>2022-11-20T09:25:13.000Z</time>
      </trkpt>
      <trkpt lat="37.092125" lon="-3.384925">
        <ele>2551.0</ele>
        <time>2022-11-20T09:25:14.000Z</time>
      </trkpt>
      <trkpt lat="37.09212" lon="-3.38492167">
        <ele>2551.0</ele>
        <time>2022-11-20T09:25:15.000Z</time>
      </trkpt>
      <trkpt lat="37.092115" lon="-3.38491333">
        <ele>2551.0</ele>
        <time>2022-11-20T09:25:16.000Z</time>
      </trkpt>
      <trkpt lat="37.09211167" lon="-3.38490833">
        <ele>2552.0</ele>
        <time>2022-11-20T09:25:17.000Z</time>
      </trkpt>
      <trkpt lat="37.09210667" lon="-3.38490333">
        <ele>2552.0</ele>
        <time>2022-11-20T09:25:18.000Z</time>
      </trkpt>
      <trkpt lat="37.09210333" lon="-3.3849">
        <ele>2552.0</ele>
        <time>2022-11-20T09:25:19.000Z</time>
      </trkpt>
      <trkpt lat="37.0921" lon="-3.38489333">
        <ele>2552.0</ele>
        <time>2022-11-20T09:25:20.000Z</time>
      </trkpt>
      <trkpt lat="37.09209667" lon="-3.38488667">
        <ele>2552.0</ele>
        <time>2022-11-20T09:25:21.000Z</time>
      </trkpt>
      <trkpt lat="37.09209167" lon="-3.38488">
        <ele>2552.0</ele>
        <time>2022-11-20T09:25:22.000Z</time>
      </trkpt>
      <trkpt lat="37.09208667" lon="-3.384875">
        <ele>2553.0</ele>
        <time>2022-11-20T09:25:23.000Z</time>
      </trkpt>
      <trkpt lat="37.09208333" lon="-3.38487">
        <ele>2553.0</ele>
        <time>2022-11-20T09:25:24.000Z</time>
      </trkpt>
      <trkpt lat="37.09208" lon="-3.384865">
        <ele>2553.0</ele>
        <time>2022-11-20T09:25:25.000Z</time>
      </trkpt>
      <trkpt lat="37.092075" lon="-3.38486">
        <ele>2553.0</ele>
        <time>2022-11-20T09:25:26.000Z</time>
      </trkpt>
      <trkpt lat="37.09207" lon="-3.384855">
        <ele>2553.0</ele>
        <time>2022-11-20T09:25:27.000Z</time>
      </trkpt>
      <trkpt lat="37.092065" lon="-3.38484833">
        <ele>2553.0</ele>
        <time>2022-11-20T09:25:28.000Z</time>
      </trkpt>
      <trkpt lat="37.09206" lon="-3.38484333">
        <ele>2554.0</ele>
        <time>2022-11-20T09:25:29.000Z</time>
      </trkpt>
      <trkpt lat="37.09205333" lon="-3.38484167">
        <ele>2554.0</ele>
        <time>2022-11-20T09:25:30.000Z</time>
      </trkpt>
      <trkpt lat="37.09204667" lon="-3.38483833">
        <ele>2554.0</ele>
        <time>2022-11-20T09:25:31.000Z</time>
      </trkpt>
      <trkpt lat="37.09204" lon="-3.384835">
        <ele>2554.0</ele>
        <time>2022-11-20T09:25:32.000Z</time>
      </trkpt>
      <trkpt lat="37.09203167" lon="-3.38483167">
        <ele>2554.0</ele>
        <time>2022-11-20T09:25:33.000Z</time>
      </trkpt>
      <trkpt lat="37.09202333" lon="-3.38482833">
        <ele>2554.0</ele>
        <time>2022-11-20T09:25:34.000Z</time>
      </trkpt>
      <trkpt lat="37.09201333" lon="-3.384825">
        <ele>2555.0</ele>
        <time>2022-11-20T09:25:35.000Z</time>
      </trkpt>
      <trkpt lat="37.092005" lon="-3.38482">
        <ele>2555.0</ele>
        <time>2022-11-20T09:25:36.000Z</time>
      </trkpt>
      <trkpt lat="37.091995" lon="-3.38481333">
        <ele>2555.0</ele>
        <time>2022-11-20T09:25:37.000Z</time>
      </trkpt>
      <trkpt lat="37.09199" lon="-3.38481">
        <ele>2555.0</ele>
        <time>2022-11-20T09:25:38.000Z</time>
      </trkpt>
      <trkpt lat="37.09198333" lon="-3.38480667">
        <ele>2555.0</ele>
        <time>2022-11-20T09:25:39.000Z</time>
      </trkpt>
      <trkpt lat="37.091975" lon="-3.38480333">
        <ele>2555.0</ele>
        <time>2022-11-20T09:25:40.000Z</time>
      </trkpt>
      <trkpt lat="37.09196833" lon="-3.38480167">
        <ele>2555.0</ele>
        <time>2022-11-20T09:25:41.000Z</time>
      </trkpt>
      <trkpt lat="37.09196167" lon="-3.3848">
        <ele>2555.0</ele>
        <time>2022-11-20T09:25:42.000Z</time>
      </trkpt>
      <trkpt lat="37.091955" lon="-3.38479833">
        <ele>2556.0</ele>
        <time>2022-11-20T09:25:43.000Z</time>
      </trkpt>
      <trkpt lat="37.09194833" lon="-3.384795">
        <ele>2556.0</ele>
        <time>2022-11-20T09:25:44.000Z</time>
      </trkpt>
      <trkpt lat="37.09194333" lon="-3.38479333">
        <ele>2556.0</ele>
        <time>2022-11-20T09:25:45.000Z</time>
      </trkpt>
      <trkpt lat="37.09193667" lon="-3.38479">
        <ele>2556.0</ele>
        <time>2022-11-20T09:25:46.000Z</time>
      </trkpt>
      <trkpt lat="37.09193167" lon="-3.38478667">
        <ele>2556.0</ele>
        <time>2022-11-20T09:25:47.000Z</time>
      </trkpt>
      <trkpt lat="37.09192667" lon="-3.38478167">
        <ele>2557.0</ele>
        <time>2022-11-20T09:25:48.000Z</time>
      </trkpt>
      <trkpt lat="37.09191833" lon="-3.38477667">
        <ele>2557.0</ele>
        <time>2022-11-20T09:25:49.000Z</time>
      </trkpt>
      <trkpt lat="37.09191333" lon="-3.384775">
        <ele>2557.0</ele>
        <time>2022-11-20T09:25:50.000Z</time>
      </trkpt>
      <trkpt lat="37.09190667" lon="-3.38477167">
        <ele>2557.0</ele>
        <time>2022-11-20T09:25:51.000Z</time>
      </trkpt>
      <trkpt lat="37.0919" lon="-3.38476667">
        <ele>2557.0</ele>
        <time>2022-11-20T09:25:52.000Z</time>
      </trkpt>
      <trkpt lat="37.091895" lon="-3.384765">
        <ele>2557.0</ele>
        <time>2022-11-20T09:25:53.000Z</time>
      </trkpt>
      <trkpt lat="37.09188833" lon="-3.38476167">
        <ele>2557.0</ele>
        <time>2022-11-20T09:25:54.000Z</time>
      </trkpt>
      <trkpt lat="37.09188167" lon="-3.38475667">
        <ele>2558.0</ele>
        <time>2022-11-20T09:25:55.000Z</time>
      </trkpt>
      <trkpt lat="37.091875" lon="-3.38475">
        <ele>2558.0</ele>
        <time>2022-11-20T09:25:56.000Z</time>
      </trkpt>
      <trkpt lat="37.09186833" lon="-3.384745">
        <ele>2558.0</ele>
        <time>2022-11-20T09:25:57.000Z</time>
      </trkpt>
      <trkpt lat="37.09186167" lon="-3.38474">
        <ele>2558.0</ele>
        <time>2022-11-20T09:25:58.000Z</time>
      </trkpt>
      <trkpt lat="37.091855" lon="-3.38473667">
        <ele>2558.0</ele>
        <time>2022-11-20T09:25:59.000Z</time>
      </trkpt>
      <trkpt lat="37.09185" lon="-3.38473">
        <ele>2558.0</ele>
        <time>2022-11-20T09:26:00.000Z</time>
      </trkpt>
      <trkpt lat="37.09184333" lon="-3.384725">
        <ele>2558.0</ele>
        <time>2022-11-20T09:26:01.000Z</time>
      </trkpt>
      <trkpt lat="37.09183667" lon="-3.38472">
        <ele>2558.0</ele>
        <time>2022-11-20T09:26:02.000Z</time>
      </trkpt>
      <trkpt lat="37.09183167" lon="-3.384715">
        <ele>2559.0</ele>
        <time>2022-11-20T09:26:03.000Z</time>
      </trkpt>
      <trkpt lat="37.091825" lon="-3.38471">
        <ele>2559.0</ele>
        <time>2022-11-20T09:26:04.000Z</time>
      </trkpt>
      <trkpt lat="37.09182" lon="-3.384705">
        <ele>2559.0</ele>
        <time>2022-11-20T09:26:05.000Z</time>
      </trkpt>
      <trkpt lat="37.09181333" lon="-3.3847">
        <ele>2559.0</ele>
        <time>2022-11-20T09:26:06.000Z</time>
      </trkpt>
      <trkpt lat="37.09180833" lon="-3.38469667">
        <ele>2559.0</ele>
        <time>2022-11-20T09:26:07.000Z</time>
      </trkpt>
      <trkpt lat="37.09180333" lon="-3.384695">
        <ele>2559.0</ele>
        <time>2022-11-20T09:26:08.000Z</time>
      </trkpt>
      <trkpt lat="37.09179667" lon="-3.38469167">
        <ele>2559.0</ele>
        <time>2022-11-20T09:26:09.000Z</time>
      </trkpt>
      <trkpt lat="37.09179167" lon="-3.38468833">
        <ele>2559.0</ele>
        <time>2022-11-20T09:26:10.000Z</time>
      </trkpt>
      <trkpt lat="37.091785" lon="-3.38468667">
        <ele>2560.0</ele>
        <time>2022-11-20T09:26:11.000Z</time>
      </trkpt>
      <trkpt lat="37.09177667" lon="-3.38468333">
        <ele>2560.0</ele>
        <time>2022-11-20T09:26:12.000Z</time>
      </trkpt>
      <trkpt lat="37.09177" lon="-3.38468">
        <ele>2560.0</ele>
        <time>2022-11-20T09:26:13.000Z</time>
      </trkpt>
      <trkpt lat="37.091765" lon="-3.38467667">
        <ele>2560.0</ele>
        <time>2022-11-20T09:26:14.000Z</time>
      </trkpt>
      <trkpt lat="37.09175833" lon="-3.38467333">
        <ele>2560.0</ele>
        <time>2022-11-20T09:26:15.000Z</time>
      </trkpt>
      <trkpt lat="37.09175167" lon="-3.38467">
        <ele>2560.0</ele>
        <time>2022-11-20T09:26:16.000Z</time>
      </trkpt>
      <trkpt lat="37.09174667" lon="-3.38466833">
        <ele>2560.0</ele>
        <time>2022-11-20T09:26:17.000Z</time>
      </trkpt>
      <trkpt lat="37.09173833" lon="-3.38466333">
        <ele>2560.0</ele>
        <time>2022-11-20T09:26:18.000Z</time>
      </trkpt>
      <trkpt lat="37.09173333" lon="-3.38466">
        <ele>2560.0</ele>
        <time>2022-11-20T09:26:19.000Z</time>
      </trkpt>
      <trkpt lat="37.09172833" lon="-3.38465667">
        <ele>2560.0</ele>
        <time>2022-11-20T09:26:20.000Z</time>
      </trkpt>
      <trkpt lat="37.09172" lon="-3.38465167">
        <ele>2560.0</ele>
        <time>2022-11-20T09:26:21.000Z</time>
      </trkpt>
      <trkpt lat="37.09171333" lon="-3.38464833">
        <ele>2561.0</ele>
        <time>2022-11-20T09:26:22.000Z</time>
      </trkpt>
      <trkpt lat="37.09170667" lon="-3.38464333">
        <ele>2561.0</ele>
        <time>2022-11-20T09:26:23.000Z</time>
      </trkpt>
      <trkpt lat="37.09169833" lon="-3.38463833">
        <ele>2561.0</ele>
        <time>2022-11-20T09:26:24.000Z</time>
      </trkpt>
      <trkpt lat="37.09169333" lon="-3.384635">
        <ele>2561.0</ele>
        <time>2022-11-20T09:26:25.000Z</time>
      </trkpt>
      <trkpt lat="37.09168667" lon="-3.38462833">
        <ele>2561.0</ele>
        <time>2022-11-20T09:26:26.000Z</time>
      </trkpt>
      <trkpt lat="37.09168" lon="-3.38462667">
        <ele>2562.0</ele>
        <time>2022-11-20T09:26:27.000Z</time>
      </trkpt>
      <trkpt lat="37.09167333" lon="-3.38462333">
        <ele>2562.0</ele>
        <time>2022-11-20T09:26:28.000Z</time>
      </trkpt>
      <trkpt lat="37.09166667" lon="-3.38461833">
        <ele>2562.0</ele>
        <time>2022-11-20T09:26:29.000Z</time>
      </trkpt>
      <trkpt lat="37.09166" lon="-3.38461833">
        <ele>2562.0</ele>
        <time>2022-11-20T09:26:30.000Z</time>
      </trkpt>
      <trkpt lat="37.09165333" lon="-3.38461667">
        <ele>2562.0</ele>
        <time>2022-11-20T09:26:31.000Z</time>
      </trkpt>
      <trkpt lat="37.09164667" lon="-3.38461167">
        <ele>2563.0</ele>
        <time>2022-11-20T09:26:32.000Z</time>
      </trkpt>
      <trkpt lat="37.09164" lon="-3.38460667">
        <ele>2563.0</ele>
        <time>2022-11-20T09:26:33.000Z</time>
      </trkpt>
      <trkpt lat="37.091635" lon="-3.384605">
        <ele>2563.0</ele>
        <time>2022-11-20T09:26:34.000Z</time>
      </trkpt>
      <trkpt lat="37.09162667" lon="-3.38460167">
        <ele>2563.0</ele>
        <time>2022-11-20T09:26:35.000Z</time>
      </trkpt>
      <trkpt lat="37.09162" lon="-3.38459833">
        <ele>2564.0</ele>
        <time>2022-11-20T09:26:36.000Z</time>
      </trkpt>
      <trkpt lat="37.09161333" lon="-3.38459333">
        <ele>2564.0</ele>
        <time>2022-11-20T09:26:37.000Z</time>
      </trkpt>
      <trkpt lat="37.09160833" lon="-3.38458833">
        <ele>2564.0</ele>
        <time>2022-11-20T09:26:38.000Z</time>
      </trkpt>
      <trkpt lat="37.0916" lon="-3.38458167">
        <ele>2565.0</ele>
        <time>2022-11-20T09:26:39.000Z</time>
      </trkpt>
      <trkpt lat="37.091595" lon="-3.38458">
        <ele>2565.0</ele>
        <time>2022-11-20T09:26:40.000Z</time>
      </trkpt>
      <trkpt lat="37.09158833" lon="-3.38457667">
        <ele>2565.0</ele>
        <time>2022-11-20T09:26:41.000Z</time>
      </trkpt>
      <trkpt lat="37.09158167" lon="-3.38457167">
        <ele>2565.0</ele>
        <time>2022-11-20T09:26:42.000Z</time>
      </trkpt>
      <trkpt lat="37.09157333" lon="-3.38456833">
        <ele>2566.0</ele>
        <time>2022-11-20T09:26:43.000Z</time>
      </trkpt>
      <trkpt lat="37.09156833" lon="-3.38456333">
        <ele>2566.0</ele>
        <time>2022-11-20T09:26:44.000Z</time>
      </trkpt>
      <trkpt lat="37.09156167" lon="-3.38456">
        <ele>2566.0</ele>
        <time>2022-11-20T09:26:45.000Z</time>
      </trkpt>
      <trkpt lat="37.091555" lon="-3.38455333">
        <ele>2566.0</ele>
        <time>2022-11-20T09:26:46.000Z</time>
      </trkpt>
      <trkpt lat="37.09154833" lon="-3.38455">
        <ele>2566.0</ele>
        <time>2022-11-20T09:26:47.000Z</time>
      </trkpt>
      <trkpt lat="37.09154167" lon="-3.38454667">
        <ele>2567.0</ele>
        <time>2022-11-20T09:26:48.000Z</time>
      </trkpt>
      <trkpt lat="37.091535" lon="-3.38454167">
        <ele>2567.0</ele>
        <time>2022-11-20T09:26:49.000Z</time>
      </trkpt>
      <trkpt lat="37.09152833" lon="-3.38453833">
        <ele>2567.0</ele>
        <time>2022-11-20T09:26:50.000Z</time>
      </trkpt>
      <trkpt lat="37.09152333" lon="-3.38453667">
        <ele>2567.0</ele>
        <time>2022-11-20T09:26:51.000Z</time>
      </trkpt>
      <trkpt lat="37.091515" lon="-3.38453667">
        <ele>2567.0</ele>
        <time>2022-11-20T09:26:52.000Z</time>
      </trkpt>
      <trkpt lat="37.09150833" lon="-3.38453667">
        <ele>2567.0</ele>
        <time>2022-11-20T09:26:53.000Z</time>
      </trkpt>
      <trkpt lat="37.09150167" lon="-3.38453667">
        <ele>2568.0</ele>
        <time>2022-11-20T09:26:54.000Z</time>
      </trkpt>
      <trkpt lat="37.09149333" lon="-3.38453833">
        <ele>2568.0</ele>
        <time>2022-11-20T09:26:55.000Z</time>
      </trkpt>
      <trkpt lat="37.091485" lon="-3.38453833">
        <ele>2568.0</ele>
        <time>2022-11-20T09:26:56.000Z</time>
      </trkpt>
      <trkpt lat="37.09147833" lon="-3.38453667">
        <ele>2568.0</ele>
        <time>2022-11-20T09:26:57.000Z</time>
      </trkpt>
      <trkpt lat="37.09146833" lon="-3.38453667">
        <ele>2569.0</ele>
        <time>2022-11-20T09:26:58.000Z</time>
      </trkpt>
      <trkpt lat="37.09146167" lon="-3.384535">
        <ele>2569.0</ele>
        <time>2022-11-20T09:26:59.000Z</time>
      </trkpt>
      <trkpt lat="37.09145333" lon="-3.38453167">
        <ele>2569.0</ele>
        <time>2022-11-20T09:27:00.000Z</time>
      </trkpt>
      <trkpt lat="37.09144667" lon="-3.38453">
        <ele>2569.0</ele>
        <time>2022-11-20T09:27:01.000Z</time>
      </trkpt>
      <trkpt lat="37.09144167" lon="-3.38452667">
        <ele>2570.0</ele>
        <time>2022-11-20T09:27:02.000Z</time>
      </trkpt>
      <trkpt lat="37.09143333" lon="-3.38452333">
        <ele>2570.0</ele>
        <time>2022-11-20T09:27:03.000Z</time>
      </trkpt>
      <trkpt lat="37.091425" lon="-3.38452">
        <ele>2570.0</ele>
        <time>2022-11-20T09:27:04.000Z</time>
      </trkpt>
      <trkpt lat="37.09142" lon="-3.38451667">
        <ele>2570.0</ele>
        <time>2022-11-20T09:27:05.000Z</time>
      </trkpt>
      <trkpt lat="37.09141333" lon="-3.38451167">
        <ele>2571.0</ele>
        <time>2022-11-20T09:27:06.000Z</time>
      </trkpt>
      <trkpt lat="37.091405" lon="-3.38451">
        <ele>2571.0</ele>
        <time>2022-11-20T09:27:07.000Z</time>
      </trkpt>
      <trkpt lat="37.09139833" lon="-3.38450833">
        <ele>2571.0</ele>
        <time>2022-11-20T09:27:08.000Z</time>
      </trkpt>
      <trkpt lat="37.09139" lon="-3.38450667">
        <ele>2571.0</ele>
        <time>2022-11-20T09:27:09.000Z</time>
      </trkpt>
      <trkpt lat="37.09138167" lon="-3.38450333">
        <ele>2572.0</ele>
        <time>2022-11-20T09:27:10.000Z</time>
      </trkpt>
      <trkpt lat="37.091375" lon="-3.38450333">
        <ele>2572.0</ele>
        <time>2022-11-20T09:27:11.000Z</time>
      </trkpt>
      <trkpt lat="37.09136667" lon="-3.38450333">
        <ele>2572.0</ele>
        <time>2022-11-20T09:27:12.000Z</time>
      </trkpt>
      <trkpt lat="37.09135833" lon="-3.38450167">
        <ele>2572.0</ele>
        <time>2022-11-20T09:27:13.000Z</time>
      </trkpt>
      <trkpt lat="37.09135167" lon="-3.38450167">
        <ele>2572.0</ele>
        <time>2022-11-20T09:27:14.000Z</time>
      </trkpt>
      <trkpt lat="37.09134333" lon="-3.3845">
        <ele>2573.0</ele>
        <time>2022-11-20T09:27:15.000Z</time>
      </trkpt>
      <trkpt lat="37.09133333" lon="-3.38449833">
        <ele>2573.0</ele>
        <time>2022-11-20T09:27:16.000Z</time>
      </trkpt>
      <trkpt lat="37.09132667" lon="-3.384495">
        <ele>2573.0</ele>
        <time>2022-11-20T09:27:17.000Z</time>
      </trkpt>
      <trkpt lat="37.09131833" lon="-3.38449">
        <ele>2573.0</ele>
        <time>2022-11-20T09:27:18.000Z</time>
      </trkpt>
      <trkpt lat="37.09131333" lon="-3.38449">
        <ele>2574.0</ele>
        <time>2022-11-20T09:27:19.000Z</time>
      </trkpt>
      <trkpt lat="37.091305" lon="-3.38448833">
        <ele>2574.0</ele>
        <time>2022-11-20T09:27:20.000Z</time>
      </trkpt>
      <trkpt lat="37.09129667" lon="-3.384485">
        <ele>2574.0</ele>
        <time>2022-11-20T09:27:21.000Z</time>
      </trkpt>
      <trkpt lat="37.09128667" lon="-3.384485">
        <ele>2574.0</ele>
        <time>2022-11-20T09:27:22.000Z</time>
      </trkpt>
      <trkpt lat="37.09128" lon="-3.384485">
        <ele>2575.0</ele>
        <time>2022-11-20T09:27:23.000Z</time>
      </trkpt>
      <trkpt lat="37.09127" lon="-3.38448">
        <ele>2575.0</ele>
        <time>2022-11-20T09:27:24.000Z</time>
      </trkpt>
      <trkpt lat="37.09126" lon="-3.384475">
        <ele>2575.0</ele>
        <time>2022-11-20T09:27:25.000Z</time>
      </trkpt>
      <trkpt lat="37.09125167" lon="-3.38447167">
        <ele>2575.0</ele>
        <time>2022-11-20T09:27:26.000Z</time>
      </trkpt>
      <trkpt lat="37.09124167" lon="-3.38447">
        <ele>2576.0</ele>
        <time>2022-11-20T09:27:27.000Z</time>
      </trkpt>
      <trkpt lat="37.09123333" lon="-3.38446833">
        <ele>2576.0</ele>
        <time>2022-11-20T09:27:28.000Z</time>
      </trkpt>
      <trkpt lat="37.091225" lon="-3.384465">
        <ele>2576.0</ele>
        <time>2022-11-20T09:27:29.000Z</time>
      </trkpt>
      <trkpt lat="37.091215" lon="-3.38446167">
        <ele>2576.0</ele>
        <time>2022-11-20T09:27:30.000Z</time>
      </trkpt>
      <trkpt lat="37.09120833" lon="-3.38446">
        <ele>2577.0</ele>
        <time>2022-11-20T09:27:31.000Z</time>
      </trkpt>
      <trkpt lat="37.09119833" lon="-3.38445833">
        <ele>2577.0</ele>
        <time>2022-11-20T09:27:32.000Z</time>
      </trkpt>
      <trkpt lat="37.09118833" lon="-3.384455">
        <ele>2577.0</ele>
        <time>2022-11-20T09:27:33.000Z</time>
      </trkpt>
      <trkpt lat="37.09118" lon="-3.384455">
        <ele>2577.0</ele>
        <time>2022-11-20T09:27:34.000Z</time>
      </trkpt>
      <trkpt lat="37.09117" lon="-3.38445167">
        <ele>2577.0</ele>
        <time>2022-11-20T09:27:35.000Z</time>
      </trkpt>
      <trkpt lat="37.09116333" lon="-3.38444833">
        <ele>2577.0</ele>
        <time>2022-11-20T09:27:36.000Z</time>
      </trkpt>
      <trkpt lat="37.09115333" lon="-3.38444667">
        <ele>2578.0</ele>
        <time>2022-11-20T09:27:37.000Z</time>
      </trkpt>
      <trkpt lat="37.091145" lon="-3.38444167">
        <ele>2578.0</ele>
        <time>2022-11-20T09:27:38.000Z</time>
      </trkpt>
      <trkpt lat="37.09113667" lon="-3.38443833">
        <ele>2578.0</ele>
        <time>2022-11-20T09:27:39.000Z</time>
      </trkpt>
      <trkpt lat="37.09112833" lon="-3.384435">
        <ele>2578.0</ele>
        <time>2022-11-20T09:27:40.000Z</time>
      </trkpt>
      <trkpt lat="37.09112" lon="-3.38443">
        <ele>2578.0</ele>
        <time>2022-11-20T09:27:41.000Z</time>
      </trkpt>
      <trkpt lat="37.09111167" lon="-3.38442667">
        <ele>2578.0</ele>
        <time>2022-11-20T09:27:42.000Z</time>
      </trkpt>
      <trkpt lat="37.09110333" lon="-3.38442167">
        <ele>2578.0</ele>
        <time>2022-11-20T09:27:43.000Z</time>
      </trkpt>
      <trkpt lat="37.09109667" lon="-3.38441667">
        <ele>2578.0</ele>
        <time>2022-11-20T09:27:44.000Z</time>
      </trkpt>
      <trkpt lat="37.09109" lon="-3.38441167">
        <ele>2579.0</ele>
        <time>2022-11-20T09:27:45.000Z</time>
      </trkpt>
      <trkpt lat="37.09108167" lon="-3.38440667">
        <ele>2579.0</ele>
        <time>2022-11-20T09:27:46.000Z</time>
      </trkpt>
      <trkpt lat="37.091075" lon="-3.38440167">
        <ele>2579.0</ele>
        <time>2022-11-20T09:27:47.000Z</time>
      </trkpt>
      <trkpt lat="37.09106667" lon="-3.38439667">
        <ele>2579.0</ele>
        <time>2022-11-20T09:27:48.000Z</time>
      </trkpt>
      <trkpt lat="37.09105833" lon="-3.38439">
        <ele>2579.0</ele>
        <time>2022-11-20T09:27:49.000Z</time>
      </trkpt>
      <trkpt lat="37.09105167" lon="-3.384385">
        <ele>2579.0</ele>
        <time>2022-11-20T09:27:50.000Z</time>
      </trkpt>
      <trkpt lat="37.091045" lon="-3.38437833">
        <ele>2579.0</ele>
        <time>2022-11-20T09:27:51.000Z</time>
      </trkpt>
      <trkpt lat="37.09103667" lon="-3.38437333">
        <ele>2579.0</ele>
        <time>2022-11-20T09:27:52.000Z</time>
      </trkpt>
      <trkpt lat="37.09103" lon="-3.38436667">
        <ele>2579.0</ele>
        <time>2022-11-20T09:27:53.000Z</time>
      </trkpt>
      <trkpt lat="37.09102167" lon="-3.38436">
        <ele>2579.0</ele>
        <time>2022-11-20T09:27:54.000Z</time>
      </trkpt>
      <trkpt lat="37.09101667" lon="-3.384355">
        <ele>2579.0</ele>
        <time>2022-11-20T09:27:55.000Z</time>
      </trkpt>
      <trkpt lat="37.09101" lon="-3.38434667">
        <ele>2579.0</ele>
        <time>2022-11-20T09:27:56.000Z</time>
      </trkpt>
      <trkpt lat="37.09100167" lon="-3.38434">
        <ele>2579.0</ele>
        <time>2022-11-20T09:27:57.000Z</time>
      </trkpt>
      <trkpt lat="37.090995" lon="-3.38433333">
        <ele>2580.0</ele>
        <time>2022-11-20T09:27:58.000Z</time>
      </trkpt>
      <trkpt lat="37.09098667" lon="-3.38432833">
        <ele>2580.0</ele>
        <time>2022-11-20T09:27:59.000Z</time>
      </trkpt>
      <trkpt lat="37.09098167" lon="-3.38432167">
        <ele>2580.0</ele>
        <time>2022-11-20T09:28:00.000Z</time>
      </trkpt>
      <trkpt lat="37.09097333" lon="-3.38431667">
        <ele>2580.0</ele>
        <time>2022-11-20T09:28:01.000Z</time>
      </trkpt>
      <trkpt lat="37.090965" lon="-3.38430833">
        <ele>2580.0</ele>
        <time>2022-11-20T09:28:02.000Z</time>
      </trkpt>
      <trkpt lat="37.09095667" lon="-3.38430333">
        <ele>2580.0</ele>
        <time>2022-11-20T09:28:03.000Z</time>
      </trkpt>
      <trkpt lat="37.09094833" lon="-3.38429833">
        <ele>2580.0</ele>
        <time>2022-11-20T09:28:04.000Z</time>
      </trkpt>
      <trkpt lat="37.09094" lon="-3.38429333">
        <ele>2580.0</ele>
        <time>2022-11-20T09:28:05.000Z</time>
      </trkpt>
      <trkpt lat="37.09093" lon="-3.38429">
        <ele>2581.0</ele>
        <time>2022-11-20T09:28:06.000Z</time>
      </trkpt>
      <trkpt lat="37.09092167" lon="-3.38428667">
        <ele>2581.0</ele>
        <time>2022-11-20T09:28:07.000Z</time>
      </trkpt>
      <trkpt lat="37.09091167" lon="-3.384285">
        <ele>2581.0</ele>
        <time>2022-11-20T09:28:08.000Z</time>
      </trkpt>
      <trkpt lat="37.09090333" lon="-3.38428">
        <ele>2581.0</ele>
        <time>2022-11-20T09:28:09.000Z</time>
      </trkpt>
      <trkpt lat="37.09089667" lon="-3.384275">
        <ele>2581.0</ele>
        <time>2022-11-20T09:28:10.000Z</time>
      </trkpt>
      <trkpt lat="37.09088667" lon="-3.38426833">
        <ele>2582.0</ele>
        <time>2022-11-20T09:28:11.000Z</time>
      </trkpt>
      <trkpt lat="37.09087667" lon="-3.38426333">
        <ele>2582.0</ele>
        <time>2022-11-20T09:28:12.000Z</time>
      </trkpt>
      <trkpt lat="37.09086667" lon="-3.38425833">
        <ele>2582.0</ele>
        <time>2022-11-20T09:28:13.000Z</time>
      </trkpt>
      <trkpt lat="37.09085833" lon="-3.38425167">
        <ele>2582.0</ele>
        <time>2022-11-20T09:28:14.000Z</time>
      </trkpt>
      <trkpt lat="37.09085" lon="-3.38424833">
        <ele>2582.0</ele>
        <time>2022-11-20T09:28:15.000Z</time>
      </trkpt>
      <trkpt lat="37.09084167" lon="-3.384245">
        <ele>2582.0</ele>
        <time>2022-11-20T09:28:16.000Z</time>
      </trkpt>
      <trkpt lat="37.09083167" lon="-3.38424">
        <ele>2582.0</ele>
        <time>2022-11-20T09:28:17.000Z</time>
      </trkpt>
      <trkpt lat="37.09082333" lon="-3.38423667">
        <ele>2583.0</ele>
        <time>2022-11-20T09:28:18.000Z</time>
      </trkpt>
      <trkpt lat="37.090815" lon="-3.38422833">
        <ele>2583.0</ele>
        <time>2022-11-20T09:28:19.000Z</time>
      </trkpt>
      <trkpt lat="37.09080833" lon="-3.38422333">
        <ele>2583.0</ele>
        <time>2022-11-20T09:28:20.000Z</time>
      </trkpt>
      <trkpt lat="37.09080167" lon="-3.384215">
        <ele>2583.0</ele>
        <time>2022-11-20T09:28:21.000Z</time>
      </trkpt>
      <trkpt lat="37.09079333" lon="-3.38420333">
        <ele>2583.0</ele>
        <time>2022-11-20T09:28:22.000Z</time>
      </trkpt>
      <trkpt lat="37.09078667" lon="-3.38419333">
        <ele>2584.0</ele>
        <time>2022-11-20T09:28:23.000Z</time>
      </trkpt>
      <trkpt lat="37.09078" lon="-3.384185">
        <ele>2584.0</ele>
        <time>2022-11-20T09:28:24.000Z</time>
      </trkpt>
      <trkpt lat="37.09077167" lon="-3.38417167">
        <ele>2584.0</ele>
        <time>2022-11-20T09:28:25.000Z</time>
      </trkpt>
      <trkpt lat="37.090765" lon="-3.38416167">
        <ele>2584.0</ele>
        <time>2022-11-20T09:28:26.000Z</time>
      </trkpt>
      <trkpt lat="37.09075833" lon="-3.38415">
        <ele>2584.0</ele>
        <time>2022-11-20T09:28:27.000Z</time>
      </trkpt>
      <trkpt lat="37.090755" lon="-3.38413667">
        <ele>2584.0</ele>
        <time>2022-11-20T09:28:28.000Z</time>
      </trkpt>
      <trkpt lat="37.09075167" lon="-3.384125">
        <ele>2584.0</ele>
        <time>2022-11-20T09:28:29.000Z</time>
      </trkpt>
      <trkpt lat="37.09074833" lon="-3.38411">
        <ele>2584.0</ele>
        <time>2022-11-20T09:28:30.000Z</time>
      </trkpt>
      <trkpt lat="37.09074667" lon="-3.38409833">
        <ele>2584.0</ele>
        <time>2022-11-20T09:28:31.000Z</time>
      </trkpt>
      <trkpt lat="37.09074333" lon="-3.38408667">
        <ele>2584.0</ele>
        <time>2022-11-20T09:28:32.000Z</time>
      </trkpt>
      <trkpt lat="37.09074" lon="-3.38407333">
        <ele>2584.0</ele>
        <time>2022-11-20T09:28:33.000Z</time>
      </trkpt>
      <trkpt lat="37.09073833" lon="-3.38406333">
        <ele>2584.0</ele>
        <time>2022-11-20T09:28:34.000Z</time>
      </trkpt>
      <trkpt lat="37.09073833" lon="-3.38404833">
        <ele>2584.0</ele>
        <time>2022-11-20T09:28:35.000Z</time>
      </trkpt>
      <trkpt lat="37.09074" lon="-3.384035">
        <ele>2584.0</ele>
        <time>2022-11-20T09:28:36.000Z</time>
      </trkpt>
      <trkpt lat="37.09074333" lon="-3.38402">
        <ele>2585.0</ele>
        <time>2022-11-20T09:28:37.000Z</time>
      </trkpt>
      <trkpt lat="37.09074333" lon="-3.38400833">
        <ele>2585.0</ele>
        <time>2022-11-20T09:28:38.000Z</time>
      </trkpt>
      <trkpt lat="37.090745" lon="-3.384">
        <ele>2585.0</ele>
        <time>2022-11-20T09:28:39.000Z</time>
      </trkpt>
      <trkpt lat="37.09074333" lon="-3.38399167">
        <ele>2585.0</ele>
        <time>2022-11-20T09:28:40.000Z</time>
      </trkpt>
      <trkpt lat="37.09073667" lon="-3.38398333">
        <ele>2585.0</ele>
        <time>2022-11-20T09:28:41.000Z</time>
      </trkpt>
      <trkpt lat="37.09073167" lon="-3.38397667">
        <ele>2585.0</ele>
        <time>2022-11-20T09:28:42.000Z</time>
      </trkpt>
      <trkpt lat="37.090725" lon="-3.38396667">
        <ele>2585.0</ele>
        <time>2022-11-20T09:28:43.000Z</time>
      </trkpt>
      <trkpt lat="37.09072" lon="-3.38395667">
        <ele>2585.0</ele>
        <time>2022-11-20T09:28:44.000Z</time>
      </trkpt>
      <trkpt lat="37.090715" lon="-3.38394667">
        <ele>2585.0</ele>
        <time>2022-11-20T09:28:45.000Z</time>
      </trkpt>
      <trkpt lat="37.09071" lon="-3.38393833">
        <ele>2585.0</ele>
        <time>2022-11-20T09:28:46.000Z</time>
      </trkpt>
      <trkpt lat="37.090705" lon="-3.38393167">
        <ele>2585.0</ele>
        <time>2022-11-20T09:28:47.000Z</time>
      </trkpt>
      <trkpt lat="37.09069667" lon="-3.383925">
        <ele>2586.0</ele>
        <time>2022-11-20T09:28:48.000Z</time>
      </trkpt>
      <trkpt lat="37.09069" lon="-3.38391833">
        <ele>2586.0</ele>
        <time>2022-11-20T09:28:49.000Z</time>
      </trkpt>
      <trkpt lat="37.09068333" lon="-3.38391">
        <ele>2586.0</ele>
        <time>2022-11-20T09:28:50.000Z</time>
      </trkpt>
      <trkpt lat="37.09067833" lon="-3.383905">
        <ele>2586.0</ele>
        <time>2022-11-20T09:28:51.000Z</time>
      </trkpt>
      <trkpt lat="37.09067167" lon="-3.38390167">
        <ele>2586.0</ele>
        <time>2022-11-20T09:28:52.000Z</time>
      </trkpt>
      <trkpt lat="37.090665" lon="-3.38389667">
        <ele>2586.0</ele>
        <time>2022-11-20T09:28:53.000Z</time>
      </trkpt>
      <trkpt lat="37.09065833" lon="-3.38389">
        <ele>2586.0</ele>
        <time>2022-11-20T09:28:54.000Z</time>
      </trkpt>
      <trkpt lat="37.09065" lon="-3.383885">
        <ele>2586.0</ele>
        <time>2022-11-20T09:28:55.000Z</time>
      </trkpt>
      <trkpt lat="37.09064333" lon="-3.38387833">
        <ele>2586.0</ele>
        <time>2022-11-20T09:28:56.000Z</time>
      </trkpt>
      <trkpt lat="37.09063667" lon="-3.38387167">
        <ele>2586.0</ele>
        <time>2022-11-20T09:28:57.000Z</time>
      </trkpt>
      <trkpt lat="37.09063" lon="-3.383865">
        <ele>2586.0</ele>
        <time>2022-11-20T09:28:58.000Z</time>
      </trkpt>
      <trkpt lat="37.09062333" lon="-3.38386">
        <ele>2586.0</ele>
        <time>2022-11-20T09:28:59.000Z</time>
      </trkpt>
      <trkpt lat="37.09061833" lon="-3.38385667">
        <ele>2587.0</ele>
        <time>2022-11-20T09:29:00.000Z</time>
      </trkpt>
      <trkpt lat="37.09061" lon="-3.38385167">
        <ele>2587.0</ele>
        <time>2022-11-20T09:29:01.000Z</time>
      </trkpt>
      <trkpt lat="37.09060333" lon="-3.38384833">
        <ele>2587.0</ele>
        <time>2022-11-20T09:29:02.000Z</time>
      </trkpt>
      <trkpt lat="37.09059667" lon="-3.38384333">
        <ele>2587.0</ele>
        <time>2022-11-20T09:29:03.000Z</time>
      </trkpt>
      <trkpt lat="37.09058833" lon="-3.38383667">
        <ele>2587.0</ele>
        <time>2022-11-20T09:29:04.000Z</time>
      </trkpt>
      <trkpt lat="37.09058167" lon="-3.38383167">
        <ele>2587.0</ele>
        <time>2022-11-20T09:29:05.000Z</time>
      </trkpt>
      <trkpt lat="37.09057333" lon="-3.383825">
        <ele>2588.0</ele>
        <time>2022-11-20T09:29:06.000Z</time>
      </trkpt>
      <trkpt lat="37.09056833" lon="-3.38382">
        <ele>2588.0</ele>
        <time>2022-11-20T09:29:07.000Z</time>
      </trkpt>
      <trkpt lat="37.09056" lon="-3.38381333">
        <ele>2588.0</ele>
        <time>2022-11-20T09:29:08.000Z</time>
      </trkpt>
      <trkpt lat="37.09055167" lon="-3.38380833">
        <ele>2588.0</ele>
        <time>2022-11-20T09:29:09.000Z</time>
      </trkpt>
      <trkpt lat="37.090545" lon="-3.383805">
        <ele>2588.0</ele>
        <time>2022-11-20T09:29:10.000Z</time>
      </trkpt>
      <trkpt lat="37.09053833" lon="-3.38379667">
        <ele>2588.0</ele>
        <time>2022-11-20T09:29:11.000Z</time>
      </trkpt>
      <trkpt lat="37.09053" lon="-3.38379333">
        <ele>2588.0</ele>
        <time>2022-11-20T09:29:12.000Z</time>
      </trkpt>
      <trkpt lat="37.090525" lon="-3.38378833">
        <ele>2589.0</ele>
        <time>2022-11-20T09:29:13.000Z</time>
      </trkpt>
      <trkpt lat="37.09051667" lon="-3.38378333">
        <ele>2589.0</ele>
        <time>2022-11-20T09:29:14.000Z</time>
      </trkpt>
      <trkpt lat="37.09051" lon="-3.38378167">
        <ele>2589.0</ele>
        <time>2022-11-20T09:29:15.000Z</time>
      </trkpt>
      <trkpt lat="37.09050167" lon="-3.38377667">
        <ele>2589.0</ele>
        <time>2022-11-20T09:29:16.000Z</time>
      </trkpt>
      <trkpt lat="37.090495" lon="-3.38377167">
        <ele>2589.0</ele>
        <time>2022-11-20T09:29:17.000Z</time>
      </trkpt>
      <trkpt lat="37.09048833" lon="-3.38376667">
        <ele>2590.0</ele>
        <time>2022-11-20T09:29:18.000Z</time>
      </trkpt>
      <trkpt lat="37.09048167" lon="-3.38376">
        <ele>2590.0</ele>
        <time>2022-11-20T09:29:19.000Z</time>
      </trkpt>
      <trkpt lat="37.090475" lon="-3.383755">
        <ele>2590.0</ele>
        <time>2022-11-20T09:29:20.000Z</time>
      </trkpt>
      <trkpt lat="37.09047" lon="-3.38375">
        <ele>2590.0</ele>
        <time>2022-11-20T09:29:21.000Z</time>
      </trkpt>
      <trkpt lat="37.09046333" lon="-3.383745">
        <ele>2590.0</ele>
        <time>2022-11-20T09:29:22.000Z</time>
      </trkpt>
      <trkpt lat="37.09045833" lon="-3.38374">
        <ele>2590.0</ele>
        <time>2022-11-20T09:29:23.000Z</time>
      </trkpt>
      <trkpt lat="37.09045167" lon="-3.383735">
        <ele>2590.0</ele>
        <time>2022-11-20T09:29:24.000Z</time>
      </trkpt>
      <trkpt lat="37.09044667" lon="-3.38372833">
        <ele>2591.0</ele>
        <time>2022-11-20T09:29:25.000Z</time>
      </trkpt>
      <trkpt lat="37.09044" lon="-3.38372167">
        <ele>2591.0</ele>
        <time>2022-11-20T09:29:26.000Z</time>
      </trkpt>
      <trkpt lat="37.09043667" lon="-3.38371667">
        <ele>2591.0</ele>
        <time>2022-11-20T09:29:27.000Z</time>
      </trkpt>
      <trkpt lat="37.09043167" lon="-3.38371167">
        <ele>2591.0</ele>
        <time>2022-11-20T09:29:28.000Z</time>
      </trkpt>
      <trkpt lat="37.090425" lon="-3.38370667">
        <ele>2591.0</ele>
        <time>2022-11-20T09:29:29.000Z</time>
      </trkpt>
      <trkpt lat="37.09041833" lon="-3.38370333">
        <ele>2592.0</ele>
        <time>2022-11-20T09:29:30.000Z</time>
      </trkpt>
      <trkpt lat="37.09041167" lon="-3.38369833">
        <ele>2592.0</ele>
        <time>2022-11-20T09:29:31.000Z</time>
      </trkpt>
      <trkpt lat="37.090405" lon="-3.38369667">
        <ele>2592.0</ele>
        <time>2022-11-20T09:29:32.000Z</time>
      </trkpt>
      <trkpt lat="37.09039667" lon="-3.383695">
        <ele>2592.0</ele>
        <time>2022-11-20T09:29:33.000Z</time>
      </trkpt>
      <trkpt lat="37.09038833" lon="-3.38369167">
        <ele>2592.0</ele>
        <time>2022-11-20T09:29:34.000Z</time>
      </trkpt>
      <trkpt lat="37.09038333" lon="-3.38368833">
        <ele>2592.0</ele>
        <time>2022-11-20T09:29:35.000Z</time>
      </trkpt>
      <trkpt lat="37.090375" lon="-3.38368833">
        <ele>2592.0</ele>
        <time>2022-11-20T09:29:36.000Z</time>
      </trkpt>
      <trkpt lat="37.09036833" lon="-3.38368333">
        <ele>2592.0</ele>
        <time>2022-11-20T09:29:37.000Z</time>
      </trkpt>
      <trkpt lat="37.09036333" lon="-3.38368">
        <ele>2592.0</ele>
        <time>2022-11-20T09:29:38.000Z</time>
      </trkpt>
      <trkpt lat="37.09035667" lon="-3.383675">
        <ele>2593.0</ele>
        <time>2022-11-20T09:29:39.000Z</time>
      </trkpt>
      <trkpt lat="37.09035" lon="-3.38367">
        <ele>2593.0</ele>
        <time>2022-11-20T09:29:40.000Z</time>
      </trkpt>
      <trkpt lat="37.090345" lon="-3.38366667">
        <ele>2593.0</ele>
        <time>2022-11-20T09:29:41.000Z</time>
      </trkpt>
      <trkpt lat="37.09034" lon="-3.38366333">
        <ele>2593.0</ele>
        <time>2022-11-20T09:29:42.000Z</time>
      </trkpt>
      <trkpt lat="37.09033333" lon="-3.38366">
        <ele>2593.0</ele>
        <time>2022-11-20T09:29:43.000Z</time>
      </trkpt>
      <trkpt lat="37.09032833" lon="-3.38365667">
        <ele>2593.0</ele>
        <time>2022-11-20T09:29:44.000Z</time>
      </trkpt>
      <trkpt lat="37.09032333" lon="-3.38365167">
        <ele>2594.0</ele>
        <time>2022-11-20T09:29:45.000Z</time>
      </trkpt>
      <trkpt lat="37.09031833" lon="-3.38364667">
        <ele>2594.0</ele>
        <time>2022-11-20T09:29:46.000Z</time>
      </trkpt>
      <trkpt lat="37.090315" lon="-3.38364333">
        <ele>2594.0</ele>
        <time>2022-11-20T09:29:47.000Z</time>
      </trkpt>
      <trkpt lat="37.09031167" lon="-3.38363833">
        <ele>2594.0</ele>
        <time>2022-11-20T09:29:48.000Z</time>
      </trkpt>
      <trkpt lat="37.09030667" lon="-3.38363333">
        <ele>2594.0</ele>
        <time>2022-11-20T09:29:49.000Z</time>
      </trkpt>
      <trkpt lat="37.09030167" lon="-3.38363">
        <ele>2594.0</ele>
        <time>2022-11-20T09:29:50.000Z</time>
      </trkpt>
      <trkpt lat="37.0903" lon="-3.38362833">
        <ele>2594.0</ele>
        <time>2022-11-20T09:29:51.000Z</time>
      </trkpt>
      <trkpt lat="37.09029333" lon="-3.38362167">
        <ele>2595.0</ele>
        <time>2022-11-20T09:29:52.000Z</time>
      </trkpt>
      <trkpt lat="37.09029" lon="-3.38361833">
        <ele>2595.0</ele>
        <time>2022-11-20T09:29:53.000Z</time>
      </trkpt>
      <trkpt lat="37.09028833" lon="-3.38361667">
        <ele>2595.0</ele>
        <time>2022-11-20T09:29:54.000Z</time>
      </trkpt>
      <trkpt lat="37.09028333" lon="-3.38361167">
        <ele>2595.0</ele>
        <time>2022-11-20T09:29:55.000Z</time>
      </trkpt>
      <trkpt lat="37.09028167" lon="-3.38360833">
        <ele>2595.0</ele>
        <time>2022-11-20T09:29:56.000Z</time>
      </trkpt>
      <trkpt lat="37.09028167" lon="-3.38360667">
        <ele>2595.0</ele>
        <time>2022-11-20T09:29:57.000Z</time>
      </trkpt>
      <trkpt lat="37.09028" lon="-3.38360333">
        <ele>2595.0</ele>
        <time>2022-11-20T09:29:58.000Z</time>
      </trkpt>
      <trkpt lat="37.09027667" lon="-3.3836">
        <ele>2596.0</ele>
        <time>2022-11-20T09:29:59.000Z</time>
      </trkpt>
      <trkpt lat="37.09027333" lon="-3.38359667">
        <ele>2596.0</ele>
        <time>2022-11-20T09:30:00.000Z</time>
      </trkpt>
      <trkpt lat="37.09026833" lon="-3.383595">
        <ele>2596.0</ele>
        <time>2022-11-20T09:30:01.000Z</time>
      </trkpt>
      <trkpt lat="37.090265" lon="-3.38359">
        <ele>2596.0</ele>
        <time>2022-11-20T09:30:02.000Z</time>
      </trkpt>
      <trkpt lat="37.09026167" lon="-3.38358833">
        <ele>2597.0</ele>
        <time>2022-11-20T09:30:03.000Z</time>
      </trkpt>
      <trkpt lat="37.09025833" lon="-3.38358667">
        <ele>2597.0</ele>
        <time>2022-11-20T09:30:04.000Z</time>
      </trkpt>
      <trkpt lat="37.09025333" lon="-3.38358167">
        <ele>2597.0</ele>
        <time>2022-11-20T09:30:05.000Z</time>
      </trkpt>
      <trkpt lat="37.09024667" lon="-3.38358">
        <ele>2597.0</ele>
        <time>2022-11-20T09:30:06.000Z</time>
      </trkpt>
      <trkpt lat="37.09023833" lon="-3.38357833">
        <ele>2597.0</ele>
        <time>2022-11-20T09:30:07.000Z</time>
      </trkpt>
      <trkpt lat="37.09023" lon="-3.38357667">
        <ele>2597.0</ele>
        <time>2022-11-20T09:30:08.000Z</time>
      </trkpt>
      <trkpt lat="37.09022167" lon="-3.38357">
        <ele>2598.0</ele>
        <time>2022-11-20T09:30:09.000Z</time>
      </trkpt>
      <trkpt lat="37.09021167" lon="-3.383565">
        <ele>2598.0</ele>
        <time>2022-11-20T09:30:10.000Z</time>
      </trkpt>
      <trkpt lat="37.09020333" lon="-3.38356">
        <ele>2598.0</ele>
        <time>2022-11-20T09:30:11.000Z</time>
      </trkpt>
      <trkpt lat="37.090195" lon="-3.383555">
        <ele>2598.0</ele>
        <time>2022-11-20T09:30:12.000Z</time>
      </trkpt>
      <trkpt lat="37.090185" lon="-3.38355167">
        <ele>2598.0</ele>
        <time>2022-11-20T09:30:13.000Z</time>
      </trkpt>
      <trkpt lat="37.090175" lon="-3.38354667">
        <ele>2598.0</ele>
        <time>2022-11-20T09:30:14.000Z</time>
      </trkpt>
      <trkpt lat="37.09016667" lon="-3.38354333">
        <ele>2598.0</ele>
        <time>2022-11-20T09:30:15.000Z</time>
      </trkpt>
      <trkpt lat="37.09015833" lon="-3.38354167">
        <ele>2598.0</ele>
        <time>2022-11-20T09:30:16.000Z</time>
      </trkpt>
      <trkpt lat="37.09015" lon="-3.38353667">
        <ele>2598.0</ele>
        <time>2022-11-20T09:30:17.000Z</time>
      </trkpt>
      <trkpt lat="37.09014" lon="-3.38353333">
        <ele>2598.0</ele>
        <time>2022-11-20T09:30:18.000Z</time>
      </trkpt>
      <trkpt lat="37.090135" lon="-3.38353">
        <ele>2599.0</ele>
        <time>2022-11-20T09:30:19.000Z</time>
      </trkpt>
      <trkpt lat="37.09012667" lon="-3.38352667">
        <ele>2599.0</ele>
        <time>2022-11-20T09:30:20.000Z</time>
      </trkpt>
      <trkpt lat="37.09012" lon="-3.38352667">
        <ele>2599.0</ele>
        <time>2022-11-20T09:30:21.000Z</time>
      </trkpt>
      <trkpt lat="37.09011167" lon="-3.383525">
        <ele>2599.0</ele>
        <time>2022-11-20T09:30:22.000Z</time>
      </trkpt>
      <trkpt lat="37.090105" lon="-3.38352333">
        <ele>2599.0</ele>
        <time>2022-11-20T09:30:23.000Z</time>
      </trkpt>
      <trkpt lat="37.09010167" lon="-3.38352167">
        <ele>2599.0</ele>
        <time>2022-11-20T09:30:24.000Z</time>
      </trkpt>
      <trkpt lat="37.09009333" lon="-3.38352167">
        <ele>2599.0</ele>
        <time>2022-11-20T09:30:25.000Z</time>
      </trkpt>
      <trkpt lat="37.090085" lon="-3.38352167">
        <ele>2599.0</ele>
        <time>2022-11-20T09:30:26.000Z</time>
      </trkpt>
      <trkpt lat="37.09007833" lon="-3.38352333">
        <ele>2599.0</ele>
        <time>2022-11-20T09:30:27.000Z</time>
      </trkpt>
      <trkpt lat="37.09007333" lon="-3.38352333">
        <ele>2600.0</ele>
        <time>2022-11-20T09:30:28.000Z</time>
      </trkpt>
      <trkpt lat="37.09006167" lon="-3.383525">
        <ele>2600.0</ele>
        <time>2022-11-20T09:30:29.000Z</time>
      </trkpt>
      <trkpt lat="37.090055" lon="-3.383525">
        <ele>2600.0</ele>
        <time>2022-11-20T09:30:30.000Z</time>
      </trkpt>
      <trkpt lat="37.09004833" lon="-3.383525">
        <ele>2600.0</ele>
        <time>2022-11-20T09:30:31.000Z</time>
      </trkpt>
      <trkpt lat="37.09004" lon="-3.383525">
        <ele>2600.0</ele>
        <time>2022-11-20T09:30:32.000Z</time>
      </trkpt>
      <trkpt lat="37.09003167" lon="-3.383525">
        <ele>2600.0</ele>
        <time>2022-11-20T09:30:33.000Z</time>
      </trkpt>
      <trkpt lat="37.09002667" lon="-3.38352167">
        <ele>2600.0</ele>
        <time>2022-11-20T09:30:34.000Z</time>
      </trkpt>
      <trkpt lat="37.09002" lon="-3.38352">
        <ele>2601.0</ele>
        <time>2022-11-20T09:30:35.000Z</time>
      </trkpt>
      <trkpt lat="37.09001167" lon="-3.38352">
        <ele>2601.0</ele>
        <time>2022-11-20T09:30:36.000Z</time>
      </trkpt>
      <trkpt lat="37.090005" lon="-3.38352167">
        <ele>2601.0</ele>
        <time>2022-11-20T09:30:37.000Z</time>
      </trkpt>
      <trkpt lat="37.08999667" lon="-3.383525">
        <ele>2601.0</ele>
        <time>2022-11-20T09:30:38.000Z</time>
      </trkpt>
      <trkpt lat="37.08998833" lon="-3.38352833">
        <ele>2601.0</ele>
        <time>2022-11-20T09:30:39.000Z</time>
      </trkpt>
      <trkpt lat="37.08998" lon="-3.38353">
        <ele>2601.0</ele>
        <time>2022-11-20T09:30:40.000Z</time>
      </trkpt>
      <trkpt lat="37.08997167" lon="-3.38353167">
        <ele>2601.0</ele>
        <time>2022-11-20T09:30:41.000Z</time>
      </trkpt>
      <trkpt lat="37.08996667" lon="-3.383535">
        <ele>2601.0</ele>
        <time>2022-11-20T09:30:42.000Z</time>
      </trkpt>
      <trkpt lat="37.08995667" lon="-3.38354">
        <ele>2601.0</ele>
        <time>2022-11-20T09:30:43.000Z</time>
      </trkpt>
      <trkpt lat="37.08995" lon="-3.38354167">
        <ele>2601.0</ele>
        <time>2022-11-20T09:30:44.000Z</time>
      </trkpt>
      <trkpt lat="37.08994333" lon="-3.383545">
        <ele>2601.0</ele>
        <time>2022-11-20T09:30:45.000Z</time>
      </trkpt>
      <trkpt lat="37.08993333" lon="-3.38355">
        <ele>2601.0</ele>
        <time>2022-11-20T09:30:46.000Z</time>
      </trkpt>
      <trkpt lat="37.089925" lon="-3.38355333">
        <ele>2602.0</ele>
        <time>2022-11-20T09:30:47.000Z</time>
      </trkpt>
      <trkpt lat="37.08991667" lon="-3.38355833">
        <ele>2602.0</ele>
        <time>2022-11-20T09:30:48.000Z</time>
      </trkpt>
      <trkpt lat="37.08991" lon="-3.38356167">
        <ele>2602.0</ele>
        <time>2022-11-20T09:30:49.000Z</time>
      </trkpt>
      <trkpt lat="37.08990167" lon="-3.383565">
        <ele>2602.0</ele>
        <time>2022-11-20T09:30:50.000Z</time>
      </trkpt>
      <trkpt lat="37.08989333" lon="-3.38356833">
        <ele>2602.0</ele>
        <time>2022-11-20T09:30:51.000Z</time>
      </trkpt>
      <trkpt lat="37.08988667" lon="-3.38357">
        <ele>2602.0</ele>
        <time>2022-11-20T09:30:52.000Z</time>
      </trkpt>
      <trkpt lat="37.08987833" lon="-3.38357333">
        <ele>2602.0</ele>
        <time>2022-11-20T09:30:53.000Z</time>
      </trkpt>
      <trkpt lat="37.08986833" lon="-3.38357833">
        <ele>2603.0</ele>
        <time>2022-11-20T09:30:54.000Z</time>
      </trkpt>
      <trkpt lat="37.08986" lon="-3.38358">
        <ele>2603.0</ele>
        <time>2022-11-20T09:30:55.000Z</time>
      </trkpt>
      <trkpt lat="37.08985167" lon="-3.383585">
        <ele>2603.0</ele>
        <time>2022-11-20T09:30:56.000Z</time>
      </trkpt>
      <trkpt lat="37.08984167" lon="-3.38358833">
        <ele>2603.0</ele>
        <time>2022-11-20T09:30:57.000Z</time>
      </trkpt>
      <trkpt lat="37.08983333" lon="-3.38359167">
        <ele>2603.0</ele>
        <time>2022-11-20T09:30:58.000Z</time>
      </trkpt>
      <trkpt lat="37.089825" lon="-3.38359667">
        <ele>2603.0</ele>
        <time>2022-11-20T09:30:59.000Z</time>
      </trkpt>
      <trkpt lat="37.089815" lon="-3.38360167">
        <ele>2604.0</ele>
        <time>2022-11-20T09:31:00.000Z</time>
      </trkpt>
      <trkpt lat="37.08980833" lon="-3.383605">
        <ele>2604.0</ele>
        <time>2022-11-20T09:31:01.000Z</time>
      </trkpt>
      <trkpt lat="37.08979833" lon="-3.38360667">
        <ele>2604.0</ele>
        <time>2022-11-20T09:31:02.000Z</time>
      </trkpt>
      <trkpt lat="37.08979" lon="-3.38360833">
        <ele>2604.0</ele>
        <time>2022-11-20T09:31:03.000Z</time>
      </trkpt>
      <trkpt lat="37.08978167" lon="-3.38361">
        <ele>2604.0</ele>
        <time>2022-11-20T09:31:04.000Z</time>
      </trkpt>
      <trkpt lat="37.08977333" lon="-3.38361333">
        <ele>2604.0</ele>
        <time>2022-11-20T09:31:05.000Z</time>
      </trkpt>
      <trkpt lat="37.08976833" lon="-3.383615">
        <ele>2604.0</ele>
        <time>2022-11-20T09:31:06.000Z</time>
      </trkpt>
      <trkpt lat="37.08976" lon="-3.38361833">
        <ele>2604.0</ele>
        <time>2022-11-20T09:31:07.000Z</time>
      </trkpt>
      <trkpt lat="37.08975167" lon="-3.38362167">
        <ele>2604.0</ele>
        <time>2022-11-20T09:31:08.000Z</time>
      </trkpt>
      <trkpt lat="37.089745" lon="-3.38362667">
        <ele>2605.0</ele>
        <time>2022-11-20T09:31:09.000Z</time>
      </trkpt>
      <trkpt lat="37.08973667" lon="-3.38363">
        <ele>2605.0</ele>
        <time>2022-11-20T09:31:10.000Z</time>
      </trkpt>
      <trkpt lat="37.08973" lon="-3.38363333">
        <ele>2605.0</ele>
        <time>2022-11-20T09:31:11.000Z</time>
      </trkpt>
      <trkpt lat="37.08972167" lon="-3.38363667">
        <ele>2605.0</ele>
        <time>2022-11-20T09:31:12.000Z</time>
      </trkpt>
      <trkpt lat="37.08971167" lon="-3.38364">
        <ele>2605.0</ele>
        <time>2022-11-20T09:31:13.000Z</time>
      </trkpt>
      <trkpt lat="37.089705" lon="-3.38364333">
        <ele>2605.0</ele>
        <time>2022-11-20T09:31:14.000Z</time>
      </trkpt>
      <trkpt lat="37.08969833" lon="-3.38364667">
        <ele>2605.0</ele>
        <time>2022-11-20T09:31:15.000Z</time>
      </trkpt>
      <trkpt lat="37.08969" lon="-3.38365167">
        <ele>2605.0</ele>
        <time>2022-11-20T09:31:16.000Z</time>
      </trkpt>
      <trkpt lat="37.08968333" lon="-3.38365667">
        <ele>2606.0</ele>
        <time>2022-11-20T09:31:17.000Z</time>
      </trkpt>
      <trkpt lat="37.089675" lon="-3.38366167">
        <ele>2606.0</ele>
        <time>2022-11-20T09:31:18.000Z</time>
      </trkpt>
      <trkpt lat="37.08966833" lon="-3.38366667">
        <ele>2606.0</ele>
        <time>2022-11-20T09:31:19.000Z</time>
      </trkpt>
      <trkpt lat="37.08966" lon="-3.38367333">
        <ele>2606.0</ele>
        <time>2022-11-20T09:31:20.000Z</time>
      </trkpt>
      <trkpt lat="37.08965167" lon="-3.38367833">
        <ele>2606.0</ele>
        <time>2022-11-20T09:31:21.000Z</time>
      </trkpt>
      <trkpt lat="37.08964333" lon="-3.383685">
        <ele>2606.0</ele>
        <time>2022-11-20T09:31:22.000Z</time>
      </trkpt>
      <trkpt lat="37.089635" lon="-3.38369167">
        <ele>2606.0</ele>
        <time>2022-11-20T09:31:23.000Z</time>
      </trkpt>
      <trkpt lat="37.08962833" lon="-3.38369667">
        <ele>2607.0</ele>
        <time>2022-11-20T09:31:24.000Z</time>
      </trkpt>
      <trkpt lat="37.08962" lon="-3.38370167">
        <ele>2607.0</ele>
        <time>2022-11-20T09:31:25.000Z</time>
      </trkpt>
      <trkpt lat="37.08961" lon="-3.38370667">
        <ele>2607.0</ele>
        <time>2022-11-20T09:31:26.000Z</time>
      </trkpt>
      <trkpt lat="37.08960167" lon="-3.38371167">
        <ele>2607.0</ele>
        <time>2022-11-20T09:31:27.000Z</time>
      </trkpt>
      <trkpt lat="37.08959167" lon="-3.38371667">
        <ele>2607.0</ele>
        <time>2022-11-20T09:31:28.000Z</time>
      </trkpt>
      <trkpt lat="37.08958333" lon="-3.38372">
        <ele>2607.0</ele>
        <time>2022-11-20T09:31:29.000Z</time>
      </trkpt>
      <trkpt lat="37.08957167" lon="-3.38372167">
        <ele>2607.0</ele>
        <time>2022-11-20T09:31:30.000Z</time>
      </trkpt>
      <trkpt lat="37.08956" lon="-3.38372333">
        <ele>2608.0</ele>
        <time>2022-11-20T09:31:31.000Z</time>
      </trkpt>
      <trkpt lat="37.08955167" lon="-3.38372333">
        <ele>2608.0</ele>
        <time>2022-11-20T09:31:32.000Z</time>
      </trkpt>
      <trkpt lat="37.08954167" lon="-3.383725">
        <ele>2608.0</ele>
        <time>2022-11-20T09:31:33.000Z</time>
      </trkpt>
      <trkpt lat="37.08953167" lon="-3.383725">
        <ele>2608.0</ele>
        <time>2022-11-20T09:31:34.000Z</time>
      </trkpt>
      <trkpt lat="37.089525" lon="-3.38372333">
        <ele>2608.0</ele>
        <time>2022-11-20T09:31:35.000Z</time>
      </trkpt>
      <trkpt lat="37.089515" lon="-3.383725">
        <ele>2608.0</ele>
        <time>2022-11-20T09:31:36.000Z</time>
      </trkpt>
      <trkpt lat="37.08950333" lon="-3.383725">
        <ele>2609.0</ele>
        <time>2022-11-20T09:31:37.000Z</time>
      </trkpt>
      <trkpt lat="37.089495" lon="-3.383725">
        <ele>2609.0</ele>
        <time>2022-11-20T09:31:38.000Z</time>
      </trkpt>
      <trkpt lat="37.08948667" lon="-3.38372333">
        <ele>2609.0</ele>
        <time>2022-11-20T09:31:39.000Z</time>
      </trkpt>
      <trkpt lat="37.08947667" lon="-3.38372333">
        <ele>2609.0</ele>
        <time>2022-11-20T09:31:40.000Z</time>
      </trkpt>
      <trkpt lat="37.08946667" lon="-3.38372333">
        <ele>2609.0</ele>
        <time>2022-11-20T09:31:41.000Z</time>
      </trkpt>
      <trkpt lat="37.08945833" lon="-3.38372167">
        <ele>2609.0</ele>
        <time>2022-11-20T09:31:42.000Z</time>
      </trkpt>
      <trkpt lat="37.08945" lon="-3.38372">
        <ele>2609.0</ele>
        <time>2022-11-20T09:31:43.000Z</time>
      </trkpt>
      <trkpt lat="37.08944" lon="-3.38371667">
        <ele>2610.0</ele>
        <time>2022-11-20T09:31:44.000Z</time>
      </trkpt>
      <trkpt lat="37.08943167" lon="-3.38371167">
        <ele>2610.0</ele>
        <time>2022-11-20T09:31:45.000Z</time>
      </trkpt>
      <trkpt lat="37.089425" lon="-3.38370667">
        <ele>2610.0</ele>
        <time>2022-11-20T09:31:46.000Z</time>
      </trkpt>
      <trkpt lat="37.08941833" lon="-3.38369833">
        <ele>2610.0</ele>
        <time>2022-11-20T09:31:47.000Z</time>
      </trkpt>
      <trkpt lat="37.08941333" lon="-3.38369167">
        <ele>2610.0</ele>
        <time>2022-11-20T09:31:48.000Z</time>
      </trkpt>
      <trkpt lat="37.08940833" lon="-3.38368333">
        <ele>2610.0</ele>
        <time>2022-11-20T09:31:49.000Z</time>
      </trkpt>
      <trkpt lat="37.08940667" lon="-3.38367667">
        <ele>2610.0</ele>
        <time>2022-11-20T09:31:50.000Z</time>
      </trkpt>
      <trkpt lat="37.089405" lon="-3.38367">
        <ele>2610.0</ele>
        <time>2022-11-20T09:31:51.000Z</time>
      </trkpt>
      <trkpt lat="37.08940167" lon="-3.383665">
        <ele>2610.0</ele>
        <time>2022-11-20T09:31:52.000Z</time>
      </trkpt>
      <trkpt lat="37.08939833" lon="-3.38366167">
        <ele>2610.0</ele>
        <time>2022-11-20T09:31:53.000Z</time>
      </trkpt>
      <trkpt lat="37.08939" lon="-3.38365667">
        <ele>2611.0</ele>
        <time>2022-11-20T09:31:54.000Z</time>
      </trkpt>
      <trkpt lat="37.089385" lon="-3.38365333">
        <ele>2611.0</ele>
        <time>2022-11-20T09:31:55.000Z</time>
      </trkpt>
      <trkpt lat="37.08938" lon="-3.383645">
        <ele>2611.0</ele>
        <time>2022-11-20T09:31:56.000Z</time>
      </trkpt>
      <trkpt lat="37.089375" lon="-3.38363833">
        <ele>2611.0</ele>
        <time>2022-11-20T09:31:57.000Z</time>
      </trkpt>
      <trkpt lat="37.08937167" lon="-3.383635">
        <ele>2611.0</ele>
        <time>2022-11-20T09:31:58.000Z</time>
      </trkpt>
      <trkpt lat="37.08936833" lon="-3.38362667">
        <ele>2611.0</ele>
        <time>2022-11-20T09:31:59.000Z</time>
      </trkpt>
      <trkpt lat="37.08936333" lon="-3.38362">
        <ele>2611.0</ele>
        <time>2022-11-20T09:32:00.000Z</time>
      </trkpt>
      <trkpt lat="37.08936" lon="-3.38361333">
        <ele>2611.0</ele>
        <time>2022-11-20T09:32:01.000Z</time>
      </trkpt>
      <trkpt lat="37.08935667" lon="-3.38360167">
        <ele>2611.0</ele>
        <time>2022-11-20T09:32:02.000Z</time>
      </trkpt>
      <trkpt lat="37.08935667" lon="-3.38359333">
        <ele>2612.0</ele>
        <time>2022-11-20T09:32:03.000Z</time>
      </trkpt>
      <trkpt lat="37.08935833" lon="-3.38358167">
        <ele>2612.0</ele>
        <time>2022-11-20T09:32:04.000Z</time>
      </trkpt>
      <trkpt lat="37.08936" lon="-3.38357167">
        <ele>2612.0</ele>
        <time>2022-11-20T09:32:05.000Z</time>
      </trkpt>
      <trkpt lat="37.08936333" lon="-3.38356333">
        <ele>2612.0</ele>
        <time>2022-11-20T09:32:06.000Z</time>
      </trkpt>
      <trkpt lat="37.08936833" lon="-3.383555">
        <ele>2612.0</ele>
        <time>2022-11-20T09:32:07.000Z</time>
      </trkpt>
      <trkpt lat="37.08937667" lon="-3.38355">
        <ele>2612.0</ele>
        <time>2022-11-20T09:32:08.000Z</time>
      </trkpt>
      <trkpt lat="37.08938" lon="-3.383545">
        <ele>2613.0</ele>
        <time>2022-11-20T09:32:09.000Z</time>
      </trkpt>
      <trkpt lat="37.089385" lon="-3.38354">
        <ele>2613.0</ele>
        <time>2022-11-20T09:32:10.000Z</time>
      </trkpt>
      <trkpt lat="37.08939" lon="-3.38353333">
        <ele>2613.0</ele>
        <time>2022-11-20T09:32:11.000Z</time>
      </trkpt>
      <trkpt lat="37.08939167" lon="-3.383525">
        <ele>2613.0</ele>
        <time>2022-11-20T09:32:12.000Z</time>
      </trkpt>
      <trkpt lat="37.08939" lon="-3.38351667">
        <ele>2613.0</ele>
        <time>2022-11-20T09:32:13.000Z</time>
      </trkpt>
      <trkpt lat="37.08939167" lon="-3.38351167">
        <ele>2613.0</ele>
        <time>2022-11-20T09:32:14.000Z</time>
      </trkpt>
      <trkpt lat="37.08939167" lon="-3.38351333">
        <ele>2613.0</ele>
        <time>2022-11-20T09:32:15.000Z</time>
      </trkpt>
      <trkpt lat="37.08939167" lon="-3.38351333">
        <ele>2613.0</ele>
        <time>2022-11-20T09:32:16.000Z</time>
      </trkpt>
      <trkpt lat="37.08939167" lon="-3.38351167">
        <ele>2613.0</ele>
        <time>2022-11-20T09:32:17.000Z</time>
      </trkpt>
      <trkpt lat="37.08939167" lon="-3.38351167">
        <ele>2613.0</ele>
        <time>2022-11-20T09:32:18.000Z</time>
      </trkpt>
      <trkpt lat="37.08939333" lon="-3.38351167">
        <ele>2613.0</ele>
        <time>2022-11-20T09:32:19.000Z</time>
      </trkpt>
      <trkpt lat="37.08939333" lon="-3.38351167">
        <ele>2613.0</ele>
        <time>2022-11-20T09:32:20.000Z</time>
      </trkpt>
      <trkpt lat="37.08939" lon="-3.38351333">
        <ele>2613.0</ele>
        <time>2022-11-20T09:32:21.000Z</time>
      </trkpt>
      <trkpt lat="37.08939" lon="-3.38351167">
        <ele>2613.0</ele>
        <time>2022-11-20T09:32:22.000Z</time>
      </trkpt>
      <trkpt lat="37.08939" lon="-3.38351167">
        <ele>2613.0</ele>
        <time>2022-11-20T09:32:23.000Z</time>
      </trkpt>
      <trkpt lat="37.08939" lon="-3.38351167">
        <ele>2613.0</ele>
        <time>2022-11-20T09:32:24.000Z</time>
      </trkpt>
      <trkpt lat="37.08939167" lon="-3.38351167">
        <ele>2613.0</ele>
        <time>2022-11-20T09:32:25.000Z</time>
      </trkpt>
      <trkpt lat="37.08939167" lon="-3.38351333">
        <ele>2613.0</ele>
        <time>2022-11-20T09:32:26.000Z</time>
      </trkpt>
      <trkpt lat="37.08939167" lon="-3.38351333">
        <ele>2613.0</ele>
        <time>2022-11-20T09:32:27.000Z</time>
      </trkpt>
      <trkpt lat="37.08939167" lon="-3.38351333">
        <ele>2613.0</ele>
        <time>2022-11-20T09:32:28.000Z</time>
      </trkpt>
      <trkpt lat="37.08939167" lon="-3.38351333">
        <ele>2613.0</ele>
        <time>2022-11-20T09:32:29.000Z</time>
      </trkpt>
      <trkpt lat="37.08939167" lon="-3.38351333">
        <ele>2613.0</ele>
        <time>2022-11-20T09:32:30.000Z</time>
      </trkpt>
      <trkpt lat="37.08939167" lon="-3.38351333">
        <ele>2613.0</ele>
        <time>2022-11-20T09:32:31.000Z</time>
      </trkpt>
      <trkpt lat="37.08939167" lon="-3.38351333">
        <ele>2613.0</ele>
        <time>2022-11-20T09:32:32.000Z</time>
      </trkpt>
      <trkpt lat="37.08939167" lon="-3.38351333">
        <ele>2613.0</ele>
        <time>2022-11-20T09:32:33.000Z</time>
      </trkpt>
      <trkpt lat="37.08939167" lon="-3.38351333">
        <ele>2613.0</ele>
        <time>2022-11-20T09:32:34.000Z</time>
      </trkpt>
      <trkpt lat="37.08939167" lon="-3.38351167">
        <ele>2613.0</ele>
        <time>2022-11-20T09:32:35.000Z</time>
      </trkpt>
      <trkpt lat="37.08939167" lon="-3.38351167">
        <ele>2613.0</ele>
        <time>2022-11-20T09:32:36.000Z</time>
      </trkpt>
      <trkpt lat="37.08939167" lon="-3.38351167">
        <ele>2613.0</ele>
        <time>2022-11-20T09:32:37.000Z</time>
      </trkpt>
      <trkpt lat="37.08939167" lon="-3.38351167">
        <ele>2613.0</ele>
        <time>2022-11-20T09:32:38.000Z</time>
      </trkpt>
      <trkpt lat="37.08939" lon="-3.38351167">
        <ele>2613.0</ele>
        <time>2022-11-20T09:32:39.000Z</time>
      </trkpt>
      <trkpt lat="37.08938667" lon="-3.38351">
        <ele>2613.0</ele>
        <time>2022-11-20T09:32:40.000Z</time>
      </trkpt>
      <trkpt lat="37.08938" lon="-3.38350833">
        <ele>2613.0</ele>
        <time>2022-11-20T09:32:41.000Z</time>
      </trkpt>
      <trkpt lat="37.089375" lon="-3.38350667">
        <ele>2613.0</ele>
        <time>2022-11-20T09:32:42.000Z</time>
      </trkpt>
      <trkpt lat="37.08936667" lon="-3.383505">
        <ele>2613.0</ele>
        <time>2022-11-20T09:32:43.000Z</time>
      </trkpt>
      <trkpt lat="37.08936" lon="-3.38350167">
        <ele>2613.0</ele>
        <time>2022-11-20T09:32:44.000Z</time>
      </trkpt>
      <trkpt lat="37.08935333" lon="-3.38349167">
        <ele>2613.0</ele>
        <time>2022-11-20T09:32:45.000Z</time>
      </trkpt>
      <trkpt lat="37.08935167" lon="-3.383485">
        <ele>2613.0</ele>
        <time>2022-11-20T09:32:46.000Z</time>
      </trkpt>
      <trkpt lat="37.08934833" lon="-3.38348">
        <ele>2614.0</ele>
        <time>2022-11-20T09:32:47.000Z</time>
      </trkpt>
      <trkpt lat="37.08934167" lon="-3.38347833">
        <ele>2613.0</ele>
        <time>2022-11-20T09:32:48.000Z</time>
      </trkpt>
      <trkpt lat="37.08933333" lon="-3.38347833">
        <ele>2614.0</ele>
        <time>2022-11-20T09:32:49.000Z</time>
      </trkpt>
      <trkpt lat="37.08932167" lon="-3.38347667">
        <ele>2614.0</ele>
        <time>2022-11-20T09:32:50.000Z</time>
      </trkpt>
      <trkpt lat="37.08931333" lon="-3.38347333">
        <ele>2614.0</ele>
        <time>2022-11-20T09:32:51.000Z</time>
      </trkpt>
      <trkpt lat="37.089305" lon="-3.383465">
        <ele>2614.0</ele>
        <time>2022-11-20T09:32:52.000Z</time>
      </trkpt>
      <trkpt lat="37.0893" lon="-3.38345833">
        <ele>2614.0</ele>
        <time>2022-11-20T09:32:53.000Z</time>
      </trkpt>
      <trkpt lat="37.0893" lon="-3.38345833">
        <ele>2614.0</ele>
        <time>2022-11-20T09:32:54.000Z</time>
      </trkpt>
      <trkpt lat="37.0893" lon="-3.38345833">
        <ele>2614.0</ele>
        <time>2022-11-20T09:32:55.000Z</time>
      </trkpt>
      <trkpt lat="37.08929833" lon="-3.38345833">
        <ele>2614.0</ele>
        <time>2022-11-20T09:32:56.000Z</time>
      </trkpt>
      <trkpt lat="37.08929833" lon="-3.38345833">
        <ele>2614.0</ele>
        <time>2022-11-20T09:32:57.000Z</time>
      </trkpt>
      <trkpt lat="37.08929833" lon="-3.38346">
        <ele>2614.0</ele>
        <time>2022-11-20T09:32:58.000Z</time>
      </trkpt>
      <trkpt lat="37.08929833" lon="-3.38346">
        <ele>2614.0</ele>
        <time>2022-11-20T09:32:59.000Z</time>
      </trkpt>
      <trkpt lat="37.08929833" lon="-3.38346">
        <ele>2614.0</ele>
        <time>2022-11-20T09:33:00.000Z</time>
      </trkpt>
      <trkpt lat="37.08929833" lon="-3.38346">
        <ele>2614.0</ele>
        <time>2022-11-20T09:33:01.000Z</time>
      </trkpt>
      <trkpt lat="37.08929833" lon="-3.38346167">
        <ele>2614.0</ele>
        <time>2022-11-20T09:33:02.000Z</time>
      </trkpt>
      <trkpt lat="37.08929667" lon="-3.38346167">
        <ele>2614.0</ele>
        <time>2022-11-20T09:33:03.000Z</time>
      </trkpt>
      <trkpt lat="37.08929667" lon="-3.38346167">
        <ele>2614.0</ele>
        <time>2022-11-20T09:33:04.000Z</time>
      </trkpt>
      <trkpt lat="37.08929667" lon="-3.38346167">
        <ele>2614.0</ele>
        <time>2022-11-20T09:33:05.000Z</time>
      </trkpt>
      <trkpt lat="37.0893" lon="-3.383465">
        <ele>2614.0</ele>
        <time>2022-11-20T09:33:06.000Z</time>
      </trkpt>
      <trkpt lat="37.08930333" lon="-3.38346833">
        <ele>2614.0</ele>
        <time>2022-11-20T09:33:07.000Z</time>
      </trkpt>
      <trkpt lat="37.089305" lon="-3.38347167">
        <ele>2614.0</ele>
        <time>2022-11-20T09:33:08.000Z</time>
      </trkpt>
      <trkpt lat="37.08930667" lon="-3.38347667">
        <ele>2614.0</ele>
        <time>2022-11-20T09:33:09.000Z</time>
      </trkpt>
      <trkpt lat="37.08931" lon="-3.38347667">
        <ele>2614.0</ele>
        <time>2022-11-20T09:33:10.000Z</time>
      </trkpt>
      <trkpt lat="37.08931167" lon="-3.383475">
        <ele>2614.0</ele>
        <time>2022-11-20T09:33:11.000Z</time>
      </trkpt>
      <trkpt lat="37.08931" lon="-3.38347667">
        <ele>2614.0</ele>
        <time>2022-11-20T09:33:12.000Z</time>
      </trkpt>
      <trkpt lat="37.08930833" lon="-3.38348">
        <ele>2614.0</ele>
        <time>2022-11-20T09:33:13.000Z</time>
      </trkpt>
      <trkpt lat="37.089305" lon="-3.38348333">
        <ele>2614.0</ele>
        <time>2022-11-20T09:33:14.000Z</time>
      </trkpt>
      <trkpt lat="37.089305" lon="-3.38348333">
        <ele>2614.0</ele>
        <time>2022-11-20T09:33:15.000Z</time>
      </trkpt>
      <trkpt lat="37.089305" lon="-3.38348333">
        <ele>2614.0</ele>
        <time>2022-11-20T09:33:16.000Z</time>
      </trkpt>
      <trkpt lat="37.08930167" lon="-3.38348333">
        <ele>2614.0</ele>
        <time>2022-11-20T09:33:17.000Z</time>
      </trkpt>
      <trkpt lat="37.089295" lon="-3.38348333">
        <ele>2614.0</ele>
        <time>2022-11-20T09:33:18.000Z</time>
      </trkpt>
      <trkpt lat="37.08928667" lon="-3.38348333">
        <ele>2614.0</ele>
        <time>2022-11-20T09:33:19.000Z</time>
      </trkpt>
      <trkpt lat="37.08928" lon="-3.38348167">
        <ele>2614.0</ele>
        <time>2022-11-20T09:33:20.000Z</time>
      </trkpt>
      <trkpt lat="37.089275" lon="-3.38348">
        <ele>2614.0</ele>
        <time>2022-11-20T09:33:21.000Z</time>
      </trkpt>
      <trkpt lat="37.08927" lon="-3.38347667">
        <ele>2614.0</ele>
        <time>2022-11-20T09:33:22.000Z</time>
      </trkpt>
      <trkpt lat="37.089265" lon="-3.38347167">
        <ele>2614.0</ele>
        <time>2022-11-20T09:33:23.000Z</time>
      </trkpt>
      <trkpt lat="37.08925667" lon="-3.38347">
        <ele>2614.0</ele>
        <time>2022-11-20T09:33:24.000Z</time>
      </trkpt>
      <trkpt lat="37.08924833" lon="-3.383465">
        <ele>2614.0</ele>
        <time>2022-11-20T09:33:25.000Z</time>
      </trkpt>
      <trkpt lat="37.08923833" lon="-3.38346">
        <ele>2614.0</ele>
        <time>2022-11-20T09:33:26.000Z</time>
      </trkpt>
      <trkpt lat="37.08922833" lon="-3.38345333">
        <ele>2614.0</ele>
        <time>2022-11-20T09:33:27.000Z</time>
      </trkpt>
      <trkpt lat="37.08922167" lon="-3.38344833">
        <ele>2614.0</ele>
        <time>2022-11-20T09:33:28.000Z</time>
      </trkpt>
      <trkpt lat="37.08921833" lon="-3.38344667">
        <ele>2614.0</ele>
        <time>2022-11-20T09:33:29.000Z</time>
      </trkpt>
      <trkpt lat="37.08921833" lon="-3.383445">
        <ele>2614.0</ele>
        <time>2022-11-20T09:33:30.000Z</time>
      </trkpt>
      <trkpt lat="37.08921667" lon="-3.38344667">
        <ele>2614.0</ele>
        <time>2022-11-20T09:33:31.000Z</time>
      </trkpt>
      <trkpt lat="37.08921667" lon="-3.38344667">
        <ele>2614.0</ele>
        <time>2022-11-20T09:33:32.000Z</time>
      </trkpt>
      <trkpt lat="37.08921333" lon="-3.38344167">
        <ele>2614.0</ele>
        <time>2022-11-20T09:33:33.000Z</time>
      </trkpt>
      <trkpt lat="37.08920833" lon="-3.38344167">
        <ele>2614.0</ele>
        <time>2022-11-20T09:33:34.000Z</time>
      </trkpt>
      <trkpt lat="37.08920167" lon="-3.38344">
        <ele>2615.0</ele>
        <time>2022-11-20T09:33:35.000Z</time>
      </trkpt>
      <trkpt lat="37.089195" lon="-3.38343833">
        <ele>2615.0</ele>
        <time>2022-11-20T09:33:36.000Z</time>
      </trkpt>
      <trkpt lat="37.08918833" lon="-3.38343333">
        <ele>2615.0</ele>
        <time>2022-11-20T09:33:37.000Z</time>
      </trkpt>
      <trkpt lat="37.08918167" lon="-3.38343">
        <ele>2615.0</ele>
        <time>2022-11-20T09:33:38.000Z</time>
      </trkpt>
      <trkpt lat="37.08917667" lon="-3.38342667">
        <ele>2615.0</ele>
        <time>2022-11-20T09:33:39.000Z</time>
      </trkpt>
      <trkpt lat="37.08917" lon="-3.38342333">
        <ele>2615.0</ele>
        <time>2022-11-20T09:33:40.000Z</time>
      </trkpt>
      <trkpt lat="37.089165" lon="-3.38342167">
        <ele>2615.0</ele>
        <time>2022-11-20T09:33:41.000Z</time>
      </trkpt>
      <trkpt lat="37.08916" lon="-3.38342167">
        <ele>2615.0</ele>
        <time>2022-11-20T09:33:42.000Z</time>
      </trkpt>
      <trkpt lat="37.08915667" lon="-3.38341833">
        <ele>2615.0</ele>
        <time>2022-11-20T09:33:43.000Z</time>
      </trkpt>
      <trkpt lat="37.08915167" lon="-3.38341667">
        <ele>2615.0</ele>
        <time>2022-11-20T09:33:44.000Z</time>
      </trkpt>
      <trkpt lat="37.08914833" lon="-3.38341333">
        <ele>2615.0</ele>
        <time>2022-11-20T09:33:45.000Z</time>
      </trkpt>
      <trkpt lat="37.089145" lon="-3.38341">
        <ele>2615.0</ele>
        <time>2022-11-20T09:33:46.000Z</time>
      </trkpt>
      <trkpt lat="37.08914" lon="-3.38340833">
        <ele>2615.0</ele>
        <time>2022-11-20T09:33:47.000Z</time>
      </trkpt>
      <trkpt lat="37.08913667" lon="-3.38340333">
        <ele>2615.0</ele>
        <time>2022-11-20T09:33:48.000Z</time>
      </trkpt>
      <trkpt lat="37.08913167" lon="-3.38340333">
        <ele>2615.0</ele>
        <time>2022-11-20T09:33:49.000Z</time>
      </trkpt>
      <trkpt lat="37.08912667" lon="-3.38340333">
        <ele>2615.0</ele>
        <time>2022-11-20T09:33:50.000Z</time>
      </trkpt>
      <trkpt lat="37.08912" lon="-3.38340333">
        <ele>2615.0</ele>
        <time>2022-11-20T09:33:51.000Z</time>
      </trkpt>
      <trkpt lat="37.08911333" lon="-3.38340333">
        <ele>2616.0</ele>
        <time>2022-11-20T09:33:52.000Z</time>
      </trkpt>
      <trkpt lat="37.08910667" lon="-3.3834">
        <ele>2616.0</ele>
        <time>2022-11-20T09:33:53.000Z</time>
      </trkpt>
      <trkpt lat="37.0891" lon="-3.383395">
        <ele>2616.0</ele>
        <time>2022-11-20T09:33:54.000Z</time>
      </trkpt>
      <trkpt lat="37.08909167" lon="-3.38338667">
        <ele>2616.0</ele>
        <time>2022-11-20T09:33:55.000Z</time>
      </trkpt>
      <trkpt lat="37.08908333" lon="-3.38338">
        <ele>2616.0</ele>
        <time>2022-11-20T09:33:56.000Z</time>
      </trkpt>
      <trkpt lat="37.089075" lon="-3.383375">
        <ele>2616.0</ele>
        <time>2022-11-20T09:33:57.000Z</time>
      </trkpt>
      <trkpt lat="37.089065" lon="-3.38337333">
        <ele>2616.0</ele>
        <time>2022-11-20T09:33:58.000Z</time>
      </trkpt>
      <trkpt lat="37.08905667" lon="-3.38337">
        <ele>2616.0</ele>
        <time>2022-11-20T09:33:59.000Z</time>
      </trkpt>
      <trkpt lat="37.08904667" lon="-3.38336667">
        <ele>2616.0</ele>
        <time>2022-11-20T09:34:00.000Z</time>
      </trkpt>
      <trkpt lat="37.08903833" lon="-3.38336333">
        <ele>2616.0</ele>
        <time>2022-11-20T09:34:01.000Z</time>
      </trkpt>
      <trkpt lat="37.08902833" lon="-3.38335833">
        <ele>2616.0</ele>
        <time>2022-11-20T09:34:02.000Z</time>
      </trkpt>
      <trkpt lat="37.08901833" lon="-3.383355">
        <ele>2616.0</ele>
        <time>2022-11-20T09:34:03.000Z</time>
      </trkpt>
      <trkpt lat="37.08901" lon="-3.38335167">
        <ele>2616.0</ele>
        <time>2022-11-20T09:34:04.000Z</time>
      </trkpt>
      <trkpt lat="37.089" lon="-3.38334667">
        <ele>2616.0</ele>
        <time>2022-11-20T09:34:05.000Z</time>
      </trkpt>
      <trkpt lat="37.08899333" lon="-3.38334333">
        <ele>2616.0</ele>
        <time>2022-11-20T09:34:06.000Z</time>
      </trkpt>
      <trkpt lat="37.08898333" lon="-3.38333667">
        <ele>2616.0</ele>
        <time>2022-11-20T09:34:07.000Z</time>
      </trkpt>
      <trkpt lat="37.08897667" lon="-3.38333167">
        <ele>2617.0</ele>
        <time>2022-11-20T09:34:08.000Z</time>
      </trkpt>
      <trkpt lat="37.08896833" lon="-3.38332667">
        <ele>2617.0</ele>
        <time>2022-11-20T09:34:09.000Z</time>
      </trkpt>
      <trkpt lat="37.08896" lon="-3.38332167">
        <ele>2617.0</ele>
        <time>2022-11-20T09:34:10.000Z</time>
      </trkpt>
      <trkpt lat="37.08895" lon="-3.383315">
        <ele>2617.0</ele>
        <time>2022-11-20T09:34:11.000Z</time>
      </trkpt>
      <trkpt lat="37.08894167" lon="-3.38331167">
        <ele>2617.0</ele>
        <time>2022-11-20T09:34:12.000Z</time>
      </trkpt>
      <trkpt lat="37.08893" lon="-3.38330667">
        <ele>2617.0</ele>
        <time>2022-11-20T09:34:13.000Z</time>
      </trkpt>
      <trkpt lat="37.08892" lon="-3.38330333">
        <ele>2617.0</ele>
        <time>2022-11-20T09:34:14.000Z</time>
      </trkpt>
      <trkpt lat="37.08891" lon="-3.3833">
        <ele>2617.0</ele>
        <time>2022-11-20T09:34:15.000Z</time>
      </trkpt>
      <trkpt lat="37.0889" lon="-3.38329667">
        <ele>2617.0</ele>
        <time>2022-11-20T09:34:16.000Z</time>
      </trkpt>
      <trkpt lat="37.08889" lon="-3.38329667">
        <ele>2617.0</ele>
        <time>2022-11-20T09:34:17.000Z</time>
      </trkpt>
      <trkpt lat="37.08888" lon="-3.38329333">
        <ele>2618.0</ele>
        <time>2022-11-20T09:34:18.000Z</time>
      </trkpt>
      <trkpt lat="37.08887167" lon="-3.38328833">
        <ele>2618.0</ele>
        <time>2022-11-20T09:34:19.000Z</time>
      </trkpt>
      <trkpt lat="37.08886" lon="-3.38328333">
        <ele>2618.0</ele>
        <time>2022-11-20T09:34:20.000Z</time>
      </trkpt>
      <trkpt lat="37.08885" lon="-3.38327667">
        <ele>2618.0</ele>
        <time>2022-11-20T09:34:21.000Z</time>
      </trkpt>
      <trkpt lat="37.08884167" lon="-3.38327333">
        <ele>2618.0</ele>
        <time>2022-11-20T09:34:22.000Z</time>
      </trkpt>
      <trkpt lat="37.08883167" lon="-3.38326667">
        <ele>2618.0</ele>
        <time>2022-11-20T09:34:23.000Z</time>
      </trkpt>
      <trkpt lat="37.08882333" lon="-3.38326167">
        <ele>2618.0</ele>
        <time>2022-11-20T09:34:24.000Z</time>
      </trkpt>
      <trkpt lat="37.08881667" lon="-3.38325667">
        <ele>2618.0</ele>
        <time>2022-11-20T09:34:25.000Z</time>
      </trkpt>
      <trkpt lat="37.08880833" lon="-3.38325">
        <ele>2618.0</ele>
        <time>2022-11-20T09:34:26.000Z</time>
      </trkpt>
      <trkpt lat="37.08879833" lon="-3.383245">
        <ele>2618.0</ele>
        <time>2022-11-20T09:34:27.000Z</time>
      </trkpt>
      <trkpt lat="37.08879" lon="-3.38323833">
        <ele>2618.0</ele>
        <time>2022-11-20T09:34:28.000Z</time>
      </trkpt>
      <trkpt lat="37.08878167" lon="-3.38323">
        <ele>2618.0</ele>
        <time>2022-11-20T09:34:29.000Z</time>
      </trkpt>
      <trkpt lat="37.088775" lon="-3.38322333">
        <ele>2618.0</ele>
        <time>2022-11-20T09:34:30.000Z</time>
      </trkpt>
      <trkpt lat="37.08876667" lon="-3.38321667">
        <ele>2619.0</ele>
        <time>2022-11-20T09:34:31.000Z</time>
      </trkpt>
      <trkpt lat="37.08875833" lon="-3.38321167">
        <ele>2618.0</ele>
        <time>2022-11-20T09:34:32.000Z</time>
      </trkpt>
      <trkpt lat="37.08874833" lon="-3.383205">
        <ele>2619.0</ele>
        <time>2022-11-20T09:34:33.000Z</time>
      </trkpt>
      <trkpt lat="37.08874" lon="-3.38319833">
        <ele>2619.0</ele>
        <time>2022-11-20T09:34:34.000Z</time>
      </trkpt>
      <trkpt lat="37.08873" lon="-3.38319167">
        <ele>2619.0</ele>
        <time>2022-11-20T09:34:35.000Z</time>
      </trkpt>
      <trkpt lat="37.08872333" lon="-3.383185">
        <ele>2619.0</ele>
        <time>2022-11-20T09:34:36.000Z</time>
      </trkpt>
      <trkpt lat="37.088715" lon="-3.38317667">
        <ele>2619.0</ele>
        <time>2022-11-20T09:34:37.000Z</time>
      </trkpt>
      <trkpt lat="37.08870667" lon="-3.38316667">
        <ele>2619.0</ele>
        <time>2022-11-20T09:34:38.000Z</time>
      </trkpt>
      <trkpt lat="37.08869667" lon="-3.38316">
        <ele>2619.0</ele>
        <time>2022-11-20T09:34:39.000Z</time>
      </trkpt>
      <trkpt lat="37.08868667" lon="-3.38315333">
        <ele>2619.0</ele>
        <time>2022-11-20T09:34:40.000Z</time>
      </trkpt>
      <trkpt lat="37.08867667" lon="-3.38315167">
        <ele>2619.0</ele>
        <time>2022-11-20T09:34:41.000Z</time>
      </trkpt>
      <trkpt lat="37.08866333" lon="-3.38315167">
        <ele>2619.0</ele>
        <time>2022-11-20T09:34:42.000Z</time>
      </trkpt>
      <trkpt lat="37.08864833" lon="-3.38315167">
        <ele>2618.0</ele>
        <time>2022-11-20T09:34:43.000Z</time>
      </trkpt>
      <trkpt lat="37.08863667" lon="-3.38315167">
        <ele>2618.0</ele>
        <time>2022-11-20T09:34:44.000Z</time>
      </trkpt>
      <trkpt lat="37.08862167" lon="-3.383155">
        <ele>2618.0</ele>
        <time>2022-11-20T09:34:45.000Z</time>
      </trkpt>
      <trkpt lat="37.08861" lon="-3.38315667">
        <ele>2618.0</ele>
        <time>2022-11-20T09:34:46.000Z</time>
      </trkpt>
      <trkpt lat="37.088595" lon="-3.383155">
        <ele>2618.0</ele>
        <time>2022-11-20T09:34:47.000Z</time>
      </trkpt>
      <trkpt lat="37.08858167" lon="-3.38315333">
        <ele>2618.0</ele>
        <time>2022-11-20T09:34:48.000Z</time>
      </trkpt>
      <trkpt lat="37.088565" lon="-3.38315167">
        <ele>2618.0</ele>
        <time>2022-11-20T09:34:49.000Z</time>
      </trkpt>
      <trkpt lat="37.08855333" lon="-3.38315">
        <ele>2618.0</ele>
        <time>2022-11-20T09:34:50.000Z</time>
      </trkpt>
      <trkpt lat="37.08854" lon="-3.383145">
        <ele>2618.0</ele>
        <time>2022-11-20T09:34:51.000Z</time>
      </trkpt>
      <trkpt lat="37.08852833" lon="-3.38314167">
        <ele>2618.0</ele>
        <time>2022-11-20T09:34:52.000Z</time>
      </trkpt>
      <trkpt lat="37.08851167" lon="-3.38314">
        <ele>2618.0</ele>
        <time>2022-11-20T09:34:53.000Z</time>
      </trkpt>
      <trkpt lat="37.08850167" lon="-3.38313667">
        <ele>2618.0</ele>
        <time>2022-11-20T09:34:54.000Z</time>
      </trkpt>
      <trkpt lat="37.08849333" lon="-3.383135">
        <ele>2618.0</ele>
        <time>2022-11-20T09:34:55.000Z</time>
      </trkpt>
      <trkpt lat="37.08848833" lon="-3.38313667">
        <ele>2618.0</ele>
        <time>2022-11-20T09:34:56.000Z</time>
      </trkpt>
      <trkpt lat="37.088475" lon="-3.38313333">
        <ele>2618.0</ele>
        <time>2022-11-20T09:34:57.000Z</time>
      </trkpt>
      <trkpt lat="37.08846333" lon="-3.38313">
        <ele>2618.0</ele>
        <time>2022-11-20T09:34:58.000Z</time>
      </trkpt>
      <trkpt lat="37.08845167" lon="-3.383125">
        <ele>2618.0</ele>
        <time>2022-11-20T09:34:59.000Z</time>
      </trkpt>
      <trkpt lat="37.08844167" lon="-3.38312167">
        <ele>2618.0</ele>
        <time>2022-11-20T09:35:00.000Z</time>
      </trkpt>
      <trkpt lat="37.08843" lon="-3.38311833">
        <ele>2618.0</ele>
        <time>2022-11-20T09:35:01.000Z</time>
      </trkpt>
      <trkpt lat="37.08841833" lon="-3.38311333">
        <ele>2618.0</ele>
        <time>2022-11-20T09:35:02.000Z</time>
      </trkpt>
      <trkpt lat="37.08840833" lon="-3.38310833">
        <ele>2618.0</ele>
        <time>2022-11-20T09:35:03.000Z</time>
      </trkpt>
      <trkpt lat="37.08839833" lon="-3.383105">
        <ele>2618.0</ele>
        <time>2022-11-20T09:35:04.000Z</time>
      </trkpt>
      <trkpt lat="37.08838667" lon="-3.38310167">
        <ele>2618.0</ele>
        <time>2022-11-20T09:35:05.000Z</time>
      </trkpt>
      <trkpt lat="37.08837667" lon="-3.38309667">
        <ele>2618.0</ele>
        <time>2022-11-20T09:35:06.000Z</time>
      </trkpt>
      <trkpt lat="37.08837" lon="-3.38309333">
        <ele>2618.0</ele>
        <time>2022-11-20T09:35:07.000Z</time>
      </trkpt>
      <trkpt lat="37.08836" lon="-3.38309">
        <ele>2618.0</ele>
        <time>2022-11-20T09:35:08.000Z</time>
      </trkpt>
      <trkpt lat="37.08835" lon="-3.383085">
        <ele>2618.0</ele>
        <time>2022-11-20T09:35:09.000Z</time>
      </trkpt>
      <trkpt lat="37.08834" lon="-3.38308167">
        <ele>2618.0</ele>
        <time>2022-11-20T09:35:10.000Z</time>
      </trkpt>
      <trkpt lat="37.08833" lon="-3.38307667">
        <ele>2618.0</ele>
        <time>2022-11-20T09:35:11.000Z</time>
      </trkpt>
      <trkpt lat="37.08832" lon="-3.38307333">
        <ele>2618.0</ele>
        <time>2022-11-20T09:35:12.000Z</time>
      </trkpt>
      <trkpt lat="37.08831" lon="-3.38307">
        <ele>2618.0</ele>
        <time>2022-11-20T09:35:13.000Z</time>
      </trkpt>
      <trkpt lat="37.08830167" lon="-3.38306667">
        <ele>2618.0</ele>
        <time>2022-11-20T09:35:14.000Z</time>
      </trkpt>
      <trkpt lat="37.08829" lon="-3.38306333">
        <ele>2618.0</ele>
        <time>2022-11-20T09:35:15.000Z</time>
      </trkpt>
      <trkpt lat="37.08828" lon="-3.38306">
        <ele>2618.0</ele>
        <time>2022-11-20T09:35:16.000Z</time>
      </trkpt>
      <trkpt lat="37.08827" lon="-3.38305667">
        <ele>2618.0</ele>
        <time>2022-11-20T09:35:17.000Z</time>
      </trkpt>
      <trkpt lat="37.08826167" lon="-3.383055">
        <ele>2619.0</ele>
        <time>2022-11-20T09:35:18.000Z</time>
      </trkpt>
      <trkpt lat="37.08825333" lon="-3.38305167">
        <ele>2619.0</ele>
        <time>2022-11-20T09:35:19.000Z</time>
      </trkpt>
      <trkpt lat="37.08824167" lon="-3.38304833">
        <ele>2619.0</ele>
        <time>2022-11-20T09:35:20.000Z</time>
      </trkpt>
      <trkpt lat="37.08823333" lon="-3.383045">
        <ele>2619.0</ele>
        <time>2022-11-20T09:35:21.000Z</time>
      </trkpt>
      <trkpt lat="37.08822167" lon="-3.38304333">
        <ele>2619.0</ele>
        <time>2022-11-20T09:35:22.000Z</time>
      </trkpt>
      <trkpt lat="37.08821167" lon="-3.38303667">
        <ele>2619.0</ele>
        <time>2022-11-20T09:35:23.000Z</time>
      </trkpt>
      <trkpt lat="37.088205" lon="-3.38303167">
        <ele>2619.0</ele>
        <time>2022-11-20T09:35:24.000Z</time>
      </trkpt>
      <trkpt lat="37.08819667" lon="-3.383025">
        <ele>2619.0</ele>
        <time>2022-11-20T09:35:25.000Z</time>
      </trkpt>
      <trkpt lat="37.08818833" lon="-3.38301833">
        <ele>2619.0</ele>
        <time>2022-11-20T09:35:26.000Z</time>
      </trkpt>
      <trkpt lat="37.08817833" lon="-3.38301333">
        <ele>2619.0</ele>
        <time>2022-11-20T09:35:27.000Z</time>
      </trkpt>
      <trkpt lat="37.08816833" lon="-3.38300667">
        <ele>2619.0</ele>
        <time>2022-11-20T09:35:28.000Z</time>
      </trkpt>
      <trkpt lat="37.08816" lon="-3.383">
        <ele>2619.0</ele>
        <time>2022-11-20T09:35:29.000Z</time>
      </trkpt>
      <trkpt lat="37.08815" lon="-3.38299667">
        <ele>2619.0</ele>
        <time>2022-11-20T09:35:30.000Z</time>
      </trkpt>
      <trkpt lat="37.08814167" lon="-3.382995">
        <ele>2619.0</ele>
        <time>2022-11-20T09:35:31.000Z</time>
      </trkpt>
      <trkpt lat="37.08813" lon="-3.38299">
        <ele>2619.0</ele>
        <time>2022-11-20T09:35:32.000Z</time>
      </trkpt>
      <trkpt lat="37.08812167" lon="-3.38298667">
        <ele>2619.0</ele>
        <time>2022-11-20T09:35:33.000Z</time>
      </trkpt>
      <trkpt lat="37.08811" lon="-3.38298167">
        <ele>2619.0</ele>
        <time>2022-11-20T09:35:34.000Z</time>
      </trkpt>
      <trkpt lat="37.0881" lon="-3.38297667">
        <ele>2619.0</ele>
        <time>2022-11-20T09:35:35.000Z</time>
      </trkpt>
      <trkpt lat="37.08809167" lon="-3.38297167">
        <ele>2619.0</ele>
        <time>2022-11-20T09:35:36.000Z</time>
      </trkpt>
      <trkpt lat="37.08808333" lon="-3.38296667">
        <ele>2619.0</ele>
        <time>2022-11-20T09:35:37.000Z</time>
      </trkpt>
      <trkpt lat="37.088075" lon="-3.38296667">
        <ele>2619.0</ele>
        <time>2022-11-20T09:35:38.000Z</time>
      </trkpt>
      <trkpt lat="37.08806333" lon="-3.38296667">
        <ele>2619.0</ele>
        <time>2022-11-20T09:35:39.000Z</time>
      </trkpt>
      <trkpt lat="37.08805333" lon="-3.38296667">
        <ele>2620.0</ele>
        <time>2022-11-20T09:35:40.000Z</time>
      </trkpt>
      <trkpt lat="37.088045" lon="-3.382965">
        <ele>2620.0</ele>
        <time>2022-11-20T09:35:41.000Z</time>
      </trkpt>
      <trkpt lat="37.088035" lon="-3.38296167">
        <ele>2620.0</ele>
        <time>2022-11-20T09:35:42.000Z</time>
      </trkpt>
      <trkpt lat="37.08802833" lon="-3.38295667">
        <ele>2620.0</ele>
        <time>2022-11-20T09:35:43.000Z</time>
      </trkpt>
      <trkpt lat="37.08801833" lon="-3.38295333">
        <ele>2620.0</ele>
        <time>2022-11-20T09:35:44.000Z</time>
      </trkpt>
      <trkpt lat="37.08801" lon="-3.38295167">
        <ele>2620.0</ele>
        <time>2022-11-20T09:35:45.000Z</time>
      </trkpt>
      <trkpt lat="37.088" lon="-3.38295167">
        <ele>2620.0</ele>
        <time>2022-11-20T09:35:46.000Z</time>
      </trkpt>
      <trkpt lat="37.08799167" lon="-3.38294833">
        <ele>2620.0</ele>
        <time>2022-11-20T09:35:47.000Z</time>
      </trkpt>
      <trkpt lat="37.08798333" lon="-3.38294667">
        <ele>2620.0</ele>
        <time>2022-11-20T09:35:48.000Z</time>
      </trkpt>
      <trkpt lat="37.08797333" lon="-3.38294167">
        <ele>2620.0</ele>
        <time>2022-11-20T09:35:49.000Z</time>
      </trkpt>
      <trkpt lat="37.087965" lon="-3.38293667">
        <ele>2621.0</ele>
        <time>2022-11-20T09:35:50.000Z</time>
      </trkpt>
      <trkpt lat="37.08795833" lon="-3.38293167">
        <ele>2621.0</ele>
        <time>2022-11-20T09:35:51.000Z</time>
      </trkpt>
      <trkpt lat="37.08795333" lon="-3.382925">
        <ele>2621.0</ele>
        <time>2022-11-20T09:35:52.000Z</time>
      </trkpt>
      <trkpt lat="37.08794667" lon="-3.38292">
        <ele>2621.0</ele>
        <time>2022-11-20T09:35:53.000Z</time>
      </trkpt>
      <trkpt lat="37.08793833" lon="-3.38291667">
        <ele>2621.0</ele>
        <time>2022-11-20T09:35:54.000Z</time>
      </trkpt>
      <trkpt lat="37.08793167" lon="-3.38291167">
        <ele>2621.0</ele>
        <time>2022-11-20T09:35:55.000Z</time>
      </trkpt>
      <trkpt lat="37.08792667" lon="-3.38291167">
        <ele>2621.0</ele>
        <time>2022-11-20T09:35:56.000Z</time>
      </trkpt>
      <trkpt lat="37.08791667" lon="-3.38291">
        <ele>2621.0</ele>
        <time>2022-11-20T09:35:57.000Z</time>
      </trkpt>
      <trkpt lat="37.08790833" lon="-3.38290667">
        <ele>2622.0</ele>
        <time>2022-11-20T09:35:58.000Z</time>
      </trkpt>
      <trkpt lat="37.08790333" lon="-3.38290167">
        <ele>2622.0</ele>
        <time>2022-11-20T09:35:59.000Z</time>
      </trkpt>
      <trkpt lat="37.08789667" lon="-3.382895">
        <ele>2622.0</ele>
        <time>2022-11-20T09:36:00.000Z</time>
      </trkpt>
      <trkpt lat="37.08789" lon="-3.38289167">
        <ele>2622.0</ele>
        <time>2022-11-20T09:36:01.000Z</time>
      </trkpt>
      <trkpt lat="37.08788167" lon="-3.38288833">
        <ele>2622.0</ele>
        <time>2022-11-20T09:36:02.000Z</time>
      </trkpt>
      <trkpt lat="37.087875" lon="-3.38288333">
        <ele>2622.0</ele>
        <time>2022-11-20T09:36:03.000Z</time>
      </trkpt>
      <trkpt lat="37.08786833" lon="-3.38287833">
        <ele>2622.0</ele>
        <time>2022-11-20T09:36:04.000Z</time>
      </trkpt>
      <trkpt lat="37.08786167" lon="-3.38287833">
        <ele>2623.0</ele>
        <time>2022-11-20T09:36:05.000Z</time>
      </trkpt>
      <trkpt lat="37.08785167" lon="-3.38288">
        <ele>2623.0</ele>
        <time>2022-11-20T09:36:06.000Z</time>
      </trkpt>
      <trkpt lat="37.08784167" lon="-3.38288">
        <ele>2623.0</ele>
        <time>2022-11-20T09:36:07.000Z</time>
      </trkpt>
      <trkpt lat="37.08783" lon="-3.38288">
        <ele>2623.0</ele>
        <time>2022-11-20T09:36:08.000Z</time>
      </trkpt>
      <trkpt lat="37.08782" lon="-3.38287833">
        <ele>2623.0</ele>
        <time>2022-11-20T09:36:09.000Z</time>
      </trkpt>
      <trkpt lat="37.08780833" lon="-3.382875">
        <ele>2623.0</ele>
        <time>2022-11-20T09:36:10.000Z</time>
      </trkpt>
      <trkpt lat="37.08779833" lon="-3.38287333">
        <ele>2623.0</ele>
        <time>2022-11-20T09:36:11.000Z</time>
      </trkpt>
      <trkpt lat="37.08778833" lon="-3.38287167">
        <ele>2623.0</ele>
        <time>2022-11-20T09:36:12.000Z</time>
      </trkpt>
      <trkpt lat="37.08777667" lon="-3.38287">
        <ele>2623.0</ele>
        <time>2022-11-20T09:36:13.000Z</time>
      </trkpt>
      <trkpt lat="37.08776667" lon="-3.38287">
        <ele>2623.0</ele>
        <time>2022-11-20T09:36:14.000Z</time>
      </trkpt>
      <trkpt lat="37.08775667" lon="-3.38287">
        <ele>2623.0</ele>
        <time>2022-11-20T09:36:15.000Z</time>
      </trkpt>
      <trkpt lat="37.08774667" lon="-3.38287">
        <ele>2623.0</ele>
        <time>2022-11-20T09:36:16.000Z</time>
      </trkpt>
      <trkpt lat="37.08773333" lon="-3.38287167">
        <ele>2623.0</ele>
        <time>2022-11-20T09:36:17.000Z</time>
      </trkpt>
      <trkpt lat="37.08772333" lon="-3.38287167">
        <ele>2623.0</ele>
        <time>2022-11-20T09:36:18.000Z</time>
      </trkpt>
      <trkpt lat="37.08771" lon="-3.38287167">
        <ele>2623.0</ele>
        <time>2022-11-20T09:36:19.000Z</time>
      </trkpt>
      <trkpt lat="37.08769833" lon="-3.38287167">
        <ele>2623.0</ele>
        <time>2022-11-20T09:36:20.000Z</time>
      </trkpt>
      <trkpt lat="37.08768833" lon="-3.38287">
        <ele>2624.0</ele>
        <time>2022-11-20T09:36:21.000Z</time>
      </trkpt>
      <trkpt lat="37.08767833" lon="-3.38286833">
        <ele>2624.0</ele>
        <time>2022-11-20T09:36:22.000Z</time>
      </trkpt>
      <trkpt lat="37.08766833" lon="-3.38286833">
        <ele>2624.0</ele>
        <time>2022-11-20T09:36:23.000Z</time>
      </trkpt>
      <trkpt lat="37.08765833" lon="-3.382865">
        <ele>2624.0</ele>
        <time>2022-11-20T09:36:24.000Z</time>
      </trkpt>
      <trkpt lat="37.08765" lon="-3.38286333">
        <ele>2624.0</ele>
        <time>2022-11-20T09:36:25.000Z</time>
      </trkpt>
      <trkpt lat="37.08764" lon="-3.38286333">
        <ele>2624.0</ele>
        <time>2022-11-20T09:36:26.000Z</time>
      </trkpt>
      <trkpt lat="37.08763" lon="-3.38286333">
        <ele>2624.0</ele>
        <time>2022-11-20T09:36:27.000Z</time>
      </trkpt>
      <trkpt lat="37.08762" lon="-3.38286333">
        <ele>2624.0</ele>
        <time>2022-11-20T09:36:28.000Z</time>
      </trkpt>
      <trkpt lat="37.08761" lon="-3.38286167">
        <ele>2624.0</ele>
        <time>2022-11-20T09:36:29.000Z</time>
      </trkpt>
      <trkpt lat="37.08759833" lon="-3.38286333">
        <ele>2624.0</ele>
        <time>2022-11-20T09:36:30.000Z</time>
      </trkpt>
      <trkpt lat="37.08758667" lon="-3.38286333">
        <ele>2624.0</ele>
        <time>2022-11-20T09:36:31.000Z</time>
      </trkpt>
      <trkpt lat="37.08757667" lon="-3.38286333">
        <ele>2624.0</ele>
        <time>2022-11-20T09:36:32.000Z</time>
      </trkpt>
      <trkpt lat="37.087565" lon="-3.38286333">
        <ele>2624.0</ele>
        <time>2022-11-20T09:36:33.000Z</time>
      </trkpt>
      <trkpt lat="37.08755667" lon="-3.38286333">
        <ele>2624.0</ele>
        <time>2022-11-20T09:36:34.000Z</time>
      </trkpt>
      <trkpt lat="37.087545" lon="-3.38286">
        <ele>2625.0</ele>
        <time>2022-11-20T09:36:35.000Z</time>
      </trkpt>
      <trkpt lat="37.087535" lon="-3.38286">
        <ele>2625.0</ele>
        <time>2022-11-20T09:36:36.000Z</time>
      </trkpt>
      <trkpt lat="37.087525" lon="-3.38286">
        <ele>2625.0</ele>
        <time>2022-11-20T09:36:37.000Z</time>
      </trkpt>
      <trkpt lat="37.087515" lon="-3.38285833">
        <ele>2625.0</ele>
        <time>2022-11-20T09:36:38.000Z</time>
      </trkpt>
      <trkpt lat="37.08750667" lon="-3.38285833">
        <ele>2625.0</ele>
        <time>2022-11-20T09:36:39.000Z</time>
      </trkpt>
      <trkpt lat="37.087495" lon="-3.382855">
        <ele>2625.0</ele>
        <time>2022-11-20T09:36:40.000Z</time>
      </trkpt>
      <trkpt lat="37.08748667" lon="-3.38285333">
        <ele>2625.0</ele>
        <time>2022-11-20T09:36:41.000Z</time>
      </trkpt>
      <trkpt lat="37.08747667" lon="-3.38285167">
        <ele>2625.0</ele>
        <time>2022-11-20T09:36:42.000Z</time>
      </trkpt>
      <trkpt lat="37.08746667" lon="-3.38285167">
        <ele>2625.0</ele>
        <time>2022-11-20T09:36:43.000Z</time>
      </trkpt>
      <trkpt lat="37.08745667" lon="-3.38285333">
        <ele>2625.0</ele>
        <time>2022-11-20T09:36:44.000Z</time>
      </trkpt>
      <trkpt lat="37.08744667" lon="-3.38285333">
        <ele>2626.0</ele>
        <time>2022-11-20T09:36:45.000Z</time>
      </trkpt>
      <trkpt lat="37.08743667" lon="-3.38285333">
        <ele>2626.0</ele>
        <time>2022-11-20T09:36:46.000Z</time>
      </trkpt>
      <trkpt lat="37.08743" lon="-3.38285667">
        <ele>2626.0</ele>
        <time>2022-11-20T09:36:47.000Z</time>
      </trkpt>
      <trkpt lat="37.08741833" lon="-3.38285667">
        <ele>2626.0</ele>
        <time>2022-11-20T09:36:48.000Z</time>
      </trkpt>
      <trkpt lat="37.08740833" lon="-3.382855">
        <ele>2626.0</ele>
        <time>2022-11-20T09:36:49.000Z</time>
      </trkpt>
      <trkpt lat="37.08739667" lon="-3.382855">
        <ele>2626.0</ele>
        <time>2022-11-20T09:36:50.000Z</time>
      </trkpt>
      <trkpt lat="37.087385" lon="-3.38285333">
        <ele>2626.0</ele>
        <time>2022-11-20T09:36:51.000Z</time>
      </trkpt>
      <trkpt lat="37.087375" lon="-3.382855">
        <ele>2626.0</ele>
        <time>2022-11-20T09:36:52.000Z</time>
      </trkpt>
      <trkpt lat="37.087365" lon="-3.38285667">
        <ele>2626.0</ele>
        <time>2022-11-20T09:36:53.000Z</time>
      </trkpt>
      <trkpt lat="37.087355" lon="-3.38286">
        <ele>2626.0</ele>
        <time>2022-11-20T09:36:54.000Z</time>
      </trkpt>
      <trkpt lat="37.08734167" lon="-3.38286333">
        <ele>2626.0</ele>
        <time>2022-11-20T09:36:55.000Z</time>
      </trkpt>
      <trkpt lat="37.08733167" lon="-3.38286">
        <ele>2626.0</ele>
        <time>2022-11-20T09:36:56.000Z</time>
      </trkpt>
      <trkpt lat="37.08732" lon="-3.38285833">
        <ele>2626.0</ele>
        <time>2022-11-20T09:36:57.000Z</time>
      </trkpt>
      <trkpt lat="37.08730833" lon="-3.38285833">
        <ele>2626.0</ele>
        <time>2022-11-20T09:36:58.000Z</time>
      </trkpt>
      <trkpt lat="37.0873" lon="-3.38285833">
        <ele>2627.0</ele>
        <time>2022-11-20T09:36:59.000Z</time>
      </trkpt>
      <trkpt lat="37.08729" lon="-3.38285833">
        <ele>2627.0</ele>
        <time>2022-11-20T09:37:00.000Z</time>
      </trkpt>
      <trkpt lat="37.08728" lon="-3.38286">
        <ele>2627.0</ele>
        <time>2022-11-20T09:37:01.000Z</time>
      </trkpt>
      <trkpt lat="37.08726667" lon="-3.38286167">
        <ele>2627.0</ele>
        <time>2022-11-20T09:37:02.000Z</time>
      </trkpt>
      <trkpt lat="37.08725667" lon="-3.38286">
        <ele>2627.0</ele>
        <time>2022-11-20T09:37:03.000Z</time>
      </trkpt>
      <trkpt lat="37.08724333" lon="-3.382855">
        <ele>2627.0</ele>
        <time>2022-11-20T09:37:04.000Z</time>
      </trkpt>
      <trkpt lat="37.08723333" lon="-3.38285167">
        <ele>2627.0</ele>
        <time>2022-11-20T09:37:05.000Z</time>
      </trkpt>
      <trkpt lat="37.08722167" lon="-3.38284833">
        <ele>2627.0</ele>
        <time>2022-11-20T09:37:06.000Z</time>
      </trkpt>
      <trkpt lat="37.08721333" lon="-3.38284333">
        <ele>2627.0</ele>
        <time>2022-11-20T09:37:07.000Z</time>
      </trkpt>
      <trkpt lat="37.08720333" lon="-3.38283667">
        <ele>2627.0</ele>
        <time>2022-11-20T09:37:08.000Z</time>
      </trkpt>
      <trkpt lat="37.08719333" lon="-3.38282833">
        <ele>2627.0</ele>
        <time>2022-11-20T09:37:09.000Z</time>
      </trkpt>
      <trkpt lat="37.08718667" lon="-3.38282167">
        <ele>2627.0</ele>
        <time>2022-11-20T09:37:10.000Z</time>
      </trkpt>
      <trkpt lat="37.08717667" lon="-3.382815">
        <ele>2627.0</ele>
        <time>2022-11-20T09:37:11.000Z</time>
      </trkpt>
      <trkpt lat="37.08716833" lon="-3.38281">
        <ele>2627.0</ele>
        <time>2022-11-20T09:37:12.000Z</time>
      </trkpt>
      <trkpt lat="37.08715833" lon="-3.38280333">
        <ele>2627.0</ele>
        <time>2022-11-20T09:37:13.000Z</time>
      </trkpt>
      <trkpt lat="37.08714833" lon="-3.38279667">
        <ele>2627.0</ele>
        <time>2022-11-20T09:37:14.000Z</time>
      </trkpt>
      <trkpt lat="37.08714" lon="-3.38279">
        <ele>2627.0</ele>
        <time>2022-11-20T09:37:15.000Z</time>
      </trkpt>
      <trkpt lat="37.08713" lon="-3.382785">
        <ele>2627.0</ele>
        <time>2022-11-20T09:37:16.000Z</time>
      </trkpt>
      <trkpt lat="37.08712" lon="-3.38278333">
        <ele>2627.0</ele>
        <time>2022-11-20T09:37:17.000Z</time>
      </trkpt>
      <trkpt lat="37.08711" lon="-3.38278333">
        <ele>2627.0</ele>
        <time>2022-11-20T09:37:18.000Z</time>
      </trkpt>
      <trkpt lat="37.0871" lon="-3.382785">
        <ele>2627.0</ele>
        <time>2022-11-20T09:37:19.000Z</time>
      </trkpt>
      <trkpt lat="37.08708833" lon="-3.38278667">
        <ele>2627.0</ele>
        <time>2022-11-20T09:37:20.000Z</time>
      </trkpt>
      <trkpt lat="37.08707667" lon="-3.38278667">
        <ele>2627.0</ele>
        <time>2022-11-20T09:37:21.000Z</time>
      </trkpt>
      <trkpt lat="37.08706667" lon="-3.38278833">
        <ele>2627.0</ele>
        <time>2022-11-20T09:37:22.000Z</time>
      </trkpt>
      <trkpt lat="37.08705667" lon="-3.38279333">
        <ele>2626.0</ele>
        <time>2022-11-20T09:37:23.000Z</time>
      </trkpt>
      <trkpt lat="37.08704667" lon="-3.3828">
        <ele>2626.0</ele>
        <time>2022-11-20T09:37:24.000Z</time>
      </trkpt>
      <trkpt lat="37.087035" lon="-3.382805">
        <ele>2626.0</ele>
        <time>2022-11-20T09:37:25.000Z</time>
      </trkpt>
      <trkpt lat="37.087025" lon="-3.38280833">
        <ele>2627.0</ele>
        <time>2022-11-20T09:37:26.000Z</time>
      </trkpt>
      <trkpt lat="37.08701667" lon="-3.38281167">
        <ele>2627.0</ele>
        <time>2022-11-20T09:37:27.000Z</time>
      </trkpt>
      <trkpt lat="37.087005" lon="-3.38281">
        <ele>2627.0</ele>
        <time>2022-11-20T09:37:28.000Z</time>
      </trkpt>
      <trkpt lat="37.086995" lon="-3.38280667">
        <ele>2627.0</ele>
        <time>2022-11-20T09:37:29.000Z</time>
      </trkpt>
      <trkpt lat="37.08698667" lon="-3.38280333">
        <ele>2627.0</ele>
        <time>2022-11-20T09:37:30.000Z</time>
      </trkpt>
      <trkpt lat="37.08697833" lon="-3.38279833">
        <ele>2627.0</ele>
        <time>2022-11-20T09:37:31.000Z</time>
      </trkpt>
      <trkpt lat="37.08697167" lon="-3.38279667">
        <ele>2627.0</ele>
        <time>2022-11-20T09:37:32.000Z</time>
      </trkpt>
      <trkpt lat="37.08696" lon="-3.38279167">
        <ele>2627.0</ele>
        <time>2022-11-20T09:37:33.000Z</time>
      </trkpt>
      <trkpt lat="37.08695167" lon="-3.38278833">
        <ele>2627.0</ele>
        <time>2022-11-20T09:37:34.000Z</time>
      </trkpt>
      <trkpt lat="37.08694333" lon="-3.38278333">
        <ele>2627.0</ele>
        <time>2022-11-20T09:37:35.000Z</time>
      </trkpt>
      <trkpt lat="37.08693667" lon="-3.38277833">
        <ele>2628.0</ele>
        <time>2022-11-20T09:37:36.000Z</time>
      </trkpt>
      <trkpt lat="37.08693" lon="-3.38277333">
        <ele>2628.0</ele>
        <time>2022-11-20T09:37:37.000Z</time>
      </trkpt>
      <trkpt lat="37.08692167" lon="-3.38276833">
        <ele>2628.0</ele>
        <time>2022-11-20T09:37:38.000Z</time>
      </trkpt>
      <trkpt lat="37.08691333" lon="-3.38276167">
        <ele>2628.0</ele>
        <time>2022-11-20T09:37:39.000Z</time>
      </trkpt>
      <trkpt lat="37.08691" lon="-3.38275833">
        <ele>2628.0</ele>
        <time>2022-11-20T09:37:40.000Z</time>
      </trkpt>
      <trkpt lat="37.08690333" lon="-3.38274833">
        <ele>2628.0</ele>
        <time>2022-11-20T09:37:41.000Z</time>
      </trkpt>
      <trkpt lat="37.08689667" lon="-3.38274167">
        <ele>2628.0</ele>
        <time>2022-11-20T09:37:42.000Z</time>
      </trkpt>
      <trkpt lat="37.08689167" lon="-3.382735">
        <ele>2628.0</ele>
        <time>2022-11-20T09:37:43.000Z</time>
      </trkpt>
      <trkpt lat="37.086885" lon="-3.38273">
        <ele>2628.0</ele>
        <time>2022-11-20T09:37:44.000Z</time>
      </trkpt>
      <trkpt lat="37.08688" lon="-3.382725">
        <ele>2628.0</ele>
        <time>2022-11-20T09:37:45.000Z</time>
      </trkpt>
      <trkpt lat="37.086875" lon="-3.38272">
        <ele>2628.0</ele>
        <time>2022-11-20T09:37:46.000Z</time>
      </trkpt>
      <trkpt lat="37.08686833" lon="-3.382715">
        <ele>2629.0</ele>
        <time>2022-11-20T09:37:47.000Z</time>
      </trkpt>
      <trkpt lat="37.08686333" lon="-3.38270667">
        <ele>2629.0</ele>
        <time>2022-11-20T09:37:48.000Z</time>
      </trkpt>
      <trkpt lat="37.08685833" lon="-3.38270167">
        <ele>2629.0</ele>
        <time>2022-11-20T09:37:49.000Z</time>
      </trkpt>
      <trkpt lat="37.08685167" lon="-3.382695">
        <ele>2629.0</ele>
        <time>2022-11-20T09:37:50.000Z</time>
      </trkpt>
      <trkpt lat="37.08684667" lon="-3.38269167">
        <ele>2629.0</ele>
        <time>2022-11-20T09:37:51.000Z</time>
      </trkpt>
      <trkpt lat="37.08684" lon="-3.38268833">
        <ele>2629.0</ele>
        <time>2022-11-20T09:37:52.000Z</time>
      </trkpt>
      <trkpt lat="37.08683333" lon="-3.38268333">
        <ele>2629.0</ele>
        <time>2022-11-20T09:37:53.000Z</time>
      </trkpt>
      <trkpt lat="37.08682833" lon="-3.38267833">
        <ele>2630.0</ele>
        <time>2022-11-20T09:37:54.000Z</time>
      </trkpt>
      <trkpt lat="37.08682167" lon="-3.38267">
        <ele>2630.0</ele>
        <time>2022-11-20T09:37:55.000Z</time>
      </trkpt>
      <trkpt lat="37.08681667" lon="-3.38266333">
        <ele>2630.0</ele>
        <time>2022-11-20T09:37:56.000Z</time>
      </trkpt>
      <trkpt lat="37.08681167" lon="-3.382655">
        <ele>2630.0</ele>
        <time>2022-11-20T09:37:57.000Z</time>
      </trkpt>
      <trkpt lat="37.086805" lon="-3.38265">
        <ele>2630.0</ele>
        <time>2022-11-20T09:37:58.000Z</time>
      </trkpt>
      <trkpt lat="37.08679833" lon="-3.38264667">
        <ele>2631.0</ele>
        <time>2022-11-20T09:37:59.000Z</time>
      </trkpt>
      <trkpt lat="37.08679" lon="-3.38264167">
        <ele>2631.0</ele>
        <time>2022-11-20T09:38:00.000Z</time>
      </trkpt>
      <trkpt lat="37.08678167" lon="-3.38263667">
        <ele>2631.0</ele>
        <time>2022-11-20T09:38:01.000Z</time>
      </trkpt>
      <trkpt lat="37.086775" lon="-3.382635">
        <ele>2631.0</ele>
        <time>2022-11-20T09:38:02.000Z</time>
      </trkpt>
      <trkpt lat="37.08676667" lon="-3.38263">
        <ele>2631.0</ele>
        <time>2022-11-20T09:38:03.000Z</time>
      </trkpt>
      <trkpt lat="37.08675833" lon="-3.382625">
        <ele>2631.0</ele>
        <time>2022-11-20T09:38:04.000Z</time>
      </trkpt>
      <trkpt lat="37.08675167" lon="-3.38262167">
        <ele>2631.0</ele>
        <time>2022-11-20T09:38:05.000Z</time>
      </trkpt>
      <trkpt lat="37.08674333" lon="-3.38261667">
        <ele>2631.0</ele>
        <time>2022-11-20T09:38:06.000Z</time>
      </trkpt>
      <trkpt lat="37.08673667" lon="-3.38261">
        <ele>2632.0</ele>
        <time>2022-11-20T09:38:07.000Z</time>
      </trkpt>
      <trkpt lat="37.08673" lon="-3.38260333">
        <ele>2632.0</ele>
        <time>2022-11-20T09:38:08.000Z</time>
      </trkpt>
      <trkpt lat="37.086725" lon="-3.38259667">
        <ele>2632.0</ele>
        <time>2022-11-20T09:38:09.000Z</time>
      </trkpt>
      <trkpt lat="37.08672" lon="-3.38259">
        <ele>2632.0</ele>
        <time>2022-11-20T09:38:10.000Z</time>
      </trkpt>
      <trkpt lat="37.086715" lon="-3.38258333">
        <ele>2632.0</ele>
        <time>2022-11-20T09:38:11.000Z</time>
      </trkpt>
      <trkpt lat="37.08671" lon="-3.38257833">
        <ele>2633.0</ele>
        <time>2022-11-20T09:38:12.000Z</time>
      </trkpt>
      <trkpt lat="37.086705" lon="-3.38257333">
        <ele>2633.0</ele>
        <time>2022-11-20T09:38:13.000Z</time>
      </trkpt>
      <trkpt lat="37.0867" lon="-3.38256833">
        <ele>2633.0</ele>
        <time>2022-11-20T09:38:14.000Z</time>
      </trkpt>
      <trkpt lat="37.08669333" lon="-3.38256667">
        <ele>2633.0</ele>
        <time>2022-11-20T09:38:15.000Z</time>
      </trkpt>
      <trkpt lat="37.08668833" lon="-3.38256333">
        <ele>2633.0</ele>
        <time>2022-11-20T09:38:16.000Z</time>
      </trkpt>
      <trkpt lat="37.08668167" lon="-3.38256333">
        <ele>2633.0</ele>
        <time>2022-11-20T09:38:17.000Z</time>
      </trkpt>
      <trkpt lat="37.086675" lon="-3.38256333">
        <ele>2634.0</ele>
        <time>2022-11-20T09:38:18.000Z</time>
      </trkpt>
      <trkpt lat="37.08666833" lon="-3.38256333">
        <ele>2634.0</ele>
        <time>2022-11-20T09:38:19.000Z</time>
      </trkpt>
      <trkpt lat="37.08666" lon="-3.38256333">
        <ele>2634.0</ele>
        <time>2022-11-20T09:38:20.000Z</time>
      </trkpt>
      <trkpt lat="37.08665333" lon="-3.38256167">
        <ele>2634.0</ele>
        <time>2022-11-20T09:38:21.000Z</time>
      </trkpt>
      <trkpt lat="37.086645" lon="-3.38256">
        <ele>2634.0</ele>
        <time>2022-11-20T09:38:22.000Z</time>
      </trkpt>
      <trkpt lat="37.08663833" lon="-3.382555">
        <ele>2634.0</ele>
        <time>2022-11-20T09:38:23.000Z</time>
      </trkpt>
      <trkpt lat="37.08663167" lon="-3.38255333">
        <ele>2635.0</ele>
        <time>2022-11-20T09:38:24.000Z</time>
      </trkpt>
      <trkpt lat="37.086625" lon="-3.38255">
        <ele>2635.0</ele>
        <time>2022-11-20T09:38:25.000Z</time>
      </trkpt>
      <trkpt lat="37.08661833" lon="-3.38254667">
        <ele>2635.0</ele>
        <time>2022-11-20T09:38:26.000Z</time>
      </trkpt>
      <trkpt lat="37.08661167" lon="-3.38254167">
        <ele>2635.0</ele>
        <time>2022-11-20T09:38:27.000Z</time>
      </trkpt>
      <trkpt lat="37.08660333" lon="-3.38253833">
        <ele>2635.0</ele>
        <time>2022-11-20T09:38:28.000Z</time>
      </trkpt>
      <trkpt lat="37.08659833" lon="-3.38253167">
        <ele>2635.0</ele>
        <time>2022-11-20T09:38:29.000Z</time>
      </trkpt>
      <trkpt lat="37.08659333" lon="-3.382525">
        <ele>2636.0</ele>
        <time>2022-11-20T09:38:30.000Z</time>
      </trkpt>
      <trkpt lat="37.08658667" lon="-3.38252167">
        <ele>2636.0</ele>
        <time>2022-11-20T09:38:31.000Z</time>
      </trkpt>
      <trkpt lat="37.08658" lon="-3.382515">
        <ele>2636.0</ele>
        <time>2022-11-20T09:38:32.000Z</time>
      </trkpt>
      <trkpt lat="37.08657333" lon="-3.38251">
        <ele>2636.0</ele>
        <time>2022-11-20T09:38:33.000Z</time>
      </trkpt>
      <trkpt lat="37.08656833" lon="-3.38250667">
        <ele>2636.0</ele>
        <time>2022-11-20T09:38:34.000Z</time>
      </trkpt>
      <trkpt lat="37.08656167" lon="-3.382505">
        <ele>2636.0</ele>
        <time>2022-11-20T09:38:35.000Z</time>
      </trkpt>
      <trkpt lat="37.086555" lon="-3.3825">
        <ele>2637.0</ele>
        <time>2022-11-20T09:38:36.000Z</time>
      </trkpt>
      <trkpt lat="37.08655" lon="-3.382495">
        <ele>2637.0</ele>
        <time>2022-11-20T09:38:37.000Z</time>
      </trkpt>
      <trkpt lat="37.086545" lon="-3.38249">
        <ele>2637.0</ele>
        <time>2022-11-20T09:38:38.000Z</time>
      </trkpt>
      <trkpt lat="37.08653833" lon="-3.38248333">
        <ele>2637.0</ele>
        <time>2022-11-20T09:38:39.000Z</time>
      </trkpt>
      <trkpt lat="37.08653333" lon="-3.38247833">
        <ele>2637.0</ele>
        <time>2022-11-20T09:38:40.000Z</time>
      </trkpt>
      <trkpt lat="37.08653" lon="-3.382475">
        <ele>2637.0</ele>
        <time>2022-11-20T09:38:41.000Z</time>
      </trkpt>
      <trkpt lat="37.08652" lon="-3.38247167">
        <ele>2637.0</ele>
        <time>2022-11-20T09:38:42.000Z</time>
      </trkpt>
      <trkpt lat="37.08651333" lon="-3.38246833">
        <ele>2638.0</ele>
        <time>2022-11-20T09:38:43.000Z</time>
      </trkpt>
      <trkpt lat="37.08650833" lon="-3.382465">
        <ele>2638.0</ele>
        <time>2022-11-20T09:38:44.000Z</time>
      </trkpt>
      <trkpt lat="37.08649833" lon="-3.38246167">
        <ele>2638.0</ele>
        <time>2022-11-20T09:38:45.000Z</time>
      </trkpt>
      <trkpt lat="37.08649167" lon="-3.38245833">
        <ele>2638.0</ele>
        <time>2022-11-20T09:38:46.000Z</time>
      </trkpt>
      <trkpt lat="37.08648667" lon="-3.38245333">
        <ele>2638.0</ele>
        <time>2022-11-20T09:38:47.000Z</time>
      </trkpt>
      <trkpt lat="37.08648167" lon="-3.38245">
        <ele>2639.0</ele>
        <time>2022-11-20T09:38:48.000Z</time>
      </trkpt>
      <trkpt lat="37.08647667" lon="-3.38244833">
        <ele>2639.0</ele>
        <time>2022-11-20T09:38:49.000Z</time>
      </trkpt>
      <trkpt lat="37.08646667" lon="-3.38244833">
        <ele>2639.0</ele>
        <time>2022-11-20T09:38:50.000Z</time>
      </trkpt>
      <trkpt lat="37.08646167" lon="-3.38244667">
        <ele>2639.0</ele>
        <time>2022-11-20T09:38:51.000Z</time>
      </trkpt>
      <trkpt lat="37.08645667" lon="-3.382445">
        <ele>2639.0</ele>
        <time>2022-11-20T09:38:52.000Z</time>
      </trkpt>
      <trkpt lat="37.08645167" lon="-3.38244">
        <ele>2640.0</ele>
        <time>2022-11-20T09:38:53.000Z</time>
      </trkpt>
      <trkpt lat="37.08644833" lon="-3.382435">
        <ele>2640.0</ele>
        <time>2022-11-20T09:38:54.000Z</time>
      </trkpt>
      <trkpt lat="37.08644333" lon="-3.38242833">
        <ele>2640.0</ele>
        <time>2022-11-20T09:38:55.000Z</time>
      </trkpt>
      <trkpt lat="37.08643833" lon="-3.382425">
        <ele>2640.0</ele>
        <time>2022-11-20T09:38:56.000Z</time>
      </trkpt>
      <trkpt lat="37.08643333" lon="-3.38242">
        <ele>2640.0</ele>
        <time>2022-11-20T09:38:57.000Z</time>
      </trkpt>
      <trkpt lat="37.08643" lon="-3.38241667">
        <ele>2640.0</ele>
        <time>2022-11-20T09:38:58.000Z</time>
      </trkpt>
      <trkpt lat="37.086425" lon="-3.38241333">
        <ele>2640.0</ele>
        <time>2022-11-20T09:38:59.000Z</time>
      </trkpt>
      <trkpt lat="37.08642" lon="-3.38241">
        <ele>2641.0</ele>
        <time>2022-11-20T09:39:00.000Z</time>
      </trkpt>
      <trkpt lat="37.08641333" lon="-3.382405">
        <ele>2641.0</ele>
        <time>2022-11-20T09:39:01.000Z</time>
      </trkpt>
      <trkpt lat="37.08641" lon="-3.38240167">
        <ele>2641.0</ele>
        <time>2022-11-20T09:39:02.000Z</time>
      </trkpt>
      <trkpt lat="37.08640333" lon="-3.38239833">
        <ele>2641.0</ele>
        <time>2022-11-20T09:39:03.000Z</time>
      </trkpt>
      <trkpt lat="37.08639833" lon="-3.38239167">
        <ele>2641.0</ele>
        <time>2022-11-20T09:39:04.000Z</time>
      </trkpt>
      <trkpt lat="37.08639333" lon="-3.38238667">
        <ele>2641.0</ele>
        <time>2022-11-20T09:39:05.000Z</time>
      </trkpt>
      <trkpt lat="37.08639" lon="-3.38238333">
        <ele>2641.0</ele>
        <time>2022-11-20T09:39:06.000Z</time>
      </trkpt>
      <trkpt lat="37.08638667" lon="-3.38237667">
        <ele>2642.0</ele>
        <time>2022-11-20T09:39:07.000Z</time>
      </trkpt>
      <trkpt lat="37.08638167" lon="-3.38237">
        <ele>2642.0</ele>
        <time>2022-11-20T09:39:08.000Z</time>
      </trkpt>
      <trkpt lat="37.08637667" lon="-3.382365">
        <ele>2642.0</ele>
        <time>2022-11-20T09:39:09.000Z</time>
      </trkpt>
      <trkpt lat="37.08637" lon="-3.38236">
        <ele>2642.0</ele>
        <time>2022-11-20T09:39:10.000Z</time>
      </trkpt>
      <trkpt lat="37.086365" lon="-3.38235333">
        <ele>2642.0</ele>
        <time>2022-11-20T09:39:11.000Z</time>
      </trkpt>
      <trkpt lat="37.08635833" lon="-3.38235">
        <ele>2642.0</ele>
        <time>2022-11-20T09:39:12.000Z</time>
      </trkpt>
      <trkpt lat="37.08635333" lon="-3.38234667">
        <ele>2643.0</ele>
        <time>2022-11-20T09:39:13.000Z</time>
      </trkpt>
      <trkpt lat="37.08634667" lon="-3.38234333">
        <ele>2643.0</ele>
        <time>2022-11-20T09:39:14.000Z</time>
      </trkpt>
      <trkpt lat="37.08634" lon="-3.38233833">
        <ele>2643.0</ele>
        <time>2022-11-20T09:39:15.000Z</time>
      </trkpt>
      <trkpt lat="37.08633333" lon="-3.38233333">
        <ele>2643.0</ele>
        <time>2022-11-20T09:39:16.000Z</time>
      </trkpt>
      <trkpt lat="37.08632833" lon="-3.38232833">
        <ele>2643.0</ele>
        <time>2022-11-20T09:39:17.000Z</time>
      </trkpt>
      <trkpt lat="37.08632333" lon="-3.382325">
        <ele>2643.0</ele>
        <time>2022-11-20T09:39:18.000Z</time>
      </trkpt>
      <trkpt lat="37.08631667" lon="-3.38232">
        <ele>2643.0</ele>
        <time>2022-11-20T09:39:19.000Z</time>
      </trkpt>
      <trkpt lat="37.08631" lon="-3.38231667">
        <ele>2644.0</ele>
        <time>2022-11-20T09:39:20.000Z</time>
      </trkpt>
      <trkpt lat="37.08630333" lon="-3.38231333">
        <ele>2644.0</ele>
        <time>2022-11-20T09:39:21.000Z</time>
      </trkpt>
      <trkpt lat="37.08629667" lon="-3.38230833">
        <ele>2644.0</ele>
        <time>2022-11-20T09:39:22.000Z</time>
      </trkpt>
      <trkpt lat="37.08629" lon="-3.382305">
        <ele>2644.0</ele>
        <time>2022-11-20T09:39:23.000Z</time>
      </trkpt>
      <trkpt lat="37.08628167" lon="-3.3823">
        <ele>2644.0</ele>
        <time>2022-11-20T09:39:24.000Z</time>
      </trkpt>
      <trkpt lat="37.086275" lon="-3.38229667">
        <ele>2644.0</ele>
        <time>2022-11-20T09:39:25.000Z</time>
      </trkpt>
      <trkpt lat="37.08626667" lon="-3.38229333">
        <ele>2644.0</ele>
        <time>2022-11-20T09:39:26.000Z</time>
      </trkpt>
      <trkpt lat="37.08626" lon="-3.38228833">
        <ele>2645.0</ele>
        <time>2022-11-20T09:39:27.000Z</time>
      </trkpt>
      <trkpt lat="37.086255" lon="-3.38228167">
        <ele>2645.0</ele>
        <time>2022-11-20T09:39:28.000Z</time>
      </trkpt>
      <trkpt lat="37.08625" lon="-3.38227667">
        <ele>2645.0</ele>
        <time>2022-11-20T09:39:29.000Z</time>
      </trkpt>
      <trkpt lat="37.086245" lon="-3.38227">
        <ele>2645.0</ele>
        <time>2022-11-20T09:39:30.000Z</time>
      </trkpt>
      <trkpt lat="37.08623833" lon="-3.38226333">
        <ele>2645.0</ele>
        <time>2022-11-20T09:39:31.000Z</time>
      </trkpt>
      <trkpt lat="37.086235" lon="-3.38226">
        <ele>2645.0</ele>
        <time>2022-11-20T09:39:32.000Z</time>
      </trkpt>
      <trkpt lat="37.08622833" lon="-3.38225667">
        <ele>2645.0</ele>
        <time>2022-11-20T09:39:33.000Z</time>
      </trkpt>
      <trkpt lat="37.08622167" lon="-3.38225167">
        <ele>2646.0</ele>
        <time>2022-11-20T09:39:34.000Z</time>
      </trkpt>
      <trkpt lat="37.08621667" lon="-3.382245">
        <ele>2646.0</ele>
        <time>2022-11-20T09:39:35.000Z</time>
      </trkpt>
      <trkpt lat="37.08621" lon="-3.38224167">
        <ele>2646.0</ele>
        <time>2022-11-20T09:39:36.000Z</time>
      </trkpt>
      <trkpt lat="37.08620333" lon="-3.382235">
        <ele>2646.0</ele>
        <time>2022-11-20T09:39:37.000Z</time>
      </trkpt>
      <trkpt lat="37.08619833" lon="-3.38223167">
        <ele>2646.0</ele>
        <time>2022-11-20T09:39:38.000Z</time>
      </trkpt>
      <trkpt lat="37.08619" lon="-3.38222667">
        <ele>2646.0</ele>
        <time>2022-11-20T09:39:39.000Z</time>
      </trkpt>
      <trkpt lat="37.08618167" lon="-3.38222167">
        <ele>2646.0</ele>
        <time>2022-11-20T09:39:40.000Z</time>
      </trkpt>
      <trkpt lat="37.08617667" lon="-3.38221667">
        <ele>2646.0</ele>
        <time>2022-11-20T09:39:41.000Z</time>
      </trkpt>
      <trkpt lat="37.08616667" lon="-3.38221">
        <ele>2646.0</ele>
        <time>2022-11-20T09:39:42.000Z</time>
      </trkpt>
      <trkpt lat="37.08615833" lon="-3.382205">
        <ele>2647.0</ele>
        <time>2022-11-20T09:39:43.000Z</time>
      </trkpt>
      <trkpt lat="37.08615167" lon="-3.38219833">
        <ele>2647.0</ele>
        <time>2022-11-20T09:39:44.000Z</time>
      </trkpt>
      <trkpt lat="37.086145" lon="-3.38219167">
        <ele>2647.0</ele>
        <time>2022-11-20T09:39:45.000Z</time>
      </trkpt>
      <trkpt lat="37.08613833" lon="-3.38218833">
        <ele>2647.0</ele>
        <time>2022-11-20T09:39:46.000Z</time>
      </trkpt>
      <trkpt lat="37.08613167" lon="-3.382185">
        <ele>2647.0</ele>
        <time>2022-11-20T09:39:47.000Z</time>
      </trkpt>
      <trkpt lat="37.086125" lon="-3.38218">
        <ele>2647.0</ele>
        <time>2022-11-20T09:39:48.000Z</time>
      </trkpt>
      <trkpt lat="37.08611667" lon="-3.38217333">
        <ele>2647.0</ele>
        <time>2022-11-20T09:39:49.000Z</time>
      </trkpt>
      <trkpt lat="37.08611167" lon="-3.38216833">
        <ele>2647.0</ele>
        <time>2022-11-20T09:39:50.000Z</time>
      </trkpt>
      <trkpt lat="37.08610667" lon="-3.382165">
        <ele>2647.0</ele>
        <time>2022-11-20T09:39:51.000Z</time>
      </trkpt>
      <trkpt lat="37.08609667" lon="-3.38216">
        <ele>2648.0</ele>
        <time>2022-11-20T09:39:52.000Z</time>
      </trkpt>
      <trkpt lat="37.08609" lon="-3.38215667">
        <ele>2648.0</ele>
        <time>2022-11-20T09:39:53.000Z</time>
      </trkpt>
      <trkpt lat="37.08608333" lon="-3.38215333">
        <ele>2648.0</ele>
        <time>2022-11-20T09:39:54.000Z</time>
      </trkpt>
      <trkpt lat="37.08607667" lon="-3.38215">
        <ele>2648.0</ele>
        <time>2022-11-20T09:39:55.000Z</time>
      </trkpt>
      <trkpt lat="37.08607333" lon="-3.382145">
        <ele>2648.0</ele>
        <time>2022-11-20T09:39:56.000Z</time>
      </trkpt>
      <trkpt lat="37.08607" lon="-3.38214167">
        <ele>2648.0</ele>
        <time>2022-11-20T09:39:57.000Z</time>
      </trkpt>
      <trkpt lat="37.08606667" lon="-3.38213667">
        <ele>2648.0</ele>
        <time>2022-11-20T09:39:58.000Z</time>
      </trkpt>
      <trkpt lat="37.08606167" lon="-3.38213333">
        <ele>2648.0</ele>
        <time>2022-11-20T09:39:59.000Z</time>
      </trkpt>
      <trkpt lat="37.08605667" lon="-3.38213">
        <ele>2649.0</ele>
        <time>2022-11-20T09:40:00.000Z</time>
      </trkpt>
      <trkpt lat="37.08605167" lon="-3.38212833">
        <ele>2649.0</ele>
        <time>2022-11-20T09:40:01.000Z</time>
      </trkpt>
      <trkpt lat="37.08605" lon="-3.38212833">
        <ele>2649.0</ele>
        <time>2022-11-20T09:40:02.000Z</time>
      </trkpt>
      <trkpt lat="37.08604167" lon="-3.38213167">
        <ele>2649.0</ele>
        <time>2022-11-20T09:40:03.000Z</time>
      </trkpt>
      <trkpt lat="37.086035" lon="-3.38213167">
        <ele>2649.0</ele>
        <time>2022-11-20T09:40:04.000Z</time>
      </trkpt>
      <trkpt lat="37.08603" lon="-3.382135">
        <ele>2649.0</ele>
        <time>2022-11-20T09:40:05.000Z</time>
      </trkpt>
      <trkpt lat="37.086025" lon="-3.38213833">
        <ele>2649.0</ele>
        <time>2022-11-20T09:40:06.000Z</time>
      </trkpt>
      <trkpt lat="37.08601833" lon="-3.38214">
        <ele>2649.0</ele>
        <time>2022-11-20T09:40:07.000Z</time>
      </trkpt>
      <trkpt lat="37.08601167" lon="-3.38214167">
        <ele>2649.0</ele>
        <time>2022-11-20T09:40:08.000Z</time>
      </trkpt>
      <trkpt lat="37.08600667" lon="-3.382145">
        <ele>2650.0</ele>
        <time>2022-11-20T09:40:09.000Z</time>
      </trkpt>
      <trkpt lat="37.086" lon="-3.38214667">
        <ele>2650.0</ele>
        <time>2022-11-20T09:40:10.000Z</time>
      </trkpt>
      <trkpt lat="37.08599" lon="-3.38214167">
        <ele>2650.0</ele>
        <time>2022-11-20T09:40:11.000Z</time>
      </trkpt>
      <trkpt lat="37.08598333" lon="-3.38213333">
        <ele>2650.0</ele>
        <time>2022-11-20T09:40:12.000Z</time>
      </trkpt>
      <trkpt lat="37.08598" lon="-3.38212667">
        <ele>2651.0</ele>
        <time>2022-11-20T09:40:13.000Z</time>
      </trkpt>
      <trkpt lat="37.08597333" lon="-3.38211833">
        <ele>2651.0</ele>
        <time>2022-11-20T09:40:14.000Z</time>
      </trkpt>
      <trkpt lat="37.08596667" lon="-3.38211">
        <ele>2651.0</ele>
        <time>2022-11-20T09:40:15.000Z</time>
      </trkpt>
      <trkpt lat="37.08596" lon="-3.382105">
        <ele>2651.0</ele>
        <time>2022-11-20T09:40:16.000Z</time>
      </trkpt>
      <trkpt lat="37.08595167" lon="-3.38210333">
        <ele>2651.0</ele>
        <time>2022-11-20T09:40:17.000Z</time>
      </trkpt>
      <trkpt lat="37.085945" lon="-3.3821">
        <ele>2652.0</ele>
        <time>2022-11-20T09:40:18.000Z</time>
      </trkpt>
      <trkpt lat="37.085935" lon="-3.382095">
        <ele>2652.0</ele>
        <time>2022-11-20T09:40:19.000Z</time>
      </trkpt>
      <trkpt lat="37.08592833" lon="-3.38208667">
        <ele>2652.0</ele>
        <time>2022-11-20T09:40:20.000Z</time>
      </trkpt>
      <trkpt lat="37.08592167" lon="-3.382075">
        <ele>2652.0</ele>
        <time>2022-11-20T09:40:21.000Z</time>
      </trkpt>
      <trkpt lat="37.08591333" lon="-3.38206333">
        <ele>2652.0</ele>
        <time>2022-11-20T09:40:22.000Z</time>
      </trkpt>
      <trkpt lat="37.08590667" lon="-3.38205333">
        <ele>2652.0</ele>
        <time>2022-11-20T09:40:23.000Z</time>
      </trkpt>
      <trkpt lat="37.0859" lon="-3.38204667">
        <ele>2652.0</ele>
        <time>2022-11-20T09:40:24.000Z</time>
      </trkpt>
      <trkpt lat="37.08589833" lon="-3.38204167">
        <ele>2652.0</ele>
        <time>2022-11-20T09:40:25.000Z</time>
      </trkpt>
      <trkpt lat="37.08589833" lon="-3.38204167">
        <ele>2652.0</ele>
        <time>2022-11-20T09:40:26.000Z</time>
      </trkpt>
      <trkpt lat="37.08589667" lon="-3.38204333">
        <ele>2652.0</ele>
        <time>2022-11-20T09:40:27.000Z</time>
      </trkpt>
      <trkpt lat="37.08589333" lon="-3.38205">
        <ele>2652.0</ele>
        <time>2022-11-20T09:40:28.000Z</time>
      </trkpt>
      <trkpt lat="37.08589167" lon="-3.38205667">
        <ele>2652.0</ele>
        <time>2022-11-20T09:40:29.000Z</time>
      </trkpt>
      <trkpt lat="37.08588333" lon="-3.38206167">
        <ele>2652.0</ele>
        <time>2022-11-20T09:40:30.000Z</time>
      </trkpt>
      <trkpt lat="37.08587667" lon="-3.38206">
        <ele>2652.0</ele>
        <time>2022-11-20T09:40:31.000Z</time>
      </trkpt>
      <trkpt lat="37.08586667" lon="-3.38205833">
        <ele>2652.0</ele>
        <time>2022-11-20T09:40:32.000Z</time>
      </trkpt>
      <trkpt lat="37.08585667" lon="-3.38205333">
        <ele>2652.0</ele>
        <time>2022-11-20T09:40:33.000Z</time>
      </trkpt>
      <trkpt lat="37.08584833" lon="-3.38204833">
        <ele>2652.0</ele>
        <time>2022-11-20T09:40:34.000Z</time>
      </trkpt>
      <trkpt lat="37.08583833" lon="-3.38204">
        <ele>2653.0</ele>
        <time>2022-11-20T09:40:35.000Z</time>
      </trkpt>
      <trkpt lat="37.08583" lon="-3.38203167">
        <ele>2653.0</ele>
        <time>2022-11-20T09:40:36.000Z</time>
      </trkpt>
      <trkpt lat="37.085825" lon="-3.38202">
        <ele>2653.0</ele>
        <time>2022-11-20T09:40:37.000Z</time>
      </trkpt>
      <trkpt lat="37.08582" lon="-3.38201">
        <ele>2653.0</ele>
        <time>2022-11-20T09:40:38.000Z</time>
      </trkpt>
      <trkpt lat="37.085815" lon="-3.382">
        <ele>2653.0</ele>
        <time>2022-11-20T09:40:39.000Z</time>
      </trkpt>
      <trkpt lat="37.08581" lon="-3.38199167">
        <ele>2653.0</ele>
        <time>2022-11-20T09:40:40.000Z</time>
      </trkpt>
      <trkpt lat="37.085805" lon="-3.38198167">
        <ele>2653.0</ele>
        <time>2022-11-20T09:40:41.000Z</time>
      </trkpt>
      <trkpt lat="37.08580167" lon="-3.38197">
        <ele>2654.0</ele>
        <time>2022-11-20T09:40:42.000Z</time>
      </trkpt>
      <trkpt lat="37.08579833" lon="-3.38195833">
        <ele>2654.0</ele>
        <time>2022-11-20T09:40:43.000Z</time>
      </trkpt>
      <trkpt lat="37.08579333" lon="-3.38194833">
        <ele>2654.0</ele>
        <time>2022-11-20T09:40:44.000Z</time>
      </trkpt>
      <trkpt lat="37.08578833" lon="-3.38194">
        <ele>2654.0</ele>
        <time>2022-11-20T09:40:45.000Z</time>
      </trkpt>
      <trkpt lat="37.08578" lon="-3.38193">
        <ele>2654.0</ele>
        <time>2022-11-20T09:40:46.000Z</time>
      </trkpt>
      <trkpt lat="37.085775" lon="-3.38192167">
        <ele>2654.0</ele>
        <time>2022-11-20T09:40:47.000Z</time>
      </trkpt>
      <trkpt lat="37.08576833" lon="-3.38191167">
        <ele>2654.0</ele>
        <time>2022-11-20T09:40:48.000Z</time>
      </trkpt>
      <trkpt lat="37.08576" lon="-3.381905">
        <ele>2654.0</ele>
        <time>2022-11-20T09:40:49.000Z</time>
      </trkpt>
      <trkpt lat="37.08575333" lon="-3.38189833">
        <ele>2654.0</ele>
        <time>2022-11-20T09:40:50.000Z</time>
      </trkpt>
      <trkpt lat="37.08574667" lon="-3.38189">
        <ele>2654.0</ele>
        <time>2022-11-20T09:40:51.000Z</time>
      </trkpt>
      <trkpt lat="37.08574167" lon="-3.38188333">
        <ele>2654.0</ele>
        <time>2022-11-20T09:40:52.000Z</time>
      </trkpt>
      <trkpt lat="37.08573667" lon="-3.38187667">
        <ele>2654.0</ele>
        <time>2022-11-20T09:40:53.000Z</time>
      </trkpt>
      <trkpt lat="37.08573167" lon="-3.38186833">
        <ele>2654.0</ele>
        <time>2022-11-20T09:40:54.000Z</time>
      </trkpt>
      <trkpt lat="37.08573" lon="-3.38186167">
        <ele>2654.0</ele>
        <time>2022-11-20T09:40:55.000Z</time>
      </trkpt>
      <trkpt lat="37.085725" lon="-3.381855">
        <ele>2654.0</ele>
        <time>2022-11-20T09:40:56.000Z</time>
      </trkpt>
      <trkpt lat="37.08572" lon="-3.38185">
        <ele>2654.0</ele>
        <time>2022-11-20T09:40:57.000Z</time>
      </trkpt>
      <trkpt lat="37.08571333" lon="-3.38184667">
        <ele>2655.0</ele>
        <time>2022-11-20T09:40:58.000Z</time>
      </trkpt>
      <trkpt lat="37.085705" lon="-3.38184">
        <ele>2655.0</ele>
        <time>2022-11-20T09:40:59.000Z</time>
      </trkpt>
      <trkpt lat="37.08569833" lon="-3.38183333">
        <ele>2655.0</ele>
        <time>2022-11-20T09:41:00.000Z</time>
      </trkpt>
      <trkpt lat="37.08569333" lon="-3.381825">
        <ele>2655.0</ele>
        <time>2022-11-20T09:41:01.000Z</time>
      </trkpt>
      <trkpt lat="37.08568833" lon="-3.38181833">
        <ele>2655.0</ele>
        <time>2022-11-20T09:41:02.000Z</time>
      </trkpt>
      <trkpt lat="37.08568333" lon="-3.38181">
        <ele>2655.0</ele>
        <time>2022-11-20T09:41:03.000Z</time>
      </trkpt>
      <trkpt lat="37.08567833" lon="-3.381805">
        <ele>2655.0</ele>
        <time>2022-11-20T09:41:04.000Z</time>
      </trkpt>
      <trkpt lat="37.08567333" lon="-3.38180667">
        <ele>2655.0</ele>
        <time>2022-11-20T09:41:05.000Z</time>
      </trkpt>
      <trkpt lat="37.08566667" lon="-3.38180833">
        <ele>2655.0</ele>
        <time>2022-11-20T09:41:06.000Z</time>
      </trkpt>
      <trkpt lat="37.08566" lon="-3.38181">
        <ele>2655.0</ele>
        <time>2022-11-20T09:41:07.000Z</time>
      </trkpt>
      <trkpt lat="37.08564833" lon="-3.381805">
        <ele>2655.0</ele>
        <time>2022-11-20T09:41:08.000Z</time>
      </trkpt>
      <trkpt lat="37.08563833" lon="-3.38179667">
        <ele>2655.0</ele>
        <time>2022-11-20T09:41:09.000Z</time>
      </trkpt>
      <trkpt lat="37.08562833" lon="-3.38179">
        <ele>2655.0</ele>
        <time>2022-11-20T09:41:10.000Z</time>
      </trkpt>
      <trkpt lat="37.08562167" lon="-3.381785">
        <ele>2655.0</ele>
        <time>2022-11-20T09:41:11.000Z</time>
      </trkpt>
      <trkpt lat="37.08561167" lon="-3.38177833">
        <ele>2655.0</ele>
        <time>2022-11-20T09:41:12.000Z</time>
      </trkpt>
      <trkpt lat="37.085605" lon="-3.38177">
        <ele>2656.0</ele>
        <time>2022-11-20T09:41:13.000Z</time>
      </trkpt>
      <trkpt lat="37.08559667" lon="-3.38176">
        <ele>2656.0</ele>
        <time>2022-11-20T09:41:14.000Z</time>
      </trkpt>
      <trkpt lat="37.08559" lon="-3.38175333">
        <ele>2656.0</ele>
        <time>2022-11-20T09:41:15.000Z</time>
      </trkpt>
      <trkpt lat="37.08558833" lon="-3.38174333">
        <ele>2656.0</ele>
        <time>2022-11-20T09:41:16.000Z</time>
      </trkpt>
      <trkpt lat="37.085585" lon="-3.38173333">
        <ele>2656.0</ele>
        <time>2022-11-20T09:41:17.000Z</time>
      </trkpt>
      <trkpt lat="37.08558" lon="-3.38172667">
        <ele>2656.0</ele>
        <time>2022-11-20T09:41:18.000Z</time>
      </trkpt>
      <trkpt lat="37.085575" lon="-3.38172">
        <ele>2656.0</ele>
        <time>2022-11-20T09:41:19.000Z</time>
      </trkpt>
      <trkpt lat="37.08557" lon="-3.381715">
        <ele>2656.0</ele>
        <time>2022-11-20T09:41:20.000Z</time>
      </trkpt>
      <trkpt lat="37.085565" lon="-3.38170833">
        <ele>2656.0</ele>
        <time>2022-11-20T09:41:21.000Z</time>
      </trkpt>
      <trkpt lat="37.08556" lon="-3.38170167">
        <ele>2656.0</ele>
        <time>2022-11-20T09:41:22.000Z</time>
      </trkpt>
      <trkpt lat="37.08555833" lon="-3.38169833">
        <ele>2656.0</ele>
        <time>2022-11-20T09:41:23.000Z</time>
      </trkpt>
      <trkpt lat="37.08555167" lon="-3.38169167">
        <ele>2656.0</ele>
        <time>2022-11-20T09:41:24.000Z</time>
      </trkpt>
      <trkpt lat="37.085545" lon="-3.38168833">
        <ele>2656.0</ele>
        <time>2022-11-20T09:41:25.000Z</time>
      </trkpt>
      <trkpt lat="37.08554" lon="-3.38169">
        <ele>2656.0</ele>
        <time>2022-11-20T09:41:26.000Z</time>
      </trkpt>
      <trkpt lat="37.08553333" lon="-3.38169167">
        <ele>2657.0</ele>
        <time>2022-11-20T09:41:27.000Z</time>
      </trkpt>
      <trkpt lat="37.08553" lon="-3.38169167">
        <ele>2657.0</ele>
        <time>2022-11-20T09:41:28.000Z</time>
      </trkpt>
      <trkpt lat="37.085525" lon="-3.38169">
        <ele>2657.0</ele>
        <time>2022-11-20T09:41:29.000Z</time>
      </trkpt>
      <trkpt lat="37.08552" lon="-3.38168833">
        <ele>2657.0</ele>
        <time>2022-11-20T09:41:30.000Z</time>
      </trkpt>
      <trkpt lat="37.08551333" lon="-3.38168667">
        <ele>2657.0</ele>
        <time>2022-11-20T09:41:31.000Z</time>
      </trkpt>
      <trkpt lat="37.08550667" lon="-3.38168333">
        <ele>2657.0</ele>
        <time>2022-11-20T09:41:32.000Z</time>
      </trkpt>
      <trkpt lat="37.0855" lon="-3.38167833">
        <ele>2658.0</ele>
        <time>2022-11-20T09:41:33.000Z</time>
      </trkpt>
      <trkpt lat="37.08549667" lon="-3.38167333">
        <ele>2658.0</ele>
        <time>2022-11-20T09:41:34.000Z</time>
      </trkpt>
      <trkpt lat="37.08549167" lon="-3.38166667">
        <ele>2658.0</ele>
        <time>2022-11-20T09:41:35.000Z</time>
      </trkpt>
      <trkpt lat="37.08548667" lon="-3.38166167">
        <ele>2658.0</ele>
        <time>2022-11-20T09:41:36.000Z</time>
      </trkpt>
      <trkpt lat="37.08548" lon="-3.38165667">
        <ele>2658.0</ele>
        <time>2022-11-20T09:41:37.000Z</time>
      </trkpt>
      <trkpt lat="37.08547333" lon="-3.38165">
        <ele>2658.0</ele>
        <time>2022-11-20T09:41:38.000Z</time>
      </trkpt>
      <trkpt lat="37.08546667" lon="-3.381645">
        <ele>2658.0</ele>
        <time>2022-11-20T09:41:39.000Z</time>
      </trkpt>
      <trkpt lat="37.08546" lon="-3.38164">
        <ele>2658.0</ele>
        <time>2022-11-20T09:41:40.000Z</time>
      </trkpt>
      <trkpt lat="37.085455" lon="-3.38163333">
        <ele>2658.0</ele>
        <time>2022-11-20T09:41:41.000Z</time>
      </trkpt>
      <trkpt lat="37.08545" lon="-3.38162667">
        <ele>2658.0</ele>
        <time>2022-11-20T09:41:42.000Z</time>
      </trkpt>
      <trkpt lat="37.08544167" lon="-3.38162">
        <ele>2658.0</ele>
        <time>2022-11-20T09:41:43.000Z</time>
      </trkpt>
      <trkpt lat="37.08543667" lon="-3.38161667">
        <ele>2659.0</ele>
        <time>2022-11-20T09:41:44.000Z</time>
      </trkpt>
      <trkpt lat="37.08543167" lon="-3.38161333">
        <ele>2659.0</ele>
        <time>2022-11-20T09:41:45.000Z</time>
      </trkpt>
      <trkpt lat="37.085425" lon="-3.38161167">
        <ele>2659.0</ele>
        <time>2022-11-20T09:41:46.000Z</time>
      </trkpt>
      <trkpt lat="37.08542" lon="-3.38161167">
        <ele>2659.0</ele>
        <time>2022-11-20T09:41:47.000Z</time>
      </trkpt>
      <trkpt lat="37.08541667" lon="-3.38161167">
        <ele>2659.0</ele>
        <time>2022-11-20T09:41:48.000Z</time>
      </trkpt>
      <trkpt lat="37.08540833" lon="-3.38161167">
        <ele>2659.0</ele>
        <time>2022-11-20T09:41:49.000Z</time>
      </trkpt>
      <trkpt lat="37.08540333" lon="-3.38161">
        <ele>2659.0</ele>
        <time>2022-11-20T09:41:50.000Z</time>
      </trkpt>
      <trkpt lat="37.085395" lon="-3.381605">
        <ele>2659.0</ele>
        <time>2022-11-20T09:41:51.000Z</time>
      </trkpt>
      <trkpt lat="37.08538833" lon="-3.38160167">
        <ele>2659.0</ele>
        <time>2022-11-20T09:41:52.000Z</time>
      </trkpt>
      <trkpt lat="37.08538167" lon="-3.38159833">
        <ele>2660.0</ele>
        <time>2022-11-20T09:41:53.000Z</time>
      </trkpt>
      <trkpt lat="37.08537833" lon="-3.38159667">
        <ele>2660.0</ele>
        <time>2022-11-20T09:41:54.000Z</time>
      </trkpt>
      <trkpt lat="37.08537" lon="-3.381595">
        <ele>2660.0</ele>
        <time>2022-11-20T09:41:55.000Z</time>
      </trkpt>
      <trkpt lat="37.08536167" lon="-3.38159833">
        <ele>2660.0</ele>
        <time>2022-11-20T09:41:56.000Z</time>
      </trkpt>
      <trkpt lat="37.08535167" lon="-3.3816">
        <ele>2660.0</ele>
        <time>2022-11-20T09:41:57.000Z</time>
      </trkpt>
      <trkpt lat="37.08534167" lon="-3.3816">
        <ele>2660.0</ele>
        <time>2022-11-20T09:41:58.000Z</time>
      </trkpt>
      <trkpt lat="37.08533" lon="-3.3816">
        <ele>2660.0</ele>
        <time>2022-11-20T09:41:59.000Z</time>
      </trkpt>
      <trkpt lat="37.08532333" lon="-3.38159667">
        <ele>2660.0</ele>
        <time>2022-11-20T09:42:00.000Z</time>
      </trkpt>
      <trkpt lat="37.08531667" lon="-3.38159167">
        <ele>2660.0</ele>
        <time>2022-11-20T09:42:01.000Z</time>
      </trkpt>
      <trkpt lat="37.08531167" lon="-3.38159">
        <ele>2661.0</ele>
        <time>2022-11-20T09:42:02.000Z</time>
      </trkpt>
      <trkpt lat="37.085305" lon="-3.38159">
        <ele>2661.0</ele>
        <time>2022-11-20T09:42:03.000Z</time>
      </trkpt>
      <trkpt lat="37.08530167" lon="-3.381585">
        <ele>2661.0</ele>
        <time>2022-11-20T09:42:04.000Z</time>
      </trkpt>
      <trkpt lat="37.0853" lon="-3.38158333">
        <ele>2661.0</ele>
        <time>2022-11-20T09:42:05.000Z</time>
      </trkpt>
      <trkpt lat="37.08529667" lon="-3.38158333">
        <ele>2661.0</ele>
        <time>2022-11-20T09:42:06.000Z</time>
      </trkpt>
      <trkpt lat="37.085295" lon="-3.38158333">
        <ele>2661.0</ele>
        <time>2022-11-20T09:42:07.000Z</time>
      </trkpt>
      <trkpt lat="37.08529" lon="-3.38158167">
        <ele>2662.0</ele>
        <time>2022-11-20T09:42:08.000Z</time>
      </trkpt>
      <trkpt lat="37.08528667" lon="-3.38158333">
        <ele>2662.0</ele>
        <time>2022-11-20T09:42:09.000Z</time>
      </trkpt>
      <trkpt lat="37.08528167" lon="-3.38158333">
        <ele>2662.0</ele>
        <time>2022-11-20T09:42:10.000Z</time>
      </trkpt>
      <trkpt lat="37.08528" lon="-3.38158333">
        <ele>2662.0</ele>
        <time>2022-11-20T09:42:11.000Z</time>
      </trkpt>
      <trkpt lat="37.08527333" lon="-3.38158167">
        <ele>2662.0</ele>
        <time>2022-11-20T09:42:12.000Z</time>
      </trkpt>
      <trkpt lat="37.08526833" lon="-3.38158333">
        <ele>2662.0</ele>
        <time>2022-11-20T09:42:13.000Z</time>
      </trkpt>
      <trkpt lat="37.08526333" lon="-3.381585">
        <ele>2662.0</ele>
        <time>2022-11-20T09:42:14.000Z</time>
      </trkpt>
      <trkpt lat="37.08525833" lon="-3.38159167">
        <ele>2663.0</ele>
        <time>2022-11-20T09:42:15.000Z</time>
      </trkpt>
      <trkpt lat="37.085255" lon="-3.38159667">
        <ele>2663.0</ele>
        <time>2022-11-20T09:42:16.000Z</time>
      </trkpt>
      <trkpt lat="37.08525333" lon="-3.38160167">
        <ele>2663.0</ele>
        <time>2022-11-20T09:42:17.000Z</time>
      </trkpt>
      <trkpt lat="37.085245" lon="-3.38160667">
        <ele>2663.0</ele>
        <time>2022-11-20T09:42:18.000Z</time>
      </trkpt>
      <trkpt lat="37.08523833" lon="-3.38160833">
        <ele>2663.0</ele>
        <time>2022-11-20T09:42:19.000Z</time>
      </trkpt>
      <trkpt lat="37.08523167" lon="-3.38161">
        <ele>2663.0</ele>
        <time>2022-11-20T09:42:20.000Z</time>
      </trkpt>
      <trkpt lat="37.08522333" lon="-3.38160667">
        <ele>2663.0</ele>
        <time>2022-11-20T09:42:21.000Z</time>
      </trkpt>
      <trkpt lat="37.085215" lon="-3.38160333">
        <ele>2664.0</ele>
        <time>2022-11-20T09:42:22.000Z</time>
      </trkpt>
      <trkpt lat="37.08520667" lon="-3.3816">
        <ele>2664.0</ele>
        <time>2022-11-20T09:42:23.000Z</time>
      </trkpt>
      <trkpt lat="37.0852" lon="-3.381595">
        <ele>2664.0</ele>
        <time>2022-11-20T09:42:24.000Z</time>
      </trkpt>
      <trkpt lat="37.08519333" lon="-3.38159">
        <ele>2664.0</ele>
        <time>2022-11-20T09:42:25.000Z</time>
      </trkpt>
      <trkpt lat="37.08518167" lon="-3.381585">
        <ele>2664.0</ele>
        <time>2022-11-20T09:42:26.000Z</time>
      </trkpt>
      <trkpt lat="37.085175" lon="-3.38158">
        <ele>2664.0</ele>
        <time>2022-11-20T09:42:27.000Z</time>
      </trkpt>
      <trkpt lat="37.08517" lon="-3.38157667">
        <ele>2664.0</ele>
        <time>2022-11-20T09:42:28.000Z</time>
      </trkpt>
      <trkpt lat="37.08516167" lon="-3.38157333">
        <ele>2664.0</ele>
        <time>2022-11-20T09:42:29.000Z</time>
      </trkpt>
      <trkpt lat="37.08515667" lon="-3.38157">
        <ele>2664.0</ele>
        <time>2022-11-20T09:42:30.000Z</time>
      </trkpt>
      <trkpt lat="37.08515" lon="-3.381565">
        <ele>2664.0</ele>
        <time>2022-11-20T09:42:31.000Z</time>
      </trkpt>
      <trkpt lat="37.085145" lon="-3.38155833">
        <ele>2664.0</ele>
        <time>2022-11-20T09:42:32.000Z</time>
      </trkpt>
      <trkpt lat="37.08513833" lon="-3.38155">
        <ele>2664.0</ele>
        <time>2022-11-20T09:42:33.000Z</time>
      </trkpt>
      <trkpt lat="37.08513167" lon="-3.38154333">
        <ele>2665.0</ele>
        <time>2022-11-20T09:42:34.000Z</time>
      </trkpt>
      <trkpt lat="37.08512833" lon="-3.38153667">
        <ele>2665.0</ele>
        <time>2022-11-20T09:42:35.000Z</time>
      </trkpt>
      <trkpt lat="37.08512333" lon="-3.38153167">
        <ele>2665.0</ele>
        <time>2022-11-20T09:42:36.000Z</time>
      </trkpt>
      <trkpt lat="37.08511667" lon="-3.38152667">
        <ele>2665.0</ele>
        <time>2022-11-20T09:42:37.000Z</time>
      </trkpt>
      <trkpt lat="37.08511167" lon="-3.38152">
        <ele>2665.0</ele>
        <time>2022-11-20T09:42:38.000Z</time>
      </trkpt>
      <trkpt lat="37.08510833" lon="-3.38151333">
        <ele>2665.0</ele>
        <time>2022-11-20T09:42:39.000Z</time>
      </trkpt>
      <trkpt lat="37.08510167" lon="-3.381505">
        <ele>2665.0</ele>
        <time>2022-11-20T09:42:40.000Z</time>
      </trkpt>
      <trkpt lat="37.08509667" lon="-3.3815">
        <ele>2665.0</ele>
        <time>2022-11-20T09:42:41.000Z</time>
      </trkpt>
      <trkpt lat="37.08508833" lon="-3.38149333">
        <ele>2665.0</ele>
        <time>2022-11-20T09:42:42.000Z</time>
      </trkpt>
      <trkpt lat="37.08508333" lon="-3.38148833">
        <ele>2665.0</ele>
        <time>2022-11-20T09:42:43.000Z</time>
      </trkpt>
      <trkpt lat="37.085075" lon="-3.38148167">
        <ele>2665.0</ele>
        <time>2022-11-20T09:42:44.000Z</time>
      </trkpt>
      <trkpt lat="37.08506833" lon="-3.381475">
        <ele>2665.0</ele>
        <time>2022-11-20T09:42:45.000Z</time>
      </trkpt>
      <trkpt lat="37.08506333" lon="-3.38146833">
        <ele>2665.0</ele>
        <time>2022-11-20T09:42:46.000Z</time>
      </trkpt>
      <trkpt lat="37.085055" lon="-3.38146167">
        <ele>2665.0</ele>
        <time>2022-11-20T09:42:47.000Z</time>
      </trkpt>
      <trkpt lat="37.08504833" lon="-3.381455">
        <ele>2665.0</ele>
        <time>2022-11-20T09:42:48.000Z</time>
      </trkpt>
      <trkpt lat="37.08504333" lon="-3.38145">
        <ele>2665.0</ele>
        <time>2022-11-20T09:42:49.000Z</time>
      </trkpt>
      <trkpt lat="37.08503667" lon="-3.38144333">
        <ele>2665.0</ele>
        <time>2022-11-20T09:42:50.000Z</time>
      </trkpt>
      <trkpt lat="37.08503167" lon="-3.38144">
        <ele>2665.0</ele>
        <time>2022-11-20T09:42:51.000Z</time>
      </trkpt>
      <trkpt lat="37.08502" lon="-3.38143833">
        <ele>2665.0</ele>
        <time>2022-11-20T09:42:52.000Z</time>
      </trkpt>
      <trkpt lat="37.08501167" lon="-3.38143667">
        <ele>2665.0</ele>
        <time>2022-11-20T09:42:53.000Z</time>
      </trkpt>
      <trkpt lat="37.08500333" lon="-3.381435">
        <ele>2666.0</ele>
        <time>2022-11-20T09:42:54.000Z</time>
      </trkpt>
      <trkpt lat="37.084995" lon="-3.38143167">
        <ele>2666.0</ele>
        <time>2022-11-20T09:42:55.000Z</time>
      </trkpt>
      <trkpt lat="37.08498833" lon="-3.38142833">
        <ele>2666.0</ele>
        <time>2022-11-20T09:42:56.000Z</time>
      </trkpt>
      <trkpt lat="37.08497833" lon="-3.381425">
        <ele>2666.0</ele>
        <time>2022-11-20T09:42:57.000Z</time>
      </trkpt>
      <trkpt lat="37.08497167" lon="-3.38141833">
        <ele>2666.0</ele>
        <time>2022-11-20T09:42:58.000Z</time>
      </trkpt>
      <trkpt lat="37.084965" lon="-3.38141167">
        <ele>2666.0</ele>
        <time>2022-11-20T09:42:59.000Z</time>
      </trkpt>
      <trkpt lat="37.08495833" lon="-3.381405">
        <ele>2666.0</ele>
        <time>2022-11-20T09:43:00.000Z</time>
      </trkpt>
      <trkpt lat="37.08495167" lon="-3.38140333">
        <ele>2666.0</ele>
        <time>2022-11-20T09:43:01.000Z</time>
      </trkpt>
      <trkpt lat="37.08494167" lon="-3.38140167">
        <ele>2666.0</ele>
        <time>2022-11-20T09:43:02.000Z</time>
      </trkpt>
      <trkpt lat="37.08493333" lon="-3.38139667">
        <ele>2666.0</ele>
        <time>2022-11-20T09:43:03.000Z</time>
      </trkpt>
      <trkpt lat="37.08492667" lon="-3.38139167">
        <ele>2666.0</ele>
        <time>2022-11-20T09:43:04.000Z</time>
      </trkpt>
      <trkpt lat="37.08492167" lon="-3.38138833">
        <ele>2666.0</ele>
        <time>2022-11-20T09:43:05.000Z</time>
      </trkpt>
      <trkpt lat="37.084915" lon="-3.38138167">
        <ele>2666.0</ele>
        <time>2022-11-20T09:43:06.000Z</time>
      </trkpt>
      <trkpt lat="37.08491167" lon="-3.38137167">
        <ele>2666.0</ele>
        <time>2022-11-20T09:43:07.000Z</time>
      </trkpt>
      <trkpt lat="37.08490667" lon="-3.38136333">
        <ele>2666.0</ele>
        <time>2022-11-20T09:43:08.000Z</time>
      </trkpt>
      <trkpt lat="37.08490167" lon="-3.38135167">
        <ele>2666.0</ele>
        <time>2022-11-20T09:43:09.000Z</time>
      </trkpt>
      <trkpt lat="37.084895" lon="-3.38134">
        <ele>2666.0</ele>
        <time>2022-11-20T09:43:10.000Z</time>
      </trkpt>
      <trkpt lat="37.08489" lon="-3.38133167">
        <ele>2666.0</ele>
        <time>2022-11-20T09:43:11.000Z</time>
      </trkpt>
      <trkpt lat="37.08488333" lon="-3.38132667">
        <ele>2666.0</ele>
        <time>2022-11-20T09:43:12.000Z</time>
      </trkpt>
      <trkpt lat="37.084875" lon="-3.38131833">
        <ele>2666.0</ele>
        <time>2022-11-20T09:43:13.000Z</time>
      </trkpt>
      <trkpt lat="37.08486833" lon="-3.38131">
        <ele>2666.0</ele>
        <time>2022-11-20T09:43:14.000Z</time>
      </trkpt>
      <trkpt lat="37.08486" lon="-3.38130167">
        <ele>2666.0</ele>
        <time>2022-11-20T09:43:15.000Z</time>
      </trkpt>
      <trkpt lat="37.08485167" lon="-3.381295">
        <ele>2666.0</ele>
        <time>2022-11-20T09:43:16.000Z</time>
      </trkpt>
      <trkpt lat="37.08484167" lon="-3.38128833">
        <ele>2666.0</ele>
        <time>2022-11-20T09:43:17.000Z</time>
      </trkpt>
      <trkpt lat="37.08483667" lon="-3.38128167">
        <ele>2667.0</ele>
        <time>2022-11-20T09:43:18.000Z</time>
      </trkpt>
      <trkpt lat="37.08483167" lon="-3.38127167">
        <ele>2667.0</ele>
        <time>2022-11-20T09:43:19.000Z</time>
      </trkpt>
      <trkpt lat="37.084825" lon="-3.38126333">
        <ele>2667.0</ele>
        <time>2022-11-20T09:43:20.000Z</time>
      </trkpt>
      <trkpt lat="37.08481667" lon="-3.38125">
        <ele>2667.0</ele>
        <time>2022-11-20T09:43:21.000Z</time>
      </trkpt>
      <trkpt lat="37.08481" lon="-3.38124">
        <ele>2667.0</ele>
        <time>2022-11-20T09:43:22.000Z</time>
      </trkpt>
      <trkpt lat="37.084805" lon="-3.38123">
        <ele>2667.0</ele>
        <time>2022-11-20T09:43:23.000Z</time>
      </trkpt>
      <trkpt lat="37.0848" lon="-3.38122167">
        <ele>2667.0</ele>
        <time>2022-11-20T09:43:24.000Z</time>
      </trkpt>
      <trkpt lat="37.08479333" lon="-3.38121">
        <ele>2667.0</ele>
        <time>2022-11-20T09:43:25.000Z</time>
      </trkpt>
      <trkpt lat="37.08479" lon="-3.38119833">
        <ele>2667.0</ele>
        <time>2022-11-20T09:43:26.000Z</time>
      </trkpt>
      <trkpt lat="37.084785" lon="-3.38118667">
        <ele>2667.0</ele>
        <time>2022-11-20T09:43:27.000Z</time>
      </trkpt>
      <trkpt lat="37.08478" lon="-3.381175">
        <ele>2667.0</ele>
        <time>2022-11-20T09:43:28.000Z</time>
      </trkpt>
      <trkpt lat="37.08477833" lon="-3.381165">
        <ele>2667.0</ele>
        <time>2022-11-20T09:43:29.000Z</time>
      </trkpt>
      <trkpt lat="37.08477667" lon="-3.38115333">
        <ele>2667.0</ele>
        <time>2022-11-20T09:43:30.000Z</time>
      </trkpt>
      <trkpt lat="37.08477667" lon="-3.38114333">
        <ele>2667.0</ele>
        <time>2022-11-20T09:43:31.000Z</time>
      </trkpt>
      <trkpt lat="37.08478" lon="-3.38113167">
        <ele>2667.0</ele>
        <time>2022-11-20T09:43:32.000Z</time>
      </trkpt>
      <trkpt lat="37.08478167" lon="-3.38112167">
        <ele>2667.0</ele>
        <time>2022-11-20T09:43:33.000Z</time>
      </trkpt>
      <trkpt lat="37.08478333" lon="-3.38111">
        <ele>2667.0</ele>
        <time>2022-11-20T09:43:34.000Z</time>
      </trkpt>
      <trkpt lat="37.08478333" lon="-3.38110167">
        <ele>2667.0</ele>
        <time>2022-11-20T09:43:35.000Z</time>
      </trkpt>
      <trkpt lat="37.08478167" lon="-3.38109167">
        <ele>2667.0</ele>
        <time>2022-11-20T09:43:36.000Z</time>
      </trkpt>
      <trkpt lat="37.08477833" lon="-3.38108167">
        <ele>2668.0</ele>
        <time>2022-11-20T09:43:37.000Z</time>
      </trkpt>
      <trkpt lat="37.084775" lon="-3.38107">
        <ele>2667.0</ele>
        <time>2022-11-20T09:43:38.000Z</time>
      </trkpt>
      <trkpt lat="37.08477167" lon="-3.38106">
        <ele>2668.0</ele>
        <time>2022-11-20T09:43:39.000Z</time>
      </trkpt>
      <trkpt lat="37.08476833" lon="-3.38105">
        <ele>2668.0</ele>
        <time>2022-11-20T09:43:40.000Z</time>
      </trkpt>
      <trkpt lat="37.08476333" lon="-3.38103833">
        <ele>2668.0</ele>
        <time>2022-11-20T09:43:41.000Z</time>
      </trkpt>
      <trkpt lat="37.08476167" lon="-3.38102667">
        <ele>2668.0</ele>
        <time>2022-11-20T09:43:42.000Z</time>
      </trkpt>
      <trkpt lat="37.08475833" lon="-3.381015">
        <ele>2668.0</ele>
        <time>2022-11-20T09:43:43.000Z</time>
      </trkpt>
      <trkpt lat="37.084755" lon="-3.38100333">
        <ele>2668.0</ele>
        <time>2022-11-20T09:43:44.000Z</time>
      </trkpt>
      <trkpt lat="37.08475167" lon="-3.38099167">
        <ele>2668.0</ele>
        <time>2022-11-20T09:43:45.000Z</time>
      </trkpt>
      <trkpt lat="37.08474833" lon="-3.38098167">
        <ele>2668.0</ele>
        <time>2022-11-20T09:43:46.000Z</time>
      </trkpt>
      <trkpt lat="37.084745" lon="-3.38097">
        <ele>2668.0</ele>
        <time>2022-11-20T09:43:47.000Z</time>
      </trkpt>
      <trkpt lat="37.08474167" lon="-3.38095833">
        <ele>2668.0</ele>
        <time>2022-11-20T09:43:48.000Z</time>
      </trkpt>
      <trkpt lat="37.08473667" lon="-3.38094833">
        <ele>2668.0</ele>
        <time>2022-11-20T09:43:49.000Z</time>
      </trkpt>
      <trkpt lat="37.084735" lon="-3.380935">
        <ele>2668.0</ele>
        <time>2022-11-20T09:43:50.000Z</time>
      </trkpt>
      <trkpt lat="37.084735" lon="-3.38092333">
        <ele>2668.0</ele>
        <time>2022-11-20T09:43:51.000Z</time>
      </trkpt>
      <trkpt lat="37.08473333" lon="-3.38091167">
        <ele>2669.0</ele>
        <time>2022-11-20T09:43:52.000Z</time>
      </trkpt>
      <trkpt lat="37.08473" lon="-3.38090167">
        <ele>2669.0</ele>
        <time>2022-11-20T09:43:53.000Z</time>
      </trkpt>
      <trkpt lat="37.08472833" lon="-3.38089167">
        <ele>2669.0</ele>
        <time>2022-11-20T09:43:54.000Z</time>
      </trkpt>
      <trkpt lat="37.08472667" lon="-3.38088">
        <ele>2669.0</ele>
        <time>2022-11-20T09:43:55.000Z</time>
      </trkpt>
      <trkpt lat="37.08472833" lon="-3.38087833">
        <ele>2669.0</ele>
        <time>2022-11-20T09:43:56.000Z</time>
      </trkpt>
      <trkpt lat="37.08472667" lon="-3.380875">
        <ele>2669.0</ele>
        <time>2022-11-20T09:43:57.000Z</time>
      </trkpt>
      <trkpt lat="37.084725" lon="-3.380875">
        <ele>2669.0</ele>
        <time>2022-11-20T09:43:58.000Z</time>
      </trkpt>
      <trkpt lat="37.084725" lon="-3.380875">
        <ele>2669.0</ele>
        <time>2022-11-20T09:43:59.000Z</time>
      </trkpt>
      <trkpt lat="37.084725" lon="-3.380875">
        <ele>2669.0</ele>
        <time>2022-11-20T09:44:00.000Z</time>
      </trkpt>
      <trkpt lat="37.08472667" lon="-3.380875">
        <ele>2669.0</ele>
        <time>2022-11-20T09:44:01.000Z</time>
      </trkpt>
      <trkpt lat="37.08472667" lon="-3.380875">
        <ele>2669.0</ele>
        <time>2022-11-20T09:44:02.000Z</time>
      </trkpt>
      <trkpt lat="37.08472667" lon="-3.380875">
        <ele>2669.0</ele>
        <time>2022-11-20T09:44:03.000Z</time>
      </trkpt>
      <trkpt lat="37.08472667" lon="-3.380875">
        <ele>2669.0</ele>
        <time>2022-11-20T09:44:04.000Z</time>
      </trkpt>
      <trkpt lat="37.08472667" lon="-3.380875">
        <ele>2669.0</ele>
        <time>2022-11-20T09:44:05.000Z</time>
      </trkpt>
      <trkpt lat="37.08472667" lon="-3.38087333">
        <ele>2669.0</ele>
        <time>2022-11-20T09:44:06.000Z</time>
      </trkpt>
      <trkpt lat="37.084725" lon="-3.38087">
        <ele>2669.0</ele>
        <time>2022-11-20T09:44:07.000Z</time>
      </trkpt>
      <trkpt lat="37.08472" lon="-3.38086333">
        <ele>2669.0</ele>
        <time>2022-11-20T09:44:08.000Z</time>
      </trkpt>
      <trkpt lat="37.08471333" lon="-3.380855">
        <ele>2669.0</ele>
        <time>2022-11-20T09:44:09.000Z</time>
      </trkpt>
      <trkpt lat="37.08470667" lon="-3.38084667">
        <ele>2669.0</ele>
        <time>2022-11-20T09:44:10.000Z</time>
      </trkpt>
      <trkpt lat="37.08470167" lon="-3.38083833">
        <ele>2669.0</ele>
        <time>2022-11-20T09:44:11.000Z</time>
      </trkpt>
      <trkpt lat="37.08469833" lon="-3.38083">
        <ele>2669.0</ele>
        <time>2022-11-20T09:44:12.000Z</time>
      </trkpt>
      <trkpt lat="37.084695" lon="-3.38082333">
        <ele>2669.0</ele>
        <time>2022-11-20T09:44:13.000Z</time>
      </trkpt>
      <trkpt lat="37.08469167" lon="-3.380815">
        <ele>2669.0</ele>
        <time>2022-11-20T09:44:14.000Z</time>
      </trkpt>
      <trkpt lat="37.08468833" lon="-3.38080833">
        <ele>2669.0</ele>
        <time>2022-11-20T09:44:15.000Z</time>
      </trkpt>
      <trkpt lat="37.08468833" lon="-3.38079833">
        <ele>2669.0</ele>
        <time>2022-11-20T09:44:16.000Z</time>
      </trkpt>
      <trkpt lat="37.08469167" lon="-3.38079">
        <ele>2669.0</ele>
        <time>2022-11-20T09:44:17.000Z</time>
      </trkpt>
      <trkpt lat="37.08469333" lon="-3.38078">
        <ele>2670.0</ele>
        <time>2022-11-20T09:44:18.000Z</time>
      </trkpt>
      <trkpt lat="37.08469333" lon="-3.380775">
        <ele>2670.0</ele>
        <time>2022-11-20T09:44:19.000Z</time>
      </trkpt>
      <trkpt lat="37.08469167" lon="-3.380765">
        <ele>2670.0</ele>
        <time>2022-11-20T09:44:20.000Z</time>
      </trkpt>
      <trkpt lat="37.08468833" lon="-3.38075833">
        <ele>2670.0</ele>
        <time>2022-11-20T09:44:21.000Z</time>
      </trkpt>
      <trkpt lat="37.08468667" lon="-3.38075667">
        <ele>2670.0</ele>
        <time>2022-11-20T09:44:22.000Z</time>
      </trkpt>
      <trkpt lat="37.08468667" lon="-3.380755">
        <ele>2670.0</ele>
        <time>2022-11-20T09:44:23.000Z</time>
      </trkpt>
      <trkpt lat="37.08468833" lon="-3.380755">
        <ele>2670.0</ele>
        <time>2022-11-20T09:44:24.000Z</time>
      </trkpt>
      <trkpt lat="37.08468667" lon="-3.380755">
        <ele>2670.0</ele>
        <time>2022-11-20T09:44:25.000Z</time>
      </trkpt>
      <trkpt lat="37.08468167" lon="-3.38075333">
        <ele>2670.0</ele>
        <time>2022-11-20T09:44:26.000Z</time>
      </trkpt>
      <trkpt lat="37.08467167" lon="-3.38075167">
        <ele>2670.0</ele>
        <time>2022-11-20T09:44:27.000Z</time>
      </trkpt>
      <trkpt lat="37.08466167" lon="-3.38075333">
        <ele>2670.0</ele>
        <time>2022-11-20T09:44:28.000Z</time>
      </trkpt>
      <trkpt lat="37.08465333" lon="-3.38075167">
        <ele>2670.0</ele>
        <time>2022-11-20T09:44:29.000Z</time>
      </trkpt>
      <trkpt lat="37.08464667" lon="-3.38075167">
        <ele>2670.0</ele>
        <time>2022-11-20T09:44:30.000Z</time>
      </trkpt>
      <trkpt lat="37.08464" lon="-3.38075333">
        <ele>2670.0</ele>
        <time>2022-11-20T09:44:31.000Z</time>
      </trkpt>
      <trkpt lat="37.08463167" lon="-3.38075333">
        <ele>2670.0</ele>
        <time>2022-11-20T09:44:32.000Z</time>
      </trkpt>
      <trkpt lat="37.08462333" lon="-3.38075167">
        <ele>2670.0</ele>
        <time>2022-11-20T09:44:33.000Z</time>
      </trkpt>
      <trkpt lat="37.08461333" lon="-3.38075">
        <ele>2670.0</ele>
        <time>2022-11-20T09:44:34.000Z</time>
      </trkpt>
      <trkpt lat="37.08460833" lon="-3.38074667">
        <ele>2670.0</ele>
        <time>2022-11-20T09:44:35.000Z</time>
      </trkpt>
      <trkpt lat="37.084605" lon="-3.38074">
        <ele>2670.0</ele>
        <time>2022-11-20T09:44:36.000Z</time>
      </trkpt>
      <trkpt lat="37.08460167" lon="-3.38073667">
        <ele>2671.0</ele>
        <time>2022-11-20T09:44:37.000Z</time>
      </trkpt>
      <trkpt lat="37.08459667" lon="-3.380735">
        <ele>2671.0</ele>
        <time>2022-11-20T09:44:38.000Z</time>
      </trkpt>
      <trkpt lat="37.08459" lon="-3.38073">
        <ele>2671.0</ele>
        <time>2022-11-20T09:44:39.000Z</time>
      </trkpt>
      <trkpt lat="37.08458667" lon="-3.38072833">
        <ele>2671.0</ele>
        <time>2022-11-20T09:44:40.000Z</time>
      </trkpt>
      <trkpt lat="37.08458167" lon="-3.38072333">
        <ele>2671.0</ele>
        <time>2022-11-20T09:44:41.000Z</time>
      </trkpt>
      <trkpt lat="37.08457667" lon="-3.38072">
        <ele>2671.0</ele>
        <time>2022-11-20T09:44:42.000Z</time>
      </trkpt>
      <trkpt lat="37.08457" lon="-3.380715">
        <ele>2671.0</ele>
        <time>2022-11-20T09:44:43.000Z</time>
      </trkpt>
      <trkpt lat="37.08456667" lon="-3.38071">
        <ele>2672.0</ele>
        <time>2022-11-20T09:44:44.000Z</time>
      </trkpt>
      <trkpt lat="37.08456167" lon="-3.38070333">
        <ele>2672.0</ele>
        <time>2022-11-20T09:44:45.000Z</time>
      </trkpt>
      <trkpt lat="37.08455833" lon="-3.38069667">
        <ele>2672.0</ele>
        <time>2022-11-20T09:44:46.000Z</time>
      </trkpt>
      <trkpt lat="37.084555" lon="-3.38069">
        <ele>2672.0</ele>
        <time>2022-11-20T09:44:47.000Z</time>
      </trkpt>
      <trkpt lat="37.08455" lon="-3.38068333">
        <ele>2672.0</ele>
        <time>2022-11-20T09:44:48.000Z</time>
      </trkpt>
      <trkpt lat="37.084545" lon="-3.38067833">
        <ele>2672.0</ele>
        <time>2022-11-20T09:44:49.000Z</time>
      </trkpt>
      <trkpt lat="37.08454" lon="-3.38067">
        <ele>2672.0</ele>
        <time>2022-11-20T09:44:50.000Z</time>
      </trkpt>
      <trkpt lat="37.084535" lon="-3.380665">
        <ele>2672.0</ele>
        <time>2022-11-20T09:44:51.000Z</time>
      </trkpt>
      <trkpt lat="37.08453" lon="-3.38065833">
        <ele>2672.0</ele>
        <time>2022-11-20T09:44:52.000Z</time>
      </trkpt>
      <trkpt lat="37.08452333" lon="-3.38065">
        <ele>2672.0</ele>
        <time>2022-11-20T09:44:53.000Z</time>
      </trkpt>
      <trkpt lat="37.08451833" lon="-3.38064167">
        <ele>2672.0</ele>
        <time>2022-11-20T09:44:54.000Z</time>
      </trkpt>
      <trkpt lat="37.08451167" lon="-3.38063333">
        <ele>2673.0</ele>
        <time>2022-11-20T09:44:55.000Z</time>
      </trkpt>
      <trkpt lat="37.084505" lon="-3.38062333">
        <ele>2673.0</ele>
        <time>2022-11-20T09:44:56.000Z</time>
      </trkpt>
      <trkpt lat="37.08450167" lon="-3.38061667">
        <ele>2673.0</ele>
        <time>2022-11-20T09:44:57.000Z</time>
      </trkpt>
      <trkpt lat="37.084495" lon="-3.380605">
        <ele>2673.0</ele>
        <time>2022-11-20T09:44:58.000Z</time>
      </trkpt>
      <trkpt lat="37.08449" lon="-3.38059833">
        <ele>2673.0</ele>
        <time>2022-11-20T09:44:59.000Z</time>
      </trkpt>
      <trkpt lat="37.084485" lon="-3.38059333">
        <ele>2673.0</ele>
        <time>2022-11-20T09:45:00.000Z</time>
      </trkpt>
      <trkpt lat="37.08448167" lon="-3.380585">
        <ele>2673.0</ele>
        <time>2022-11-20T09:45:01.000Z</time>
      </trkpt>
      <trkpt lat="37.08447667" lon="-3.38057667">
        <ele>2673.0</ele>
        <time>2022-11-20T09:45:02.000Z</time>
      </trkpt>
      <trkpt lat="37.08447167" lon="-3.38056833">
        <ele>2674.0</ele>
        <time>2022-11-20T09:45:03.000Z</time>
      </trkpt>
      <trkpt lat="37.08446667" lon="-3.38055833">
        <ele>2674.0</ele>
        <time>2022-11-20T09:45:04.000Z</time>
      </trkpt>
      <trkpt lat="37.08446333" lon="-3.38055333">
        <ele>2674.0</ele>
        <time>2022-11-20T09:45:05.000Z</time>
      </trkpt>
      <trkpt lat="37.08446" lon="-3.38054333">
        <ele>2674.0</ele>
        <time>2022-11-20T09:45:06.000Z</time>
      </trkpt>
      <trkpt lat="37.084455" lon="-3.380535">
        <ele>2674.0</ele>
        <time>2022-11-20T09:45:07.000Z</time>
      </trkpt>
      <trkpt lat="37.08445" lon="-3.38052833">
        <ele>2674.0</ele>
        <time>2022-11-20T09:45:08.000Z</time>
      </trkpt>
      <trkpt lat="37.084445" lon="-3.38052">
        <ele>2675.0</ele>
        <time>2022-11-20T09:45:09.000Z</time>
      </trkpt>
      <trkpt lat="37.08444333" lon="-3.380515">
        <ele>2675.0</ele>
        <time>2022-11-20T09:45:10.000Z</time>
      </trkpt>
      <trkpt lat="37.08443833" lon="-3.38050833">
        <ele>2675.0</ele>
        <time>2022-11-20T09:45:11.000Z</time>
      </trkpt>
      <trkpt lat="37.08443333" lon="-3.38050167">
        <ele>2675.0</ele>
        <time>2022-11-20T09:45:12.000Z</time>
      </trkpt>
      <trkpt lat="37.08443" lon="-3.38049833">
        <ele>2675.0</ele>
        <time>2022-11-20T09:45:13.000Z</time>
      </trkpt>
      <trkpt lat="37.08442333" lon="-3.38049167">
        <ele>2675.0</ele>
        <time>2022-11-20T09:45:14.000Z</time>
      </trkpt>
      <trkpt lat="37.08441833" lon="-3.380485">
        <ele>2675.0</ele>
        <time>2022-11-20T09:45:15.000Z</time>
      </trkpt>
      <trkpt lat="37.08441333" lon="-3.38047833">
        <ele>2676.0</ele>
        <time>2022-11-20T09:45:16.000Z</time>
      </trkpt>
      <trkpt lat="37.08440667" lon="-3.380475">
        <ele>2676.0</ele>
        <time>2022-11-20T09:45:17.000Z</time>
      </trkpt>
      <trkpt lat="37.08440333" lon="-3.38046833">
        <ele>2676.0</ele>
        <time>2022-11-20T09:45:18.000Z</time>
      </trkpt>
      <trkpt lat="37.08439667" lon="-3.38046333">
        <ele>2676.0</ele>
        <time>2022-11-20T09:45:19.000Z</time>
      </trkpt>
      <trkpt lat="37.08439167" lon="-3.380455">
        <ele>2676.0</ele>
        <time>2022-11-20T09:45:20.000Z</time>
      </trkpt>
      <trkpt lat="37.08438667" lon="-3.38044833">
        <ele>2676.0</ele>
        <time>2022-11-20T09:45:21.000Z</time>
      </trkpt>
      <trkpt lat="37.08438" lon="-3.38043833">
        <ele>2676.0</ele>
        <time>2022-11-20T09:45:22.000Z</time>
      </trkpt>
      <trkpt lat="37.084375" lon="-3.38043">
        <ele>2676.0</ele>
        <time>2022-11-20T09:45:23.000Z</time>
      </trkpt>
      <trkpt lat="37.08437167" lon="-3.38042333">
        <ele>2676.0</ele>
        <time>2022-11-20T09:45:24.000Z</time>
      </trkpt>
      <trkpt lat="37.084365" lon="-3.38041667">
        <ele>2676.0</ele>
        <time>2022-11-20T09:45:25.000Z</time>
      </trkpt>
      <trkpt lat="37.08435833" lon="-3.38040833">
        <ele>2676.0</ele>
        <time>2022-11-20T09:45:26.000Z</time>
      </trkpt>
      <trkpt lat="37.08435167" lon="-3.38040167">
        <ele>2676.0</ele>
        <time>2022-11-20T09:45:27.000Z</time>
      </trkpt>
      <trkpt lat="37.08434667" lon="-3.38039167">
        <ele>2676.0</ele>
        <time>2022-11-20T09:45:28.000Z</time>
      </trkpt>
      <trkpt lat="37.08434167" lon="-3.38038167">
        <ele>2677.0</ele>
        <time>2022-11-20T09:45:29.000Z</time>
      </trkpt>
      <trkpt lat="37.08433667" lon="-3.38037333">
        <ele>2677.0</ele>
        <time>2022-11-20T09:45:30.000Z</time>
      </trkpt>
      <trkpt lat="37.08433" lon="-3.380365">
        <ele>2677.0</ele>
        <time>2022-11-20T09:45:31.000Z</time>
      </trkpt>
      <trkpt lat="37.08432333" lon="-3.38035833">
        <ele>2677.0</ele>
        <time>2022-11-20T09:45:32.000Z</time>
      </trkpt>
      <trkpt lat="37.084315" lon="-3.38035">
        <ele>2677.0</ele>
        <time>2022-11-20T09:45:33.000Z</time>
      </trkpt>
      <trkpt lat="37.08431" lon="-3.38034333">
        <ele>2678.0</ele>
        <time>2022-11-20T09:45:34.000Z</time>
      </trkpt>
      <trkpt lat="37.08430333" lon="-3.38033667">
        <ele>2678.0</ele>
        <time>2022-11-20T09:45:35.000Z</time>
      </trkpt>
      <trkpt lat="37.08429667" lon="-3.38032833">
        <ele>2678.0</ele>
        <time>2022-11-20T09:45:36.000Z</time>
      </trkpt>
      <trkpt lat="37.08429167" lon="-3.38032333">
        <ele>2678.0</ele>
        <time>2022-11-20T09:45:37.000Z</time>
      </trkpt>
      <trkpt lat="37.08428333" lon="-3.38032">
        <ele>2679.0</ele>
        <time>2022-11-20T09:45:38.000Z</time>
      </trkpt>
      <trkpt lat="37.084275" lon="-3.38031833">
        <ele>2679.0</ele>
        <time>2022-11-20T09:45:39.000Z</time>
      </trkpt>
      <trkpt lat="37.08427" lon="-3.380315">
        <ele>2679.0</ele>
        <time>2022-11-20T09:45:40.000Z</time>
      </trkpt>
      <trkpt lat="37.084265" lon="-3.38031167">
        <ele>2679.0</ele>
        <time>2022-11-20T09:45:41.000Z</time>
      </trkpt>
      <trkpt lat="37.08425833" lon="-3.38030667">
        <ele>2679.0</ele>
        <time>2022-11-20T09:45:42.000Z</time>
      </trkpt>
      <trkpt lat="37.084255" lon="-3.380305">
        <ele>2680.0</ele>
        <time>2022-11-20T09:45:43.000Z</time>
      </trkpt>
      <trkpt lat="37.08424833" lon="-3.3803">
        <ele>2680.0</ele>
        <time>2022-11-20T09:45:44.000Z</time>
      </trkpt>
      <trkpt lat="37.08424333" lon="-3.38029667">
        <ele>2680.0</ele>
        <time>2022-11-20T09:45:45.000Z</time>
      </trkpt>
      <trkpt lat="37.08424" lon="-3.38029">
        <ele>2680.0</ele>
        <time>2022-11-20T09:45:46.000Z</time>
      </trkpt>
      <trkpt lat="37.08423667" lon="-3.38028333">
        <ele>2680.0</ele>
        <time>2022-11-20T09:45:47.000Z</time>
      </trkpt>
      <trkpt lat="37.08423" lon="-3.38028167">
        <ele>2680.0</ele>
        <time>2022-11-20T09:45:48.000Z</time>
      </trkpt>
      <trkpt lat="37.08422" lon="-3.38027833">
        <ele>2681.0</ele>
        <time>2022-11-20T09:45:49.000Z</time>
      </trkpt>
      <trkpt lat="37.08421167" lon="-3.38027833">
        <ele>2681.0</ele>
        <time>2022-11-20T09:45:50.000Z</time>
      </trkpt>
      <trkpt lat="37.08420333" lon="-3.38027667">
        <ele>2681.0</ele>
        <time>2022-11-20T09:45:51.000Z</time>
      </trkpt>
      <trkpt lat="37.084195" lon="-3.380275">
        <ele>2681.0</ele>
        <time>2022-11-20T09:45:52.000Z</time>
      </trkpt>
      <trkpt lat="37.084185" lon="-3.38027167">
        <ele>2681.0</ele>
        <time>2022-11-20T09:45:53.000Z</time>
      </trkpt>
      <trkpt lat="37.084175" lon="-3.380265">
        <ele>2681.0</ele>
        <time>2022-11-20T09:45:54.000Z</time>
      </trkpt>
      <trkpt lat="37.08416667" lon="-3.38025667">
        <ele>2681.0</ele>
        <time>2022-11-20T09:45:55.000Z</time>
      </trkpt>
      <trkpt lat="37.08416" lon="-3.38025">
        <ele>2681.0</ele>
        <time>2022-11-20T09:45:56.000Z</time>
      </trkpt>
      <trkpt lat="37.08415333" lon="-3.380245">
        <ele>2681.0</ele>
        <time>2022-11-20T09:45:57.000Z</time>
      </trkpt>
      <trkpt lat="37.08414833" lon="-3.38024167">
        <ele>2681.0</ele>
        <time>2022-11-20T09:45:58.000Z</time>
      </trkpt>
      <trkpt lat="37.08414167" lon="-3.38023833">
        <ele>2681.0</ele>
        <time>2022-11-20T09:45:59.000Z</time>
      </trkpt>
      <trkpt lat="37.084135" lon="-3.38023333">
        <ele>2682.0</ele>
        <time>2022-11-20T09:46:00.000Z</time>
      </trkpt>
      <trkpt lat="37.08412833" lon="-3.38022833">
        <ele>2682.0</ele>
        <time>2022-11-20T09:46:01.000Z</time>
      </trkpt>
      <trkpt lat="37.08412333" lon="-3.380225">
        <ele>2682.0</ele>
        <time>2022-11-20T09:46:02.000Z</time>
      </trkpt>
      <trkpt lat="37.08411833" lon="-3.38022333">
        <ele>2682.0</ele>
        <time>2022-11-20T09:46:03.000Z</time>
      </trkpt>
      <trkpt lat="37.08411167" lon="-3.38022167">
        <ele>2682.0</ele>
        <time>2022-11-20T09:46:04.000Z</time>
      </trkpt>
      <trkpt lat="37.08410167" lon="-3.38022">
        <ele>2682.0</ele>
        <time>2022-11-20T09:46:05.000Z</time>
      </trkpt>
      <trkpt lat="37.084095" lon="-3.38022167">
        <ele>2682.0</ele>
        <time>2022-11-20T09:46:06.000Z</time>
      </trkpt>
      <trkpt lat="37.08408333" lon="-3.38022333">
        <ele>2682.0</ele>
        <time>2022-11-20T09:46:07.000Z</time>
      </trkpt>
      <trkpt lat="37.08407333" lon="-3.38022333">
        <ele>2683.0</ele>
        <time>2022-11-20T09:46:08.000Z</time>
      </trkpt>
      <trkpt lat="37.08406667" lon="-3.38022333">
        <ele>2683.0</ele>
        <time>2022-11-20T09:46:09.000Z</time>
      </trkpt>
      <trkpt lat="37.08405667" lon="-3.380225">
        <ele>2683.0</ele>
        <time>2022-11-20T09:46:10.000Z</time>
      </trkpt>
      <trkpt lat="37.08404667" lon="-3.38022833">
        <ele>2683.0</ele>
        <time>2022-11-20T09:46:11.000Z</time>
      </trkpt>
      <trkpt lat="37.08403833" lon="-3.38023">
        <ele>2683.0</ele>
        <time>2022-11-20T09:46:12.000Z</time>
      </trkpt>
      <trkpt lat="37.08403" lon="-3.38023333">
        <ele>2683.0</ele>
        <time>2022-11-20T09:46:13.000Z</time>
      </trkpt>
      <trkpt lat="37.08401833" lon="-3.38023833">
        <ele>2683.0</ele>
        <time>2022-11-20T09:46:14.000Z</time>
      </trkpt>
      <trkpt lat="37.08400833" lon="-3.38024167">
        <ele>2683.0</ele>
        <time>2022-11-20T09:46:15.000Z</time>
      </trkpt>
      <trkpt lat="37.08399667" lon="-3.38024333">
        <ele>2683.0</ele>
        <time>2022-11-20T09:46:16.000Z</time>
      </trkpt>
      <trkpt lat="37.08398833" lon="-3.380245">
        <ele>2683.0</ele>
        <time>2022-11-20T09:46:17.000Z</time>
      </trkpt>
      <trkpt lat="37.08397833" lon="-3.380245">
        <ele>2683.0</ele>
        <time>2022-11-20T09:46:18.000Z</time>
      </trkpt>
      <trkpt lat="37.08397" lon="-3.380245">
        <ele>2683.0</ele>
        <time>2022-11-20T09:46:19.000Z</time>
      </trkpt>
      <trkpt lat="37.08396" lon="-3.380245">
        <ele>2683.0</ele>
        <time>2022-11-20T09:46:20.000Z</time>
      </trkpt>
      <trkpt lat="37.08395" lon="-3.38024667">
        <ele>2683.0</ele>
        <time>2022-11-20T09:46:21.000Z</time>
      </trkpt>
      <trkpt lat="37.08393833" lon="-3.380245">
        <ele>2684.0</ele>
        <time>2022-11-20T09:46:22.000Z</time>
      </trkpt>
      <trkpt lat="37.08393333" lon="-3.38024167">
        <ele>2684.0</ele>
        <time>2022-11-20T09:46:23.000Z</time>
      </trkpt>
      <trkpt lat="37.08393167" lon="-3.38024">
        <ele>2684.0</ele>
        <time>2022-11-20T09:46:24.000Z</time>
      </trkpt>
      <trkpt lat="37.08393167" lon="-3.38024">
        <ele>2684.0</ele>
        <time>2022-11-20T09:46:25.000Z</time>
      </trkpt>
      <trkpt lat="37.08393167" lon="-3.38024167">
        <ele>2684.0</ele>
        <time>2022-11-20T09:46:26.000Z</time>
      </trkpt>
      <trkpt lat="37.08393167" lon="-3.38024333">
        <ele>2684.0</ele>
        <time>2022-11-20T09:46:27.000Z</time>
      </trkpt>
      <trkpt lat="37.08393" lon="-3.38024667">
        <ele>2683.0</ele>
        <time>2022-11-20T09:46:28.000Z</time>
      </trkpt>
      <trkpt lat="37.08392833" lon="-3.380245">
        <ele>2683.0</ele>
        <time>2022-11-20T09:46:29.000Z</time>
      </trkpt>
      <trkpt lat="37.08392333" lon="-3.380245">
        <ele>2683.0</ele>
        <time>2022-11-20T09:46:30.000Z</time>
      </trkpt>
      <trkpt lat="37.08391833" lon="-3.38024167">
        <ele>2684.0</ele>
        <time>2022-11-20T09:46:31.000Z</time>
      </trkpt>
      <trkpt lat="37.08391333" lon="-3.38024167">
        <ele>2684.0</ele>
        <time>2022-11-20T09:46:32.000Z</time>
      </trkpt>
      <trkpt lat="37.08390833" lon="-3.38024">
        <ele>2684.0</ele>
        <time>2022-11-20T09:46:33.000Z</time>
      </trkpt>
      <trkpt lat="37.08390333" lon="-3.38024">
        <ele>2684.0</ele>
        <time>2022-11-20T09:46:34.000Z</time>
      </trkpt>
      <trkpt lat="37.08389833" lon="-3.38024">
        <ele>2684.0</ele>
        <time>2022-11-20T09:46:35.000Z</time>
      </trkpt>
      <trkpt lat="37.08389333" lon="-3.38023667">
        <ele>2684.0</ele>
        <time>2022-11-20T09:46:36.000Z</time>
      </trkpt>
      <trkpt lat="37.08388833" lon="-3.38023667">
        <ele>2684.0</ele>
        <time>2022-11-20T09:46:37.000Z</time>
      </trkpt>
      <trkpt lat="37.08388333" lon="-3.380235">
        <ele>2684.0</ele>
        <time>2022-11-20T09:46:38.000Z</time>
      </trkpt>
      <trkpt lat="37.08387833" lon="-3.38023333">
        <ele>2684.0</ele>
        <time>2022-11-20T09:46:39.000Z</time>
      </trkpt>
      <trkpt lat="37.08387333" lon="-3.38023167">
        <ele>2684.0</ele>
        <time>2022-11-20T09:46:40.000Z</time>
      </trkpt>
      <trkpt lat="37.08387" lon="-3.38023167">
        <ele>2684.0</ele>
        <time>2022-11-20T09:46:41.000Z</time>
      </trkpt>
      <trkpt lat="37.08386667" lon="-3.38022833">
        <ele>2684.0</ele>
        <time>2022-11-20T09:46:42.000Z</time>
      </trkpt>
      <trkpt lat="37.083865" lon="-3.38022833">
        <ele>2684.0</ele>
        <time>2022-11-20T09:46:43.000Z</time>
      </trkpt>
      <trkpt lat="37.08386167" lon="-3.38022833">
        <ele>2684.0</ele>
        <time>2022-11-20T09:46:44.000Z</time>
      </trkpt>
      <trkpt lat="37.08385833" lon="-3.380225">
        <ele>2684.0</ele>
        <time>2022-11-20T09:46:45.000Z</time>
      </trkpt>
      <trkpt lat="37.08385833" lon="-3.380225">
        <ele>2684.0</ele>
        <time>2022-11-20T09:46:46.000Z</time>
      </trkpt>
      <trkpt lat="37.083855" lon="-3.380225">
        <ele>2684.0</ele>
        <time>2022-11-20T09:46:47.000Z</time>
      </trkpt>
      <trkpt lat="37.083855" lon="-3.38022333">
        <ele>2684.0</ele>
        <time>2022-11-20T09:46:48.000Z</time>
      </trkpt>
      <trkpt lat="37.08385333" lon="-3.38022333">
        <ele>2684.0</ele>
        <time>2022-11-20T09:46:49.000Z</time>
      </trkpt>
      <trkpt lat="37.08385" lon="-3.380225">
        <ele>2684.0</ele>
        <time>2022-11-20T09:46:50.000Z</time>
      </trkpt>
      <trkpt lat="37.08385" lon="-3.380225">
        <ele>2684.0</ele>
        <time>2022-11-20T09:46:51.000Z</time>
      </trkpt>
      <trkpt lat="37.08385" lon="-3.380225">
        <ele>2684.0</ele>
        <time>2022-11-20T09:46:52.000Z</time>
      </trkpt>
      <trkpt lat="37.08385" lon="-3.380225">
        <ele>2684.0</ele>
        <time>2022-11-20T09:46:53.000Z</time>
      </trkpt>
      <trkpt lat="37.08384667" lon="-3.38022667">
        <ele>2684.0</ele>
        <time>2022-11-20T09:46:54.000Z</time>
      </trkpt>
      <trkpt lat="37.08383833" lon="-3.38022833">
        <ele>2684.0</ele>
        <time>2022-11-20T09:46:55.000Z</time>
      </trkpt>
      <trkpt lat="37.08383167" lon="-3.38023">
        <ele>2684.0</ele>
        <time>2022-11-20T09:46:56.000Z</time>
      </trkpt>
      <trkpt lat="37.08382667" lon="-3.38023">
        <ele>2684.0</ele>
        <time>2022-11-20T09:46:57.000Z</time>
      </trkpt>
      <trkpt lat="37.08382167" lon="-3.38023">
        <ele>2684.0</ele>
        <time>2022-11-20T09:46:58.000Z</time>
      </trkpt>
      <trkpt lat="37.08382" lon="-3.38022833">
        <ele>2685.0</ele>
        <time>2022-11-20T09:46:59.000Z</time>
      </trkpt>
      <trkpt lat="37.08381667" lon="-3.38022833">
        <ele>2685.0</ele>
        <time>2022-11-20T09:47:00.000Z</time>
      </trkpt>
      <trkpt lat="37.08381333" lon="-3.38022667">
        <ele>2685.0</ele>
        <time>2022-11-20T09:47:01.000Z</time>
      </trkpt>
      <trkpt lat="37.08381167" lon="-3.38022667">
        <ele>2685.0</ele>
        <time>2022-11-20T09:47:02.000Z</time>
      </trkpt>
      <trkpt lat="37.08381167" lon="-3.38022667">
        <ele>2684.0</ele>
        <time>2022-11-20T09:47:03.000Z</time>
      </trkpt>
      <trkpt lat="37.08381167" lon="-3.38022667">
        <ele>2684.0</ele>
        <time>2022-11-20T09:47:04.000Z</time>
      </trkpt>
      <trkpt lat="37.08381333" lon="-3.38022667">
        <ele>2684.0</ele>
        <time>2022-11-20T09:47:05.000Z</time>
      </trkpt>
      <trkpt lat="37.08381333" lon="-3.38022667">
        <ele>2684.0</ele>
        <time>2022-11-20T09:47:06.000Z</time>
      </trkpt>
      <trkpt lat="37.08381333" lon="-3.38022667">
        <ele>2684.0</ele>
        <time>2022-11-20T09:47:07.000Z</time>
      </trkpt>
      <trkpt lat="37.08381333" lon="-3.38022667">
        <ele>2684.0</ele>
        <time>2022-11-20T09:47:08.000Z</time>
      </trkpt>
      <trkpt lat="37.08381333" lon="-3.38022667">
        <ele>2684.0</ele>
        <time>2022-11-20T09:47:09.000Z</time>
      </trkpt>
      <trkpt lat="37.08381333" lon="-3.38022667">
        <ele>2684.0</ele>
        <time>2022-11-20T09:47:10.000Z</time>
      </trkpt>
      <trkpt lat="37.08381333" lon="-3.38022667">
        <ele>2684.0</ele>
        <time>2022-11-20T09:47:11.000Z</time>
      </trkpt>
      <trkpt lat="37.08381333" lon="-3.38022667">
        <ele>2684.0</ele>
        <time>2022-11-20T09:47:12.000Z</time>
      </trkpt>
      <trkpt lat="37.08381333" lon="-3.38022667">
        <ele>2684.0</ele>
        <time>2022-11-20T09:47:13.000Z</time>
      </trkpt>
      <trkpt lat="37.08381333" lon="-3.38022667">
        <ele>2684.0</ele>
        <time>2022-11-20T09:47:14.000Z</time>
      </trkpt>
      <trkpt lat="37.08381333" lon="-3.38022667">
        <ele>2684.0</ele>
        <time>2022-11-20T09:47:15.000Z</time>
      </trkpt>
      <trkpt lat="37.08381" lon="-3.38022667">
        <ele>2684.0</ele>
        <time>2022-11-20T09:47:16.000Z</time>
      </trkpt>
      <trkpt lat="37.08380833" lon="-3.38022667">
        <ele>2684.0</ele>
        <time>2022-11-20T09:47:17.000Z</time>
      </trkpt>
      <trkpt lat="37.08380167" lon="-3.38022667">
        <ele>2684.0</ele>
        <time>2022-11-20T09:47:18.000Z</time>
      </trkpt>
      <trkpt lat="37.08379333" lon="-3.380225">
        <ele>2684.0</ele>
        <time>2022-11-20T09:47:19.000Z</time>
      </trkpt>
      <trkpt lat="37.083785" lon="-3.38022333">
        <ele>2684.0</ele>
        <time>2022-11-20T09:47:20.000Z</time>
      </trkpt>
      <trkpt lat="37.08377833" lon="-3.38022333">
        <ele>2684.0</ele>
        <time>2022-11-20T09:47:21.000Z</time>
      </trkpt>
      <trkpt lat="37.08377" lon="-3.38022">
        <ele>2684.0</ele>
        <time>2022-11-20T09:47:22.000Z</time>
      </trkpt>
      <trkpt lat="37.08376167" lon="-3.38021833">
        <ele>2685.0</ele>
        <time>2022-11-20T09:47:23.000Z</time>
      </trkpt>
      <trkpt lat="37.083755" lon="-3.38021667">
        <ele>2685.0</ele>
        <time>2022-11-20T09:47:24.000Z</time>
      </trkpt>
      <trkpt lat="37.08374833" lon="-3.380215">
        <ele>2685.0</ele>
        <time>2022-11-20T09:47:25.000Z</time>
      </trkpt>
      <trkpt lat="37.08374" lon="-3.38021333">
        <ele>2685.0</ele>
        <time>2022-11-20T09:47:26.000Z</time>
      </trkpt>
      <trkpt lat="37.08373167" lon="-3.38021333">
        <ele>2685.0</ele>
        <time>2022-11-20T09:47:27.000Z</time>
      </trkpt>
      <trkpt lat="37.083725" lon="-3.38021167">
        <ele>2685.0</ele>
        <time>2022-11-20T09:47:28.000Z</time>
      </trkpt>
      <trkpt lat="37.08371833" lon="-3.38021">
        <ele>2685.0</ele>
        <time>2022-11-20T09:47:29.000Z</time>
      </trkpt>
      <trkpt lat="37.08371167" lon="-3.38020667">
        <ele>2685.0</ele>
        <time>2022-11-20T09:47:30.000Z</time>
      </trkpt>
      <trkpt lat="37.083705" lon="-3.380205">
        <ele>2686.0</ele>
        <time>2022-11-20T09:47:31.000Z</time>
      </trkpt>
      <trkpt lat="37.08369833" lon="-3.38020333">
        <ele>2686.0</ele>
        <time>2022-11-20T09:47:32.000Z</time>
      </trkpt>
      <trkpt lat="37.08369" lon="-3.3802">
        <ele>2686.0</ele>
        <time>2022-11-20T09:47:33.000Z</time>
      </trkpt>
      <trkpt lat="37.08368167" lon="-3.38019833">
        <ele>2686.0</ele>
        <time>2022-11-20T09:47:34.000Z</time>
      </trkpt>
      <trkpt lat="37.083675" lon="-3.380195">
        <ele>2686.0</ele>
        <time>2022-11-20T09:47:35.000Z</time>
      </trkpt>
      <trkpt lat="37.08366833" lon="-3.380195">
        <ele>2686.0</ele>
        <time>2022-11-20T09:47:36.000Z</time>
      </trkpt>
      <trkpt lat="37.08366167" lon="-3.38019333">
        <ele>2686.0</ele>
        <time>2022-11-20T09:47:37.000Z</time>
      </trkpt>
      <trkpt lat="37.083655" lon="-3.38019167">
        <ele>2686.0</ele>
        <time>2022-11-20T09:47:38.000Z</time>
      </trkpt>
      <trkpt lat="37.08364667" lon="-3.38018833">
        <ele>2686.0</ele>
        <time>2022-11-20T09:47:39.000Z</time>
      </trkpt>
      <trkpt lat="37.08364" lon="-3.38018667">
        <ele>2686.0</ele>
        <time>2022-11-20T09:47:40.000Z</time>
      </trkpt>
      <trkpt lat="37.083635" lon="-3.380185">
        <ele>2687.0</ele>
        <time>2022-11-20T09:47:41.000Z</time>
      </trkpt>
      <trkpt lat="37.08363" lon="-3.38018">
        <ele>2687.0</ele>
        <time>2022-11-20T09:47:42.000Z</time>
      </trkpt>
      <trkpt lat="37.08362667" lon="-3.38017833">
        <ele>2687.0</ele>
        <time>2022-11-20T09:47:43.000Z</time>
      </trkpt>
      <trkpt lat="37.08362667" lon="-3.38017833">
        <ele>2687.0</ele>
        <time>2022-11-20T09:47:44.000Z</time>
      </trkpt>
      <trkpt lat="37.08362667" lon="-3.38017833">
        <ele>2687.0</ele>
        <time>2022-11-20T09:47:45.000Z</time>
      </trkpt>
      <trkpt lat="37.08362667" lon="-3.38017833">
        <ele>2687.0</ele>
        <time>2022-11-20T09:47:46.000Z</time>
      </trkpt>
      <trkpt lat="37.083625" lon="-3.38018">
        <ele>2687.0</ele>
        <time>2022-11-20T09:47:47.000Z</time>
      </trkpt>
      <trkpt lat="37.08362" lon="-3.38017833">
        <ele>2687.0</ele>
        <time>2022-11-20T09:47:48.000Z</time>
      </trkpt>
      <trkpt lat="37.08361667" lon="-3.38017667">
        <ele>2687.0</ele>
        <time>2022-11-20T09:47:49.000Z</time>
      </trkpt>
      <trkpt lat="37.08361333" lon="-3.380175">
        <ele>2687.0</ele>
        <time>2022-11-20T09:47:50.000Z</time>
      </trkpt>
      <trkpt lat="37.08360667" lon="-3.38017167">
        <ele>2687.0</ele>
        <time>2022-11-20T09:47:51.000Z</time>
      </trkpt>
      <trkpt lat="37.0836" lon="-3.38016833">
        <ele>2687.0</ele>
        <time>2022-11-20T09:47:52.000Z</time>
      </trkpt>
      <trkpt lat="37.08359333" lon="-3.38016667">
        <ele>2687.0</ele>
        <time>2022-11-20T09:47:53.000Z</time>
      </trkpt>
      <trkpt lat="37.08358667" lon="-3.38016333">
        <ele>2687.0</ele>
        <time>2022-11-20T09:47:54.000Z</time>
      </trkpt>
      <trkpt lat="37.08358167" lon="-3.38016167">
        <ele>2687.0</ele>
        <time>2022-11-20T09:47:55.000Z</time>
      </trkpt>
      <trkpt lat="37.08357333" lon="-3.38015833">
        <ele>2687.0</ele>
        <time>2022-11-20T09:47:56.000Z</time>
      </trkpt>
      <trkpt lat="37.08356667" lon="-3.380155">
        <ele>2687.0</ele>
        <time>2022-11-20T09:47:57.000Z</time>
      </trkpt>
      <trkpt lat="37.08355833" lon="-3.38015167">
        <ele>2688.0</ele>
        <time>2022-11-20T09:47:58.000Z</time>
      </trkpt>
      <trkpt lat="37.08355167" lon="-3.380145">
        <ele>2688.0</ele>
        <time>2022-11-20T09:47:59.000Z</time>
      </trkpt>
      <trkpt lat="37.083545" lon="-3.38014">
        <ele>2688.0</ele>
        <time>2022-11-20T09:48:00.000Z</time>
      </trkpt>
      <trkpt lat="37.08353667" lon="-3.38013333">
        <ele>2688.0</ele>
        <time>2022-11-20T09:48:01.000Z</time>
      </trkpt>
      <trkpt lat="37.08352833" lon="-3.38012833">
        <ele>2688.0</ele>
        <time>2022-11-20T09:48:02.000Z</time>
      </trkpt>
      <trkpt lat="37.08352" lon="-3.380125">
        <ele>2688.0</ele>
        <time>2022-11-20T09:48:03.000Z</time>
      </trkpt>
      <trkpt lat="37.08351333" lon="-3.38012167">
        <ele>2688.0</ele>
        <time>2022-11-20T09:48:04.000Z</time>
      </trkpt>
      <trkpt lat="37.08350667" lon="-3.38011833">
        <ele>2688.0</ele>
        <time>2022-11-20T09:48:05.000Z</time>
      </trkpt>
      <trkpt lat="37.08349833" lon="-3.38011333">
        <ele>2688.0</ele>
        <time>2022-11-20T09:48:06.000Z</time>
      </trkpt>
      <trkpt lat="37.08349" lon="-3.38010667">
        <ele>2688.0</ele>
        <time>2022-11-20T09:48:07.000Z</time>
      </trkpt>
      <trkpt lat="37.08348167" lon="-3.38010167">
        <ele>2688.0</ele>
        <time>2022-11-20T09:48:08.000Z</time>
      </trkpt>
      <trkpt lat="37.08347333" lon="-3.380095">
        <ele>2688.0</ele>
        <time>2022-11-20T09:48:09.000Z</time>
      </trkpt>
      <trkpt lat="37.08346667" lon="-3.38008833">
        <ele>2688.0</ele>
        <time>2022-11-20T09:48:10.000Z</time>
      </trkpt>
      <trkpt lat="37.08346" lon="-3.38008167">
        <ele>2688.0</ele>
        <time>2022-11-20T09:48:11.000Z</time>
      </trkpt>
      <trkpt lat="37.08345" lon="-3.380075">
        <ele>2688.0</ele>
        <time>2022-11-20T09:48:12.000Z</time>
      </trkpt>
      <trkpt lat="37.08344167" lon="-3.38007">
        <ele>2688.0</ele>
        <time>2022-11-20T09:48:13.000Z</time>
      </trkpt>
      <trkpt lat="37.08343333" lon="-3.38006333">
        <ele>2688.0</ele>
        <time>2022-11-20T09:48:14.000Z</time>
      </trkpt>
      <trkpt lat="37.083425" lon="-3.38005833">
        <ele>2688.0</ele>
        <time>2022-11-20T09:48:15.000Z</time>
      </trkpt>
      <trkpt lat="37.08341667" lon="-3.38005333">
        <ele>2688.0</ele>
        <time>2022-11-20T09:48:16.000Z</time>
      </trkpt>
      <trkpt lat="37.08341167" lon="-3.38004667">
        <ele>2688.0</ele>
        <time>2022-11-20T09:48:17.000Z</time>
      </trkpt>
      <trkpt lat="37.08340667" lon="-3.38003833">
        <ele>2688.0</ele>
        <time>2022-11-20T09:48:18.000Z</time>
      </trkpt>
      <trkpt lat="37.08340167" lon="-3.38003">
        <ele>2688.0</ele>
        <time>2022-11-20T09:48:19.000Z</time>
      </trkpt>
      <trkpt lat="37.083395" lon="-3.38002167">
        <ele>2688.0</ele>
        <time>2022-11-20T09:48:20.000Z</time>
      </trkpt>
      <trkpt lat="37.08339" lon="-3.380015">
        <ele>2688.0</ele>
        <time>2022-11-20T09:48:21.000Z</time>
      </trkpt>
      <trkpt lat="37.083385" lon="-3.38000667">
        <ele>2688.0</ele>
        <time>2022-11-20T09:48:22.000Z</time>
      </trkpt>
      <trkpt lat="37.08338" lon="-3.38">
        <ele>2688.0</ele>
        <time>2022-11-20T09:48:23.000Z</time>
      </trkpt>
      <trkpt lat="37.08337167" lon="-3.37999833">
        <ele>2689.0</ele>
        <time>2022-11-20T09:48:24.000Z</time>
      </trkpt>
      <trkpt lat="37.08336" lon="-3.379995">
        <ele>2689.0</ele>
        <time>2022-11-20T09:48:25.000Z</time>
      </trkpt>
      <trkpt lat="37.08335333" lon="-3.37999167">
        <ele>2689.0</ele>
        <time>2022-11-20T09:48:26.000Z</time>
      </trkpt>
      <trkpt lat="37.083345" lon="-3.37998333">
        <ele>2689.0</ele>
        <time>2022-11-20T09:48:27.000Z</time>
      </trkpt>
      <trkpt lat="37.08333667" lon="-3.37997333">
        <ele>2689.0</ele>
        <time>2022-11-20T09:48:28.000Z</time>
      </trkpt>
      <trkpt lat="37.08333167" lon="-3.37996667">
        <ele>2689.0</ele>
        <time>2022-11-20T09:48:29.000Z</time>
      </trkpt>
      <trkpt lat="37.08332667" lon="-3.37995667">
        <ele>2689.0</ele>
        <time>2022-11-20T09:48:30.000Z</time>
      </trkpt>
      <trkpt lat="37.08332" lon="-3.37994667">
        <ele>2689.0</ele>
        <time>2022-11-20T09:48:31.000Z</time>
      </trkpt>
      <trkpt lat="37.08331333" lon="-3.37994">
        <ele>2690.0</ele>
        <time>2022-11-20T09:48:32.000Z</time>
      </trkpt>
      <trkpt lat="37.08330833" lon="-3.37993167">
        <ele>2690.0</ele>
        <time>2022-11-20T09:48:33.000Z</time>
      </trkpt>
      <trkpt lat="37.08330333" lon="-3.37992333">
        <ele>2690.0</ele>
        <time>2022-11-20T09:48:34.000Z</time>
      </trkpt>
      <trkpt lat="37.08329667" lon="-3.379915">
        <ele>2690.0</ele>
        <time>2022-11-20T09:48:35.000Z</time>
      </trkpt>
      <trkpt lat="37.08329" lon="-3.37990833">
        <ele>2690.0</ele>
        <time>2022-11-20T09:48:36.000Z</time>
      </trkpt>
      <trkpt lat="37.083285" lon="-3.3799">
        <ele>2691.0</ele>
        <time>2022-11-20T09:48:37.000Z</time>
      </trkpt>
      <trkpt lat="37.08328" lon="-3.37989333">
        <ele>2691.0</ele>
        <time>2022-11-20T09:48:38.000Z</time>
      </trkpt>
      <trkpt lat="37.083275" lon="-3.37988167">
        <ele>2691.0</ele>
        <time>2022-11-20T09:48:39.000Z</time>
      </trkpt>
      <trkpt lat="37.08327" lon="-3.379875">
        <ele>2692.0</ele>
        <time>2022-11-20T09:48:40.000Z</time>
      </trkpt>
      <trkpt lat="37.083265" lon="-3.37987">
        <ele>2692.0</ele>
        <time>2022-11-20T09:48:41.000Z</time>
      </trkpt>
      <trkpt lat="37.08325833" lon="-3.37986167">
        <ele>2692.0</ele>
        <time>2022-11-20T09:48:42.000Z</time>
      </trkpt>
      <trkpt lat="37.08325333" lon="-3.379855">
        <ele>2692.0</ele>
        <time>2022-11-20T09:48:43.000Z</time>
      </trkpt>
      <trkpt lat="37.083245" lon="-3.37985">
        <ele>2693.0</ele>
        <time>2022-11-20T09:48:44.000Z</time>
      </trkpt>
      <trkpt lat="37.08323833" lon="-3.37984333">
        <ele>2693.0</ele>
        <time>2022-11-20T09:48:45.000Z</time>
      </trkpt>
      <trkpt lat="37.08323167" lon="-3.37984167">
        <ele>2693.0</ele>
        <time>2022-11-20T09:48:46.000Z</time>
      </trkpt>
      <trkpt lat="37.083225" lon="-3.37983333">
        <ele>2693.0</ele>
        <time>2022-11-20T09:48:47.000Z</time>
      </trkpt>
      <trkpt lat="37.08321833" lon="-3.379825">
        <ele>2693.0</ele>
        <time>2022-11-20T09:48:48.000Z</time>
      </trkpt>
      <trkpt lat="37.08321333" lon="-3.37981833">
        <ele>2693.0</ele>
        <time>2022-11-20T09:48:49.000Z</time>
      </trkpt>
      <trkpt lat="37.083205" lon="-3.37981167">
        <ele>2694.0</ele>
        <time>2022-11-20T09:48:50.000Z</time>
      </trkpt>
      <trkpt lat="37.08319833" lon="-3.379805">
        <ele>2694.0</ele>
        <time>2022-11-20T09:48:51.000Z</time>
      </trkpt>
      <trkpt lat="37.08319333" lon="-3.3798">
        <ele>2694.0</ele>
        <time>2022-11-20T09:48:52.000Z</time>
      </trkpt>
      <trkpt lat="37.08318667" lon="-3.37979333">
        <ele>2694.0</ele>
        <time>2022-11-20T09:48:53.000Z</time>
      </trkpt>
      <trkpt lat="37.08318" lon="-3.379785">
        <ele>2694.0</ele>
        <time>2022-11-20T09:48:54.000Z</time>
      </trkpt>
      <trkpt lat="37.083175" lon="-3.37978">
        <ele>2694.0</ele>
        <time>2022-11-20T09:48:55.000Z</time>
      </trkpt>
      <trkpt lat="37.08316833" lon="-3.37977167">
        <ele>2694.0</ele>
        <time>2022-11-20T09:48:56.000Z</time>
      </trkpt>
      <trkpt lat="37.08316333" lon="-3.37976333">
        <ele>2694.0</ele>
        <time>2022-11-20T09:48:57.000Z</time>
      </trkpt>
      <trkpt lat="37.08315833" lon="-3.37975667">
        <ele>2694.0</ele>
        <time>2022-11-20T09:48:58.000Z</time>
      </trkpt>
      <trkpt lat="37.08315333" lon="-3.37975">
        <ele>2695.0</ele>
        <time>2022-11-20T09:48:59.000Z</time>
      </trkpt>
      <trkpt lat="37.083145" lon="-3.379745">
        <ele>2695.0</ele>
        <time>2022-11-20T09:49:00.000Z</time>
      </trkpt>
      <trkpt lat="37.08313833" lon="-3.37974333">
        <ele>2695.0</ele>
        <time>2022-11-20T09:49:01.000Z</time>
      </trkpt>
      <trkpt lat="37.08313167" lon="-3.37974">
        <ele>2695.0</ele>
        <time>2022-11-20T09:49:02.000Z</time>
      </trkpt>
      <trkpt lat="37.08312333" lon="-3.37973333">
        <ele>2695.0</ele>
        <time>2022-11-20T09:49:03.000Z</time>
      </trkpt>
      <trkpt lat="37.08311833" lon="-3.379725">
        <ele>2696.0</ele>
        <time>2022-11-20T09:49:04.000Z</time>
      </trkpt>
      <trkpt lat="37.08311167" lon="-3.37971833">
        <ele>2696.0</ele>
        <time>2022-11-20T09:49:05.000Z</time>
      </trkpt>
      <trkpt lat="37.08310667" lon="-3.37971167">
        <ele>2696.0</ele>
        <time>2022-11-20T09:49:06.000Z</time>
      </trkpt>
      <trkpt lat="37.08310167" lon="-3.37970833">
        <ele>2696.0</ele>
        <time>2022-11-20T09:49:07.000Z</time>
      </trkpt>
      <trkpt lat="37.08309333" lon="-3.37970167">
        <ele>2696.0</ele>
        <time>2022-11-20T09:49:08.000Z</time>
      </trkpt>
      <trkpt lat="37.08308667" lon="-3.37969667">
        <ele>2696.0</ele>
        <time>2022-11-20T09:49:09.000Z</time>
      </trkpt>
      <trkpt lat="37.08308167" lon="-3.37969167">
        <ele>2697.0</ele>
        <time>2022-11-20T09:49:10.000Z</time>
      </trkpt>
      <trkpt lat="37.08307667" lon="-3.37968667">
        <ele>2697.0</ele>
        <time>2022-11-20T09:49:11.000Z</time>
      </trkpt>
      <trkpt lat="37.08307" lon="-3.37968333">
        <ele>2697.0</ele>
        <time>2022-11-20T09:49:12.000Z</time>
      </trkpt>
      <trkpt lat="37.08306333" lon="-3.37967833">
        <ele>2697.0</ele>
        <time>2022-11-20T09:49:13.000Z</time>
      </trkpt>
      <trkpt lat="37.08305667" lon="-3.37967333">
        <ele>2697.0</ele>
        <time>2022-11-20T09:49:14.000Z</time>
      </trkpt>
      <trkpt lat="37.08305" lon="-3.37966667">
        <ele>2698.0</ele>
        <time>2022-11-20T09:49:15.000Z</time>
      </trkpt>
      <trkpt lat="37.08304333" lon="-3.37966167">
        <ele>2698.0</ele>
        <time>2022-11-20T09:49:16.000Z</time>
      </trkpt>
      <trkpt lat="37.08304" lon="-3.37965833">
        <ele>2698.0</ele>
        <time>2022-11-20T09:49:17.000Z</time>
      </trkpt>
      <trkpt lat="37.08303333" lon="-3.37965333">
        <ele>2698.0</ele>
        <time>2022-11-20T09:49:18.000Z</time>
      </trkpt>
      <trkpt lat="37.08302833" lon="-3.37964833">
        <ele>2698.0</ele>
        <time>2022-11-20T09:49:19.000Z</time>
      </trkpt>
      <trkpt lat="37.08302167" lon="-3.37964667">
        <ele>2698.0</ele>
        <time>2022-11-20T09:49:20.000Z</time>
      </trkpt>
      <trkpt lat="37.083015" lon="-3.37964167">
        <ele>2699.0</ele>
        <time>2022-11-20T09:49:21.000Z</time>
      </trkpt>
      <trkpt lat="37.08301" lon="-3.37963833">
        <ele>2699.0</ele>
        <time>2022-11-20T09:49:22.000Z</time>
      </trkpt>
      <trkpt lat="37.08300333" lon="-3.379635">
        <ele>2699.0</ele>
        <time>2022-11-20T09:49:23.000Z</time>
      </trkpt>
      <trkpt lat="37.08299667" lon="-3.37963">
        <ele>2699.0</ele>
        <time>2022-11-20T09:49:24.000Z</time>
      </trkpt>
      <trkpt lat="37.08298833" lon="-3.37962667">
        <ele>2699.0</ele>
        <time>2022-11-20T09:49:25.000Z</time>
      </trkpt>
      <trkpt lat="37.08298333" lon="-3.37962333">
        <ele>2699.0</ele>
        <time>2022-11-20T09:49:26.000Z</time>
      </trkpt>
      <trkpt lat="37.082975" lon="-3.37961833">
        <ele>2699.0</ele>
        <time>2022-11-20T09:49:27.000Z</time>
      </trkpt>
      <trkpt lat="37.08297" lon="-3.37961333">
        <ele>2699.0</ele>
        <time>2022-11-20T09:49:28.000Z</time>
      </trkpt>
      <trkpt lat="37.08296333" lon="-3.37961167">
        <ele>2700.0</ele>
        <time>2022-11-20T09:49:29.000Z</time>
      </trkpt>
      <trkpt lat="37.08295667" lon="-3.37960667">
        <ele>2700.0</ele>
        <time>2022-11-20T09:49:30.000Z</time>
      </trkpt>
      <trkpt lat="37.08294833" lon="-3.379605">
        <ele>2700.0</ele>
        <time>2022-11-20T09:49:31.000Z</time>
      </trkpt>
      <trkpt lat="37.08294333" lon="-3.37960167">
        <ele>2700.0</ele>
        <time>2022-11-20T09:49:32.000Z</time>
      </trkpt>
      <trkpt lat="37.082935" lon="-3.37959833">
        <ele>2700.0</ele>
        <time>2022-11-20T09:49:33.000Z</time>
      </trkpt>
      <trkpt lat="37.08293" lon="-3.37959833">
        <ele>2700.0</ele>
        <time>2022-11-20T09:49:34.000Z</time>
      </trkpt>
      <trkpt lat="37.08292167" lon="-3.37959333">
        <ele>2700.0</ele>
        <time>2022-11-20T09:49:35.000Z</time>
      </trkpt>
      <trkpt lat="37.08291333" lon="-3.37959">
        <ele>2700.0</ele>
        <time>2022-11-20T09:49:36.000Z</time>
      </trkpt>
      <trkpt lat="37.08290667" lon="-3.37958667">
        <ele>2700.0</ele>
        <time>2022-11-20T09:49:37.000Z</time>
      </trkpt>
      <trkpt lat="37.0829" lon="-3.37958333">
        <ele>2701.0</ele>
        <time>2022-11-20T09:49:38.000Z</time>
      </trkpt>
      <trkpt lat="37.08289167" lon="-3.37957833">
        <ele>2701.0</ele>
        <time>2022-11-20T09:49:39.000Z</time>
      </trkpt>
      <trkpt lat="37.08288333" lon="-3.37957333">
        <ele>2701.0</ele>
        <time>2022-11-20T09:49:40.000Z</time>
      </trkpt>
      <trkpt lat="37.082875" lon="-3.37956833">
        <ele>2701.0</ele>
        <time>2022-11-20T09:49:41.000Z</time>
      </trkpt>
      <trkpt lat="37.08287" lon="-3.37956333">
        <ele>2701.0</ele>
        <time>2022-11-20T09:49:42.000Z</time>
      </trkpt>
      <trkpt lat="37.082865" lon="-3.379555">
        <ele>2701.0</ele>
        <time>2022-11-20T09:49:43.000Z</time>
      </trkpt>
      <trkpt lat="37.08286" lon="-3.37954667">
        <ele>2702.0</ele>
        <time>2022-11-20T09:49:44.000Z</time>
      </trkpt>
      <trkpt lat="37.08285667" lon="-3.37953833">
        <ele>2702.0</ele>
        <time>2022-11-20T09:49:45.000Z</time>
      </trkpt>
      <trkpt lat="37.08285333" lon="-3.37953">
        <ele>2702.0</ele>
        <time>2022-11-20T09:49:46.000Z</time>
      </trkpt>
      <trkpt lat="37.08284833" lon="-3.37951833">
        <ele>2702.0</ele>
        <time>2022-11-20T09:49:47.000Z</time>
      </trkpt>
      <trkpt lat="37.08284667" lon="-3.37950667">
        <ele>2702.0</ele>
        <time>2022-11-20T09:49:48.000Z</time>
      </trkpt>
      <trkpt lat="37.08284333" lon="-3.379495">
        <ele>2702.0</ele>
        <time>2022-11-20T09:49:49.000Z</time>
      </trkpt>
      <trkpt lat="37.08284167" lon="-3.379485">
        <ele>2702.0</ele>
        <time>2022-11-20T09:49:50.000Z</time>
      </trkpt>
      <trkpt lat="37.08284333" lon="-3.37948">
        <ele>2702.0</ele>
        <time>2022-11-20T09:49:51.000Z</time>
      </trkpt>
      <trkpt lat="37.08284167" lon="-3.37947167">
        <ele>2702.0</ele>
        <time>2022-11-20T09:49:52.000Z</time>
      </trkpt>
      <trkpt lat="37.08284167" lon="-3.379465">
        <ele>2702.0</ele>
        <time>2022-11-20T09:49:53.000Z</time>
      </trkpt>
      <trkpt lat="37.08284333" lon="-3.37945333">
        <ele>2702.0</ele>
        <time>2022-11-20T09:49:54.000Z</time>
      </trkpt>
      <trkpt lat="37.08284167" lon="-3.37944833">
        <ele>2702.0</ele>
        <time>2022-11-20T09:49:55.000Z</time>
      </trkpt>
      <trkpt lat="37.08283667" lon="-3.37944">
        <ele>2702.0</ele>
        <time>2022-11-20T09:49:56.000Z</time>
      </trkpt>
      <trkpt lat="37.08283333" lon="-3.37943167">
        <ele>2703.0</ele>
        <time>2022-11-20T09:49:57.000Z</time>
      </trkpt>
      <trkpt lat="37.08282833" lon="-3.37942333">
        <ele>2703.0</ele>
        <time>2022-11-20T09:49:58.000Z</time>
      </trkpt>
      <trkpt lat="37.082825" lon="-3.37941667">
        <ele>2703.0</ele>
        <time>2022-11-20T09:49:59.000Z</time>
      </trkpt>
      <trkpt lat="37.08282167" lon="-3.37941167">
        <ele>2703.0</ele>
        <time>2022-11-20T09:50:00.000Z</time>
      </trkpt>
      <trkpt lat="37.082815" lon="-3.37940333">
        <ele>2703.0</ele>
        <time>2022-11-20T09:50:01.000Z</time>
      </trkpt>
      <trkpt lat="37.08281" lon="-3.3794">
        <ele>2703.0</ele>
        <time>2022-11-20T09:50:02.000Z</time>
      </trkpt>
      <trkpt lat="37.08280333" lon="-3.379395">
        <ele>2704.0</ele>
        <time>2022-11-20T09:50:03.000Z</time>
      </trkpt>
      <trkpt lat="37.08279667" lon="-3.37939167">
        <ele>2704.0</ele>
        <time>2022-11-20T09:50:04.000Z</time>
      </trkpt>
      <trkpt lat="37.08279" lon="-3.37939">
        <ele>2704.0</ele>
        <time>2022-11-20T09:50:05.000Z</time>
      </trkpt>
      <trkpt lat="37.082785" lon="-3.379385">
        <ele>2704.0</ele>
        <time>2022-11-20T09:50:06.000Z</time>
      </trkpt>
      <trkpt lat="37.08278" lon="-3.37938">
        <ele>2704.0</ele>
        <time>2022-11-20T09:50:07.000Z</time>
      </trkpt>
      <trkpt lat="37.08277333" lon="-3.37937333">
        <ele>2704.0</ele>
        <time>2022-11-20T09:50:08.000Z</time>
      </trkpt>
      <trkpt lat="37.08276833" lon="-3.379365">
        <ele>2704.0</ele>
        <time>2022-11-20T09:50:09.000Z</time>
      </trkpt>
      <trkpt lat="37.082765" lon="-3.37935833">
        <ele>2704.0</ele>
        <time>2022-11-20T09:50:10.000Z</time>
      </trkpt>
      <trkpt lat="37.08276" lon="-3.37935">
        <ele>2704.0</ele>
        <time>2022-11-20T09:50:11.000Z</time>
      </trkpt>
      <trkpt lat="37.08275667" lon="-3.37934333">
        <ele>2705.0</ele>
        <time>2022-11-20T09:50:12.000Z</time>
      </trkpt>
      <trkpt lat="37.08275167" lon="-3.37934">
        <ele>2705.0</ele>
        <time>2022-11-20T09:50:13.000Z</time>
      </trkpt>
      <trkpt lat="37.082745" lon="-3.379335">
        <ele>2705.0</ele>
        <time>2022-11-20T09:50:14.000Z</time>
      </trkpt>
      <trkpt lat="37.08273833" lon="-3.37933">
        <ele>2705.0</ele>
        <time>2022-11-20T09:50:15.000Z</time>
      </trkpt>
      <trkpt lat="37.08273" lon="-3.379325">
        <ele>2705.0</ele>
        <time>2022-11-20T09:50:16.000Z</time>
      </trkpt>
      <trkpt lat="37.08272333" lon="-3.37931667">
        <ele>2705.0</ele>
        <time>2022-11-20T09:50:17.000Z</time>
      </trkpt>
      <trkpt lat="37.08271667" lon="-3.37931">
        <ele>2705.0</ele>
        <time>2022-11-20T09:50:18.000Z</time>
      </trkpt>
      <trkpt lat="37.08270833" lon="-3.379305">
        <ele>2705.0</ele>
        <time>2022-11-20T09:50:19.000Z</time>
      </trkpt>
      <trkpt lat="37.08270167" lon="-3.37929833">
        <ele>2705.0</ele>
        <time>2022-11-20T09:50:20.000Z</time>
      </trkpt>
      <trkpt lat="37.082695" lon="-3.37929333">
        <ele>2705.0</ele>
        <time>2022-11-20T09:50:21.000Z</time>
      </trkpt>
      <trkpt lat="37.082685" lon="-3.37929">
        <ele>2706.0</ele>
        <time>2022-11-20T09:50:22.000Z</time>
      </trkpt>
      <trkpt lat="37.08267667" lon="-3.37928333">
        <ele>2706.0</ele>
        <time>2022-11-20T09:50:23.000Z</time>
      </trkpt>
      <trkpt lat="37.08266833" lon="-3.37927833">
        <ele>2706.0</ele>
        <time>2022-11-20T09:50:24.000Z</time>
      </trkpt>
      <trkpt lat="37.08266167" lon="-3.37927333">
        <ele>2706.0</ele>
        <time>2022-11-20T09:50:25.000Z</time>
      </trkpt>
      <trkpt lat="37.08265333" lon="-3.379265">
        <ele>2706.0</ele>
        <time>2022-11-20T09:50:26.000Z</time>
      </trkpt>
      <trkpt lat="37.08264667" lon="-3.37925833">
        <ele>2706.0</ele>
        <time>2022-11-20T09:50:27.000Z</time>
      </trkpt>
      <trkpt lat="37.08264" lon="-3.37925167">
        <ele>2706.0</ele>
        <time>2022-11-20T09:50:28.000Z</time>
      </trkpt>
      <trkpt lat="37.08263333" lon="-3.379245">
        <ele>2706.0</ele>
        <time>2022-11-20T09:50:29.000Z</time>
      </trkpt>
      <trkpt lat="37.082625" lon="-3.37923833">
        <ele>2706.0</ele>
        <time>2022-11-20T09:50:30.000Z</time>
      </trkpt>
      <trkpt lat="37.08261667" lon="-3.37923167">
        <ele>2706.0</ele>
        <time>2022-11-20T09:50:31.000Z</time>
      </trkpt>
      <trkpt lat="37.08261" lon="-3.379225">
        <ele>2707.0</ele>
        <time>2022-11-20T09:50:32.000Z</time>
      </trkpt>
      <trkpt lat="37.08260167" lon="-3.37921833">
        <ele>2707.0</ele>
        <time>2022-11-20T09:50:33.000Z</time>
      </trkpt>
      <trkpt lat="37.082595" lon="-3.37921167">
        <ele>2707.0</ele>
        <time>2022-11-20T09:50:34.000Z</time>
      </trkpt>
      <trkpt lat="37.08258667" lon="-3.37920667">
        <ele>2707.0</ele>
        <time>2022-11-20T09:50:35.000Z</time>
      </trkpt>
      <trkpt lat="37.08258" lon="-3.37919833">
        <ele>2707.0</ele>
        <time>2022-11-20T09:50:36.000Z</time>
      </trkpt>
      <trkpt lat="37.082575" lon="-3.37919167">
        <ele>2707.0</ele>
        <time>2022-11-20T09:50:37.000Z</time>
      </trkpt>
      <trkpt lat="37.08257" lon="-3.379185">
        <ele>2707.0</ele>
        <time>2022-11-20T09:50:38.000Z</time>
      </trkpt>
      <trkpt lat="37.08256333" lon="-3.37917833">
        <ele>2707.0</ele>
        <time>2022-11-20T09:50:39.000Z</time>
      </trkpt>
      <trkpt lat="37.08255833" lon="-3.37917167">
        <ele>2708.0</ele>
        <time>2022-11-20T09:50:40.000Z</time>
      </trkpt>
      <trkpt lat="37.08255167" lon="-3.37916667">
        <ele>2708.0</ele>
        <time>2022-11-20T09:50:41.000Z</time>
      </trkpt>
      <trkpt lat="37.082545" lon="-3.37916">
        <ele>2708.0</ele>
        <time>2022-11-20T09:50:42.000Z</time>
      </trkpt>
      <trkpt lat="37.08253667" lon="-3.37915333">
        <ele>2708.0</ele>
        <time>2022-11-20T09:50:43.000Z</time>
      </trkpt>
      <trkpt lat="37.08253" lon="-3.37914667">
        <ele>2708.0</ele>
        <time>2022-11-20T09:50:44.000Z</time>
      </trkpt>
      <trkpt lat="37.08252333" lon="-3.37914333">
        <ele>2708.0</ele>
        <time>2022-11-20T09:50:45.000Z</time>
      </trkpt>
      <trkpt lat="37.08251667" lon="-3.379135">
        <ele>2708.0</ele>
        <time>2022-11-20T09:50:46.000Z</time>
      </trkpt>
      <trkpt lat="37.08251" lon="-3.37913">
        <ele>2708.0</ele>
        <time>2022-11-20T09:50:47.000Z</time>
      </trkpt>
      <trkpt lat="37.08250333" lon="-3.379125">
        <ele>2709.0</ele>
        <time>2022-11-20T09:50:48.000Z</time>
      </trkpt>
      <trkpt lat="37.08249667" lon="-3.37911833">
        <ele>2709.0</ele>
        <time>2022-11-20T09:50:49.000Z</time>
      </trkpt>
      <trkpt lat="37.08249167" lon="-3.37911333">
        <ele>2709.0</ele>
        <time>2022-11-20T09:50:50.000Z</time>
      </trkpt>
      <trkpt lat="37.08248333" lon="-3.37910833">
        <ele>2709.0</ele>
        <time>2022-11-20T09:50:51.000Z</time>
      </trkpt>
      <trkpt lat="37.08247667" lon="-3.37910167">
        <ele>2709.0</ele>
        <time>2022-11-20T09:50:52.000Z</time>
      </trkpt>
      <trkpt lat="37.08247167" lon="-3.37909667">
        <ele>2709.0</ele>
        <time>2022-11-20T09:50:53.000Z</time>
      </trkpt>
      <trkpt lat="37.082465" lon="-3.37909">
        <ele>2710.0</ele>
        <time>2022-11-20T09:50:54.000Z</time>
      </trkpt>
      <trkpt lat="37.08245833" lon="-3.379085">
        <ele>2710.0</ele>
        <time>2022-11-20T09:50:55.000Z</time>
      </trkpt>
      <trkpt lat="37.08245167" lon="-3.37908">
        <ele>2710.0</ele>
        <time>2022-11-20T09:50:56.000Z</time>
      </trkpt>
      <trkpt lat="37.082445" lon="-3.379075">
        <ele>2710.0</ele>
        <time>2022-11-20T09:50:57.000Z</time>
      </trkpt>
      <trkpt lat="37.08243833" lon="-3.37907">
        <ele>2710.0</ele>
        <time>2022-11-20T09:50:58.000Z</time>
      </trkpt>
      <trkpt lat="37.082435" lon="-3.37906667">
        <ele>2710.0</ele>
        <time>2022-11-20T09:50:59.000Z</time>
      </trkpt>
      <trkpt lat="37.08242667" lon="-3.37906">
        <ele>2710.0</ele>
        <time>2022-11-20T09:51:00.000Z</time>
      </trkpt>
      <trkpt lat="37.08242" lon="-3.37905667">
        <ele>2710.0</ele>
        <time>2022-11-20T09:51:01.000Z</time>
      </trkpt>
      <trkpt lat="37.082415" lon="-3.37905333">
        <ele>2710.0</ele>
        <time>2022-11-20T09:51:02.000Z</time>
      </trkpt>
      <trkpt lat="37.08240833" lon="-3.37904833">
        <ele>2711.0</ele>
        <time>2022-11-20T09:51:03.000Z</time>
      </trkpt>
      <trkpt lat="37.08240333" lon="-3.37904333">
        <ele>2711.0</ele>
        <time>2022-11-20T09:51:04.000Z</time>
      </trkpt>
      <trkpt lat="37.08239667" lon="-3.37903833">
        <ele>2711.0</ele>
        <time>2022-11-20T09:51:05.000Z</time>
      </trkpt>
      <trkpt lat="37.08239" lon="-3.379035">
        <ele>2711.0</ele>
        <time>2022-11-20T09:51:06.000Z</time>
      </trkpt>
      <trkpt lat="37.082385" lon="-3.37903167">
        <ele>2711.0</ele>
        <time>2022-11-20T09:51:07.000Z</time>
      </trkpt>
      <trkpt lat="37.08237667" lon="-3.379025">
        <ele>2711.0</ele>
        <time>2022-11-20T09:51:08.000Z</time>
      </trkpt>
      <trkpt lat="37.08237" lon="-3.37902">
        <ele>2711.0</ele>
        <time>2022-11-20T09:51:09.000Z</time>
      </trkpt>
      <trkpt lat="37.082365" lon="-3.37901667">
        <ele>2711.0</ele>
        <time>2022-11-20T09:51:10.000Z</time>
      </trkpt>
      <trkpt lat="37.08235833" lon="-3.37901167">
        <ele>2711.0</ele>
        <time>2022-11-20T09:51:11.000Z</time>
      </trkpt>
      <trkpt lat="37.08235167" lon="-3.37900667">
        <ele>2711.0</ele>
        <time>2022-11-20T09:51:12.000Z</time>
      </trkpt>
      <trkpt lat="37.082345" lon="-3.37900333">
        <ele>2711.0</ele>
        <time>2022-11-20T09:51:13.000Z</time>
      </trkpt>
      <trkpt lat="37.08234" lon="-3.379">
        <ele>2711.0</ele>
        <time>2022-11-20T09:51:14.000Z</time>
      </trkpt>
      <trkpt lat="37.082335" lon="-3.37899667">
        <ele>2712.0</ele>
        <time>2022-11-20T09:51:15.000Z</time>
      </trkpt>
      <trkpt lat="37.08232667" lon="-3.37899333">
        <ele>2712.0</ele>
        <time>2022-11-20T09:51:16.000Z</time>
      </trkpt>
      <trkpt lat="37.08232" lon="-3.37899">
        <ele>2712.0</ele>
        <time>2022-11-20T09:51:17.000Z</time>
      </trkpt>
      <trkpt lat="37.082315" lon="-3.37898667">
        <ele>2712.0</ele>
        <time>2022-11-20T09:51:18.000Z</time>
      </trkpt>
      <trkpt lat="37.08230833" lon="-3.378985">
        <ele>2712.0</ele>
        <time>2022-11-20T09:51:19.000Z</time>
      </trkpt>
      <trkpt lat="37.08230167" lon="-3.37898333">
        <ele>2712.0</ele>
        <time>2022-11-20T09:51:20.000Z</time>
      </trkpt>
      <trkpt lat="37.08229667" lon="-3.37898">
        <ele>2712.0</ele>
        <time>2022-11-20T09:51:21.000Z</time>
      </trkpt>
      <trkpt lat="37.08229" lon="-3.37897667">
        <ele>2712.0</ele>
        <time>2022-11-20T09:51:22.000Z</time>
      </trkpt>
      <trkpt lat="37.082285" lon="-3.37897333">
        <ele>2712.0</ele>
        <time>2022-11-20T09:51:23.000Z</time>
      </trkpt>
      <trkpt lat="37.08228" lon="-3.37897167">
        <ele>2712.0</ele>
        <time>2022-11-20T09:51:24.000Z</time>
      </trkpt>
      <trkpt lat="37.082275" lon="-3.37897">
        <ele>2712.0</ele>
        <time>2022-11-20T09:51:25.000Z</time>
      </trkpt>
      <trkpt lat="37.08227" lon="-3.37897333">
        <ele>2713.0</ele>
        <time>2022-11-20T09:51:26.000Z</time>
      </trkpt>
      <trkpt lat="37.08226333" lon="-3.37897167">
        <ele>2713.0</ele>
        <time>2022-11-20T09:51:27.000Z</time>
      </trkpt>
      <trkpt lat="37.08225833" lon="-3.37897">
        <ele>2713.0</ele>
        <time>2022-11-20T09:51:28.000Z</time>
      </trkpt>
      <trkpt lat="37.082255" lon="-3.37897">
        <ele>2713.0</ele>
        <time>2022-11-20T09:51:29.000Z</time>
      </trkpt>
      <trkpt lat="37.08225" lon="-3.37897">
        <ele>2713.0</ele>
        <time>2022-11-20T09:51:30.000Z</time>
      </trkpt>
      <trkpt lat="37.08224333" lon="-3.37896667">
        <ele>2713.0</ele>
        <time>2022-11-20T09:51:31.000Z</time>
      </trkpt>
      <trkpt lat="37.08223833" lon="-3.378965">
        <ele>2713.0</ele>
        <time>2022-11-20T09:51:32.000Z</time>
      </trkpt>
      <trkpt lat="37.08223167" lon="-3.37896167">
        <ele>2713.0</ele>
        <time>2022-11-20T09:51:33.000Z</time>
      </trkpt>
      <trkpt lat="37.08222667" lon="-3.37896">
        <ele>2714.0</ele>
        <time>2022-11-20T09:51:34.000Z</time>
      </trkpt>
      <trkpt lat="37.08221667" lon="-3.37896">
        <ele>2714.0</ele>
        <time>2022-11-20T09:51:35.000Z</time>
      </trkpt>
      <trkpt lat="37.08221167" lon="-3.37895667">
        <ele>2714.0</ele>
        <time>2022-11-20T09:51:36.000Z</time>
      </trkpt>
      <trkpt lat="37.082205" lon="-3.378955">
        <ele>2714.0</ele>
        <time>2022-11-20T09:51:37.000Z</time>
      </trkpt>
      <trkpt lat="37.08219833" lon="-3.37895167">
        <ele>2714.0</ele>
        <time>2022-11-20T09:51:38.000Z</time>
      </trkpt>
      <trkpt lat="37.08219167" lon="-3.37894833">
        <ele>2714.0</ele>
        <time>2022-11-20T09:51:39.000Z</time>
      </trkpt>
      <trkpt lat="37.082185" lon="-3.37894667">
        <ele>2714.0</ele>
        <time>2022-11-20T09:51:40.000Z</time>
      </trkpt>
      <trkpt lat="37.08217667" lon="-3.37894333">
        <ele>2714.0</ele>
        <time>2022-11-20T09:51:41.000Z</time>
      </trkpt>
      <trkpt lat="37.08217" lon="-3.37894">
        <ele>2714.0</ele>
        <time>2022-11-20T09:51:42.000Z</time>
      </trkpt>
      <trkpt lat="37.08216333" lon="-3.37893667">
        <ele>2714.0</ele>
        <time>2022-11-20T09:51:43.000Z</time>
      </trkpt>
      <trkpt lat="37.08215667" lon="-3.37893333">
        <ele>2715.0</ele>
        <time>2022-11-20T09:51:44.000Z</time>
      </trkpt>
      <trkpt lat="37.08215167" lon="-3.37893">
        <ele>2715.0</ele>
        <time>2022-11-20T09:51:45.000Z</time>
      </trkpt>
      <trkpt lat="37.082145" lon="-3.37892833">
        <ele>2715.0</ele>
        <time>2022-11-20T09:51:46.000Z</time>
      </trkpt>
      <trkpt lat="37.08213833" lon="-3.37892333">
        <ele>2715.0</ele>
        <time>2022-11-20T09:51:47.000Z</time>
      </trkpt>
      <trkpt lat="37.08212833" lon="-3.37891833">
        <ele>2715.0</ele>
        <time>2022-11-20T09:51:48.000Z</time>
      </trkpt>
      <trkpt lat="37.08212" lon="-3.37891333">
        <ele>2715.0</ele>
        <time>2022-11-20T09:51:49.000Z</time>
      </trkpt>
      <trkpt lat="37.08211333" lon="-3.37890833">
        <ele>2715.0</ele>
        <time>2022-11-20T09:51:50.000Z</time>
      </trkpt>
      <trkpt lat="37.08210667" lon="-3.378905">
        <ele>2715.0</ele>
        <time>2022-11-20T09:51:51.000Z</time>
      </trkpt>
      <trkpt lat="37.0821" lon="-3.37889833">
        <ele>2716.0</ele>
        <time>2022-11-20T09:51:52.000Z</time>
      </trkpt>
      <trkpt lat="37.08209167" lon="-3.37889167">
        <ele>2716.0</ele>
        <time>2022-11-20T09:51:53.000Z</time>
      </trkpt>
      <trkpt lat="37.082085" lon="-3.37888667">
        <ele>2716.0</ele>
        <time>2022-11-20T09:51:54.000Z</time>
      </trkpt>
      <trkpt lat="37.08207833" lon="-3.37888333">
        <ele>2716.0</ele>
        <time>2022-11-20T09:51:55.000Z</time>
      </trkpt>
      <trkpt lat="37.08207" lon="-3.37887667">
        <ele>2716.0</ele>
        <time>2022-11-20T09:51:56.000Z</time>
      </trkpt>
      <trkpt lat="37.08206333" lon="-3.37887167">
        <ele>2716.0</ele>
        <time>2022-11-20T09:51:57.000Z</time>
      </trkpt>
      <trkpt lat="37.08205667" lon="-3.37886333">
        <ele>2716.0</ele>
        <time>2022-11-20T09:51:58.000Z</time>
      </trkpt>
      <trkpt lat="37.08205167" lon="-3.37885667">
        <ele>2717.0</ele>
        <time>2022-11-20T09:51:59.000Z</time>
      </trkpt>
      <trkpt lat="37.082045" lon="-3.37885">
        <ele>2717.0</ele>
        <time>2022-11-20T09:52:00.000Z</time>
      </trkpt>
      <trkpt lat="37.08203833" lon="-3.37884333">
        <ele>2717.0</ele>
        <time>2022-11-20T09:52:01.000Z</time>
      </trkpt>
      <trkpt lat="37.08203333" lon="-3.37883667">
        <ele>2717.0</ele>
        <time>2022-11-20T09:52:02.000Z</time>
      </trkpt>
      <trkpt lat="37.08202333" lon="-3.37883">
        <ele>2717.0</ele>
        <time>2022-11-20T09:52:03.000Z</time>
      </trkpt>
      <trkpt lat="37.08201667" lon="-3.378825">
        <ele>2717.0</ele>
        <time>2022-11-20T09:52:04.000Z</time>
      </trkpt>
      <trkpt lat="37.08201" lon="-3.37882167">
        <ele>2717.0</ele>
        <time>2022-11-20T09:52:05.000Z</time>
      </trkpt>
      <trkpt lat="37.08200167" lon="-3.378815">
        <ele>2717.0</ele>
        <time>2022-11-20T09:52:06.000Z</time>
      </trkpt>
      <trkpt lat="37.08199667" lon="-3.37881">
        <ele>2717.0</ele>
        <time>2022-11-20T09:52:07.000Z</time>
      </trkpt>
      <trkpt lat="37.08198833" lon="-3.37880833">
        <ele>2717.0</ele>
        <time>2022-11-20T09:52:08.000Z</time>
      </trkpt>
      <trkpt lat="37.08198" lon="-3.37880667">
        <ele>2718.0</ele>
        <time>2022-11-20T09:52:09.000Z</time>
      </trkpt>
      <trkpt lat="37.08197167" lon="-3.37880333">
        <ele>2718.0</ele>
        <time>2022-11-20T09:52:10.000Z</time>
      </trkpt>
      <trkpt lat="37.08196333" lon="-3.3788">
        <ele>2718.0</ele>
        <time>2022-11-20T09:52:11.000Z</time>
      </trkpt>
      <trkpt lat="37.08195333" lon="-3.37879667">
        <ele>2718.0</ele>
        <time>2022-11-20T09:52:12.000Z</time>
      </trkpt>
      <trkpt lat="37.081945" lon="-3.37879333">
        <ele>2718.0</ele>
        <time>2022-11-20T09:52:13.000Z</time>
      </trkpt>
      <trkpt lat="37.08193833" lon="-3.37879">
        <ele>2718.0</ele>
        <time>2022-11-20T09:52:14.000Z</time>
      </trkpt>
      <trkpt lat="37.08192833" lon="-3.37878833">
        <ele>2718.0</ele>
        <time>2022-11-20T09:52:15.000Z</time>
      </trkpt>
      <trkpt lat="37.08191833" lon="-3.378785">
        <ele>2718.0</ele>
        <time>2022-11-20T09:52:16.000Z</time>
      </trkpt>
      <trkpt lat="37.08191" lon="-3.37878">
        <ele>2719.0</ele>
        <time>2022-11-20T09:52:17.000Z</time>
      </trkpt>
      <trkpt lat="37.08190333" lon="-3.378775">
        <ele>2719.0</ele>
        <time>2022-11-20T09:52:18.000Z</time>
      </trkpt>
      <trkpt lat="37.08189667" lon="-3.37877">
        <ele>2719.0</ele>
        <time>2022-11-20T09:52:19.000Z</time>
      </trkpt>
      <trkpt lat="37.08189" lon="-3.378765">
        <ele>2719.0</ele>
        <time>2022-11-20T09:52:20.000Z</time>
      </trkpt>
      <trkpt lat="37.08188167" lon="-3.378765">
        <ele>2719.0</ele>
        <time>2022-11-20T09:52:21.000Z</time>
      </trkpt>
      <trkpt lat="37.08187333" lon="-3.37876667">
        <ele>2719.0</ele>
        <time>2022-11-20T09:52:22.000Z</time>
      </trkpt>
      <trkpt lat="37.08186667" lon="-3.37876667">
        <ele>2720.0</ele>
        <time>2022-11-20T09:52:23.000Z</time>
      </trkpt>
      <trkpt lat="37.08186167" lon="-3.378765">
        <ele>2720.0</ele>
        <time>2022-11-20T09:52:24.000Z</time>
      </trkpt>
      <trkpt lat="37.08185333" lon="-3.378765">
        <ele>2720.0</ele>
        <time>2022-11-20T09:52:25.000Z</time>
      </trkpt>
      <trkpt lat="37.081845" lon="-3.378765">
        <ele>2720.0</ele>
        <time>2022-11-20T09:52:26.000Z</time>
      </trkpt>
      <trkpt lat="37.08184" lon="-3.378765">
        <ele>2720.0</ele>
        <time>2022-11-20T09:52:27.000Z</time>
      </trkpt>
      <trkpt lat="37.081835" lon="-3.37876">
        <ele>2720.0</ele>
        <time>2022-11-20T09:52:28.000Z</time>
      </trkpt>
      <trkpt lat="37.08183" lon="-3.378755">
        <ele>2720.0</ele>
        <time>2022-11-20T09:52:29.000Z</time>
      </trkpt>
      <trkpt lat="37.08182" lon="-3.37874667">
        <ele>2720.0</ele>
        <time>2022-11-20T09:52:30.000Z</time>
      </trkpt>
      <trkpt lat="37.08181333" lon="-3.37874">
        <ele>2721.0</ele>
        <time>2022-11-20T09:52:31.000Z</time>
      </trkpt>
      <trkpt lat="37.081805" lon="-3.37873">
        <ele>2721.0</ele>
        <time>2022-11-20T09:52:32.000Z</time>
      </trkpt>
      <trkpt lat="37.08179833" lon="-3.378725">
        <ele>2721.0</ele>
        <time>2022-11-20T09:52:33.000Z</time>
      </trkpt>
      <trkpt lat="37.08179167" lon="-3.37872">
        <ele>2721.0</ele>
        <time>2022-11-20T09:52:34.000Z</time>
      </trkpt>
      <trkpt lat="37.081785" lon="-3.37871667">
        <ele>2721.0</ele>
        <time>2022-11-20T09:52:35.000Z</time>
      </trkpt>
      <trkpt lat="37.08177833" lon="-3.37871333">
        <ele>2721.0</ele>
        <time>2022-11-20T09:52:36.000Z</time>
      </trkpt>
      <trkpt lat="37.08177" lon="-3.37871">
        <ele>2721.0</ele>
        <time>2022-11-20T09:52:37.000Z</time>
      </trkpt>
      <trkpt lat="37.081765" lon="-3.378705">
        <ele>2721.0</ele>
        <time>2022-11-20T09:52:38.000Z</time>
      </trkpt>
      <trkpt lat="37.08176" lon="-3.3787">
        <ele>2721.0</ele>
        <time>2022-11-20T09:52:39.000Z</time>
      </trkpt>
      <trkpt lat="37.08175333" lon="-3.37869167">
        <ele>2721.0</ele>
        <time>2022-11-20T09:52:40.000Z</time>
      </trkpt>
      <trkpt lat="37.08174667" lon="-3.378685">
        <ele>2721.0</ele>
        <time>2022-11-20T09:52:41.000Z</time>
      </trkpt>
      <trkpt lat="37.08174167" lon="-3.37868">
        <ele>2721.0</ele>
        <time>2022-11-20T09:52:42.000Z</time>
      </trkpt>
      <trkpt lat="37.08173667" lon="-3.37867667">
        <ele>2722.0</ele>
        <time>2022-11-20T09:52:43.000Z</time>
      </trkpt>
      <trkpt lat="37.08173" lon="-3.37867167">
        <ele>2722.0</ele>
        <time>2022-11-20T09:52:44.000Z</time>
      </trkpt>
      <trkpt lat="37.08172167" lon="-3.37866667">
        <ele>2722.0</ele>
        <time>2022-11-20T09:52:45.000Z</time>
      </trkpt>
      <trkpt lat="37.08171667" lon="-3.378665">
        <ele>2722.0</ele>
        <time>2022-11-20T09:52:46.000Z</time>
      </trkpt>
      <trkpt lat="37.08171" lon="-3.37866333">
        <ele>2722.0</ele>
        <time>2022-11-20T09:52:47.000Z</time>
      </trkpt>
      <trkpt lat="37.08170167" lon="-3.37865833">
        <ele>2722.0</ele>
        <time>2022-11-20T09:52:48.000Z</time>
      </trkpt>
      <trkpt lat="37.08169167" lon="-3.37865667">
        <ele>2723.0</ele>
        <time>2022-11-20T09:52:49.000Z</time>
      </trkpt>
      <trkpt lat="37.081685" lon="-3.37865167">
        <ele>2723.0</ele>
        <time>2022-11-20T09:52:50.000Z</time>
      </trkpt>
      <trkpt lat="37.08167833" lon="-3.37864667">
        <ele>2723.0</ele>
        <time>2022-11-20T09:52:51.000Z</time>
      </trkpt>
      <trkpt lat="37.08167" lon="-3.37864167">
        <ele>2723.0</ele>
        <time>2022-11-20T09:52:52.000Z</time>
      </trkpt>
      <trkpt lat="37.08166333" lon="-3.378635">
        <ele>2723.0</ele>
        <time>2022-11-20T09:52:53.000Z</time>
      </trkpt>
      <trkpt lat="37.08165667" lon="-3.37863">
        <ele>2723.0</ele>
        <time>2022-11-20T09:52:54.000Z</time>
      </trkpt>
      <trkpt lat="37.08165" lon="-3.37862667">
        <ele>2723.0</ele>
        <time>2022-11-20T09:52:55.000Z</time>
      </trkpt>
      <trkpt lat="37.08164167" lon="-3.37862">
        <ele>2724.0</ele>
        <time>2022-11-20T09:52:56.000Z</time>
      </trkpt>
      <trkpt lat="37.081635" lon="-3.37861667">
        <ele>2724.0</ele>
        <time>2022-11-20T09:52:57.000Z</time>
      </trkpt>
      <trkpt lat="37.08162667" lon="-3.37861">
        <ele>2724.0</ele>
        <time>2022-11-20T09:52:58.000Z</time>
      </trkpt>
      <trkpt lat="37.08162" lon="-3.37860667">
        <ele>2724.0</ele>
        <time>2022-11-20T09:52:59.000Z</time>
      </trkpt>
      <trkpt lat="37.08161167" lon="-3.3786">
        <ele>2724.0</ele>
        <time>2022-11-20T09:53:00.000Z</time>
      </trkpt>
      <trkpt lat="37.081605" lon="-3.37859333">
        <ele>2724.0</ele>
        <time>2022-11-20T09:53:01.000Z</time>
      </trkpt>
      <trkpt lat="37.0816" lon="-3.37858833">
        <ele>2725.0</ele>
        <time>2022-11-20T09:53:02.000Z</time>
      </trkpt>
      <trkpt lat="37.081595" lon="-3.37858333">
        <ele>2725.0</ele>
        <time>2022-11-20T09:53:03.000Z</time>
      </trkpt>
      <trkpt lat="37.08159333" lon="-3.37858">
        <ele>2725.0</ele>
        <time>2022-11-20T09:53:04.000Z</time>
      </trkpt>
      <trkpt lat="37.08159333" lon="-3.37857833">
        <ele>2725.0</ele>
        <time>2022-11-20T09:53:05.000Z</time>
      </trkpt>
      <trkpt lat="37.08159333" lon="-3.37857667">
        <ele>2725.0</ele>
        <time>2022-11-20T09:53:06.000Z</time>
      </trkpt>
      <trkpt lat="37.08159167" lon="-3.378575">
        <ele>2725.0</ele>
        <time>2022-11-20T09:53:07.000Z</time>
      </trkpt>
      <trkpt lat="37.081585" lon="-3.37857333">
        <ele>2725.0</ele>
        <time>2022-11-20T09:53:08.000Z</time>
      </trkpt>
      <trkpt lat="37.08157833" lon="-3.37856833">
        <ele>2725.0</ele>
        <time>2022-11-20T09:53:09.000Z</time>
      </trkpt>
      <trkpt lat="37.08157167" lon="-3.378565">
        <ele>2725.0</ele>
        <time>2022-11-20T09:53:10.000Z</time>
      </trkpt>
      <trkpt lat="37.081565" lon="-3.37855833">
        <ele>2725.0</ele>
        <time>2022-11-20T09:53:11.000Z</time>
      </trkpt>
      <trkpt lat="37.08155667" lon="-3.37855333">
        <ele>2725.0</ele>
        <time>2022-11-20T09:53:12.000Z</time>
      </trkpt>
      <trkpt lat="37.08154833" lon="-3.37854833">
        <ele>2725.0</ele>
        <time>2022-11-20T09:53:13.000Z</time>
      </trkpt>
      <trkpt lat="37.08154167" lon="-3.37854333">
        <ele>2725.0</ele>
        <time>2022-11-20T09:53:14.000Z</time>
      </trkpt>
      <trkpt lat="37.08153333" lon="-3.37853833">
        <ele>2725.0</ele>
        <time>2022-11-20T09:53:15.000Z</time>
      </trkpt>
      <trkpt lat="37.08152833" lon="-3.37853333">
        <ele>2725.0</ele>
        <time>2022-11-20T09:53:16.000Z</time>
      </trkpt>
      <trkpt lat="37.08151833" lon="-3.37853167">
        <ele>2725.0</ele>
        <time>2022-11-20T09:53:17.000Z</time>
      </trkpt>
      <trkpt lat="37.08150833" lon="-3.37852667">
        <ele>2725.0</ele>
        <time>2022-11-20T09:53:18.000Z</time>
      </trkpt>
      <trkpt lat="37.08149833" lon="-3.378525">
        <ele>2725.0</ele>
        <time>2022-11-20T09:53:19.000Z</time>
      </trkpt>
      <trkpt lat="37.08149" lon="-3.37852">
        <ele>2726.0</ele>
        <time>2022-11-20T09:53:20.000Z</time>
      </trkpt>
      <trkpt lat="37.08148" lon="-3.378515">
        <ele>2726.0</ele>
        <time>2022-11-20T09:53:21.000Z</time>
      </trkpt>
      <trkpt lat="37.081475" lon="-3.37851167">
        <ele>2726.0</ele>
        <time>2022-11-20T09:53:22.000Z</time>
      </trkpt>
      <trkpt lat="37.08146667" lon="-3.37851">
        <ele>2726.0</ele>
        <time>2022-11-20T09:53:23.000Z</time>
      </trkpt>
      <trkpt lat="37.08145833" lon="-3.37850667">
        <ele>2726.0</ele>
        <time>2022-11-20T09:53:24.000Z</time>
      </trkpt>
      <trkpt lat="37.08145333" lon="-3.378505">
        <ele>2726.0</ele>
        <time>2022-11-20T09:53:25.000Z</time>
      </trkpt>
      <trkpt lat="37.08144667" lon="-3.37850167">
        <ele>2726.0</ele>
        <time>2022-11-20T09:53:26.000Z</time>
      </trkpt>
      <trkpt lat="37.081435" lon="-3.37849833">
        <ele>2726.0</ele>
        <time>2022-11-20T09:53:27.000Z</time>
      </trkpt>
      <trkpt lat="37.081425" lon="-3.378495">
        <ele>2726.0</ele>
        <time>2022-11-20T09:53:28.000Z</time>
      </trkpt>
      <trkpt lat="37.081415" lon="-3.37849333">
        <ele>2726.0</ele>
        <time>2022-11-20T09:53:29.000Z</time>
      </trkpt>
      <trkpt lat="37.081405" lon="-3.37848833">
        <ele>2726.0</ele>
        <time>2022-11-20T09:53:30.000Z</time>
      </trkpt>
      <trkpt lat="37.08139833" lon="-3.378485">
        <ele>2726.0</ele>
        <time>2022-11-20T09:53:31.000Z</time>
      </trkpt>
      <trkpt lat="37.08139167" lon="-3.37848167">
        <ele>2726.0</ele>
        <time>2022-11-20T09:53:32.000Z</time>
      </trkpt>
      <trkpt lat="37.08138167" lon="-3.37847833">
        <ele>2726.0</ele>
        <time>2022-11-20T09:53:33.000Z</time>
      </trkpt>
      <trkpt lat="37.08137167" lon="-3.378475">
        <ele>2726.0</ele>
        <time>2022-11-20T09:53:34.000Z</time>
      </trkpt>
      <trkpt lat="37.08136" lon="-3.37847">
        <ele>2726.0</ele>
        <time>2022-11-20T09:53:35.000Z</time>
      </trkpt>
      <trkpt lat="37.08134833" lon="-3.37846333">
        <ele>2726.0</ele>
        <time>2022-11-20T09:53:36.000Z</time>
      </trkpt>
      <trkpt lat="37.08133833" lon="-3.378455">
        <ele>2726.0</ele>
        <time>2022-11-20T09:53:37.000Z</time>
      </trkpt>
      <trkpt lat="37.08132833" lon="-3.37844667">
        <ele>2726.0</ele>
        <time>2022-11-20T09:53:38.000Z</time>
      </trkpt>
      <trkpt lat="37.08132" lon="-3.37843667">
        <ele>2726.0</ele>
        <time>2022-11-20T09:53:39.000Z</time>
      </trkpt>
      <trkpt lat="37.08131333" lon="-3.37843">
        <ele>2726.0</ele>
        <time>2022-11-20T09:53:40.000Z</time>
      </trkpt>
      <trkpt lat="37.08130167" lon="-3.37842167">
        <ele>2727.0</ele>
        <time>2022-11-20T09:53:41.000Z</time>
      </trkpt>
      <trkpt lat="37.08129167" lon="-3.378415">
        <ele>2727.0</ele>
        <time>2022-11-20T09:53:42.000Z</time>
      </trkpt>
      <trkpt lat="37.08128333" lon="-3.37841">
        <ele>2727.0</ele>
        <time>2022-11-20T09:53:43.000Z</time>
      </trkpt>
      <trkpt lat="37.081275" lon="-3.37840667">
        <ele>2727.0</ele>
        <time>2022-11-20T09:53:44.000Z</time>
      </trkpt>
      <trkpt lat="37.08127" lon="-3.37840333">
        <ele>2727.0</ele>
        <time>2022-11-20T09:53:45.000Z</time>
      </trkpt>
      <trkpt lat="37.081265" lon="-3.37839667">
        <ele>2727.0</ele>
        <time>2022-11-20T09:53:46.000Z</time>
      </trkpt>
      <trkpt lat="37.08126167" lon="-3.37839333">
        <ele>2727.0</ele>
        <time>2022-11-20T09:53:47.000Z</time>
      </trkpt>
      <trkpt lat="37.081255" lon="-3.37839">
        <ele>2728.0</ele>
        <time>2022-11-20T09:53:48.000Z</time>
      </trkpt>
      <trkpt lat="37.08125" lon="-3.378385">
        <ele>2728.0</ele>
        <time>2022-11-20T09:53:49.000Z</time>
      </trkpt>
      <trkpt lat="37.081245" lon="-3.37838">
        <ele>2728.0</ele>
        <time>2022-11-20T09:53:50.000Z</time>
      </trkpt>
      <trkpt lat="37.08123833" lon="-3.378375">
        <ele>2728.0</ele>
        <time>2022-11-20T09:53:51.000Z</time>
      </trkpt>
      <trkpt lat="37.08123167" lon="-3.37837">
        <ele>2728.0</ele>
        <time>2022-11-20T09:53:52.000Z</time>
      </trkpt>
      <trkpt lat="37.081225" lon="-3.378365">
        <ele>2728.0</ele>
        <time>2022-11-20T09:53:53.000Z</time>
      </trkpt>
      <trkpt lat="37.08121667" lon="-3.37835667">
        <ele>2728.0</ele>
        <time>2022-11-20T09:53:54.000Z</time>
      </trkpt>
      <trkpt lat="37.08121" lon="-3.37835167">
        <ele>2729.0</ele>
        <time>2022-11-20T09:53:55.000Z</time>
      </trkpt>
      <trkpt lat="37.08120333" lon="-3.37834333">
        <ele>2729.0</ele>
        <time>2022-11-20T09:53:56.000Z</time>
      </trkpt>
      <trkpt lat="37.08119667" lon="-3.37833667">
        <ele>2729.0</ele>
        <time>2022-11-20T09:53:57.000Z</time>
      </trkpt>
      <trkpt lat="37.08119" lon="-3.37833167">
        <ele>2729.0</ele>
        <time>2022-11-20T09:53:58.000Z</time>
      </trkpt>
      <trkpt lat="37.081185" lon="-3.37832667">
        <ele>2729.0</ele>
        <time>2022-11-20T09:53:59.000Z</time>
      </trkpt>
      <trkpt lat="37.08117833" lon="-3.37831833">
        <ele>2730.0</ele>
        <time>2022-11-20T09:54:00.000Z</time>
      </trkpt>
      <trkpt lat="37.08117333" lon="-3.37831167">
        <ele>2730.0</ele>
        <time>2022-11-20T09:54:01.000Z</time>
      </trkpt>
      <trkpt lat="37.08116667" lon="-3.37830667">
        <ele>2730.0</ele>
        <time>2022-11-20T09:54:02.000Z</time>
      </trkpt>
      <trkpt lat="37.08116" lon="-3.3783">
        <ele>2730.0</ele>
        <time>2022-11-20T09:54:03.000Z</time>
      </trkpt>
      <trkpt lat="37.081155" lon="-3.37829667">
        <ele>2730.0</ele>
        <time>2022-11-20T09:54:04.000Z</time>
      </trkpt>
      <trkpt lat="37.08114833" lon="-3.37829167">
        <ele>2730.0</ele>
        <time>2022-11-20T09:54:05.000Z</time>
      </trkpt>
      <trkpt lat="37.08114" lon="-3.378285">
        <ele>2730.0</ele>
        <time>2022-11-20T09:54:06.000Z</time>
      </trkpt>
      <trkpt lat="37.08113333" lon="-3.37827833">
        <ele>2731.0</ele>
        <time>2022-11-20T09:54:07.000Z</time>
      </trkpt>
      <trkpt lat="37.08112833" lon="-3.37827333">
        <ele>2731.0</ele>
        <time>2022-11-20T09:54:08.000Z</time>
      </trkpt>
      <trkpt lat="37.08112333" lon="-3.37826667">
        <ele>2731.0</ele>
        <time>2022-11-20T09:54:09.000Z</time>
      </trkpt>
      <trkpt lat="37.08111667" lon="-3.37825833">
        <ele>2731.0</ele>
        <time>2022-11-20T09:54:10.000Z</time>
      </trkpt>
      <trkpt lat="37.08111" lon="-3.37825167">
        <ele>2731.0</ele>
        <time>2022-11-20T09:54:11.000Z</time>
      </trkpt>
      <trkpt lat="37.08110333" lon="-3.378245">
        <ele>2732.0</ele>
        <time>2022-11-20T09:54:12.000Z</time>
      </trkpt>
      <trkpt lat="37.08109667" lon="-3.37823833">
        <ele>2732.0</ele>
        <time>2022-11-20T09:54:13.000Z</time>
      </trkpt>
      <trkpt lat="37.08109" lon="-3.37823167">
        <ele>2732.0</ele>
        <time>2022-11-20T09:54:14.000Z</time>
      </trkpt>
      <trkpt lat="37.081085" lon="-3.378225">
        <ele>2732.0</ele>
        <time>2022-11-20T09:54:15.000Z</time>
      </trkpt>
      <trkpt lat="37.08108" lon="-3.37821833">
        <ele>2732.0</ele>
        <time>2022-11-20T09:54:16.000Z</time>
      </trkpt>
      <trkpt lat="37.08107333" lon="-3.37821167">
        <ele>2732.0</ele>
        <time>2022-11-20T09:54:17.000Z</time>
      </trkpt>
      <trkpt lat="37.08106667" lon="-3.378205">
        <ele>2733.0</ele>
        <time>2022-11-20T09:54:18.000Z</time>
      </trkpt>
      <trkpt lat="37.08106" lon="-3.3782">
        <ele>2733.0</ele>
        <time>2022-11-20T09:54:19.000Z</time>
      </trkpt>
      <trkpt lat="37.081055" lon="-3.37819333">
        <ele>2733.0</ele>
        <time>2022-11-20T09:54:20.000Z</time>
      </trkpt>
      <trkpt lat="37.08104833" lon="-3.37818833">
        <ele>2733.0</ele>
        <time>2022-11-20T09:54:21.000Z</time>
      </trkpt>
      <trkpt lat="37.08104167" lon="-3.37818333">
        <ele>2733.0</ele>
        <time>2022-11-20T09:54:22.000Z</time>
      </trkpt>
      <trkpt lat="37.08103667" lon="-3.378175">
        <ele>2733.0</ele>
        <time>2022-11-20T09:54:23.000Z</time>
      </trkpt>
      <trkpt lat="37.08103167" lon="-3.37816833">
        <ele>2734.0</ele>
        <time>2022-11-20T09:54:24.000Z</time>
      </trkpt>
      <trkpt lat="37.08102667" lon="-3.37815833">
        <ele>2734.0</ele>
        <time>2022-11-20T09:54:25.000Z</time>
      </trkpt>
      <trkpt lat="37.08102167" lon="-3.37815167">
        <ele>2734.0</ele>
        <time>2022-11-20T09:54:26.000Z</time>
      </trkpt>
      <trkpt lat="37.08101833" lon="-3.37814833">
        <ele>2734.0</ele>
        <time>2022-11-20T09:54:27.000Z</time>
      </trkpt>
      <trkpt lat="37.08101" lon="-3.37814167">
        <ele>2734.0</ele>
        <time>2022-11-20T09:54:28.000Z</time>
      </trkpt>
      <trkpt lat="37.081005" lon="-3.37813667">
        <ele>2734.0</ele>
        <time>2022-11-20T09:54:29.000Z</time>
      </trkpt>
      <trkpt lat="37.08099833" lon="-3.37813167">
        <ele>2734.0</ele>
        <time>2022-11-20T09:54:30.000Z</time>
      </trkpt>
      <trkpt lat="37.08099333" lon="-3.37812667">
        <ele>2734.0</ele>
        <time>2022-11-20T09:54:31.000Z</time>
      </trkpt>
      <trkpt lat="37.08098667" lon="-3.37812167">
        <ele>2735.0</ele>
        <time>2022-11-20T09:54:32.000Z</time>
      </trkpt>
      <trkpt lat="37.08098167" lon="-3.37811667">
        <ele>2735.0</ele>
        <time>2022-11-20T09:54:33.000Z</time>
      </trkpt>
      <trkpt lat="37.08097667" lon="-3.37811167">
        <ele>2735.0</ele>
        <time>2022-11-20T09:54:34.000Z</time>
      </trkpt>
      <trkpt lat="37.08097167" lon="-3.378105">
        <ele>2735.0</ele>
        <time>2022-11-20T09:54:35.000Z</time>
      </trkpt>
      <trkpt lat="37.08096667" lon="-3.37809667">
        <ele>2735.0</ele>
        <time>2022-11-20T09:54:36.000Z</time>
      </trkpt>
      <trkpt lat="37.08096333" lon="-3.37809167">
        <ele>2735.0</ele>
        <time>2022-11-20T09:54:37.000Z</time>
      </trkpt>
      <trkpt lat="37.08095833" lon="-3.37808333">
        <ele>2735.0</ele>
        <time>2022-11-20T09:54:38.000Z</time>
      </trkpt>
      <trkpt lat="37.080955" lon="-3.37807833">
        <ele>2735.0</ele>
        <time>2022-11-20T09:54:39.000Z</time>
      </trkpt>
      <trkpt lat="37.08095" lon="-3.37807">
        <ele>2735.0</ele>
        <time>2022-11-20T09:54:40.000Z</time>
      </trkpt>
      <trkpt lat="37.080945" lon="-3.378065">
        <ele>2736.0</ele>
        <time>2022-11-20T09:54:41.000Z</time>
      </trkpt>
      <trkpt lat="37.08094" lon="-3.37805667">
        <ele>2736.0</ele>
        <time>2022-11-20T09:54:42.000Z</time>
      </trkpt>
      <trkpt lat="37.080935" lon="-3.37805333">
        <ele>2736.0</ele>
        <time>2022-11-20T09:54:43.000Z</time>
      </trkpt>
      <trkpt lat="37.08093" lon="-3.37804833">
        <ele>2736.0</ele>
        <time>2022-11-20T09:54:44.000Z</time>
      </trkpt>
      <trkpt lat="37.080925" lon="-3.37804333">
        <ele>2736.0</ele>
        <time>2022-11-20T09:54:45.000Z</time>
      </trkpt>
      <trkpt lat="37.08091667" lon="-3.37804">
        <ele>2736.0</ele>
        <time>2022-11-20T09:54:46.000Z</time>
      </trkpt>
      <trkpt lat="37.08091167" lon="-3.378035">
        <ele>2737.0</ele>
        <time>2022-11-20T09:54:47.000Z</time>
      </trkpt>
      <trkpt lat="37.080905" lon="-3.37803">
        <ele>2737.0</ele>
        <time>2022-11-20T09:54:48.000Z</time>
      </trkpt>
      <trkpt lat="37.0809" lon="-3.378025">
        <ele>2737.0</ele>
        <time>2022-11-20T09:54:49.000Z</time>
      </trkpt>
      <trkpt lat="37.08089167" lon="-3.37801833">
        <ele>2737.0</ele>
        <time>2022-11-20T09:54:50.000Z</time>
      </trkpt>
      <trkpt lat="37.08088667" lon="-3.37801333">
        <ele>2737.0</ele>
        <time>2022-11-20T09:54:51.000Z</time>
      </trkpt>
      <trkpt lat="37.08088" lon="-3.37801">
        <ele>2737.0</ele>
        <time>2022-11-20T09:54:52.000Z</time>
      </trkpt>
      <trkpt lat="37.08087167" lon="-3.378005">
        <ele>2738.0</ele>
        <time>2022-11-20T09:54:53.000Z</time>
      </trkpt>
      <trkpt lat="37.080865" lon="-3.37800167">
        <ele>2738.0</ele>
        <time>2022-11-20T09:54:54.000Z</time>
      </trkpt>
      <trkpt lat="37.08086" lon="-3.37799667">
        <ele>2738.0</ele>
        <time>2022-11-20T09:54:55.000Z</time>
      </trkpt>
      <trkpt lat="37.08085333" lon="-3.37799333">
        <ele>2738.0</ele>
        <time>2022-11-20T09:54:56.000Z</time>
      </trkpt>
      <trkpt lat="37.08084833" lon="-3.37798667">
        <ele>2738.0</ele>
        <time>2022-11-20T09:54:57.000Z</time>
      </trkpt>
      <trkpt lat="37.08084167" lon="-3.37798333">
        <ele>2738.0</ele>
        <time>2022-11-20T09:54:58.000Z</time>
      </trkpt>
      <trkpt lat="37.080835" lon="-3.37798">
        <ele>2739.0</ele>
        <time>2022-11-20T09:54:59.000Z</time>
      </trkpt>
      <trkpt lat="37.08082833" lon="-3.37797667">
        <ele>2739.0</ele>
        <time>2022-11-20T09:55:00.000Z</time>
      </trkpt>
      <trkpt lat="37.08082167" lon="-3.37797167">
        <ele>2739.0</ele>
        <time>2022-11-20T09:55:01.000Z</time>
      </trkpt>
      <trkpt lat="37.08081333" lon="-3.37796667">
        <ele>2739.0</ele>
        <time>2022-11-20T09:55:02.000Z</time>
      </trkpt>
      <trkpt lat="37.080805" lon="-3.37796">
        <ele>2739.0</ele>
        <time>2022-11-20T09:55:03.000Z</time>
      </trkpt>
      <trkpt lat="37.08079833" lon="-3.37795333">
        <ele>2739.0</ele>
        <time>2022-11-20T09:55:04.000Z</time>
      </trkpt>
      <trkpt lat="37.08079167" lon="-3.37794833">
        <ele>2739.0</ele>
        <time>2022-11-20T09:55:05.000Z</time>
      </trkpt>
      <trkpt lat="37.08078667" lon="-3.377945">
        <ele>2739.0</ele>
        <time>2022-11-20T09:55:06.000Z</time>
      </trkpt>
      <trkpt lat="37.08078" lon="-3.37793667">
        <ele>2739.0</ele>
        <time>2022-11-20T09:55:07.000Z</time>
      </trkpt>
      <trkpt lat="37.08077333" lon="-3.37793">
        <ele>2739.0</ele>
        <time>2022-11-20T09:55:08.000Z</time>
      </trkpt>
      <trkpt lat="37.08076833" lon="-3.37792167">
        <ele>2739.0</ele>
        <time>2022-11-20T09:55:09.000Z</time>
      </trkpt>
      <trkpt lat="37.08076167" lon="-3.377915">
        <ele>2740.0</ele>
        <time>2022-11-20T09:55:10.000Z</time>
      </trkpt>
      <trkpt lat="37.080755" lon="-3.37790833">
        <ele>2740.0</ele>
        <time>2022-11-20T09:55:11.000Z</time>
      </trkpt>
      <trkpt lat="37.08074833" lon="-3.37790167">
        <ele>2740.0</ele>
        <time>2022-11-20T09:55:12.000Z</time>
      </trkpt>
      <trkpt lat="37.08074167" lon="-3.377895">
        <ele>2740.0</ele>
        <time>2022-11-20T09:55:13.000Z</time>
      </trkpt>
      <trkpt lat="37.08073667" lon="-3.37788667">
        <ele>2740.0</ele>
        <time>2022-11-20T09:55:14.000Z</time>
      </trkpt>
      <trkpt lat="37.08073167" lon="-3.37788">
        <ele>2740.0</ele>
        <time>2022-11-20T09:55:15.000Z</time>
      </trkpt>
      <trkpt lat="37.080725" lon="-3.37787333">
        <ele>2740.0</ele>
        <time>2022-11-20T09:55:16.000Z</time>
      </trkpt>
      <trkpt lat="37.08072333" lon="-3.37787167">
        <ele>2740.0</ele>
        <time>2022-11-20T09:55:17.000Z</time>
      </trkpt>
      <trkpt lat="37.08072333" lon="-3.37786667">
        <ele>2740.0</ele>
        <time>2022-11-20T09:55:18.000Z</time>
      </trkpt>
      <trkpt lat="37.080715" lon="-3.37786333">
        <ele>2740.0</ele>
        <time>2022-11-20T09:55:19.000Z</time>
      </trkpt>
      <trkpt lat="37.08070833" lon="-3.37785833">
        <ele>2740.0</ele>
        <time>2022-11-20T09:55:20.000Z</time>
      </trkpt>
      <trkpt lat="37.08070167" lon="-3.37785">
        <ele>2741.0</ele>
        <time>2022-11-20T09:55:21.000Z</time>
      </trkpt>
      <trkpt lat="37.08069667" lon="-3.377845">
        <ele>2741.0</ele>
        <time>2022-11-20T09:55:22.000Z</time>
      </trkpt>
      <trkpt lat="37.08069" lon="-3.37784">
        <ele>2741.0</ele>
        <time>2022-11-20T09:55:23.000Z</time>
      </trkpt>
      <trkpt lat="37.08068167" lon="-3.37783333">
        <ele>2741.0</ele>
        <time>2022-11-20T09:55:24.000Z</time>
      </trkpt>
      <trkpt lat="37.080675" lon="-3.37782667">
        <ele>2741.0</ele>
        <time>2022-11-20T09:55:25.000Z</time>
      </trkpt>
      <trkpt lat="37.08066833" lon="-3.37782167">
        <ele>2741.0</ele>
        <time>2022-11-20T09:55:26.000Z</time>
      </trkpt>
      <trkpt lat="37.08066167" lon="-3.37781667">
        <ele>2741.0</ele>
        <time>2022-11-20T09:55:27.000Z</time>
      </trkpt>
      <trkpt lat="37.08065333" lon="-3.37781167">
        <ele>2741.0</ele>
        <time>2022-11-20T09:55:28.000Z</time>
      </trkpt>
      <trkpt lat="37.08064667" lon="-3.37780833">
        <ele>2741.0</ele>
        <time>2022-11-20T09:55:29.000Z</time>
      </trkpt>
      <trkpt lat="37.08063833" lon="-3.37780167">
        <ele>2741.0</ele>
        <time>2022-11-20T09:55:30.000Z</time>
      </trkpt>
      <trkpt lat="37.08063" lon="-3.37779333">
        <ele>2741.0</ele>
        <time>2022-11-20T09:55:31.000Z</time>
      </trkpt>
      <trkpt lat="37.08062167" lon="-3.37778833">
        <ele>2742.0</ele>
        <time>2022-11-20T09:55:32.000Z</time>
      </trkpt>
      <trkpt lat="37.08061333" lon="-3.37778167">
        <ele>2742.0</ele>
        <time>2022-11-20T09:55:33.000Z</time>
      </trkpt>
      <trkpt lat="37.08060833" lon="-3.37777833">
        <ele>2742.0</ele>
        <time>2022-11-20T09:55:34.000Z</time>
      </trkpt>
      <trkpt lat="37.0806" lon="-3.37777333">
        <ele>2742.0</ele>
        <time>2022-11-20T09:55:35.000Z</time>
      </trkpt>
      <trkpt lat="37.080595" lon="-3.377765">
        <ele>2742.0</ele>
        <time>2022-11-20T09:55:36.000Z</time>
      </trkpt>
      <trkpt lat="37.08058833" lon="-3.37775833">
        <ele>2742.0</ele>
        <time>2022-11-20T09:55:37.000Z</time>
      </trkpt>
      <trkpt lat="37.08058" lon="-3.37774833">
        <ele>2742.0</ele>
        <time>2022-11-20T09:55:38.000Z</time>
      </trkpt>
      <trkpt lat="37.08057333" lon="-3.37774333">
        <ele>2742.0</ele>
        <time>2022-11-20T09:55:39.000Z</time>
      </trkpt>
      <trkpt lat="37.08056667" lon="-3.37773667">
        <ele>2742.0</ele>
        <time>2022-11-20T09:55:40.000Z</time>
      </trkpt>
      <trkpt lat="37.08056" lon="-3.37773">
        <ele>2742.0</ele>
        <time>2022-11-20T09:55:41.000Z</time>
      </trkpt>
      <trkpt lat="37.080555" lon="-3.377725">
        <ele>2742.0</ele>
        <time>2022-11-20T09:55:42.000Z</time>
      </trkpt>
      <trkpt lat="37.08054833" lon="-3.37772">
        <ele>2742.0</ele>
        <time>2022-11-20T09:55:43.000Z</time>
      </trkpt>
      <trkpt lat="37.08054167" lon="-3.37771333">
        <ele>2743.0</ele>
        <time>2022-11-20T09:55:44.000Z</time>
      </trkpt>
      <trkpt lat="37.080535" lon="-3.37771">
        <ele>2743.0</ele>
        <time>2022-11-20T09:55:45.000Z</time>
      </trkpt>
      <trkpt lat="37.08052667" lon="-3.37770667">
        <ele>2743.0</ele>
        <time>2022-11-20T09:55:46.000Z</time>
      </trkpt>
      <trkpt lat="37.08051833" lon="-3.37770333">
        <ele>2743.0</ele>
        <time>2022-11-20T09:55:47.000Z</time>
      </trkpt>
      <trkpt lat="37.08050833" lon="-3.3777">
        <ele>2743.0</ele>
        <time>2022-11-20T09:55:48.000Z</time>
      </trkpt>
      <trkpt lat="37.08049833" lon="-3.37769667">
        <ele>2743.0</ele>
        <time>2022-11-20T09:55:49.000Z</time>
      </trkpt>
      <trkpt lat="37.08049" lon="-3.377695">
        <ele>2743.0</ele>
        <time>2022-11-20T09:55:50.000Z</time>
      </trkpt>
      <trkpt lat="37.08048" lon="-3.37769167">
        <ele>2743.0</ele>
        <time>2022-11-20T09:55:51.000Z</time>
      </trkpt>
      <trkpt lat="37.08047333" lon="-3.37768833">
        <ele>2743.0</ele>
        <time>2022-11-20T09:55:52.000Z</time>
      </trkpt>
      <trkpt lat="37.080465" lon="-3.37768333">
        <ele>2744.0</ele>
        <time>2022-11-20T09:55:53.000Z</time>
      </trkpt>
      <trkpt lat="37.08045833" lon="-3.37767667">
        <ele>2744.0</ele>
        <time>2022-11-20T09:55:54.000Z</time>
      </trkpt>
      <trkpt lat="37.080455" lon="-3.37767167">
        <ele>2744.0</ele>
        <time>2022-11-20T09:55:55.000Z</time>
      </trkpt>
      <trkpt lat="37.08045167" lon="-3.37766333">
        <ele>2744.0</ele>
        <time>2022-11-20T09:55:56.000Z</time>
      </trkpt>
      <trkpt lat="37.08044833" lon="-3.37766">
        <ele>2744.0</ele>
        <time>2022-11-20T09:55:57.000Z</time>
      </trkpt>
      <trkpt lat="37.080445" lon="-3.377655">
        <ele>2744.0</ele>
        <time>2022-11-20T09:55:58.000Z</time>
      </trkpt>
      <trkpt lat="37.08044" lon="-3.37765167">
        <ele>2744.0</ele>
        <time>2022-11-20T09:55:59.000Z</time>
      </trkpt>
      <trkpt lat="37.08043333" lon="-3.37764667">
        <ele>2744.0</ele>
        <time>2022-11-20T09:56:00.000Z</time>
      </trkpt>
      <trkpt lat="37.08042667" lon="-3.37764">
        <ele>2744.0</ele>
        <time>2022-11-20T09:56:01.000Z</time>
      </trkpt>
      <trkpt lat="37.08042167" lon="-3.377635">
        <ele>2744.0</ele>
        <time>2022-11-20T09:56:02.000Z</time>
      </trkpt>
      <trkpt lat="37.080415" lon="-3.37763">
        <ele>2744.0</ele>
        <time>2022-11-20T09:56:03.000Z</time>
      </trkpt>
      <trkpt lat="37.080405" lon="-3.37762333">
        <ele>2744.0</ele>
        <time>2022-11-20T09:56:04.000Z</time>
      </trkpt>
      <trkpt lat="37.08039667" lon="-3.377615">
        <ele>2744.0</ele>
        <time>2022-11-20T09:56:05.000Z</time>
      </trkpt>
      <trkpt lat="37.08038833" lon="-3.37760833">
        <ele>2745.0</ele>
        <time>2022-11-20T09:56:06.000Z</time>
      </trkpt>
      <trkpt lat="37.08037833" lon="-3.37760333">
        <ele>2745.0</ele>
        <time>2022-11-20T09:56:07.000Z</time>
      </trkpt>
      <trkpt lat="37.08037167" lon="-3.37759667">
        <ele>2745.0</ele>
        <time>2022-11-20T09:56:08.000Z</time>
      </trkpt>
      <trkpt lat="37.08036333" lon="-3.37759333">
        <ele>2745.0</ele>
        <time>2022-11-20T09:56:09.000Z</time>
      </trkpt>
      <trkpt lat="37.08035833" lon="-3.37759333">
        <ele>2745.0</ele>
        <time>2022-11-20T09:56:10.000Z</time>
      </trkpt>
      <trkpt lat="37.08035" lon="-3.377595">
        <ele>2745.0</ele>
        <time>2022-11-20T09:56:11.000Z</time>
      </trkpt>
      <trkpt lat="37.08034" lon="-3.377595">
        <ele>2745.0</ele>
        <time>2022-11-20T09:56:12.000Z</time>
      </trkpt>
      <trkpt lat="37.08033167" lon="-3.37759">
        <ele>2745.0</ele>
        <time>2022-11-20T09:56:13.000Z</time>
      </trkpt>
      <trkpt lat="37.080325" lon="-3.37758667">
        <ele>2745.0</ele>
        <time>2022-11-20T09:56:14.000Z</time>
      </trkpt>
      <trkpt lat="37.08032167" lon="-3.37758333">
        <ele>2745.0</ele>
        <time>2022-11-20T09:56:15.000Z</time>
      </trkpt>
      <trkpt lat="37.08031667" lon="-3.37758167">
        <ele>2745.0</ele>
        <time>2022-11-20T09:56:16.000Z</time>
      </trkpt>
      <trkpt lat="37.08031167" lon="-3.37757833">
        <ele>2745.0</ele>
        <time>2022-11-20T09:56:17.000Z</time>
      </trkpt>
      <trkpt lat="37.08030667" lon="-3.37757167">
        <ele>2745.0</ele>
        <time>2022-11-20T09:56:18.000Z</time>
      </trkpt>
      <trkpt lat="37.08030167" lon="-3.37756833">
        <ele>2746.0</ele>
        <time>2022-11-20T09:56:19.000Z</time>
      </trkpt>
      <trkpt lat="37.08029833" lon="-3.377565">
        <ele>2746.0</ele>
        <time>2022-11-20T09:56:20.000Z</time>
      </trkpt>
      <trkpt lat="37.08029667" lon="-3.37756333">
        <ele>2746.0</ele>
        <time>2022-11-20T09:56:21.000Z</time>
      </trkpt>
      <trkpt lat="37.08029667" lon="-3.37756333">
        <ele>2746.0</ele>
        <time>2022-11-20T09:56:22.000Z</time>
      </trkpt>
      <trkpt lat="37.08029667" lon="-3.37756333">
        <ele>2746.0</ele>
        <time>2022-11-20T09:56:23.000Z</time>
      </trkpt>
      <trkpt lat="37.08029667" lon="-3.37756333">
        <ele>2746.0</ele>
        <time>2022-11-20T09:56:24.000Z</time>
      </trkpt>
      <trkpt lat="37.08029333" lon="-3.377565">
        <ele>2746.0</ele>
        <time>2022-11-20T09:56:25.000Z</time>
      </trkpt>
      <trkpt lat="37.080285" lon="-3.37756333">
        <ele>2746.0</ele>
        <time>2022-11-20T09:56:26.000Z</time>
      </trkpt>
      <trkpt lat="37.08027833" lon="-3.37756333">
        <ele>2746.0</ele>
        <time>2022-11-20T09:56:27.000Z</time>
      </trkpt>
      <trkpt lat="37.08027167" lon="-3.37756333">
        <ele>2746.0</ele>
        <time>2022-11-20T09:56:28.000Z</time>
      </trkpt>
      <trkpt lat="37.080265" lon="-3.37756333">
        <ele>2746.0</ele>
        <time>2022-11-20T09:56:29.000Z</time>
      </trkpt>
      <trkpt lat="37.08026" lon="-3.37756333">
        <ele>2746.0</ele>
        <time>2022-11-20T09:56:30.000Z</time>
      </trkpt>
      <trkpt lat="37.080255" lon="-3.377565">
        <ele>2746.0</ele>
        <time>2022-11-20T09:56:31.000Z</time>
      </trkpt>
      <trkpt lat="37.08025333" lon="-3.377565">
        <ele>2746.0</ele>
        <time>2022-11-20T09:56:32.000Z</time>
      </trkpt>
      <trkpt lat="37.08025333" lon="-3.377565">
        <ele>2746.0</ele>
        <time>2022-11-20T09:56:33.000Z</time>
      </trkpt>
      <trkpt lat="37.08025333" lon="-3.377565">
        <ele>2746.0</ele>
        <time>2022-11-20T09:56:34.000Z</time>
      </trkpt>
      <trkpt lat="37.08025167" lon="-3.377565">
        <ele>2746.0</ele>
        <time>2022-11-20T09:56:35.000Z</time>
      </trkpt>
      <trkpt lat="37.08024833" lon="-3.377565">
        <ele>2746.0</ele>
        <time>2022-11-20T09:56:36.000Z</time>
      </trkpt>
      <trkpt lat="37.08024333" lon="-3.377565">
        <ele>2746.0</ele>
        <time>2022-11-20T09:56:37.000Z</time>
      </trkpt>
      <trkpt lat="37.08023833" lon="-3.37756667">
        <ele>2746.0</ele>
        <time>2022-11-20T09:56:38.000Z</time>
      </trkpt>
      <trkpt lat="37.08023" lon="-3.37756833">
        <ele>2747.0</ele>
        <time>2022-11-20T09:56:39.000Z</time>
      </trkpt>
      <trkpt lat="37.08022333" lon="-3.37757">
        <ele>2747.0</ele>
        <time>2022-11-20T09:56:40.000Z</time>
      </trkpt>
      <trkpt lat="37.080215" lon="-3.37756833">
        <ele>2747.0</ele>
        <time>2022-11-20T09:56:41.000Z</time>
      </trkpt>
      <trkpt lat="37.08021" lon="-3.37756667">
        <ele>2747.0</ele>
        <time>2022-11-20T09:56:42.000Z</time>
      </trkpt>
      <trkpt lat="37.08020167" lon="-3.377565">
        <ele>2747.0</ele>
        <time>2022-11-20T09:56:43.000Z</time>
      </trkpt>
      <trkpt lat="37.080195" lon="-3.37756167">
        <ele>2747.0</ele>
        <time>2022-11-20T09:56:44.000Z</time>
      </trkpt>
      <trkpt lat="37.08019" lon="-3.37756">
        <ele>2747.0</ele>
        <time>2022-11-20T09:56:45.000Z</time>
      </trkpt>
      <trkpt lat="37.08018333" lon="-3.37756">
        <ele>2748.0</ele>
        <time>2022-11-20T09:56:46.000Z</time>
      </trkpt>
      <trkpt lat="37.080175" lon="-3.37755833">
        <ele>2748.0</ele>
        <time>2022-11-20T09:56:47.000Z</time>
      </trkpt>
      <trkpt lat="37.08016833" lon="-3.37755667">
        <ele>2748.0</ele>
        <time>2022-11-20T09:56:48.000Z</time>
      </trkpt>
      <trkpt lat="37.08016" lon="-3.377555">
        <ele>2748.0</ele>
        <time>2022-11-20T09:56:49.000Z</time>
      </trkpt>
      <trkpt lat="37.08015333" lon="-3.37755333">
        <ele>2748.0</ele>
        <time>2022-11-20T09:56:50.000Z</time>
      </trkpt>
      <trkpt lat="37.080145" lon="-3.37755167">
        <ele>2748.0</ele>
        <time>2022-11-20T09:56:51.000Z</time>
      </trkpt>
      <trkpt lat="37.08014" lon="-3.37755167">
        <ele>2748.0</ele>
        <time>2022-11-20T09:56:52.000Z</time>
      </trkpt>
      <trkpt lat="37.08013167" lon="-3.37755167">
        <ele>2749.0</ele>
        <time>2022-11-20T09:56:53.000Z</time>
      </trkpt>
      <trkpt lat="37.08012333" lon="-3.37755167">
        <ele>2749.0</ele>
        <time>2022-11-20T09:56:54.000Z</time>
      </trkpt>
      <trkpt lat="37.080115" lon="-3.37755">
        <ele>2749.0</ele>
        <time>2022-11-20T09:56:55.000Z</time>
      </trkpt>
      <trkpt lat="37.080105" lon="-3.37754833">
        <ele>2749.0</ele>
        <time>2022-11-20T09:56:56.000Z</time>
      </trkpt>
      <trkpt lat="37.08009667" lon="-3.37754833">
        <ele>2749.0</ele>
        <time>2022-11-20T09:56:57.000Z</time>
      </trkpt>
      <trkpt lat="37.08009" lon="-3.37754667">
        <ele>2749.0</ele>
        <time>2022-11-20T09:56:58.000Z</time>
      </trkpt>
      <trkpt lat="37.08008" lon="-3.377545">
        <ele>2750.0</ele>
        <time>2022-11-20T09:56:59.000Z</time>
      </trkpt>
      <trkpt lat="37.08007333" lon="-3.37754333">
        <ele>2750.0</ele>
        <time>2022-11-20T09:57:00.000Z</time>
      </trkpt>
      <trkpt lat="37.08006667" lon="-3.37754167">
        <ele>2750.0</ele>
        <time>2022-11-20T09:57:01.000Z</time>
      </trkpt>
      <trkpt lat="37.08006" lon="-3.37754">
        <ele>2750.0</ele>
        <time>2022-11-20T09:57:02.000Z</time>
      </trkpt>
      <trkpt lat="37.08005167" lon="-3.37753833">
        <ele>2750.0</ele>
        <time>2022-11-20T09:57:03.000Z</time>
      </trkpt>
      <trkpt lat="37.08004667" lon="-3.37753833">
        <ele>2750.0</ele>
        <time>2022-11-20T09:57:04.000Z</time>
      </trkpt>
      <trkpt lat="37.08003833" lon="-3.37753833">
        <ele>2751.0</ele>
        <time>2022-11-20T09:57:05.000Z</time>
      </trkpt>
      <trkpt lat="37.08003167" lon="-3.37753667">
        <ele>2751.0</ele>
        <time>2022-11-20T09:57:06.000Z</time>
      </trkpt>
      <trkpt lat="37.080025" lon="-3.37753333">
        <ele>2751.0</ele>
        <time>2022-11-20T09:57:07.000Z</time>
      </trkpt>
      <trkpt lat="37.08001833" lon="-3.377535">
        <ele>2751.0</ele>
        <time>2022-11-20T09:57:08.000Z</time>
      </trkpt>
      <trkpt lat="37.08001" lon="-3.37753333">
        <ele>2751.0</ele>
        <time>2022-11-20T09:57:09.000Z</time>
      </trkpt>
      <trkpt lat="37.08000333" lon="-3.37753">
        <ele>2751.0</ele>
        <time>2022-11-20T09:57:10.000Z</time>
      </trkpt>
      <trkpt lat="37.079995" lon="-3.37752667">
        <ele>2751.0</ele>
        <time>2022-11-20T09:57:11.000Z</time>
      </trkpt>
      <trkpt lat="37.07998667" lon="-3.377525">
        <ele>2752.0</ele>
        <time>2022-11-20T09:57:12.000Z</time>
      </trkpt>
      <trkpt lat="37.07998" lon="-3.37752333">
        <ele>2752.0</ele>
        <time>2022-11-20T09:57:13.000Z</time>
      </trkpt>
      <trkpt lat="37.079975" lon="-3.37752333">
        <ele>2752.0</ele>
        <time>2022-11-20T09:57:14.000Z</time>
      </trkpt>
      <trkpt lat="37.079965" lon="-3.37752167">
        <ele>2752.0</ele>
        <time>2022-11-20T09:57:15.000Z</time>
      </trkpt>
      <trkpt lat="37.07995833" lon="-3.37752">
        <ele>2752.0</ele>
        <time>2022-11-20T09:57:16.000Z</time>
      </trkpt>
      <trkpt lat="37.079955" lon="-3.37751667">
        <ele>2752.0</ele>
        <time>2022-11-20T09:57:17.000Z</time>
      </trkpt>
      <trkpt lat="37.07994833" lon="-3.377515">
        <ele>2753.0</ele>
        <time>2022-11-20T09:57:18.000Z</time>
      </trkpt>
      <trkpt lat="37.07994333" lon="-3.37751333">
        <ele>2753.0</ele>
        <time>2022-11-20T09:57:19.000Z</time>
      </trkpt>
      <trkpt lat="37.07993667" lon="-3.37751333">
        <ele>2753.0</ele>
        <time>2022-11-20T09:57:20.000Z</time>
      </trkpt>
      <trkpt lat="37.07993167" lon="-3.37751167">
        <ele>2753.0</ele>
        <time>2022-11-20T09:57:21.000Z</time>
      </trkpt>
      <trkpt lat="37.07992667" lon="-3.37751167">
        <ele>2753.0</ele>
        <time>2022-11-20T09:57:22.000Z</time>
      </trkpt>
      <trkpt lat="37.07991833" lon="-3.37751">
        <ele>2753.0</ele>
        <time>2022-11-20T09:57:23.000Z</time>
      </trkpt>
      <trkpt lat="37.07991167" lon="-3.37751167">
        <ele>2754.0</ele>
        <time>2022-11-20T09:57:24.000Z</time>
      </trkpt>
      <trkpt lat="37.079905" lon="-3.37751">
        <ele>2754.0</ele>
        <time>2022-11-20T09:57:25.000Z</time>
      </trkpt>
      <trkpt lat="37.07989333" lon="-3.37750667">
        <ele>2754.0</ele>
        <time>2022-11-20T09:57:26.000Z</time>
      </trkpt>
      <trkpt lat="37.079885" lon="-3.377505">
        <ele>2754.0</ele>
        <time>2022-11-20T09:57:27.000Z</time>
      </trkpt>
      <trkpt lat="37.07987667" lon="-3.3775">
        <ele>2754.0</ele>
        <time>2022-11-20T09:57:28.000Z</time>
      </trkpt>
      <trkpt lat="37.07986833" lon="-3.37749667">
        <ele>2754.0</ele>
        <time>2022-11-20T09:57:29.000Z</time>
      </trkpt>
      <trkpt lat="37.07986167" lon="-3.377495">
        <ele>2754.0</ele>
        <time>2022-11-20T09:57:30.000Z</time>
      </trkpt>
      <trkpt lat="37.079855" lon="-3.37749">
        <ele>2754.0</ele>
        <time>2022-11-20T09:57:31.000Z</time>
      </trkpt>
      <trkpt lat="37.07984667" lon="-3.37748667">
        <ele>2754.0</ele>
        <time>2022-11-20T09:57:32.000Z</time>
      </trkpt>
      <trkpt lat="37.07984" lon="-3.377485">
        <ele>2754.0</ele>
        <time>2022-11-20T09:57:33.000Z</time>
      </trkpt>
      <trkpt lat="37.07983333" lon="-3.37748167">
        <ele>2754.0</ele>
        <time>2022-11-20T09:57:34.000Z</time>
      </trkpt>
      <trkpt lat="37.07982667" lon="-3.37748">
        <ele>2754.0</ele>
        <time>2022-11-20T09:57:35.000Z</time>
      </trkpt>
      <trkpt lat="37.07982" lon="-3.37748">
        <ele>2754.0</ele>
        <time>2022-11-20T09:57:36.000Z</time>
      </trkpt>
      <trkpt lat="37.079815" lon="-3.37747833">
        <ele>2754.0</ele>
        <time>2022-11-20T09:57:37.000Z</time>
      </trkpt>
      <trkpt lat="37.07980833" lon="-3.37747833">
        <ele>2754.0</ele>
        <time>2022-11-20T09:57:38.000Z</time>
      </trkpt>
      <trkpt lat="37.07980167" lon="-3.37747667">
        <ele>2754.0</ele>
        <time>2022-11-20T09:57:39.000Z</time>
      </trkpt>
      <trkpt lat="37.079795" lon="-3.37747333">
        <ele>2754.0</ele>
        <time>2022-11-20T09:57:40.000Z</time>
      </trkpt>
      <trkpt lat="37.07978833" lon="-3.37747333">
        <ele>2755.0</ele>
        <time>2022-11-20T09:57:41.000Z</time>
      </trkpt>
      <trkpt lat="37.07978167" lon="-3.37747167">
        <ele>2755.0</ele>
        <time>2022-11-20T09:57:42.000Z</time>
      </trkpt>
      <trkpt lat="37.07977333" lon="-3.37747167">
        <ele>2755.0</ele>
        <time>2022-11-20T09:57:43.000Z</time>
      </trkpt>
      <trkpt lat="37.07976667" lon="-3.37747">
        <ele>2755.0</ele>
        <time>2022-11-20T09:57:44.000Z</time>
      </trkpt>
      <trkpt lat="37.07976" lon="-3.37747167">
        <ele>2755.0</ele>
        <time>2022-11-20T09:57:45.000Z</time>
      </trkpt>
      <trkpt lat="37.07975333" lon="-3.37747167">
        <ele>2755.0</ele>
        <time>2022-11-20T09:57:46.000Z</time>
      </trkpt>
      <trkpt lat="37.07974667" lon="-3.37747333">
        <ele>2755.0</ele>
        <time>2022-11-20T09:57:47.000Z</time>
      </trkpt>
      <trkpt lat="37.07974" lon="-3.37747333">
        <ele>2755.0</ele>
        <time>2022-11-20T09:57:48.000Z</time>
      </trkpt>
      <trkpt lat="37.07973333" lon="-3.377475">
        <ele>2755.0</ele>
        <time>2022-11-20T09:57:49.000Z</time>
      </trkpt>
      <trkpt lat="37.07972667" lon="-3.37747667">
        <ele>2755.0</ele>
        <time>2022-11-20T09:57:50.000Z</time>
      </trkpt>
      <trkpt lat="37.07972" lon="-3.37747667">
        <ele>2756.0</ele>
        <time>2022-11-20T09:57:51.000Z</time>
      </trkpt>
      <trkpt lat="37.07971333" lon="-3.37747833">
        <ele>2756.0</ele>
        <time>2022-11-20T09:57:52.000Z</time>
      </trkpt>
      <trkpt lat="37.079705" lon="-3.37748167">
        <ele>2756.0</ele>
        <time>2022-11-20T09:57:53.000Z</time>
      </trkpt>
      <trkpt lat="37.07969833" lon="-3.37748333">
        <ele>2756.0</ele>
        <time>2022-11-20T09:57:54.000Z</time>
      </trkpt>
      <trkpt lat="37.07969167" lon="-3.37748333">
        <ele>2756.0</ele>
        <time>2022-11-20T09:57:55.000Z</time>
      </trkpt>
      <trkpt lat="37.079685" lon="-3.377485">
        <ele>2756.0</ele>
        <time>2022-11-20T09:57:56.000Z</time>
      </trkpt>
      <trkpt lat="37.07967833" lon="-3.37748667">
        <ele>2757.0</ele>
        <time>2022-11-20T09:57:57.000Z</time>
      </trkpt>
      <trkpt lat="37.07967" lon="-3.37748833">
        <ele>2757.0</ele>
        <time>2022-11-20T09:57:58.000Z</time>
      </trkpt>
      <trkpt lat="37.07966333" lon="-3.37749">
        <ele>2757.0</ele>
        <time>2022-11-20T09:57:59.000Z</time>
      </trkpt>
      <trkpt lat="37.07965833" lon="-3.37749167">
        <ele>2757.0</ele>
        <time>2022-11-20T09:58:00.000Z</time>
      </trkpt>
      <trkpt lat="37.07965167" lon="-3.37749333">
        <ele>2757.0</ele>
        <time>2022-11-20T09:58:01.000Z</time>
      </trkpt>
      <trkpt lat="37.07964667" lon="-3.377495">
        <ele>2757.0</ele>
        <time>2022-11-20T09:58:02.000Z</time>
      </trkpt>
      <trkpt lat="37.07964" lon="-3.37749833">
        <ele>2758.0</ele>
        <time>2022-11-20T09:58:03.000Z</time>
      </trkpt>
      <trkpt lat="37.079635" lon="-3.37750333">
        <ele>2758.0</ele>
        <time>2022-11-20T09:58:04.000Z</time>
      </trkpt>
      <trkpt lat="37.07963" lon="-3.377505">
        <ele>2758.0</ele>
        <time>2022-11-20T09:58:05.000Z</time>
      </trkpt>
      <trkpt lat="37.07962333" lon="-3.37750667">
        <ele>2758.0</ele>
        <time>2022-11-20T09:58:06.000Z</time>
      </trkpt>
      <trkpt lat="37.07961833" lon="-3.37750833">
        <ele>2758.0</ele>
        <time>2022-11-20T09:58:07.000Z</time>
      </trkpt>
      <trkpt lat="37.07961167" lon="-3.37751">
        <ele>2758.0</ele>
        <time>2022-11-20T09:58:08.000Z</time>
      </trkpt>
      <trkpt lat="37.079605" lon="-3.37751167">
        <ele>2759.0</ele>
        <time>2022-11-20T09:58:09.000Z</time>
      </trkpt>
      <trkpt lat="37.0796" lon="-3.37751167">
        <ele>2759.0</ele>
        <time>2022-11-20T09:58:10.000Z</time>
      </trkpt>
      <trkpt lat="37.07959333" lon="-3.37751333">
        <ele>2759.0</ele>
        <time>2022-11-20T09:58:11.000Z</time>
      </trkpt>
      <trkpt lat="37.07958667" lon="-3.377515">
        <ele>2759.0</ele>
        <time>2022-11-20T09:58:12.000Z</time>
      </trkpt>
      <trkpt lat="37.07958" lon="-3.377515">
        <ele>2759.0</ele>
        <time>2022-11-20T09:58:13.000Z</time>
      </trkpt>
      <trkpt lat="37.07957167" lon="-3.37751333">
        <ele>2759.0</ele>
        <time>2022-11-20T09:58:14.000Z</time>
      </trkpt>
      <trkpt lat="37.07956667" lon="-3.37751333">
        <ele>2759.0</ele>
        <time>2022-11-20T09:58:15.000Z</time>
      </trkpt>
      <trkpt lat="37.07955833" lon="-3.37751333">
        <ele>2759.0</ele>
        <time>2022-11-20T09:58:16.000Z</time>
      </trkpt>
      <trkpt lat="37.079555" lon="-3.37751333">
        <ele>2759.0</ele>
        <time>2022-11-20T09:58:17.000Z</time>
      </trkpt>
      <trkpt lat="37.07954833" lon="-3.37751167">
        <ele>2760.0</ele>
        <time>2022-11-20T09:58:18.000Z</time>
      </trkpt>
      <trkpt lat="37.07954167" lon="-3.37751167">
        <ele>2760.0</ele>
        <time>2022-11-20T09:58:19.000Z</time>
      </trkpt>
      <trkpt lat="37.07953333" lon="-3.37751">
        <ele>2760.0</ele>
        <time>2022-11-20T09:58:20.000Z</time>
      </trkpt>
      <trkpt lat="37.079525" lon="-3.37750667">
        <ele>2760.0</ele>
        <time>2022-11-20T09:58:21.000Z</time>
      </trkpt>
      <trkpt lat="37.07951833" lon="-3.377505">
        <ele>2760.0</ele>
        <time>2022-11-20T09:58:22.000Z</time>
      </trkpt>
      <trkpt lat="37.07951" lon="-3.37750167">
        <ele>2760.0</ele>
        <time>2022-11-20T09:58:23.000Z</time>
      </trkpt>
      <trkpt lat="37.07950167" lon="-3.37749833">
        <ele>2761.0</ele>
        <time>2022-11-20T09:58:24.000Z</time>
      </trkpt>
      <trkpt lat="37.07949333" lon="-3.37749667">
        <ele>2761.0</ele>
        <time>2022-11-20T09:58:25.000Z</time>
      </trkpt>
      <trkpt lat="37.07948667" lon="-3.377495">
        <ele>2761.0</ele>
        <time>2022-11-20T09:58:26.000Z</time>
      </trkpt>
      <trkpt lat="37.07948" lon="-3.37749167">
        <ele>2761.0</ele>
        <time>2022-11-20T09:58:27.000Z</time>
      </trkpt>
      <trkpt lat="37.07947333" lon="-3.37749">
        <ele>2761.0</ele>
        <time>2022-11-20T09:58:28.000Z</time>
      </trkpt>
      <trkpt lat="37.07946667" lon="-3.37748333">
        <ele>2762.0</ele>
        <time>2022-11-20T09:58:29.000Z</time>
      </trkpt>
      <trkpt lat="37.07946333" lon="-3.37747833">
        <ele>2762.0</ele>
        <time>2022-11-20T09:58:30.000Z</time>
      </trkpt>
      <trkpt lat="37.07946167" lon="-3.37747333">
        <ele>2762.0</ele>
        <time>2022-11-20T09:58:31.000Z</time>
      </trkpt>
      <trkpt lat="37.07945833" lon="-3.37746333">
        <ele>2762.0</ele>
        <time>2022-11-20T09:58:32.000Z</time>
      </trkpt>
      <trkpt lat="37.07945667" lon="-3.37745667">
        <ele>2762.0</ele>
        <time>2022-11-20T09:58:33.000Z</time>
      </trkpt>
      <trkpt lat="37.07945333" lon="-3.37745167">
        <ele>2762.0</ele>
        <time>2022-11-20T09:58:34.000Z</time>
      </trkpt>
      <trkpt lat="37.07944667" lon="-3.377445">
        <ele>2762.0</ele>
        <time>2022-11-20T09:58:35.000Z</time>
      </trkpt>
      <trkpt lat="37.07944" lon="-3.37743833">
        <ele>2762.0</ele>
        <time>2022-11-20T09:58:36.000Z</time>
      </trkpt>
      <trkpt lat="37.07943333" lon="-3.37743333">
        <ele>2763.0</ele>
        <time>2022-11-20T09:58:37.000Z</time>
      </trkpt>
      <trkpt lat="37.079425" lon="-3.37742667">
        <ele>2763.0</ele>
        <time>2022-11-20T09:58:38.000Z</time>
      </trkpt>
      <trkpt lat="37.07941667" lon="-3.37742167">
        <ele>2763.0</ele>
        <time>2022-11-20T09:58:39.000Z</time>
      </trkpt>
      <trkpt lat="37.07940833" lon="-3.377415">
        <ele>2763.0</ele>
        <time>2022-11-20T09:58:40.000Z</time>
      </trkpt>
      <trkpt lat="37.0794" lon="-3.37740833">
        <ele>2763.0</ele>
        <time>2022-11-20T09:58:41.000Z</time>
      </trkpt>
      <trkpt lat="37.07939" lon="-3.377405">
        <ele>2763.0</ele>
        <time>2022-11-20T09:58:42.000Z</time>
      </trkpt>
      <trkpt lat="37.07938167" lon="-3.3774">
        <ele>2763.0</ele>
        <time>2022-11-20T09:58:43.000Z</time>
      </trkpt>
      <trkpt lat="37.07937333" lon="-3.377395">
        <ele>2763.0</ele>
        <time>2022-11-20T09:58:44.000Z</time>
      </trkpt>
      <trkpt lat="37.07936667" lon="-3.37738667">
        <ele>2763.0</ele>
        <time>2022-11-20T09:58:45.000Z</time>
      </trkpt>
      <trkpt lat="37.07936167" lon="-3.37738167">
        <ele>2763.0</ele>
        <time>2022-11-20T09:58:46.000Z</time>
      </trkpt>
      <trkpt lat="37.07935667" lon="-3.37737833">
        <ele>2763.0</ele>
        <time>2022-11-20T09:58:47.000Z</time>
      </trkpt>
      <trkpt lat="37.07935167" lon="-3.37737833">
        <ele>2763.0</ele>
        <time>2022-11-20T09:58:48.000Z</time>
      </trkpt>
      <trkpt lat="37.079345" lon="-3.37737833">
        <ele>2763.0</ele>
        <time>2022-11-20T09:58:49.000Z</time>
      </trkpt>
      <trkpt lat="37.07934" lon="-3.37737833">
        <ele>2764.0</ele>
        <time>2022-11-20T09:58:50.000Z</time>
      </trkpt>
      <trkpt lat="37.07933333" lon="-3.37738">
        <ele>2764.0</ele>
        <time>2022-11-20T09:58:51.000Z</time>
      </trkpt>
      <trkpt lat="37.07932667" lon="-3.37738">
        <ele>2764.0</ele>
        <time>2022-11-20T09:58:52.000Z</time>
      </trkpt>
      <trkpt lat="37.07932167" lon="-3.37737833">
        <ele>2764.0</ele>
        <time>2022-11-20T09:58:53.000Z</time>
      </trkpt>
      <trkpt lat="37.07931667" lon="-3.37737833">
        <ele>2764.0</ele>
        <time>2022-11-20T09:58:54.000Z</time>
      </trkpt>
      <trkpt lat="37.07931167" lon="-3.37738">
        <ele>2765.0</ele>
        <time>2022-11-20T09:58:55.000Z</time>
      </trkpt>
      <trkpt lat="37.079305" lon="-3.37738">
        <ele>2765.0</ele>
        <time>2022-11-20T09:58:56.000Z</time>
      </trkpt>
      <trkpt lat="37.0793" lon="-3.37738167">
        <ele>2765.0</ele>
        <time>2022-11-20T09:58:57.000Z</time>
      </trkpt>
      <trkpt lat="37.07929333" lon="-3.37738333">
        <ele>2765.0</ele>
        <time>2022-11-20T09:58:58.000Z</time>
      </trkpt>
      <trkpt lat="37.07928833" lon="-3.37738167">
        <ele>2765.0</ele>
        <time>2022-11-20T09:58:59.000Z</time>
      </trkpt>
      <trkpt lat="37.07928167" lon="-3.37738">
        <ele>2766.0</ele>
        <time>2022-11-20T09:59:00.000Z</time>
      </trkpt>
      <trkpt lat="37.07927833" lon="-3.377375">
        <ele>2766.0</ele>
        <time>2022-11-20T09:59:01.000Z</time>
      </trkpt>
      <trkpt lat="37.079275" lon="-3.37737167">
        <ele>2766.0</ele>
        <time>2022-11-20T09:59:02.000Z</time>
      </trkpt>
      <trkpt lat="37.07927" lon="-3.37736667">
        <ele>2766.0</ele>
        <time>2022-11-20T09:59:03.000Z</time>
      </trkpt>
      <trkpt lat="37.07926667" lon="-3.37736333">
        <ele>2766.0</ele>
        <time>2022-11-20T09:59:04.000Z</time>
      </trkpt>
      <trkpt lat="37.07926333" lon="-3.37736">
        <ele>2767.0</ele>
        <time>2022-11-20T09:59:05.000Z</time>
      </trkpt>
      <trkpt lat="37.07925833" lon="-3.37735833">
        <ele>2767.0</ele>
        <time>2022-11-20T09:59:06.000Z</time>
      </trkpt>
      <trkpt lat="37.079255" lon="-3.37735667">
        <ele>2767.0</ele>
        <time>2022-11-20T09:59:07.000Z</time>
      </trkpt>
      <trkpt lat="37.07924667" lon="-3.37735667">
        <ele>2767.0</ele>
        <time>2022-11-20T09:59:08.000Z</time>
      </trkpt>
      <trkpt lat="37.07924" lon="-3.37735667">
        <ele>2767.0</ele>
        <time>2022-11-20T09:59:09.000Z</time>
      </trkpt>
      <trkpt lat="37.079235" lon="-3.377355">
        <ele>2767.0</ele>
        <time>2022-11-20T09:59:10.000Z</time>
      </trkpt>
      <trkpt lat="37.07922667" lon="-3.37735667">
        <ele>2767.0</ele>
        <time>2022-11-20T09:59:11.000Z</time>
      </trkpt>
      <trkpt lat="37.07922167" lon="-3.377355">
        <ele>2767.0</ele>
        <time>2022-11-20T09:59:12.000Z</time>
      </trkpt>
      <trkpt lat="37.07921333" lon="-3.377355">
        <ele>2767.0</ele>
        <time>2022-11-20T09:59:13.000Z</time>
      </trkpt>
      <trkpt lat="37.07920833" lon="-3.37735833">
        <ele>2768.0</ele>
        <time>2022-11-20T09:59:14.000Z</time>
      </trkpt>
      <trkpt lat="37.07920333" lon="-3.37735833">
        <ele>2768.0</ele>
        <time>2022-11-20T09:59:15.000Z</time>
      </trkpt>
      <trkpt lat="37.07919667" lon="-3.37736">
        <ele>2768.0</ele>
        <time>2022-11-20T09:59:16.000Z</time>
      </trkpt>
      <trkpt lat="37.07919167" lon="-3.37736">
        <ele>2768.0</ele>
        <time>2022-11-20T09:59:17.000Z</time>
      </trkpt>
      <trkpt lat="37.07919167" lon="-3.37735667">
        <ele>2768.0</ele>
        <time>2022-11-20T09:59:18.000Z</time>
      </trkpt>
      <trkpt lat="37.07919" lon="-3.37735667">
        <ele>2768.0</ele>
        <time>2022-11-20T09:59:19.000Z</time>
      </trkpt>
      <trkpt lat="37.07919" lon="-3.37735667">
        <ele>2768.0</ele>
        <time>2022-11-20T09:59:20.000Z</time>
      </trkpt>
      <trkpt lat="37.07918667" lon="-3.37735833">
        <ele>2768.0</ele>
        <time>2022-11-20T09:59:21.000Z</time>
      </trkpt>
      <trkpt lat="37.07918333" lon="-3.37736">
        <ele>2768.0</ele>
        <time>2022-11-20T09:59:22.000Z</time>
      </trkpt>
      <trkpt lat="37.07917833" lon="-3.37736333">
        <ele>2769.0</ele>
        <time>2022-11-20T09:59:23.000Z</time>
      </trkpt>
      <trkpt lat="37.07917333" lon="-3.377365">
        <ele>2769.0</ele>
        <time>2022-11-20T09:59:24.000Z</time>
      </trkpt>
      <trkpt lat="37.079165" lon="-3.37736667">
        <ele>2769.0</ele>
        <time>2022-11-20T09:59:25.000Z</time>
      </trkpt>
      <trkpt lat="37.07915667" lon="-3.37736667">
        <ele>2769.0</ele>
        <time>2022-11-20T09:59:26.000Z</time>
      </trkpt>
      <trkpt lat="37.07915333" lon="-3.377365">
        <ele>2769.0</ele>
        <time>2022-11-20T09:59:27.000Z</time>
      </trkpt>
      <trkpt lat="37.07914833" lon="-3.37735833">
        <ele>2769.0</ele>
        <time>2022-11-20T09:59:28.000Z</time>
      </trkpt>
      <trkpt lat="37.07914333" lon="-3.377355">
        <ele>2769.0</ele>
        <time>2022-11-20T09:59:29.000Z</time>
      </trkpt>
      <trkpt lat="37.07913833" lon="-3.37735333">
        <ele>2769.0</ele>
        <time>2022-11-20T09:59:30.000Z</time>
      </trkpt>
      <trkpt lat="37.07913333" lon="-3.37735167">
        <ele>2769.0</ele>
        <time>2022-11-20T09:59:31.000Z</time>
      </trkpt>
      <trkpt lat="37.07912667" lon="-3.37735167">
        <ele>2769.0</ele>
        <time>2022-11-20T09:59:32.000Z</time>
      </trkpt>
      <trkpt lat="37.07912167" lon="-3.37735167">
        <ele>2770.0</ele>
        <time>2022-11-20T09:59:33.000Z</time>
      </trkpt>
      <trkpt lat="37.07911833" lon="-3.37735167">
        <ele>2770.0</ele>
        <time>2022-11-20T09:59:34.000Z</time>
      </trkpt>
      <trkpt lat="37.07911" lon="-3.37735167">
        <ele>2770.0</ele>
        <time>2022-11-20T09:59:35.000Z</time>
      </trkpt>
      <trkpt lat="37.079105" lon="-3.37735333">
        <ele>2770.0</ele>
        <time>2022-11-20T09:59:36.000Z</time>
      </trkpt>
      <trkpt lat="37.0791" lon="-3.37735333">
        <ele>2770.0</ele>
        <time>2022-11-20T09:59:37.000Z</time>
      </trkpt>
      <trkpt lat="37.07909333" lon="-3.37735333">
        <ele>2770.0</ele>
        <time>2022-11-20T09:59:38.000Z</time>
      </trkpt>
      <trkpt lat="37.07908833" lon="-3.37735333">
        <ele>2771.0</ele>
        <time>2022-11-20T09:59:39.000Z</time>
      </trkpt>
      <trkpt lat="37.07908333" lon="-3.37735167">
        <ele>2771.0</ele>
        <time>2022-11-20T09:59:40.000Z</time>
      </trkpt>
      <trkpt lat="37.07907667" lon="-3.37735333">
        <ele>2771.0</ele>
        <time>2022-11-20T09:59:41.000Z</time>
      </trkpt>
      <trkpt lat="37.07907" lon="-3.37735333">
        <ele>2771.0</ele>
        <time>2022-11-20T09:59:42.000Z</time>
      </trkpt>
      <trkpt lat="37.07906167" lon="-3.37735333">
        <ele>2771.0</ele>
        <time>2022-11-20T09:59:43.000Z</time>
      </trkpt>
      <trkpt lat="37.07905667" lon="-3.37735">
        <ele>2771.0</ele>
        <time>2022-11-20T09:59:44.000Z</time>
      </trkpt>
      <trkpt lat="37.07905167" lon="-3.37734833">
        <ele>2771.0</ele>
        <time>2022-11-20T09:59:45.000Z</time>
      </trkpt>
      <trkpt lat="37.07904667" lon="-3.37734833">
        <ele>2772.0</ele>
        <time>2022-11-20T09:59:46.000Z</time>
      </trkpt>
      <trkpt lat="37.07904" lon="-3.37734833">
        <ele>2772.0</ele>
        <time>2022-11-20T09:59:47.000Z</time>
      </trkpt>
      <trkpt lat="37.079035" lon="-3.37734833">
        <ele>2772.0</ele>
        <time>2022-11-20T09:59:48.000Z</time>
      </trkpt>
      <trkpt lat="37.07902667" lon="-3.37735">
        <ele>2772.0</ele>
        <time>2022-11-20T09:59:49.000Z</time>
      </trkpt>
      <trkpt lat="37.07902167" lon="-3.37735333">
        <ele>2772.0</ele>
        <time>2022-11-20T09:59:50.000Z</time>
      </trkpt>
      <trkpt lat="37.07901333" lon="-3.37735667">
        <ele>2772.0</ele>
        <time>2022-11-20T09:59:51.000Z</time>
      </trkpt>
      <trkpt lat="37.07900667" lon="-3.37735167">
        <ele>2772.0</ele>
        <time>2022-11-20T09:59:52.000Z</time>
      </trkpt>
      <trkpt lat="37.07900333" lon="-3.37735167">
        <ele>2772.0</ele>
        <time>2022-11-20T09:59:53.000Z</time>
      </trkpt>
      <trkpt lat="37.07899667" lon="-3.37735">
        <ele>2773.0</ele>
        <time>2022-11-20T09:59:54.000Z</time>
      </trkpt>
      <trkpt lat="37.07899" lon="-3.37734833">
        <ele>2773.0</ele>
        <time>2022-11-20T09:59:55.000Z</time>
      </trkpt>
      <trkpt lat="37.07898167" lon="-3.37734667">
        <ele>2773.0</ele>
        <time>2022-11-20T09:59:56.000Z</time>
      </trkpt>
      <trkpt lat="37.078975" lon="-3.37734333">
        <ele>2773.0</ele>
        <time>2022-11-20T09:59:57.000Z</time>
      </trkpt>
      <trkpt lat="37.07897" lon="-3.37734167">
        <ele>2773.0</ele>
        <time>2022-11-20T09:59:58.000Z</time>
      </trkpt>
      <trkpt lat="37.07896167" lon="-3.37734">
        <ele>2773.0</ele>
        <time>2022-11-20T09:59:59.000Z</time>
      </trkpt>
      <trkpt lat="37.07895333" lon="-3.37733833">
        <ele>2773.0</ele>
        <time>2022-11-20T10:00:00.000Z</time>
      </trkpt>
      <trkpt lat="37.07894667" lon="-3.37733833">
        <ele>2773.0</ele>
        <time>2022-11-20T10:00:01.000Z</time>
      </trkpt>
      <trkpt lat="37.07894" lon="-3.377335">
        <ele>2773.0</ele>
        <time>2022-11-20T10:00:02.000Z</time>
      </trkpt>
      <trkpt lat="37.078935" lon="-3.37733">
        <ele>2773.0</ele>
        <time>2022-11-20T10:00:03.000Z</time>
      </trkpt>
      <trkpt lat="37.07892833" lon="-3.37732667">
        <ele>2773.0</ele>
        <time>2022-11-20T10:00:04.000Z</time>
      </trkpt>
      <trkpt lat="37.07892167" lon="-3.37732333">
        <ele>2773.0</ele>
        <time>2022-11-20T10:00:05.000Z</time>
      </trkpt>
      <trkpt lat="37.07891667" lon="-3.37732">
        <ele>2773.0</ele>
        <time>2022-11-20T10:00:06.000Z</time>
      </trkpt>
      <trkpt lat="37.07890833" lon="-3.377315">
        <ele>2774.0</ele>
        <time>2022-11-20T10:00:07.000Z</time>
      </trkpt>
      <trkpt lat="37.07890167" lon="-3.37731">
        <ele>2774.0</ele>
        <time>2022-11-20T10:00:08.000Z</time>
      </trkpt>
      <trkpt lat="37.078895" lon="-3.377305">
        <ele>2774.0</ele>
        <time>2022-11-20T10:00:09.000Z</time>
      </trkpt>
      <trkpt lat="37.07888833" lon="-3.3773">
        <ele>2774.0</ele>
        <time>2022-11-20T10:00:10.000Z</time>
      </trkpt>
      <trkpt lat="37.07888167" lon="-3.377295">
        <ele>2774.0</ele>
        <time>2022-11-20T10:00:11.000Z</time>
      </trkpt>
      <trkpt lat="37.07887333" lon="-3.37728833">
        <ele>2774.0</ele>
        <time>2022-11-20T10:00:12.000Z</time>
      </trkpt>
      <trkpt lat="37.07886667" lon="-3.377285">
        <ele>2774.0</ele>
        <time>2022-11-20T10:00:13.000Z</time>
      </trkpt>
      <trkpt lat="37.07886" lon="-3.37728167">
        <ele>2774.0</ele>
        <time>2022-11-20T10:00:14.000Z</time>
      </trkpt>
      <trkpt lat="37.07885333" lon="-3.37727667">
        <ele>2774.0</ele>
        <time>2022-11-20T10:00:15.000Z</time>
      </trkpt>
      <trkpt lat="37.07884833" lon="-3.377275">
        <ele>2775.0</ele>
        <time>2022-11-20T10:00:16.000Z</time>
      </trkpt>
      <trkpt lat="37.07884167" lon="-3.37727333">
        <ele>2775.0</ele>
        <time>2022-11-20T10:00:17.000Z</time>
      </trkpt>
      <trkpt lat="37.07883333" lon="-3.37727333">
        <ele>2775.0</ele>
        <time>2022-11-20T10:00:18.000Z</time>
      </trkpt>
      <trkpt lat="37.07882333" lon="-3.37727667">
        <ele>2775.0</ele>
        <time>2022-11-20T10:00:19.000Z</time>
      </trkpt>
      <trkpt lat="37.078815" lon="-3.37728">
        <ele>2775.0</ele>
        <time>2022-11-20T10:00:20.000Z</time>
      </trkpt>
      <trkpt lat="37.07880833" lon="-3.37728333">
        <ele>2775.0</ele>
        <time>2022-11-20T10:00:21.000Z</time>
      </trkpt>
      <trkpt lat="37.0788" lon="-3.37728667">
        <ele>2775.0</ele>
        <time>2022-11-20T10:00:22.000Z</time>
      </trkpt>
      <trkpt lat="37.07879333" lon="-3.37729">
        <ele>2775.0</ele>
        <time>2022-11-20T10:00:23.000Z</time>
      </trkpt>
      <trkpt lat="37.07878833" lon="-3.37729333">
        <ele>2775.0</ele>
        <time>2022-11-20T10:00:24.000Z</time>
      </trkpt>
      <trkpt lat="37.07878167" lon="-3.37729833">
        <ele>2775.0</ele>
        <time>2022-11-20T10:00:25.000Z</time>
      </trkpt>
      <trkpt lat="37.07877667" lon="-3.37730167">
        <ele>2775.0</ele>
        <time>2022-11-20T10:00:26.000Z</time>
      </trkpt>
      <trkpt lat="37.07877167" lon="-3.37730333">
        <ele>2776.0</ele>
        <time>2022-11-20T10:00:27.000Z</time>
      </trkpt>
      <trkpt lat="37.078765" lon="-3.377305">
        <ele>2776.0</ele>
        <time>2022-11-20T10:00:28.000Z</time>
      </trkpt>
      <trkpt lat="37.07876" lon="-3.37730833">
        <ele>2776.0</ele>
        <time>2022-11-20T10:00:29.000Z</time>
      </trkpt>
      <trkpt lat="37.07875333" lon="-3.37731">
        <ele>2776.0</ele>
        <time>2022-11-20T10:00:30.000Z</time>
      </trkpt>
      <trkpt lat="37.07874667" lon="-3.37730833">
        <ele>2776.0</ele>
        <time>2022-11-20T10:00:31.000Z</time>
      </trkpt>
      <trkpt lat="37.078745" lon="-3.377305">
        <ele>2776.0</ele>
        <time>2022-11-20T10:00:32.000Z</time>
      </trkpt>
      <trkpt lat="37.07874167" lon="-3.3773">
        <ele>2776.0</ele>
        <time>2022-11-20T10:00:33.000Z</time>
      </trkpt>
      <trkpt lat="37.07873833" lon="-3.37729667">
        <ele>2777.0</ele>
        <time>2022-11-20T10:00:34.000Z</time>
      </trkpt>
      <trkpt lat="37.07873667" lon="-3.37729333">
        <ele>2777.0</ele>
        <time>2022-11-20T10:00:35.000Z</time>
      </trkpt>
      <trkpt lat="37.07873333" lon="-3.37729">
        <ele>2777.0</ele>
        <time>2022-11-20T10:00:36.000Z</time>
      </trkpt>
      <trkpt lat="37.07873" lon="-3.377285">
        <ele>2777.0</ele>
        <time>2022-11-20T10:00:37.000Z</time>
      </trkpt>
      <trkpt lat="37.07872667" lon="-3.37728333">
        <ele>2777.0</ele>
        <time>2022-11-20T10:00:38.000Z</time>
      </trkpt>
      <trkpt lat="37.07872" lon="-3.37728">
        <ele>2777.0</ele>
        <time>2022-11-20T10:00:39.000Z</time>
      </trkpt>
      <trkpt lat="37.078715" lon="-3.377275">
        <ele>2777.0</ele>
        <time>2022-11-20T10:00:40.000Z</time>
      </trkpt>
      <trkpt lat="37.07870833" lon="-3.37727">
        <ele>2777.0</ele>
        <time>2022-11-20T10:00:41.000Z</time>
      </trkpt>
      <trkpt lat="37.07869667" lon="-3.37726">
        <ele>2777.0</ele>
        <time>2022-11-20T10:00:42.000Z</time>
      </trkpt>
      <trkpt lat="37.07868833" lon="-3.37725167">
        <ele>2778.0</ele>
        <time>2022-11-20T10:00:43.000Z</time>
      </trkpt>
      <trkpt lat="37.07868" lon="-3.377245">
        <ele>2778.0</ele>
        <time>2022-11-20T10:00:44.000Z</time>
      </trkpt>
      <trkpt lat="37.07867167" lon="-3.37723667">
        <ele>2778.0</ele>
        <time>2022-11-20T10:00:45.000Z</time>
      </trkpt>
      <trkpt lat="37.078665" lon="-3.37723167">
        <ele>2778.0</ele>
        <time>2022-11-20T10:00:46.000Z</time>
      </trkpt>
      <trkpt lat="37.07866167" lon="-3.37722667">
        <ele>2778.0</ele>
        <time>2022-11-20T10:00:47.000Z</time>
      </trkpt>
      <trkpt lat="37.07865667" lon="-3.37722333">
        <ele>2778.0</ele>
        <time>2022-11-20T10:00:48.000Z</time>
      </trkpt>
      <trkpt lat="37.07865333" lon="-3.37722167">
        <ele>2778.0</ele>
        <time>2022-11-20T10:00:49.000Z</time>
      </trkpt>
      <trkpt lat="37.07865167" lon="-3.37721833">
        <ele>2778.0</ele>
        <time>2022-11-20T10:00:50.000Z</time>
      </trkpt>
      <trkpt lat="37.07864667" lon="-3.37721667">
        <ele>2778.0</ele>
        <time>2022-11-20T10:00:51.000Z</time>
      </trkpt>
      <trkpt lat="37.078645" lon="-3.377215">
        <ele>2778.0</ele>
        <time>2022-11-20T10:00:52.000Z</time>
      </trkpt>
      <trkpt lat="37.07864" lon="-3.37721333">
        <ele>2779.0</ele>
        <time>2022-11-20T10:00:53.000Z</time>
      </trkpt>
      <trkpt lat="37.07863667" lon="-3.377215">
        <ele>2779.0</ele>
        <time>2022-11-20T10:00:54.000Z</time>
      </trkpt>
      <trkpt lat="37.07863333" lon="-3.377215">
        <ele>2779.0</ele>
        <time>2022-11-20T10:00:55.000Z</time>
      </trkpt>
      <trkpt lat="37.07862667" lon="-3.37721833">
        <ele>2779.0</ele>
        <time>2022-11-20T10:00:56.000Z</time>
      </trkpt>
      <trkpt lat="37.07862167" lon="-3.37722167">
        <ele>2779.0</ele>
        <time>2022-11-20T10:00:57.000Z</time>
      </trkpt>
      <trkpt lat="37.078615" lon="-3.37722333">
        <ele>2779.0</ele>
        <time>2022-11-20T10:00:58.000Z</time>
      </trkpt>
      <trkpt lat="37.07861" lon="-3.37722667">
        <ele>2779.0</ele>
        <time>2022-11-20T10:00:59.000Z</time>
      </trkpt>
      <trkpt lat="37.07860333" lon="-3.37722833">
        <ele>2780.0</ele>
        <time>2022-11-20T10:01:00.000Z</time>
      </trkpt>
      <trkpt lat="37.07859667" lon="-3.37723">
        <ele>2780.0</ele>
        <time>2022-11-20T10:01:01.000Z</time>
      </trkpt>
      <trkpt lat="37.07859167" lon="-3.37723">
        <ele>2780.0</ele>
        <time>2022-11-20T10:01:02.000Z</time>
      </trkpt>
      <trkpt lat="37.07858833" lon="-3.37722833">
        <ele>2780.0</ele>
        <time>2022-11-20T10:01:03.000Z</time>
      </trkpt>
      <trkpt lat="37.07858833" lon="-3.37722833">
        <ele>2780.0</ele>
        <time>2022-11-20T10:01:04.000Z</time>
      </trkpt>
      <trkpt lat="37.07858833" lon="-3.37722833">
        <ele>2780.0</ele>
        <time>2022-11-20T10:01:05.000Z</time>
      </trkpt>
      <trkpt lat="37.07859" lon="-3.37722833">
        <ele>2780.0</ele>
        <time>2022-11-20T10:01:06.000Z</time>
      </trkpt>
      <trkpt lat="37.07859167" lon="-3.37722833">
        <ele>2780.0</ele>
        <time>2022-11-20T10:01:07.000Z</time>
      </trkpt>
      <trkpt lat="37.07859" lon="-3.37722833">
        <ele>2780.0</ele>
        <time>2022-11-20T10:01:08.000Z</time>
      </trkpt>
      <trkpt lat="37.07859" lon="-3.37722833">
        <ele>2780.0</ele>
        <time>2022-11-20T10:01:09.000Z</time>
      </trkpt>
      <trkpt lat="37.07859" lon="-3.37722833">
        <ele>2780.0</ele>
        <time>2022-11-20T10:01:10.000Z</time>
      </trkpt>
      <trkpt lat="37.07859" lon="-3.37722833">
        <ele>2780.0</ele>
        <time>2022-11-20T10:01:11.000Z</time>
      </trkpt>
      <trkpt lat="37.07859167" lon="-3.37722833">
        <ele>2780.0</ele>
        <time>2022-11-20T10:01:12.000Z</time>
      </trkpt>
      <trkpt lat="37.07859167" lon="-3.37722833">
        <ele>2780.0</ele>
        <time>2022-11-20T10:01:13.000Z</time>
      </trkpt>
      <trkpt lat="37.07859167" lon="-3.37723">
        <ele>2780.0</ele>
        <time>2022-11-20T10:01:14.000Z</time>
      </trkpt>
      <trkpt lat="37.07859167" lon="-3.37723">
        <ele>2780.0</ele>
        <time>2022-11-20T10:01:15.000Z</time>
      </trkpt>
      <trkpt lat="37.07858833" lon="-3.37723333">
        <ele>2780.0</ele>
        <time>2022-11-20T10:01:16.000Z</time>
      </trkpt>
      <trkpt lat="37.07858167" lon="-3.37723667">
        <ele>2780.0</ele>
        <time>2022-11-20T10:01:17.000Z</time>
      </trkpt>
      <trkpt lat="37.07857333" lon="-3.37724">
        <ele>2780.0</ele>
        <time>2022-11-20T10:01:18.000Z</time>
      </trkpt>
      <trkpt lat="37.078565" lon="-3.37724">
        <ele>2780.0</ele>
        <time>2022-11-20T10:01:19.000Z</time>
      </trkpt>
      <trkpt lat="37.07855833" lon="-3.37724167">
        <ele>2780.0</ele>
        <time>2022-11-20T10:01:20.000Z</time>
      </trkpt>
      <trkpt lat="37.07855" lon="-3.37724333">
        <ele>2781.0</ele>
        <time>2022-11-20T10:01:21.000Z</time>
      </trkpt>
      <trkpt lat="37.07854333" lon="-3.377245">
        <ele>2781.0</ele>
        <time>2022-11-20T10:01:22.000Z</time>
      </trkpt>
      <trkpt lat="37.07853667" lon="-3.37724667">
        <ele>2781.0</ele>
        <time>2022-11-20T10:01:23.000Z</time>
      </trkpt>
      <trkpt lat="37.07853167" lon="-3.37724667">
        <ele>2781.0</ele>
        <time>2022-11-20T10:01:24.000Z</time>
      </trkpt>
      <trkpt lat="37.07852667" lon="-3.37724667">
        <ele>2781.0</ele>
        <time>2022-11-20T10:01:25.000Z</time>
      </trkpt>
      <trkpt lat="37.07852167" lon="-3.37724667">
        <ele>2782.0</ele>
        <time>2022-11-20T10:01:26.000Z</time>
      </trkpt>
      <trkpt lat="37.07851333" lon="-3.37724667">
        <ele>2782.0</ele>
        <time>2022-11-20T10:01:27.000Z</time>
      </trkpt>
      <trkpt lat="37.07851" lon="-3.37724667">
        <ele>2782.0</ele>
        <time>2022-11-20T10:01:28.000Z</time>
      </trkpt>
      <trkpt lat="37.07850333" lon="-3.37724667">
        <ele>2782.0</ele>
        <time>2022-11-20T10:01:29.000Z</time>
      </trkpt>
      <trkpt lat="37.07849667" lon="-3.377245">
        <ele>2782.0</ele>
        <time>2022-11-20T10:01:30.000Z</time>
      </trkpt>
      <trkpt lat="37.07849" lon="-3.377245">
        <ele>2782.0</ele>
        <time>2022-11-20T10:01:31.000Z</time>
      </trkpt>
      <trkpt lat="37.078485" lon="-3.377245">
        <ele>2782.0</ele>
        <time>2022-11-20T10:01:32.000Z</time>
      </trkpt>
      <trkpt lat="37.07847833" lon="-3.37724333">
        <ele>2783.0</ele>
        <time>2022-11-20T10:01:33.000Z</time>
      </trkpt>
      <trkpt lat="37.07847333" lon="-3.37724167">
        <ele>2783.0</ele>
        <time>2022-11-20T10:01:34.000Z</time>
      </trkpt>
      <trkpt lat="37.07846667" lon="-3.37724">
        <ele>2783.0</ele>
        <time>2022-11-20T10:01:35.000Z</time>
      </trkpt>
      <trkpt lat="37.07846167" lon="-3.37723833">
        <ele>2783.0</ele>
        <time>2022-11-20T10:01:36.000Z</time>
      </trkpt>
      <trkpt lat="37.07845667" lon="-3.37723667">
        <ele>2783.0</ele>
        <time>2022-11-20T10:01:37.000Z</time>
      </trkpt>
      <trkpt lat="37.07845167" lon="-3.377235">
        <ele>2783.0</ele>
        <time>2022-11-20T10:01:38.000Z</time>
      </trkpt>
      <trkpt lat="37.078445" lon="-3.37723333">
        <ele>2783.0</ele>
        <time>2022-11-20T10:01:39.000Z</time>
      </trkpt>
      <trkpt lat="37.07844" lon="-3.37723167">
        <ele>2783.0</ele>
        <time>2022-11-20T10:01:40.000Z</time>
      </trkpt>
      <trkpt lat="37.07843667" lon="-3.37723">
        <ele>2783.0</ele>
        <time>2022-11-20T10:01:41.000Z</time>
      </trkpt>
      <trkpt lat="37.07843167" lon="-3.37722667">
        <ele>2783.0</ele>
        <time>2022-11-20T10:01:42.000Z</time>
      </trkpt>
      <trkpt lat="37.07842667" lon="-3.37722333">
        <ele>2784.0</ele>
        <time>2022-11-20T10:01:43.000Z</time>
      </trkpt>
      <trkpt lat="37.07842333" lon="-3.37722167">
        <ele>2784.0</ele>
        <time>2022-11-20T10:01:44.000Z</time>
      </trkpt>
      <trkpt lat="37.07841833" lon="-3.37721833">
        <ele>2784.0</ele>
        <time>2022-11-20T10:01:45.000Z</time>
      </trkpt>
      <trkpt lat="37.078415" lon="-3.37721833">
        <ele>2784.0</ele>
        <time>2022-11-20T10:01:46.000Z</time>
      </trkpt>
      <trkpt lat="37.07841" lon="-3.37721667">
        <ele>2784.0</ele>
        <time>2022-11-20T10:01:47.000Z</time>
      </trkpt>
      <trkpt lat="37.078405" lon="-3.377215">
        <ele>2784.0</ele>
        <time>2022-11-20T10:01:48.000Z</time>
      </trkpt>
      <trkpt lat="37.07840167" lon="-3.37721333">
        <ele>2784.0</ele>
        <time>2022-11-20T10:01:49.000Z</time>
      </trkpt>
      <trkpt lat="37.07839667" lon="-3.37721167">
        <ele>2785.0</ele>
        <time>2022-11-20T10:01:50.000Z</time>
      </trkpt>
      <trkpt lat="37.07839" lon="-3.377215">
        <ele>2785.0</ele>
        <time>2022-11-20T10:01:51.000Z</time>
      </trkpt>
      <trkpt lat="37.078385" lon="-3.377215">
        <ele>2785.0</ele>
        <time>2022-11-20T10:01:52.000Z</time>
      </trkpt>
      <trkpt lat="37.07838" lon="-3.37721833">
        <ele>2785.0</ele>
        <time>2022-11-20T10:01:53.000Z</time>
      </trkpt>
      <trkpt lat="37.07837333" lon="-3.37721833">
        <ele>2785.0</ele>
        <time>2022-11-20T10:01:54.000Z</time>
      </trkpt>
      <trkpt lat="37.07836667" lon="-3.37721833">
        <ele>2785.0</ele>
        <time>2022-11-20T10:01:55.000Z</time>
      </trkpt>
      <trkpt lat="37.07836" lon="-3.37721833">
        <ele>2786.0</ele>
        <time>2022-11-20T10:01:56.000Z</time>
      </trkpt>
      <trkpt lat="37.07835333" lon="-3.37721667">
        <ele>2786.0</ele>
        <time>2022-11-20T10:01:57.000Z</time>
      </trkpt>
      <trkpt lat="37.07834833" lon="-3.377215">
        <ele>2786.0</ele>
        <time>2022-11-20T10:01:58.000Z</time>
      </trkpt>
      <trkpt lat="37.07834333" lon="-3.37721333">
        <ele>2786.0</ele>
        <time>2022-11-20T10:01:59.000Z</time>
      </trkpt>
      <trkpt lat="37.07833833" lon="-3.37721333">
        <ele>2786.0</ele>
        <time>2022-11-20T10:02:00.000Z</time>
      </trkpt>
      <trkpt lat="37.07833167" lon="-3.37721333">
        <ele>2787.0</ele>
        <time>2022-11-20T10:02:01.000Z</time>
      </trkpt>
      <trkpt lat="37.07832667" lon="-3.37721167">
        <ele>2787.0</ele>
        <time>2022-11-20T10:02:02.000Z</time>
      </trkpt>
      <trkpt lat="37.07832167" lon="-3.37721167">
        <ele>2787.0</ele>
        <time>2022-11-20T10:02:03.000Z</time>
      </trkpt>
      <trkpt lat="37.078315" lon="-3.37721">
        <ele>2787.0</ele>
        <time>2022-11-20T10:02:04.000Z</time>
      </trkpt>
      <trkpt lat="37.07831" lon="-3.37720667">
        <ele>2787.0</ele>
        <time>2022-11-20T10:02:05.000Z</time>
      </trkpt>
      <trkpt lat="37.078305" lon="-3.377205">
        <ele>2787.0</ele>
        <time>2022-11-20T10:02:06.000Z</time>
      </trkpt>
      <trkpt lat="37.07830167" lon="-3.377205">
        <ele>2788.0</ele>
        <time>2022-11-20T10:02:07.000Z</time>
      </trkpt>
      <trkpt lat="37.078295" lon="-3.37720167">
        <ele>2788.0</ele>
        <time>2022-11-20T10:02:08.000Z</time>
      </trkpt>
      <trkpt lat="37.07829" lon="-3.3772">
        <ele>2788.0</ele>
        <time>2022-11-20T10:02:09.000Z</time>
      </trkpt>
      <trkpt lat="37.078285" lon="-3.37719833">
        <ele>2788.0</ele>
        <time>2022-11-20T10:02:10.000Z</time>
      </trkpt>
      <trkpt lat="37.07828167" lon="-3.37719667">
        <ele>2788.0</ele>
        <time>2022-11-20T10:02:11.000Z</time>
      </trkpt>
      <trkpt lat="37.07827667" lon="-3.37719333">
        <ele>2788.0</ele>
        <time>2022-11-20T10:02:12.000Z</time>
      </trkpt>
      <trkpt lat="37.07827167" lon="-3.37719167">
        <ele>2788.0</ele>
        <time>2022-11-20T10:02:13.000Z</time>
      </trkpt>
      <trkpt lat="37.07826667" lon="-3.37719">
        <ele>2788.0</ele>
        <time>2022-11-20T10:02:14.000Z</time>
      </trkpt>
      <trkpt lat="37.07826" lon="-3.37718667">
        <ele>2789.0</ele>
        <time>2022-11-20T10:02:15.000Z</time>
      </trkpt>
      <trkpt lat="37.07825667" lon="-3.37718667">
        <ele>2789.0</ele>
        <time>2022-11-20T10:02:16.000Z</time>
      </trkpt>
      <trkpt lat="37.07825167" lon="-3.377185">
        <ele>2789.0</ele>
        <time>2022-11-20T10:02:17.000Z</time>
      </trkpt>
      <trkpt lat="37.078245" lon="-3.37718333">
        <ele>2789.0</ele>
        <time>2022-11-20T10:02:18.000Z</time>
      </trkpt>
      <trkpt lat="37.07824" lon="-3.37718167">
        <ele>2789.0</ele>
        <time>2022-11-20T10:02:19.000Z</time>
      </trkpt>
      <trkpt lat="37.07823167" lon="-3.37718">
        <ele>2789.0</ele>
        <time>2022-11-20T10:02:20.000Z</time>
      </trkpt>
      <trkpt lat="37.07822667" lon="-3.37717833">
        <ele>2789.0</ele>
        <time>2022-11-20T10:02:21.000Z</time>
      </trkpt>
      <trkpt lat="37.07822" lon="-3.37717667">
        <ele>2789.0</ele>
        <time>2022-11-20T10:02:22.000Z</time>
      </trkpt>
      <trkpt lat="37.07821333" lon="-3.37717333">
        <ele>2790.0</ele>
        <time>2022-11-20T10:02:23.000Z</time>
      </trkpt>
      <trkpt lat="37.07820833" lon="-3.37717333">
        <ele>2790.0</ele>
        <time>2022-11-20T10:02:24.000Z</time>
      </trkpt>
      <trkpt lat="37.07820333" lon="-3.37717">
        <ele>2790.0</ele>
        <time>2022-11-20T10:02:25.000Z</time>
      </trkpt>
      <trkpt lat="37.07819667" lon="-3.37716667">
        <ele>2790.0</ele>
        <time>2022-11-20T10:02:26.000Z</time>
      </trkpt>
      <trkpt lat="37.07819167" lon="-3.377165">
        <ele>2790.0</ele>
        <time>2022-11-20T10:02:27.000Z</time>
      </trkpt>
      <trkpt lat="37.078185" lon="-3.37716167">
        <ele>2790.0</ele>
        <time>2022-11-20T10:02:28.000Z</time>
      </trkpt>
      <trkpt lat="37.07818" lon="-3.37715833">
        <ele>2791.0</ele>
        <time>2022-11-20T10:02:29.000Z</time>
      </trkpt>
      <trkpt lat="37.07817667" lon="-3.377155">
        <ele>2791.0</ele>
        <time>2022-11-20T10:02:30.000Z</time>
      </trkpt>
      <trkpt lat="37.07817167" lon="-3.37715">
        <ele>2791.0</ele>
        <time>2022-11-20T10:02:31.000Z</time>
      </trkpt>
      <trkpt lat="37.07816667" lon="-3.37714667">
        <ele>2791.0</ele>
        <time>2022-11-20T10:02:32.000Z</time>
      </trkpt>
      <trkpt lat="37.07816333" lon="-3.37714167">
        <ele>2791.0</ele>
        <time>2022-11-20T10:02:33.000Z</time>
      </trkpt>
      <trkpt lat="37.07816" lon="-3.37714">
        <ele>2791.0</ele>
        <time>2022-11-20T10:02:34.000Z</time>
      </trkpt>
      <trkpt lat="37.07815333" lon="-3.377135">
        <ele>2791.0</ele>
        <time>2022-11-20T10:02:35.000Z</time>
      </trkpt>
      <trkpt lat="37.07815" lon="-3.37713">
        <ele>2791.0</ele>
        <time>2022-11-20T10:02:36.000Z</time>
      </trkpt>
      <trkpt lat="37.078145" lon="-3.37712833">
        <ele>2792.0</ele>
        <time>2022-11-20T10:02:37.000Z</time>
      </trkpt>
      <trkpt lat="37.07814167" lon="-3.377125">
        <ele>2792.0</ele>
        <time>2022-11-20T10:02:38.000Z</time>
      </trkpt>
      <trkpt lat="37.07813833" lon="-3.37712167">
        <ele>2792.0</ele>
        <time>2022-11-20T10:02:39.000Z</time>
      </trkpt>
      <trkpt lat="37.07813333" lon="-3.37712">
        <ele>2792.0</ele>
        <time>2022-11-20T10:02:40.000Z</time>
      </trkpt>
      <trkpt lat="37.07812833" lon="-3.37711833">
        <ele>2792.0</ele>
        <time>2022-11-20T10:02:41.000Z</time>
      </trkpt>
      <trkpt lat="37.07812333" lon="-3.37711667">
        <ele>2792.0</ele>
        <time>2022-11-20T10:02:42.000Z</time>
      </trkpt>
      <trkpt lat="37.07811833" lon="-3.37711333">
        <ele>2792.0</ele>
        <time>2022-11-20T10:02:43.000Z</time>
      </trkpt>
      <trkpt lat="37.07811167" lon="-3.37711">
        <ele>2792.0</ele>
        <time>2022-11-20T10:02:44.000Z</time>
      </trkpt>
      <trkpt lat="37.078105" lon="-3.37710667">
        <ele>2792.0</ele>
        <time>2022-11-20T10:02:45.000Z</time>
      </trkpt>
      <trkpt lat="37.07809667" lon="-3.377105">
        <ele>2792.0</ele>
        <time>2022-11-20T10:02:46.000Z</time>
      </trkpt>
      <trkpt lat="37.07809167" lon="-3.37710167">
        <ele>2792.0</ele>
        <time>2022-11-20T10:02:47.000Z</time>
      </trkpt>
      <trkpt lat="37.078085" lon="-3.37709833">
        <ele>2793.0</ele>
        <time>2022-11-20T10:02:48.000Z</time>
      </trkpt>
      <trkpt lat="37.07807833" lon="-3.37709667">
        <ele>2793.0</ele>
        <time>2022-11-20T10:02:49.000Z</time>
      </trkpt>
      <trkpt lat="37.07807167" lon="-3.377095">
        <ele>2793.0</ele>
        <time>2022-11-20T10:02:50.000Z</time>
      </trkpt>
      <trkpt lat="37.07806667" lon="-3.37709333">
        <ele>2793.0</ele>
        <time>2022-11-20T10:02:51.000Z</time>
      </trkpt>
      <trkpt lat="37.07805833" lon="-3.37709167">
        <ele>2793.0</ele>
        <time>2022-11-20T10:02:52.000Z</time>
      </trkpt>
      <trkpt lat="37.07805167" lon="-3.37709167">
        <ele>2793.0</ele>
        <time>2022-11-20T10:02:53.000Z</time>
      </trkpt>
      <trkpt lat="37.07804667" lon="-3.37709">
        <ele>2793.0</ele>
        <time>2022-11-20T10:02:54.000Z</time>
      </trkpt>
      <trkpt lat="37.07803833" lon="-3.37709">
        <ele>2793.0</ele>
        <time>2022-11-20T10:02:55.000Z</time>
      </trkpt>
      <trkpt lat="37.07803167" lon="-3.37708833">
        <ele>2793.0</ele>
        <time>2022-11-20T10:02:56.000Z</time>
      </trkpt>
      <trkpt lat="37.07802833" lon="-3.37708833">
        <ele>2793.0</ele>
        <time>2022-11-20T10:02:57.000Z</time>
      </trkpt>
      <trkpt lat="37.07802" lon="-3.37708667">
        <ele>2793.0</ele>
        <time>2022-11-20T10:02:58.000Z</time>
      </trkpt>
      <trkpt lat="37.07801333" lon="-3.37708667">
        <ele>2793.0</ele>
        <time>2022-11-20T10:02:59.000Z</time>
      </trkpt>
      <trkpt lat="37.07800833" lon="-3.37708667">
        <ele>2794.0</ele>
        <time>2022-11-20T10:03:00.000Z</time>
      </trkpt>
      <trkpt lat="37.07800333" lon="-3.377085">
        <ele>2794.0</ele>
        <time>2022-11-20T10:03:01.000Z</time>
      </trkpt>
      <trkpt lat="37.07799833" lon="-3.377085">
        <ele>2794.0</ele>
        <time>2022-11-20T10:03:02.000Z</time>
      </trkpt>
      <trkpt lat="37.07799" lon="-3.37708333">
        <ele>2794.0</ele>
        <time>2022-11-20T10:03:03.000Z</time>
      </trkpt>
      <trkpt lat="37.07798333" lon="-3.37708167">
        <ele>2794.0</ele>
        <time>2022-11-20T10:03:04.000Z</time>
      </trkpt>
      <trkpt lat="37.07797833" lon="-3.37708">
        <ele>2794.0</ele>
        <time>2022-11-20T10:03:05.000Z</time>
      </trkpt>
      <trkpt lat="37.07797167" lon="-3.37707667">
        <ele>2794.0</ele>
        <time>2022-11-20T10:03:06.000Z</time>
      </trkpt>
      <trkpt lat="37.07796667" lon="-3.37707333">
        <ele>2794.0</ele>
        <time>2022-11-20T10:03:07.000Z</time>
      </trkpt>
      <trkpt lat="37.07796" lon="-3.37707167">
        <ele>2794.0</ele>
        <time>2022-11-20T10:03:08.000Z</time>
      </trkpt>
      <trkpt lat="37.077955" lon="-3.37707">
        <ele>2794.0</ele>
        <time>2022-11-20T10:03:09.000Z</time>
      </trkpt>
      <trkpt lat="37.07794833" lon="-3.37706833">
        <ele>2794.0</ele>
        <time>2022-11-20T10:03:10.000Z</time>
      </trkpt>
      <trkpt lat="37.07794333" lon="-3.37706667">
        <ele>2794.0</ele>
        <time>2022-11-20T10:03:11.000Z</time>
      </trkpt>
      <trkpt lat="37.07793667" lon="-3.37706333">
        <ele>2794.0</ele>
        <time>2022-11-20T10:03:12.000Z</time>
      </trkpt>
      <trkpt lat="37.07793" lon="-3.37706167">
        <ele>2794.0</ele>
        <time>2022-11-20T10:03:13.000Z</time>
      </trkpt>
      <trkpt lat="37.077925" lon="-3.37705667">
        <ele>2794.0</ele>
        <time>2022-11-20T10:03:14.000Z</time>
      </trkpt>
      <trkpt lat="37.07791833" lon="-3.37705333">
        <ele>2795.0</ele>
        <time>2022-11-20T10:03:15.000Z</time>
      </trkpt>
      <trkpt lat="37.07791333" lon="-3.37705">
        <ele>2795.0</ele>
        <time>2022-11-20T10:03:16.000Z</time>
      </trkpt>
      <trkpt lat="37.07790833" lon="-3.377045">
        <ele>2795.0</ele>
        <time>2022-11-20T10:03:17.000Z</time>
      </trkpt>
      <trkpt lat="37.07790333" lon="-3.37704333">
        <ele>2795.0</ele>
        <time>2022-11-20T10:03:18.000Z</time>
      </trkpt>
      <trkpt lat="37.07789833" lon="-3.37703833">
        <ele>2795.0</ele>
        <time>2022-11-20T10:03:19.000Z</time>
      </trkpt>
      <trkpt lat="37.07789167" lon="-3.37703667">
        <ele>2795.0</ele>
        <time>2022-11-20T10:03:20.000Z</time>
      </trkpt>
      <trkpt lat="37.07788667" lon="-3.37703333">
        <ele>2795.0</ele>
        <time>2022-11-20T10:03:21.000Z</time>
      </trkpt>
      <trkpt lat="37.07788167" lon="-3.37703">
        <ele>2795.0</ele>
        <time>2022-11-20T10:03:22.000Z</time>
      </trkpt>
      <trkpt lat="37.07787333" lon="-3.377025">
        <ele>2795.0</ele>
        <time>2022-11-20T10:03:23.000Z</time>
      </trkpt>
      <trkpt lat="37.07786667" lon="-3.37702167">
        <ele>2796.0</ele>
        <time>2022-11-20T10:03:24.000Z</time>
      </trkpt>
      <trkpt lat="37.07786" lon="-3.37701833">
        <ele>2796.0</ele>
        <time>2022-11-20T10:03:25.000Z</time>
      </trkpt>
      <trkpt lat="37.077855" lon="-3.37701167">
        <ele>2796.0</ele>
        <time>2022-11-20T10:03:26.000Z</time>
      </trkpt>
      <trkpt lat="37.07785" lon="-3.37700833">
        <ele>2796.0</ele>
        <time>2022-11-20T10:03:27.000Z</time>
      </trkpt>
      <trkpt lat="37.077845" lon="-3.377005">
        <ele>2796.0</ele>
        <time>2022-11-20T10:03:28.000Z</time>
      </trkpt>
      <trkpt lat="37.07784167" lon="-3.377">
        <ele>2796.0</ele>
        <time>2022-11-20T10:03:29.000Z</time>
      </trkpt>
      <trkpt lat="37.07783667" lon="-3.376995">
        <ele>2796.0</ele>
        <time>2022-11-20T10:03:30.000Z</time>
      </trkpt>
      <trkpt lat="37.07783333" lon="-3.37699">
        <ele>2797.0</ele>
        <time>2022-11-20T10:03:31.000Z</time>
      </trkpt>
      <trkpt lat="37.07782833" lon="-3.376985">
        <ele>2797.0</ele>
        <time>2022-11-20T10:03:32.000Z</time>
      </trkpt>
      <trkpt lat="37.07782333" lon="-3.37698">
        <ele>2797.0</ele>
        <time>2022-11-20T10:03:33.000Z</time>
      </trkpt>
      <trkpt lat="37.07782" lon="-3.37697667">
        <ele>2797.0</ele>
        <time>2022-11-20T10:03:34.000Z</time>
      </trkpt>
      <trkpt lat="37.077815" lon="-3.37697167">
        <ele>2797.0</ele>
        <time>2022-11-20T10:03:35.000Z</time>
      </trkpt>
      <trkpt lat="37.07780833" lon="-3.37696833">
        <ele>2797.0</ele>
        <time>2022-11-20T10:03:36.000Z</time>
      </trkpt>
      <trkpt lat="37.07780333" lon="-3.37696667">
        <ele>2797.0</ele>
        <time>2022-11-20T10:03:37.000Z</time>
      </trkpt>
      <trkpt lat="37.07779833" lon="-3.376965">
        <ele>2798.0</ele>
        <time>2022-11-20T10:03:38.000Z</time>
      </trkpt>
      <trkpt lat="37.07779167" lon="-3.37696333">
        <ele>2798.0</ele>
        <time>2022-11-20T10:03:39.000Z</time>
      </trkpt>
      <trkpt lat="37.077785" lon="-3.37696333">
        <ele>2798.0</ele>
        <time>2022-11-20T10:03:40.000Z</time>
      </trkpt>
      <trkpt lat="37.07778" lon="-3.37696167">
        <ele>2798.0</ele>
        <time>2022-11-20T10:03:41.000Z</time>
      </trkpt>
      <trkpt lat="37.07777333" lon="-3.37695833">
        <ele>2798.0</ele>
        <time>2022-11-20T10:03:42.000Z</time>
      </trkpt>
      <trkpt lat="37.07776833" lon="-3.37695833">
        <ele>2798.0</ele>
        <time>2022-11-20T10:03:43.000Z</time>
      </trkpt>
      <trkpt lat="37.07776333" lon="-3.37695833">
        <ele>2799.0</ele>
        <time>2022-11-20T10:03:44.000Z</time>
      </trkpt>
      <trkpt lat="37.07775667" lon="-3.37695333">
        <ele>2799.0</ele>
        <time>2022-11-20T10:03:45.000Z</time>
      </trkpt>
      <trkpt lat="37.07775167" lon="-3.37695333">
        <ele>2799.0</ele>
        <time>2022-11-20T10:03:46.000Z</time>
      </trkpt>
      <trkpt lat="37.077745" lon="-3.37695167">
        <ele>2799.0</ele>
        <time>2022-11-20T10:03:47.000Z</time>
      </trkpt>
      <trkpt lat="37.07774167" lon="-3.37695">
        <ele>2799.0</ele>
        <time>2022-11-20T10:03:48.000Z</time>
      </trkpt>
      <trkpt lat="37.077735" lon="-3.37694833">
        <ele>2799.0</ele>
        <time>2022-11-20T10:03:49.000Z</time>
      </trkpt>
      <trkpt lat="37.07773" lon="-3.37694667">
        <ele>2800.0</ele>
        <time>2022-11-20T10:03:50.000Z</time>
      </trkpt>
      <trkpt lat="37.077725" lon="-3.376945">
        <ele>2800.0</ele>
        <time>2022-11-20T10:03:51.000Z</time>
      </trkpt>
      <trkpt lat="37.07772" lon="-3.37694167">
        <ele>2800.0</ele>
        <time>2022-11-20T10:03:52.000Z</time>
      </trkpt>
      <trkpt lat="37.07771667" lon="-3.37694">
        <ele>2800.0</ele>
        <time>2022-11-20T10:03:53.000Z</time>
      </trkpt>
      <trkpt lat="37.07771333" lon="-3.37693833">
        <ele>2800.0</ele>
        <time>2022-11-20T10:03:54.000Z</time>
      </trkpt>
      <trkpt lat="37.07770667" lon="-3.376935">
        <ele>2800.0</ele>
        <time>2022-11-20T10:03:55.000Z</time>
      </trkpt>
      <trkpt lat="37.07770167" lon="-3.37693333">
        <ele>2800.0</ele>
        <time>2022-11-20T10:03:56.000Z</time>
      </trkpt>
      <trkpt lat="37.07769667" lon="-3.37693167">
        <ele>2800.0</ele>
        <time>2022-11-20T10:03:57.000Z</time>
      </trkpt>
      <trkpt lat="37.07769167" lon="-3.37693">
        <ele>2801.0</ele>
        <time>2022-11-20T10:03:58.000Z</time>
      </trkpt>
      <trkpt lat="37.07768667" lon="-3.376925">
        <ele>2801.0</ele>
        <time>2022-11-20T10:03:59.000Z</time>
      </trkpt>
      <trkpt lat="37.07768667" lon="-3.37692333">
        <ele>2801.0</ele>
        <time>2022-11-20T10:04:00.000Z</time>
      </trkpt>
      <trkpt lat="37.07768667" lon="-3.37692333">
        <ele>2801.0</ele>
        <time>2022-11-20T10:04:01.000Z</time>
      </trkpt>
      <trkpt lat="37.07768667" lon="-3.37692333">
        <ele>2801.0</ele>
        <time>2022-11-20T10:04:02.000Z</time>
      </trkpt>
      <trkpt lat="37.07768667" lon="-3.376925">
        <ele>2801.0</ele>
        <time>2022-11-20T10:04:03.000Z</time>
      </trkpt>
      <trkpt lat="37.07768333" lon="-3.37692167">
        <ele>2801.0</ele>
        <time>2022-11-20T10:04:04.000Z</time>
      </trkpt>
      <trkpt lat="37.07767833" lon="-3.37691667">
        <ele>2801.0</ele>
        <time>2022-11-20T10:04:05.000Z</time>
      </trkpt>
      <trkpt lat="37.07767333" lon="-3.37691333">
        <ele>2801.0</ele>
        <time>2022-11-20T10:04:06.000Z</time>
      </trkpt>
      <trkpt lat="37.07767" lon="-3.37691">
        <ele>2801.0</ele>
        <time>2022-11-20T10:04:07.000Z</time>
      </trkpt>
      <trkpt lat="37.07766333" lon="-3.376905">
        <ele>2801.0</ele>
        <time>2022-11-20T10:04:08.000Z</time>
      </trkpt>
      <trkpt lat="37.07765833" lon="-3.37690333">
        <ele>2801.0</ele>
        <time>2022-11-20T10:04:09.000Z</time>
      </trkpt>
      <trkpt lat="37.07765333" lon="-3.37690333">
        <ele>2801.0</ele>
        <time>2022-11-20T10:04:10.000Z</time>
      </trkpt>
      <trkpt lat="37.07764667" lon="-3.37690333">
        <ele>2801.0</ele>
        <time>2022-11-20T10:04:11.000Z</time>
      </trkpt>
      <trkpt lat="37.07764" lon="-3.376905">
        <ele>2801.0</ele>
        <time>2022-11-20T10:04:12.000Z</time>
      </trkpt>
      <trkpt lat="37.07764167" lon="-3.37690333">
        <ele>2801.0</ele>
        <time>2022-11-20T10:04:13.000Z</time>
      </trkpt>
      <trkpt lat="37.07764" lon="-3.37690333">
        <ele>2802.0</ele>
        <time>2022-11-20T10:04:14.000Z</time>
      </trkpt>
      <trkpt lat="37.07764" lon="-3.37690333">
        <ele>2802.0</ele>
        <time>2022-11-20T10:04:15.000Z</time>
      </trkpt>
      <trkpt lat="37.07764" lon="-3.37690167">
        <ele>2802.0</ele>
        <time>2022-11-20T10:04:16.000Z</time>
      </trkpt>
      <trkpt lat="37.07763833" lon="-3.37689833">
        <ele>2802.0</ele>
        <time>2022-11-20T10:04:17.000Z</time>
      </trkpt>
      <trkpt lat="37.07763667" lon="-3.37689833">
        <ele>2802.0</ele>
        <time>2022-11-20T10:04:18.000Z</time>
      </trkpt>
      <trkpt lat="37.07763333" lon="-3.37689833">
        <ele>2802.0</ele>
        <time>2022-11-20T10:04:19.000Z</time>
      </trkpt>
      <trkpt lat="37.07762667" lon="-3.37689833">
        <ele>2802.0</ele>
        <time>2022-11-20T10:04:20.000Z</time>
      </trkpt>
      <trkpt lat="37.07762167" lon="-3.37690167">
        <ele>2802.0</ele>
        <time>2022-11-20T10:04:21.000Z</time>
      </trkpt>
      <trkpt lat="37.07761667" lon="-3.37690333">
        <ele>2802.0</ele>
        <time>2022-11-20T10:04:22.000Z</time>
      </trkpt>
      <trkpt lat="37.07761167" lon="-3.37690667">
        <ele>2802.0</ele>
        <time>2022-11-20T10:04:23.000Z</time>
      </trkpt>
      <trkpt lat="37.077605" lon="-3.37691">
        <ele>2802.0</ele>
        <time>2022-11-20T10:04:24.000Z</time>
      </trkpt>
      <trkpt lat="37.07759667" lon="-3.37690833">
        <ele>2802.0</ele>
        <time>2022-11-20T10:04:25.000Z</time>
      </trkpt>
      <trkpt lat="37.077595" lon="-3.37690333">
        <ele>2802.0</ele>
        <time>2022-11-20T10:04:26.000Z</time>
      </trkpt>
      <trkpt lat="37.077595" lon="-3.37690167">
        <ele>2802.0</ele>
        <time>2022-11-20T10:04:27.000Z</time>
      </trkpt>
      <trkpt lat="37.077595" lon="-3.3769">
        <ele>2802.0</ele>
        <time>2022-11-20T10:04:28.000Z</time>
      </trkpt>
      <trkpt lat="37.077595" lon="-3.37690167">
        <ele>2802.0</ele>
        <time>2022-11-20T10:04:29.000Z</time>
      </trkpt>
      <trkpt lat="37.077595" lon="-3.37690333">
        <ele>2802.0</ele>
        <time>2022-11-20T10:04:30.000Z</time>
      </trkpt>
      <trkpt lat="37.07759333" lon="-3.37690333">
        <ele>2802.0</ele>
        <time>2022-11-20T10:04:31.000Z</time>
      </trkpt>
      <trkpt lat="37.07759333" lon="-3.376905">
        <ele>2802.0</ele>
        <time>2022-11-20T10:04:32.000Z</time>
      </trkpt>
      <trkpt lat="37.07759333" lon="-3.37690333">
        <ele>2802.0</ele>
        <time>2022-11-20T10:04:33.000Z</time>
      </trkpt>
      <trkpt lat="37.07759" lon="-3.37690333">
        <ele>2802.0</ele>
        <time>2022-11-20T10:04:34.000Z</time>
      </trkpt>
      <trkpt lat="37.07759" lon="-3.37690333">
        <ele>2802.0</ele>
        <time>2022-11-20T10:04:35.000Z</time>
      </trkpt>
      <trkpt lat="37.07758667" lon="-3.37690333">
        <ele>2802.0</ele>
        <time>2022-11-20T10:04:36.000Z</time>
      </trkpt>
      <trkpt lat="37.077585" lon="-3.37689833">
        <ele>2802.0</ele>
        <time>2022-11-20T10:04:37.000Z</time>
      </trkpt>
      <trkpt lat="37.077585" lon="-3.37689833">
        <ele>2802.0</ele>
        <time>2022-11-20T10:04:38.000Z</time>
      </trkpt>
      <trkpt lat="37.077585" lon="-3.37689833">
        <ele>2802.0</ele>
        <time>2022-11-20T10:04:39.000Z</time>
      </trkpt>
      <trkpt lat="37.077585" lon="-3.3769">
        <ele>2802.0</ele>
        <time>2022-11-20T10:04:40.000Z</time>
      </trkpt>
      <trkpt lat="37.077585" lon="-3.3769">
        <ele>2802.0</ele>
        <time>2022-11-20T10:04:41.000Z</time>
      </trkpt>
      <trkpt lat="37.077585" lon="-3.3769">
        <ele>2802.0</ele>
        <time>2022-11-20T10:04:42.000Z</time>
      </trkpt>
      <trkpt lat="37.077585" lon="-3.3769">
        <ele>2802.0</ele>
        <time>2022-11-20T10:04:43.000Z</time>
      </trkpt>
      <trkpt lat="37.07758667" lon="-3.3769">
        <ele>2802.0</ele>
        <time>2022-11-20T10:04:44.000Z</time>
      </trkpt>
      <trkpt lat="37.07758667" lon="-3.3769">
        <ele>2802.0</ele>
        <time>2022-11-20T10:04:45.000Z</time>
      </trkpt>
      <trkpt lat="37.07758667" lon="-3.37690167">
        <ele>2802.0</ele>
        <time>2022-11-20T10:04:46.000Z</time>
      </trkpt>
      <trkpt lat="37.07758667" lon="-3.37690333">
        <ele>2802.0</ele>
        <time>2022-11-20T10:04:47.000Z</time>
      </trkpt>
      <trkpt lat="37.07758833" lon="-3.376905">
        <ele>2802.0</ele>
        <time>2022-11-20T10:04:48.000Z</time>
      </trkpt>
      <trkpt lat="37.07758667" lon="-3.376905">
        <ele>2802.0</ele>
        <time>2022-11-20T10:04:49.000Z</time>
      </trkpt>
      <trkpt lat="37.07758667" lon="-3.376905">
        <ele>2802.0</ele>
        <time>2022-11-20T10:04:50.000Z</time>
      </trkpt>
      <trkpt lat="37.07758833" lon="-3.376905">
        <ele>2802.0</ele>
        <time>2022-11-20T10:04:51.000Z</time>
      </trkpt>
      <trkpt lat="37.07758833" lon="-3.37690333">
        <ele>2802.0</ele>
        <time>2022-11-20T10:04:52.000Z</time>
      </trkpt>
      <trkpt lat="37.07758833" lon="-3.37690333">
        <ele>2802.0</ele>
        <time>2022-11-20T10:04:53.000Z</time>
      </trkpt>
      <trkpt lat="37.07758833" lon="-3.37690333">
        <ele>2802.0</ele>
        <time>2022-11-20T10:04:54.000Z</time>
      </trkpt>
      <trkpt lat="37.07758833" lon="-3.37690333">
        <ele>2802.0</ele>
        <time>2022-11-20T10:04:55.000Z</time>
      </trkpt>
      <trkpt lat="37.07759" lon="-3.37690333">
        <ele>2802.0</ele>
        <time>2022-11-20T10:04:56.000Z</time>
      </trkpt>
      <trkpt lat="37.07759333" lon="-3.37690333">
        <ele>2802.0</ele>
        <time>2022-11-20T10:04:57.000Z</time>
      </trkpt>
      <trkpt lat="37.07759167" lon="-3.376905">
        <ele>2802.0</ele>
        <time>2022-11-20T10:04:58.000Z</time>
      </trkpt>
      <trkpt lat="37.07759167" lon="-3.376905">
        <ele>2802.0</ele>
        <time>2022-11-20T10:04:59.000Z</time>
      </trkpt>
      <trkpt lat="37.07759333" lon="-3.37690667">
        <ele>2802.0</ele>
        <time>2022-11-20T10:05:00.000Z</time>
      </trkpt>
      <trkpt lat="37.077595" lon="-3.376905">
        <ele>2802.0</ele>
        <time>2022-11-20T10:05:01.000Z</time>
      </trkpt>
      <trkpt lat="37.077595" lon="-3.376905">
        <ele>2802.0</ele>
        <time>2022-11-20T10:05:02.000Z</time>
      </trkpt>
      <trkpt lat="37.07759333" lon="-3.37690667">
        <ele>2802.0</ele>
        <time>2022-11-20T10:05:03.000Z</time>
      </trkpt>
      <trkpt lat="37.07759167" lon="-3.376905">
        <ele>2802.0</ele>
        <time>2022-11-20T10:05:04.000Z</time>
      </trkpt>
      <trkpt lat="37.07759167" lon="-3.37690667">
        <ele>2802.0</ele>
        <time>2022-11-20T10:05:05.000Z</time>
      </trkpt>
      <trkpt lat="37.07759333" lon="-3.37690833">
        <ele>2802.0</ele>
        <time>2022-11-20T10:05:06.000Z</time>
      </trkpt>
      <trkpt lat="37.07759167" lon="-3.37690833">
        <ele>2802.0</ele>
        <time>2022-11-20T10:05:07.000Z</time>
      </trkpt>
      <trkpt lat="37.07759167" lon="-3.37690667">
        <ele>2802.0</ele>
        <time>2022-11-20T10:05:08.000Z</time>
      </trkpt>
      <trkpt lat="37.07759333" lon="-3.376905">
        <ele>2802.0</ele>
        <time>2022-11-20T10:05:09.000Z</time>
      </trkpt>
      <trkpt lat="37.07759333" lon="-3.37690667">
        <ele>2802.0</ele>
        <time>2022-11-20T10:05:10.000Z</time>
      </trkpt>
      <trkpt lat="37.07759333" lon="-3.37690667">
        <ele>2802.0</ele>
        <time>2022-11-20T10:05:11.000Z</time>
      </trkpt>
      <trkpt lat="37.077595" lon="-3.37690667">
        <ele>2802.0</ele>
        <time>2022-11-20T10:05:12.000Z</time>
      </trkpt>
      <trkpt lat="37.07759333" lon="-3.37690667">
        <ele>2802.0</ele>
        <time>2022-11-20T10:05:13.000Z</time>
      </trkpt>
      <trkpt lat="37.07759333" lon="-3.37691">
        <ele>2802.0</ele>
        <time>2022-11-20T10:05:14.000Z</time>
      </trkpt>
      <trkpt lat="37.077595" lon="-3.37691167">
        <ele>2802.0</ele>
        <time>2022-11-20T10:05:15.000Z</time>
      </trkpt>
      <trkpt lat="37.07759667" lon="-3.37691167">
        <ele>2802.0</ele>
        <time>2022-11-20T10:05:16.000Z</time>
      </trkpt>
      <trkpt lat="37.07759667" lon="-3.37691167">
        <ele>2802.0</ele>
        <time>2022-11-20T10:05:17.000Z</time>
      </trkpt>
      <trkpt lat="37.07759667" lon="-3.37691167">
        <ele>2802.0</ele>
        <time>2022-11-20T10:05:18.000Z</time>
      </trkpt>
      <trkpt lat="37.077595" lon="-3.37691333">
        <ele>2802.0</ele>
        <time>2022-11-20T10:05:19.000Z</time>
      </trkpt>
      <trkpt lat="37.07759667" lon="-3.37691167">
        <ele>2802.0</ele>
        <time>2022-11-20T10:05:20.000Z</time>
      </trkpt>
      <trkpt lat="37.07759667" lon="-3.37691167">
        <ele>2802.0</ele>
        <time>2022-11-20T10:05:21.000Z</time>
      </trkpt>
      <trkpt lat="37.07759667" lon="-3.37691167">
        <ele>2802.0</ele>
        <time>2022-11-20T10:05:22.000Z</time>
      </trkpt>
      <trkpt lat="37.07759833" lon="-3.37691167">
        <ele>2802.0</ele>
        <time>2022-11-20T10:05:23.000Z</time>
      </trkpt>
      <trkpt lat="37.07759667" lon="-3.37691">
        <ele>2802.0</ele>
        <time>2022-11-20T10:05:24.000Z</time>
      </trkpt>
      <trkpt lat="37.07759667" lon="-3.37691">
        <ele>2802.0</ele>
        <time>2022-11-20T10:05:25.000Z</time>
      </trkpt>
      <trkpt lat="37.07759667" lon="-3.37691">
        <ele>2802.0</ele>
        <time>2022-11-20T10:05:26.000Z</time>
      </trkpt>
      <trkpt lat="37.07759667" lon="-3.37691">
        <ele>2802.0</ele>
        <time>2022-11-20T10:05:27.000Z</time>
      </trkpt>
      <trkpt lat="37.07759667" lon="-3.37690833">
        <ele>2802.0</ele>
        <time>2022-11-20T10:05:28.000Z</time>
      </trkpt>
      <trkpt lat="37.07759833" lon="-3.37691">
        <ele>2802.0</ele>
        <time>2022-11-20T10:05:29.000Z</time>
      </trkpt>
      <trkpt lat="37.07759833" lon="-3.37691">
        <ele>2802.0</ele>
        <time>2022-11-20T10:05:30.000Z</time>
      </trkpt>
      <trkpt lat="37.07759833" lon="-3.37690833">
        <ele>2802.0</ele>
        <time>2022-11-20T10:05:31.000Z</time>
      </trkpt>
      <trkpt lat="37.07759833" lon="-3.37690833">
        <ele>2802.0</ele>
        <time>2022-11-20T10:05:32.000Z</time>
      </trkpt>
      <trkpt lat="37.07759833" lon="-3.37690667">
        <ele>2802.0</ele>
        <time>2022-11-20T10:05:33.000Z</time>
      </trkpt>
      <trkpt lat="37.07759833" lon="-3.37690667">
        <ele>2802.0</ele>
        <time>2022-11-20T10:05:34.000Z</time>
      </trkpt>
      <trkpt lat="37.07759667" lon="-3.37690667">
        <ele>2802.0</ele>
        <time>2022-11-20T10:05:35.000Z</time>
      </trkpt>
      <trkpt lat="37.07759667" lon="-3.37690667">
        <ele>2802.0</ele>
        <time>2022-11-20T10:05:36.000Z</time>
      </trkpt>
      <trkpt lat="37.077595" lon="-3.37690667">
        <ele>2802.0</ele>
        <time>2022-11-20T10:05:37.000Z</time>
      </trkpt>
      <trkpt lat="37.077595" lon="-3.37690333">
        <ele>2802.0</ele>
        <time>2022-11-20T10:05:38.000Z</time>
      </trkpt>
      <trkpt lat="37.07759333" lon="-3.37690333">
        <ele>2802.0</ele>
        <time>2022-11-20T10:05:39.000Z</time>
      </trkpt>
      <trkpt lat="37.07759333" lon="-3.37690333">
        <ele>2802.0</ele>
        <time>2022-11-20T10:05:40.000Z</time>
      </trkpt>
      <trkpt lat="37.077595" lon="-3.37690333">
        <ele>2802.0</ele>
        <time>2022-11-20T10:05:41.000Z</time>
      </trkpt>
      <trkpt lat="37.077595" lon="-3.37690333">
        <ele>2802.0</ele>
        <time>2022-11-20T10:05:42.000Z</time>
      </trkpt>
      <trkpt lat="37.07759333" lon="-3.37690333">
        <ele>2802.0</ele>
        <time>2022-11-20T10:05:43.000Z</time>
      </trkpt>
      <trkpt lat="37.077595" lon="-3.37690333">
        <ele>2802.0</ele>
        <time>2022-11-20T10:05:44.000Z</time>
      </trkpt>
      <trkpt lat="37.07759333" lon="-3.37690333">
        <ele>2802.0</ele>
        <time>2022-11-20T10:05:45.000Z</time>
      </trkpt>
      <trkpt lat="37.077595" lon="-3.37690333">
        <ele>2802.0</ele>
        <time>2022-11-20T10:05:46.000Z</time>
      </trkpt>
      <trkpt lat="37.07759333" lon="-3.37690167">
        <ele>2802.0</ele>
        <time>2022-11-20T10:05:47.000Z</time>
      </trkpt>
      <trkpt lat="37.07759333" lon="-3.3769">
        <ele>2803.0</ele>
        <time>2022-11-20T10:05:48.000Z</time>
      </trkpt>
      <trkpt lat="37.07759333" lon="-3.3769">
        <ele>2803.0</ele>
        <time>2022-11-20T10:05:49.000Z</time>
      </trkpt>
      <trkpt lat="37.07759333" lon="-3.3769">
        <ele>2803.0</ele>
        <time>2022-11-20T10:05:50.000Z</time>
      </trkpt>
      <trkpt lat="37.077595" lon="-3.3769">
        <ele>2803.0</ele>
        <time>2022-11-20T10:05:51.000Z</time>
      </trkpt>
      <trkpt lat="37.077595" lon="-3.3769">
        <ele>2803.0</ele>
        <time>2022-11-20T10:05:52.000Z</time>
      </trkpt>
      <trkpt lat="37.077595" lon="-3.37690167">
        <ele>2803.0</ele>
        <time>2022-11-20T10:05:53.000Z</time>
      </trkpt>
      <trkpt lat="37.077595" lon="-3.37690167">
        <ele>2803.0</ele>
        <time>2022-11-20T10:05:54.000Z</time>
      </trkpt>
      <trkpt lat="37.07759833" lon="-3.3769">
        <ele>2803.0</ele>
        <time>2022-11-20T10:05:55.000Z</time>
      </trkpt>
      <trkpt lat="37.077595" lon="-3.37690167">
        <ele>2803.0</ele>
        <time>2022-11-20T10:05:56.000Z</time>
      </trkpt>
      <trkpt lat="37.077595" lon="-3.37690167">
        <ele>2803.0</ele>
        <time>2022-11-20T10:05:57.000Z</time>
      </trkpt>
      <trkpt lat="37.077595" lon="-3.37690167">
        <ele>2803.0</ele>
        <time>2022-11-20T10:05:58.000Z</time>
      </trkpt>
      <trkpt lat="37.077595" lon="-3.37690167">
        <ele>2803.0</ele>
        <time>2022-11-20T10:05:59.000Z</time>
      </trkpt>
      <trkpt lat="37.07759667" lon="-3.3769">
        <ele>2803.0</ele>
        <time>2022-11-20T10:06:00.000Z</time>
      </trkpt>
      <trkpt lat="37.077595" lon="-3.37689833">
        <ele>2803.0</ele>
        <time>2022-11-20T10:06:01.000Z</time>
      </trkpt>
      <trkpt lat="37.077595" lon="-3.37689833">
        <ele>2803.0</ele>
        <time>2022-11-20T10:06:02.000Z</time>
      </trkpt>
      <trkpt lat="37.077595" lon="-3.37689833">
        <ele>2803.0</ele>
        <time>2022-11-20T10:06:03.000Z</time>
      </trkpt>
      <trkpt lat="37.07759333" lon="-3.376895">
        <ele>2803.0</ele>
        <time>2022-11-20T10:06:04.000Z</time>
      </trkpt>
      <trkpt lat="37.07759" lon="-3.376895">
        <ele>2803.0</ele>
        <time>2022-11-20T10:06:05.000Z</time>
      </trkpt>
      <trkpt lat="37.07759" lon="-3.376895">
        <ele>2803.0</ele>
        <time>2022-11-20T10:06:06.000Z</time>
      </trkpt>
      <trkpt lat="37.07759167" lon="-3.37689667">
        <ele>2803.0</ele>
        <time>2022-11-20T10:06:07.000Z</time>
      </trkpt>
      <trkpt lat="37.07759" lon="-3.37689667">
        <ele>2803.0</ele>
        <time>2022-11-20T10:06:08.000Z</time>
      </trkpt>
      <trkpt lat="37.07759" lon="-3.37689667">
        <ele>2803.0</ele>
        <time>2022-11-20T10:06:09.000Z</time>
      </trkpt>
      <trkpt lat="37.07759" lon="-3.37689667">
        <ele>2802.0</ele>
        <time>2022-11-20T10:06:10.000Z</time>
      </trkpt>
      <trkpt lat="37.07759" lon="-3.37689667">
        <ele>2802.0</ele>
        <time>2022-11-20T10:06:11.000Z</time>
      </trkpt>
      <trkpt lat="37.07759" lon="-3.37689667">
        <ele>2802.0</ele>
        <time>2022-11-20T10:06:12.000Z</time>
      </trkpt>
      <trkpt lat="37.07759" lon="-3.37689667">
        <ele>2802.0</ele>
        <time>2022-11-20T10:06:13.000Z</time>
      </trkpt>
      <trkpt lat="37.07759" lon="-3.37689833">
        <ele>2802.0</ele>
        <time>2022-11-20T10:06:14.000Z</time>
      </trkpt>
      <trkpt lat="37.07759167" lon="-3.37689833">
        <ele>2802.0</ele>
        <time>2022-11-20T10:06:15.000Z</time>
      </trkpt>
      <trkpt lat="37.07759167" lon="-3.37689833">
        <ele>2802.0</ele>
        <time>2022-11-20T10:06:16.000Z</time>
      </trkpt>
      <trkpt lat="37.07759167" lon="-3.37689833">
        <ele>2802.0</ele>
        <time>2022-11-20T10:06:17.000Z</time>
      </trkpt>
      <trkpt lat="37.07759167" lon="-3.37689833">
        <ele>2802.0</ele>
        <time>2022-11-20T10:06:18.000Z</time>
      </trkpt>
      <trkpt lat="37.07759333" lon="-3.37689833">
        <ele>2802.0</ele>
        <time>2022-11-20T10:06:19.000Z</time>
      </trkpt>
      <trkpt lat="37.07759333" lon="-3.3769">
        <ele>2802.0</ele>
        <time>2022-11-20T10:06:20.000Z</time>
      </trkpt>
      <trkpt lat="37.07759333" lon="-3.3769">
        <ele>2802.0</ele>
        <time>2022-11-20T10:06:21.000Z</time>
      </trkpt>
      <trkpt lat="37.07759333" lon="-3.3769">
        <ele>2802.0</ele>
        <time>2022-11-20T10:06:22.000Z</time>
      </trkpt>
      <trkpt lat="37.07759333" lon="-3.3769">
        <ele>2802.0</ele>
        <time>2022-11-20T10:06:23.000Z</time>
      </trkpt>
      <trkpt lat="37.07759333" lon="-3.3769">
        <ele>2802.0</ele>
        <time>2022-11-20T10:06:24.000Z</time>
      </trkpt>
      <trkpt lat="37.07759333" lon="-3.3769">
        <ele>2802.0</ele>
        <time>2022-11-20T10:06:25.000Z</time>
      </trkpt>
      <trkpt lat="37.07759333" lon="-3.3769">
        <ele>2802.0</ele>
        <time>2022-11-20T10:06:26.000Z</time>
      </trkpt>
      <trkpt lat="37.07759333" lon="-3.3769">
        <ele>2802.0</ele>
        <time>2022-11-20T10:06:27.000Z</time>
      </trkpt>
      <trkpt lat="37.07759333" lon="-3.3769">
        <ele>2802.0</ele>
        <time>2022-11-20T10:06:28.000Z</time>
      </trkpt>
      <trkpt lat="37.07759333" lon="-3.3769">
        <ele>2802.0</ele>
        <time>2022-11-20T10:06:29.000Z</time>
      </trkpt>
      <trkpt lat="37.07759333" lon="-3.3769">
        <ele>2802.0</ele>
        <time>2022-11-20T10:06:30.000Z</time>
      </trkpt>
      <trkpt lat="37.07759333" lon="-3.37689833">
        <ele>2802.0</ele>
        <time>2022-11-20T10:06:31.000Z</time>
      </trkpt>
      <trkpt lat="37.07759333" lon="-3.3769">
        <ele>2802.0</ele>
        <time>2022-11-20T10:06:32.000Z</time>
      </trkpt>
      <trkpt lat="37.077595" lon="-3.37690167">
        <ele>2802.0</ele>
        <time>2022-11-20T10:06:33.000Z</time>
      </trkpt>
      <trkpt lat="37.077595" lon="-3.3769">
        <ele>2802.0</ele>
        <time>2022-11-20T10:06:34.000Z</time>
      </trkpt>
      <trkpt lat="37.077595" lon="-3.37690167">
        <ele>2802.0</ele>
        <time>2022-11-20T10:06:35.000Z</time>
      </trkpt>
      <trkpt lat="37.07759667" lon="-3.3769">
        <ele>2802.0</ele>
        <time>2022-11-20T10:06:36.000Z</time>
      </trkpt>
      <trkpt lat="37.07759667" lon="-3.3769">
        <ele>2802.0</ele>
        <time>2022-11-20T10:06:37.000Z</time>
      </trkpt>
      <trkpt lat="37.07759667" lon="-3.37690167">
        <ele>2802.0</ele>
        <time>2022-11-20T10:06:38.000Z</time>
      </trkpt>
      <trkpt lat="37.07759667" lon="-3.37690167">
        <ele>2802.0</ele>
        <time>2022-11-20T10:06:39.000Z</time>
      </trkpt>
      <trkpt lat="37.077595" lon="-3.3769">
        <ele>2802.0</ele>
        <time>2022-11-20T10:06:40.000Z</time>
      </trkpt>
      <trkpt lat="37.077595" lon="-3.37689833">
        <ele>2802.0</ele>
        <time>2022-11-20T10:06:41.000Z</time>
      </trkpt>
      <trkpt lat="37.077595" lon="-3.37689833">
        <ele>2802.0</ele>
        <time>2022-11-20T10:06:42.000Z</time>
      </trkpt>
      <trkpt lat="37.077595" lon="-3.37689833">
        <ele>2802.0</ele>
        <time>2022-11-20T10:06:43.000Z</time>
      </trkpt>
      <trkpt lat="37.077595" lon="-3.37689833">
        <ele>2802.0</ele>
        <time>2022-11-20T10:06:44.000Z</time>
      </trkpt>
      <trkpt lat="37.077595" lon="-3.37689833">
        <ele>2802.0</ele>
        <time>2022-11-20T10:06:45.000Z</time>
      </trkpt>
      <trkpt lat="37.07759667" lon="-3.3769">
        <ele>2802.0</ele>
        <time>2022-11-20T10:06:46.000Z</time>
      </trkpt>
      <trkpt lat="37.07759667" lon="-3.37690333">
        <ele>2802.0</ele>
        <time>2022-11-20T10:06:47.000Z</time>
      </trkpt>
      <trkpt lat="37.07759667" lon="-3.37690167">
        <ele>2802.0</ele>
        <time>2022-11-20T10:06:48.000Z</time>
      </trkpt>
      <trkpt lat="37.077595" lon="-3.3769">
        <ele>2802.0</ele>
        <time>2022-11-20T10:06:49.000Z</time>
      </trkpt>
      <trkpt lat="37.07759333" lon="-3.37690167">
        <ele>2802.0</ele>
        <time>2022-11-20T10:06:50.000Z</time>
      </trkpt>
      <trkpt lat="37.07759333" lon="-3.37690167">
        <ele>2802.0</ele>
        <time>2022-11-20T10:06:51.000Z</time>
      </trkpt>
      <trkpt lat="37.077595" lon="-3.37690167">
        <ele>2802.0</ele>
        <time>2022-11-20T10:06:52.000Z</time>
      </trkpt>
      <trkpt lat="37.07759833" lon="-3.37690333">
        <ele>2802.0</ele>
        <time>2022-11-20T10:06:53.000Z</time>
      </trkpt>
      <trkpt lat="37.07759833" lon="-3.37690333">
        <ele>2802.0</ele>
        <time>2022-11-20T10:06:54.000Z</time>
      </trkpt>
      <trkpt lat="37.07759833" lon="-3.37690333">
        <ele>2802.0</ele>
        <time>2022-11-20T10:06:55.000Z</time>
      </trkpt>
      <trkpt lat="37.07759833" lon="-3.37690167">
        <ele>2802.0</ele>
        <time>2022-11-20T10:06:56.000Z</time>
      </trkpt>
      <trkpt lat="37.0776" lon="-3.3769">
        <ele>2802.0</ele>
        <time>2022-11-20T10:06:57.000Z</time>
      </trkpt>
      <trkpt lat="37.07760167" lon="-3.3769">
        <ele>2802.0</ele>
        <time>2022-11-20T10:06:58.000Z</time>
      </trkpt>
      <trkpt lat="37.07760167" lon="-3.3769">
        <ele>2802.0</ele>
        <time>2022-11-20T10:06:59.000Z</time>
      </trkpt>
      <trkpt lat="37.07760167" lon="-3.3769">
        <ele>2802.0</ele>
        <time>2022-11-20T10:07:00.000Z</time>
      </trkpt>
      <trkpt lat="37.07760167" lon="-3.3769">
        <ele>2802.0</ele>
        <time>2022-11-20T10:07:01.000Z</time>
      </trkpt>
      <trkpt lat="37.0776" lon="-3.37689833">
        <ele>2802.0</ele>
        <time>2022-11-20T10:07:02.000Z</time>
      </trkpt>
      <trkpt lat="37.0776" lon="-3.37689667">
        <ele>2802.0</ele>
        <time>2022-11-20T10:07:03.000Z</time>
      </trkpt>
      <trkpt lat="37.0776" lon="-3.37689833">
        <ele>2802.0</ele>
        <time>2022-11-20T10:07:04.000Z</time>
      </trkpt>
      <trkpt lat="37.07759833" lon="-3.37689833">
        <ele>2802.0</ele>
        <time>2022-11-20T10:07:05.000Z</time>
      </trkpt>
      <trkpt lat="37.07759833" lon="-3.3769">
        <ele>2802.0</ele>
        <time>2022-11-20T10:07:06.000Z</time>
      </trkpt>
      <trkpt lat="37.0776" lon="-3.3769">
        <ele>2802.0</ele>
        <time>2022-11-20T10:07:07.000Z</time>
      </trkpt>
      <trkpt lat="37.0776" lon="-3.3769">
        <ele>2802.0</ele>
        <time>2022-11-20T10:07:08.000Z</time>
      </trkpt>
      <trkpt lat="37.0776" lon="-3.3769">
        <ele>2802.0</ele>
        <time>2022-11-20T10:07:09.000Z</time>
      </trkpt>
      <trkpt lat="37.0776" lon="-3.3769">
        <ele>2802.0</ele>
        <time>2022-11-20T10:07:10.000Z</time>
      </trkpt>
      <trkpt lat="37.0776" lon="-3.3769">
        <ele>2802.0</ele>
        <time>2022-11-20T10:07:11.000Z</time>
      </trkpt>
      <trkpt lat="37.0776" lon="-3.3769">
        <ele>2802.0</ele>
        <time>2022-11-20T10:07:12.000Z</time>
      </trkpt>
      <trkpt lat="37.0776" lon="-3.37690167">
        <ele>2802.0</ele>
        <time>2022-11-20T10:07:13.000Z</time>
      </trkpt>
      <trkpt lat="37.0776" lon="-3.37690167">
        <ele>2802.0</ele>
        <time>2022-11-20T10:07:14.000Z</time>
      </trkpt>
      <trkpt lat="37.0776" lon="-3.3769">
        <ele>2802.0</ele>
        <time>2022-11-20T10:07:15.000Z</time>
      </trkpt>
      <trkpt lat="37.07759833" lon="-3.3769">
        <ele>2802.0</ele>
        <time>2022-11-20T10:07:16.000Z</time>
      </trkpt>
      <trkpt lat="37.07759833" lon="-3.3769">
        <ele>2802.0</ele>
        <time>2022-11-20T10:07:17.000Z</time>
      </trkpt>
      <trkpt lat="37.0776" lon="-3.3769">
        <ele>2802.0</ele>
        <time>2022-11-20T10:07:18.000Z</time>
      </trkpt>
      <trkpt lat="37.0776" lon="-3.3769">
        <ele>2802.0</ele>
        <time>2022-11-20T10:07:19.000Z</time>
      </trkpt>
      <trkpt lat="37.0776" lon="-3.3769">
        <ele>2802.0</ele>
        <time>2022-11-20T10:07:20.000Z</time>
      </trkpt>
      <trkpt lat="37.0776" lon="-3.3769">
        <ele>2802.0</ele>
        <time>2022-11-20T10:07:21.000Z</time>
      </trkpt>
      <trkpt lat="37.0776" lon="-3.37689667">
        <ele>2802.0</ele>
        <time>2022-11-20T10:07:22.000Z</time>
      </trkpt>
      <trkpt lat="37.0776" lon="-3.376895">
        <ele>2802.0</ele>
        <time>2022-11-20T10:07:23.000Z</time>
      </trkpt>
      <trkpt lat="37.0776" lon="-3.376895">
        <ele>2802.0</ele>
        <time>2022-11-20T10:07:24.000Z</time>
      </trkpt>
      <trkpt lat="37.0776" lon="-3.376895">
        <ele>2802.0</ele>
        <time>2022-11-20T10:07:25.000Z</time>
      </trkpt>
      <trkpt lat="37.0776" lon="-3.37689833">
        <ele>2802.0</ele>
        <time>2022-11-20T10:07:26.000Z</time>
      </trkpt>
      <trkpt lat="37.0776" lon="-3.37689833">
        <ele>2802.0</ele>
        <time>2022-11-20T10:07:27.000Z</time>
      </trkpt>
      <trkpt lat="37.07760167" lon="-3.37689833">
        <ele>2802.0</ele>
        <time>2022-11-20T10:07:28.000Z</time>
      </trkpt>
      <trkpt lat="37.07760167" lon="-3.37689833">
        <ele>2802.0</ele>
        <time>2022-11-20T10:07:29.000Z</time>
      </trkpt>
      <trkpt lat="37.07760167" lon="-3.37689833">
        <ele>2802.0</ele>
        <time>2022-11-20T10:07:30.000Z</time>
      </trkpt>
      <trkpt lat="37.07760167" lon="-3.37689833">
        <ele>2802.0</ele>
        <time>2022-11-20T10:07:31.000Z</time>
      </trkpt>
      <trkpt lat="37.07760167" lon="-3.37689833">
        <ele>2802.0</ele>
        <time>2022-11-20T10:07:32.000Z</time>
      </trkpt>
      <trkpt lat="37.07760167" lon="-3.37689833">
        <ele>2802.0</ele>
        <time>2022-11-20T10:07:33.000Z</time>
      </trkpt>
      <trkpt lat="37.07760167" lon="-3.3769">
        <ele>2802.0</ele>
        <time>2022-11-20T10:07:34.000Z</time>
      </trkpt>
      <trkpt lat="37.07760167" lon="-3.37689833">
        <ele>2802.0</ele>
        <time>2022-11-20T10:07:35.000Z</time>
      </trkpt>
      <trkpt lat="37.07760167" lon="-3.3769">
        <ele>2802.0</ele>
        <time>2022-11-20T10:07:36.000Z</time>
      </trkpt>
      <trkpt lat="37.07760167" lon="-3.3769">
        <ele>2802.0</ele>
        <time>2022-11-20T10:07:37.000Z</time>
      </trkpt>
      <trkpt lat="37.07760167" lon="-3.3769">
        <ele>2802.0</ele>
        <time>2022-11-20T10:07:38.000Z</time>
      </trkpt>
      <trkpt lat="37.07760167" lon="-3.3769">
        <ele>2801.0</ele>
        <time>2022-11-20T10:07:39.000Z</time>
      </trkpt>
      <trkpt lat="37.07760167" lon="-3.3769">
        <ele>2801.0</ele>
        <time>2022-11-20T10:07:40.000Z</time>
      </trkpt>
      <trkpt lat="37.07760167" lon="-3.3769">
        <ele>2801.0</ele>
        <time>2022-11-20T10:07:41.000Z</time>
      </trkpt>
      <trkpt lat="37.0776" lon="-3.3769">
        <ele>2801.0</ele>
        <time>2022-11-20T10:07:42.000Z</time>
      </trkpt>
      <trkpt lat="37.0776" lon="-3.3769">
        <ele>2802.0</ele>
        <time>2022-11-20T10:07:43.000Z</time>
      </trkpt>
      <trkpt lat="37.0776" lon="-3.3769">
        <ele>2802.0</ele>
        <time>2022-11-20T10:07:44.000Z</time>
      </trkpt>
      <trkpt lat="37.07759667" lon="-3.3769">
        <ele>2802.0</ele>
        <time>2022-11-20T10:07:45.000Z</time>
      </trkpt>
      <trkpt lat="37.07759333" lon="-3.37689833">
        <ele>2802.0</ele>
        <time>2022-11-20T10:07:46.000Z</time>
      </trkpt>
      <trkpt lat="37.07759333" lon="-3.37689667">
        <ele>2802.0</ele>
        <time>2022-11-20T10:07:47.000Z</time>
      </trkpt>
      <trkpt lat="37.07759333" lon="-3.37689667">
        <ele>2802.0</ele>
        <time>2022-11-20T10:07:48.000Z</time>
      </trkpt>
      <trkpt lat="37.07759333" lon="-3.37689667">
        <ele>2802.0</ele>
        <time>2022-11-20T10:07:49.000Z</time>
      </trkpt>
      <trkpt lat="37.07759333" lon="-3.37689833">
        <ele>2802.0</ele>
        <time>2022-11-20T10:07:50.000Z</time>
      </trkpt>
      <trkpt lat="37.07759333" lon="-3.37689833">
        <ele>2802.0</ele>
        <time>2022-11-20T10:07:51.000Z</time>
      </trkpt>
      <trkpt lat="37.07759333" lon="-3.37689833">
        <ele>2802.0</ele>
        <time>2022-11-20T10:07:52.000Z</time>
      </trkpt>
      <trkpt lat="37.07759333" lon="-3.37689833">
        <ele>2802.0</ele>
        <time>2022-11-20T10:07:53.000Z</time>
      </trkpt>
      <trkpt lat="37.077595" lon="-3.37689833">
        <ele>2802.0</ele>
        <time>2022-11-20T10:07:54.000Z</time>
      </trkpt>
      <trkpt lat="37.07759667" lon="-3.37690167">
        <ele>2802.0</ele>
        <time>2022-11-20T10:07:55.000Z</time>
      </trkpt>
      <trkpt lat="37.07759667" lon="-3.37690167">
        <ele>2802.0</ele>
        <time>2022-11-20T10:07:56.000Z</time>
      </trkpt>
      <trkpt lat="37.07759667" lon="-3.3769">
        <ele>2801.0</ele>
        <time>2022-11-20T10:07:57.000Z</time>
      </trkpt>
      <trkpt lat="37.07759667" lon="-3.3769">
        <ele>2801.0</ele>
        <time>2022-11-20T10:07:58.000Z</time>
      </trkpt>
      <trkpt lat="37.07759667" lon="-3.3769">
        <ele>2801.0</ele>
        <time>2022-11-20T10:07:59.000Z</time>
      </trkpt>
      <trkpt lat="37.077595" lon="-3.3769">
        <ele>2801.0</ele>
        <time>2022-11-20T10:08:00.000Z</time>
      </trkpt>
      <trkpt lat="37.077595" lon="-3.37689833">
        <ele>2801.0</ele>
        <time>2022-11-20T10:08:01.000Z</time>
      </trkpt>
      <trkpt lat="37.07759333" lon="-3.37689833">
        <ele>2801.0</ele>
        <time>2022-11-20T10:08:02.000Z</time>
      </trkpt>
      <trkpt lat="37.07759333" lon="-3.37689833">
        <ele>2801.0</ele>
        <time>2022-11-20T10:08:03.000Z</time>
      </trkpt>
      <trkpt lat="37.07759333" lon="-3.37689667">
        <ele>2801.0</ele>
        <time>2022-11-20T10:08:04.000Z</time>
      </trkpt>
      <trkpt lat="37.07759333" lon="-3.37689667">
        <ele>2801.0</ele>
        <time>2022-11-20T10:08:05.000Z</time>
      </trkpt>
      <trkpt lat="37.077595" lon="-3.37689833">
        <ele>2801.0</ele>
        <time>2022-11-20T10:08:06.000Z</time>
      </trkpt>
      <trkpt lat="37.07759333" lon="-3.37690167">
        <ele>2801.0</ele>
        <time>2022-11-20T10:08:07.000Z</time>
      </trkpt>
      <trkpt lat="37.07759333" lon="-3.37690167">
        <ele>2801.0</ele>
        <time>2022-11-20T10:08:08.000Z</time>
      </trkpt>
      <trkpt lat="37.07759333" lon="-3.376905">
        <ele>2801.0</ele>
        <time>2022-11-20T10:08:09.000Z</time>
      </trkpt>
      <trkpt lat="37.077595" lon="-3.37690667">
        <ele>2802.0</ele>
        <time>2022-11-20T10:08:10.000Z</time>
      </trkpt>
      <trkpt lat="37.07759333" lon="-3.37691">
        <ele>2802.0</ele>
        <time>2022-11-20T10:08:11.000Z</time>
      </trkpt>
      <trkpt lat="37.07759167" lon="-3.37691667">
        <ele>2802.0</ele>
        <time>2022-11-20T10:08:12.000Z</time>
      </trkpt>
      <trkpt lat="37.07759" lon="-3.37692167">
        <ele>2802.0</ele>
        <time>2022-11-20T10:08:13.000Z</time>
      </trkpt>
      <trkpt lat="37.07759" lon="-3.37692167">
        <ele>2802.0</ele>
        <time>2022-11-20T10:08:14.000Z</time>
      </trkpt>
      <trkpt lat="37.07759167" lon="-3.37692167">
        <ele>2802.0</ele>
        <time>2022-11-20T10:08:15.000Z</time>
      </trkpt>
      <trkpt lat="37.07759167" lon="-3.37692167">
        <ele>2802.0</ele>
        <time>2022-11-20T10:08:16.000Z</time>
      </trkpt>
      <trkpt lat="37.07759167" lon="-3.37692333">
        <ele>2802.0</ele>
        <time>2022-11-20T10:08:17.000Z</time>
      </trkpt>
      <trkpt lat="37.07759167" lon="-3.37692167">
        <ele>2802.0</ele>
        <time>2022-11-20T10:08:18.000Z</time>
      </trkpt>
      <trkpt lat="37.07759167" lon="-3.37692167">
        <ele>2802.0</ele>
        <time>2022-11-20T10:08:19.000Z</time>
      </trkpt>
      <trkpt lat="37.07759333" lon="-3.37692167">
        <ele>2802.0</ele>
        <time>2022-11-20T10:08:20.000Z</time>
      </trkpt>
      <trkpt lat="37.07759333" lon="-3.37692333">
        <ele>2802.0</ele>
        <time>2022-11-20T10:08:21.000Z</time>
      </trkpt>
      <trkpt lat="37.07759333" lon="-3.37692333">
        <ele>2802.0</ele>
        <time>2022-11-20T10:08:22.000Z</time>
      </trkpt>
      <trkpt lat="37.07759333" lon="-3.37692333">
        <ele>2802.0</ele>
        <time>2022-11-20T10:08:23.000Z</time>
      </trkpt>
      <trkpt lat="37.077595" lon="-3.37692333">
        <ele>2802.0</ele>
        <time>2022-11-20T10:08:24.000Z</time>
      </trkpt>
      <trkpt lat="37.077595" lon="-3.37691667">
        <ele>2802.0</ele>
        <time>2022-11-20T10:08:25.000Z</time>
      </trkpt>
      <trkpt lat="37.077595" lon="-3.376915">
        <ele>2802.0</ele>
        <time>2022-11-20T10:08:26.000Z</time>
      </trkpt>
      <trkpt lat="37.07759667" lon="-3.37691333">
        <ele>2802.0</ele>
        <time>2022-11-20T10:08:27.000Z</time>
      </trkpt>
      <trkpt lat="37.07759667" lon="-3.37691167">
        <ele>2802.0</ele>
        <time>2022-11-20T10:08:28.000Z</time>
      </trkpt>
      <trkpt lat="37.07759833" lon="-3.37691333">
        <ele>2802.0</ele>
        <time>2022-11-20T10:08:29.000Z</time>
      </trkpt>
      <trkpt lat="37.07759833" lon="-3.37691333">
        <ele>2802.0</ele>
        <time>2022-11-20T10:08:30.000Z</time>
      </trkpt>
      <trkpt lat="37.07759833" lon="-3.37691333">
        <ele>2802.0</ele>
        <time>2022-11-20T10:08:31.000Z</time>
      </trkpt>
      <trkpt lat="37.07759833" lon="-3.37691333">
        <ele>2802.0</ele>
        <time>2022-11-20T10:08:32.000Z</time>
      </trkpt>
      <trkpt lat="37.07759833" lon="-3.376915">
        <ele>2802.0</ele>
        <time>2022-11-20T10:08:33.000Z</time>
      </trkpt>
      <trkpt lat="37.07759833" lon="-3.376915">
        <ele>2802.0</ele>
        <time>2022-11-20T10:08:34.000Z</time>
      </trkpt>
      <trkpt lat="37.07759833" lon="-3.376915">
        <ele>2802.0</ele>
        <time>2022-11-20T10:08:35.000Z</time>
      </trkpt>
      <trkpt lat="37.07759833" lon="-3.376915">
        <ele>2802.0</ele>
        <time>2022-11-20T10:08:36.000Z</time>
      </trkpt>
      <trkpt lat="37.07759833" lon="-3.376915">
        <ele>2802.0</ele>
        <time>2022-11-20T10:08:37.000Z</time>
      </trkpt>
      <trkpt lat="37.07759833" lon="-3.37691333">
        <ele>2802.0</ele>
        <time>2022-11-20T10:08:38.000Z</time>
      </trkpt>
      <trkpt lat="37.07759833" lon="-3.37691333">
        <ele>2802.0</ele>
        <time>2022-11-20T10:08:39.000Z</time>
      </trkpt>
      <trkpt lat="37.0776" lon="-3.37691333">
        <ele>2802.0</ele>
        <time>2022-11-20T10:08:40.000Z</time>
      </trkpt>
      <trkpt lat="37.07759833" lon="-3.376915">
        <ele>2802.0</ele>
        <time>2022-11-20T10:08:41.000Z</time>
      </trkpt>
      <trkpt lat="37.07759833" lon="-3.376915">
        <ele>2802.0</ele>
        <time>2022-11-20T10:08:42.000Z</time>
      </trkpt>
      <trkpt lat="37.07759833" lon="-3.376915">
        <ele>2802.0</ele>
        <time>2022-11-20T10:08:43.000Z</time>
      </trkpt>
      <trkpt lat="37.07759833" lon="-3.376915">
        <ele>2802.0</ele>
        <time>2022-11-20T10:08:44.000Z</time>
      </trkpt>
      <trkpt lat="37.07759833" lon="-3.376915">
        <ele>2802.0</ele>
        <time>2022-11-20T10:08:45.000Z</time>
      </trkpt>
      <trkpt lat="37.0776" lon="-3.376915">
        <ele>2802.0</ele>
        <time>2022-11-20T10:08:46.000Z</time>
      </trkpt>
      <trkpt lat="37.0776" lon="-3.37691667">
        <ele>2802.0</ele>
        <time>2022-11-20T10:08:47.000Z</time>
      </trkpt>
      <trkpt lat="37.0776" lon="-3.37691667">
        <ele>2802.0</ele>
        <time>2022-11-20T10:08:48.000Z</time>
      </trkpt>
      <trkpt lat="37.0776" lon="-3.37691667">
        <ele>2802.0</ele>
        <time>2022-11-20T10:08:49.000Z</time>
      </trkpt>
      <trkpt lat="37.0776" lon="-3.37691667">
        <ele>2802.0</ele>
        <time>2022-11-20T10:08:50.000Z</time>
      </trkpt>
      <trkpt lat="37.0776" lon="-3.37691667">
        <ele>2802.0</ele>
        <time>2022-11-20T10:08:51.000Z</time>
      </trkpt>
      <trkpt lat="37.0776" lon="-3.37691667">
        <ele>2802.0</ele>
        <time>2022-11-20T10:08:52.000Z</time>
      </trkpt>
      <trkpt lat="37.07759833" lon="-3.37691667">
        <ele>2802.0</ele>
        <time>2022-11-20T10:08:53.000Z</time>
      </trkpt>
      <trkpt lat="37.0776" lon="-3.37691667">
        <ele>2802.0</ele>
        <time>2022-11-20T10:08:54.000Z</time>
      </trkpt>
      <trkpt lat="37.0776" lon="-3.37691667">
        <ele>2802.0</ele>
        <time>2022-11-20T10:08:55.000Z</time>
      </trkpt>
      <trkpt lat="37.0776" lon="-3.37691833">
        <ele>2802.0</ele>
        <time>2022-11-20T10:08:56.000Z</time>
      </trkpt>
      <trkpt lat="37.07759833" lon="-3.37691833">
        <ele>2802.0</ele>
        <time>2022-11-20T10:08:57.000Z</time>
      </trkpt>
      <trkpt lat="37.0776" lon="-3.37691667">
        <ele>2802.0</ele>
        <time>2022-11-20T10:08:58.000Z</time>
      </trkpt>
      <trkpt lat="37.0776" lon="-3.37691667">
        <ele>2802.0</ele>
        <time>2022-11-20T10:08:59.000Z</time>
      </trkpt>
      <trkpt lat="37.07759833" lon="-3.37691333">
        <ele>2802.0</ele>
        <time>2022-11-20T10:09:00.000Z</time>
      </trkpt>
      <trkpt lat="37.0776" lon="-3.37691333">
        <ele>2802.0</ele>
        <time>2022-11-20T10:09:01.000Z</time>
      </trkpt>
      <trkpt lat="37.0776" lon="-3.37691333">
        <ele>2802.0</ele>
        <time>2022-11-20T10:09:02.000Z</time>
      </trkpt>
      <trkpt lat="37.0776" lon="-3.37691667">
        <ele>2802.0</ele>
        <time>2022-11-20T10:09:03.000Z</time>
      </trkpt>
      <trkpt lat="37.0776" lon="-3.37691167">
        <ele>2802.0</ele>
        <time>2022-11-20T10:09:04.000Z</time>
      </trkpt>
      <trkpt lat="37.07760167" lon="-3.37690667">
        <ele>2802.0</ele>
        <time>2022-11-20T10:09:05.000Z</time>
      </trkpt>
      <trkpt lat="37.07760167" lon="-3.37690667">
        <ele>2802.0</ele>
        <time>2022-11-20T10:09:06.000Z</time>
      </trkpt>
      <trkpt lat="37.07760333" lon="-3.376905">
        <ele>2802.0</ele>
        <time>2022-11-20T10:09:07.000Z</time>
      </trkpt>
      <trkpt lat="37.07760333" lon="-3.376905">
        <ele>2802.0</ele>
        <time>2022-11-20T10:09:08.000Z</time>
      </trkpt>
      <trkpt lat="37.07760333" lon="-3.37690667">
        <ele>2802.0</ele>
        <time>2022-11-20T10:09:09.000Z</time>
      </trkpt>
      <trkpt lat="37.07760333" lon="-3.37690667">
        <ele>2802.0</ele>
        <time>2022-11-20T10:09:10.000Z</time>
      </trkpt>
      <trkpt lat="37.07760333" lon="-3.37690833">
        <ele>2802.0</ele>
        <time>2022-11-20T10:09:11.000Z</time>
      </trkpt>
      <trkpt lat="37.07760333" lon="-3.37690833">
        <ele>2802.0</ele>
        <time>2022-11-20T10:09:12.000Z</time>
      </trkpt>
      <trkpt lat="37.07760333" lon="-3.37690833">
        <ele>2802.0</ele>
        <time>2022-11-20T10:09:13.000Z</time>
      </trkpt>
      <trkpt lat="37.07760333" lon="-3.37690833">
        <ele>2802.0</ele>
        <time>2022-11-20T10:09:14.000Z</time>
      </trkpt>
      <trkpt lat="37.07760333" lon="-3.37690833">
        <ele>2802.0</ele>
        <time>2022-11-20T10:09:15.000Z</time>
      </trkpt>
      <trkpt lat="37.07760333" lon="-3.37690833">
        <ele>2802.0</ele>
        <time>2022-11-20T10:09:16.000Z</time>
      </trkpt>
      <trkpt lat="37.07760333" lon="-3.37690833">
        <ele>2802.0</ele>
        <time>2022-11-20T10:09:17.000Z</time>
      </trkpt>
      <trkpt lat="37.07760333" lon="-3.37690833">
        <ele>2802.0</ele>
        <time>2022-11-20T10:09:18.000Z</time>
      </trkpt>
      <trkpt lat="37.07760333" lon="-3.37690833">
        <ele>2802.0</ele>
        <time>2022-11-20T10:09:19.000Z</time>
      </trkpt>
      <trkpt lat="37.07760333" lon="-3.37690833">
        <ele>2802.0</ele>
        <time>2022-11-20T10:09:20.000Z</time>
      </trkpt>
      <trkpt lat="37.07760333" lon="-3.37690833">
        <ele>2802.0</ele>
        <time>2022-11-20T10:09:21.000Z</time>
      </trkpt>
      <trkpt lat="37.077605" lon="-3.37690833">
        <ele>2802.0</ele>
        <time>2022-11-20T10:09:22.000Z</time>
      </trkpt>
      <trkpt lat="37.077605" lon="-3.37690833">
        <ele>2802.0</ele>
        <time>2022-11-20T10:09:23.000Z</time>
      </trkpt>
      <trkpt lat="37.077605" lon="-3.37690833">
        <ele>2802.0</ele>
        <time>2022-11-20T10:09:24.000Z</time>
      </trkpt>
      <trkpt lat="37.077605" lon="-3.37690833">
        <ele>2802.0</ele>
        <time>2022-11-20T10:09:25.000Z</time>
      </trkpt>
      <trkpt lat="37.077605" lon="-3.37690833">
        <ele>2802.0</ele>
        <time>2022-11-20T10:09:26.000Z</time>
      </trkpt>
      <trkpt lat="37.077605" lon="-3.37690833">
        <ele>2802.0</ele>
        <time>2022-11-20T10:09:27.000Z</time>
      </trkpt>
      <trkpt lat="37.077605" lon="-3.37690833">
        <ele>2802.0</ele>
        <time>2022-11-20T10:09:28.000Z</time>
      </trkpt>
      <trkpt lat="37.077605" lon="-3.37690833">
        <ele>2802.0</ele>
        <time>2022-11-20T10:09:29.000Z</time>
      </trkpt>
      <trkpt lat="37.077605" lon="-3.37690833">
        <ele>2802.0</ele>
        <time>2022-11-20T10:09:30.000Z</time>
      </trkpt>
      <trkpt lat="37.077605" lon="-3.37690833">
        <ele>2802.0</ele>
        <time>2022-11-20T10:09:31.000Z</time>
      </trkpt>
      <trkpt lat="37.077605" lon="-3.37690833">
        <ele>2802.0</ele>
        <time>2022-11-20T10:09:32.000Z</time>
      </trkpt>
      <trkpt lat="37.077605" lon="-3.37690833">
        <ele>2802.0</ele>
        <time>2022-11-20T10:09:33.000Z</time>
      </trkpt>
      <trkpt lat="37.077605" lon="-3.37690833">
        <ele>2802.0</ele>
        <time>2022-11-20T10:09:34.000Z</time>
      </trkpt>
      <trkpt lat="37.07760333" lon="-3.37690667">
        <ele>2802.0</ele>
        <time>2022-11-20T10:09:35.000Z</time>
      </trkpt>
      <trkpt lat="37.07760333" lon="-3.37690667">
        <ele>2802.0</ele>
        <time>2022-11-20T10:09:36.000Z</time>
      </trkpt>
      <trkpt lat="37.07760333" lon="-3.37690667">
        <ele>2802.0</ele>
        <time>2022-11-20T10:09:37.000Z</time>
      </trkpt>
      <trkpt lat="37.07760333" lon="-3.37690667">
        <ele>2802.0</ele>
        <time>2022-11-20T10:09:38.000Z</time>
      </trkpt>
      <trkpt lat="37.07760333" lon="-3.37690667">
        <ele>2802.0</ele>
        <time>2022-11-20T10:09:39.000Z</time>
      </trkpt>
      <trkpt lat="37.077605" lon="-3.37690667">
        <ele>2802.0</ele>
        <time>2022-11-20T10:09:40.000Z</time>
      </trkpt>
      <trkpt lat="37.07760333" lon="-3.37690667">
        <ele>2802.0</ele>
        <time>2022-11-20T10:09:41.000Z</time>
      </trkpt>
      <trkpt lat="37.07760167" lon="-3.376905">
        <ele>2802.0</ele>
        <time>2022-11-20T10:09:42.000Z</time>
      </trkpt>
      <trkpt lat="37.07760167" lon="-3.37690667">
        <ele>2802.0</ele>
        <time>2022-11-20T10:09:43.000Z</time>
      </trkpt>
      <trkpt lat="37.07760167" lon="-3.37690667">
        <ele>2802.0</ele>
        <time>2022-11-20T10:09:44.000Z</time>
      </trkpt>
      <trkpt lat="37.07760167" lon="-3.37690667">
        <ele>2802.0</ele>
        <time>2022-11-20T10:09:45.000Z</time>
      </trkpt>
      <trkpt lat="37.0776" lon="-3.37690667">
        <ele>2802.0</ele>
        <time>2022-11-20T10:09:46.000Z</time>
      </trkpt>
      <trkpt lat="37.077595" lon="-3.37690833">
        <ele>2802.0</ele>
        <time>2022-11-20T10:09:47.000Z</time>
      </trkpt>
      <trkpt lat="37.07759333" lon="-3.37690667">
        <ele>2802.0</ele>
        <time>2022-11-20T10:09:48.000Z</time>
      </trkpt>
      <trkpt lat="37.07759167" lon="-3.37690167">
        <ele>2802.0</ele>
        <time>2022-11-20T10:09:49.000Z</time>
      </trkpt>
      <trkpt lat="37.07759167" lon="-3.376895">
        <ele>2802.0</ele>
        <time>2022-11-20T10:09:50.000Z</time>
      </trkpt>
      <trkpt lat="37.07759333" lon="-3.37688833">
        <ele>2802.0</ele>
        <time>2022-11-20T10:09:51.000Z</time>
      </trkpt>
      <trkpt lat="37.077595" lon="-3.37688167">
        <ele>2802.0</ele>
        <time>2022-11-20T10:09:52.000Z</time>
      </trkpt>
      <trkpt lat="37.07759833" lon="-3.376875">
        <ele>2802.0</ele>
        <time>2022-11-20T10:09:53.000Z</time>
      </trkpt>
      <trkpt lat="37.0776" lon="-3.37686833">
        <ele>2802.0</ele>
        <time>2022-11-20T10:09:54.000Z</time>
      </trkpt>
      <trkpt lat="37.07759667" lon="-3.37686167">
        <ele>2802.0</ele>
        <time>2022-11-20T10:09:55.000Z</time>
      </trkpt>
      <trkpt lat="37.07759333" lon="-3.376855">
        <ele>2802.0</ele>
        <time>2022-11-20T10:09:56.000Z</time>
      </trkpt>
      <trkpt lat="37.07759333" lon="-3.37684833">
        <ele>2802.0</ele>
        <time>2022-11-20T10:09:57.000Z</time>
      </trkpt>
      <trkpt lat="37.07759167" lon="-3.37684167">
        <ele>2802.0</ele>
        <time>2022-11-20T10:09:58.000Z</time>
      </trkpt>
      <trkpt lat="37.07759333" lon="-3.376835">
        <ele>2802.0</ele>
        <time>2022-11-20T10:09:59.000Z</time>
      </trkpt>
      <trkpt lat="37.07759333" lon="-3.37683">
        <ele>2802.0</ele>
        <time>2022-11-20T10:10:00.000Z</time>
      </trkpt>
      <trkpt lat="37.07759167" lon="-3.37682333">
        <ele>2802.0</ele>
        <time>2022-11-20T10:10:01.000Z</time>
      </trkpt>
      <trkpt lat="37.07759167" lon="-3.37681833">
        <ele>2802.0</ele>
        <time>2022-11-20T10:10:02.000Z</time>
      </trkpt>
      <trkpt lat="37.07758833" lon="-3.37681167">
        <ele>2802.0</ele>
        <time>2022-11-20T10:10:03.000Z</time>
      </trkpt>
      <trkpt lat="37.07758667" lon="-3.37680667">
        <ele>2803.0</ele>
        <time>2022-11-20T10:10:04.000Z</time>
      </trkpt>
      <trkpt lat="37.077585" lon="-3.37680167">
        <ele>2803.0</ele>
        <time>2022-11-20T10:10:05.000Z</time>
      </trkpt>
      <trkpt lat="37.07758167" lon="-3.376795">
        <ele>2803.0</ele>
        <time>2022-11-20T10:10:06.000Z</time>
      </trkpt>
      <trkpt lat="37.07758" lon="-3.37679">
        <ele>2803.0</ele>
        <time>2022-11-20T10:10:07.000Z</time>
      </trkpt>
      <trkpt lat="37.077575" lon="-3.37678333">
        <ele>2803.0</ele>
        <time>2022-11-20T10:10:08.000Z</time>
      </trkpt>
      <trkpt lat="37.07757" lon="-3.37677833">
        <ele>2803.0</ele>
        <time>2022-11-20T10:10:09.000Z</time>
      </trkpt>
      <trkpt lat="37.07756833" lon="-3.37677167">
        <ele>2803.0</ele>
        <time>2022-11-20T10:10:10.000Z</time>
      </trkpt>
      <trkpt lat="37.07756667" lon="-3.37676333">
        <ele>2803.0</ele>
        <time>2022-11-20T10:10:11.000Z</time>
      </trkpt>
      <trkpt lat="37.07756167" lon="-3.37675667">
        <ele>2804.0</ele>
        <time>2022-11-20T10:10:12.000Z</time>
      </trkpt>
      <trkpt lat="37.07756" lon="-3.37675167">
        <ele>2804.0</ele>
        <time>2022-11-20T10:10:13.000Z</time>
      </trkpt>
      <trkpt lat="37.07755833" lon="-3.37674333">
        <ele>2804.0</ele>
        <time>2022-11-20T10:10:14.000Z</time>
      </trkpt>
      <trkpt lat="37.07755333" lon="-3.37673833">
        <ele>2804.0</ele>
        <time>2022-11-20T10:10:15.000Z</time>
      </trkpt>
      <trkpt lat="37.07755" lon="-3.37673333">
        <ele>2804.0</ele>
        <time>2022-11-20T10:10:16.000Z</time>
      </trkpt>
      <trkpt lat="37.07754667" lon="-3.37672833">
        <ele>2804.0</ele>
        <time>2022-11-20T10:10:17.000Z</time>
      </trkpt>
      <trkpt lat="37.07754333" lon="-3.37672167">
        <ele>2805.0</ele>
        <time>2022-11-20T10:10:18.000Z</time>
      </trkpt>
      <trkpt lat="37.07754" lon="-3.376715">
        <ele>2805.0</ele>
        <time>2022-11-20T10:10:19.000Z</time>
      </trkpt>
      <trkpt lat="37.07753667" lon="-3.37670833">
        <ele>2805.0</ele>
        <time>2022-11-20T10:10:20.000Z</time>
      </trkpt>
      <trkpt lat="37.07753667" lon="-3.37670333">
        <ele>2805.0</ele>
        <time>2022-11-20T10:10:21.000Z</time>
      </trkpt>
      <trkpt lat="37.077535" lon="-3.37669333">
        <ele>2805.0</ele>
        <time>2022-11-20T10:10:22.000Z</time>
      </trkpt>
      <trkpt lat="37.07753167" lon="-3.37668667">
        <ele>2805.0</ele>
        <time>2022-11-20T10:10:23.000Z</time>
      </trkpt>
      <trkpt lat="37.07752833" lon="-3.37668">
        <ele>2806.0</ele>
        <time>2022-11-20T10:10:24.000Z</time>
      </trkpt>
      <trkpt lat="37.077525" lon="-3.376675">
        <ele>2806.0</ele>
        <time>2022-11-20T10:10:25.000Z</time>
      </trkpt>
      <trkpt lat="37.07752" lon="-3.37667">
        <ele>2806.0</ele>
        <time>2022-11-20T10:10:26.000Z</time>
      </trkpt>
      <trkpt lat="37.077515" lon="-3.37666667">
        <ele>2806.0</ele>
        <time>2022-11-20T10:10:27.000Z</time>
      </trkpt>
      <trkpt lat="37.07750833" lon="-3.37666333">
        <ele>2806.0</ele>
        <time>2022-11-20T10:10:28.000Z</time>
      </trkpt>
      <trkpt lat="37.07750333" lon="-3.37665833">
        <ele>2806.0</ele>
        <time>2022-11-20T10:10:29.000Z</time>
      </trkpt>
      <trkpt lat="37.07749833" lon="-3.376655">
        <ele>2807.0</ele>
        <time>2022-11-20T10:10:30.000Z</time>
      </trkpt>
      <trkpt lat="37.07749333" lon="-3.37665333">
        <ele>2807.0</ele>
        <time>2022-11-20T10:10:31.000Z</time>
      </trkpt>
      <trkpt lat="37.07748667" lon="-3.37665167">
        <ele>2807.0</ele>
        <time>2022-11-20T10:10:32.000Z</time>
      </trkpt>
      <trkpt lat="37.07748" lon="-3.37665">
        <ele>2807.0</ele>
        <time>2022-11-20T10:10:33.000Z</time>
      </trkpt>
      <trkpt lat="37.07747333" lon="-3.37665">
        <ele>2807.0</ele>
        <time>2022-11-20T10:10:34.000Z</time>
      </trkpt>
      <trkpt lat="37.07746833" lon="-3.37664833">
        <ele>2807.0</ele>
        <time>2022-11-20T10:10:35.000Z</time>
      </trkpt>
      <trkpt lat="37.07746333" lon="-3.37664667">
        <ele>2807.0</ele>
        <time>2022-11-20T10:10:36.000Z</time>
      </trkpt>
      <trkpt lat="37.07745833" lon="-3.37664333">
        <ele>2807.0</ele>
        <time>2022-11-20T10:10:37.000Z</time>
      </trkpt>
      <trkpt lat="37.077455" lon="-3.37664167">
        <ele>2808.0</ele>
        <time>2022-11-20T10:10:38.000Z</time>
      </trkpt>
      <trkpt lat="37.07745" lon="-3.37663667">
        <ele>2808.0</ele>
        <time>2022-11-20T10:10:39.000Z</time>
      </trkpt>
      <trkpt lat="37.07744833" lon="-3.37663">
        <ele>2808.0</ele>
        <time>2022-11-20T10:10:40.000Z</time>
      </trkpt>
      <trkpt lat="37.07744667" lon="-3.37662333">
        <ele>2808.0</ele>
        <time>2022-11-20T10:10:41.000Z</time>
      </trkpt>
      <trkpt lat="37.07744667" lon="-3.376615">
        <ele>2808.0</ele>
        <time>2022-11-20T10:10:42.000Z</time>
      </trkpt>
      <trkpt lat="37.07744333" lon="-3.37661">
        <ele>2808.0</ele>
        <time>2022-11-20T10:10:43.000Z</time>
      </trkpt>
      <trkpt lat="37.07744" lon="-3.37660333">
        <ele>2808.0</ele>
        <time>2022-11-20T10:10:44.000Z</time>
      </trkpt>
      <trkpt lat="37.077435" lon="-3.37660167">
        <ele>2809.0</ele>
        <time>2022-11-20T10:10:45.000Z</time>
      </trkpt>
      <trkpt lat="37.07743" lon="-3.3766">
        <ele>2809.0</ele>
        <time>2022-11-20T10:10:46.000Z</time>
      </trkpt>
      <trkpt lat="37.077425" lon="-3.37659833">
        <ele>2809.0</ele>
        <time>2022-11-20T10:10:47.000Z</time>
      </trkpt>
      <trkpt lat="37.07741833" lon="-3.3766">
        <ele>2809.0</ele>
        <time>2022-11-20T10:10:48.000Z</time>
      </trkpt>
      <trkpt lat="37.07741" lon="-3.37660167">
        <ele>2809.0</ele>
        <time>2022-11-20T10:10:49.000Z</time>
      </trkpt>
      <trkpt lat="37.077405" lon="-3.37660167">
        <ele>2809.0</ele>
        <time>2022-11-20T10:10:50.000Z</time>
      </trkpt>
      <trkpt lat="37.07739833" lon="-3.37660167">
        <ele>2810.0</ele>
        <time>2022-11-20T10:10:51.000Z</time>
      </trkpt>
      <trkpt lat="37.07739333" lon="-3.37660333">
        <ele>2810.0</ele>
        <time>2022-11-20T10:10:52.000Z</time>
      </trkpt>
      <trkpt lat="37.07738833" lon="-3.37660333">
        <ele>2810.0</ele>
        <time>2022-11-20T10:10:53.000Z</time>
      </trkpt>
      <trkpt lat="37.07738167" lon="-3.37660333">
        <ele>2810.0</ele>
        <time>2022-11-20T10:10:54.000Z</time>
      </trkpt>
      <trkpt lat="37.077375" lon="-3.37660167">
        <ele>2810.0</ele>
        <time>2022-11-20T10:10:55.000Z</time>
      </trkpt>
      <trkpt lat="37.07737" lon="-3.3766">
        <ele>2810.0</ele>
        <time>2022-11-20T10:10:56.000Z</time>
      </trkpt>
      <trkpt lat="37.07736667" lon="-3.3766">
        <ele>2810.0</ele>
        <time>2022-11-20T10:10:57.000Z</time>
      </trkpt>
      <trkpt lat="37.07736" lon="-3.37659833">
        <ele>2811.0</ele>
        <time>2022-11-20T10:10:58.000Z</time>
      </trkpt>
      <trkpt lat="37.077355" lon="-3.37659833">
        <ele>2811.0</ele>
        <time>2022-11-20T10:10:59.000Z</time>
      </trkpt>
      <trkpt lat="37.07735" lon="-3.37659667">
        <ele>2811.0</ele>
        <time>2022-11-20T10:11:00.000Z</time>
      </trkpt>
      <trkpt lat="37.07734333" lon="-3.37659667">
        <ele>2811.0</ele>
        <time>2022-11-20T10:11:01.000Z</time>
      </trkpt>
      <trkpt lat="37.07733833" lon="-3.37659333">
        <ele>2811.0</ele>
        <time>2022-11-20T10:11:02.000Z</time>
      </trkpt>
      <trkpt lat="37.07733333" lon="-3.37659">
        <ele>2812.0</ele>
        <time>2022-11-20T10:11:03.000Z</time>
      </trkpt>
      <trkpt lat="37.07732833" lon="-3.37658833">
        <ele>2812.0</ele>
        <time>2022-11-20T10:11:04.000Z</time>
      </trkpt>
      <trkpt lat="37.07732333" lon="-3.376585">
        <ele>2812.0</ele>
        <time>2022-11-20T10:11:05.000Z</time>
      </trkpt>
      <trkpt lat="37.07732" lon="-3.37657667">
        <ele>2812.0</ele>
        <time>2022-11-20T10:11:06.000Z</time>
      </trkpt>
      <trkpt lat="37.07731667" lon="-3.37657">
        <ele>2812.0</ele>
        <time>2022-11-20T10:11:07.000Z</time>
      </trkpt>
      <trkpt lat="37.077315" lon="-3.376565">
        <ele>2813.0</ele>
        <time>2022-11-20T10:11:08.000Z</time>
      </trkpt>
      <trkpt lat="37.07731333" lon="-3.37655833">
        <ele>2813.0</ele>
        <time>2022-11-20T10:11:09.000Z</time>
      </trkpt>
      <trkpt lat="37.07731" lon="-3.37655333">
        <ele>2813.0</ele>
        <time>2022-11-20T10:11:10.000Z</time>
      </trkpt>
      <trkpt lat="37.07730833" lon="-3.37654833">
        <ele>2813.0</ele>
        <time>2022-11-20T10:11:11.000Z</time>
      </trkpt>
      <trkpt lat="37.077305" lon="-3.37654">
        <ele>2813.0</ele>
        <time>2022-11-20T10:11:12.000Z</time>
      </trkpt>
      <trkpt lat="37.07730333" lon="-3.37653333">
        <ele>2813.0</ele>
        <time>2022-11-20T10:11:13.000Z</time>
      </trkpt>
      <trkpt lat="37.07730167" lon="-3.37652667">
        <ele>2813.0</ele>
        <time>2022-11-20T10:11:14.000Z</time>
      </trkpt>
      <trkpt lat="37.07729833" lon="-3.37651833">
        <ele>2813.0</ele>
        <time>2022-11-20T10:11:15.000Z</time>
      </trkpt>
      <trkpt lat="37.077295" lon="-3.37651167">
        <ele>2813.0</ele>
        <time>2022-11-20T10:11:16.000Z</time>
      </trkpt>
      <trkpt lat="37.07729" lon="-3.37650833">
        <ele>2813.0</ele>
        <time>2022-11-20T10:11:17.000Z</time>
      </trkpt>
      <trkpt lat="37.077285" lon="-3.37650333">
        <ele>2813.0</ele>
        <time>2022-11-20T10:11:18.000Z</time>
      </trkpt>
      <trkpt lat="37.07728167" lon="-3.3765">
        <ele>2814.0</ele>
        <time>2022-11-20T10:11:19.000Z</time>
      </trkpt>
      <trkpt lat="37.077275" lon="-3.37649333">
        <ele>2814.0</ele>
        <time>2022-11-20T10:11:20.000Z</time>
      </trkpt>
      <trkpt lat="37.07727167" lon="-3.37648833">
        <ele>2814.0</ele>
        <time>2022-11-20T10:11:21.000Z</time>
      </trkpt>
      <trkpt lat="37.07726833" lon="-3.376485">
        <ele>2814.0</ele>
        <time>2022-11-20T10:11:22.000Z</time>
      </trkpt>
      <trkpt lat="37.07726333" lon="-3.37647833">
        <ele>2814.0</ele>
        <time>2022-11-20T10:11:23.000Z</time>
      </trkpt>
      <trkpt lat="37.07725833" lon="-3.376475">
        <ele>2814.0</ele>
        <time>2022-11-20T10:11:24.000Z</time>
      </trkpt>
      <trkpt lat="37.07725333" lon="-3.37647167">
        <ele>2814.0</ele>
        <time>2022-11-20T10:11:25.000Z</time>
      </trkpt>
      <trkpt lat="37.07725" lon="-3.37646833">
        <ele>2814.0</ele>
        <time>2022-11-20T10:11:26.000Z</time>
      </trkpt>
      <trkpt lat="37.07724667" lon="-3.37646333">
        <ele>2814.0</ele>
        <time>2022-11-20T10:11:27.000Z</time>
      </trkpt>
      <trkpt lat="37.07724167" lon="-3.37645833">
        <ele>2814.0</ele>
        <time>2022-11-20T10:11:28.000Z</time>
      </trkpt>
      <trkpt lat="37.07723833" lon="-3.37645333">
        <ele>2814.0</ele>
        <time>2022-11-20T10:11:29.000Z</time>
      </trkpt>
      <trkpt lat="37.077235" lon="-3.37644667">
        <ele>2814.0</ele>
        <time>2022-11-20T10:11:30.000Z</time>
      </trkpt>
      <trkpt lat="37.07723333" lon="-3.37643833">
        <ele>2815.0</ele>
        <time>2022-11-20T10:11:31.000Z</time>
      </trkpt>
      <trkpt lat="37.07723167" lon="-3.37643333">
        <ele>2815.0</ele>
        <time>2022-11-20T10:11:32.000Z</time>
      </trkpt>
      <trkpt lat="37.07722667" lon="-3.37642667">
        <ele>2815.0</ele>
        <time>2022-11-20T10:11:33.000Z</time>
      </trkpt>
      <trkpt lat="37.077225" lon="-3.37642333">
        <ele>2815.0</ele>
        <time>2022-11-20T10:11:34.000Z</time>
      </trkpt>
      <trkpt lat="37.07722" lon="-3.37641667">
        <ele>2815.0</ele>
        <time>2022-11-20T10:11:35.000Z</time>
      </trkpt>
      <trkpt lat="37.077215" lon="-3.37641">
        <ele>2815.0</ele>
        <time>2022-11-20T10:11:36.000Z</time>
      </trkpt>
      <trkpt lat="37.07721167" lon="-3.37640333">
        <ele>2816.0</ele>
        <time>2022-11-20T10:11:37.000Z</time>
      </trkpt>
      <trkpt lat="37.07720833" lon="-3.37639833">
        <ele>2816.0</ele>
        <time>2022-11-20T10:11:38.000Z</time>
      </trkpt>
      <trkpt lat="37.07720833" lon="-3.37639833">
        <ele>2816.0</ele>
        <time>2022-11-20T10:11:39.000Z</time>
      </trkpt>
      <trkpt lat="37.07720833" lon="-3.37639833">
        <ele>2816.0</ele>
        <time>2022-11-20T10:11:40.000Z</time>
      </trkpt>
      <trkpt lat="37.07721" lon="-3.37639833">
        <ele>2816.0</ele>
        <time>2022-11-20T10:11:41.000Z</time>
      </trkpt>
      <trkpt lat="37.07720667" lon="-3.37639667">
        <ele>2816.0</ele>
        <time>2022-11-20T10:11:42.000Z</time>
      </trkpt>
      <trkpt lat="37.077205" lon="-3.37639167">
        <ele>2816.0</ele>
        <time>2022-11-20T10:11:43.000Z</time>
      </trkpt>
      <trkpt lat="37.0772" lon="-3.37638667">
        <ele>2816.0</ele>
        <time>2022-11-20T10:11:44.000Z</time>
      </trkpt>
      <trkpt lat="37.07719667" lon="-3.37638333">
        <ele>2816.0</ele>
        <time>2022-11-20T10:11:45.000Z</time>
      </trkpt>
      <trkpt lat="37.077195" lon="-3.37638">
        <ele>2816.0</ele>
        <time>2022-11-20T10:11:46.000Z</time>
      </trkpt>
      <trkpt lat="37.07719" lon="-3.37637167">
        <ele>2816.0</ele>
        <time>2022-11-20T10:11:47.000Z</time>
      </trkpt>
      <trkpt lat="37.077185" lon="-3.37636667">
        <ele>2816.0</ele>
        <time>2022-11-20T10:11:48.000Z</time>
      </trkpt>
      <trkpt lat="37.07718167" lon="-3.37636167">
        <ele>2817.0</ele>
        <time>2022-11-20T10:11:49.000Z</time>
      </trkpt>
      <trkpt lat="37.07718" lon="-3.37635667">
        <ele>2817.0</ele>
        <time>2022-11-20T10:11:50.000Z</time>
      </trkpt>
      <trkpt lat="37.07717667" lon="-3.37635">
        <ele>2817.0</ele>
        <time>2022-11-20T10:11:51.000Z</time>
      </trkpt>
      <trkpt lat="37.07717333" lon="-3.376345">
        <ele>2817.0</ele>
        <time>2022-11-20T10:11:52.000Z</time>
      </trkpt>
      <trkpt lat="37.07717" lon="-3.37634">
        <ele>2817.0</ele>
        <time>2022-11-20T10:11:53.000Z</time>
      </trkpt>
      <trkpt lat="37.07716667" lon="-3.37633667">
        <ele>2818.0</ele>
        <time>2022-11-20T10:11:54.000Z</time>
      </trkpt>
      <trkpt lat="37.077165" lon="-3.37633167">
        <ele>2818.0</ele>
        <time>2022-11-20T10:11:55.000Z</time>
      </trkpt>
      <trkpt lat="37.07716167" lon="-3.37632667">
        <ele>2818.0</ele>
        <time>2022-11-20T10:11:56.000Z</time>
      </trkpt>
      <trkpt lat="37.07715667" lon="-3.37632167">
        <ele>2818.0</ele>
        <time>2022-11-20T10:11:57.000Z</time>
      </trkpt>
      <trkpt lat="37.077155" lon="-3.37631667">
        <ele>2818.0</ele>
        <time>2022-11-20T10:11:58.000Z</time>
      </trkpt>
      <trkpt lat="37.07715167" lon="-3.37631167">
        <ele>2819.0</ele>
        <time>2022-11-20T10:11:59.000Z</time>
      </trkpt>
      <trkpt lat="37.07715" lon="-3.37630667">
        <ele>2819.0</ele>
        <time>2022-11-20T10:12:00.000Z</time>
      </trkpt>
      <trkpt lat="37.07714667" lon="-3.37630167">
        <ele>2819.0</ele>
        <time>2022-11-20T10:12:01.000Z</time>
      </trkpt>
      <trkpt lat="37.07714333" lon="-3.37629833">
        <ele>2819.0</ele>
        <time>2022-11-20T10:12:02.000Z</time>
      </trkpt>
      <trkpt lat="37.07713833" lon="-3.37629833">
        <ele>2819.0</ele>
        <time>2022-11-20T10:12:03.000Z</time>
      </trkpt>
      <trkpt lat="37.07713333" lon="-3.37629667">
        <ele>2819.0</ele>
        <time>2022-11-20T10:12:04.000Z</time>
      </trkpt>
      <trkpt lat="37.07712833" lon="-3.37629667">
        <ele>2819.0</ele>
        <time>2022-11-20T10:12:05.000Z</time>
      </trkpt>
      <trkpt lat="37.07712667" lon="-3.37629667">
        <ele>2820.0</ele>
        <time>2022-11-20T10:12:06.000Z</time>
      </trkpt>
      <trkpt lat="37.07712167" lon="-3.37629833">
        <ele>2820.0</ele>
        <time>2022-11-20T10:12:07.000Z</time>
      </trkpt>
      <trkpt lat="37.07711667" lon="-3.3763">
        <ele>2820.0</ele>
        <time>2022-11-20T10:12:08.000Z</time>
      </trkpt>
      <trkpt lat="37.07711333" lon="-3.37630333">
        <ele>2820.0</ele>
        <time>2022-11-20T10:12:09.000Z</time>
      </trkpt>
      <trkpt lat="37.07711" lon="-3.376305">
        <ele>2820.0</ele>
        <time>2022-11-20T10:12:10.000Z</time>
      </trkpt>
      <trkpt lat="37.077105" lon="-3.376305">
        <ele>2820.0</ele>
        <time>2022-11-20T10:12:11.000Z</time>
      </trkpt>
      <trkpt lat="37.0771" lon="-3.37630667">
        <ele>2821.0</ele>
        <time>2022-11-20T10:12:12.000Z</time>
      </trkpt>
      <trkpt lat="37.077095" lon="-3.37630667">
        <ele>2821.0</ele>
        <time>2022-11-20T10:12:13.000Z</time>
      </trkpt>
      <trkpt lat="37.07709" lon="-3.37631">
        <ele>2821.0</ele>
        <time>2022-11-20T10:12:14.000Z</time>
      </trkpt>
      <trkpt lat="37.07708667" lon="-3.37631333">
        <ele>2821.0</ele>
        <time>2022-11-20T10:12:15.000Z</time>
      </trkpt>
      <trkpt lat="37.07708167" lon="-3.37631667">
        <ele>2821.0</ele>
        <time>2022-11-20T10:12:16.000Z</time>
      </trkpt>
      <trkpt lat="37.07707667" lon="-3.37631667">
        <ele>2822.0</ele>
        <time>2022-11-20T10:12:17.000Z</time>
      </trkpt>
      <trkpt lat="37.07707167" lon="-3.37631667">
        <ele>2822.0</ele>
        <time>2022-11-20T10:12:18.000Z</time>
      </trkpt>
      <trkpt lat="37.07706833" lon="-3.37631833">
        <ele>2822.0</ele>
        <time>2022-11-20T10:12:19.000Z</time>
      </trkpt>
      <trkpt lat="37.07706333" lon="-3.37631833">
        <ele>2822.0</ele>
        <time>2022-11-20T10:12:20.000Z</time>
      </trkpt>
      <trkpt lat="37.07705833" lon="-3.37631833">
        <ele>2822.0</ele>
        <time>2022-11-20T10:12:21.000Z</time>
      </trkpt>
      <trkpt lat="37.07705333" lon="-3.37632">
        <ele>2823.0</ele>
        <time>2022-11-20T10:12:22.000Z</time>
      </trkpt>
      <trkpt lat="37.07704833" lon="-3.37632167">
        <ele>2823.0</ele>
        <time>2022-11-20T10:12:23.000Z</time>
      </trkpt>
      <trkpt lat="37.077045" lon="-3.37632167">
        <ele>2823.0</ele>
        <time>2022-11-20T10:12:24.000Z</time>
      </trkpt>
      <trkpt lat="37.07704" lon="-3.37632333">
        <ele>2823.0</ele>
        <time>2022-11-20T10:12:25.000Z</time>
      </trkpt>
      <trkpt lat="37.077035" lon="-3.376325">
        <ele>2823.0</ele>
        <time>2022-11-20T10:12:26.000Z</time>
      </trkpt>
      <trkpt lat="37.07703" lon="-3.376325">
        <ele>2824.0</ele>
        <time>2022-11-20T10:12:27.000Z</time>
      </trkpt>
      <trkpt lat="37.077025" lon="-3.376325">
        <ele>2824.0</ele>
        <time>2022-11-20T10:12:28.000Z</time>
      </trkpt>
      <trkpt lat="37.07702" lon="-3.376325">
        <ele>2824.0</ele>
        <time>2022-11-20T10:12:29.000Z</time>
      </trkpt>
      <trkpt lat="37.077015" lon="-3.37632667">
        <ele>2824.0</ele>
        <time>2022-11-20T10:12:30.000Z</time>
      </trkpt>
      <trkpt lat="37.07701" lon="-3.376325">
        <ele>2824.0</ele>
        <time>2022-11-20T10:12:31.000Z</time>
      </trkpt>
      <trkpt lat="37.07700333" lon="-3.37632333">
        <ele>2824.0</ele>
        <time>2022-11-20T10:12:32.000Z</time>
      </trkpt>
      <trkpt lat="37.077" lon="-3.37632333">
        <ele>2825.0</ele>
        <time>2022-11-20T10:12:33.000Z</time>
      </trkpt>
      <trkpt lat="37.076995" lon="-3.37632333">
        <ele>2825.0</ele>
        <time>2022-11-20T10:12:34.000Z</time>
      </trkpt>
      <trkpt lat="37.07699" lon="-3.37632167">
        <ele>2825.0</ele>
        <time>2022-11-20T10:12:35.000Z</time>
      </trkpt>
      <trkpt lat="37.076985" lon="-3.37632167">
        <ele>2825.0</ele>
        <time>2022-11-20T10:12:36.000Z</time>
      </trkpt>
      <trkpt lat="37.07698" lon="-3.37632167">
        <ele>2825.0</ele>
        <time>2022-11-20T10:12:37.000Z</time>
      </trkpt>
      <trkpt lat="37.076975" lon="-3.37632167">
        <ele>2825.0</ele>
        <time>2022-11-20T10:12:38.000Z</time>
      </trkpt>
      <trkpt lat="37.07697" lon="-3.37632167">
        <ele>2826.0</ele>
        <time>2022-11-20T10:12:39.000Z</time>
      </trkpt>
      <trkpt lat="37.07696667" lon="-3.37632">
        <ele>2826.0</ele>
        <time>2022-11-20T10:12:40.000Z</time>
      </trkpt>
      <trkpt lat="37.07696" lon="-3.37632">
        <ele>2826.0</ele>
        <time>2022-11-20T10:12:41.000Z</time>
      </trkpt>
      <trkpt lat="37.07695667" lon="-3.37632167">
        <ele>2826.0</ele>
        <time>2022-11-20T10:12:42.000Z</time>
      </trkpt>
      <trkpt lat="37.07695167" lon="-3.37632167">
        <ele>2826.0</ele>
        <time>2022-11-20T10:12:43.000Z</time>
      </trkpt>
      <trkpt lat="37.076945" lon="-3.37632333">
        <ele>2826.0</ele>
        <time>2022-11-20T10:12:44.000Z</time>
      </trkpt>
      <trkpt lat="37.07693833" lon="-3.37632167">
        <ele>2826.0</ele>
        <time>2022-11-20T10:12:45.000Z</time>
      </trkpt>
      <trkpt lat="37.076935" lon="-3.37632333">
        <ele>2827.0</ele>
        <time>2022-11-20T10:12:46.000Z</time>
      </trkpt>
      <trkpt lat="37.07692833" lon="-3.37632333">
        <ele>2827.0</ele>
        <time>2022-11-20T10:12:47.000Z</time>
      </trkpt>
      <trkpt lat="37.07692333" lon="-3.37632333">
        <ele>2827.0</ele>
        <time>2022-11-20T10:12:48.000Z</time>
      </trkpt>
      <trkpt lat="37.07691833" lon="-3.376325">
        <ele>2827.0</ele>
        <time>2022-11-20T10:12:49.000Z</time>
      </trkpt>
      <trkpt lat="37.07691167" lon="-3.37632667">
        <ele>2827.0</ele>
        <time>2022-11-20T10:12:50.000Z</time>
      </trkpt>
      <trkpt lat="37.07690833" lon="-3.37632833">
        <ele>2827.0</ele>
        <time>2022-11-20T10:12:51.000Z</time>
      </trkpt>
      <trkpt lat="37.07689833" lon="-3.37633167">
        <ele>2827.0</ele>
        <time>2022-11-20T10:12:52.000Z</time>
      </trkpt>
      <trkpt lat="37.07689167" lon="-3.37633167">
        <ele>2828.0</ele>
        <time>2022-11-20T10:12:53.000Z</time>
      </trkpt>
      <trkpt lat="37.07688667" lon="-3.37633167">
        <ele>2828.0</ele>
        <time>2022-11-20T10:12:54.000Z</time>
      </trkpt>
      <trkpt lat="37.07687833" lon="-3.37633">
        <ele>2828.0</ele>
        <time>2022-11-20T10:12:55.000Z</time>
      </trkpt>
      <trkpt lat="37.07687167" lon="-3.37632833">
        <ele>2828.0</ele>
        <time>2022-11-20T10:12:56.000Z</time>
      </trkpt>
      <trkpt lat="37.07686833" lon="-3.37632833">
        <ele>2828.0</ele>
        <time>2022-11-20T10:12:57.000Z</time>
      </trkpt>
      <trkpt lat="37.07686" lon="-3.37633">
        <ele>2828.0</ele>
        <time>2022-11-20T10:12:58.000Z</time>
      </trkpt>
      <trkpt lat="37.07685333" lon="-3.37633333">
        <ele>2829.0</ele>
        <time>2022-11-20T10:12:59.000Z</time>
      </trkpt>
      <trkpt lat="37.07684667" lon="-3.37633667">
        <ele>2829.0</ele>
        <time>2022-11-20T10:13:00.000Z</time>
      </trkpt>
      <trkpt lat="37.07684" lon="-3.37634167">
        <ele>2829.0</ele>
        <time>2022-11-20T10:13:01.000Z</time>
      </trkpt>
      <trkpt lat="37.07683333" lon="-3.376345">
        <ele>2829.0</ele>
        <time>2022-11-20T10:13:02.000Z</time>
      </trkpt>
      <trkpt lat="37.076825" lon="-3.37634667">
        <ele>2829.0</ele>
        <time>2022-11-20T10:13:03.000Z</time>
      </trkpt>
      <trkpt lat="37.07681833" lon="-3.37634667">
        <ele>2829.0</ele>
        <time>2022-11-20T10:13:04.000Z</time>
      </trkpt>
      <trkpt lat="37.07681333" lon="-3.37634833">
        <ele>2830.0</ele>
        <time>2022-11-20T10:13:05.000Z</time>
      </trkpt>
      <trkpt lat="37.07680667" lon="-3.37634667">
        <ele>2830.0</ele>
        <time>2022-11-20T10:13:06.000Z</time>
      </trkpt>
      <trkpt lat="37.0768" lon="-3.37634667">
        <ele>2830.0</ele>
        <time>2022-11-20T10:13:07.000Z</time>
      </trkpt>
      <trkpt lat="37.07679333" lon="-3.376345">
        <ele>2830.0</ele>
        <time>2022-11-20T10:13:08.000Z</time>
      </trkpt>
      <trkpt lat="37.07678667" lon="-3.37634333">
        <ele>2830.0</ele>
        <time>2022-11-20T10:13:09.000Z</time>
      </trkpt>
      <trkpt lat="37.07678167" lon="-3.37634167">
        <ele>2830.0</ele>
        <time>2022-11-20T10:13:10.000Z</time>
      </trkpt>
      <trkpt lat="37.076775" lon="-3.37634167">
        <ele>2830.0</ele>
        <time>2022-11-20T10:13:11.000Z</time>
      </trkpt>
      <trkpt lat="37.07677" lon="-3.37634167">
        <ele>2831.0</ele>
        <time>2022-11-20T10:13:12.000Z</time>
      </trkpt>
      <trkpt lat="37.07676333" lon="-3.37634167">
        <ele>2831.0</ele>
        <time>2022-11-20T10:13:13.000Z</time>
      </trkpt>
      <trkpt lat="37.076755" lon="-3.37634333">
        <ele>2831.0</ele>
        <time>2022-11-20T10:13:14.000Z</time>
      </trkpt>
      <trkpt lat="37.07675" lon="-3.37634333">
        <ele>2831.0</ele>
        <time>2022-11-20T10:13:15.000Z</time>
      </trkpt>
      <trkpt lat="37.07674333" lon="-3.376345">
        <ele>2831.0</ele>
        <time>2022-11-20T10:13:16.000Z</time>
      </trkpt>
      <trkpt lat="37.07673833" lon="-3.376345">
        <ele>2831.0</ele>
        <time>2022-11-20T10:13:17.000Z</time>
      </trkpt>
      <trkpt lat="37.07673167" lon="-3.376345">
        <ele>2832.0</ele>
        <time>2022-11-20T10:13:18.000Z</time>
      </trkpt>
      <trkpt lat="37.076725" lon="-3.37634667">
        <ele>2832.0</ele>
        <time>2022-11-20T10:13:19.000Z</time>
      </trkpt>
      <trkpt lat="37.07672" lon="-3.37634667">
        <ele>2832.0</ele>
        <time>2022-11-20T10:13:20.000Z</time>
      </trkpt>
      <trkpt lat="37.07671333" lon="-3.37635167">
        <ele>2832.0</ele>
        <time>2022-11-20T10:13:21.000Z</time>
      </trkpt>
      <trkpt lat="37.07670833" lon="-3.37635333">
        <ele>2832.0</ele>
        <time>2022-11-20T10:13:22.000Z</time>
      </trkpt>
      <trkpt lat="37.07670167" lon="-3.37635667">
        <ele>2832.0</ele>
        <time>2022-11-20T10:13:23.000Z</time>
      </trkpt>
      <trkpt lat="37.07669667" lon="-3.37636">
        <ele>2832.0</ele>
        <time>2022-11-20T10:13:24.000Z</time>
      </trkpt>
      <trkpt lat="37.07669167" lon="-3.37636167">
        <ele>2833.0</ele>
        <time>2022-11-20T10:13:25.000Z</time>
      </trkpt>
      <trkpt lat="37.076685" lon="-3.37636167">
        <ele>2833.0</ele>
        <time>2022-11-20T10:13:26.000Z</time>
      </trkpt>
      <trkpt lat="37.07668" lon="-3.37636333">
        <ele>2833.0</ele>
        <time>2022-11-20T10:13:27.000Z</time>
      </trkpt>
      <trkpt lat="37.07667333" lon="-3.376365">
        <ele>2833.0</ele>
        <time>2022-11-20T10:13:28.000Z</time>
      </trkpt>
      <trkpt lat="37.07666667" lon="-3.37636667">
        <ele>2833.0</ele>
        <time>2022-11-20T10:13:29.000Z</time>
      </trkpt>
      <trkpt lat="37.07666" lon="-3.37636833">
        <ele>2833.0</ele>
        <time>2022-11-20T10:13:30.000Z</time>
      </trkpt>
      <trkpt lat="37.07665333" lon="-3.37637">
        <ele>2833.0</ele>
        <time>2022-11-20T10:13:31.000Z</time>
      </trkpt>
      <trkpt lat="37.07664833" lon="-3.37637">
        <ele>2833.0</ele>
        <time>2022-11-20T10:13:32.000Z</time>
      </trkpt>
      <trkpt lat="37.07664167" lon="-3.37637">
        <ele>2834.0</ele>
        <time>2022-11-20T10:13:33.000Z</time>
      </trkpt>
      <trkpt lat="37.076635" lon="-3.37637">
        <ele>2834.0</ele>
        <time>2022-11-20T10:13:34.000Z</time>
      </trkpt>
      <trkpt lat="37.07662833" lon="-3.37637167">
        <ele>2834.0</ele>
        <time>2022-11-20T10:13:35.000Z</time>
      </trkpt>
      <trkpt lat="37.07662" lon="-3.37637333">
        <ele>2834.0</ele>
        <time>2022-11-20T10:13:36.000Z</time>
      </trkpt>
      <trkpt lat="37.07661333" lon="-3.376375">
        <ele>2834.0</ele>
        <time>2022-11-20T10:13:37.000Z</time>
      </trkpt>
      <trkpt lat="37.07660833" lon="-3.376375">
        <ele>2834.0</ele>
        <time>2022-11-20T10:13:38.000Z</time>
      </trkpt>
      <trkpt lat="37.0766" lon="-3.37637333">
        <ele>2834.0</ele>
        <time>2022-11-20T10:13:39.000Z</time>
      </trkpt>
      <trkpt lat="37.07659333" lon="-3.37637167">
        <ele>2834.0</ele>
        <time>2022-11-20T10:13:40.000Z</time>
      </trkpt>
      <trkpt lat="37.07658667" lon="-3.37637">
        <ele>2835.0</ele>
        <time>2022-11-20T10:13:41.000Z</time>
      </trkpt>
      <trkpt lat="37.07658167" lon="-3.37636833">
        <ele>2835.0</ele>
        <time>2022-11-20T10:13:42.000Z</time>
      </trkpt>
      <trkpt lat="37.07657667" lon="-3.37636333">
        <ele>2835.0</ele>
        <time>2022-11-20T10:13:43.000Z</time>
      </trkpt>
      <trkpt lat="37.07657167" lon="-3.37635833">
        <ele>2835.0</ele>
        <time>2022-11-20T10:13:44.000Z</time>
      </trkpt>
      <trkpt lat="37.07656667" lon="-3.37635333">
        <ele>2835.0</ele>
        <time>2022-11-20T10:13:45.000Z</time>
      </trkpt>
      <trkpt lat="37.07656167" lon="-3.37634833">
        <ele>2836.0</ele>
        <time>2022-11-20T10:13:46.000Z</time>
      </trkpt>
      <trkpt lat="37.07655833" lon="-3.37634333">
        <ele>2836.0</ele>
        <time>2022-11-20T10:13:47.000Z</time>
      </trkpt>
      <trkpt lat="37.07655333" lon="-3.37633833">
        <ele>2836.0</ele>
        <time>2022-11-20T10:13:48.000Z</time>
      </trkpt>
      <trkpt lat="37.07655" lon="-3.37633">
        <ele>2836.0</ele>
        <time>2022-11-20T10:13:49.000Z</time>
      </trkpt>
      <trkpt lat="37.07654667" lon="-3.376325">
        <ele>2836.0</ele>
        <time>2022-11-20T10:13:50.000Z</time>
      </trkpt>
      <trkpt lat="37.076545" lon="-3.37631833">
        <ele>2836.0</ele>
        <time>2022-11-20T10:13:51.000Z</time>
      </trkpt>
      <trkpt lat="37.07654" lon="-3.37631167">
        <ele>2836.0</ele>
        <time>2022-11-20T10:13:52.000Z</time>
      </trkpt>
      <trkpt lat="37.07654" lon="-3.376305">
        <ele>2836.0</ele>
        <time>2022-11-20T10:13:53.000Z</time>
      </trkpt>
      <trkpt lat="37.07653667" lon="-3.3763">
        <ele>2836.0</ele>
        <time>2022-11-20T10:13:54.000Z</time>
      </trkpt>
      <trkpt lat="37.076535" lon="-3.376295">
        <ele>2837.0</ele>
        <time>2022-11-20T10:13:55.000Z</time>
      </trkpt>
      <trkpt lat="37.07653333" lon="-3.37629333">
        <ele>2837.0</ele>
        <time>2022-11-20T10:13:56.000Z</time>
      </trkpt>
      <trkpt lat="37.07652833" lon="-3.37629">
        <ele>2837.0</ele>
        <time>2022-11-20T10:13:57.000Z</time>
      </trkpt>
      <trkpt lat="37.07652167" lon="-3.37629">
        <ele>2837.0</ele>
        <time>2022-11-20T10:13:58.000Z</time>
      </trkpt>
      <trkpt lat="37.07651667" lon="-3.376285">
        <ele>2837.0</ele>
        <time>2022-11-20T10:13:59.000Z</time>
      </trkpt>
      <trkpt lat="37.07651" lon="-3.37628167">
        <ele>2837.0</ele>
        <time>2022-11-20T10:14:00.000Z</time>
      </trkpt>
      <trkpt lat="37.076505" lon="-3.37628">
        <ele>2837.0</ele>
        <time>2022-11-20T10:14:01.000Z</time>
      </trkpt>
      <trkpt lat="37.07649833" lon="-3.37627833">
        <ele>2838.0</ele>
        <time>2022-11-20T10:14:02.000Z</time>
      </trkpt>
      <trkpt lat="37.076495" lon="-3.37627833">
        <ele>2838.0</ele>
        <time>2022-11-20T10:14:03.000Z</time>
      </trkpt>
      <trkpt lat="37.07648667" lon="-3.37627667">
        <ele>2838.0</ele>
        <time>2022-11-20T10:14:04.000Z</time>
      </trkpt>
      <trkpt lat="37.07648" lon="-3.376275">
        <ele>2838.0</ele>
        <time>2022-11-20T10:14:05.000Z</time>
      </trkpt>
      <trkpt lat="37.07647667" lon="-3.37627667">
        <ele>2838.0</ele>
        <time>2022-11-20T10:14:06.000Z</time>
      </trkpt>
      <trkpt lat="37.07646833" lon="-3.37627833">
        <ele>2838.0</ele>
        <time>2022-11-20T10:14:07.000Z</time>
      </trkpt>
      <trkpt lat="37.07646333" lon="-3.37628167">
        <ele>2838.0</ele>
        <time>2022-11-20T10:14:08.000Z</time>
      </trkpt>
      <trkpt lat="37.07645833" lon="-3.376285">
        <ele>2838.0</ele>
        <time>2022-11-20T10:14:09.000Z</time>
      </trkpt>
      <trkpt lat="37.07645" lon="-3.37628833">
        <ele>2838.0</ele>
        <time>2022-11-20T10:14:10.000Z</time>
      </trkpt>
      <trkpt lat="37.07644333" lon="-3.37629">
        <ele>2838.0</ele>
        <time>2022-11-20T10:14:11.000Z</time>
      </trkpt>
      <trkpt lat="37.07643833" lon="-3.37629">
        <ele>2839.0</ele>
        <time>2022-11-20T10:14:12.000Z</time>
      </trkpt>
      <trkpt lat="37.07643167" lon="-3.37629167">
        <ele>2839.0</ele>
        <time>2022-11-20T10:14:13.000Z</time>
      </trkpt>
      <trkpt lat="37.076425" lon="-3.37629">
        <ele>2839.0</ele>
        <time>2022-11-20T10:14:14.000Z</time>
      </trkpt>
      <trkpt lat="37.07642167" lon="-3.37629">
        <ele>2839.0</ele>
        <time>2022-11-20T10:14:15.000Z</time>
      </trkpt>
      <trkpt lat="37.076415" lon="-3.37628667">
        <ele>2839.0</ele>
        <time>2022-11-20T10:14:16.000Z</time>
      </trkpt>
      <trkpt lat="37.07640833" lon="-3.376285">
        <ele>2839.0</ele>
        <time>2022-11-20T10:14:17.000Z</time>
      </trkpt>
      <trkpt lat="37.07640333" lon="-3.37628333">
        <ele>2839.0</ele>
        <time>2022-11-20T10:14:18.000Z</time>
      </trkpt>
      <trkpt lat="37.07639667" lon="-3.37628333">
        <ele>2839.0</ele>
        <time>2022-11-20T10:14:19.000Z</time>
      </trkpt>
      <trkpt lat="37.07639167" lon="-3.37628167">
        <ele>2840.0</ele>
        <time>2022-11-20T10:14:20.000Z</time>
      </trkpt>
      <trkpt lat="37.076385" lon="-3.37628167">
        <ele>2840.0</ele>
        <time>2022-11-20T10:14:21.000Z</time>
      </trkpt>
      <trkpt lat="37.07637833" lon="-3.37628">
        <ele>2840.0</ele>
        <time>2022-11-20T10:14:22.000Z</time>
      </trkpt>
      <trkpt lat="37.07637" lon="-3.37628">
        <ele>2840.0</ele>
        <time>2022-11-20T10:14:23.000Z</time>
      </trkpt>
      <trkpt lat="37.076365" lon="-3.37627833">
        <ele>2840.0</ele>
        <time>2022-11-20T10:14:24.000Z</time>
      </trkpt>
      <trkpt lat="37.07635833" lon="-3.37627667">
        <ele>2840.0</ele>
        <time>2022-11-20T10:14:25.000Z</time>
      </trkpt>
      <trkpt lat="37.07635333" lon="-3.37627833">
        <ele>2840.0</ele>
        <time>2022-11-20T10:14:26.000Z</time>
      </trkpt>
      <trkpt lat="37.076345" lon="-3.37627667">
        <ele>2841.0</ele>
        <time>2022-11-20T10:14:27.000Z</time>
      </trkpt>
      <trkpt lat="37.07634" lon="-3.37627667">
        <ele>2841.0</ele>
        <time>2022-11-20T10:14:28.000Z</time>
      </trkpt>
      <trkpt lat="37.076335" lon="-3.37627667">
        <ele>2841.0</ele>
        <time>2022-11-20T10:14:29.000Z</time>
      </trkpt>
      <trkpt lat="37.07633" lon="-3.376275">
        <ele>2841.0</ele>
        <time>2022-11-20T10:14:30.000Z</time>
      </trkpt>
      <trkpt lat="37.076325" lon="-3.376275">
        <ele>2841.0</ele>
        <time>2022-11-20T10:14:31.000Z</time>
      </trkpt>
      <trkpt lat="37.07631833" lon="-3.37627333">
        <ele>2841.0</ele>
        <time>2022-11-20T10:14:32.000Z</time>
      </trkpt>
      <trkpt lat="37.07631333" lon="-3.37627667">
        <ele>2842.0</ele>
        <time>2022-11-20T10:14:33.000Z</time>
      </trkpt>
      <trkpt lat="37.07630833" lon="-3.37627833">
        <ele>2842.0</ele>
        <time>2022-11-20T10:14:34.000Z</time>
      </trkpt>
      <trkpt lat="37.0763" lon="-3.376275">
        <ele>2842.0</ele>
        <time>2022-11-20T10:14:35.000Z</time>
      </trkpt>
      <trkpt lat="37.076295" lon="-3.37627333">
        <ele>2842.0</ele>
        <time>2022-11-20T10:14:36.000Z</time>
      </trkpt>
      <trkpt lat="37.07629167" lon="-3.37627333">
        <ele>2842.0</ele>
        <time>2022-11-20T10:14:37.000Z</time>
      </trkpt>
      <trkpt lat="37.07628167" lon="-3.37627167">
        <ele>2842.0</ele>
        <time>2022-11-20T10:14:38.000Z</time>
      </trkpt>
      <trkpt lat="37.076275" lon="-3.37627333">
        <ele>2842.0</ele>
        <time>2022-11-20T10:14:39.000Z</time>
      </trkpt>
      <trkpt lat="37.07627167" lon="-3.37627333">
        <ele>2843.0</ele>
        <time>2022-11-20T10:14:40.000Z</time>
      </trkpt>
      <trkpt lat="37.076265" lon="-3.376275">
        <ele>2843.0</ele>
        <time>2022-11-20T10:14:41.000Z</time>
      </trkpt>
      <trkpt lat="37.07625833" lon="-3.37627667">
        <ele>2843.0</ele>
        <time>2022-11-20T10:14:42.000Z</time>
      </trkpt>
      <trkpt lat="37.076255" lon="-3.37627833">
        <ele>2843.0</ele>
        <time>2022-11-20T10:14:43.000Z</time>
      </trkpt>
      <trkpt lat="37.07624833" lon="-3.37627833">
        <ele>2843.0</ele>
        <time>2022-11-20T10:14:44.000Z</time>
      </trkpt>
      <trkpt lat="37.07624167" lon="-3.37627833">
        <ele>2843.0</ele>
        <time>2022-11-20T10:14:45.000Z</time>
      </trkpt>
      <trkpt lat="37.07623667" lon="-3.37627833">
        <ele>2843.0</ele>
        <time>2022-11-20T10:14:46.000Z</time>
      </trkpt>
      <trkpt lat="37.07623" lon="-3.37627833">
        <ele>2844.0</ele>
        <time>2022-11-20T10:14:47.000Z</time>
      </trkpt>
      <trkpt lat="37.076225" lon="-3.37627667">
        <ele>2844.0</ele>
        <time>2022-11-20T10:14:48.000Z</time>
      </trkpt>
      <trkpt lat="37.07622" lon="-3.37627833">
        <ele>2844.0</ele>
        <time>2022-11-20T10:14:49.000Z</time>
      </trkpt>
      <trkpt lat="37.07621333" lon="-3.37627833">
        <ele>2844.0</ele>
        <time>2022-11-20T10:14:50.000Z</time>
      </trkpt>
      <trkpt lat="37.07620833" lon="-3.37627667">
        <ele>2844.0</ele>
        <time>2022-11-20T10:14:51.000Z</time>
      </trkpt>
      <trkpt lat="37.07620333" lon="-3.376275">
        <ele>2844.0</ele>
        <time>2022-11-20T10:14:52.000Z</time>
      </trkpt>
      <trkpt lat="37.07619833" lon="-3.37627833">
        <ele>2844.0</ele>
        <time>2022-11-20T10:14:53.000Z</time>
      </trkpt>
      <trkpt lat="37.07619167" lon="-3.37628">
        <ele>2844.0</ele>
        <time>2022-11-20T10:14:54.000Z</time>
      </trkpt>
      <trkpt lat="37.07618667" lon="-3.37628167">
        <ele>2845.0</ele>
        <time>2022-11-20T10:14:55.000Z</time>
      </trkpt>
      <trkpt lat="37.07618" lon="-3.37628167">
        <ele>2845.0</ele>
        <time>2022-11-20T10:14:56.000Z</time>
      </trkpt>
      <trkpt lat="37.07617333" lon="-3.37628167">
        <ele>2845.0</ele>
        <time>2022-11-20T10:14:57.000Z</time>
      </trkpt>
      <trkpt lat="37.07616833" lon="-3.37627833">
        <ele>2845.0</ele>
        <time>2022-11-20T10:14:58.000Z</time>
      </trkpt>
      <trkpt lat="37.07616333" lon="-3.37627333">
        <ele>2845.0</ele>
        <time>2022-11-20T10:14:59.000Z</time>
      </trkpt>
      <trkpt lat="37.07616" lon="-3.37627">
        <ele>2845.0</ele>
        <time>2022-11-20T10:15:00.000Z</time>
      </trkpt>
      <trkpt lat="37.07615667" lon="-3.37626833">
        <ele>2846.0</ele>
        <time>2022-11-20T10:15:01.000Z</time>
      </trkpt>
      <trkpt lat="37.07615" lon="-3.376265">
        <ele>2846.0</ele>
        <time>2022-11-20T10:15:02.000Z</time>
      </trkpt>
      <trkpt lat="37.076145" lon="-3.37626167">
        <ele>2846.0</ele>
        <time>2022-11-20T10:15:03.000Z</time>
      </trkpt>
      <trkpt lat="37.07614167" lon="-3.37626">
        <ele>2846.0</ele>
        <time>2022-11-20T10:15:04.000Z</time>
      </trkpt>
      <trkpt lat="37.07613667" lon="-3.37625667">
        <ele>2846.0</ele>
        <time>2022-11-20T10:15:05.000Z</time>
      </trkpt>
      <trkpt lat="37.07613167" lon="-3.37625333">
        <ele>2846.0</ele>
        <time>2022-11-20T10:15:06.000Z</time>
      </trkpt>
      <trkpt lat="37.07612833" lon="-3.37625167">
        <ele>2846.0</ele>
        <time>2022-11-20T10:15:07.000Z</time>
      </trkpt>
      <trkpt lat="37.07612167" lon="-3.37624833">
        <ele>2846.0</ele>
        <time>2022-11-20T10:15:08.000Z</time>
      </trkpt>
      <trkpt lat="37.07611667" lon="-3.376245">
        <ele>2846.0</ele>
        <time>2022-11-20T10:15:09.000Z</time>
      </trkpt>
      <trkpt lat="37.07611333" lon="-3.37624167">
        <ele>2847.0</ele>
        <time>2022-11-20T10:15:10.000Z</time>
      </trkpt>
      <trkpt lat="37.07610833" lon="-3.37623833">
        <ele>2847.0</ele>
        <time>2022-11-20T10:15:11.000Z</time>
      </trkpt>
      <trkpt lat="37.07610167" lon="-3.37623667">
        <ele>2847.0</ele>
        <time>2022-11-20T10:15:12.000Z</time>
      </trkpt>
      <trkpt lat="37.07609667" lon="-3.376235">
        <ele>2847.0</ele>
        <time>2022-11-20T10:15:13.000Z</time>
      </trkpt>
      <trkpt lat="37.07609" lon="-3.376235">
        <ele>2847.0</ele>
        <time>2022-11-20T10:15:14.000Z</time>
      </trkpt>
      <trkpt lat="37.076085" lon="-3.37623333">
        <ele>2847.0</ele>
        <time>2022-11-20T10:15:15.000Z</time>
      </trkpt>
      <trkpt lat="37.07608" lon="-3.37622833">
        <ele>2848.0</ele>
        <time>2022-11-20T10:15:16.000Z</time>
      </trkpt>
      <trkpt lat="37.07607667" lon="-3.37622667">
        <ele>2848.0</ele>
        <time>2022-11-20T10:15:17.000Z</time>
      </trkpt>
      <trkpt lat="37.07607333" lon="-3.37622167">
        <ele>2848.0</ele>
        <time>2022-11-20T10:15:18.000Z</time>
      </trkpt>
      <trkpt lat="37.07607" lon="-3.37621833">
        <ele>2848.0</ele>
        <time>2022-11-20T10:15:19.000Z</time>
      </trkpt>
      <trkpt lat="37.076065" lon="-3.376215">
        <ele>2848.0</ele>
        <time>2022-11-20T10:15:20.000Z</time>
      </trkpt>
      <trkpt lat="37.07606167" lon="-3.37621333">
        <ele>2848.0</ele>
        <time>2022-11-20T10:15:21.000Z</time>
      </trkpt>
      <trkpt lat="37.076055" lon="-3.37620833">
        <ele>2848.0</ele>
        <time>2022-11-20T10:15:22.000Z</time>
      </trkpt>
      <trkpt lat="37.07605333" lon="-3.37620667">
        <ele>2849.0</ele>
        <time>2022-11-20T10:15:23.000Z</time>
      </trkpt>
      <trkpt lat="37.07605" lon="-3.376205">
        <ele>2849.0</ele>
        <time>2022-11-20T10:15:24.000Z</time>
      </trkpt>
      <trkpt lat="37.07604667" lon="-3.37620333">
        <ele>2849.0</ele>
        <time>2022-11-20T10:15:25.000Z</time>
      </trkpt>
      <trkpt lat="37.07604167" lon="-3.37620333">
        <ele>2849.0</ele>
        <time>2022-11-20T10:15:26.000Z</time>
      </trkpt>
      <trkpt lat="37.07603833" lon="-3.37620333">
        <ele>2849.0</ele>
        <time>2022-11-20T10:15:27.000Z</time>
      </trkpt>
      <trkpt lat="37.07603333" lon="-3.37620333">
        <ele>2849.0</ele>
        <time>2022-11-20T10:15:28.000Z</time>
      </trkpt>
      <trkpt lat="37.07602833" lon="-3.37620333">
        <ele>2850.0</ele>
        <time>2022-11-20T10:15:29.000Z</time>
      </trkpt>
      <trkpt lat="37.076025" lon="-3.37620333">
        <ele>2850.0</ele>
        <time>2022-11-20T10:15:30.000Z</time>
      </trkpt>
      <trkpt lat="37.07601833" lon="-3.37620167">
        <ele>2850.0</ele>
        <time>2022-11-20T10:15:31.000Z</time>
      </trkpt>
      <trkpt lat="37.076015" lon="-3.37620167">
        <ele>2850.0</ele>
        <time>2022-11-20T10:15:32.000Z</time>
      </trkpt>
      <trkpt lat="37.07601333" lon="-3.37620167">
        <ele>2850.0</ele>
        <time>2022-11-20T10:15:33.000Z</time>
      </trkpt>
      <trkpt lat="37.07600667" lon="-3.37620167">
        <ele>2851.0</ele>
        <time>2022-11-20T10:15:34.000Z</time>
      </trkpt>
      <trkpt lat="37.07600167" lon="-3.3762">
        <ele>2851.0</ele>
        <time>2022-11-20T10:15:35.000Z</time>
      </trkpt>
      <trkpt lat="37.07599667" lon="-3.3762">
        <ele>2851.0</ele>
        <time>2022-11-20T10:15:36.000Z</time>
      </trkpt>
      <trkpt lat="37.07599" lon="-3.3762">
        <ele>2851.0</ele>
        <time>2022-11-20T10:15:37.000Z</time>
      </trkpt>
      <trkpt lat="37.07598333" lon="-3.37619833">
        <ele>2852.0</ele>
        <time>2022-11-20T10:15:38.000Z</time>
      </trkpt>
      <trkpt lat="37.07597833" lon="-3.37619333">
        <ele>2852.0</ele>
        <time>2022-11-20T10:15:39.000Z</time>
      </trkpt>
      <trkpt lat="37.07597333" lon="-3.37619167">
        <ele>2852.0</ele>
        <time>2022-11-20T10:15:40.000Z</time>
      </trkpt>
      <trkpt lat="37.07596833" lon="-3.37619167">
        <ele>2852.0</ele>
        <time>2022-11-20T10:15:41.000Z</time>
      </trkpt>
      <trkpt lat="37.075965" lon="-3.37619333">
        <ele>2852.0</ele>
        <time>2022-11-20T10:15:42.000Z</time>
      </trkpt>
      <trkpt lat="37.07596167" lon="-3.37619667">
        <ele>2852.0</ele>
        <time>2022-11-20T10:15:43.000Z</time>
      </trkpt>
      <trkpt lat="37.075955" lon="-3.3762">
        <ele>2853.0</ele>
        <time>2022-11-20T10:15:44.000Z</time>
      </trkpt>
      <trkpt lat="37.07594667" lon="-3.3762">
        <ele>2853.0</ele>
        <time>2022-11-20T10:15:45.000Z</time>
      </trkpt>
      <trkpt lat="37.07594167" lon="-3.3762">
        <ele>2853.0</ele>
        <time>2022-11-20T10:15:46.000Z</time>
      </trkpt>
      <trkpt lat="37.07593667" lon="-3.37620167">
        <ele>2853.0</ele>
        <time>2022-11-20T10:15:47.000Z</time>
      </trkpt>
      <trkpt lat="37.07593" lon="-3.376205">
        <ele>2853.0</ele>
        <time>2022-11-20T10:15:48.000Z</time>
      </trkpt>
      <trkpt lat="37.07592333" lon="-3.37620833">
        <ele>2854.0</ele>
        <time>2022-11-20T10:15:49.000Z</time>
      </trkpt>
      <trkpt lat="37.07591667" lon="-3.37621">
        <ele>2854.0</ele>
        <time>2022-11-20T10:15:50.000Z</time>
      </trkpt>
      <trkpt lat="37.07590833" lon="-3.37621333">
        <ele>2854.0</ele>
        <time>2022-11-20T10:15:51.000Z</time>
      </trkpt>
      <trkpt lat="37.0759" lon="-3.37621667">
        <ele>2854.0</ele>
        <time>2022-11-20T10:15:52.000Z</time>
      </trkpt>
      <trkpt lat="37.07589167" lon="-3.37622">
        <ele>2854.0</ele>
        <time>2022-11-20T10:15:53.000Z</time>
      </trkpt>
      <trkpt lat="37.075885" lon="-3.37622167">
        <ele>2855.0</ele>
        <time>2022-11-20T10:15:54.000Z</time>
      </trkpt>
      <trkpt lat="37.07587833" lon="-3.37622333">
        <ele>2855.0</ele>
        <time>2022-11-20T10:15:55.000Z</time>
      </trkpt>
      <trkpt lat="37.07587" lon="-3.376225">
        <ele>2855.0</ele>
        <time>2022-11-20T10:15:56.000Z</time>
      </trkpt>
      <trkpt lat="37.075865" lon="-3.37622167">
        <ele>2855.0</ele>
        <time>2022-11-20T10:15:57.000Z</time>
      </trkpt>
      <trkpt lat="37.07586" lon="-3.37621667">
        <ele>2855.0</ele>
        <time>2022-11-20T10:15:58.000Z</time>
      </trkpt>
      <trkpt lat="37.075855" lon="-3.37621167">
        <ele>2856.0</ele>
        <time>2022-11-20T10:15:59.000Z</time>
      </trkpt>
      <trkpt lat="37.07585167" lon="-3.37620667">
        <ele>2856.0</ele>
        <time>2022-11-20T10:16:00.000Z</time>
      </trkpt>
      <trkpt lat="37.07584833" lon="-3.37620167">
        <ele>2856.0</ele>
        <time>2022-11-20T10:16:01.000Z</time>
      </trkpt>
      <trkpt lat="37.075845" lon="-3.37619833">
        <ele>2856.0</ele>
        <time>2022-11-20T10:16:02.000Z</time>
      </trkpt>
      <trkpt lat="37.07584" lon="-3.376195">
        <ele>2856.0</ele>
        <time>2022-11-20T10:16:03.000Z</time>
      </trkpt>
      <trkpt lat="37.07583667" lon="-3.37619667">
        <ele>2856.0</ele>
        <time>2022-11-20T10:16:04.000Z</time>
      </trkpt>
      <trkpt lat="37.07583167" lon="-3.376195">
        <ele>2857.0</ele>
        <time>2022-11-20T10:16:05.000Z</time>
      </trkpt>
      <trkpt lat="37.075825" lon="-3.37619667">
        <ele>2857.0</ele>
        <time>2022-11-20T10:16:06.000Z</time>
      </trkpt>
      <trkpt lat="37.07582" lon="-3.37619833">
        <ele>2857.0</ele>
        <time>2022-11-20T10:16:07.000Z</time>
      </trkpt>
      <trkpt lat="37.075815" lon="-3.3762">
        <ele>2857.0</ele>
        <time>2022-11-20T10:16:08.000Z</time>
      </trkpt>
      <trkpt lat="37.07580833" lon="-3.3762">
        <ele>2857.0</ele>
        <time>2022-11-20T10:16:09.000Z</time>
      </trkpt>
      <trkpt lat="37.07580167" lon="-3.37620333">
        <ele>2857.0</ele>
        <time>2022-11-20T10:16:10.000Z</time>
      </trkpt>
      <trkpt lat="37.07579667" lon="-3.376205">
        <ele>2858.0</ele>
        <time>2022-11-20T10:16:11.000Z</time>
      </trkpt>
      <trkpt lat="37.07579" lon="-3.37620333">
        <ele>2858.0</ele>
        <time>2022-11-20T10:16:12.000Z</time>
      </trkpt>
      <trkpt lat="37.07578333" lon="-3.37620333">
        <ele>2858.0</ele>
        <time>2022-11-20T10:16:13.000Z</time>
      </trkpt>
      <trkpt lat="37.07577667" lon="-3.37620167">
        <ele>2858.0</ele>
        <time>2022-11-20T10:16:14.000Z</time>
      </trkpt>
      <trkpt lat="37.07577333" lon="-3.3762">
        <ele>2858.0</ele>
        <time>2022-11-20T10:16:15.000Z</time>
      </trkpt>
      <trkpt lat="37.07576667" lon="-3.3762">
        <ele>2859.0</ele>
        <time>2022-11-20T10:16:16.000Z</time>
      </trkpt>
      <trkpt lat="37.07576167" lon="-3.37620167">
        <ele>2859.0</ele>
        <time>2022-11-20T10:16:17.000Z</time>
      </trkpt>
      <trkpt lat="37.075755" lon="-3.37620167">
        <ele>2859.0</ele>
        <time>2022-11-20T10:16:18.000Z</time>
      </trkpt>
      <trkpt lat="37.07574833" lon="-3.3762">
        <ele>2859.0</ele>
        <time>2022-11-20T10:16:19.000Z</time>
      </trkpt>
      <trkpt lat="37.07574333" lon="-3.3762">
        <ele>2859.0</ele>
        <time>2022-11-20T10:16:20.000Z</time>
      </trkpt>
      <trkpt lat="37.07573833" lon="-3.3762">
        <ele>2860.0</ele>
        <time>2022-11-20T10:16:21.000Z</time>
      </trkpt>
      <trkpt lat="37.07573167" lon="-3.3762">
        <ele>2860.0</ele>
        <time>2022-11-20T10:16:22.000Z</time>
      </trkpt>
      <trkpt lat="37.07572667" lon="-3.37620167">
        <ele>2860.0</ele>
        <time>2022-11-20T10:16:23.000Z</time>
      </trkpt>
      <trkpt lat="37.07572167" lon="-3.3762">
        <ele>2860.0</ele>
        <time>2022-11-20T10:16:24.000Z</time>
      </trkpt>
      <trkpt lat="37.075715" lon="-3.3762">
        <ele>2860.0</ele>
        <time>2022-11-20T10:16:25.000Z</time>
      </trkpt>
      <trkpt lat="37.07571" lon="-3.3762">
        <ele>2860.0</ele>
        <time>2022-11-20T10:16:26.000Z</time>
      </trkpt>
      <trkpt lat="37.07570333" lon="-3.37619833">
        <ele>2861.0</ele>
        <time>2022-11-20T10:16:27.000Z</time>
      </trkpt>
      <trkpt lat="37.07569833" lon="-3.3762">
        <ele>2861.0</ele>
        <time>2022-11-20T10:16:28.000Z</time>
      </trkpt>
      <trkpt lat="37.075695" lon="-3.3762">
        <ele>2861.0</ele>
        <time>2022-11-20T10:16:29.000Z</time>
      </trkpt>
      <trkpt lat="37.07569" lon="-3.3762">
        <ele>2861.0</ele>
        <time>2022-11-20T10:16:30.000Z</time>
      </trkpt>
      <trkpt lat="37.075685" lon="-3.37619833">
        <ele>2861.0</ele>
        <time>2022-11-20T10:16:31.000Z</time>
      </trkpt>
      <trkpt lat="37.07567833" lon="-3.37619667">
        <ele>2861.0</ele>
        <time>2022-11-20T10:16:32.000Z</time>
      </trkpt>
      <trkpt lat="37.07567333" lon="-3.37619667">
        <ele>2861.0</ele>
        <time>2022-11-20T10:16:33.000Z</time>
      </trkpt>
      <trkpt lat="37.07566667" lon="-3.376195">
        <ele>2861.0</ele>
        <time>2022-11-20T10:16:34.000Z</time>
      </trkpt>
      <trkpt lat="37.07566" lon="-3.376195">
        <ele>2862.0</ele>
        <time>2022-11-20T10:16:35.000Z</time>
      </trkpt>
      <trkpt lat="37.075655" lon="-3.376195">
        <ele>2862.0</ele>
        <time>2022-11-20T10:16:36.000Z</time>
      </trkpt>
      <trkpt lat="37.07565" lon="-3.37619667">
        <ele>2862.0</ele>
        <time>2022-11-20T10:16:37.000Z</time>
      </trkpt>
      <trkpt lat="37.07564333" lon="-3.37619833">
        <ele>2862.0</ele>
        <time>2022-11-20T10:16:38.000Z</time>
      </trkpt>
      <trkpt lat="37.075635" lon="-3.3762">
        <ele>2862.0</ele>
        <time>2022-11-20T10:16:39.000Z</time>
      </trkpt>
      <trkpt lat="37.07562667" lon="-3.37620167">
        <ele>2862.0</ele>
        <time>2022-11-20T10:16:40.000Z</time>
      </trkpt>
      <trkpt lat="37.07562" lon="-3.37620167">
        <ele>2862.0</ele>
        <time>2022-11-20T10:16:41.000Z</time>
      </trkpt>
      <trkpt lat="37.07561333" lon="-3.3762">
        <ele>2862.0</ele>
        <time>2022-11-20T10:16:42.000Z</time>
      </trkpt>
      <trkpt lat="37.07560667" lon="-3.3762">
        <ele>2862.0</ele>
        <time>2022-11-20T10:16:43.000Z</time>
      </trkpt>
      <trkpt lat="37.0756" lon="-3.37619833">
        <ele>2863.0</ele>
        <time>2022-11-20T10:16:44.000Z</time>
      </trkpt>
      <trkpt lat="37.075595" lon="-3.37619833">
        <ele>2863.0</ele>
        <time>2022-11-20T10:16:45.000Z</time>
      </trkpt>
      <trkpt lat="37.07558833" lon="-3.37619833">
        <ele>2863.0</ele>
        <time>2022-11-20T10:16:46.000Z</time>
      </trkpt>
      <trkpt lat="37.07558333" lon="-3.37619833">
        <ele>2863.0</ele>
        <time>2022-11-20T10:16:47.000Z</time>
      </trkpt>
      <trkpt lat="37.07557833" lon="-3.37619833">
        <ele>2863.0</ele>
        <time>2022-11-20T10:16:48.000Z</time>
      </trkpt>
      <trkpt lat="37.07557167" lon="-3.376195">
        <ele>2864.0</ele>
        <time>2022-11-20T10:16:49.000Z</time>
      </trkpt>
      <trkpt lat="37.07556667" lon="-3.37619333">
        <ele>2864.0</ele>
        <time>2022-11-20T10:16:50.000Z</time>
      </trkpt>
      <trkpt lat="37.07556167" lon="-3.37619167">
        <ele>2864.0</ele>
        <time>2022-11-20T10:16:51.000Z</time>
      </trkpt>
      <trkpt lat="37.07555667" lon="-3.37619167">
        <ele>2864.0</ele>
        <time>2022-11-20T10:16:52.000Z</time>
      </trkpt>
      <trkpt lat="37.07555167" lon="-3.37619333">
        <ele>2864.0</ele>
        <time>2022-11-20T10:16:53.000Z</time>
      </trkpt>
      <trkpt lat="37.07554667" lon="-3.376195">
        <ele>2864.0</ele>
        <time>2022-11-20T10:16:54.000Z</time>
      </trkpt>
      <trkpt lat="37.07554" lon="-3.376195">
        <ele>2864.0</ele>
        <time>2022-11-20T10:16:55.000Z</time>
      </trkpt>
      <trkpt lat="37.07553333" lon="-3.37619333">
        <ele>2865.0</ele>
        <time>2022-11-20T10:16:56.000Z</time>
      </trkpt>
      <trkpt lat="37.07552833" lon="-3.37619167">
        <ele>2865.0</ele>
        <time>2022-11-20T10:16:57.000Z</time>
      </trkpt>
      <trkpt lat="37.07552167" lon="-3.37618833">
        <ele>2865.0</ele>
        <time>2022-11-20T10:16:58.000Z</time>
      </trkpt>
      <trkpt lat="37.075515" lon="-3.37618833">
        <ele>2865.0</ele>
        <time>2022-11-20T10:16:59.000Z</time>
      </trkpt>
      <trkpt lat="37.07551167" lon="-3.37618833">
        <ele>2865.0</ele>
        <time>2022-11-20T10:17:00.000Z</time>
      </trkpt>
      <trkpt lat="37.07550333" lon="-3.37618833">
        <ele>2866.0</ele>
        <time>2022-11-20T10:17:01.000Z</time>
      </trkpt>
      <trkpt lat="37.07549667" lon="-3.37618667">
        <ele>2866.0</ele>
        <time>2022-11-20T10:17:02.000Z</time>
      </trkpt>
      <trkpt lat="37.07549" lon="-3.37618667">
        <ele>2866.0</ele>
        <time>2022-11-20T10:17:03.000Z</time>
      </trkpt>
      <trkpt lat="37.07548333" lon="-3.37618667">
        <ele>2866.0</ele>
        <time>2022-11-20T10:17:04.000Z</time>
      </trkpt>
      <trkpt lat="37.07547667" lon="-3.376185">
        <ele>2866.0</ele>
        <time>2022-11-20T10:17:05.000Z</time>
      </trkpt>
      <trkpt lat="37.07546833" lon="-3.37618333">
        <ele>2866.0</ele>
        <time>2022-11-20T10:17:06.000Z</time>
      </trkpt>
      <trkpt lat="37.07546" lon="-3.37618167">
        <ele>2867.0</ele>
        <time>2022-11-20T10:17:07.000Z</time>
      </trkpt>
      <trkpt lat="37.07545167" lon="-3.37618">
        <ele>2867.0</ele>
        <time>2022-11-20T10:17:08.000Z</time>
      </trkpt>
      <trkpt lat="37.07544333" lon="-3.37617667">
        <ele>2867.0</ele>
        <time>2022-11-20T10:17:09.000Z</time>
      </trkpt>
      <trkpt lat="37.07543667" lon="-3.37617333">
        <ele>2867.0</ele>
        <time>2022-11-20T10:17:10.000Z</time>
      </trkpt>
      <trkpt lat="37.07543167" lon="-3.37617">
        <ele>2867.0</ele>
        <time>2022-11-20T10:17:11.000Z</time>
      </trkpt>
      <trkpt lat="37.075425" lon="-3.37616">
        <ele>2868.0</ele>
        <time>2022-11-20T10:17:12.000Z</time>
      </trkpt>
      <trkpt lat="37.07542" lon="-3.37615">
        <ele>2868.0</ele>
        <time>2022-11-20T10:17:13.000Z</time>
      </trkpt>
      <trkpt lat="37.07541333" lon="-3.37614333">
        <ele>2868.0</ele>
        <time>2022-11-20T10:17:14.000Z</time>
      </trkpt>
      <trkpt lat="37.07540667" lon="-3.37613833">
        <ele>2868.0</ele>
        <time>2022-11-20T10:17:15.000Z</time>
      </trkpt>
      <trkpt lat="37.07540167" lon="-3.376135">
        <ele>2868.0</ele>
        <time>2022-11-20T10:17:16.000Z</time>
      </trkpt>
      <trkpt lat="37.075395" lon="-3.37612833">
        <ele>2869.0</ele>
        <time>2022-11-20T10:17:17.000Z</time>
      </trkpt>
      <trkpt lat="37.07539" lon="-3.37612167">
        <ele>2869.0</ele>
        <time>2022-11-20T10:17:18.000Z</time>
      </trkpt>
      <trkpt lat="37.075385" lon="-3.37611833">
        <ele>2869.0</ele>
        <time>2022-11-20T10:17:19.000Z</time>
      </trkpt>
      <trkpt lat="37.07537833" lon="-3.37611167">
        <ele>2869.0</ele>
        <time>2022-11-20T10:17:20.000Z</time>
      </trkpt>
      <trkpt lat="37.07537333" lon="-3.37610833">
        <ele>2869.0</ele>
        <time>2022-11-20T10:17:21.000Z</time>
      </trkpt>
      <trkpt lat="37.07536667" lon="-3.37610667">
        <ele>2869.0</ele>
        <time>2022-11-20T10:17:22.000Z</time>
      </trkpt>
      <trkpt lat="37.07535667" lon="-3.37610167">
        <ele>2870.0</ele>
        <time>2022-11-20T10:17:23.000Z</time>
      </trkpt>
      <trkpt lat="37.07535" lon="-3.3761">
        <ele>2870.0</ele>
        <time>2022-11-20T10:17:24.000Z</time>
      </trkpt>
      <trkpt lat="37.07534333" lon="-3.3761">
        <ele>2870.0</ele>
        <time>2022-11-20T10:17:25.000Z</time>
      </trkpt>
      <trkpt lat="37.07533833" lon="-3.37610167">
        <ele>2870.0</ele>
        <time>2022-11-20T10:17:26.000Z</time>
      </trkpt>
      <trkpt lat="37.07533333" lon="-3.37610167">
        <ele>2870.0</ele>
        <time>2022-11-20T10:17:27.000Z</time>
      </trkpt>
      <trkpt lat="37.07532667" lon="-3.37610333">
        <ele>2870.0</ele>
        <time>2022-11-20T10:17:28.000Z</time>
      </trkpt>
      <trkpt lat="37.07532167" lon="-3.37610667">
        <ele>2870.0</ele>
        <time>2022-11-20T10:17:29.000Z</time>
      </trkpt>
      <trkpt lat="37.07531667" lon="-3.37611">
        <ele>2870.0</ele>
        <time>2022-11-20T10:17:30.000Z</time>
      </trkpt>
      <trkpt lat="37.07531" lon="-3.37611333">
        <ele>2871.0</ele>
        <time>2022-11-20T10:17:31.000Z</time>
      </trkpt>
      <trkpt lat="37.07530333" lon="-3.376115">
        <ele>2871.0</ele>
        <time>2022-11-20T10:17:32.000Z</time>
      </trkpt>
      <trkpt lat="37.07529833" lon="-3.37611833">
        <ele>2871.0</ele>
        <time>2022-11-20T10:17:33.000Z</time>
      </trkpt>
      <trkpt lat="37.07529167" lon="-3.37612167">
        <ele>2871.0</ele>
        <time>2022-11-20T10:17:34.000Z</time>
      </trkpt>
      <trkpt lat="37.07528667" lon="-3.37612333">
        <ele>2871.0</ele>
        <time>2022-11-20T10:17:35.000Z</time>
      </trkpt>
      <trkpt lat="37.07527833" lon="-3.37612667">
        <ele>2872.0</ele>
        <time>2022-11-20T10:17:36.000Z</time>
      </trkpt>
      <trkpt lat="37.07527167" lon="-3.37613">
        <ele>2872.0</ele>
        <time>2022-11-20T10:17:37.000Z</time>
      </trkpt>
      <trkpt lat="37.07526667" lon="-3.376135">
        <ele>2872.0</ele>
        <time>2022-11-20T10:17:38.000Z</time>
      </trkpt>
      <trkpt lat="37.07525833" lon="-3.37613833">
        <ele>2872.0</ele>
        <time>2022-11-20T10:17:39.000Z</time>
      </trkpt>
      <trkpt lat="37.07525167" lon="-3.37614">
        <ele>2872.0</ele>
        <time>2022-11-20T10:17:40.000Z</time>
      </trkpt>
      <trkpt lat="37.07524333" lon="-3.376145">
        <ele>2872.0</ele>
        <time>2022-11-20T10:17:41.000Z</time>
      </trkpt>
      <trkpt lat="37.07523667" lon="-3.37614833">
        <ele>2872.0</ele>
        <time>2022-11-20T10:17:42.000Z</time>
      </trkpt>
      <trkpt lat="37.07522833" lon="-3.37615333">
        <ele>2872.0</ele>
        <time>2022-11-20T10:17:43.000Z</time>
      </trkpt>
      <trkpt lat="37.07522" lon="-3.37615667">
        <ele>2872.0</ele>
        <time>2022-11-20T10:17:44.000Z</time>
      </trkpt>
      <trkpt lat="37.075215" lon="-3.37616167">
        <ele>2872.0</ele>
        <time>2022-11-20T10:17:45.000Z</time>
      </trkpt>
      <trkpt lat="37.07520667" lon="-3.376165">
        <ele>2872.0</ele>
        <time>2022-11-20T10:17:46.000Z</time>
      </trkpt>
      <trkpt lat="37.07519667" lon="-3.37616667">
        <ele>2872.0</ele>
        <time>2022-11-20T10:17:47.000Z</time>
      </trkpt>
      <trkpt lat="37.07519" lon="-3.37616667">
        <ele>2873.0</ele>
        <time>2022-11-20T10:17:48.000Z</time>
      </trkpt>
      <trkpt lat="37.07518167" lon="-3.37616833">
        <ele>2873.0</ele>
        <time>2022-11-20T10:17:49.000Z</time>
      </trkpt>
      <trkpt lat="37.075175" lon="-3.37617167">
        <ele>2873.0</ele>
        <time>2022-11-20T10:17:50.000Z</time>
      </trkpt>
      <trkpt lat="37.075165" lon="-3.37617167">
        <ele>2873.0</ele>
        <time>2022-11-20T10:17:51.000Z</time>
      </trkpt>
      <trkpt lat="37.07515667" lon="-3.37617333">
        <ele>2873.0</ele>
        <time>2022-11-20T10:17:52.000Z</time>
      </trkpt>
      <trkpt lat="37.07515" lon="-3.376175">
        <ele>2873.0</ele>
        <time>2022-11-20T10:17:53.000Z</time>
      </trkpt>
      <trkpt lat="37.07514167" lon="-3.37617167">
        <ele>2873.0</ele>
        <time>2022-11-20T10:17:54.000Z</time>
      </trkpt>
      <trkpt lat="37.075135" lon="-3.37616833">
        <ele>2873.0</ele>
        <time>2022-11-20T10:17:55.000Z</time>
      </trkpt>
      <trkpt lat="37.07512833" lon="-3.37616333">
        <ele>2874.0</ele>
        <time>2022-11-20T10:17:56.000Z</time>
      </trkpt>
      <trkpt lat="37.07512333" lon="-3.37616167">
        <ele>2874.0</ele>
        <time>2022-11-20T10:17:57.000Z</time>
      </trkpt>
      <trkpt lat="37.075115" lon="-3.37615833">
        <ele>2874.0</ele>
        <time>2022-11-20T10:17:58.000Z</time>
      </trkpt>
      <trkpt lat="37.07510833" lon="-3.37616">
        <ele>2874.0</ele>
        <time>2022-11-20T10:17:59.000Z</time>
      </trkpt>
      <trkpt lat="37.07510167" lon="-3.37616333">
        <ele>2874.0</ele>
        <time>2022-11-20T10:18:00.000Z</time>
      </trkpt>
      <trkpt lat="37.075095" lon="-3.37616333">
        <ele>2874.0</ele>
        <time>2022-11-20T10:18:01.000Z</time>
      </trkpt>
      <trkpt lat="37.07508833" lon="-3.376165">
        <ele>2875.0</ele>
        <time>2022-11-20T10:18:02.000Z</time>
      </trkpt>
      <trkpt lat="37.07508167" lon="-3.37616667">
        <ele>2875.0</ele>
        <time>2022-11-20T10:18:03.000Z</time>
      </trkpt>
      <trkpt lat="37.075075" lon="-3.37616667">
        <ele>2875.0</ele>
        <time>2022-11-20T10:18:04.000Z</time>
      </trkpt>
      <trkpt lat="37.07506667" lon="-3.37616667">
        <ele>2875.0</ele>
        <time>2022-11-20T10:18:05.000Z</time>
      </trkpt>
      <trkpt lat="37.07506" lon="-3.37616833">
        <ele>2875.0</ele>
        <time>2022-11-20T10:18:06.000Z</time>
      </trkpt>
      <trkpt lat="37.07505167" lon="-3.37616667">
        <ele>2875.0</ele>
        <time>2022-11-20T10:18:07.000Z</time>
      </trkpt>
      <trkpt lat="37.075045" lon="-3.376165">
        <ele>2876.0</ele>
        <time>2022-11-20T10:18:08.000Z</time>
      </trkpt>
      <trkpt lat="37.07503667" lon="-3.37616167">
        <ele>2876.0</ele>
        <time>2022-11-20T10:18:09.000Z</time>
      </trkpt>
      <trkpt lat="37.07503" lon="-3.37615833">
        <ele>2876.0</ele>
        <time>2022-11-20T10:18:10.000Z</time>
      </trkpt>
      <trkpt lat="37.07502333" lon="-3.376155">
        <ele>2876.0</ele>
        <time>2022-11-20T10:18:11.000Z</time>
      </trkpt>
      <trkpt lat="37.07501833" lon="-3.37615333">
        <ele>2876.0</ele>
        <time>2022-11-20T10:18:12.000Z</time>
      </trkpt>
      <trkpt lat="37.07501167" lon="-3.37615167">
        <ele>2876.0</ele>
        <time>2022-11-20T10:18:13.000Z</time>
      </trkpt>
      <trkpt lat="37.075005" lon="-3.37614833">
        <ele>2876.0</ele>
        <time>2022-11-20T10:18:14.000Z</time>
      </trkpt>
      <trkpt lat="37.07500167" lon="-3.37614667">
        <ele>2876.0</ele>
        <time>2022-11-20T10:18:15.000Z</time>
      </trkpt>
      <trkpt lat="37.07499667" lon="-3.37614333">
        <ele>2876.0</ele>
        <time>2022-11-20T10:18:16.000Z</time>
      </trkpt>
      <trkpt lat="37.07499333" lon="-3.376145">
        <ele>2876.0</ele>
        <time>2022-11-20T10:18:17.000Z</time>
      </trkpt>
      <trkpt lat="37.07498667" lon="-3.37614667">
        <ele>2876.0</ele>
        <time>2022-11-20T10:18:18.000Z</time>
      </trkpt>
      <trkpt lat="37.07498" lon="-3.376145">
        <ele>2877.0</ele>
        <time>2022-11-20T10:18:19.000Z</time>
      </trkpt>
      <trkpt lat="37.07497333" lon="-3.37614333">
        <ele>2877.0</ele>
        <time>2022-11-20T10:18:20.000Z</time>
      </trkpt>
      <trkpt lat="37.07496833" lon="-3.37614167">
        <ele>2877.0</ele>
        <time>2022-11-20T10:18:21.000Z</time>
      </trkpt>
      <trkpt lat="37.074965" lon="-3.37614333">
        <ele>2877.0</ele>
        <time>2022-11-20T10:18:22.000Z</time>
      </trkpt>
      <trkpt lat="37.07496167" lon="-3.376145">
        <ele>2877.0</ele>
        <time>2022-11-20T10:18:23.000Z</time>
      </trkpt>
      <trkpt lat="37.07495833" lon="-3.37614833">
        <ele>2877.0</ele>
        <time>2022-11-20T10:18:24.000Z</time>
      </trkpt>
      <trkpt lat="37.074955" lon="-3.37615167">
        <ele>2877.0</ele>
        <time>2022-11-20T10:18:25.000Z</time>
      </trkpt>
      <trkpt lat="37.07495" lon="-3.376155">
        <ele>2877.0</ele>
        <time>2022-11-20T10:18:26.000Z</time>
      </trkpt>
      <trkpt lat="37.07494667" lon="-3.37616">
        <ele>2877.0</ele>
        <time>2022-11-20T10:18:27.000Z</time>
      </trkpt>
      <trkpt lat="37.074945" lon="-3.376165">
        <ele>2877.0</ele>
        <time>2022-11-20T10:18:28.000Z</time>
      </trkpt>
      <trkpt lat="37.074945" lon="-3.37616833">
        <ele>2877.0</ele>
        <time>2022-11-20T10:18:29.000Z</time>
      </trkpt>
      <trkpt lat="37.07494333" lon="-3.376175">
        <ele>2877.0</ele>
        <time>2022-11-20T10:18:30.000Z</time>
      </trkpt>
      <trkpt lat="37.07494167" lon="-3.37618167">
        <ele>2877.0</ele>
        <time>2022-11-20T10:18:31.000Z</time>
      </trkpt>
      <trkpt lat="37.07493667" lon="-3.37619">
        <ele>2878.0</ele>
        <time>2022-11-20T10:18:32.000Z</time>
      </trkpt>
      <trkpt lat="37.07493167" lon="-3.37619333">
        <ele>2878.0</ele>
        <time>2022-11-20T10:18:33.000Z</time>
      </trkpt>
      <trkpt lat="37.07492833" lon="-3.37619833">
        <ele>2878.0</ele>
        <time>2022-11-20T10:18:34.000Z</time>
      </trkpt>
      <trkpt lat="37.07492333" lon="-3.37620167">
        <ele>2878.0</ele>
        <time>2022-11-20T10:18:35.000Z</time>
      </trkpt>
      <trkpt lat="37.07492" lon="-3.37620667">
        <ele>2878.0</ele>
        <time>2022-11-20T10:18:36.000Z</time>
      </trkpt>
      <trkpt lat="37.07491833" lon="-3.37621333">
        <ele>2878.0</ele>
        <time>2022-11-20T10:18:37.000Z</time>
      </trkpt>
      <trkpt lat="37.07491667" lon="-3.37621667">
        <ele>2878.0</ele>
        <time>2022-11-20T10:18:38.000Z</time>
      </trkpt>
      <trkpt lat="37.07491333" lon="-3.376225">
        <ele>2878.0</ele>
        <time>2022-11-20T10:18:39.000Z</time>
      </trkpt>
      <trkpt lat="37.07490833" lon="-3.37623167">
        <ele>2879.0</ele>
        <time>2022-11-20T10:18:40.000Z</time>
      </trkpt>
      <trkpt lat="37.07490333" lon="-3.376235">
        <ele>2879.0</ele>
        <time>2022-11-20T10:18:41.000Z</time>
      </trkpt>
      <trkpt lat="37.074895" lon="-3.376235">
        <ele>2879.0</ele>
        <time>2022-11-20T10:18:42.000Z</time>
      </trkpt>
      <trkpt lat="37.07488833" lon="-3.37623833">
        <ele>2879.0</ele>
        <time>2022-11-20T10:18:43.000Z</time>
      </trkpt>
      <trkpt lat="37.07488333" lon="-3.37624">
        <ele>2879.0</ele>
        <time>2022-11-20T10:18:44.000Z</time>
      </trkpt>
      <trkpt lat="37.074875" lon="-3.37623833">
        <ele>2879.0</ele>
        <time>2022-11-20T10:18:45.000Z</time>
      </trkpt>
      <trkpt lat="37.07486833" lon="-3.37624">
        <ele>2879.0</ele>
        <time>2022-11-20T10:18:46.000Z</time>
      </trkpt>
      <trkpt lat="37.07486333" lon="-3.37624">
        <ele>2879.0</ele>
        <time>2022-11-20T10:18:47.000Z</time>
      </trkpt>
      <trkpt lat="37.074855" lon="-3.37624">
        <ele>2879.0</ele>
        <time>2022-11-20T10:18:48.000Z</time>
      </trkpt>
      <trkpt lat="37.07484667" lon="-3.37624">
        <ele>2879.0</ele>
        <time>2022-11-20T10:18:49.000Z</time>
      </trkpt>
      <trkpt lat="37.074835" lon="-3.37624167">
        <ele>2879.0</ele>
        <time>2022-11-20T10:18:50.000Z</time>
      </trkpt>
      <trkpt lat="37.074825" lon="-3.37624333">
        <ele>2879.0</ele>
        <time>2022-11-20T10:18:51.000Z</time>
      </trkpt>
      <trkpt lat="37.07481667" lon="-3.376245">
        <ele>2879.0</ele>
        <time>2022-11-20T10:18:52.000Z</time>
      </trkpt>
      <trkpt lat="37.07481" lon="-3.37624833">
        <ele>2879.0</ele>
        <time>2022-11-20T10:18:53.000Z</time>
      </trkpt>
      <trkpt lat="37.07480833" lon="-3.37624833">
        <ele>2879.0</ele>
        <time>2022-11-20T10:18:54.000Z</time>
      </trkpt>
      <trkpt lat="37.07480333" lon="-3.37625167">
        <ele>2879.0</ele>
        <time>2022-11-20T10:18:55.000Z</time>
      </trkpt>
      <trkpt lat="37.07479667" lon="-3.376255">
        <ele>2879.0</ele>
        <time>2022-11-20T10:18:56.000Z</time>
      </trkpt>
      <trkpt lat="37.07478833" lon="-3.37625667">
        <ele>2879.0</ele>
        <time>2022-11-20T10:18:57.000Z</time>
      </trkpt>
      <trkpt lat="37.07478" lon="-3.37625833">
        <ele>2879.0</ele>
        <time>2022-11-20T10:18:58.000Z</time>
      </trkpt>
      <trkpt lat="37.07477167" lon="-3.37626">
        <ele>2879.0</ele>
        <time>2022-11-20T10:18:59.000Z</time>
      </trkpt>
      <trkpt lat="37.07476167" lon="-3.37626">
        <ele>2879.0</ele>
        <time>2022-11-20T10:19:00.000Z</time>
      </trkpt>
      <trkpt lat="37.07475333" lon="-3.37625833">
        <ele>2879.0</ele>
        <time>2022-11-20T10:19:01.000Z</time>
      </trkpt>
      <trkpt lat="37.074745" lon="-3.37626">
        <ele>2879.0</ele>
        <time>2022-11-20T10:19:02.000Z</time>
      </trkpt>
      <trkpt lat="37.07474" lon="-3.37626333">
        <ele>2879.0</ele>
        <time>2022-11-20T10:19:03.000Z</time>
      </trkpt>
      <trkpt lat="37.07473167" lon="-3.37627">
        <ele>2879.0</ele>
        <time>2022-11-20T10:19:04.000Z</time>
      </trkpt>
      <trkpt lat="37.074725" lon="-3.37627667">
        <ele>2879.0</ele>
        <time>2022-11-20T10:19:05.000Z</time>
      </trkpt>
      <trkpt lat="37.07471667" lon="-3.37628333">
        <ele>2879.0</ele>
        <time>2022-11-20T10:19:06.000Z</time>
      </trkpt>
      <trkpt lat="37.07471167" lon="-3.37628833">
        <ele>2879.0</ele>
        <time>2022-11-20T10:19:07.000Z</time>
      </trkpt>
      <trkpt lat="37.07470667" lon="-3.37629667">
        <ele>2879.0</ele>
        <time>2022-11-20T10:19:08.000Z</time>
      </trkpt>
      <trkpt lat="37.07470167" lon="-3.37630167">
        <ele>2879.0</ele>
        <time>2022-11-20T10:19:09.000Z</time>
      </trkpt>
      <trkpt lat="37.07469667" lon="-3.37630833">
        <ele>2879.0</ele>
        <time>2022-11-20T10:19:10.000Z</time>
      </trkpt>
      <trkpt lat="37.07469333" lon="-3.376315">
        <ele>2879.0</ele>
        <time>2022-11-20T10:19:11.000Z</time>
      </trkpt>
      <trkpt lat="37.07468833" lon="-3.37631833">
        <ele>2879.0</ele>
        <time>2022-11-20T10:19:12.000Z</time>
      </trkpt>
      <trkpt lat="37.07468333" lon="-3.37632667">
        <ele>2879.0</ele>
        <time>2022-11-20T10:19:13.000Z</time>
      </trkpt>
      <trkpt lat="37.07468" lon="-3.37633167">
        <ele>2879.0</ele>
        <time>2022-11-20T10:19:14.000Z</time>
      </trkpt>
      <trkpt lat="37.07467667" lon="-3.37633833">
        <ele>2879.0</ele>
        <time>2022-11-20T10:19:15.000Z</time>
      </trkpt>
      <trkpt lat="37.07467333" lon="-3.37634333">
        <ele>2879.0</ele>
        <time>2022-11-20T10:19:16.000Z</time>
      </trkpt>
      <trkpt lat="37.07467333" lon="-3.376345">
        <ele>2879.0</ele>
        <time>2022-11-20T10:19:17.000Z</time>
      </trkpt>
      <trkpt lat="37.07467" lon="-3.37635167">
        <ele>2879.0</ele>
        <time>2022-11-20T10:19:18.000Z</time>
      </trkpt>
      <trkpt lat="37.074665" lon="-3.37635667">
        <ele>2879.0</ele>
        <time>2022-11-20T10:19:19.000Z</time>
      </trkpt>
      <trkpt lat="37.07466" lon="-3.37636167">
        <ele>2879.0</ele>
        <time>2022-11-20T10:19:20.000Z</time>
      </trkpt>
      <trkpt lat="37.074655" lon="-3.37636667">
        <ele>2879.0</ele>
        <time>2022-11-20T10:19:21.000Z</time>
      </trkpt>
      <trkpt lat="37.07464667" lon="-3.376375">
        <ele>2879.0</ele>
        <time>2022-11-20T10:19:22.000Z</time>
      </trkpt>
      <trkpt lat="37.07463833" lon="-3.37638">
        <ele>2879.0</ele>
        <time>2022-11-20T10:19:23.000Z</time>
      </trkpt>
      <trkpt lat="37.07462833" lon="-3.37638333">
        <ele>2879.0</ele>
        <time>2022-11-20T10:19:24.000Z</time>
      </trkpt>
      <trkpt lat="37.07461833" lon="-3.376385">
        <ele>2879.0</ele>
        <time>2022-11-20T10:19:25.000Z</time>
      </trkpt>
      <trkpt lat="37.074605" lon="-3.376385">
        <ele>2879.0</ele>
        <time>2022-11-20T10:19:26.000Z</time>
      </trkpt>
      <trkpt lat="37.074595" lon="-3.37638833">
        <ele>2879.0</ele>
        <time>2022-11-20T10:19:27.000Z</time>
      </trkpt>
      <trkpt lat="37.07458667" lon="-3.376395">
        <ele>2879.0</ele>
        <time>2022-11-20T10:19:28.000Z</time>
      </trkpt>
      <trkpt lat="37.07458" lon="-3.3764">
        <ele>2879.0</ele>
        <time>2022-11-20T10:19:29.000Z</time>
      </trkpt>
      <trkpt lat="37.074575" lon="-3.37640667">
        <ele>2879.0</ele>
        <time>2022-11-20T10:19:30.000Z</time>
      </trkpt>
      <trkpt lat="37.07457" lon="-3.37641">
        <ele>2879.0</ele>
        <time>2022-11-20T10:19:31.000Z</time>
      </trkpt>
      <trkpt lat="37.07456333" lon="-3.37642333">
        <ele>2879.0</ele>
        <time>2022-11-20T10:19:32.000Z</time>
      </trkpt>
      <trkpt lat="37.07455667" lon="-3.37642833">
        <ele>2879.0</ele>
        <time>2022-11-20T10:19:33.000Z</time>
      </trkpt>
      <trkpt lat="37.07455167" lon="-3.376435">
        <ele>2879.0</ele>
        <time>2022-11-20T10:19:34.000Z</time>
      </trkpt>
      <trkpt lat="37.07454667" lon="-3.37644">
        <ele>2879.0</ele>
        <time>2022-11-20T10:19:35.000Z</time>
      </trkpt>
      <trkpt lat="37.07453833" lon="-3.376445">
        <ele>2879.0</ele>
        <time>2022-11-20T10:19:36.000Z</time>
      </trkpt>
      <trkpt lat="37.07453167" lon="-3.37644833">
        <ele>2879.0</ele>
        <time>2022-11-20T10:19:37.000Z</time>
      </trkpt>
      <trkpt lat="37.07452667" lon="-3.37645167">
        <ele>2879.0</ele>
        <time>2022-11-20T10:19:38.000Z</time>
      </trkpt>
      <trkpt lat="37.07452" lon="-3.376455">
        <ele>2879.0</ele>
        <time>2022-11-20T10:19:39.000Z</time>
      </trkpt>
      <trkpt lat="37.074515" lon="-3.37645833">
        <ele>2879.0</ele>
        <time>2022-11-20T10:19:40.000Z</time>
      </trkpt>
      <trkpt lat="37.07451167" lon="-3.37646167">
        <ele>2879.0</ele>
        <time>2022-11-20T10:19:41.000Z</time>
      </trkpt>
      <trkpt lat="37.07450833" lon="-3.37647">
        <ele>2879.0</ele>
        <time>2022-11-20T10:19:42.000Z</time>
      </trkpt>
      <trkpt lat="37.07450333" lon="-3.37647667">
        <ele>2880.0</ele>
        <time>2022-11-20T10:19:43.000Z</time>
      </trkpt>
      <trkpt lat="37.0745" lon="-3.37648333">
        <ele>2880.0</ele>
        <time>2022-11-20T10:19:44.000Z</time>
      </trkpt>
      <trkpt lat="37.07449667" lon="-3.37649">
        <ele>2880.0</ele>
        <time>2022-11-20T10:19:45.000Z</time>
      </trkpt>
      <trkpt lat="37.07449167" lon="-3.376495">
        <ele>2880.0</ele>
        <time>2022-11-20T10:19:46.000Z</time>
      </trkpt>
      <trkpt lat="37.074485" lon="-3.37650167">
        <ele>2880.0</ele>
        <time>2022-11-20T10:19:47.000Z</time>
      </trkpt>
      <trkpt lat="37.07448" lon="-3.37650833">
        <ele>2880.0</ele>
        <time>2022-11-20T10:19:48.000Z</time>
      </trkpt>
      <trkpt lat="37.07447667" lon="-3.37651333">
        <ele>2880.0</ele>
        <time>2022-11-20T10:19:49.000Z</time>
      </trkpt>
      <trkpt lat="37.07447" lon="-3.37651833">
        <ele>2881.0</ele>
        <time>2022-11-20T10:19:50.000Z</time>
      </trkpt>
      <trkpt lat="37.07446333" lon="-3.37652667">
        <ele>2881.0</ele>
        <time>2022-11-20T10:19:51.000Z</time>
      </trkpt>
      <trkpt lat="37.07445833" lon="-3.37653333">
        <ele>2881.0</ele>
        <time>2022-11-20T10:19:52.000Z</time>
      </trkpt>
      <trkpt lat="37.07445333" lon="-3.37653833">
        <ele>2881.0</ele>
        <time>2022-11-20T10:19:53.000Z</time>
      </trkpt>
      <trkpt lat="37.07444833" lon="-3.37654667">
        <ele>2881.0</ele>
        <time>2022-11-20T10:19:54.000Z</time>
      </trkpt>
      <trkpt lat="37.07444333" lon="-3.37655167">
        <ele>2881.0</ele>
        <time>2022-11-20T10:19:55.000Z</time>
      </trkpt>
      <trkpt lat="37.07443833" lon="-3.37655667">
        <ele>2881.0</ele>
        <time>2022-11-20T10:19:56.000Z</time>
      </trkpt>
      <trkpt lat="37.07443333" lon="-3.37656333">
        <ele>2881.0</ele>
        <time>2022-11-20T10:19:57.000Z</time>
      </trkpt>
      <trkpt lat="37.07442833" lon="-3.37656833">
        <ele>2881.0</ele>
        <time>2022-11-20T10:19:58.000Z</time>
      </trkpt>
      <trkpt lat="37.07442333" lon="-3.37657333">
        <ele>2881.0</ele>
        <time>2022-11-20T10:19:59.000Z</time>
      </trkpt>
      <trkpt lat="37.07442" lon="-3.37657667">
        <ele>2881.0</ele>
        <time>2022-11-20T10:20:00.000Z</time>
      </trkpt>
      <trkpt lat="37.074415" lon="-3.37658333">
        <ele>2881.0</ele>
        <time>2022-11-20T10:20:01.000Z</time>
      </trkpt>
      <trkpt lat="37.07441167" lon="-3.37658833">
        <ele>2881.0</ele>
        <time>2022-11-20T10:20:02.000Z</time>
      </trkpt>
      <trkpt lat="37.07440667" lon="-3.376595">
        <ele>2882.0</ele>
        <time>2022-11-20T10:20:03.000Z</time>
      </trkpt>
      <trkpt lat="37.07440167" lon="-3.37660167">
        <ele>2882.0</ele>
        <time>2022-11-20T10:20:04.000Z</time>
      </trkpt>
      <trkpt lat="37.07439667" lon="-3.37660833">
        <ele>2882.0</ele>
        <time>2022-11-20T10:20:05.000Z</time>
      </trkpt>
      <trkpt lat="37.07439333" lon="-3.376615">
        <ele>2882.0</ele>
        <time>2022-11-20T10:20:06.000Z</time>
      </trkpt>
      <trkpt lat="37.07438667" lon="-3.37662">
        <ele>2882.0</ele>
        <time>2022-11-20T10:20:07.000Z</time>
      </trkpt>
      <trkpt lat="37.07438167" lon="-3.376625">
        <ele>2882.0</ele>
        <time>2022-11-20T10:20:08.000Z</time>
      </trkpt>
      <trkpt lat="37.07437667" lon="-3.37663">
        <ele>2882.0</ele>
        <time>2022-11-20T10:20:09.000Z</time>
      </trkpt>
      <trkpt lat="37.07437" lon="-3.37663667">
        <ele>2882.0</ele>
        <time>2022-11-20T10:20:10.000Z</time>
      </trkpt>
      <trkpt lat="37.074365" lon="-3.37664167">
        <ele>2882.0</ele>
        <time>2022-11-20T10:20:11.000Z</time>
      </trkpt>
      <trkpt lat="37.07435833" lon="-3.37664667">
        <ele>2882.0</ele>
        <time>2022-11-20T10:20:12.000Z</time>
      </trkpt>
      <trkpt lat="37.07435333" lon="-3.37665667">
        <ele>2883.0</ele>
        <time>2022-11-20T10:20:13.000Z</time>
      </trkpt>
      <trkpt lat="37.07434667" lon="-3.376665">
        <ele>2883.0</ele>
        <time>2022-11-20T10:20:14.000Z</time>
      </trkpt>
      <trkpt lat="37.07434167" lon="-3.37667167">
        <ele>2883.0</ele>
        <time>2022-11-20T10:20:15.000Z</time>
      </trkpt>
      <trkpt lat="37.07433333" lon="-3.37668167">
        <ele>2883.0</ele>
        <time>2022-11-20T10:20:16.000Z</time>
      </trkpt>
      <trkpt lat="37.07432667" lon="-3.37668667">
        <ele>2883.0</ele>
        <time>2022-11-20T10:20:17.000Z</time>
      </trkpt>
      <trkpt lat="37.07432" lon="-3.37669167">
        <ele>2883.0</ele>
        <time>2022-11-20T10:20:18.000Z</time>
      </trkpt>
      <trkpt lat="37.07431333" lon="-3.376695">
        <ele>2883.0</ele>
        <time>2022-11-20T10:20:19.000Z</time>
      </trkpt>
      <trkpt lat="37.07430833" lon="-3.37670167">
        <ele>2883.0</ele>
        <time>2022-11-20T10:20:20.000Z</time>
      </trkpt>
      <trkpt lat="37.0743" lon="-3.376705">
        <ele>2883.0</ele>
        <time>2022-11-20T10:20:21.000Z</time>
      </trkpt>
      <trkpt lat="37.07429333" lon="-3.37671">
        <ele>2884.0</ele>
        <time>2022-11-20T10:20:22.000Z</time>
      </trkpt>
      <trkpt lat="37.07428667" lon="-3.37671333">
        <ele>2884.0</ele>
        <time>2022-11-20T10:20:23.000Z</time>
      </trkpt>
      <trkpt lat="37.07428" lon="-3.37671833">
        <ele>2884.0</ele>
        <time>2022-11-20T10:20:24.000Z</time>
      </trkpt>
      <trkpt lat="37.074275" lon="-3.37672333">
        <ele>2884.0</ele>
        <time>2022-11-20T10:20:25.000Z</time>
      </trkpt>
      <trkpt lat="37.07427" lon="-3.376725">
        <ele>2884.0</ele>
        <time>2022-11-20T10:20:26.000Z</time>
      </trkpt>
      <trkpt lat="37.07426667" lon="-3.37672333">
        <ele>2884.0</ele>
        <time>2022-11-20T10:20:27.000Z</time>
      </trkpt>
      <trkpt lat="37.07426667" lon="-3.37672333">
        <ele>2884.0</ele>
        <time>2022-11-20T10:20:28.000Z</time>
      </trkpt>
      <trkpt lat="37.07426333" lon="-3.376725">
        <ele>2884.0</ele>
        <time>2022-11-20T10:20:29.000Z</time>
      </trkpt>
      <trkpt lat="37.074265" lon="-3.37672833">
        <ele>2884.0</ele>
        <time>2022-11-20T10:20:30.000Z</time>
      </trkpt>
      <trkpt lat="37.074265" lon="-3.37672833">
        <ele>2885.0</ele>
        <time>2022-11-20T10:20:31.000Z</time>
      </trkpt>
      <trkpt lat="37.074265" lon="-3.37672833">
        <ele>2885.0</ele>
        <time>2022-11-20T10:20:32.000Z</time>
      </trkpt>
      <trkpt lat="37.074265" lon="-3.37672833">
        <ele>2885.0</ele>
        <time>2022-11-20T10:20:33.000Z</time>
      </trkpt>
      <trkpt lat="37.074265" lon="-3.37672833">
        <ele>2885.0</ele>
        <time>2022-11-20T10:20:34.000Z</time>
      </trkpt>
      <trkpt lat="37.07426167" lon="-3.37672667">
        <ele>2885.0</ele>
        <time>2022-11-20T10:20:35.000Z</time>
      </trkpt>
      <trkpt lat="37.07426167" lon="-3.37672667">
        <ele>2885.0</ele>
        <time>2022-11-20T10:20:36.000Z</time>
      </trkpt>
      <trkpt lat="37.07426167" lon="-3.37672667">
        <ele>2885.0</ele>
        <time>2022-11-20T10:20:37.000Z</time>
      </trkpt>
      <trkpt lat="37.07426167" lon="-3.37672667">
        <ele>2885.0</ele>
        <time>2022-11-20T10:20:38.000Z</time>
      </trkpt>
      <trkpt lat="37.07426167" lon="-3.37672667">
        <ele>2885.0</ele>
        <time>2022-11-20T10:20:39.000Z</time>
      </trkpt>
      <trkpt lat="37.07426167" lon="-3.37672667">
        <ele>2885.0</ele>
        <time>2022-11-20T10:20:40.000Z</time>
      </trkpt>
      <trkpt lat="37.07426333" lon="-3.37672667">
        <ele>2885.0</ele>
        <time>2022-11-20T10:20:41.000Z</time>
      </trkpt>
      <trkpt lat="37.07426333" lon="-3.37672667">
        <ele>2885.0</ele>
        <time>2022-11-20T10:20:42.000Z</time>
      </trkpt>
      <trkpt lat="37.07426333" lon="-3.37672667">
        <ele>2885.0</ele>
        <time>2022-11-20T10:20:43.000Z</time>
      </trkpt>
      <trkpt lat="37.07426333" lon="-3.37672667">
        <ele>2885.0</ele>
        <time>2022-11-20T10:20:44.000Z</time>
      </trkpt>
      <trkpt lat="37.07426333" lon="-3.37672667">
        <ele>2885.0</ele>
        <time>2022-11-20T10:20:45.000Z</time>
      </trkpt>
      <trkpt lat="37.074265" lon="-3.37672667">
        <ele>2885.0</ele>
        <time>2022-11-20T10:20:46.000Z</time>
      </trkpt>
      <trkpt lat="37.074265" lon="-3.37672667">
        <ele>2885.0</ele>
        <time>2022-11-20T10:20:47.000Z</time>
      </trkpt>
      <trkpt lat="37.074265" lon="-3.376725">
        <ele>2885.0</ele>
        <time>2022-11-20T10:20:48.000Z</time>
      </trkpt>
      <trkpt lat="37.07426833" lon="-3.37672333">
        <ele>2885.0</ele>
        <time>2022-11-20T10:20:49.000Z</time>
      </trkpt>
      <trkpt lat="37.07427" lon="-3.37672333">
        <ele>2885.0</ele>
        <time>2022-11-20T10:20:50.000Z</time>
      </trkpt>
      <trkpt lat="37.07427" lon="-3.37672333">
        <ele>2885.0</ele>
        <time>2022-11-20T10:20:51.000Z</time>
      </trkpt>
      <trkpt lat="37.07427" lon="-3.37672333">
        <ele>2885.0</ele>
        <time>2022-11-20T10:20:52.000Z</time>
      </trkpt>
      <trkpt lat="37.07427" lon="-3.376725">
        <ele>2885.0</ele>
        <time>2022-11-20T10:20:53.000Z</time>
      </trkpt>
      <trkpt lat="37.07427" lon="-3.37673">
        <ele>2885.0</ele>
        <time>2022-11-20T10:20:54.000Z</time>
      </trkpt>
      <trkpt lat="37.07426667" lon="-3.376735">
        <ele>2885.0</ele>
        <time>2022-11-20T10:20:55.000Z</time>
      </trkpt>
      <trkpt lat="37.07426167" lon="-3.37674">
        <ele>2885.0</ele>
        <time>2022-11-20T10:20:56.000Z</time>
      </trkpt>
      <trkpt lat="37.07425667" lon="-3.37674333">
        <ele>2885.0</ele>
        <time>2022-11-20T10:20:57.000Z</time>
      </trkpt>
      <trkpt lat="37.07425" lon="-3.376745">
        <ele>2885.0</ele>
        <time>2022-11-20T10:20:58.000Z</time>
      </trkpt>
      <trkpt lat="37.074245" lon="-3.37675">
        <ele>2885.0</ele>
        <time>2022-11-20T10:20:59.000Z</time>
      </trkpt>
      <trkpt lat="37.07423833" lon="-3.37675667">
        <ele>2885.0</ele>
        <time>2022-11-20T10:21:00.000Z</time>
      </trkpt>
      <trkpt lat="37.07423167" lon="-3.37676167">
        <ele>2885.0</ele>
        <time>2022-11-20T10:21:01.000Z</time>
      </trkpt>
      <trkpt lat="37.07422667" lon="-3.37676667">
        <ele>2886.0</ele>
        <time>2022-11-20T10:21:02.000Z</time>
      </trkpt>
      <trkpt lat="37.07422" lon="-3.37677333">
        <ele>2886.0</ele>
        <time>2022-11-20T10:21:03.000Z</time>
      </trkpt>
      <trkpt lat="37.074215" lon="-3.37677833">
        <ele>2886.0</ele>
        <time>2022-11-20T10:21:04.000Z</time>
      </trkpt>
      <trkpt lat="37.07421" lon="-3.37678333">
        <ele>2886.0</ele>
        <time>2022-11-20T10:21:05.000Z</time>
      </trkpt>
      <trkpt lat="37.074205" lon="-3.37679">
        <ele>2886.0</ele>
        <time>2022-11-20T10:21:06.000Z</time>
      </trkpt>
      <trkpt lat="37.074195" lon="-3.37679667">
        <ele>2886.0</ele>
        <time>2022-11-20T10:21:07.000Z</time>
      </trkpt>
      <trkpt lat="37.07418667" lon="-3.37680167">
        <ele>2886.0</ele>
        <time>2022-11-20T10:21:08.000Z</time>
      </trkpt>
      <trkpt lat="37.07418167" lon="-3.376805">
        <ele>2886.0</ele>
        <time>2022-11-20T10:21:09.000Z</time>
      </trkpt>
      <trkpt lat="37.07417667" lon="-3.37681">
        <ele>2887.0</ele>
        <time>2022-11-20T10:21:10.000Z</time>
      </trkpt>
      <trkpt lat="37.07417" lon="-3.37681333">
        <ele>2887.0</ele>
        <time>2022-11-20T10:21:11.000Z</time>
      </trkpt>
      <trkpt lat="37.07416333" lon="-3.376815">
        <ele>2887.0</ele>
        <time>2022-11-20T10:21:12.000Z</time>
      </trkpt>
      <trkpt lat="37.07415833" lon="-3.37682">
        <ele>2887.0</ele>
        <time>2022-11-20T10:21:13.000Z</time>
      </trkpt>
      <trkpt lat="37.07415167" lon="-3.376825">
        <ele>2887.0</ele>
        <time>2022-11-20T10:21:14.000Z</time>
      </trkpt>
      <trkpt lat="37.074145" lon="-3.37682833">
        <ele>2887.0</ele>
        <time>2022-11-20T10:21:15.000Z</time>
      </trkpt>
      <trkpt lat="37.07413833" lon="-3.37683333">
        <ele>2887.0</ele>
        <time>2022-11-20T10:21:16.000Z</time>
      </trkpt>
      <trkpt lat="37.07413167" lon="-3.37683667">
        <ele>2887.0</ele>
        <time>2022-11-20T10:21:17.000Z</time>
      </trkpt>
      <trkpt lat="37.074125" lon="-3.37684">
        <ele>2887.0</ele>
        <time>2022-11-20T10:21:18.000Z</time>
      </trkpt>
      <trkpt lat="37.07411667" lon="-3.37684">
        <ele>2887.0</ele>
        <time>2022-11-20T10:21:19.000Z</time>
      </trkpt>
      <trkpt lat="37.07411" lon="-3.37684333">
        <ele>2887.0</ele>
        <time>2022-11-20T10:21:20.000Z</time>
      </trkpt>
      <trkpt lat="37.07410167" lon="-3.37684667">
        <ele>2887.0</ele>
        <time>2022-11-20T10:21:21.000Z</time>
      </trkpt>
      <trkpt lat="37.07409333" lon="-3.37685">
        <ele>2887.0</ele>
        <time>2022-11-20T10:21:22.000Z</time>
      </trkpt>
      <trkpt lat="37.074085" lon="-3.376855">
        <ele>2887.0</ele>
        <time>2022-11-20T10:21:23.000Z</time>
      </trkpt>
      <trkpt lat="37.074075" lon="-3.37685833">
        <ele>2887.0</ele>
        <time>2022-11-20T10:21:24.000Z</time>
      </trkpt>
      <trkpt lat="37.074065" lon="-3.37686167">
        <ele>2887.0</ele>
        <time>2022-11-20T10:21:25.000Z</time>
      </trkpt>
      <trkpt lat="37.07405333" lon="-3.376865">
        <ele>2887.0</ele>
        <time>2022-11-20T10:21:26.000Z</time>
      </trkpt>
      <trkpt lat="37.07404333" lon="-3.37686833">
        <ele>2887.0</ele>
        <time>2022-11-20T10:21:27.000Z</time>
      </trkpt>
      <trkpt lat="37.074035" lon="-3.37687167">
        <ele>2887.0</ele>
        <time>2022-11-20T10:21:28.000Z</time>
      </trkpt>
      <trkpt lat="37.07402667" lon="-3.37687333">
        <ele>2887.0</ele>
        <time>2022-11-20T10:21:29.000Z</time>
      </trkpt>
      <trkpt lat="37.07401833" lon="-3.376875">
        <ele>2887.0</ele>
        <time>2022-11-20T10:21:30.000Z</time>
      </trkpt>
      <trkpt lat="37.07401167" lon="-3.37687667">
        <ele>2887.0</ele>
        <time>2022-11-20T10:21:31.000Z</time>
      </trkpt>
      <trkpt lat="37.07400333" lon="-3.37688">
        <ele>2887.0</ele>
        <time>2022-11-20T10:21:32.000Z</time>
      </trkpt>
      <trkpt lat="37.073995" lon="-3.37688333">
        <ele>2887.0</ele>
        <time>2022-11-20T10:21:33.000Z</time>
      </trkpt>
      <trkpt lat="37.073985" lon="-3.376885">
        <ele>2887.0</ele>
        <time>2022-11-20T10:21:34.000Z</time>
      </trkpt>
      <trkpt lat="37.07397833" lon="-3.37688833">
        <ele>2887.0</ele>
        <time>2022-11-20T10:21:35.000Z</time>
      </trkpt>
      <trkpt lat="37.07396833" lon="-3.37689167">
        <ele>2887.0</ele>
        <time>2022-11-20T10:21:36.000Z</time>
      </trkpt>
      <trkpt lat="37.07396" lon="-3.376895">
        <ele>2887.0</ele>
        <time>2022-11-20T10:21:37.000Z</time>
      </trkpt>
      <trkpt lat="37.07395333" lon="-3.3769">
        <ele>2887.0</ele>
        <time>2022-11-20T10:21:38.000Z</time>
      </trkpt>
      <trkpt lat="37.073945" lon="-3.37690333">
        <ele>2887.0</ele>
        <time>2022-11-20T10:21:39.000Z</time>
      </trkpt>
      <trkpt lat="37.07393667" lon="-3.37690833">
        <ele>2887.0</ele>
        <time>2022-11-20T10:21:40.000Z</time>
      </trkpt>
      <trkpt lat="37.07392833" lon="-3.37691">
        <ele>2887.0</ele>
        <time>2022-11-20T10:21:41.000Z</time>
      </trkpt>
      <trkpt lat="37.07392" lon="-3.37691333">
        <ele>2887.0</ele>
        <time>2022-11-20T10:21:42.000Z</time>
      </trkpt>
      <trkpt lat="37.07391" lon="-3.37691667">
        <ele>2887.0</ele>
        <time>2022-11-20T10:21:43.000Z</time>
      </trkpt>
      <trkpt lat="37.07390167" lon="-3.37692">
        <ele>2887.0</ele>
        <time>2022-11-20T10:21:44.000Z</time>
      </trkpt>
      <trkpt lat="37.07389333" lon="-3.376925">
        <ele>2887.0</ele>
        <time>2022-11-20T10:21:45.000Z</time>
      </trkpt>
      <trkpt lat="37.07388333" lon="-3.37692667">
        <ele>2887.0</ele>
        <time>2022-11-20T10:21:46.000Z</time>
      </trkpt>
      <trkpt lat="37.07387167" lon="-3.37693">
        <ele>2887.0</ele>
        <time>2022-11-20T10:21:47.000Z</time>
      </trkpt>
      <trkpt lat="37.07386333" lon="-3.37693167">
        <ele>2887.0</ele>
        <time>2022-11-20T10:21:48.000Z</time>
      </trkpt>
      <trkpt lat="37.07385333" lon="-3.37693333">
        <ele>2887.0</ele>
        <time>2022-11-20T10:21:49.000Z</time>
      </trkpt>
      <trkpt lat="37.07384333" lon="-3.376935">
        <ele>2887.0</ele>
        <time>2022-11-20T10:21:50.000Z</time>
      </trkpt>
      <trkpt lat="37.07383333" lon="-3.37693833">
        <ele>2887.0</ele>
        <time>2022-11-20T10:21:51.000Z</time>
      </trkpt>
      <trkpt lat="37.07382667" lon="-3.37694">
        <ele>2887.0</ele>
        <time>2022-11-20T10:21:52.000Z</time>
      </trkpt>
      <trkpt lat="37.07381667" lon="-3.37694333">
        <ele>2887.0</ele>
        <time>2022-11-20T10:21:53.000Z</time>
      </trkpt>
      <trkpt lat="37.07380667" lon="-3.37694833">
        <ele>2887.0</ele>
        <time>2022-11-20T10:21:54.000Z</time>
      </trkpt>
      <trkpt lat="37.07379667" lon="-3.37695167">
        <ele>2887.0</ele>
        <time>2022-11-20T10:21:55.000Z</time>
      </trkpt>
      <trkpt lat="37.07378667" lon="-3.37695667">
        <ele>2887.0</ele>
        <time>2022-11-20T10:21:56.000Z</time>
      </trkpt>
      <trkpt lat="37.07377833" lon="-3.37696167">
        <ele>2887.0</ele>
        <time>2022-11-20T10:21:57.000Z</time>
      </trkpt>
      <trkpt lat="37.07377" lon="-3.37696333">
        <ele>2887.0</ele>
        <time>2022-11-20T10:21:58.000Z</time>
      </trkpt>
      <trkpt lat="37.07375833" lon="-3.37696667">
        <ele>2887.0</ele>
        <time>2022-11-20T10:21:59.000Z</time>
      </trkpt>
      <trkpt lat="37.07375" lon="-3.37697">
        <ele>2887.0</ele>
        <time>2022-11-20T10:22:00.000Z</time>
      </trkpt>
      <trkpt lat="37.07374" lon="-3.376975">
        <ele>2887.0</ele>
        <time>2022-11-20T10:22:01.000Z</time>
      </trkpt>
      <trkpt lat="37.07373167" lon="-3.37697833">
        <ele>2887.0</ele>
        <time>2022-11-20T10:22:02.000Z</time>
      </trkpt>
      <trkpt lat="37.07372167" lon="-3.37698167">
        <ele>2887.0</ele>
        <time>2022-11-20T10:22:03.000Z</time>
      </trkpt>
      <trkpt lat="37.07371167" lon="-3.376985">
        <ele>2887.0</ele>
        <time>2022-11-20T10:22:04.000Z</time>
      </trkpt>
      <trkpt lat="37.07370333" lon="-3.37698833">
        <ele>2887.0</ele>
        <time>2022-11-20T10:22:05.000Z</time>
      </trkpt>
      <trkpt lat="37.07369333" lon="-3.37699333">
        <ele>2887.0</ele>
        <time>2022-11-20T10:22:06.000Z</time>
      </trkpt>
      <trkpt lat="37.073685" lon="-3.37699667">
        <ele>2887.0</ele>
        <time>2022-11-20T10:22:07.000Z</time>
      </trkpt>
      <trkpt lat="37.07367667" lon="-3.37700333">
        <ele>2887.0</ele>
        <time>2022-11-20T10:22:08.000Z</time>
      </trkpt>
      <trkpt lat="37.07367" lon="-3.37700667">
        <ele>2887.0</ele>
        <time>2022-11-20T10:22:09.000Z</time>
      </trkpt>
      <trkpt lat="37.07366167" lon="-3.37700667">
        <ele>2888.0</ele>
        <time>2022-11-20T10:22:10.000Z</time>
      </trkpt>
      <trkpt lat="37.07365333" lon="-3.37701">
        <ele>2888.0</ele>
        <time>2022-11-20T10:22:11.000Z</time>
      </trkpt>
      <trkpt lat="37.07364667" lon="-3.37701">
        <ele>2888.0</ele>
        <time>2022-11-20T10:22:12.000Z</time>
      </trkpt>
      <trkpt lat="37.07363833" lon="-3.37701167">
        <ele>2888.0</ele>
        <time>2022-11-20T10:22:13.000Z</time>
      </trkpt>
      <trkpt lat="37.07363333" lon="-3.377015">
        <ele>2888.0</ele>
        <time>2022-11-20T10:22:14.000Z</time>
      </trkpt>
      <trkpt lat="37.07362667" lon="-3.37701667">
        <ele>2887.0</ele>
        <time>2022-11-20T10:22:15.000Z</time>
      </trkpt>
      <trkpt lat="37.07362167" lon="-3.37701667">
        <ele>2887.0</ele>
        <time>2022-11-20T10:22:16.000Z</time>
      </trkpt>
      <trkpt lat="37.073615" lon="-3.37702">
        <ele>2887.0</ele>
        <time>2022-11-20T10:22:17.000Z</time>
      </trkpt>
      <trkpt lat="37.07360833" lon="-3.37702167">
        <ele>2887.0</ele>
        <time>2022-11-20T10:22:18.000Z</time>
      </trkpt>
      <trkpt lat="37.07360333" lon="-3.37702333">
        <ele>2887.0</ele>
        <time>2022-11-20T10:22:19.000Z</time>
      </trkpt>
      <trkpt lat="37.07359667" lon="-3.37702667">
        <ele>2888.0</ele>
        <time>2022-11-20T10:22:20.000Z</time>
      </trkpt>
      <trkpt lat="37.07359" lon="-3.37702833">
        <ele>2888.0</ele>
        <time>2022-11-20T10:22:21.000Z</time>
      </trkpt>
      <trkpt lat="37.073585" lon="-3.37703">
        <ele>2888.0</ele>
        <time>2022-11-20T10:22:22.000Z</time>
      </trkpt>
      <trkpt lat="37.07357667" lon="-3.37703333">
        <ele>2888.0</ele>
        <time>2022-11-20T10:22:23.000Z</time>
      </trkpt>
      <trkpt lat="37.07357" lon="-3.37703667">
        <ele>2888.0</ele>
        <time>2022-11-20T10:22:24.000Z</time>
      </trkpt>
      <trkpt lat="37.07356333" lon="-3.37703833">
        <ele>2888.0</ele>
        <time>2022-11-20T10:22:25.000Z</time>
      </trkpt>
      <trkpt lat="37.07355333" lon="-3.37704167">
        <ele>2888.0</ele>
        <time>2022-11-20T10:22:26.000Z</time>
      </trkpt>
      <trkpt lat="37.07354667" lon="-3.37704333">
        <ele>2888.0</ele>
        <time>2022-11-20T10:22:27.000Z</time>
      </trkpt>
      <trkpt lat="37.07353833" lon="-3.377045">
        <ele>2888.0</ele>
        <time>2022-11-20T10:22:28.000Z</time>
      </trkpt>
      <trkpt lat="37.07353" lon="-3.37704667">
        <ele>2888.0</ele>
        <time>2022-11-20T10:22:29.000Z</time>
      </trkpt>
      <trkpt lat="37.07352333" lon="-3.37704833">
        <ele>2888.0</ele>
        <time>2022-11-20T10:22:30.000Z</time>
      </trkpt>
      <trkpt lat="37.07351667" lon="-3.37705">
        <ele>2889.0</ele>
        <time>2022-11-20T10:22:31.000Z</time>
      </trkpt>
      <trkpt lat="37.07351167" lon="-3.37705167">
        <ele>2889.0</ele>
        <time>2022-11-20T10:22:32.000Z</time>
      </trkpt>
      <trkpt lat="37.073505" lon="-3.37705333">
        <ele>2889.0</ele>
        <time>2022-11-20T10:22:33.000Z</time>
      </trkpt>
      <trkpt lat="37.07349667" lon="-3.377055">
        <ele>2889.0</ele>
        <time>2022-11-20T10:22:34.000Z</time>
      </trkpt>
      <trkpt lat="37.07349" lon="-3.377055">
        <ele>2889.0</ele>
        <time>2022-11-20T10:22:35.000Z</time>
      </trkpt>
      <trkpt lat="37.07348333" lon="-3.37705667">
        <ele>2889.0</ele>
        <time>2022-11-20T10:22:36.000Z</time>
      </trkpt>
      <trkpt lat="37.07347667" lon="-3.377055">
        <ele>2889.0</ele>
        <time>2022-11-20T10:22:37.000Z</time>
      </trkpt>
      <trkpt lat="37.07347167" lon="-3.377055">
        <ele>2889.0</ele>
        <time>2022-11-20T10:22:38.000Z</time>
      </trkpt>
      <trkpt lat="37.073465" lon="-3.37705333">
        <ele>2889.0</ele>
        <time>2022-11-20T10:22:39.000Z</time>
      </trkpt>
      <trkpt lat="37.07345833" lon="-3.37705333">
        <ele>2889.0</ele>
        <time>2022-11-20T10:22:40.000Z</time>
      </trkpt>
      <trkpt lat="37.07345167" lon="-3.37705333">
        <ele>2889.0</ele>
        <time>2022-11-20T10:22:41.000Z</time>
      </trkpt>
      <trkpt lat="37.073445" lon="-3.37705333">
        <ele>2890.0</ele>
        <time>2022-11-20T10:22:42.000Z</time>
      </trkpt>
      <trkpt lat="37.07343667" lon="-3.37705333">
        <ele>2890.0</ele>
        <time>2022-11-20T10:22:43.000Z</time>
      </trkpt>
      <trkpt lat="37.07343" lon="-3.37705167">
        <ele>2890.0</ele>
        <time>2022-11-20T10:22:44.000Z</time>
      </trkpt>
      <trkpt lat="37.073425" lon="-3.37705333">
        <ele>2890.0</ele>
        <time>2022-11-20T10:22:45.000Z</time>
      </trkpt>
      <trkpt lat="37.07342" lon="-3.37705333">
        <ele>2890.0</ele>
        <time>2022-11-20T10:22:46.000Z</time>
      </trkpt>
      <trkpt lat="37.07341333" lon="-3.37705667">
        <ele>2890.0</ele>
        <time>2022-11-20T10:22:47.000Z</time>
      </trkpt>
      <trkpt lat="37.07340833" lon="-3.37705833">
        <ele>2890.0</ele>
        <time>2022-11-20T10:22:48.000Z</time>
      </trkpt>
      <trkpt lat="37.07340167" lon="-3.37706">
        <ele>2890.0</ele>
        <time>2022-11-20T10:22:49.000Z</time>
      </trkpt>
      <trkpt lat="37.073395" lon="-3.37706">
        <ele>2891.0</ele>
        <time>2022-11-20T10:22:50.000Z</time>
      </trkpt>
      <trkpt lat="37.07338833" lon="-3.37706167">
        <ele>2891.0</ele>
        <time>2022-11-20T10:22:51.000Z</time>
      </trkpt>
      <trkpt lat="37.07338" lon="-3.37706">
        <ele>2891.0</ele>
        <time>2022-11-20T10:22:52.000Z</time>
      </trkpt>
      <trkpt lat="37.07337167" lon="-3.37706167">
        <ele>2891.0</ele>
        <time>2022-11-20T10:22:53.000Z</time>
      </trkpt>
      <trkpt lat="37.07336667" lon="-3.37706167">
        <ele>2891.0</ele>
        <time>2022-11-20T10:22:54.000Z</time>
      </trkpt>
      <trkpt lat="37.07336" lon="-3.37706333">
        <ele>2891.0</ele>
        <time>2022-11-20T10:22:55.000Z</time>
      </trkpt>
      <trkpt lat="37.073355" lon="-3.37706667">
        <ele>2891.0</ele>
        <time>2022-11-20T10:22:56.000Z</time>
      </trkpt>
      <trkpt lat="37.07335" lon="-3.37706833">
        <ele>2892.0</ele>
        <time>2022-11-20T10:22:57.000Z</time>
      </trkpt>
      <trkpt lat="37.073345" lon="-3.37706833">
        <ele>2892.0</ele>
        <time>2022-11-20T10:22:58.000Z</time>
      </trkpt>
      <trkpt lat="37.07333833" lon="-3.37707167">
        <ele>2892.0</ele>
        <time>2022-11-20T10:22:59.000Z</time>
      </trkpt>
      <trkpt lat="37.07333333" lon="-3.37707167">
        <ele>2892.0</ele>
        <time>2022-11-20T10:23:00.000Z</time>
      </trkpt>
      <trkpt lat="37.07332667" lon="-3.37707">
        <ele>2892.0</ele>
        <time>2022-11-20T10:23:01.000Z</time>
      </trkpt>
      <trkpt lat="37.07332167" lon="-3.37707">
        <ele>2892.0</ele>
        <time>2022-11-20T10:23:02.000Z</time>
      </trkpt>
      <trkpt lat="37.073315" lon="-3.37706833">
        <ele>2892.0</ele>
        <time>2022-11-20T10:23:03.000Z</time>
      </trkpt>
      <trkpt lat="37.07330667" lon="-3.37706667">
        <ele>2892.0</ele>
        <time>2022-11-20T10:23:04.000Z</time>
      </trkpt>
      <trkpt lat="37.0733" lon="-3.37706667">
        <ele>2893.0</ele>
        <time>2022-11-20T10:23:05.000Z</time>
      </trkpt>
      <trkpt lat="37.07329167" lon="-3.37706333">
        <ele>2892.0</ele>
        <time>2022-11-20T10:23:06.000Z</time>
      </trkpt>
      <trkpt lat="37.07328333" lon="-3.37705833">
        <ele>2892.0</ele>
        <time>2022-11-20T10:23:07.000Z</time>
      </trkpt>
      <trkpt lat="37.073275" lon="-3.37705667">
        <ele>2892.0</ele>
        <time>2022-11-20T10:23:08.000Z</time>
      </trkpt>
      <trkpt lat="37.073265" lon="-3.37705667">
        <ele>2892.0</ele>
        <time>2022-11-20T10:23:09.000Z</time>
      </trkpt>
      <trkpt lat="37.07325667" lon="-3.37705667">
        <ele>2892.0</ele>
        <time>2022-11-20T10:23:10.000Z</time>
      </trkpt>
      <trkpt lat="37.07324833" lon="-3.377055">
        <ele>2892.0</ele>
        <time>2022-11-20T10:23:11.000Z</time>
      </trkpt>
      <trkpt lat="37.07323833" lon="-3.377055">
        <ele>2892.0</ele>
        <time>2022-11-20T10:23:12.000Z</time>
      </trkpt>
      <trkpt lat="37.07322833" lon="-3.377055">
        <ele>2893.0</ele>
        <time>2022-11-20T10:23:13.000Z</time>
      </trkpt>
      <trkpt lat="37.07322" lon="-3.377055">
        <ele>2893.0</ele>
        <time>2022-11-20T10:23:14.000Z</time>
      </trkpt>
      <trkpt lat="37.07321" lon="-3.37705">
        <ele>2893.0</ele>
        <time>2022-11-20T10:23:15.000Z</time>
      </trkpt>
      <trkpt lat="37.07320167" lon="-3.37704667">
        <ele>2893.0</ele>
        <time>2022-11-20T10:23:16.000Z</time>
      </trkpt>
      <trkpt lat="37.07319167" lon="-3.37704333">
        <ele>2893.0</ele>
        <time>2022-11-20T10:23:17.000Z</time>
      </trkpt>
      <trkpt lat="37.07318333" lon="-3.37704167">
        <ele>2893.0</ele>
        <time>2022-11-20T10:23:18.000Z</time>
      </trkpt>
      <trkpt lat="37.07317333" lon="-3.37704">
        <ele>2893.0</ele>
        <time>2022-11-20T10:23:19.000Z</time>
      </trkpt>
      <trkpt lat="37.07316333" lon="-3.37703667">
        <ele>2893.0</ele>
        <time>2022-11-20T10:23:20.000Z</time>
      </trkpt>
      <trkpt lat="37.07315333" lon="-3.37703167">
        <ele>2893.0</ele>
        <time>2022-11-20T10:23:21.000Z</time>
      </trkpt>
      <trkpt lat="37.07314333" lon="-3.37702833">
        <ele>2892.0</ele>
        <time>2022-11-20T10:23:22.000Z</time>
      </trkpt>
      <trkpt lat="37.07313333" lon="-3.377025">
        <ele>2892.0</ele>
        <time>2022-11-20T10:23:23.000Z</time>
      </trkpt>
      <trkpt lat="37.07312333" lon="-3.37702167">
        <ele>2892.0</ele>
        <time>2022-11-20T10:23:24.000Z</time>
      </trkpt>
      <trkpt lat="37.07311333" lon="-3.37701667">
        <ele>2892.0</ele>
        <time>2022-11-20T10:23:25.000Z</time>
      </trkpt>
      <trkpt lat="37.073105" lon="-3.377015">
        <ele>2892.0</ele>
        <time>2022-11-20T10:23:26.000Z</time>
      </trkpt>
      <trkpt lat="37.073095" lon="-3.37701333">
        <ele>2892.0</ele>
        <time>2022-11-20T10:23:27.000Z</time>
      </trkpt>
      <trkpt lat="37.073085" lon="-3.37701167">
        <ele>2892.0</ele>
        <time>2022-11-20T10:23:28.000Z</time>
      </trkpt>
      <trkpt lat="37.07307667" lon="-3.37701167">
        <ele>2892.0</ele>
        <time>2022-11-20T10:23:29.000Z</time>
      </trkpt>
      <trkpt lat="37.07307" lon="-3.37700833">
        <ele>2892.0</ele>
        <time>2022-11-20T10:23:30.000Z</time>
      </trkpt>
      <trkpt lat="37.07306333" lon="-3.37700667">
        <ele>2892.0</ele>
        <time>2022-11-20T10:23:31.000Z</time>
      </trkpt>
      <trkpt lat="37.07305667" lon="-3.37700667">
        <ele>2892.0</ele>
        <time>2022-11-20T10:23:32.000Z</time>
      </trkpt>
      <trkpt lat="37.07305333" lon="-3.37700833">
        <ele>2892.0</ele>
        <time>2022-11-20T10:23:33.000Z</time>
      </trkpt>
      <trkpt lat="37.073045" lon="-3.37701">
        <ele>2893.0</ele>
        <time>2022-11-20T10:23:34.000Z</time>
      </trkpt>
      <trkpt lat="37.07303833" lon="-3.37701167">
        <ele>2893.0</ele>
        <time>2022-11-20T10:23:35.000Z</time>
      </trkpt>
      <trkpt lat="37.07303333" lon="-3.37701167">
        <ele>2893.0</ele>
        <time>2022-11-20T10:23:36.000Z</time>
      </trkpt>
      <trkpt lat="37.07302667" lon="-3.377015">
        <ele>2893.0</ele>
        <time>2022-11-20T10:23:37.000Z</time>
      </trkpt>
      <trkpt lat="37.07302333" lon="-3.377015">
        <ele>2893.0</ele>
        <time>2022-11-20T10:23:38.000Z</time>
      </trkpt>
      <trkpt lat="37.07301833" lon="-3.377015">
        <ele>2893.0</ele>
        <time>2022-11-20T10:23:39.000Z</time>
      </trkpt>
      <trkpt lat="37.07301333" lon="-3.37701667">
        <ele>2893.0</ele>
        <time>2022-11-20T10:23:40.000Z</time>
      </trkpt>
      <trkpt lat="37.07300667" lon="-3.377015">
        <ele>2893.0</ele>
        <time>2022-11-20T10:23:41.000Z</time>
      </trkpt>
      <trkpt lat="37.07300167" lon="-3.377015">
        <ele>2893.0</ele>
        <time>2022-11-20T10:23:42.000Z</time>
      </trkpt>
      <trkpt lat="37.07299667" lon="-3.37701333">
        <ele>2893.0</ele>
        <time>2022-11-20T10:23:43.000Z</time>
      </trkpt>
      <trkpt lat="37.07299167" lon="-3.37701333">
        <ele>2893.0</ele>
        <time>2022-11-20T10:23:44.000Z</time>
      </trkpt>
      <trkpt lat="37.07298667" lon="-3.37701167">
        <ele>2893.0</ele>
        <time>2022-11-20T10:23:45.000Z</time>
      </trkpt>
      <trkpt lat="37.07298333" lon="-3.37701">
        <ele>2894.0</ele>
        <time>2022-11-20T10:23:46.000Z</time>
      </trkpt>
      <trkpt lat="37.07298" lon="-3.37701167">
        <ele>2894.0</ele>
        <time>2022-11-20T10:23:47.000Z</time>
      </trkpt>
      <trkpt lat="37.072975" lon="-3.37701167">
        <ele>2894.0</ele>
        <time>2022-11-20T10:23:48.000Z</time>
      </trkpt>
      <trkpt lat="37.07297" lon="-3.37701167">
        <ele>2894.0</ele>
        <time>2022-11-20T10:23:49.000Z</time>
      </trkpt>
      <trkpt lat="37.072965" lon="-3.37701">
        <ele>2894.0</ele>
        <time>2022-11-20T10:23:50.000Z</time>
      </trkpt>
      <trkpt lat="37.07296167" lon="-3.37700833">
        <ele>2894.0</ele>
        <time>2022-11-20T10:23:51.000Z</time>
      </trkpt>
      <trkpt lat="37.072955" lon="-3.37701">
        <ele>2894.0</ele>
        <time>2022-11-20T10:23:52.000Z</time>
      </trkpt>
      <trkpt lat="37.07295" lon="-3.37700833">
        <ele>2894.0</ele>
        <time>2022-11-20T10:23:53.000Z</time>
      </trkpt>
      <trkpt lat="37.072945" lon="-3.377005">
        <ele>2894.0</ele>
        <time>2022-11-20T10:23:54.000Z</time>
      </trkpt>
      <trkpt lat="37.07294" lon="-3.37700333">
        <ele>2894.0</ele>
        <time>2022-11-20T10:23:55.000Z</time>
      </trkpt>
      <trkpt lat="37.07293333" lon="-3.37700333">
        <ele>2894.0</ele>
        <time>2022-11-20T10:23:56.000Z</time>
      </trkpt>
      <trkpt lat="37.07292833" lon="-3.37700333">
        <ele>2894.0</ele>
        <time>2022-11-20T10:23:57.000Z</time>
      </trkpt>
      <trkpt lat="37.072925" lon="-3.37700167">
        <ele>2894.0</ele>
        <time>2022-11-20T10:23:58.000Z</time>
      </trkpt>
      <trkpt lat="37.07292" lon="-3.377">
        <ele>2895.0</ele>
        <time>2022-11-20T10:23:59.000Z</time>
      </trkpt>
      <trkpt lat="37.07291333" lon="-3.377">
        <ele>2895.0</ele>
        <time>2022-11-20T10:24:00.000Z</time>
      </trkpt>
      <trkpt lat="37.07291" lon="-3.377">
        <ele>2895.0</ele>
        <time>2022-11-20T10:24:01.000Z</time>
      </trkpt>
      <trkpt lat="37.072905" lon="-3.377">
        <ele>2895.0</ele>
        <time>2022-11-20T10:24:02.000Z</time>
      </trkpt>
      <trkpt lat="37.07290167" lon="-3.37699833">
        <ele>2895.0</ele>
        <time>2022-11-20T10:24:03.000Z</time>
      </trkpt>
      <trkpt lat="37.07289667" lon="-3.37699667">
        <ele>2895.0</ele>
        <time>2022-11-20T10:24:04.000Z</time>
      </trkpt>
      <trkpt lat="37.07289333" lon="-3.376995">
        <ele>2895.0</ele>
        <time>2022-11-20T10:24:05.000Z</time>
      </trkpt>
      <trkpt lat="37.07288833" lon="-3.376995">
        <ele>2895.0</ele>
        <time>2022-11-20T10:24:06.000Z</time>
      </trkpt>
      <trkpt lat="37.072885" lon="-3.376995">
        <ele>2895.0</ele>
        <time>2022-11-20T10:24:07.000Z</time>
      </trkpt>
      <trkpt lat="37.07288" lon="-3.37699333">
        <ele>2895.0</ele>
        <time>2022-11-20T10:24:08.000Z</time>
      </trkpt>
      <trkpt lat="37.07287667" lon="-3.37699167">
        <ele>2895.0</ele>
        <time>2022-11-20T10:24:09.000Z</time>
      </trkpt>
      <trkpt lat="37.07287" lon="-3.37699167">
        <ele>2896.0</ele>
        <time>2022-11-20T10:24:10.000Z</time>
      </trkpt>
      <trkpt lat="37.07286667" lon="-3.37699167">
        <ele>2896.0</ele>
        <time>2022-11-20T10:24:11.000Z</time>
      </trkpt>
      <trkpt lat="37.07286333" lon="-3.37699167">
        <ele>2896.0</ele>
        <time>2022-11-20T10:24:12.000Z</time>
      </trkpt>
      <trkpt lat="37.07285667" lon="-3.37699">
        <ele>2896.0</ele>
        <time>2022-11-20T10:24:13.000Z</time>
      </trkpt>
      <trkpt lat="37.07285" lon="-3.37698833">
        <ele>2896.0</ele>
        <time>2022-11-20T10:24:14.000Z</time>
      </trkpt>
      <trkpt lat="37.07284667" lon="-3.37698833">
        <ele>2896.0</ele>
        <time>2022-11-20T10:24:15.000Z</time>
      </trkpt>
      <trkpt lat="37.07284167" lon="-3.37698667">
        <ele>2896.0</ele>
        <time>2022-11-20T10:24:16.000Z</time>
      </trkpt>
      <trkpt lat="37.072835" lon="-3.376985">
        <ele>2896.0</ele>
        <time>2022-11-20T10:24:17.000Z</time>
      </trkpt>
      <trkpt lat="37.07283167" lon="-3.376985">
        <ele>2896.0</ele>
        <time>2022-11-20T10:24:18.000Z</time>
      </trkpt>
      <trkpt lat="37.072825" lon="-3.376985">
        <ele>2896.0</ele>
        <time>2022-11-20T10:24:19.000Z</time>
      </trkpt>
      <trkpt lat="37.07281833" lon="-3.376985">
        <ele>2897.0</ele>
        <time>2022-11-20T10:24:20.000Z</time>
      </trkpt>
      <trkpt lat="37.07281333" lon="-3.376985">
        <ele>2897.0</ele>
        <time>2022-11-20T10:24:21.000Z</time>
      </trkpt>
      <trkpt lat="37.07280833" lon="-3.37698667">
        <ele>2897.0</ele>
        <time>2022-11-20T10:24:22.000Z</time>
      </trkpt>
      <trkpt lat="37.07280333" lon="-3.37698667">
        <ele>2897.0</ele>
        <time>2022-11-20T10:24:23.000Z</time>
      </trkpt>
      <trkpt lat="37.07279833" lon="-3.37698667">
        <ele>2897.0</ele>
        <time>2022-11-20T10:24:24.000Z</time>
      </trkpt>
      <trkpt lat="37.07279333" lon="-3.37698667">
        <ele>2897.0</ele>
        <time>2022-11-20T10:24:25.000Z</time>
      </trkpt>
      <trkpt lat="37.072785" lon="-3.37698667">
        <ele>2897.0</ele>
        <time>2022-11-20T10:24:26.000Z</time>
      </trkpt>
      <trkpt lat="37.07277833" lon="-3.37698667">
        <ele>2897.0</ele>
        <time>2022-11-20T10:24:27.000Z</time>
      </trkpt>
      <trkpt lat="37.072775" lon="-3.376985">
        <ele>2897.0</ele>
        <time>2022-11-20T10:24:28.000Z</time>
      </trkpt>
      <trkpt lat="37.07277" lon="-3.376985">
        <ele>2898.0</ele>
        <time>2022-11-20T10:24:29.000Z</time>
      </trkpt>
      <trkpt lat="37.072765" lon="-3.37698333">
        <ele>2898.0</ele>
        <time>2022-11-20T10:24:30.000Z</time>
      </trkpt>
      <trkpt lat="37.07276167" lon="-3.37698333">
        <ele>2898.0</ele>
        <time>2022-11-20T10:24:31.000Z</time>
      </trkpt>
      <trkpt lat="37.07275667" lon="-3.37698667">
        <ele>2898.0</ele>
        <time>2022-11-20T10:24:32.000Z</time>
      </trkpt>
      <trkpt lat="37.07275333" lon="-3.37699">
        <ele>2898.0</ele>
        <time>2022-11-20T10:24:33.000Z</time>
      </trkpt>
      <trkpt lat="37.07274833" lon="-3.37699">
        <ele>2898.0</ele>
        <time>2022-11-20T10:24:34.000Z</time>
      </trkpt>
      <trkpt lat="37.07274167" lon="-3.37698833">
        <ele>2899.0</ele>
        <time>2022-11-20T10:24:35.000Z</time>
      </trkpt>
      <trkpt lat="37.07273833" lon="-3.37698833">
        <ele>2899.0</ele>
        <time>2022-11-20T10:24:36.000Z</time>
      </trkpt>
      <trkpt lat="37.07273167" lon="-3.37698667">
        <ele>2899.0</ele>
        <time>2022-11-20T10:24:37.000Z</time>
      </trkpt>
      <trkpt lat="37.07272667" lon="-3.376985">
        <ele>2899.0</ele>
        <time>2022-11-20T10:24:38.000Z</time>
      </trkpt>
      <trkpt lat="37.07272167" lon="-3.37698167">
        <ele>2900.0</ele>
        <time>2022-11-20T10:24:39.000Z</time>
      </trkpt>
      <trkpt lat="37.07271667" lon="-3.37697833">
        <ele>2900.0</ele>
        <time>2022-11-20T10:24:40.000Z</time>
      </trkpt>
      <trkpt lat="37.07271167" lon="-3.37697667">
        <ele>2900.0</ele>
        <time>2022-11-20T10:24:41.000Z</time>
      </trkpt>
      <trkpt lat="37.07271" lon="-3.376975">
        <ele>2900.0</ele>
        <time>2022-11-20T10:24:42.000Z</time>
      </trkpt>
      <trkpt lat="37.07270667" lon="-3.376975">
        <ele>2900.0</ele>
        <time>2022-11-20T10:24:43.000Z</time>
      </trkpt>
      <trkpt lat="37.0727" lon="-3.37697333">
        <ele>2900.0</ele>
        <time>2022-11-20T10:24:44.000Z</time>
      </trkpt>
      <trkpt lat="37.07269333" lon="-3.37697167">
        <ele>2900.0</ele>
        <time>2022-11-20T10:24:45.000Z</time>
      </trkpt>
      <trkpt lat="37.07268833" lon="-3.37697167">
        <ele>2900.0</ele>
        <time>2022-11-20T10:24:46.000Z</time>
      </trkpt>
      <trkpt lat="37.072685" lon="-3.37697">
        <ele>2900.0</ele>
        <time>2022-11-20T10:24:47.000Z</time>
      </trkpt>
      <trkpt lat="37.07268333" lon="-3.37697">
        <ele>2901.0</ele>
        <time>2022-11-20T10:24:48.000Z</time>
      </trkpt>
      <trkpt lat="37.07267833" lon="-3.37697167">
        <ele>2901.0</ele>
        <time>2022-11-20T10:24:49.000Z</time>
      </trkpt>
      <trkpt lat="37.072675" lon="-3.37696833">
        <ele>2901.0</ele>
        <time>2022-11-20T10:24:50.000Z</time>
      </trkpt>
      <trkpt lat="37.07266833" lon="-3.376965">
        <ele>2901.0</ele>
        <time>2022-11-20T10:24:51.000Z</time>
      </trkpt>
      <trkpt lat="37.07266333" lon="-3.376965">
        <ele>2901.0</ele>
        <time>2022-11-20T10:24:52.000Z</time>
      </trkpt>
      <trkpt lat="37.07266" lon="-3.376965">
        <ele>2901.0</ele>
        <time>2022-11-20T10:24:53.000Z</time>
      </trkpt>
      <trkpt lat="37.07265667" lon="-3.37696667">
        <ele>2902.0</ele>
        <time>2022-11-20T10:24:54.000Z</time>
      </trkpt>
      <trkpt lat="37.07265167" lon="-3.37696333">
        <ele>2902.0</ele>
        <time>2022-11-20T10:24:55.000Z</time>
      </trkpt>
      <trkpt lat="37.07265167" lon="-3.37696333">
        <ele>2902.0</ele>
        <time>2022-11-20T10:24:56.000Z</time>
      </trkpt>
      <trkpt lat="37.07265167" lon="-3.37696167">
        <ele>2902.0</ele>
        <time>2022-11-20T10:24:57.000Z</time>
      </trkpt>
      <trkpt lat="37.07265167" lon="-3.37696167">
        <ele>2902.0</ele>
        <time>2022-11-20T10:24:58.000Z</time>
      </trkpt>
      <trkpt lat="37.07265167" lon="-3.37696167">
        <ele>2902.0</ele>
        <time>2022-11-20T10:24:59.000Z</time>
      </trkpt>
      <trkpt lat="37.07265167" lon="-3.37696167">
        <ele>2902.0</ele>
        <time>2022-11-20T10:25:00.000Z</time>
      </trkpt>
      <trkpt lat="37.07265167" lon="-3.37696167">
        <ele>2902.0</ele>
        <time>2022-11-20T10:25:01.000Z</time>
      </trkpt>
      <trkpt lat="37.07265167" lon="-3.37696167">
        <ele>2902.0</ele>
        <time>2022-11-20T10:25:02.000Z</time>
      </trkpt>
      <trkpt lat="37.07265167" lon="-3.37696167">
        <ele>2902.0</ele>
        <time>2022-11-20T10:25:03.000Z</time>
      </trkpt>
      <trkpt lat="37.07265333" lon="-3.37696167">
        <ele>2902.0</ele>
        <time>2022-11-20T10:25:04.000Z</time>
      </trkpt>
      <trkpt lat="37.07265167" lon="-3.37696167">
        <ele>2902.0</ele>
        <time>2022-11-20T10:25:05.000Z</time>
      </trkpt>
      <trkpt lat="37.07265167" lon="-3.37696167">
        <ele>2902.0</ele>
        <time>2022-11-20T10:25:06.000Z</time>
      </trkpt>
      <trkpt lat="37.07265333" lon="-3.37696167">
        <ele>2902.0</ele>
        <time>2022-11-20T10:25:07.000Z</time>
      </trkpt>
      <trkpt lat="37.07265333" lon="-3.37696167">
        <ele>2902.0</ele>
        <time>2022-11-20T10:25:08.000Z</time>
      </trkpt>
      <trkpt lat="37.07265333" lon="-3.37696167">
        <ele>2902.0</ele>
        <time>2022-11-20T10:25:09.000Z</time>
      </trkpt>
      <trkpt lat="37.07265333" lon="-3.37696167">
        <ele>2902.0</ele>
        <time>2022-11-20T10:25:10.000Z</time>
      </trkpt>
      <trkpt lat="37.07265333" lon="-3.37696167">
        <ele>2902.0</ele>
        <time>2022-11-20T10:25:11.000Z</time>
      </trkpt>
      <trkpt lat="37.07265333" lon="-3.376965">
        <ele>2902.0</ele>
        <time>2022-11-20T10:25:12.000Z</time>
      </trkpt>
      <trkpt lat="37.07265" lon="-3.37696333">
        <ele>2902.0</ele>
        <time>2022-11-20T10:25:13.000Z</time>
      </trkpt>
      <trkpt lat="37.072645" lon="-3.37696167">
        <ele>2902.0</ele>
        <time>2022-11-20T10:25:14.000Z</time>
      </trkpt>
      <trkpt lat="37.07263833" lon="-3.37695667">
        <ele>2902.0</ele>
        <time>2022-11-20T10:25:15.000Z</time>
      </trkpt>
      <trkpt lat="37.07263" lon="-3.37695333">
        <ele>2902.0</ele>
        <time>2022-11-20T10:25:16.000Z</time>
      </trkpt>
      <trkpt lat="37.07262167" lon="-3.37694833">
        <ele>2902.0</ele>
        <time>2022-11-20T10:25:17.000Z</time>
      </trkpt>
      <trkpt lat="37.072615" lon="-3.376945">
        <ele>2903.0</ele>
        <time>2022-11-20T10:25:18.000Z</time>
      </trkpt>
      <trkpt lat="37.072605" lon="-3.37694167">
        <ele>2903.0</ele>
        <time>2022-11-20T10:25:19.000Z</time>
      </trkpt>
      <trkpt lat="37.07259833" lon="-3.37694">
        <ele>2903.0</ele>
        <time>2022-11-20T10:25:20.000Z</time>
      </trkpt>
      <trkpt lat="37.07259167" lon="-3.37693833">
        <ele>2903.0</ele>
        <time>2022-11-20T10:25:21.000Z</time>
      </trkpt>
      <trkpt lat="37.07258333" lon="-3.37693667">
        <ele>2903.0</ele>
        <time>2022-11-20T10:25:22.000Z</time>
      </trkpt>
      <trkpt lat="37.072575" lon="-3.37693833">
        <ele>2903.0</ele>
        <time>2022-11-20T10:25:23.000Z</time>
      </trkpt>
      <trkpt lat="37.07257" lon="-3.37693833">
        <ele>2903.0</ele>
        <time>2022-11-20T10:25:24.000Z</time>
      </trkpt>
      <trkpt lat="37.07256333" lon="-3.37693667">
        <ele>2903.0</ele>
        <time>2022-11-20T10:25:25.000Z</time>
      </trkpt>
      <trkpt lat="37.072555" lon="-3.376935">
        <ele>2903.0</ele>
        <time>2022-11-20T10:25:26.000Z</time>
      </trkpt>
      <trkpt lat="37.07254833" lon="-3.37693333">
        <ele>2903.0</ele>
        <time>2022-11-20T10:25:27.000Z</time>
      </trkpt>
      <trkpt lat="37.07254167" lon="-3.37693167">
        <ele>2904.0</ele>
        <time>2022-11-20T10:25:28.000Z</time>
      </trkpt>
      <trkpt lat="37.07253333" lon="-3.37692833">
        <ele>2904.0</ele>
        <time>2022-11-20T10:25:29.000Z</time>
      </trkpt>
      <trkpt lat="37.07252667" lon="-3.376925">
        <ele>2904.0</ele>
        <time>2022-11-20T10:25:30.000Z</time>
      </trkpt>
      <trkpt lat="37.07252" lon="-3.37692167">
        <ele>2904.0</ele>
        <time>2022-11-20T10:25:31.000Z</time>
      </trkpt>
      <trkpt lat="37.07251167" lon="-3.37692167">
        <ele>2904.0</ele>
        <time>2022-11-20T10:25:32.000Z</time>
      </trkpt>
      <trkpt lat="37.07250667" lon="-3.37692">
        <ele>2904.0</ele>
        <time>2022-11-20T10:25:33.000Z</time>
      </trkpt>
      <trkpt lat="37.0725" lon="-3.37691833">
        <ele>2904.0</ele>
        <time>2022-11-20T10:25:34.000Z</time>
      </trkpt>
      <trkpt lat="37.07249167" lon="-3.37691667">
        <ele>2904.0</ele>
        <time>2022-11-20T10:25:35.000Z</time>
      </trkpt>
      <trkpt lat="37.072485" lon="-3.37691333">
        <ele>2904.0</ele>
        <time>2022-11-20T10:25:36.000Z</time>
      </trkpt>
      <trkpt lat="37.07248" lon="-3.37691">
        <ele>2904.0</ele>
        <time>2022-11-20T10:25:37.000Z</time>
      </trkpt>
      <trkpt lat="37.07247167" lon="-3.376905">
        <ele>2904.0</ele>
        <time>2022-11-20T10:25:38.000Z</time>
      </trkpt>
      <trkpt lat="37.07246667" lon="-3.37690333">
        <ele>2905.0</ele>
        <time>2022-11-20T10:25:39.000Z</time>
      </trkpt>
      <trkpt lat="37.07245833" lon="-3.3769">
        <ele>2905.0</ele>
        <time>2022-11-20T10:25:40.000Z</time>
      </trkpt>
      <trkpt lat="37.07245167" lon="-3.37689667">
        <ele>2905.0</ele>
        <time>2022-11-20T10:25:41.000Z</time>
      </trkpt>
      <trkpt lat="37.072445" lon="-3.376895">
        <ele>2905.0</ele>
        <time>2022-11-20T10:25:42.000Z</time>
      </trkpt>
      <trkpt lat="37.07243833" lon="-3.37689333">
        <ele>2905.0</ele>
        <time>2022-11-20T10:25:43.000Z</time>
      </trkpt>
      <trkpt lat="37.07243167" lon="-3.37689">
        <ele>2905.0</ele>
        <time>2022-11-20T10:25:44.000Z</time>
      </trkpt>
      <trkpt lat="37.072425" lon="-3.37688833">
        <ele>2905.0</ele>
        <time>2022-11-20T10:25:45.000Z</time>
      </trkpt>
      <trkpt lat="37.07242" lon="-3.37688667">
        <ele>2905.0</ele>
        <time>2022-11-20T10:25:46.000Z</time>
      </trkpt>
      <trkpt lat="37.07241333" lon="-3.37688333">
        <ele>2905.0</ele>
        <time>2022-11-20T10:25:47.000Z</time>
      </trkpt>
      <trkpt lat="37.072405" lon="-3.37688">
        <ele>2905.0</ele>
        <time>2022-11-20T10:25:48.000Z</time>
      </trkpt>
      <trkpt lat="37.07239667" lon="-3.37687667">
        <ele>2905.0</ele>
        <time>2022-11-20T10:25:49.000Z</time>
      </trkpt>
      <trkpt lat="37.07239167" lon="-3.376875">
        <ele>2906.0</ele>
        <time>2022-11-20T10:25:50.000Z</time>
      </trkpt>
      <trkpt lat="37.072385" lon="-3.376875">
        <ele>2906.0</ele>
        <time>2022-11-20T10:25:51.000Z</time>
      </trkpt>
      <trkpt lat="37.07238" lon="-3.37687667">
        <ele>2906.0</ele>
        <time>2022-11-20T10:25:52.000Z</time>
      </trkpt>
      <trkpt lat="37.072375" lon="-3.376875">
        <ele>2906.0</ele>
        <time>2022-11-20T10:25:53.000Z</time>
      </trkpt>
      <trkpt lat="37.07237333" lon="-3.37687333">
        <ele>2906.0</ele>
        <time>2022-11-20T10:25:54.000Z</time>
      </trkpt>
      <trkpt lat="37.072365" lon="-3.37687167">
        <ele>2906.0</ele>
        <time>2022-11-20T10:25:55.000Z</time>
      </trkpt>
      <trkpt lat="37.07236" lon="-3.37687333">
        <ele>2906.0</ele>
        <time>2022-11-20T10:25:56.000Z</time>
      </trkpt>
      <trkpt lat="37.07235667" lon="-3.37687">
        <ele>2907.0</ele>
        <time>2022-11-20T10:25:57.000Z</time>
      </trkpt>
      <trkpt lat="37.07234833" lon="-3.37686833">
        <ele>2907.0</ele>
        <time>2022-11-20T10:25:58.000Z</time>
      </trkpt>
      <trkpt lat="37.07234167" lon="-3.376865">
        <ele>2907.0</ele>
        <time>2022-11-20T10:25:59.000Z</time>
      </trkpt>
      <trkpt lat="37.07233667" lon="-3.37686167">
        <ele>2907.0</ele>
        <time>2022-11-20T10:26:00.000Z</time>
      </trkpt>
      <trkpt lat="37.07232833" lon="-3.37685833">
        <ele>2907.0</ele>
        <time>2022-11-20T10:26:01.000Z</time>
      </trkpt>
      <trkpt lat="37.07232333" lon="-3.37685667">
        <ele>2907.0</ele>
        <time>2022-11-20T10:26:02.000Z</time>
      </trkpt>
      <trkpt lat="37.072315" lon="-3.37685667">
        <ele>2908.0</ele>
        <time>2022-11-20T10:26:03.000Z</time>
      </trkpt>
      <trkpt lat="37.07231" lon="-3.37685667">
        <ele>2908.0</ele>
        <time>2022-11-20T10:26:04.000Z</time>
      </trkpt>
      <trkpt lat="37.07230667" lon="-3.37685667">
        <ele>2908.0</ele>
        <time>2022-11-20T10:26:05.000Z</time>
      </trkpt>
      <trkpt lat="37.0723" lon="-3.37685667">
        <ele>2908.0</ele>
        <time>2022-11-20T10:26:06.000Z</time>
      </trkpt>
      <trkpt lat="37.072295" lon="-3.37685833">
        <ele>2908.0</ele>
        <time>2022-11-20T10:26:07.000Z</time>
      </trkpt>
      <trkpt lat="37.07229" lon="-3.37685667">
        <ele>2908.0</ele>
        <time>2022-11-20T10:26:08.000Z</time>
      </trkpt>
      <trkpt lat="37.072285" lon="-3.37685333">
        <ele>2908.0</ele>
        <time>2022-11-20T10:26:09.000Z</time>
      </trkpt>
      <trkpt lat="37.07228" lon="-3.37685333">
        <ele>2908.0</ele>
        <time>2022-11-20T10:26:10.000Z</time>
      </trkpt>
      <trkpt lat="37.072275" lon="-3.37685">
        <ele>2908.0</ele>
        <time>2022-11-20T10:26:11.000Z</time>
      </trkpt>
      <trkpt lat="37.07227" lon="-3.37684833">
        <ele>2909.0</ele>
        <time>2022-11-20T10:26:12.000Z</time>
      </trkpt>
      <trkpt lat="37.072265" lon="-3.37684667">
        <ele>2909.0</ele>
        <time>2022-11-20T10:26:13.000Z</time>
      </trkpt>
      <trkpt lat="37.07226" lon="-3.37684333">
        <ele>2909.0</ele>
        <time>2022-11-20T10:26:14.000Z</time>
      </trkpt>
      <trkpt lat="37.07225333" lon="-3.37683833">
        <ele>2909.0</ele>
        <time>2022-11-20T10:26:15.000Z</time>
      </trkpt>
      <trkpt lat="37.07224667" lon="-3.37683667">
        <ele>2909.0</ele>
        <time>2022-11-20T10:26:16.000Z</time>
      </trkpt>
      <trkpt lat="37.07224" lon="-3.37683667">
        <ele>2909.0</ele>
        <time>2022-11-20T10:26:17.000Z</time>
      </trkpt>
      <trkpt lat="37.07223167" lon="-3.37683667">
        <ele>2909.0</ele>
        <time>2022-11-20T10:26:18.000Z</time>
      </trkpt>
      <trkpt lat="37.07222167" lon="-3.376835">
        <ele>2909.0</ele>
        <time>2022-11-20T10:26:19.000Z</time>
      </trkpt>
      <trkpt lat="37.07221333" lon="-3.376835">
        <ele>2909.0</ele>
        <time>2022-11-20T10:26:20.000Z</time>
      </trkpt>
      <trkpt lat="37.07220333" lon="-3.376835">
        <ele>2909.0</ele>
        <time>2022-11-20T10:26:21.000Z</time>
      </trkpt>
      <trkpt lat="37.07219333" lon="-3.37683333">
        <ele>2910.0</ele>
        <time>2022-11-20T10:26:22.000Z</time>
      </trkpt>
      <trkpt lat="37.072185" lon="-3.37683">
        <ele>2910.0</ele>
        <time>2022-11-20T10:26:23.000Z</time>
      </trkpt>
      <trkpt lat="37.07217667" lon="-3.37682667">
        <ele>2910.0</ele>
        <time>2022-11-20T10:26:24.000Z</time>
      </trkpt>
      <trkpt lat="37.07217" lon="-3.37682333">
        <ele>2910.0</ele>
        <time>2022-11-20T10:26:25.000Z</time>
      </trkpt>
      <trkpt lat="37.07216167" lon="-3.37682">
        <ele>2910.0</ele>
        <time>2022-11-20T10:26:26.000Z</time>
      </trkpt>
      <trkpt lat="37.07215333" lon="-3.37681667">
        <ele>2910.0</ele>
        <time>2022-11-20T10:26:27.000Z</time>
      </trkpt>
      <trkpt lat="37.07214667" lon="-3.37681333">
        <ele>2910.0</ele>
        <time>2022-11-20T10:26:28.000Z</time>
      </trkpt>
      <trkpt lat="37.07213833" lon="-3.37681">
        <ele>2910.0</ele>
        <time>2022-11-20T10:26:29.000Z</time>
      </trkpt>
      <trkpt lat="37.07213167" lon="-3.37680667">
        <ele>2910.0</ele>
        <time>2022-11-20T10:26:30.000Z</time>
      </trkpt>
      <trkpt lat="37.072125" lon="-3.376805">
        <ele>2910.0</ele>
        <time>2022-11-20T10:26:31.000Z</time>
      </trkpt>
      <trkpt lat="37.07211667" lon="-3.37680333">
        <ele>2910.0</ele>
        <time>2022-11-20T10:26:32.000Z</time>
      </trkpt>
      <trkpt lat="37.07211" lon="-3.37680167">
        <ele>2910.0</ele>
        <time>2022-11-20T10:26:33.000Z</time>
      </trkpt>
      <trkpt lat="37.07210333" lon="-3.3768">
        <ele>2910.0</ele>
        <time>2022-11-20T10:26:34.000Z</time>
      </trkpt>
      <trkpt lat="37.07209833" lon="-3.37679833">
        <ele>2911.0</ele>
        <time>2022-11-20T10:26:35.000Z</time>
      </trkpt>
      <trkpt lat="37.07209333" lon="-3.376795">
        <ele>2911.0</ele>
        <time>2022-11-20T10:26:36.000Z</time>
      </trkpt>
      <trkpt lat="37.072085" lon="-3.37678833">
        <ele>2911.0</ele>
        <time>2022-11-20T10:26:37.000Z</time>
      </trkpt>
      <trkpt lat="37.07208" lon="-3.37678667">
        <ele>2911.0</ele>
        <time>2022-11-20T10:26:38.000Z</time>
      </trkpt>
      <trkpt lat="37.072075" lon="-3.37678667">
        <ele>2911.0</ele>
        <time>2022-11-20T10:26:39.000Z</time>
      </trkpt>
      <trkpt lat="37.07206667" lon="-3.376785">
        <ele>2911.0</ele>
        <time>2022-11-20T10:26:40.000Z</time>
      </trkpt>
      <trkpt lat="37.07206" lon="-3.37678333">
        <ele>2911.0</ele>
        <time>2022-11-20T10:26:41.000Z</time>
      </trkpt>
      <trkpt lat="37.07205333" lon="-3.37678333">
        <ele>2911.0</ele>
        <time>2022-11-20T10:26:42.000Z</time>
      </trkpt>
      <trkpt lat="37.07204833" lon="-3.37678333">
        <ele>2911.0</ele>
        <time>2022-11-20T10:26:43.000Z</time>
      </trkpt>
      <trkpt lat="37.07204167" lon="-3.37678167">
        <ele>2911.0</ele>
        <time>2022-11-20T10:26:44.000Z</time>
      </trkpt>
      <trkpt lat="37.072035" lon="-3.37678333">
        <ele>2912.0</ele>
        <time>2022-11-20T10:26:45.000Z</time>
      </trkpt>
      <trkpt lat="37.07203167" lon="-3.37678333">
        <ele>2912.0</ele>
        <time>2022-11-20T10:26:46.000Z</time>
      </trkpt>
      <trkpt lat="37.07203" lon="-3.376785">
        <ele>2912.0</ele>
        <time>2022-11-20T10:26:47.000Z</time>
      </trkpt>
      <trkpt lat="37.07203" lon="-3.376785">
        <ele>2912.0</ele>
        <time>2022-11-20T10:26:48.000Z</time>
      </trkpt>
      <trkpt lat="37.07202833" lon="-3.376785">
        <ele>2912.0</ele>
        <time>2022-11-20T10:26:49.000Z</time>
      </trkpt>
      <trkpt lat="37.072025" lon="-3.376785">
        <ele>2912.0</ele>
        <time>2022-11-20T10:26:50.000Z</time>
      </trkpt>
      <trkpt lat="37.07202" lon="-3.37678833">
        <ele>2912.0</ele>
        <time>2022-11-20T10:26:51.000Z</time>
      </trkpt>
      <trkpt lat="37.07201167" lon="-3.37678833">
        <ele>2912.0</ele>
        <time>2022-11-20T10:26:52.000Z</time>
      </trkpt>
      <trkpt lat="37.07200333" lon="-3.37678833">
        <ele>2912.0</ele>
        <time>2022-11-20T10:26:53.000Z</time>
      </trkpt>
      <trkpt lat="37.07199667" lon="-3.37678833">
        <ele>2912.0</ele>
        <time>2022-11-20T10:26:54.000Z</time>
      </trkpt>
      <trkpt lat="37.07199" lon="-3.37678667">
        <ele>2912.0</ele>
        <time>2022-11-20T10:26:55.000Z</time>
      </trkpt>
      <trkpt lat="37.07198167" lon="-3.37678333">
        <ele>2912.0</ele>
        <time>2022-11-20T10:26:56.000Z</time>
      </trkpt>
      <trkpt lat="37.07197667" lon="-3.37678">
        <ele>2912.0</ele>
        <time>2022-11-20T10:26:57.000Z</time>
      </trkpt>
      <trkpt lat="37.07197167" lon="-3.37677333">
        <ele>2913.0</ele>
        <time>2022-11-20T10:26:58.000Z</time>
      </trkpt>
      <trkpt lat="37.07196667" lon="-3.37676833">
        <ele>2913.0</ele>
        <time>2022-11-20T10:26:59.000Z</time>
      </trkpt>
      <trkpt lat="37.07196333" lon="-3.37676333">
        <ele>2913.0</ele>
        <time>2022-11-20T10:27:00.000Z</time>
      </trkpt>
      <trkpt lat="37.07196" lon="-3.37675833">
        <ele>2913.0</ele>
        <time>2022-11-20T10:27:01.000Z</time>
      </trkpt>
      <trkpt lat="37.07195167" lon="-3.37675167">
        <ele>2913.0</ele>
        <time>2022-11-20T10:27:02.000Z</time>
      </trkpt>
      <trkpt lat="37.07194667" lon="-3.37674667">
        <ele>2914.0</ele>
        <time>2022-11-20T10:27:03.000Z</time>
      </trkpt>
      <trkpt lat="37.07194167" lon="-3.376745">
        <ele>2914.0</ele>
        <time>2022-11-20T10:27:04.000Z</time>
      </trkpt>
      <trkpt lat="37.071935" lon="-3.37674167">
        <ele>2914.0</ele>
        <time>2022-11-20T10:27:05.000Z</time>
      </trkpt>
      <trkpt lat="37.07193" lon="-3.37673833">
        <ele>2914.0</ele>
        <time>2022-11-20T10:27:06.000Z</time>
      </trkpt>
      <trkpt lat="37.071925" lon="-3.376735">
        <ele>2915.0</ele>
        <time>2022-11-20T10:27:07.000Z</time>
      </trkpt>
      <trkpt lat="37.07191833" lon="-3.37673">
        <ele>2915.0</ele>
        <time>2022-11-20T10:27:08.000Z</time>
      </trkpt>
      <trkpt lat="37.07191333" lon="-3.37672667">
        <ele>2915.0</ele>
        <time>2022-11-20T10:27:09.000Z</time>
      </trkpt>
      <trkpt lat="37.07190833" lon="-3.37672167">
        <ele>2915.0</ele>
        <time>2022-11-20T10:27:10.000Z</time>
      </trkpt>
      <trkpt lat="37.07190333" lon="-3.37671667">
        <ele>2915.0</ele>
        <time>2022-11-20T10:27:11.000Z</time>
      </trkpt>
      <trkpt lat="37.07189833" lon="-3.37671167">
        <ele>2915.0</ele>
        <time>2022-11-20T10:27:12.000Z</time>
      </trkpt>
      <trkpt lat="37.07189333" lon="-3.37670667">
        <ele>2916.0</ele>
        <time>2022-11-20T10:27:13.000Z</time>
      </trkpt>
      <trkpt lat="37.07189" lon="-3.37670167">
        <ele>2916.0</ele>
        <time>2022-11-20T10:27:14.000Z</time>
      </trkpt>
      <trkpt lat="37.07188333" lon="-3.37669667">
        <ele>2916.0</ele>
        <time>2022-11-20T10:27:15.000Z</time>
      </trkpt>
      <trkpt lat="37.07188" lon="-3.37669167">
        <ele>2916.0</ele>
        <time>2022-11-20T10:27:16.000Z</time>
      </trkpt>
      <trkpt lat="37.07187333" lon="-3.37668667">
        <ele>2916.0</ele>
        <time>2022-11-20T10:27:17.000Z</time>
      </trkpt>
      <trkpt lat="37.07186833" lon="-3.37668167">
        <ele>2916.0</ele>
        <time>2022-11-20T10:27:18.000Z</time>
      </trkpt>
      <trkpt lat="37.07186333" lon="-3.37667667">
        <ele>2916.0</ele>
        <time>2022-11-20T10:27:19.000Z</time>
      </trkpt>
      <trkpt lat="37.07185667" lon="-3.37667167">
        <ele>2916.0</ele>
        <time>2022-11-20T10:27:20.000Z</time>
      </trkpt>
      <trkpt lat="37.07184833" lon="-3.37666667">
        <ele>2916.0</ele>
        <time>2022-11-20T10:27:21.000Z</time>
      </trkpt>
      <trkpt lat="37.07184167" lon="-3.37666167">
        <ele>2916.0</ele>
        <time>2022-11-20T10:27:22.000Z</time>
      </trkpt>
      <trkpt lat="37.071835" lon="-3.37665833">
        <ele>2916.0</ele>
        <time>2022-11-20T10:27:23.000Z</time>
      </trkpt>
      <trkpt lat="37.07182667" lon="-3.37665333">
        <ele>2916.0</ele>
        <time>2022-11-20T10:27:24.000Z</time>
      </trkpt>
      <trkpt lat="37.07182" lon="-3.37665">
        <ele>2916.0</ele>
        <time>2022-11-20T10:27:25.000Z</time>
      </trkpt>
      <trkpt lat="37.07181167" lon="-3.37664667">
        <ele>2916.0</ele>
        <time>2022-11-20T10:27:26.000Z</time>
      </trkpt>
      <trkpt lat="37.07180333" lon="-3.37664333">
        <ele>2916.0</ele>
        <time>2022-11-20T10:27:27.000Z</time>
      </trkpt>
      <trkpt lat="37.071795" lon="-3.37664167">
        <ele>2917.0</ele>
        <time>2022-11-20T10:27:28.000Z</time>
      </trkpt>
      <trkpt lat="37.07178667" lon="-3.37663833">
        <ele>2917.0</ele>
        <time>2022-11-20T10:27:29.000Z</time>
      </trkpt>
      <trkpt lat="37.07177667" lon="-3.37663667">
        <ele>2917.0</ele>
        <time>2022-11-20T10:27:30.000Z</time>
      </trkpt>
      <trkpt lat="37.07176833" lon="-3.376635">
        <ele>2917.0</ele>
        <time>2022-11-20T10:27:31.000Z</time>
      </trkpt>
      <trkpt lat="37.07176" lon="-3.37663333">
        <ele>2917.0</ele>
        <time>2022-11-20T10:27:32.000Z</time>
      </trkpt>
      <trkpt lat="37.07175333" lon="-3.37663333">
        <ele>2917.0</ele>
        <time>2022-11-20T10:27:33.000Z</time>
      </trkpt>
      <trkpt lat="37.071745" lon="-3.37663333">
        <ele>2917.0</ele>
        <time>2022-11-20T10:27:34.000Z</time>
      </trkpt>
      <trkpt lat="37.07173833" lon="-3.37663333">
        <ele>2917.0</ele>
        <time>2022-11-20T10:27:35.000Z</time>
      </trkpt>
      <trkpt lat="37.07173167" lon="-3.37663333">
        <ele>2917.0</ele>
        <time>2022-11-20T10:27:36.000Z</time>
      </trkpt>
      <trkpt lat="37.07172167" lon="-3.37663333">
        <ele>2917.0</ele>
        <time>2022-11-20T10:27:37.000Z</time>
      </trkpt>
      <trkpt lat="37.071715" lon="-3.37663333">
        <ele>2917.0</ele>
        <time>2022-11-20T10:27:38.000Z</time>
      </trkpt>
      <trkpt lat="37.07170833" lon="-3.37663333">
        <ele>2917.0</ele>
        <time>2022-11-20T10:27:39.000Z</time>
      </trkpt>
      <trkpt lat="37.0717" lon="-3.37663333">
        <ele>2917.0</ele>
        <time>2022-11-20T10:27:40.000Z</time>
      </trkpt>
      <trkpt lat="37.07169167" lon="-3.37663333">
        <ele>2917.0</ele>
        <time>2022-11-20T10:27:41.000Z</time>
      </trkpt>
      <trkpt lat="37.071685" lon="-3.37663667">
        <ele>2917.0</ele>
        <time>2022-11-20T10:27:42.000Z</time>
      </trkpt>
      <trkpt lat="37.07167667" lon="-3.37663667">
        <ele>2917.0</ele>
        <time>2022-11-20T10:27:43.000Z</time>
      </trkpt>
      <trkpt lat="37.07166833" lon="-3.37663667">
        <ele>2917.0</ele>
        <time>2022-11-20T10:27:44.000Z</time>
      </trkpt>
      <trkpt lat="37.07166" lon="-3.37663833">
        <ele>2917.0</ele>
        <time>2022-11-20T10:27:45.000Z</time>
      </trkpt>
      <trkpt lat="37.07165167" lon="-3.37663667">
        <ele>2917.0</ele>
        <time>2022-11-20T10:27:46.000Z</time>
      </trkpt>
      <trkpt lat="37.071645" lon="-3.37663667">
        <ele>2917.0</ele>
        <time>2022-11-20T10:27:47.000Z</time>
      </trkpt>
      <trkpt lat="37.07163667" lon="-3.37663333">
        <ele>2917.0</ele>
        <time>2022-11-20T10:27:48.000Z</time>
      </trkpt>
      <trkpt lat="37.07162833" lon="-3.37663">
        <ele>2917.0</ele>
        <time>2022-11-20T10:27:49.000Z</time>
      </trkpt>
      <trkpt lat="37.07162167" lon="-3.37662833">
        <ele>2917.0</ele>
        <time>2022-11-20T10:27:50.000Z</time>
      </trkpt>
      <trkpt lat="37.071615" lon="-3.37662667">
        <ele>2917.0</ele>
        <time>2022-11-20T10:27:51.000Z</time>
      </trkpt>
      <trkpt lat="37.07160667" lon="-3.37662333">
        <ele>2917.0</ele>
        <time>2022-11-20T10:27:52.000Z</time>
      </trkpt>
      <trkpt lat="37.0716" lon="-3.37662">
        <ele>2917.0</ele>
        <time>2022-11-20T10:27:53.000Z</time>
      </trkpt>
      <trkpt lat="37.07159333" lon="-3.37661667">
        <ele>2917.0</ele>
        <time>2022-11-20T10:27:54.000Z</time>
      </trkpt>
      <trkpt lat="37.07158667" lon="-3.37661333">
        <ele>2918.0</ele>
        <time>2022-11-20T10:27:55.000Z</time>
      </trkpt>
      <trkpt lat="37.07158" lon="-3.37661167">
        <ele>2918.0</ele>
        <time>2022-11-20T10:27:56.000Z</time>
      </trkpt>
      <trkpt lat="37.071575" lon="-3.37660833">
        <ele>2918.0</ele>
        <time>2022-11-20T10:27:57.000Z</time>
      </trkpt>
      <trkpt lat="37.07156833" lon="-3.37660333">
        <ele>2918.0</ele>
        <time>2022-11-20T10:27:58.000Z</time>
      </trkpt>
      <trkpt lat="37.07156167" lon="-3.3766">
        <ele>2918.0</ele>
        <time>2022-11-20T10:27:59.000Z</time>
      </trkpt>
      <trkpt lat="37.071555" lon="-3.37659667">
        <ele>2918.0</ele>
        <time>2022-11-20T10:28:00.000Z</time>
      </trkpt>
      <trkpt lat="37.07155" lon="-3.37659333">
        <ele>2918.0</ele>
        <time>2022-11-20T10:28:01.000Z</time>
      </trkpt>
      <trkpt lat="37.07154333" lon="-3.37659167">
        <ele>2918.0</ele>
        <time>2022-11-20T10:28:02.000Z</time>
      </trkpt>
      <trkpt lat="37.071535" lon="-3.37658833">
        <ele>2919.0</ele>
        <time>2022-11-20T10:28:03.000Z</time>
      </trkpt>
      <trkpt lat="37.07152833" lon="-3.37658667">
        <ele>2919.0</ele>
        <time>2022-11-20T10:28:04.000Z</time>
      </trkpt>
      <trkpt lat="37.07152167" lon="-3.37658333">
        <ele>2919.0</ele>
        <time>2022-11-20T10:28:05.000Z</time>
      </trkpt>
      <trkpt lat="37.07151333" lon="-3.37658333">
        <ele>2919.0</ele>
        <time>2022-11-20T10:28:06.000Z</time>
      </trkpt>
      <trkpt lat="37.071505" lon="-3.37658333">
        <ele>2919.0</ele>
        <time>2022-11-20T10:28:07.000Z</time>
      </trkpt>
      <trkpt lat="37.07149667" lon="-3.37658333">
        <ele>2919.0</ele>
        <time>2022-11-20T10:28:08.000Z</time>
      </trkpt>
      <trkpt lat="37.07148833" lon="-3.37658333">
        <ele>2919.0</ele>
        <time>2022-11-20T10:28:09.000Z</time>
      </trkpt>
      <trkpt lat="37.07148" lon="-3.376585">
        <ele>2919.0</ele>
        <time>2022-11-20T10:28:10.000Z</time>
      </trkpt>
      <trkpt lat="37.07147" lon="-3.37658667">
        <ele>2918.0</ele>
        <time>2022-11-20T10:28:11.000Z</time>
      </trkpt>
      <trkpt lat="37.07145833" lon="-3.37658833">
        <ele>2918.0</ele>
        <time>2022-11-20T10:28:12.000Z</time>
      </trkpt>
      <trkpt lat="37.07144833" lon="-3.37658833">
        <ele>2918.0</ele>
        <time>2022-11-20T10:28:13.000Z</time>
      </trkpt>
      <trkpt lat="37.07143833" lon="-3.37658667">
        <ele>2918.0</ele>
        <time>2022-11-20T10:28:14.000Z</time>
      </trkpt>
      <trkpt lat="37.07143" lon="-3.37658333">
        <ele>2918.0</ele>
        <time>2022-11-20T10:28:15.000Z</time>
      </trkpt>
      <trkpt lat="37.07142167" lon="-3.37658">
        <ele>2918.0</ele>
        <time>2022-11-20T10:28:16.000Z</time>
      </trkpt>
      <trkpt lat="37.071415" lon="-3.37657833">
        <ele>2918.0</ele>
        <time>2022-11-20T10:28:17.000Z</time>
      </trkpt>
      <trkpt lat="37.07141" lon="-3.37657667">
        <ele>2918.0</ele>
        <time>2022-11-20T10:28:18.000Z</time>
      </trkpt>
      <trkpt lat="37.07140167" lon="-3.376575">
        <ele>2918.0</ele>
        <time>2022-11-20T10:28:19.000Z</time>
      </trkpt>
      <trkpt lat="37.07139167" lon="-3.37657167">
        <ele>2918.0</ele>
        <time>2022-11-20T10:28:20.000Z</time>
      </trkpt>
      <trkpt lat="37.07138333" lon="-3.37657">
        <ele>2918.0</ele>
        <time>2022-11-20T10:28:21.000Z</time>
      </trkpt>
      <trkpt lat="37.071375" lon="-3.37656833">
        <ele>2919.0</ele>
        <time>2022-11-20T10:28:22.000Z</time>
      </trkpt>
      <trkpt lat="37.071365" lon="-3.376565">
        <ele>2919.0</ele>
        <time>2022-11-20T10:28:23.000Z</time>
      </trkpt>
      <trkpt lat="37.07135333" lon="-3.37656333">
        <ele>2919.0</ele>
        <time>2022-11-20T10:28:24.000Z</time>
      </trkpt>
      <trkpt lat="37.07134333" lon="-3.37656167">
        <ele>2919.0</ele>
        <time>2022-11-20T10:28:25.000Z</time>
      </trkpt>
      <trkpt lat="37.07133333" lon="-3.37656167">
        <ele>2918.0</ele>
        <time>2022-11-20T10:28:26.000Z</time>
      </trkpt>
      <trkpt lat="37.07132333" lon="-3.37655833">
        <ele>2918.0</ele>
        <time>2022-11-20T10:28:27.000Z</time>
      </trkpt>
      <trkpt lat="37.07131167" lon="-3.37655667">
        <ele>2918.0</ele>
        <time>2022-11-20T10:28:28.000Z</time>
      </trkpt>
      <trkpt lat="37.07130167" lon="-3.376555">
        <ele>2918.0</ele>
        <time>2022-11-20T10:28:29.000Z</time>
      </trkpt>
      <trkpt lat="37.07129167" lon="-3.376555">
        <ele>2918.0</ele>
        <time>2022-11-20T10:28:30.000Z</time>
      </trkpt>
      <trkpt lat="37.07128333" lon="-3.37655333">
        <ele>2919.0</ele>
        <time>2022-11-20T10:28:31.000Z</time>
      </trkpt>
      <trkpt lat="37.071275" lon="-3.37655167">
        <ele>2919.0</ele>
        <time>2022-11-20T10:28:32.000Z</time>
      </trkpt>
      <trkpt lat="37.07126667" lon="-3.37655">
        <ele>2919.0</ele>
        <time>2022-11-20T10:28:33.000Z</time>
      </trkpt>
      <trkpt lat="37.07125667" lon="-3.37654833">
        <ele>2919.0</ele>
        <time>2022-11-20T10:28:34.000Z</time>
      </trkpt>
      <trkpt lat="37.07124667" lon="-3.37654833">
        <ele>2919.0</ele>
        <time>2022-11-20T10:28:35.000Z</time>
      </trkpt>
      <trkpt lat="37.07123667" lon="-3.37654833">
        <ele>2918.0</ele>
        <time>2022-11-20T10:28:36.000Z</time>
      </trkpt>
      <trkpt lat="37.07122833" lon="-3.37654833">
        <ele>2918.0</ele>
        <time>2022-11-20T10:28:37.000Z</time>
      </trkpt>
      <trkpt lat="37.07121833" lon="-3.37654833">
        <ele>2918.0</ele>
        <time>2022-11-20T10:28:38.000Z</time>
      </trkpt>
      <trkpt lat="37.07120833" lon="-3.37654833">
        <ele>2918.0</ele>
        <time>2022-11-20T10:28:39.000Z</time>
      </trkpt>
      <trkpt lat="37.07119667" lon="-3.37654833">
        <ele>2918.0</ele>
        <time>2022-11-20T10:28:40.000Z</time>
      </trkpt>
      <trkpt lat="37.07118833" lon="-3.37654667">
        <ele>2918.0</ele>
        <time>2022-11-20T10:28:41.000Z</time>
      </trkpt>
      <trkpt lat="37.07117833" lon="-3.376545">
        <ele>2918.0</ele>
        <time>2022-11-20T10:28:42.000Z</time>
      </trkpt>
      <trkpt lat="37.07117" lon="-3.37654333">
        <ele>2918.0</ele>
        <time>2022-11-20T10:28:43.000Z</time>
      </trkpt>
      <trkpt lat="37.07116" lon="-3.37654167">
        <ele>2918.0</ele>
        <time>2022-11-20T10:28:44.000Z</time>
      </trkpt>
      <trkpt lat="37.07115167" lon="-3.37654">
        <ele>2918.0</ele>
        <time>2022-11-20T10:28:45.000Z</time>
      </trkpt>
      <trkpt lat="37.07114167" lon="-3.37654">
        <ele>2918.0</ele>
        <time>2022-11-20T10:28:46.000Z</time>
      </trkpt>
      <trkpt lat="37.07113333" lon="-3.37654167">
        <ele>2918.0</ele>
        <time>2022-11-20T10:28:47.000Z</time>
      </trkpt>
      <trkpt lat="37.071125" lon="-3.37654167">
        <ele>2918.0</ele>
        <time>2022-11-20T10:28:48.000Z</time>
      </trkpt>
      <trkpt lat="37.071115" lon="-3.37654167">
        <ele>2918.0</ele>
        <time>2022-11-20T10:28:49.000Z</time>
      </trkpt>
      <trkpt lat="37.07110667" lon="-3.37654167">
        <ele>2918.0</ele>
        <time>2022-11-20T10:28:50.000Z</time>
      </trkpt>
      <trkpt lat="37.07109833" lon="-3.37654167">
        <ele>2918.0</ele>
        <time>2022-11-20T10:28:51.000Z</time>
      </trkpt>
      <trkpt lat="37.07109167" lon="-3.37654">
        <ele>2918.0</ele>
        <time>2022-11-20T10:28:52.000Z</time>
      </trkpt>
      <trkpt lat="37.07108333" lon="-3.37653833">
        <ele>2918.0</ele>
        <time>2022-11-20T10:28:53.000Z</time>
      </trkpt>
      <trkpt lat="37.071075" lon="-3.37654">
        <ele>2918.0</ele>
        <time>2022-11-20T10:28:54.000Z</time>
      </trkpt>
      <trkpt lat="37.07106833" lon="-3.37653833">
        <ele>2918.0</ele>
        <time>2022-11-20T10:28:55.000Z</time>
      </trkpt>
      <trkpt lat="37.07106167" lon="-3.37653833">
        <ele>2918.0</ele>
        <time>2022-11-20T10:28:56.000Z</time>
      </trkpt>
      <trkpt lat="37.07105333" lon="-3.37653833">
        <ele>2918.0</ele>
        <time>2022-11-20T10:28:57.000Z</time>
      </trkpt>
      <trkpt lat="37.07104333" lon="-3.37653833">
        <ele>2918.0</ele>
        <time>2022-11-20T10:28:58.000Z</time>
      </trkpt>
      <trkpt lat="37.071035" lon="-3.37653833">
        <ele>2918.0</ele>
        <time>2022-11-20T10:28:59.000Z</time>
      </trkpt>
      <trkpt lat="37.07102667" lon="-3.37653667">
        <ele>2918.0</ele>
        <time>2022-11-20T10:29:00.000Z</time>
      </trkpt>
      <trkpt lat="37.07101667" lon="-3.376535">
        <ele>2918.0</ele>
        <time>2022-11-20T10:29:01.000Z</time>
      </trkpt>
      <trkpt lat="37.07100667" lon="-3.37653333">
        <ele>2918.0</ele>
        <time>2022-11-20T10:29:02.000Z</time>
      </trkpt>
      <trkpt lat="37.070995" lon="-3.37653">
        <ele>2919.0</ele>
        <time>2022-11-20T10:29:03.000Z</time>
      </trkpt>
      <trkpt lat="37.07098667" lon="-3.37652667">
        <ele>2919.0</ele>
        <time>2022-11-20T10:29:04.000Z</time>
      </trkpt>
      <trkpt lat="37.07097833" lon="-3.37652167">
        <ele>2919.0</ele>
        <time>2022-11-20T10:29:05.000Z</time>
      </trkpt>
      <trkpt lat="37.07096833" lon="-3.37651833">
        <ele>2919.0</ele>
        <time>2022-11-20T10:29:06.000Z</time>
      </trkpt>
      <trkpt lat="37.07095833" lon="-3.376515">
        <ele>2919.0</ele>
        <time>2022-11-20T10:29:07.000Z</time>
      </trkpt>
      <trkpt lat="37.07094833" lon="-3.37651333">
        <ele>2919.0</ele>
        <time>2022-11-20T10:29:08.000Z</time>
      </trkpt>
      <trkpt lat="37.07093833" lon="-3.37651167">
        <ele>2919.0</ele>
        <time>2022-11-20T10:29:09.000Z</time>
      </trkpt>
      <trkpt lat="37.07092833" lon="-3.37650833">
        <ele>2919.0</ele>
        <time>2022-11-20T10:29:10.000Z</time>
      </trkpt>
      <trkpt lat="37.07092" lon="-3.37650833">
        <ele>2919.0</ele>
        <time>2022-11-20T10:29:11.000Z</time>
      </trkpt>
      <trkpt lat="37.07091167" lon="-3.37650833">
        <ele>2919.0</ele>
        <time>2022-11-20T10:29:12.000Z</time>
      </trkpt>
      <trkpt lat="37.07090333" lon="-3.37650833">
        <ele>2919.0</ele>
        <time>2022-11-20T10:29:13.000Z</time>
      </trkpt>
      <trkpt lat="37.070895" lon="-3.37650667">
        <ele>2919.0</ele>
        <time>2022-11-20T10:29:14.000Z</time>
      </trkpt>
      <trkpt lat="37.07088667" lon="-3.37650667">
        <ele>2919.0</ele>
        <time>2022-11-20T10:29:15.000Z</time>
      </trkpt>
      <trkpt lat="37.07088" lon="-3.37650833">
        <ele>2919.0</ele>
        <time>2022-11-20T10:29:16.000Z</time>
      </trkpt>
      <trkpt lat="37.07087167" lon="-3.37651">
        <ele>2919.0</ele>
        <time>2022-11-20T10:29:17.000Z</time>
      </trkpt>
      <trkpt lat="37.070865" lon="-3.37651333">
        <ele>2919.0</ele>
        <time>2022-11-20T10:29:18.000Z</time>
      </trkpt>
      <trkpt lat="37.07085667" lon="-3.37651667">
        <ele>2919.0</ele>
        <time>2022-11-20T10:29:19.000Z</time>
      </trkpt>
      <trkpt lat="37.07084667" lon="-3.37652167">
        <ele>2919.0</ele>
        <time>2022-11-20T10:29:20.000Z</time>
      </trkpt>
      <trkpt lat="37.07083667" lon="-3.37652">
        <ele>2919.0</ele>
        <time>2022-11-20T10:29:21.000Z</time>
      </trkpt>
      <trkpt lat="37.07082833" lon="-3.37651667">
        <ele>2919.0</ele>
        <time>2022-11-20T10:29:22.000Z</time>
      </trkpt>
      <trkpt lat="37.07081833" lon="-3.376515">
        <ele>2919.0</ele>
        <time>2022-11-20T10:29:23.000Z</time>
      </trkpt>
      <trkpt lat="37.07080833" lon="-3.37651333">
        <ele>2919.0</ele>
        <time>2022-11-20T10:29:24.000Z</time>
      </trkpt>
      <trkpt lat="37.0708" lon="-3.37651167">
        <ele>2919.0</ele>
        <time>2022-11-20T10:29:25.000Z</time>
      </trkpt>
      <trkpt lat="37.07078833" lon="-3.37651167">
        <ele>2920.0</ele>
        <time>2022-11-20T10:29:26.000Z</time>
      </trkpt>
      <trkpt lat="37.07077667" lon="-3.37651167">
        <ele>2920.0</ele>
        <time>2022-11-20T10:29:27.000Z</time>
      </trkpt>
      <trkpt lat="37.07076833" lon="-3.37651">
        <ele>2920.0</ele>
        <time>2022-11-20T10:29:28.000Z</time>
      </trkpt>
      <trkpt lat="37.07075833" lon="-3.37650833">
        <ele>2920.0</ele>
        <time>2022-11-20T10:29:29.000Z</time>
      </trkpt>
      <trkpt lat="37.07075" lon="-3.37650667">
        <ele>2920.0</ele>
        <time>2022-11-20T10:29:30.000Z</time>
      </trkpt>
      <trkpt lat="37.07074" lon="-3.3765">
        <ele>2920.0</ele>
        <time>2022-11-20T10:29:31.000Z</time>
      </trkpt>
      <trkpt lat="37.07073167" lon="-3.376495">
        <ele>2920.0</ele>
        <time>2022-11-20T10:29:32.000Z</time>
      </trkpt>
      <trkpt lat="37.07072333" lon="-3.37649167">
        <ele>2920.0</ele>
        <time>2022-11-20T10:29:33.000Z</time>
      </trkpt>
      <trkpt lat="37.07071667" lon="-3.37648667">
        <ele>2920.0</ele>
        <time>2022-11-20T10:29:34.000Z</time>
      </trkpt>
      <trkpt lat="37.07070833" lon="-3.376485">
        <ele>2920.0</ele>
        <time>2022-11-20T10:29:35.000Z</time>
      </trkpt>
      <trkpt lat="37.0707" lon="-3.37648">
        <ele>2920.0</ele>
        <time>2022-11-20T10:29:36.000Z</time>
      </trkpt>
      <trkpt lat="37.07069167" lon="-3.37647667">
        <ele>2920.0</ele>
        <time>2022-11-20T10:29:37.000Z</time>
      </trkpt>
      <trkpt lat="37.070685" lon="-3.37647167">
        <ele>2920.0</ele>
        <time>2022-11-20T10:29:38.000Z</time>
      </trkpt>
      <trkpt lat="37.07067833" lon="-3.37646833">
        <ele>2920.0</ele>
        <time>2022-11-20T10:29:39.000Z</time>
      </trkpt>
      <trkpt lat="37.07067" lon="-3.37646667">
        <ele>2921.0</ele>
        <time>2022-11-20T10:29:40.000Z</time>
      </trkpt>
      <trkpt lat="37.070665" lon="-3.376465">
        <ele>2921.0</ele>
        <time>2022-11-20T10:29:41.000Z</time>
      </trkpt>
      <trkpt lat="37.07065667" lon="-3.37646167">
        <ele>2921.0</ele>
        <time>2022-11-20T10:29:42.000Z</time>
      </trkpt>
      <trkpt lat="37.07065" lon="-3.37645667">
        <ele>2921.0</ele>
        <time>2022-11-20T10:29:43.000Z</time>
      </trkpt>
      <trkpt lat="37.07064333" lon="-3.37645333">
        <ele>2921.0</ele>
        <time>2022-11-20T10:29:44.000Z</time>
      </trkpt>
      <trkpt lat="37.07063667" lon="-3.37644667">
        <ele>2921.0</ele>
        <time>2022-11-20T10:29:45.000Z</time>
      </trkpt>
      <trkpt lat="37.07063167" lon="-3.37644333">
        <ele>2921.0</ele>
        <time>2022-11-20T10:29:46.000Z</time>
      </trkpt>
      <trkpt lat="37.07062667" lon="-3.37643667">
        <ele>2921.0</ele>
        <time>2022-11-20T10:29:47.000Z</time>
      </trkpt>
      <trkpt lat="37.07062167" lon="-3.37643167">
        <ele>2921.0</ele>
        <time>2022-11-20T10:29:48.000Z</time>
      </trkpt>
      <trkpt lat="37.070615" lon="-3.37642833">
        <ele>2921.0</ele>
        <time>2022-11-20T10:29:49.000Z</time>
      </trkpt>
      <trkpt lat="37.07060833" lon="-3.376425">
        <ele>2922.0</ele>
        <time>2022-11-20T10:29:50.000Z</time>
      </trkpt>
      <trkpt lat="37.07060167" lon="-3.37642167">
        <ele>2922.0</ele>
        <time>2022-11-20T10:29:51.000Z</time>
      </trkpt>
      <trkpt lat="37.070595" lon="-3.37641667">
        <ele>2922.0</ele>
        <time>2022-11-20T10:29:52.000Z</time>
      </trkpt>
      <trkpt lat="37.07059" lon="-3.37641667">
        <ele>2922.0</ele>
        <time>2022-11-20T10:29:53.000Z</time>
      </trkpt>
      <trkpt lat="37.07058333" lon="-3.37641667">
        <ele>2922.0</ele>
        <time>2022-11-20T10:29:54.000Z</time>
      </trkpt>
      <trkpt lat="37.07057833" lon="-3.37641833">
        <ele>2922.0</ele>
        <time>2022-11-20T10:29:55.000Z</time>
      </trkpt>
      <trkpt lat="37.070575" lon="-3.37642">
        <ele>2922.0</ele>
        <time>2022-11-20T10:29:56.000Z</time>
      </trkpt>
      <trkpt lat="37.07057" lon="-3.37642">
        <ele>2923.0</ele>
        <time>2022-11-20T10:29:57.000Z</time>
      </trkpt>
      <trkpt lat="37.07056333" lon="-3.37641667">
        <ele>2923.0</ele>
        <time>2022-11-20T10:29:58.000Z</time>
      </trkpt>
      <trkpt lat="37.07055833" lon="-3.37641833">
        <ele>2923.0</ele>
        <time>2022-11-20T10:29:59.000Z</time>
      </trkpt>
      <trkpt lat="37.07055333" lon="-3.37642">
        <ele>2923.0</ele>
        <time>2022-11-20T10:30:00.000Z</time>
      </trkpt>
      <trkpt lat="37.07054667" lon="-3.37642">
        <ele>2923.0</ele>
        <time>2022-11-20T10:30:01.000Z</time>
      </trkpt>
      <trkpt lat="37.07054" lon="-3.37642">
        <ele>2923.0</ele>
        <time>2022-11-20T10:30:02.000Z</time>
      </trkpt>
      <trkpt lat="37.07053667" lon="-3.37642">
        <ele>2923.0</ele>
        <time>2022-11-20T10:30:03.000Z</time>
      </trkpt>
      <trkpt lat="37.07053" lon="-3.37642167">
        <ele>2924.0</ele>
        <time>2022-11-20T10:30:04.000Z</time>
      </trkpt>
      <trkpt lat="37.070525" lon="-3.37641833">
        <ele>2924.0</ele>
        <time>2022-11-20T10:30:05.000Z</time>
      </trkpt>
      <trkpt lat="37.07052" lon="-3.376415">
        <ele>2924.0</ele>
        <time>2022-11-20T10:30:06.000Z</time>
      </trkpt>
      <trkpt lat="37.070515" lon="-3.376415">
        <ele>2924.0</ele>
        <time>2022-11-20T10:30:07.000Z</time>
      </trkpt>
      <trkpt lat="37.07051" lon="-3.37641667">
        <ele>2924.0</ele>
        <time>2022-11-20T10:30:08.000Z</time>
      </trkpt>
      <trkpt lat="37.070505" lon="-3.37641833">
        <ele>2924.0</ele>
        <time>2022-11-20T10:30:09.000Z</time>
      </trkpt>
      <trkpt lat="37.0705" lon="-3.37642">
        <ele>2924.0</ele>
        <time>2022-11-20T10:30:10.000Z</time>
      </trkpt>
      <trkpt lat="37.07049667" lon="-3.37642167">
        <ele>2924.0</ele>
        <time>2022-11-20T10:30:11.000Z</time>
      </trkpt>
      <trkpt lat="37.07049" lon="-3.37642333">
        <ele>2925.0</ele>
        <time>2022-11-20T10:30:12.000Z</time>
      </trkpt>
      <trkpt lat="37.070485" lon="-3.37642333">
        <ele>2925.0</ele>
        <time>2022-11-20T10:30:13.000Z</time>
      </trkpt>
      <trkpt lat="37.07048167" lon="-3.376425">
        <ele>2925.0</ele>
        <time>2022-11-20T10:30:14.000Z</time>
      </trkpt>
      <trkpt lat="37.07047667" lon="-3.37642667">
        <ele>2925.0</ele>
        <time>2022-11-20T10:30:15.000Z</time>
      </trkpt>
      <trkpt lat="37.07047167" lon="-3.37642833">
        <ele>2925.0</ele>
        <time>2022-11-20T10:30:16.000Z</time>
      </trkpt>
      <trkpt lat="37.07046667" lon="-3.37643167">
        <ele>2925.0</ele>
        <time>2022-11-20T10:30:17.000Z</time>
      </trkpt>
      <trkpt lat="37.07046167" lon="-3.37643333">
        <ele>2926.0</ele>
        <time>2022-11-20T10:30:18.000Z</time>
      </trkpt>
      <trkpt lat="37.070455" lon="-3.37643167">
        <ele>2926.0</ele>
        <time>2022-11-20T10:30:19.000Z</time>
      </trkpt>
      <trkpt lat="37.07044833" lon="-3.37643167">
        <ele>2926.0</ele>
        <time>2022-11-20T10:30:20.000Z</time>
      </trkpt>
      <trkpt lat="37.070445" lon="-3.37643167">
        <ele>2926.0</ele>
        <time>2022-11-20T10:30:21.000Z</time>
      </trkpt>
      <trkpt lat="37.07044167" lon="-3.37643167">
        <ele>2926.0</ele>
        <time>2022-11-20T10:30:22.000Z</time>
      </trkpt>
      <trkpt lat="37.070435" lon="-3.37643">
        <ele>2926.0</ele>
        <time>2022-11-20T10:30:23.000Z</time>
      </trkpt>
      <trkpt lat="37.07043" lon="-3.37642833">
        <ele>2927.0</ele>
        <time>2022-11-20T10:30:24.000Z</time>
      </trkpt>
      <trkpt lat="37.070425" lon="-3.37642667">
        <ele>2927.0</ele>
        <time>2022-11-20T10:30:25.000Z</time>
      </trkpt>
      <trkpt lat="37.07042167" lon="-3.376425">
        <ele>2927.0</ele>
        <time>2022-11-20T10:30:26.000Z</time>
      </trkpt>
      <trkpt lat="37.07041667" lon="-3.376425">
        <ele>2927.0</ele>
        <time>2022-11-20T10:30:27.000Z</time>
      </trkpt>
      <trkpt lat="37.07041" lon="-3.376425">
        <ele>2927.0</ele>
        <time>2022-11-20T10:30:28.000Z</time>
      </trkpt>
      <trkpt lat="37.07040833" lon="-3.37642333">
        <ele>2927.0</ele>
        <time>2022-11-20T10:30:29.000Z</time>
      </trkpt>
      <trkpt lat="37.07040667" lon="-3.37642">
        <ele>2928.0</ele>
        <time>2022-11-20T10:30:30.000Z</time>
      </trkpt>
      <trkpt lat="37.07040333" lon="-3.37641667">
        <ele>2928.0</ele>
        <time>2022-11-20T10:30:31.000Z</time>
      </trkpt>
      <trkpt lat="37.0704" lon="-3.37641">
        <ele>2928.0</ele>
        <time>2022-11-20T10:30:32.000Z</time>
      </trkpt>
      <trkpt lat="37.070395" lon="-3.37640667">
        <ele>2928.0</ele>
        <time>2022-11-20T10:30:33.000Z</time>
      </trkpt>
      <trkpt lat="37.07039167" lon="-3.37640167">
        <ele>2928.0</ele>
        <time>2022-11-20T10:30:34.000Z</time>
      </trkpt>
      <trkpt lat="37.07038667" lon="-3.37639833">
        <ele>2928.0</ele>
        <time>2022-11-20T10:30:35.000Z</time>
      </trkpt>
      <trkpt lat="37.07038167" lon="-3.37639333">
        <ele>2929.0</ele>
        <time>2022-11-20T10:30:36.000Z</time>
      </trkpt>
      <trkpt lat="37.07037667" lon="-3.37639">
        <ele>2929.0</ele>
        <time>2022-11-20T10:30:37.000Z</time>
      </trkpt>
      <trkpt lat="37.07037333" lon="-3.37638833">
        <ele>2929.0</ele>
        <time>2022-11-20T10:30:38.000Z</time>
      </trkpt>
      <trkpt lat="37.07036833" lon="-3.37638667">
        <ele>2929.0</ele>
        <time>2022-11-20T10:30:39.000Z</time>
      </trkpt>
      <trkpt lat="37.07036167" lon="-3.376385">
        <ele>2929.0</ele>
        <time>2022-11-20T10:30:40.000Z</time>
      </trkpt>
      <trkpt lat="37.07035667" lon="-3.37638333">
        <ele>2929.0</ele>
        <time>2022-11-20T10:30:41.000Z</time>
      </trkpt>
      <trkpt lat="37.07035167" lon="-3.37638167">
        <ele>2930.0</ele>
        <time>2022-11-20T10:30:42.000Z</time>
      </trkpt>
      <trkpt lat="37.07034833" lon="-3.37638">
        <ele>2930.0</ele>
        <time>2022-11-20T10:30:43.000Z</time>
      </trkpt>
      <trkpt lat="37.07034167" lon="-3.37638">
        <ele>2930.0</ele>
        <time>2022-11-20T10:30:44.000Z</time>
      </trkpt>
      <trkpt lat="37.07033667" lon="-3.37637833">
        <ele>2930.0</ele>
        <time>2022-11-20T10:30:45.000Z</time>
      </trkpt>
      <trkpt lat="37.07033333" lon="-3.37637667">
        <ele>2930.0</ele>
        <time>2022-11-20T10:30:46.000Z</time>
      </trkpt>
      <trkpt lat="37.07032833" lon="-3.376375">
        <ele>2930.0</ele>
        <time>2022-11-20T10:30:47.000Z</time>
      </trkpt>
      <trkpt lat="37.07032333" lon="-3.37637333">
        <ele>2930.0</ele>
        <time>2022-11-20T10:30:48.000Z</time>
      </trkpt>
      <trkpt lat="37.07031833" lon="-3.37637333">
        <ele>2930.0</ele>
        <time>2022-11-20T10:30:49.000Z</time>
      </trkpt>
      <trkpt lat="37.07031167" lon="-3.37637">
        <ele>2931.0</ele>
        <time>2022-11-20T10:30:50.000Z</time>
      </trkpt>
      <trkpt lat="37.070305" lon="-3.37636667">
        <ele>2931.0</ele>
        <time>2022-11-20T10:30:51.000Z</time>
      </trkpt>
      <trkpt lat="37.07030333" lon="-3.376365">
        <ele>2931.0</ele>
        <time>2022-11-20T10:30:52.000Z</time>
      </trkpt>
      <trkpt lat="37.07029667" lon="-3.37635833">
        <ele>2931.0</ele>
        <time>2022-11-20T10:30:53.000Z</time>
      </trkpt>
      <trkpt lat="37.07029167" lon="-3.376355">
        <ele>2931.0</ele>
        <time>2022-11-20T10:30:54.000Z</time>
      </trkpt>
      <trkpt lat="37.07028667" lon="-3.37635667">
        <ele>2931.0</ele>
        <time>2022-11-20T10:30:55.000Z</time>
      </trkpt>
      <trkpt lat="37.07028" lon="-3.37635">
        <ele>2932.0</ele>
        <time>2022-11-20T10:30:56.000Z</time>
      </trkpt>
      <trkpt lat="37.070275" lon="-3.37634667">
        <ele>2932.0</ele>
        <time>2022-11-20T10:30:57.000Z</time>
      </trkpt>
      <trkpt lat="37.07027333" lon="-3.376345">
        <ele>2932.0</ele>
        <time>2022-11-20T10:30:58.000Z</time>
      </trkpt>
      <trkpt lat="37.070265" lon="-3.37633833">
        <ele>2932.0</ele>
        <time>2022-11-20T10:30:59.000Z</time>
      </trkpt>
      <trkpt lat="37.07026" lon="-3.37633667">
        <ele>2932.0</ele>
        <time>2022-11-20T10:31:00.000Z</time>
      </trkpt>
      <trkpt lat="37.07025667" lon="-3.37633333">
        <ele>2932.0</ele>
        <time>2022-11-20T10:31:01.000Z</time>
      </trkpt>
      <trkpt lat="37.07025167" lon="-3.37632667">
        <ele>2933.0</ele>
        <time>2022-11-20T10:31:02.000Z</time>
      </trkpt>
      <trkpt lat="37.07024667" lon="-3.37632333">
        <ele>2933.0</ele>
        <time>2022-11-20T10:31:03.000Z</time>
      </trkpt>
      <trkpt lat="37.07024167" lon="-3.37631833">
        <ele>2933.0</ele>
        <time>2022-11-20T10:31:04.000Z</time>
      </trkpt>
      <trkpt lat="37.07023667" lon="-3.37631167">
        <ele>2933.0</ele>
        <time>2022-11-20T10:31:05.000Z</time>
      </trkpt>
      <trkpt lat="37.07023167" lon="-3.37630833">
        <ele>2933.0</ele>
        <time>2022-11-20T10:31:06.000Z</time>
      </trkpt>
      <trkpt lat="37.07022667" lon="-3.37630333">
        <ele>2933.0</ele>
        <time>2022-11-20T10:31:07.000Z</time>
      </trkpt>
      <trkpt lat="37.07022" lon="-3.3763">
        <ele>2934.0</ele>
        <time>2022-11-20T10:31:08.000Z</time>
      </trkpt>
      <trkpt lat="37.070215" lon="-3.37629667">
        <ele>2934.0</ele>
        <time>2022-11-20T10:31:09.000Z</time>
      </trkpt>
      <trkpt lat="37.07021" lon="-3.37629333">
        <ele>2934.0</ele>
        <time>2022-11-20T10:31:10.000Z</time>
      </trkpt>
      <trkpt lat="37.07020333" lon="-3.37629">
        <ele>2934.0</ele>
        <time>2022-11-20T10:31:11.000Z</time>
      </trkpt>
      <trkpt lat="37.0702" lon="-3.37628667">
        <ele>2934.0</ele>
        <time>2022-11-20T10:31:12.000Z</time>
      </trkpt>
      <trkpt lat="37.07019333" lon="-3.37628167">
        <ele>2934.0</ele>
        <time>2022-11-20T10:31:13.000Z</time>
      </trkpt>
      <trkpt lat="37.07018833" lon="-3.37627833">
        <ele>2934.0</ele>
        <time>2022-11-20T10:31:14.000Z</time>
      </trkpt>
      <trkpt lat="37.070185" lon="-3.37627333">
        <ele>2934.0</ele>
        <time>2022-11-20T10:31:15.000Z</time>
      </trkpt>
      <trkpt lat="37.07017833" lon="-3.37626667">
        <ele>2935.0</ele>
        <time>2022-11-20T10:31:16.000Z</time>
      </trkpt>
      <trkpt lat="37.07017167" lon="-3.37626167">
        <ele>2935.0</ele>
        <time>2022-11-20T10:31:17.000Z</time>
      </trkpt>
      <trkpt lat="37.07016833" lon="-3.37625667">
        <ele>2935.0</ele>
        <time>2022-11-20T10:31:18.000Z</time>
      </trkpt>
      <trkpt lat="37.07016333" lon="-3.37625167">
        <ele>2935.0</ele>
        <time>2022-11-20T10:31:19.000Z</time>
      </trkpt>
      <trkpt lat="37.07016" lon="-3.37624667">
        <ele>2935.0</ele>
        <time>2022-11-20T10:31:20.000Z</time>
      </trkpt>
      <trkpt lat="37.070155" lon="-3.37624167">
        <ele>2935.0</ele>
        <time>2022-11-20T10:31:21.000Z</time>
      </trkpt>
      <trkpt lat="37.07015167" lon="-3.37623667">
        <ele>2936.0</ele>
        <time>2022-11-20T10:31:22.000Z</time>
      </trkpt>
      <trkpt lat="37.07014833" lon="-3.37623333">
        <ele>2936.0</ele>
        <time>2022-11-20T10:31:23.000Z</time>
      </trkpt>
      <trkpt lat="37.07014667" lon="-3.37623">
        <ele>2936.0</ele>
        <time>2022-11-20T10:31:24.000Z</time>
      </trkpt>
      <trkpt lat="37.070145" lon="-3.37623">
        <ele>2936.0</ele>
        <time>2022-11-20T10:31:25.000Z</time>
      </trkpt>
      <trkpt lat="37.07014667" lon="-3.37623">
        <ele>2936.0</ele>
        <time>2022-11-20T10:31:26.000Z</time>
      </trkpt>
      <trkpt lat="37.07014333" lon="-3.37622667">
        <ele>2936.0</ele>
        <time>2022-11-20T10:31:27.000Z</time>
      </trkpt>
      <trkpt lat="37.07014" lon="-3.37622333">
        <ele>2936.0</ele>
        <time>2022-11-20T10:31:28.000Z</time>
      </trkpt>
      <trkpt lat="37.07013333" lon="-3.376215">
        <ele>2936.0</ele>
        <time>2022-11-20T10:31:29.000Z</time>
      </trkpt>
      <trkpt lat="37.07012833" lon="-3.37621167">
        <ele>2936.0</ele>
        <time>2022-11-20T10:31:30.000Z</time>
      </trkpt>
      <trkpt lat="37.07012333" lon="-3.37620833">
        <ele>2936.0</ele>
        <time>2022-11-20T10:31:31.000Z</time>
      </trkpt>
      <trkpt lat="37.07011833" lon="-3.37620333">
        <ele>2936.0</ele>
        <time>2022-11-20T10:31:32.000Z</time>
      </trkpt>
      <trkpt lat="37.07011167" lon="-3.37619833">
        <ele>2936.0</ele>
        <time>2022-11-20T10:31:33.000Z</time>
      </trkpt>
      <trkpt lat="37.07010833" lon="-3.37619333">
        <ele>2937.0</ele>
        <time>2022-11-20T10:31:34.000Z</time>
      </trkpt>
      <trkpt lat="37.07010333" lon="-3.37619">
        <ele>2937.0</ele>
        <time>2022-11-20T10:31:35.000Z</time>
      </trkpt>
      <trkpt lat="37.0701" lon="-3.376185">
        <ele>2937.0</ele>
        <time>2022-11-20T10:31:36.000Z</time>
      </trkpt>
      <trkpt lat="37.07009333" lon="-3.37618">
        <ele>2937.0</ele>
        <time>2022-11-20T10:31:37.000Z</time>
      </trkpt>
      <trkpt lat="37.07008833" lon="-3.376175">
        <ele>2937.0</ele>
        <time>2022-11-20T10:31:38.000Z</time>
      </trkpt>
      <trkpt lat="37.070085" lon="-3.37617167">
        <ele>2937.0</ele>
        <time>2022-11-20T10:31:39.000Z</time>
      </trkpt>
      <trkpt lat="37.07008" lon="-3.376165">
        <ele>2937.0</ele>
        <time>2022-11-20T10:31:40.000Z</time>
      </trkpt>
      <trkpt lat="37.07007667" lon="-3.37616">
        <ele>2937.0</ele>
        <time>2022-11-20T10:31:41.000Z</time>
      </trkpt>
      <trkpt lat="37.07007" lon="-3.37615667">
        <ele>2937.0</ele>
        <time>2022-11-20T10:31:42.000Z</time>
      </trkpt>
      <trkpt lat="37.070065" lon="-3.37615167">
        <ele>2938.0</ele>
        <time>2022-11-20T10:31:43.000Z</time>
      </trkpt>
      <trkpt lat="37.07006167" lon="-3.37614833">
        <ele>2938.0</ele>
        <time>2022-11-20T10:31:44.000Z</time>
      </trkpt>
      <trkpt lat="37.07005667" lon="-3.37614333">
        <ele>2938.0</ele>
        <time>2022-11-20T10:31:45.000Z</time>
      </trkpt>
      <trkpt lat="37.07005333" lon="-3.37614">
        <ele>2938.0</ele>
        <time>2022-11-20T10:31:46.000Z</time>
      </trkpt>
      <trkpt lat="37.07005167" lon="-3.37613667">
        <ele>2938.0</ele>
        <time>2022-11-20T10:31:47.000Z</time>
      </trkpt>
      <trkpt lat="37.07004667" lon="-3.37613">
        <ele>2938.0</ele>
        <time>2022-11-20T10:31:48.000Z</time>
      </trkpt>
      <trkpt lat="37.070045" lon="-3.37612667">
        <ele>2939.0</ele>
        <time>2022-11-20T10:31:49.000Z</time>
      </trkpt>
      <trkpt lat="37.07004167" lon="-3.37612333">
        <ele>2939.0</ele>
        <time>2022-11-20T10:31:50.000Z</time>
      </trkpt>
      <trkpt lat="37.07003667" lon="-3.37611833">
        <ele>2939.0</ele>
        <time>2022-11-20T10:31:51.000Z</time>
      </trkpt>
      <trkpt lat="37.07003333" lon="-3.37611333">
        <ele>2939.0</ele>
        <time>2022-11-20T10:31:52.000Z</time>
      </trkpt>
      <trkpt lat="37.07003167" lon="-3.37611333">
        <ele>2939.0</ele>
        <time>2022-11-20T10:31:53.000Z</time>
      </trkpt>
      <trkpt lat="37.07002667" lon="-3.37610833">
        <ele>2939.0</ele>
        <time>2022-11-20T10:31:54.000Z</time>
      </trkpt>
      <trkpt lat="37.07002333" lon="-3.376105">
        <ele>2939.0</ele>
        <time>2022-11-20T10:31:55.000Z</time>
      </trkpt>
      <trkpt lat="37.07001833" lon="-3.37610333">
        <ele>2940.0</ele>
        <time>2022-11-20T10:31:56.000Z</time>
      </trkpt>
      <trkpt lat="37.07001333" lon="-3.37609833">
        <ele>2940.0</ele>
        <time>2022-11-20T10:31:57.000Z</time>
      </trkpt>
      <trkpt lat="37.07001" lon="-3.376095">
        <ele>2940.0</ele>
        <time>2022-11-20T10:31:58.000Z</time>
      </trkpt>
      <trkpt lat="37.07000667" lon="-3.37608833">
        <ele>2940.0</ele>
        <time>2022-11-20T10:31:59.000Z</time>
      </trkpt>
      <trkpt lat="37.07000333" lon="-3.37608667">
        <ele>2940.0</ele>
        <time>2022-11-20T10:32:00.000Z</time>
      </trkpt>
      <trkpt lat="37.07" lon="-3.376085">
        <ele>2940.0</ele>
        <time>2022-11-20T10:32:01.000Z</time>
      </trkpt>
      <trkpt lat="37.06999667" lon="-3.37608">
        <ele>2941.0</ele>
        <time>2022-11-20T10:32:02.000Z</time>
      </trkpt>
      <trkpt lat="37.06999167" lon="-3.37607667">
        <ele>2941.0</ele>
        <time>2022-11-20T10:32:03.000Z</time>
      </trkpt>
      <trkpt lat="37.06999" lon="-3.37607333">
        <ele>2941.0</ele>
        <time>2022-11-20T10:32:04.000Z</time>
      </trkpt>
      <trkpt lat="37.069985" lon="-3.37606833">
        <ele>2941.0</ele>
        <time>2022-11-20T10:32:05.000Z</time>
      </trkpt>
      <trkpt lat="37.06998167" lon="-3.376065">
        <ele>2941.0</ele>
        <time>2022-11-20T10:32:06.000Z</time>
      </trkpt>
      <trkpt lat="37.06997667" lon="-3.37605833">
        <ele>2941.0</ele>
        <time>2022-11-20T10:32:07.000Z</time>
      </trkpt>
      <trkpt lat="37.06997333" lon="-3.376055">
        <ele>2941.0</ele>
        <time>2022-11-20T10:32:08.000Z</time>
      </trkpt>
      <trkpt lat="37.06997167" lon="-3.37605167">
        <ele>2942.0</ele>
        <time>2022-11-20T10:32:09.000Z</time>
      </trkpt>
      <trkpt lat="37.06996667" lon="-3.37604833">
        <ele>2942.0</ele>
        <time>2022-11-20T10:32:10.000Z</time>
      </trkpt>
      <trkpt lat="37.06996333" lon="-3.376045">
        <ele>2942.0</ele>
        <time>2022-11-20T10:32:11.000Z</time>
      </trkpt>
      <trkpt lat="37.06996" lon="-3.37604">
        <ele>2942.0</ele>
        <time>2022-11-20T10:32:12.000Z</time>
      </trkpt>
      <trkpt lat="37.06995667" lon="-3.37603833">
        <ele>2942.0</ele>
        <time>2022-11-20T10:32:13.000Z</time>
      </trkpt>
      <trkpt lat="37.06995333" lon="-3.376035">
        <ele>2942.0</ele>
        <time>2022-11-20T10:32:14.000Z</time>
      </trkpt>
      <trkpt lat="37.06995" lon="-3.37603">
        <ele>2942.0</ele>
        <time>2022-11-20T10:32:15.000Z</time>
      </trkpt>
      <trkpt lat="37.06994667" lon="-3.37602667">
        <ele>2942.0</ele>
        <time>2022-11-20T10:32:16.000Z</time>
      </trkpt>
      <trkpt lat="37.06994333" lon="-3.37602167">
        <ele>2943.0</ele>
        <time>2022-11-20T10:32:17.000Z</time>
      </trkpt>
      <trkpt lat="37.06994" lon="-3.37601833">
        <ele>2943.0</ele>
        <time>2022-11-20T10:32:18.000Z</time>
      </trkpt>
      <trkpt lat="37.06993667" lon="-3.37601333">
        <ele>2943.0</ele>
        <time>2022-11-20T10:32:19.000Z</time>
      </trkpt>
      <trkpt lat="37.06993167" lon="-3.37601">
        <ele>2943.0</ele>
        <time>2022-11-20T10:32:20.000Z</time>
      </trkpt>
      <trkpt lat="37.06992667" lon="-3.37600667">
        <ele>2943.0</ele>
        <time>2022-11-20T10:32:21.000Z</time>
      </trkpt>
      <trkpt lat="37.06992333" lon="-3.37600167">
        <ele>2944.0</ele>
        <time>2022-11-20T10:32:22.000Z</time>
      </trkpt>
      <trkpt lat="37.06991833" lon="-3.37599667">
        <ele>2944.0</ele>
        <time>2022-11-20T10:32:23.000Z</time>
      </trkpt>
      <trkpt lat="37.069915" lon="-3.37599">
        <ele>2944.0</ele>
        <time>2022-11-20T10:32:24.000Z</time>
      </trkpt>
      <trkpt lat="37.06991333" lon="-3.37598833">
        <ele>2944.0</ele>
        <time>2022-11-20T10:32:25.000Z</time>
      </trkpt>
      <trkpt lat="37.06991" lon="-3.375985">
        <ele>2944.0</ele>
        <time>2022-11-20T10:32:26.000Z</time>
      </trkpt>
      <trkpt lat="37.069905" lon="-3.37597833">
        <ele>2944.0</ele>
        <time>2022-11-20T10:32:27.000Z</time>
      </trkpt>
      <trkpt lat="37.06990167" lon="-3.37597667">
        <ele>2944.0</ele>
        <time>2022-11-20T10:32:28.000Z</time>
      </trkpt>
      <trkpt lat="37.0699" lon="-3.37597167">
        <ele>2944.0</ele>
        <time>2022-11-20T10:32:29.000Z</time>
      </trkpt>
      <trkpt lat="37.069895" lon="-3.37596333">
        <ele>2945.0</ele>
        <time>2022-11-20T10:32:30.000Z</time>
      </trkpt>
      <trkpt lat="37.06989167" lon="-3.375955">
        <ele>2945.0</ele>
        <time>2022-11-20T10:32:31.000Z</time>
      </trkpt>
      <trkpt lat="37.06989" lon="-3.37595">
        <ele>2945.0</ele>
        <time>2022-11-20T10:32:32.000Z</time>
      </trkpt>
      <trkpt lat="37.06988667" lon="-3.37594333">
        <ele>2945.0</ele>
        <time>2022-11-20T10:32:33.000Z</time>
      </trkpt>
      <trkpt lat="37.06988333" lon="-3.37593667">
        <ele>2945.0</ele>
        <time>2022-11-20T10:32:34.000Z</time>
      </trkpt>
      <trkpt lat="37.06988167" lon="-3.37593167">
        <ele>2945.0</ele>
        <time>2022-11-20T10:32:35.000Z</time>
      </trkpt>
      <trkpt lat="37.06987833" lon="-3.37592333">
        <ele>2945.0</ele>
        <time>2022-11-20T10:32:36.000Z</time>
      </trkpt>
      <trkpt lat="37.06987667" lon="-3.375915">
        <ele>2945.0</ele>
        <time>2022-11-20T10:32:37.000Z</time>
      </trkpt>
      <trkpt lat="37.069875" lon="-3.37590667">
        <ele>2945.0</ele>
        <time>2022-11-20T10:32:38.000Z</time>
      </trkpt>
      <trkpt lat="37.06987333" lon="-3.37589667">
        <ele>2945.0</ele>
        <time>2022-11-20T10:32:39.000Z</time>
      </trkpt>
      <trkpt lat="37.06987167" lon="-3.37589">
        <ele>2946.0</ele>
        <time>2022-11-20T10:32:40.000Z</time>
      </trkpt>
      <trkpt lat="37.06986833" lon="-3.37588">
        <ele>2946.0</ele>
        <time>2022-11-20T10:32:41.000Z</time>
      </trkpt>
      <trkpt lat="37.06986667" lon="-3.37587333">
        <ele>2946.0</ele>
        <time>2022-11-20T10:32:42.000Z</time>
      </trkpt>
      <trkpt lat="37.069865" lon="-3.37586667">
        <ele>2946.0</ele>
        <time>2022-11-20T10:32:43.000Z</time>
      </trkpt>
      <trkpt lat="37.06986333" lon="-3.37585667">
        <ele>2946.0</ele>
        <time>2022-11-20T10:32:44.000Z</time>
      </trkpt>
      <trkpt lat="37.06986167" lon="-3.37585">
        <ele>2946.0</ele>
        <time>2022-11-20T10:32:45.000Z</time>
      </trkpt>
      <trkpt lat="37.06986" lon="-3.375845">
        <ele>2946.0</ele>
        <time>2022-11-20T10:32:46.000Z</time>
      </trkpt>
      <trkpt lat="37.06985833" lon="-3.37584">
        <ele>2946.0</ele>
        <time>2022-11-20T10:32:47.000Z</time>
      </trkpt>
      <trkpt lat="37.06985833" lon="-3.37584">
        <ele>2947.0</ele>
        <time>2022-11-20T10:32:48.000Z</time>
      </trkpt>
      <trkpt lat="37.06985833" lon="-3.37583667">
        <ele>2947.0</ele>
        <time>2022-11-20T10:32:49.000Z</time>
      </trkpt>
      <trkpt lat="37.06985667" lon="-3.37583167">
        <ele>2947.0</ele>
        <time>2022-11-20T10:32:50.000Z</time>
      </trkpt>
      <trkpt lat="37.06985333" lon="-3.37582833">
        <ele>2947.0</ele>
        <time>2022-11-20T10:32:51.000Z</time>
      </trkpt>
      <trkpt lat="37.06985167" lon="-3.37582333">
        <ele>2947.0</ele>
        <time>2022-11-20T10:32:52.000Z</time>
      </trkpt>
      <trkpt lat="37.06985" lon="-3.37582167">
        <ele>2947.0</ele>
        <time>2022-11-20T10:32:53.000Z</time>
      </trkpt>
      <trkpt lat="37.06984833" lon="-3.37582">
        <ele>2947.0</ele>
        <time>2022-11-20T10:32:54.000Z</time>
      </trkpt>
      <trkpt lat="37.06984333" lon="-3.375815">
        <ele>2947.0</ele>
        <time>2022-11-20T10:32:55.000Z</time>
      </trkpt>
      <trkpt lat="37.06984167" lon="-3.37581167">
        <ele>2947.0</ele>
        <time>2022-11-20T10:32:56.000Z</time>
      </trkpt>
      <trkpt lat="37.06984" lon="-3.37580833">
        <ele>2948.0</ele>
        <time>2022-11-20T10:32:57.000Z</time>
      </trkpt>
      <trkpt lat="37.06983667" lon="-3.37580333">
        <ele>2948.0</ele>
        <time>2022-11-20T10:32:58.000Z</time>
      </trkpt>
      <trkpt lat="37.069835" lon="-3.3758">
        <ele>2948.0</ele>
        <time>2022-11-20T10:32:59.000Z</time>
      </trkpt>
      <trkpt lat="37.06983333" lon="-3.375795">
        <ele>2948.0</ele>
        <time>2022-11-20T10:33:00.000Z</time>
      </trkpt>
      <trkpt lat="37.06983167" lon="-3.37579333">
        <ele>2948.0</ele>
        <time>2022-11-20T10:33:01.000Z</time>
      </trkpt>
      <trkpt lat="37.06983" lon="-3.37579167">
        <ele>2949.0</ele>
        <time>2022-11-20T10:33:02.000Z</time>
      </trkpt>
      <trkpt lat="37.06982667" lon="-3.37579167">
        <ele>2949.0</ele>
        <time>2022-11-20T10:33:03.000Z</time>
      </trkpt>
      <trkpt lat="37.06982333" lon="-3.37578833">
        <ele>2949.0</ele>
        <time>2022-11-20T10:33:04.000Z</time>
      </trkpt>
      <trkpt lat="37.06982" lon="-3.37578833">
        <ele>2949.0</ele>
        <time>2022-11-20T10:33:05.000Z</time>
      </trkpt>
      <trkpt lat="37.06982" lon="-3.37578667">
        <ele>2949.0</ele>
        <time>2022-11-20T10:33:06.000Z</time>
      </trkpt>
      <trkpt lat="37.06981833" lon="-3.37578667">
        <ele>2949.0</ele>
        <time>2022-11-20T10:33:07.000Z</time>
      </trkpt>
      <trkpt lat="37.069815" lon="-3.37578667">
        <ele>2949.0</ele>
        <time>2022-11-20T10:33:08.000Z</time>
      </trkpt>
      <trkpt lat="37.06981333" lon="-3.37578667">
        <ele>2949.0</ele>
        <time>2022-11-20T10:33:09.000Z</time>
      </trkpt>
      <trkpt lat="37.06981167" lon="-3.37578667">
        <ele>2949.0</ele>
        <time>2022-11-20T10:33:10.000Z</time>
      </trkpt>
      <trkpt lat="37.06980833" lon="-3.37578333">
        <ele>2950.0</ele>
        <time>2022-11-20T10:33:11.000Z</time>
      </trkpt>
      <trkpt lat="37.069805" lon="-3.37578333">
        <ele>2950.0</ele>
        <time>2022-11-20T10:33:12.000Z</time>
      </trkpt>
      <trkpt lat="37.06980333" lon="-3.37578167">
        <ele>2950.0</ele>
        <time>2022-11-20T10:33:13.000Z</time>
      </trkpt>
      <trkpt lat="37.0698" lon="-3.37578167">
        <ele>2950.0</ele>
        <time>2022-11-20T10:33:14.000Z</time>
      </trkpt>
      <trkpt lat="37.06979833" lon="-3.37577833">
        <ele>2950.0</ele>
        <time>2022-11-20T10:33:15.000Z</time>
      </trkpt>
      <trkpt lat="37.069795" lon="-3.37577333">
        <ele>2950.0</ele>
        <time>2022-11-20T10:33:16.000Z</time>
      </trkpt>
      <trkpt lat="37.06979333" lon="-3.37576833">
        <ele>2950.0</ele>
        <time>2022-11-20T10:33:17.000Z</time>
      </trkpt>
      <trkpt lat="37.06979333" lon="-3.375765">
        <ele>2950.0</ele>
        <time>2022-11-20T10:33:18.000Z</time>
      </trkpt>
      <trkpt lat="37.06979167" lon="-3.37576167">
        <ele>2950.0</ele>
        <time>2022-11-20T10:33:19.000Z</time>
      </trkpt>
      <trkpt lat="37.06978833" lon="-3.37576">
        <ele>2950.0</ele>
        <time>2022-11-20T10:33:20.000Z</time>
      </trkpt>
      <trkpt lat="37.06978667" lon="-3.37575667">
        <ele>2951.0</ele>
        <time>2022-11-20T10:33:21.000Z</time>
      </trkpt>
      <trkpt lat="37.06978333" lon="-3.37575833">
        <ele>2951.0</ele>
        <time>2022-11-20T10:33:22.000Z</time>
      </trkpt>
      <trkpt lat="37.06978167" lon="-3.37575833">
        <ele>2951.0</ele>
        <time>2022-11-20T10:33:23.000Z</time>
      </trkpt>
      <trkpt lat="37.06977667" lon="-3.37575667">
        <ele>2951.0</ele>
        <time>2022-11-20T10:33:24.000Z</time>
      </trkpt>
      <trkpt lat="37.06977167" lon="-3.375755">
        <ele>2951.0</ele>
        <time>2022-11-20T10:33:25.000Z</time>
      </trkpt>
      <trkpt lat="37.06976833" lon="-3.37575667">
        <ele>2951.0</ele>
        <time>2022-11-20T10:33:26.000Z</time>
      </trkpt>
      <trkpt lat="37.06976333" lon="-3.37576">
        <ele>2951.0</ele>
        <time>2022-11-20T10:33:27.000Z</time>
      </trkpt>
      <trkpt lat="37.06975833" lon="-3.37576">
        <ele>2952.0</ele>
        <time>2022-11-20T10:33:28.000Z</time>
      </trkpt>
      <trkpt lat="37.06975167" lon="-3.37576">
        <ele>2952.0</ele>
        <time>2022-11-20T10:33:29.000Z</time>
      </trkpt>
      <trkpt lat="37.069745" lon="-3.375765">
        <ele>2952.0</ele>
        <time>2022-11-20T10:33:30.000Z</time>
      </trkpt>
      <trkpt lat="37.06973833" lon="-3.37577333">
        <ele>2952.0</ele>
        <time>2022-11-20T10:33:31.000Z</time>
      </trkpt>
      <trkpt lat="37.06973167" lon="-3.37577833">
        <ele>2952.0</ele>
        <time>2022-11-20T10:33:32.000Z</time>
      </trkpt>
      <trkpt lat="37.06973" lon="-3.37578">
        <ele>2952.0</ele>
        <time>2022-11-20T10:33:33.000Z</time>
      </trkpt>
      <trkpt lat="37.06972833" lon="-3.37578">
        <ele>2952.0</ele>
        <time>2022-11-20T10:33:34.000Z</time>
      </trkpt>
      <trkpt lat="37.06972333" lon="-3.37577667">
        <ele>2952.0</ele>
        <time>2022-11-20T10:33:35.000Z</time>
      </trkpt>
      <trkpt lat="37.06972" lon="-3.37577667">
        <ele>2952.0</ele>
        <time>2022-11-20T10:33:36.000Z</time>
      </trkpt>
      <trkpt lat="37.06971333" lon="-3.375775">
        <ele>2953.0</ele>
        <time>2022-11-20T10:33:37.000Z</time>
      </trkpt>
      <trkpt lat="37.06971" lon="-3.37577667">
        <ele>2953.0</ele>
        <time>2022-11-20T10:33:38.000Z</time>
      </trkpt>
      <trkpt lat="37.069705" lon="-3.37577167">
        <ele>2953.0</ele>
        <time>2022-11-20T10:33:39.000Z</time>
      </trkpt>
      <trkpt lat="37.0697" lon="-3.37576167">
        <ele>2953.0</ele>
        <time>2022-11-20T10:33:40.000Z</time>
      </trkpt>
      <trkpt lat="37.06969667" lon="-3.37575167">
        <ele>2953.0</ele>
        <time>2022-11-20T10:33:41.000Z</time>
      </trkpt>
      <trkpt lat="37.069695" lon="-3.37574333">
        <ele>2953.0</ele>
        <time>2022-11-20T10:33:42.000Z</time>
      </trkpt>
      <trkpt lat="37.06969333" lon="-3.37573333">
        <ele>2953.0</ele>
        <time>2022-11-20T10:33:43.000Z</time>
      </trkpt>
      <trkpt lat="37.06969333" lon="-3.375725">
        <ele>2953.0</ele>
        <time>2022-11-20T10:33:44.000Z</time>
      </trkpt>
      <trkpt lat="37.06969167" lon="-3.375715">
        <ele>2953.0</ele>
        <time>2022-11-20T10:33:45.000Z</time>
      </trkpt>
      <trkpt lat="37.06969" lon="-3.375705">
        <ele>2954.0</ele>
        <time>2022-11-20T10:33:46.000Z</time>
      </trkpt>
      <trkpt lat="37.06968833" lon="-3.37569833">
        <ele>2954.0</ele>
        <time>2022-11-20T10:33:47.000Z</time>
      </trkpt>
      <trkpt lat="37.06968833" lon="-3.37569">
        <ele>2954.0</ele>
        <time>2022-11-20T10:33:48.000Z</time>
      </trkpt>
      <trkpt lat="37.069685" lon="-3.37568167">
        <ele>2954.0</ele>
        <time>2022-11-20T10:33:49.000Z</time>
      </trkpt>
      <trkpt lat="37.06968167" lon="-3.375675">
        <ele>2954.0</ele>
        <time>2022-11-20T10:33:50.000Z</time>
      </trkpt>
      <trkpt lat="37.06968" lon="-3.37566833">
        <ele>2954.0</ele>
        <time>2022-11-20T10:33:51.000Z</time>
      </trkpt>
      <trkpt lat="37.06967667" lon="-3.37565833">
        <ele>2954.0</ele>
        <time>2022-11-20T10:33:52.000Z</time>
      </trkpt>
      <trkpt lat="37.06967333" lon="-3.37565">
        <ele>2954.0</ele>
        <time>2022-11-20T10:33:53.000Z</time>
      </trkpt>
      <trkpt lat="37.06966833" lon="-3.37564167">
        <ele>2954.0</ele>
        <time>2022-11-20T10:33:54.000Z</time>
      </trkpt>
      <trkpt lat="37.06966333" lon="-3.37563333">
        <ele>2954.0</ele>
        <time>2022-11-20T10:33:55.000Z</time>
      </trkpt>
      <trkpt lat="37.06966" lon="-3.37562667">
        <ele>2955.0</ele>
        <time>2022-11-20T10:33:56.000Z</time>
      </trkpt>
      <trkpt lat="37.06965333" lon="-3.37561833">
        <ele>2955.0</ele>
        <time>2022-11-20T10:33:57.000Z</time>
      </trkpt>
      <trkpt lat="37.06964833" lon="-3.37561167">
        <ele>2955.0</ele>
        <time>2022-11-20T10:33:58.000Z</time>
      </trkpt>
      <trkpt lat="37.069645" lon="-3.375605">
        <ele>2955.0</ele>
        <time>2022-11-20T10:33:59.000Z</time>
      </trkpt>
      <trkpt lat="37.06963833" lon="-3.37559667">
        <ele>2955.0</ele>
        <time>2022-11-20T10:34:00.000Z</time>
      </trkpt>
      <trkpt lat="37.06963167" lon="-3.37559">
        <ele>2955.0</ele>
        <time>2022-11-20T10:34:01.000Z</time>
      </trkpt>
      <trkpt lat="37.06962833" lon="-3.375585">
        <ele>2955.0</ele>
        <time>2022-11-20T10:34:02.000Z</time>
      </trkpt>
      <trkpt lat="37.06962" lon="-3.375575">
        <ele>2955.0</ele>
        <time>2022-11-20T10:34:03.000Z</time>
      </trkpt>
      <trkpt lat="37.069615" lon="-3.37556833">
        <ele>2955.0</ele>
        <time>2022-11-20T10:34:04.000Z</time>
      </trkpt>
      <trkpt lat="37.06961167" lon="-3.37556333">
        <ele>2955.0</ele>
        <time>2022-11-20T10:34:05.000Z</time>
      </trkpt>
      <trkpt lat="37.069605" lon="-3.37555667">
        <ele>2955.0</ele>
        <time>2022-11-20T10:34:06.000Z</time>
      </trkpt>
      <trkpt lat="37.06959667" lon="-3.375555">
        <ele>2955.0</ele>
        <time>2022-11-20T10:34:07.000Z</time>
      </trkpt>
      <trkpt lat="37.06959" lon="-3.37555167">
        <ele>2955.0</ele>
        <time>2022-11-20T10:34:08.000Z</time>
      </trkpt>
      <trkpt lat="37.06958167" lon="-3.37554833">
        <ele>2955.0</ele>
        <time>2022-11-20T10:34:09.000Z</time>
      </trkpt>
      <trkpt lat="37.06957333" lon="-3.37554667">
        <ele>2955.0</ele>
        <time>2022-11-20T10:34:10.000Z</time>
      </trkpt>
      <trkpt lat="37.06956667" lon="-3.37554667">
        <ele>2955.0</ele>
        <time>2022-11-20T10:34:11.000Z</time>
      </trkpt>
      <trkpt lat="37.06955833" lon="-3.37554667">
        <ele>2955.0</ele>
        <time>2022-11-20T10:34:12.000Z</time>
      </trkpt>
      <trkpt lat="37.06955167" lon="-3.37554833">
        <ele>2956.0</ele>
        <time>2022-11-20T10:34:13.000Z</time>
      </trkpt>
      <trkpt lat="37.06954167" lon="-3.37555167">
        <ele>2956.0</ele>
        <time>2022-11-20T10:34:14.000Z</time>
      </trkpt>
      <trkpt lat="37.069535" lon="-3.375555">
        <ele>2956.0</ele>
        <time>2022-11-20T10:34:15.000Z</time>
      </trkpt>
      <trkpt lat="37.06952667" lon="-3.37555667">
        <ele>2956.0</ele>
        <time>2022-11-20T10:34:16.000Z</time>
      </trkpt>
      <trkpt lat="37.06951833" lon="-3.37555833">
        <ele>2956.0</ele>
        <time>2022-11-20T10:34:17.000Z</time>
      </trkpt>
      <trkpt lat="37.06951" lon="-3.37556167">
        <ele>2956.0</ele>
        <time>2022-11-20T10:34:18.000Z</time>
      </trkpt>
      <trkpt lat="37.0695" lon="-3.375565">
        <ele>2956.0</ele>
        <time>2022-11-20T10:34:19.000Z</time>
      </trkpt>
      <trkpt lat="37.06949333" lon="-3.37556833">
        <ele>2956.0</ele>
        <time>2022-11-20T10:34:20.000Z</time>
      </trkpt>
      <trkpt lat="37.069485" lon="-3.37557167">
        <ele>2956.0</ele>
        <time>2022-11-20T10:34:21.000Z</time>
      </trkpt>
      <trkpt lat="37.06947833" lon="-3.375575">
        <ele>2956.0</ele>
        <time>2022-11-20T10:34:22.000Z</time>
      </trkpt>
      <trkpt lat="37.06947" lon="-3.37557833">
        <ele>2957.0</ele>
        <time>2022-11-20T10:34:23.000Z</time>
      </trkpt>
      <trkpt lat="37.069465" lon="-3.37558333">
        <ele>2957.0</ele>
        <time>2022-11-20T10:34:24.000Z</time>
      </trkpt>
      <trkpt lat="37.06945667" lon="-3.37559">
        <ele>2957.0</ele>
        <time>2022-11-20T10:34:25.000Z</time>
      </trkpt>
      <trkpt lat="37.06945" lon="-3.37559667">
        <ele>2957.0</ele>
        <time>2022-11-20T10:34:26.000Z</time>
      </trkpt>
      <trkpt lat="37.06944167" lon="-3.37560167">
        <ele>2957.0</ele>
        <time>2022-11-20T10:34:27.000Z</time>
      </trkpt>
      <trkpt lat="37.069435" lon="-3.37560833">
        <ele>2957.0</ele>
        <time>2022-11-20T10:34:28.000Z</time>
      </trkpt>
      <trkpt lat="37.06942833" lon="-3.37561667">
        <ele>2957.0</ele>
        <time>2022-11-20T10:34:29.000Z</time>
      </trkpt>
      <trkpt lat="37.06942333" lon="-3.375625">
        <ele>2957.0</ele>
        <time>2022-11-20T10:34:30.000Z</time>
      </trkpt>
      <trkpt lat="37.06941833" lon="-3.37563333">
        <ele>2957.0</ele>
        <time>2022-11-20T10:34:31.000Z</time>
      </trkpt>
      <trkpt lat="37.06941167" lon="-3.37564333">
        <ele>2957.0</ele>
        <time>2022-11-20T10:34:32.000Z</time>
      </trkpt>
      <trkpt lat="37.06940667" lon="-3.37565333">
        <ele>2957.0</ele>
        <time>2022-11-20T10:34:33.000Z</time>
      </trkpt>
      <trkpt lat="37.0694" lon="-3.37566333">
        <ele>2957.0</ele>
        <time>2022-11-20T10:34:34.000Z</time>
      </trkpt>
      <trkpt lat="37.069395" lon="-3.37567333">
        <ele>2957.0</ele>
        <time>2022-11-20T10:34:35.000Z</time>
      </trkpt>
      <trkpt lat="37.06939167" lon="-3.37568333">
        <ele>2957.0</ele>
        <time>2022-11-20T10:34:36.000Z</time>
      </trkpt>
      <trkpt lat="37.06938667" lon="-3.375695">
        <ele>2958.0</ele>
        <time>2022-11-20T10:34:37.000Z</time>
      </trkpt>
      <trkpt lat="37.06938167" lon="-3.375705">
        <ele>2958.0</ele>
        <time>2022-11-20T10:34:38.000Z</time>
      </trkpt>
      <trkpt lat="37.06937833" lon="-3.37571667">
        <ele>2958.0</ele>
        <time>2022-11-20T10:34:39.000Z</time>
      </trkpt>
      <trkpt lat="37.069375" lon="-3.37572667">
        <ele>2958.0</ele>
        <time>2022-11-20T10:34:40.000Z</time>
      </trkpt>
      <trkpt lat="37.06937167" lon="-3.37574">
        <ele>2958.0</ele>
        <time>2022-11-20T10:34:41.000Z</time>
      </trkpt>
      <trkpt lat="37.06936833" lon="-3.37575">
        <ele>2958.0</ele>
        <time>2022-11-20T10:34:42.000Z</time>
      </trkpt>
      <trkpt lat="37.069365" lon="-3.37576">
        <ele>2958.0</ele>
        <time>2022-11-20T10:34:43.000Z</time>
      </trkpt>
      <trkpt lat="37.06936167" lon="-3.37577">
        <ele>2958.0</ele>
        <time>2022-11-20T10:34:44.000Z</time>
      </trkpt>
      <trkpt lat="37.06936" lon="-3.37578167">
        <ele>2958.0</ele>
        <time>2022-11-20T10:34:45.000Z</time>
      </trkpt>
      <trkpt lat="37.06935667" lon="-3.37579167">
        <ele>2958.0</ele>
        <time>2022-11-20T10:34:46.000Z</time>
      </trkpt>
      <trkpt lat="37.06935167" lon="-3.37580333">
        <ele>2959.0</ele>
        <time>2022-11-20T10:34:47.000Z</time>
      </trkpt>
      <trkpt lat="37.06934833" lon="-3.37581667">
        <ele>2959.0</ele>
        <time>2022-11-20T10:34:48.000Z</time>
      </trkpt>
      <trkpt lat="37.069345" lon="-3.37582833">
        <ele>2959.0</ele>
        <time>2022-11-20T10:34:49.000Z</time>
      </trkpt>
      <trkpt lat="37.06934333" lon="-3.37584">
        <ele>2959.0</ele>
        <time>2022-11-20T10:34:50.000Z</time>
      </trkpt>
      <trkpt lat="37.06934" lon="-3.37585167">
        <ele>2959.0</ele>
        <time>2022-11-20T10:34:51.000Z</time>
      </trkpt>
      <trkpt lat="37.06933833" lon="-3.375865">
        <ele>2959.0</ele>
        <time>2022-11-20T10:34:52.000Z</time>
      </trkpt>
      <trkpt lat="37.06933667" lon="-3.375875">
        <ele>2959.0</ele>
        <time>2022-11-20T10:34:53.000Z</time>
      </trkpt>
      <trkpt lat="37.069335" lon="-3.37589">
        <ele>2959.0</ele>
        <time>2022-11-20T10:34:54.000Z</time>
      </trkpt>
      <trkpt lat="37.06933333" lon="-3.37590333">
        <ele>2959.0</ele>
        <time>2022-11-20T10:34:55.000Z</time>
      </trkpt>
      <trkpt lat="37.06933333" lon="-3.375915">
        <ele>2959.0</ele>
        <time>2022-11-20T10:34:56.000Z</time>
      </trkpt>
      <trkpt lat="37.06933167" lon="-3.37592833">
        <ele>2959.0</ele>
        <time>2022-11-20T10:34:57.000Z</time>
      </trkpt>
      <trkpt lat="37.06932833" lon="-3.37594">
        <ele>2959.0</ele>
        <time>2022-11-20T10:34:58.000Z</time>
      </trkpt>
      <trkpt lat="37.06932667" lon="-3.37595167">
        <ele>2959.0</ele>
        <time>2022-11-20T10:34:59.000Z</time>
      </trkpt>
      <trkpt lat="37.06932333" lon="-3.37596333">
        <ele>2959.0</ele>
        <time>2022-11-20T10:35:00.000Z</time>
      </trkpt>
      <trkpt lat="37.06931833" lon="-3.37597667">
        <ele>2959.0</ele>
        <time>2022-11-20T10:35:01.000Z</time>
      </trkpt>
      <trkpt lat="37.069315" lon="-3.37598667">
        <ele>2960.0</ele>
        <time>2022-11-20T10:35:02.000Z</time>
      </trkpt>
      <trkpt lat="37.06931" lon="-3.375995">
        <ele>2960.0</ele>
        <time>2022-11-20T10:35:03.000Z</time>
      </trkpt>
      <trkpt lat="37.06930667" lon="-3.37600667">
        <ele>2960.0</ele>
        <time>2022-11-20T10:35:04.000Z</time>
      </trkpt>
      <trkpt lat="37.06930333" lon="-3.37601833">
        <ele>2960.0</ele>
        <time>2022-11-20T10:35:05.000Z</time>
      </trkpt>
      <trkpt lat="37.0693" lon="-3.37603">
        <ele>2960.0</ele>
        <time>2022-11-20T10:35:06.000Z</time>
      </trkpt>
      <trkpt lat="37.06929667" lon="-3.37604333">
        <ele>2960.0</ele>
        <time>2022-11-20T10:35:07.000Z</time>
      </trkpt>
      <trkpt lat="37.06929333" lon="-3.376055">
        <ele>2960.0</ele>
        <time>2022-11-20T10:35:08.000Z</time>
      </trkpt>
      <trkpt lat="37.06928833" lon="-3.376065">
        <ele>2960.0</ele>
        <time>2022-11-20T10:35:09.000Z</time>
      </trkpt>
      <trkpt lat="37.069285" lon="-3.376075">
        <ele>2960.0</ele>
        <time>2022-11-20T10:35:10.000Z</time>
      </trkpt>
      <trkpt lat="37.06928" lon="-3.37608333">
        <ele>2960.0</ele>
        <time>2022-11-20T10:35:11.000Z</time>
      </trkpt>
      <trkpt lat="37.069275" lon="-3.37609">
        <ele>2960.0</ele>
        <time>2022-11-20T10:35:12.000Z</time>
      </trkpt>
      <trkpt lat="37.06926833" lon="-3.376095">
        <ele>2960.0</ele>
        <time>2022-11-20T10:35:13.000Z</time>
      </trkpt>
      <trkpt lat="37.06926333" lon="-3.376105">
        <ele>2961.0</ele>
        <time>2022-11-20T10:35:14.000Z</time>
      </trkpt>
      <trkpt lat="37.06925667" lon="-3.37611667">
        <ele>2961.0</ele>
        <time>2022-11-20T10:35:15.000Z</time>
      </trkpt>
      <trkpt lat="37.06925" lon="-3.37612333">
        <ele>2961.0</ele>
        <time>2022-11-20T10:35:16.000Z</time>
      </trkpt>
      <trkpt lat="37.06924333" lon="-3.37613167">
        <ele>2961.0</ele>
        <time>2022-11-20T10:35:17.000Z</time>
      </trkpt>
      <trkpt lat="37.069235" lon="-3.37613833">
        <ele>2961.0</ele>
        <time>2022-11-20T10:35:18.000Z</time>
      </trkpt>
      <trkpt lat="37.06922833" lon="-3.37614333">
        <ele>2961.0</ele>
        <time>2022-11-20T10:35:19.000Z</time>
      </trkpt>
      <trkpt lat="37.06922" lon="-3.37614833">
        <ele>2961.0</ele>
        <time>2022-11-20T10:35:20.000Z</time>
      </trkpt>
      <trkpt lat="37.06921333" lon="-3.37615167">
        <ele>2961.0</ele>
        <time>2022-11-20T10:35:21.000Z</time>
      </trkpt>
      <trkpt lat="37.069205" lon="-3.37615667">
        <ele>2961.0</ele>
        <time>2022-11-20T10:35:22.000Z</time>
      </trkpt>
      <trkpt lat="37.06919833" lon="-3.37616">
        <ele>2961.0</ele>
        <time>2022-11-20T10:35:23.000Z</time>
      </trkpt>
      <trkpt lat="37.06918667" lon="-3.37616667">
        <ele>2961.0</ele>
        <time>2022-11-20T10:35:24.000Z</time>
      </trkpt>
      <trkpt lat="37.06918" lon="-3.37617167">
        <ele>2961.0</ele>
        <time>2022-11-20T10:35:25.000Z</time>
      </trkpt>
      <trkpt lat="37.06917167" lon="-3.376175">
        <ele>2961.0</ele>
        <time>2022-11-20T10:35:26.000Z</time>
      </trkpt>
      <trkpt lat="37.06916167" lon="-3.37617667">
        <ele>2961.0</ele>
        <time>2022-11-20T10:35:27.000Z</time>
      </trkpt>
      <trkpt lat="37.06915333" lon="-3.37618">
        <ele>2961.0</ele>
        <time>2022-11-20T10:35:28.000Z</time>
      </trkpt>
      <trkpt lat="37.06914167" lon="-3.37618333">
        <ele>2961.0</ele>
        <time>2022-11-20T10:35:29.000Z</time>
      </trkpt>
      <trkpt lat="37.06913167" lon="-3.37618667">
        <ele>2961.0</ele>
        <time>2022-11-20T10:35:30.000Z</time>
      </trkpt>
      <trkpt lat="37.06912167" lon="-3.37619167">
        <ele>2962.0</ele>
        <time>2022-11-20T10:35:31.000Z</time>
      </trkpt>
      <trkpt lat="37.06911167" lon="-3.37619167">
        <ele>2962.0</ele>
        <time>2022-11-20T10:35:32.000Z</time>
      </trkpt>
      <trkpt lat="37.06910333" lon="-3.37619333">
        <ele>2962.0</ele>
        <time>2022-11-20T10:35:33.000Z</time>
      </trkpt>
      <trkpt lat="37.06909333" lon="-3.37619333">
        <ele>2962.0</ele>
        <time>2022-11-20T10:35:34.000Z</time>
      </trkpt>
      <trkpt lat="37.069085" lon="-3.376195">
        <ele>2962.0</ele>
        <time>2022-11-20T10:35:35.000Z</time>
      </trkpt>
      <trkpt lat="37.069075" lon="-3.376195">
        <ele>2962.0</ele>
        <time>2022-11-20T10:35:36.000Z</time>
      </trkpt>
      <trkpt lat="37.06906667" lon="-3.376195">
        <ele>2962.0</ele>
        <time>2022-11-20T10:35:37.000Z</time>
      </trkpt>
      <trkpt lat="37.06905833" lon="-3.37619667">
        <ele>2962.0</ele>
        <time>2022-11-20T10:35:38.000Z</time>
      </trkpt>
      <trkpt lat="37.06904667" lon="-3.37619667">
        <ele>2962.0</ele>
        <time>2022-11-20T10:35:39.000Z</time>
      </trkpt>
      <trkpt lat="37.06903833" lon="-3.37619667">
        <ele>2962.0</ele>
        <time>2022-11-20T10:35:40.000Z</time>
      </trkpt>
      <trkpt lat="37.06903" lon="-3.376195">
        <ele>2962.0</ele>
        <time>2022-11-20T10:35:41.000Z</time>
      </trkpt>
      <trkpt lat="37.06902333" lon="-3.37619">
        <ele>2962.0</ele>
        <time>2022-11-20T10:35:42.000Z</time>
      </trkpt>
      <trkpt lat="37.06901667" lon="-3.37618833">
        <ele>2962.0</ele>
        <time>2022-11-20T10:35:43.000Z</time>
      </trkpt>
      <trkpt lat="37.06900833" lon="-3.37618833">
        <ele>2962.0</ele>
        <time>2022-11-20T10:35:44.000Z</time>
      </trkpt>
      <trkpt lat="37.069" lon="-3.37619">
        <ele>2962.0</ele>
        <time>2022-11-20T10:35:45.000Z</time>
      </trkpt>
      <trkpt lat="37.06899167" lon="-3.37619167">
        <ele>2962.0</ele>
        <time>2022-11-20T10:35:46.000Z</time>
      </trkpt>
      <trkpt lat="37.06898333" lon="-3.37619333">
        <ele>2963.0</ele>
        <time>2022-11-20T10:35:47.000Z</time>
      </trkpt>
      <trkpt lat="37.068975" lon="-3.37619333">
        <ele>2963.0</ele>
        <time>2022-11-20T10:35:48.000Z</time>
      </trkpt>
      <trkpt lat="37.06896667" lon="-3.37619667">
        <ele>2963.0</ele>
        <time>2022-11-20T10:35:49.000Z</time>
      </trkpt>
      <trkpt lat="37.06896" lon="-3.37620333">
        <ele>2963.0</ele>
        <time>2022-11-20T10:35:50.000Z</time>
      </trkpt>
      <trkpt lat="37.06895333" lon="-3.37620833">
        <ele>2963.0</ele>
        <time>2022-11-20T10:35:51.000Z</time>
      </trkpt>
      <trkpt lat="37.06894667" lon="-3.37621167">
        <ele>2963.0</ele>
        <time>2022-11-20T10:35:52.000Z</time>
      </trkpt>
      <trkpt lat="37.068945" lon="-3.37621333">
        <ele>2963.0</ele>
        <time>2022-11-20T10:35:53.000Z</time>
      </trkpt>
      <trkpt lat="37.06894333" lon="-3.37621333">
        <ele>2963.0</ele>
        <time>2022-11-20T10:35:54.000Z</time>
      </trkpt>
      <trkpt lat="37.06894333" lon="-3.37621333">
        <ele>2963.0</ele>
        <time>2022-11-20T10:35:55.000Z</time>
      </trkpt>
      <trkpt lat="37.06894333" lon="-3.376215">
        <ele>2963.0</ele>
        <time>2022-11-20T10:35:56.000Z</time>
      </trkpt>
      <trkpt lat="37.06894" lon="-3.37621333">
        <ele>2963.0</ele>
        <time>2022-11-20T10:35:57.000Z</time>
      </trkpt>
      <trkpt lat="37.06893167" lon="-3.37621">
        <ele>2963.0</ele>
        <time>2022-11-20T10:35:58.000Z</time>
      </trkpt>
      <trkpt lat="37.068925" lon="-3.37620333">
        <ele>2963.0</ele>
        <time>2022-11-20T10:35:59.000Z</time>
      </trkpt>
      <trkpt lat="37.06891667" lon="-3.37619667">
        <ele>2964.0</ele>
        <time>2022-11-20T10:36:00.000Z</time>
      </trkpt>
      <trkpt lat="37.06891" lon="-3.37618833">
        <ele>2964.0</ele>
        <time>2022-11-20T10:36:01.000Z</time>
      </trkpt>
      <trkpt lat="37.06890333" lon="-3.37618167">
        <ele>2964.0</ele>
        <time>2022-11-20T10:36:02.000Z</time>
      </trkpt>
      <trkpt lat="37.068895" lon="-3.37617333">
        <ele>2964.0</ele>
        <time>2022-11-20T10:36:03.000Z</time>
      </trkpt>
      <trkpt lat="37.06888667" lon="-3.37616833">
        <ele>2964.0</ele>
        <time>2022-11-20T10:36:04.000Z</time>
      </trkpt>
      <trkpt lat="37.06887833" lon="-3.37616333">
        <ele>2964.0</ele>
        <time>2022-11-20T10:36:05.000Z</time>
      </trkpt>
      <trkpt lat="37.06887" lon="-3.37615667">
        <ele>2964.0</ele>
        <time>2022-11-20T10:36:06.000Z</time>
      </trkpt>
      <trkpt lat="37.06886333" lon="-3.37615167">
        <ele>2964.0</ele>
        <time>2022-11-20T10:36:07.000Z</time>
      </trkpt>
      <trkpt lat="37.06885667" lon="-3.37614333">
        <ele>2964.0</ele>
        <time>2022-11-20T10:36:08.000Z</time>
      </trkpt>
      <trkpt lat="37.06885167" lon="-3.376135">
        <ele>2964.0</ele>
        <time>2022-11-20T10:36:09.000Z</time>
      </trkpt>
      <trkpt lat="37.06884667" lon="-3.37613">
        <ele>2965.0</ele>
        <time>2022-11-20T10:36:10.000Z</time>
      </trkpt>
      <trkpt lat="37.06883833" lon="-3.376125">
        <ele>2965.0</ele>
        <time>2022-11-20T10:36:11.000Z</time>
      </trkpt>
      <trkpt lat="37.06883167" lon="-3.37612">
        <ele>2965.0</ele>
        <time>2022-11-20T10:36:12.000Z</time>
      </trkpt>
      <trkpt lat="37.06882333" lon="-3.37611667">
        <ele>2965.0</ele>
        <time>2022-11-20T10:36:13.000Z</time>
      </trkpt>
      <trkpt lat="37.06881667" lon="-3.37611167">
        <ele>2965.0</ele>
        <time>2022-11-20T10:36:14.000Z</time>
      </trkpt>
      <trkpt lat="37.06881167" lon="-3.37610333">
        <ele>2965.0</ele>
        <time>2022-11-20T10:36:15.000Z</time>
      </trkpt>
      <trkpt lat="37.068805" lon="-3.37609667">
        <ele>2965.0</ele>
        <time>2022-11-20T10:36:16.000Z</time>
      </trkpt>
      <trkpt lat="37.06879833" lon="-3.37609">
        <ele>2965.0</ele>
        <time>2022-11-20T10:36:17.000Z</time>
      </trkpt>
      <trkpt lat="37.06879167" lon="-3.37608">
        <ele>2965.0</ele>
        <time>2022-11-20T10:36:18.000Z</time>
      </trkpt>
      <trkpt lat="37.06879167" lon="-3.37607167">
        <ele>2965.0</ele>
        <time>2022-11-20T10:36:19.000Z</time>
      </trkpt>
      <trkpt lat="37.06879" lon="-3.37606333">
        <ele>2965.0</ele>
        <time>2022-11-20T10:36:20.000Z</time>
      </trkpt>
      <trkpt lat="37.06878667" lon="-3.37606">
        <ele>2965.0</ele>
        <time>2022-11-20T10:36:21.000Z</time>
      </trkpt>
      <trkpt lat="37.06878167" lon="-3.376055">
        <ele>2965.0</ele>
        <time>2022-11-20T10:36:22.000Z</time>
      </trkpt>
      <trkpt lat="37.06877667" lon="-3.37605">
        <ele>2965.0</ele>
        <time>2022-11-20T10:36:23.000Z</time>
      </trkpt>
      <trkpt lat="37.06877" lon="-3.376045">
        <ele>2965.0</ele>
        <time>2022-11-20T10:36:24.000Z</time>
      </trkpt>
      <trkpt lat="37.06876333" lon="-3.37604">
        <ele>2966.0</ele>
        <time>2022-11-20T10:36:25.000Z</time>
      </trkpt>
      <trkpt lat="37.06875667" lon="-3.37603667">
        <ele>2966.0</ele>
        <time>2022-11-20T10:36:26.000Z</time>
      </trkpt>
      <trkpt lat="37.06875" lon="-3.37603167">
        <ele>2966.0</ele>
        <time>2022-11-20T10:36:27.000Z</time>
      </trkpt>
      <trkpt lat="37.06874333" lon="-3.376025">
        <ele>2966.0</ele>
        <time>2022-11-20T10:36:28.000Z</time>
      </trkpt>
      <trkpt lat="37.06873667" lon="-3.37602">
        <ele>2966.0</ele>
        <time>2022-11-20T10:36:29.000Z</time>
      </trkpt>
      <trkpt lat="37.06873" lon="-3.376015">
        <ele>2966.0</ele>
        <time>2022-11-20T10:36:30.000Z</time>
      </trkpt>
      <trkpt lat="37.06872333" lon="-3.37601167">
        <ele>2966.0</ele>
        <time>2022-11-20T10:36:31.000Z</time>
      </trkpt>
      <trkpt lat="37.06871667" lon="-3.37600667">
        <ele>2966.0</ele>
        <time>2022-11-20T10:36:32.000Z</time>
      </trkpt>
      <trkpt lat="37.06871167" lon="-3.37600333">
        <ele>2966.0</ele>
        <time>2022-11-20T10:36:33.000Z</time>
      </trkpt>
      <trkpt lat="37.06870333" lon="-3.37599667">
        <ele>2966.0</ele>
        <time>2022-11-20T10:36:34.000Z</time>
      </trkpt>
      <trkpt lat="37.06869667" lon="-3.37599">
        <ele>2966.0</ele>
        <time>2022-11-20T10:36:35.000Z</time>
      </trkpt>
      <trkpt lat="37.06869" lon="-3.37598833">
        <ele>2966.0</ele>
        <time>2022-11-20T10:36:36.000Z</time>
      </trkpt>
      <trkpt lat="37.06868333" lon="-3.37598167">
        <ele>2966.0</ele>
        <time>2022-11-20T10:36:37.000Z</time>
      </trkpt>
      <trkpt lat="37.068675" lon="-3.375975">
        <ele>2967.0</ele>
        <time>2022-11-20T10:36:38.000Z</time>
      </trkpt>
      <trkpt lat="37.06866833" lon="-3.37596833">
        <ele>2967.0</ele>
        <time>2022-11-20T10:36:39.000Z</time>
      </trkpt>
      <trkpt lat="37.06866" lon="-3.37596333">
        <ele>2967.0</ele>
        <time>2022-11-20T10:36:40.000Z</time>
      </trkpt>
      <trkpt lat="37.068655" lon="-3.37595667">
        <ele>2967.0</ele>
        <time>2022-11-20T10:36:41.000Z</time>
      </trkpt>
      <trkpt lat="37.06864667" lon="-3.37595">
        <ele>2967.0</ele>
        <time>2022-11-20T10:36:42.000Z</time>
      </trkpt>
      <trkpt lat="37.06863667" lon="-3.37594333">
        <ele>2967.0</ele>
        <time>2022-11-20T10:36:43.000Z</time>
      </trkpt>
      <trkpt lat="37.06863" lon="-3.37594">
        <ele>2967.0</ele>
        <time>2022-11-20T10:36:44.000Z</time>
      </trkpt>
      <trkpt lat="37.06862333" lon="-3.37593333">
        <ele>2967.0</ele>
        <time>2022-11-20T10:36:45.000Z</time>
      </trkpt>
      <trkpt lat="37.06861667" lon="-3.37592833">
        <ele>2967.0</ele>
        <time>2022-11-20T10:36:46.000Z</time>
      </trkpt>
      <trkpt lat="37.06860833" lon="-3.37592167">
        <ele>2967.0</ele>
        <time>2022-11-20T10:36:47.000Z</time>
      </trkpt>
      <trkpt lat="37.0686" lon="-3.375915">
        <ele>2968.0</ele>
        <time>2022-11-20T10:36:48.000Z</time>
      </trkpt>
      <trkpt lat="37.06859333" lon="-3.37590833">
        <ele>2968.0</ele>
        <time>2022-11-20T10:36:49.000Z</time>
      </trkpt>
      <trkpt lat="37.068585" lon="-3.37590333">
        <ele>2968.0</ele>
        <time>2022-11-20T10:36:50.000Z</time>
      </trkpt>
      <trkpt lat="37.06857833" lon="-3.37589833">
        <ele>2968.0</ele>
        <time>2022-11-20T10:36:51.000Z</time>
      </trkpt>
      <trkpt lat="37.068575" lon="-3.375895">
        <ele>2968.0</ele>
        <time>2022-11-20T10:36:52.000Z</time>
      </trkpt>
      <trkpt lat="37.068575" lon="-3.37589167">
        <ele>2968.0</ele>
        <time>2022-11-20T10:36:53.000Z</time>
      </trkpt>
      <trkpt lat="37.06857333" lon="-3.37588667">
        <ele>2968.0</ele>
        <time>2022-11-20T10:36:54.000Z</time>
      </trkpt>
      <trkpt lat="37.06857333" lon="-3.37588333">
        <ele>2968.0</ele>
        <time>2022-11-20T10:36:55.000Z</time>
      </trkpt>
      <trkpt lat="37.068575" lon="-3.37588167">
        <ele>2968.0</ele>
        <time>2022-11-20T10:36:56.000Z</time>
      </trkpt>
      <trkpt lat="37.068575" lon="-3.37588167">
        <ele>2968.0</ele>
        <time>2022-11-20T10:36:57.000Z</time>
      </trkpt>
      <trkpt lat="37.06857667" lon="-3.37588167">
        <ele>2968.0</ele>
        <time>2022-11-20T10:36:58.000Z</time>
      </trkpt>
      <trkpt lat="37.06857667" lon="-3.37588667">
        <ele>2968.0</ele>
        <time>2022-11-20T10:36:59.000Z</time>
      </trkpt>
      <trkpt lat="37.06857167" lon="-3.37588667">
        <ele>2968.0</ele>
        <time>2022-11-20T10:37:00.000Z</time>
      </trkpt>
      <trkpt lat="37.06856333" lon="-3.37588333">
        <ele>2968.0</ele>
        <time>2022-11-20T10:37:01.000Z</time>
      </trkpt>
      <trkpt lat="37.068555" lon="-3.37587667">
        <ele>2968.0</ele>
        <time>2022-11-20T10:37:02.000Z</time>
      </trkpt>
      <trkpt lat="37.06854833" lon="-3.37587167">
        <ele>2968.0</ele>
        <time>2022-11-20T10:37:03.000Z</time>
      </trkpt>
      <trkpt lat="37.06853833" lon="-3.37586667">
        <ele>2968.0</ele>
        <time>2022-11-20T10:37:04.000Z</time>
      </trkpt>
      <trkpt lat="37.06853" lon="-3.37586167">
        <ele>2969.0</ele>
        <time>2022-11-20T10:37:05.000Z</time>
      </trkpt>
      <trkpt lat="37.06852" lon="-3.37585667">
        <ele>2969.0</ele>
        <time>2022-11-20T10:37:06.000Z</time>
      </trkpt>
      <trkpt lat="37.06851167" lon="-3.37585167">
        <ele>2969.0</ele>
        <time>2022-11-20T10:37:07.000Z</time>
      </trkpt>
      <trkpt lat="37.06850167" lon="-3.37585">
        <ele>2969.0</ele>
        <time>2022-11-20T10:37:08.000Z</time>
      </trkpt>
      <trkpt lat="37.06849333" lon="-3.375845">
        <ele>2969.0</ele>
        <time>2022-11-20T10:37:09.000Z</time>
      </trkpt>
      <trkpt lat="37.068485" lon="-3.37584">
        <ele>2969.0</ele>
        <time>2022-11-20T10:37:10.000Z</time>
      </trkpt>
      <trkpt lat="37.068475" lon="-3.37583333">
        <ele>2969.0</ele>
        <time>2022-11-20T10:37:11.000Z</time>
      </trkpt>
      <trkpt lat="37.06846667" lon="-3.37582667">
        <ele>2969.0</ele>
        <time>2022-11-20T10:37:12.000Z</time>
      </trkpt>
      <trkpt lat="37.06845833" lon="-3.37582">
        <ele>2969.0</ele>
        <time>2022-11-20T10:37:13.000Z</time>
      </trkpt>
      <trkpt lat="37.06845167" lon="-3.37581167">
        <ele>2969.0</ele>
        <time>2022-11-20T10:37:14.000Z</time>
      </trkpt>
      <trkpt lat="37.06844333" lon="-3.37580667">
        <ele>2969.0</ele>
        <time>2022-11-20T10:37:15.000Z</time>
      </trkpt>
      <trkpt lat="37.06843333" lon="-3.3758">
        <ele>2969.0</ele>
        <time>2022-11-20T10:37:16.000Z</time>
      </trkpt>
      <trkpt lat="37.06842333" lon="-3.375795">
        <ele>2969.0</ele>
        <time>2022-11-20T10:37:17.000Z</time>
      </trkpt>
      <trkpt lat="37.068415" lon="-3.37579">
        <ele>2969.0</ele>
        <time>2022-11-20T10:37:18.000Z</time>
      </trkpt>
      <trkpt lat="37.068405" lon="-3.37578667">
        <ele>2969.0</ele>
        <time>2022-11-20T10:37:19.000Z</time>
      </trkpt>
      <trkpt lat="37.068395" lon="-3.37578167">
        <ele>2969.0</ele>
        <time>2022-11-20T10:37:20.000Z</time>
      </trkpt>
      <trkpt lat="37.06838667" lon="-3.37577667">
        <ele>2969.0</ele>
        <time>2022-11-20T10:37:21.000Z</time>
      </trkpt>
      <trkpt lat="37.06838" lon="-3.37577333">
        <ele>2970.0</ele>
        <time>2022-11-20T10:37:22.000Z</time>
      </trkpt>
      <trkpt lat="37.06837167" lon="-3.37577167">
        <ele>2970.0</ele>
        <time>2022-11-20T10:37:23.000Z</time>
      </trkpt>
      <trkpt lat="37.06836167" lon="-3.37577167">
        <ele>2970.0</ele>
        <time>2022-11-20T10:37:24.000Z</time>
      </trkpt>
      <trkpt lat="37.06835167" lon="-3.37576833">
        <ele>2970.0</ele>
        <time>2022-11-20T10:37:25.000Z</time>
      </trkpt>
      <trkpt lat="37.06834333" lon="-3.37576333">
        <ele>2970.0</ele>
        <time>2022-11-20T10:37:26.000Z</time>
      </trkpt>
      <trkpt lat="37.06833333" lon="-3.375755">
        <ele>2970.0</ele>
        <time>2022-11-20T10:37:27.000Z</time>
      </trkpt>
      <trkpt lat="37.068325" lon="-3.37574833">
        <ele>2970.0</ele>
        <time>2022-11-20T10:37:28.000Z</time>
      </trkpt>
      <trkpt lat="37.06831667" lon="-3.37574167">
        <ele>2970.0</ele>
        <time>2022-11-20T10:37:29.000Z</time>
      </trkpt>
      <trkpt lat="37.06830833" lon="-3.37573333">
        <ele>2970.0</ele>
        <time>2022-11-20T10:37:30.000Z</time>
      </trkpt>
      <trkpt lat="37.0683" lon="-3.375725">
        <ele>2970.0</ele>
        <time>2022-11-20T10:37:31.000Z</time>
      </trkpt>
      <trkpt lat="37.06829167" lon="-3.375715">
        <ele>2971.0</ele>
        <time>2022-11-20T10:37:32.000Z</time>
      </trkpt>
      <trkpt lat="37.068285" lon="-3.37570833">
        <ele>2971.0</ele>
        <time>2022-11-20T10:37:33.000Z</time>
      </trkpt>
      <trkpt lat="37.06827833" lon="-3.37569833">
        <ele>2971.0</ele>
        <time>2022-11-20T10:37:34.000Z</time>
      </trkpt>
      <trkpt lat="37.06827167" lon="-3.37569">
        <ele>2971.0</ele>
        <time>2022-11-20T10:37:35.000Z</time>
      </trkpt>
      <trkpt lat="37.068265" lon="-3.37568">
        <ele>2971.0</ele>
        <time>2022-11-20T10:37:36.000Z</time>
      </trkpt>
      <trkpt lat="37.06826" lon="-3.37567333">
        <ele>2971.0</ele>
        <time>2022-11-20T10:37:37.000Z</time>
      </trkpt>
      <trkpt lat="37.06825833" lon="-3.37566833">
        <ele>2971.0</ele>
        <time>2022-11-20T10:37:38.000Z</time>
      </trkpt>
      <trkpt lat="37.06825667" lon="-3.37566833">
        <ele>2971.0</ele>
        <time>2022-11-20T10:37:39.000Z</time>
      </trkpt>
      <trkpt lat="37.06825667" lon="-3.37566833">
        <ele>2972.0</ele>
        <time>2022-11-20T10:37:40.000Z</time>
      </trkpt>
      <trkpt lat="37.06825667" lon="-3.37566833">
        <ele>2971.0</ele>
        <time>2022-11-20T10:37:41.000Z</time>
      </trkpt>
      <trkpt lat="37.06825667" lon="-3.37567">
        <ele>2971.0</ele>
        <time>2022-11-20T10:37:42.000Z</time>
      </trkpt>
      <trkpt lat="37.06825667" lon="-3.37567">
        <ele>2971.0</ele>
        <time>2022-11-20T10:37:43.000Z</time>
      </trkpt>
      <trkpt lat="37.068255" lon="-3.37566833">
        <ele>2971.0</ele>
        <time>2022-11-20T10:37:44.000Z</time>
      </trkpt>
      <trkpt lat="37.06825167" lon="-3.37566167">
        <ele>2971.0</ele>
        <time>2022-11-20T10:37:45.000Z</time>
      </trkpt>
      <trkpt lat="37.068245" lon="-3.37565333">
        <ele>2971.0</ele>
        <time>2022-11-20T10:37:46.000Z</time>
      </trkpt>
      <trkpt lat="37.06824" lon="-3.37564333">
        <ele>2972.0</ele>
        <time>2022-11-20T10:37:47.000Z</time>
      </trkpt>
      <trkpt lat="37.068235" lon="-3.375635">
        <ele>2972.0</ele>
        <time>2022-11-20T10:37:48.000Z</time>
      </trkpt>
      <trkpt lat="37.06823" lon="-3.375625">
        <ele>2972.0</ele>
        <time>2022-11-20T10:37:49.000Z</time>
      </trkpt>
      <trkpt lat="37.068225" lon="-3.375615">
        <ele>2972.0</ele>
        <time>2022-11-20T10:37:50.000Z</time>
      </trkpt>
      <trkpt lat="37.06822" lon="-3.37560333">
        <ele>2972.0</ele>
        <time>2022-11-20T10:37:51.000Z</time>
      </trkpt>
      <trkpt lat="37.068215" lon="-3.37559333">
        <ele>2972.0</ele>
        <time>2022-11-20T10:37:52.000Z</time>
      </trkpt>
      <trkpt lat="37.06820833" lon="-3.37558167">
        <ele>2972.0</ele>
        <time>2022-11-20T10:37:53.000Z</time>
      </trkpt>
      <trkpt lat="37.068205" lon="-3.37557333">
        <ele>2972.0</ele>
        <time>2022-11-20T10:37:54.000Z</time>
      </trkpt>
      <trkpt lat="37.0682" lon="-3.37556167">
        <ele>2972.0</ele>
        <time>2022-11-20T10:37:55.000Z</time>
      </trkpt>
      <trkpt lat="37.068195" lon="-3.37555167">
        <ele>2972.0</ele>
        <time>2022-11-20T10:37:56.000Z</time>
      </trkpt>
      <trkpt lat="37.06819167" lon="-3.37553833">
        <ele>2972.0</ele>
        <time>2022-11-20T10:37:57.000Z</time>
      </trkpt>
      <trkpt lat="37.06818667" lon="-3.375525">
        <ele>2972.0</ele>
        <time>2022-11-20T10:37:58.000Z</time>
      </trkpt>
      <trkpt lat="37.06818167" lon="-3.375515">
        <ele>2973.0</ele>
        <time>2022-11-20T10:37:59.000Z</time>
      </trkpt>
      <trkpt lat="37.06817833" lon="-3.375505">
        <ele>2973.0</ele>
        <time>2022-11-20T10:38:00.000Z</time>
      </trkpt>
      <trkpt lat="37.068175" lon="-3.37549667">
        <ele>2973.0</ele>
        <time>2022-11-20T10:38:01.000Z</time>
      </trkpt>
      <trkpt lat="37.06817167" lon="-3.37548667">
        <ele>2973.0</ele>
        <time>2022-11-20T10:38:02.000Z</time>
      </trkpt>
      <trkpt lat="37.06816667" lon="-3.375475">
        <ele>2973.0</ele>
        <time>2022-11-20T10:38:03.000Z</time>
      </trkpt>
      <trkpt lat="37.06816167" lon="-3.375465">
        <ele>2973.0</ele>
        <time>2022-11-20T10:38:04.000Z</time>
      </trkpt>
      <trkpt lat="37.06815667" lon="-3.375455">
        <ele>2973.0</ele>
        <time>2022-11-20T10:38:05.000Z</time>
      </trkpt>
      <trkpt lat="37.06815167" lon="-3.375445">
        <ele>2973.0</ele>
        <time>2022-11-20T10:38:06.000Z</time>
      </trkpt>
      <trkpt lat="37.06814833" lon="-3.37543333">
        <ele>2973.0</ele>
        <time>2022-11-20T10:38:07.000Z</time>
      </trkpt>
      <trkpt lat="37.06814333" lon="-3.37542167">
        <ele>2973.0</ele>
        <time>2022-11-20T10:38:08.000Z</time>
      </trkpt>
      <trkpt lat="37.06813833" lon="-3.37541167">
        <ele>2973.0</ele>
        <time>2022-11-20T10:38:09.000Z</time>
      </trkpt>
      <trkpt lat="37.06813333" lon="-3.37540167">
        <ele>2973.0</ele>
        <time>2022-11-20T10:38:10.000Z</time>
      </trkpt>
      <trkpt lat="37.06813" lon="-3.37539333">
        <ele>2973.0</ele>
        <time>2022-11-20T10:38:11.000Z</time>
      </trkpt>
      <trkpt lat="37.068125" lon="-3.37538667">
        <ele>2974.0</ele>
        <time>2022-11-20T10:38:12.000Z</time>
      </trkpt>
      <trkpt lat="37.06812167" lon="-3.37537667">
        <ele>2974.0</ele>
        <time>2022-11-20T10:38:13.000Z</time>
      </trkpt>
      <trkpt lat="37.068115" lon="-3.37536833">
        <ele>2974.0</ele>
        <time>2022-11-20T10:38:14.000Z</time>
      </trkpt>
      <trkpt lat="37.06811" lon="-3.37535833">
        <ele>2974.0</ele>
        <time>2022-11-20T10:38:15.000Z</time>
      </trkpt>
      <trkpt lat="37.068105" lon="-3.37534833">
        <ele>2974.0</ele>
        <time>2022-11-20T10:38:16.000Z</time>
      </trkpt>
      <trkpt lat="37.0681" lon="-3.37533833">
        <ele>2974.0</ele>
        <time>2022-11-20T10:38:17.000Z</time>
      </trkpt>
      <trkpt lat="37.068095" lon="-3.37533">
        <ele>2974.0</ele>
        <time>2022-11-20T10:38:18.000Z</time>
      </trkpt>
      <trkpt lat="37.06809" lon="-3.37532">
        <ele>2974.0</ele>
        <time>2022-11-20T10:38:19.000Z</time>
      </trkpt>
      <trkpt lat="37.068085" lon="-3.37531">
        <ele>2975.0</ele>
        <time>2022-11-20T10:38:20.000Z</time>
      </trkpt>
      <trkpt lat="37.06808" lon="-3.3753">
        <ele>2975.0</ele>
        <time>2022-11-20T10:38:21.000Z</time>
      </trkpt>
      <trkpt lat="37.068075" lon="-3.37529167">
        <ele>2975.0</ele>
        <time>2022-11-20T10:38:22.000Z</time>
      </trkpt>
      <trkpt lat="37.06807" lon="-3.37528167">
        <ele>2975.0</ele>
        <time>2022-11-20T10:38:23.000Z</time>
      </trkpt>
      <trkpt lat="37.068065" lon="-3.37527167">
        <ele>2975.0</ele>
        <time>2022-11-20T10:38:24.000Z</time>
      </trkpt>
      <trkpt lat="37.06806" lon="-3.37526167">
        <ele>2975.0</ele>
        <time>2022-11-20T10:38:25.000Z</time>
      </trkpt>
      <trkpt lat="37.06805333" lon="-3.37525167">
        <ele>2975.0</ele>
        <time>2022-11-20T10:38:26.000Z</time>
      </trkpt>
      <trkpt lat="37.06804833" lon="-3.37524167">
        <ele>2975.0</ele>
        <time>2022-11-20T10:38:27.000Z</time>
      </trkpt>
      <trkpt lat="37.06804333" lon="-3.37523333">
        <ele>2975.0</ele>
        <time>2022-11-20T10:38:28.000Z</time>
      </trkpt>
      <trkpt lat="37.06804167" lon="-3.37523">
        <ele>2975.0</ele>
        <time>2022-11-20T10:38:29.000Z</time>
      </trkpt>
      <trkpt lat="37.06804167" lon="-3.37522833">
        <ele>2975.0</ele>
        <time>2022-11-20T10:38:30.000Z</time>
      </trkpt>
      <trkpt lat="37.06804167" lon="-3.37522667">
        <ele>2975.0</ele>
        <time>2022-11-20T10:38:31.000Z</time>
      </trkpt>
      <trkpt lat="37.06804167" lon="-3.37522667">
        <ele>2975.0</ele>
        <time>2022-11-20T10:38:32.000Z</time>
      </trkpt>
      <trkpt lat="37.06804" lon="-3.375225">
        <ele>2975.0</ele>
        <time>2022-11-20T10:38:33.000Z</time>
      </trkpt>
      <trkpt lat="37.06803833" lon="-3.37522167">
        <ele>2975.0</ele>
        <time>2022-11-20T10:38:34.000Z</time>
      </trkpt>
      <trkpt lat="37.06803333" lon="-3.37521667">
        <ele>2975.0</ele>
        <time>2022-11-20T10:38:35.000Z</time>
      </trkpt>
      <trkpt lat="37.06803" lon="-3.37520833">
        <ele>2975.0</ele>
        <time>2022-11-20T10:38:36.000Z</time>
      </trkpt>
      <trkpt lat="37.068025" lon="-3.37519833">
        <ele>2975.0</ele>
        <time>2022-11-20T10:38:37.000Z</time>
      </trkpt>
      <trkpt lat="37.06802" lon="-3.37518833">
        <ele>2975.0</ele>
        <time>2022-11-20T10:38:38.000Z</time>
      </trkpt>
      <trkpt lat="37.06801333" lon="-3.37517833">
        <ele>2975.0</ele>
        <time>2022-11-20T10:38:39.000Z</time>
      </trkpt>
      <trkpt lat="37.06800833" lon="-3.37517">
        <ele>2975.0</ele>
        <time>2022-11-20T10:38:40.000Z</time>
      </trkpt>
      <trkpt lat="37.06800167" lon="-3.37515833">
        <ele>2975.0</ele>
        <time>2022-11-20T10:38:41.000Z</time>
      </trkpt>
      <trkpt lat="37.06799667" lon="-3.37514833">
        <ele>2975.0</ele>
        <time>2022-11-20T10:38:42.000Z</time>
      </trkpt>
      <trkpt lat="37.06799" lon="-3.37514">
        <ele>2975.0</ele>
        <time>2022-11-20T10:38:43.000Z</time>
      </trkpt>
      <trkpt lat="37.06798333" lon="-3.37513">
        <ele>2975.0</ele>
        <time>2022-11-20T10:38:44.000Z</time>
      </trkpt>
      <trkpt lat="37.06797833" lon="-3.37512167">
        <ele>2975.0</ele>
        <time>2022-11-20T10:38:45.000Z</time>
      </trkpt>
      <trkpt lat="37.06797167" lon="-3.37511167">
        <ele>2975.0</ele>
        <time>2022-11-20T10:38:46.000Z</time>
      </trkpt>
      <trkpt lat="37.067965" lon="-3.37510333">
        <ele>2975.0</ele>
        <time>2022-11-20T10:38:47.000Z</time>
      </trkpt>
      <trkpt lat="37.06795833" lon="-3.37509667">
        <ele>2975.0</ele>
        <time>2022-11-20T10:38:48.000Z</time>
      </trkpt>
      <trkpt lat="37.06795167" lon="-3.37508833">
        <ele>2976.0</ele>
        <time>2022-11-20T10:38:49.000Z</time>
      </trkpt>
      <trkpt lat="37.06794667" lon="-3.37508">
        <ele>2976.0</ele>
        <time>2022-11-20T10:38:50.000Z</time>
      </trkpt>
      <trkpt lat="37.06794" lon="-3.37507">
        <ele>2976.0</ele>
        <time>2022-11-20T10:38:51.000Z</time>
      </trkpt>
      <trkpt lat="37.06793333" lon="-3.37506167">
        <ele>2976.0</ele>
        <time>2022-11-20T10:38:52.000Z</time>
      </trkpt>
      <trkpt lat="37.067925" lon="-3.37505333">
        <ele>2976.0</ele>
        <time>2022-11-20T10:38:53.000Z</time>
      </trkpt>
      <trkpt lat="37.06792" lon="-3.375045">
        <ele>2976.0</ele>
        <time>2022-11-20T10:38:54.000Z</time>
      </trkpt>
      <trkpt lat="37.06791333" lon="-3.37503833">
        <ele>2976.0</ele>
        <time>2022-11-20T10:38:55.000Z</time>
      </trkpt>
      <trkpt lat="37.06790667" lon="-3.37503">
        <ele>2976.0</ele>
        <time>2022-11-20T10:38:56.000Z</time>
      </trkpt>
      <trkpt lat="37.06789833" lon="-3.37502167">
        <ele>2976.0</ele>
        <time>2022-11-20T10:38:57.000Z</time>
      </trkpt>
      <trkpt lat="37.06789167" lon="-3.37501333">
        <ele>2976.0</ele>
        <time>2022-11-20T10:38:58.000Z</time>
      </trkpt>
      <trkpt lat="37.06788333" lon="-3.37500333">
        <ele>2976.0</ele>
        <time>2022-11-20T10:38:59.000Z</time>
      </trkpt>
      <trkpt lat="37.06787667" lon="-3.374995">
        <ele>2976.0</ele>
        <time>2022-11-20T10:39:00.000Z</time>
      </trkpt>
      <trkpt lat="37.06787" lon="-3.37498667">
        <ele>2976.0</ele>
        <time>2022-11-20T10:39:01.000Z</time>
      </trkpt>
      <trkpt lat="37.06786333" lon="-3.37498">
        <ele>2977.0</ele>
        <time>2022-11-20T10:39:02.000Z</time>
      </trkpt>
      <trkpt lat="37.067855" lon="-3.37496833">
        <ele>2977.0</ele>
        <time>2022-11-20T10:39:03.000Z</time>
      </trkpt>
      <trkpt lat="37.06784667" lon="-3.37496">
        <ele>2977.0</ele>
        <time>2022-11-20T10:39:04.000Z</time>
      </trkpt>
      <trkpt lat="37.06784" lon="-3.37495333">
        <ele>2977.0</ele>
        <time>2022-11-20T10:39:05.000Z</time>
      </trkpt>
      <trkpt lat="37.06783333" lon="-3.374945">
        <ele>2977.0</ele>
        <time>2022-11-20T10:39:06.000Z</time>
      </trkpt>
      <trkpt lat="37.06782667" lon="-3.37493667">
        <ele>2977.0</ele>
        <time>2022-11-20T10:39:07.000Z</time>
      </trkpt>
      <trkpt lat="37.06782" lon="-3.37492833">
        <ele>2977.0</ele>
        <time>2022-11-20T10:39:08.000Z</time>
      </trkpt>
      <trkpt lat="37.06781333" lon="-3.37492167">
        <ele>2977.0</ele>
        <time>2022-11-20T10:39:09.000Z</time>
      </trkpt>
      <trkpt lat="37.067805" lon="-3.37491333">
        <ele>2977.0</ele>
        <time>2022-11-20T10:39:10.000Z</time>
      </trkpt>
      <trkpt lat="37.06779833" lon="-3.37490667">
        <ele>2977.0</ele>
        <time>2022-11-20T10:39:11.000Z</time>
      </trkpt>
      <trkpt lat="37.06779333" lon="-3.37490167">
        <ele>2978.0</ele>
        <time>2022-11-20T10:39:12.000Z</time>
      </trkpt>
      <trkpt lat="37.067785" lon="-3.374895">
        <ele>2978.0</ele>
        <time>2022-11-20T10:39:13.000Z</time>
      </trkpt>
      <trkpt lat="37.06777667" lon="-3.37488667">
        <ele>2978.0</ele>
        <time>2022-11-20T10:39:14.000Z</time>
      </trkpt>
      <trkpt lat="37.06777" lon="-3.37488167">
        <ele>2978.0</ele>
        <time>2022-11-20T10:39:15.000Z</time>
      </trkpt>
      <trkpt lat="37.06776167" lon="-3.374875">
        <ele>2978.0</ele>
        <time>2022-11-20T10:39:16.000Z</time>
      </trkpt>
      <trkpt lat="37.06775667" lon="-3.37487">
        <ele>2978.0</ele>
        <time>2022-11-20T10:39:17.000Z</time>
      </trkpt>
      <trkpt lat="37.06774833" lon="-3.37486167">
        <ele>2978.0</ele>
        <time>2022-11-20T10:39:18.000Z</time>
      </trkpt>
      <trkpt lat="37.06774" lon="-3.374855">
        <ele>2978.0</ele>
        <time>2022-11-20T10:39:19.000Z</time>
      </trkpt>
      <trkpt lat="37.06773333" lon="-3.37485">
        <ele>2979.0</ele>
        <time>2022-11-20T10:39:20.000Z</time>
      </trkpt>
      <trkpt lat="37.067725" lon="-3.37484333">
        <ele>2979.0</ele>
        <time>2022-11-20T10:39:21.000Z</time>
      </trkpt>
      <trkpt lat="37.06771833" lon="-3.37484">
        <ele>2979.0</ele>
        <time>2022-11-20T10:39:22.000Z</time>
      </trkpt>
      <trkpt lat="37.06771" lon="-3.37483333">
        <ele>2979.0</ele>
        <time>2022-11-20T10:39:23.000Z</time>
      </trkpt>
      <trkpt lat="37.06770167" lon="-3.37483">
        <ele>2979.0</ele>
        <time>2022-11-20T10:39:24.000Z</time>
      </trkpt>
      <trkpt lat="37.06769167" lon="-3.374825">
        <ele>2979.0</ele>
        <time>2022-11-20T10:39:25.000Z</time>
      </trkpt>
      <trkpt lat="37.06768333" lon="-3.37482167">
        <ele>2979.0</ele>
        <time>2022-11-20T10:39:26.000Z</time>
      </trkpt>
      <trkpt lat="37.067675" lon="-3.37481833">
        <ele>2980.0</ele>
        <time>2022-11-20T10:39:27.000Z</time>
      </trkpt>
      <trkpt lat="37.06766667" lon="-3.37481333">
        <ele>2980.0</ele>
        <time>2022-11-20T10:39:28.000Z</time>
      </trkpt>
      <trkpt lat="37.06765833" lon="-3.37480833">
        <ele>2980.0</ele>
        <time>2022-11-20T10:39:29.000Z</time>
      </trkpt>
      <trkpt lat="37.06765" lon="-3.37480333">
        <ele>2980.0</ele>
        <time>2022-11-20T10:39:30.000Z</time>
      </trkpt>
      <trkpt lat="37.06764167" lon="-3.37479833">
        <ele>2980.0</ele>
        <time>2022-11-20T10:39:31.000Z</time>
      </trkpt>
      <trkpt lat="37.067635" lon="-3.374795">
        <ele>2980.0</ele>
        <time>2022-11-20T10:39:32.000Z</time>
      </trkpt>
      <trkpt lat="37.067625" lon="-3.37479">
        <ele>2980.0</ele>
        <time>2022-11-20T10:39:33.000Z</time>
      </trkpt>
      <trkpt lat="37.067615" lon="-3.374785">
        <ele>2980.0</ele>
        <time>2022-11-20T10:39:34.000Z</time>
      </trkpt>
      <trkpt lat="37.06760667" lon="-3.37478">
        <ele>2980.0</ele>
        <time>2022-11-20T10:39:35.000Z</time>
      </trkpt>
      <trkpt lat="37.0676" lon="-3.37477667">
        <ele>2980.0</ele>
        <time>2022-11-20T10:39:36.000Z</time>
      </trkpt>
      <trkpt lat="37.06759" lon="-3.37477">
        <ele>2980.0</ele>
        <time>2022-11-20T10:39:37.000Z</time>
      </trkpt>
      <trkpt lat="37.06758167" lon="-3.374765">
        <ele>2981.0</ele>
        <time>2022-11-20T10:39:38.000Z</time>
      </trkpt>
      <trkpt lat="37.06757333" lon="-3.37475667">
        <ele>2981.0</ele>
        <time>2022-11-20T10:39:39.000Z</time>
      </trkpt>
      <trkpt lat="37.06756333" lon="-3.37475167">
        <ele>2981.0</ele>
        <time>2022-11-20T10:39:40.000Z</time>
      </trkpt>
      <trkpt lat="37.067555" lon="-3.37474833">
        <ele>2981.0</ele>
        <time>2022-11-20T10:39:41.000Z</time>
      </trkpt>
      <trkpt lat="37.06754667" lon="-3.37474167">
        <ele>2981.0</ele>
        <time>2022-11-20T10:39:42.000Z</time>
      </trkpt>
      <trkpt lat="37.06754" lon="-3.37473833">
        <ele>2981.0</ele>
        <time>2022-11-20T10:39:43.000Z</time>
      </trkpt>
      <trkpt lat="37.06753" lon="-3.37473">
        <ele>2981.0</ele>
        <time>2022-11-20T10:39:44.000Z</time>
      </trkpt>
      <trkpt lat="37.06752167" lon="-3.37472333">
        <ele>2981.0</ele>
        <time>2022-11-20T10:39:45.000Z</time>
      </trkpt>
      <trkpt lat="37.06751333" lon="-3.37471667">
        <ele>2981.0</ele>
        <time>2022-11-20T10:39:46.000Z</time>
      </trkpt>
      <trkpt lat="37.06750333" lon="-3.37471167">
        <ele>2981.0</ele>
        <time>2022-11-20T10:39:47.000Z</time>
      </trkpt>
      <trkpt lat="37.06749667" lon="-3.37470667">
        <ele>2982.0</ele>
        <time>2022-11-20T10:39:48.000Z</time>
      </trkpt>
      <trkpt lat="37.06748667" lon="-3.37470167">
        <ele>2982.0</ele>
        <time>2022-11-20T10:39:49.000Z</time>
      </trkpt>
      <trkpt lat="37.06747667" lon="-3.37469667">
        <ele>2982.0</ele>
        <time>2022-11-20T10:39:50.000Z</time>
      </trkpt>
      <trkpt lat="37.06746833" lon="-3.37468833">
        <ele>2982.0</ele>
        <time>2022-11-20T10:39:51.000Z</time>
      </trkpt>
      <trkpt lat="37.06745833" lon="-3.37468167">
        <ele>2982.0</ele>
        <time>2022-11-20T10:39:52.000Z</time>
      </trkpt>
      <trkpt lat="37.06745" lon="-3.374675">
        <ele>2982.0</ele>
        <time>2022-11-20T10:39:53.000Z</time>
      </trkpt>
      <trkpt lat="37.06744" lon="-3.37466833">
        <ele>2982.0</ele>
        <time>2022-11-20T10:39:54.000Z</time>
      </trkpt>
      <trkpt lat="37.06743167" lon="-3.37466333">
        <ele>2982.0</ele>
        <time>2022-11-20T10:39:55.000Z</time>
      </trkpt>
      <trkpt lat="37.06742333" lon="-3.37465667">
        <ele>2982.0</ele>
        <time>2022-11-20T10:39:56.000Z</time>
      </trkpt>
      <trkpt lat="37.06741667" lon="-3.37465">
        <ele>2982.0</ele>
        <time>2022-11-20T10:39:57.000Z</time>
      </trkpt>
      <trkpt lat="37.06740667" lon="-3.374645">
        <ele>2982.0</ele>
        <time>2022-11-20T10:39:58.000Z</time>
      </trkpt>
      <trkpt lat="37.067395" lon="-3.37464">
        <ele>2982.0</ele>
        <time>2022-11-20T10:39:59.000Z</time>
      </trkpt>
      <trkpt lat="37.06738833" lon="-3.37463667">
        <ele>2982.0</ele>
        <time>2022-11-20T10:40:00.000Z</time>
      </trkpt>
      <trkpt lat="37.06737833" lon="-3.37462833">
        <ele>2982.0</ele>
        <time>2022-11-20T10:40:01.000Z</time>
      </trkpt>
      <trkpt lat="37.06737167" lon="-3.37462333">
        <ele>2982.0</ele>
        <time>2022-11-20T10:40:02.000Z</time>
      </trkpt>
      <trkpt lat="37.06736333" lon="-3.37461667">
        <ele>2982.0</ele>
        <time>2022-11-20T10:40:03.000Z</time>
      </trkpt>
      <trkpt lat="37.06735333" lon="-3.37461167">
        <ele>2982.0</ele>
        <time>2022-11-20T10:40:04.000Z</time>
      </trkpt>
      <trkpt lat="37.067345" lon="-3.374605">
        <ele>2982.0</ele>
        <time>2022-11-20T10:40:05.000Z</time>
      </trkpt>
      <trkpt lat="37.06733667" lon="-3.3746">
        <ele>2982.0</ele>
        <time>2022-11-20T10:40:06.000Z</time>
      </trkpt>
      <trkpt lat="37.06733" lon="-3.37459667">
        <ele>2982.0</ele>
        <time>2022-11-20T10:40:07.000Z</time>
      </trkpt>
      <trkpt lat="37.06732167" lon="-3.37459167">
        <ele>2982.0</ele>
        <time>2022-11-20T10:40:08.000Z</time>
      </trkpt>
      <trkpt lat="37.06731333" lon="-3.37458667">
        <ele>2982.0</ele>
        <time>2022-11-20T10:40:09.000Z</time>
      </trkpt>
      <trkpt lat="37.06730333" lon="-3.37458167">
        <ele>2982.0</ele>
        <time>2022-11-20T10:40:10.000Z</time>
      </trkpt>
      <trkpt lat="37.06729333" lon="-3.37457667">
        <ele>2982.0</ele>
        <time>2022-11-20T10:40:11.000Z</time>
      </trkpt>
      <trkpt lat="37.06728667" lon="-3.37457333">
        <ele>2982.0</ele>
        <time>2022-11-20T10:40:12.000Z</time>
      </trkpt>
      <trkpt lat="37.06727667" lon="-3.37456833">
        <ele>2983.0</ele>
        <time>2022-11-20T10:40:13.000Z</time>
      </trkpt>
      <trkpt lat="37.06726833" lon="-3.37456333">
        <ele>2983.0</ele>
        <time>2022-11-20T10:40:14.000Z</time>
      </trkpt>
      <trkpt lat="37.06726167" lon="-3.37455667">
        <ele>2983.0</ele>
        <time>2022-11-20T10:40:15.000Z</time>
      </trkpt>
      <trkpt lat="37.06725833" lon="-3.374555">
        <ele>2983.0</ele>
        <time>2022-11-20T10:40:16.000Z</time>
      </trkpt>
      <trkpt lat="37.06725667" lon="-3.374555">
        <ele>2983.0</ele>
        <time>2022-11-20T10:40:17.000Z</time>
      </trkpt>
      <trkpt lat="37.06725333" lon="-3.37455167">
        <ele>2983.0</ele>
        <time>2022-11-20T10:40:18.000Z</time>
      </trkpt>
      <trkpt lat="37.06724667" lon="-3.37454833">
        <ele>2983.0</ele>
        <time>2022-11-20T10:40:19.000Z</time>
      </trkpt>
      <trkpt lat="37.06723667" lon="-3.37454333">
        <ele>2984.0</ele>
        <time>2022-11-20T10:40:20.000Z</time>
      </trkpt>
      <trkpt lat="37.06722667" lon="-3.37453833">
        <ele>2984.0</ele>
        <time>2022-11-20T10:40:21.000Z</time>
      </trkpt>
      <trkpt lat="37.06722" lon="-3.374535">
        <ele>2984.0</ele>
        <time>2022-11-20T10:40:22.000Z</time>
      </trkpt>
      <trkpt lat="37.06721167" lon="-3.37452833">
        <ele>2984.0</ele>
        <time>2022-11-20T10:40:23.000Z</time>
      </trkpt>
      <trkpt lat="37.067205" lon="-3.37452333">
        <ele>2984.0</ele>
        <time>2022-11-20T10:40:24.000Z</time>
      </trkpt>
      <trkpt lat="37.06719667" lon="-3.37451833">
        <ele>2984.0</ele>
        <time>2022-11-20T10:40:25.000Z</time>
      </trkpt>
      <trkpt lat="37.06718833" lon="-3.37451333">
        <ele>2984.0</ele>
        <time>2022-11-20T10:40:26.000Z</time>
      </trkpt>
      <trkpt lat="37.06718" lon="-3.37450833">
        <ele>2984.0</ele>
        <time>2022-11-20T10:40:27.000Z</time>
      </trkpt>
      <trkpt lat="37.06717333" lon="-3.37450333">
        <ele>2985.0</ele>
        <time>2022-11-20T10:40:28.000Z</time>
      </trkpt>
      <trkpt lat="37.06716667" lon="-3.37449833">
        <ele>2985.0</ele>
        <time>2022-11-20T10:40:29.000Z</time>
      </trkpt>
      <trkpt lat="37.06715833" lon="-3.37449333">
        <ele>2985.0</ele>
        <time>2022-11-20T10:40:30.000Z</time>
      </trkpt>
      <trkpt lat="37.06715" lon="-3.37448833">
        <ele>2985.0</ele>
        <time>2022-11-20T10:40:31.000Z</time>
      </trkpt>
      <trkpt lat="37.06714167" lon="-3.37448167">
        <ele>2985.0</ele>
        <time>2022-11-20T10:40:32.000Z</time>
      </trkpt>
      <trkpt lat="37.06713167" lon="-3.37447667">
        <ele>2985.0</ele>
        <time>2022-11-20T10:40:33.000Z</time>
      </trkpt>
      <trkpt lat="37.06712667" lon="-3.37447333">
        <ele>2985.0</ele>
        <time>2022-11-20T10:40:34.000Z</time>
      </trkpt>
      <trkpt lat="37.06711667" lon="-3.37446833">
        <ele>2985.0</ele>
        <time>2022-11-20T10:40:35.000Z</time>
      </trkpt>
      <trkpt lat="37.06710667" lon="-3.37446167">
        <ele>2985.0</ele>
        <time>2022-11-20T10:40:36.000Z</time>
      </trkpt>
      <trkpt lat="37.06709833" lon="-3.37445667">
        <ele>2985.0</ele>
        <time>2022-11-20T10:40:37.000Z</time>
      </trkpt>
      <trkpt lat="37.06708833" lon="-3.37445167">
        <ele>2985.0</ele>
        <time>2022-11-20T10:40:38.000Z</time>
      </trkpt>
      <trkpt lat="37.06708167" lon="-3.37444667">
        <ele>2986.0</ele>
        <time>2022-11-20T10:40:39.000Z</time>
      </trkpt>
      <trkpt lat="37.06707333" lon="-3.37444167">
        <ele>2986.0</ele>
        <time>2022-11-20T10:40:40.000Z</time>
      </trkpt>
      <trkpt lat="37.067065" lon="-3.37443667">
        <ele>2986.0</ele>
        <time>2022-11-20T10:40:41.000Z</time>
      </trkpt>
      <trkpt lat="37.067055" lon="-3.37443">
        <ele>2986.0</ele>
        <time>2022-11-20T10:40:42.000Z</time>
      </trkpt>
      <trkpt lat="37.06704667" lon="-3.37442667">
        <ele>2986.0</ele>
        <time>2022-11-20T10:40:43.000Z</time>
      </trkpt>
      <trkpt lat="37.06703833" lon="-3.37442333">
        <ele>2986.0</ele>
        <time>2022-11-20T10:40:44.000Z</time>
      </trkpt>
      <trkpt lat="37.06703" lon="-3.37442">
        <ele>2986.0</ele>
        <time>2022-11-20T10:40:45.000Z</time>
      </trkpt>
      <trkpt lat="37.06702167" lon="-3.37441833">
        <ele>2986.0</ele>
        <time>2022-11-20T10:40:46.000Z</time>
      </trkpt>
      <trkpt lat="37.06701167" lon="-3.37441667">
        <ele>2986.0</ele>
        <time>2022-11-20T10:40:47.000Z</time>
      </trkpt>
      <trkpt lat="37.06700333" lon="-3.37441333">
        <ele>2986.0</ele>
        <time>2022-11-20T10:40:48.000Z</time>
      </trkpt>
      <trkpt lat="37.066995" lon="-3.37440833">
        <ele>2986.0</ele>
        <time>2022-11-20T10:40:49.000Z</time>
      </trkpt>
      <trkpt lat="37.06698667" lon="-3.374405">
        <ele>2986.0</ele>
        <time>2022-11-20T10:40:50.000Z</time>
      </trkpt>
      <trkpt lat="37.06698" lon="-3.37440333">
        <ele>2986.0</ele>
        <time>2022-11-20T10:40:51.000Z</time>
      </trkpt>
      <trkpt lat="37.06696833" lon="-3.3744">
        <ele>2986.0</ele>
        <time>2022-11-20T10:40:52.000Z</time>
      </trkpt>
      <trkpt lat="37.06696" lon="-3.37439833">
        <ele>2986.0</ele>
        <time>2022-11-20T10:40:53.000Z</time>
      </trkpt>
      <trkpt lat="37.06695" lon="-3.37439833">
        <ele>2986.0</ele>
        <time>2022-11-20T10:40:54.000Z</time>
      </trkpt>
      <trkpt lat="37.06694" lon="-3.37439833">
        <ele>2986.0</ele>
        <time>2022-11-20T10:40:55.000Z</time>
      </trkpt>
      <trkpt lat="37.06693" lon="-3.37439667">
        <ele>2987.0</ele>
        <time>2022-11-20T10:40:56.000Z</time>
      </trkpt>
      <trkpt lat="37.06692" lon="-3.37439667">
        <ele>2987.0</ele>
        <time>2022-11-20T10:40:57.000Z</time>
      </trkpt>
      <trkpt lat="37.06691167" lon="-3.374395">
        <ele>2987.0</ele>
        <time>2022-11-20T10:40:58.000Z</time>
      </trkpt>
      <trkpt lat="37.06690167" lon="-3.37439333">
        <ele>2987.0</ele>
        <time>2022-11-20T10:40:59.000Z</time>
      </trkpt>
      <trkpt lat="37.06689167" lon="-3.37439167">
        <ele>2987.0</ele>
        <time>2022-11-20T10:41:00.000Z</time>
      </trkpt>
      <trkpt lat="37.06688167" lon="-3.37439">
        <ele>2987.0</ele>
        <time>2022-11-20T10:41:01.000Z</time>
      </trkpt>
      <trkpt lat="37.06687333" lon="-3.37438833">
        <ele>2987.0</ele>
        <time>2022-11-20T10:41:02.000Z</time>
      </trkpt>
      <trkpt lat="37.06686167" lon="-3.37438833">
        <ele>2987.0</ele>
        <time>2022-11-20T10:41:03.000Z</time>
      </trkpt>
      <trkpt lat="37.06685333" lon="-3.37438667">
        <ele>2987.0</ele>
        <time>2022-11-20T10:41:04.000Z</time>
      </trkpt>
      <trkpt lat="37.06684167" lon="-3.374385">
        <ele>2987.0</ele>
        <time>2022-11-20T10:41:05.000Z</time>
      </trkpt>
      <trkpt lat="37.06683333" lon="-3.37438333">
        <ele>2987.0</ele>
        <time>2022-11-20T10:41:06.000Z</time>
      </trkpt>
      <trkpt lat="37.06682333" lon="-3.37438167">
        <ele>2987.0</ele>
        <time>2022-11-20T10:41:07.000Z</time>
      </trkpt>
      <trkpt lat="37.06681333" lon="-3.37438">
        <ele>2987.0</ele>
        <time>2022-11-20T10:41:08.000Z</time>
      </trkpt>
      <trkpt lat="37.06680667" lon="-3.37437833">
        <ele>2988.0</ele>
        <time>2022-11-20T10:41:09.000Z</time>
      </trkpt>
      <trkpt lat="37.06679667" lon="-3.37437833">
        <ele>2988.0</ele>
        <time>2022-11-20T10:41:10.000Z</time>
      </trkpt>
      <trkpt lat="37.06678667" lon="-3.37437667">
        <ele>2988.0</ele>
        <time>2022-11-20T10:41:11.000Z</time>
      </trkpt>
      <trkpt lat="37.06677667" lon="-3.374375">
        <ele>2988.0</ele>
        <time>2022-11-20T10:41:12.000Z</time>
      </trkpt>
      <trkpt lat="37.06676667" lon="-3.37437333">
        <ele>2988.0</ele>
        <time>2022-11-20T10:41:13.000Z</time>
      </trkpt>
      <trkpt lat="37.06675833" lon="-3.37437167">
        <ele>2988.0</ele>
        <time>2022-11-20T10:41:14.000Z</time>
      </trkpt>
      <trkpt lat="37.06675" lon="-3.37437">
        <ele>2988.0</ele>
        <time>2022-11-20T10:41:15.000Z</time>
      </trkpt>
      <trkpt lat="37.06674167" lon="-3.37436667">
        <ele>2988.0</ele>
        <time>2022-11-20T10:41:16.000Z</time>
      </trkpt>
      <trkpt lat="37.06673167" lon="-3.374365">
        <ele>2988.0</ele>
        <time>2022-11-20T10:41:17.000Z</time>
      </trkpt>
      <trkpt lat="37.06672333" lon="-3.37436167">
        <ele>2988.0</ele>
        <time>2022-11-20T10:41:18.000Z</time>
      </trkpt>
      <trkpt lat="37.06671333" lon="-3.37436167">
        <ele>2988.0</ele>
        <time>2022-11-20T10:41:19.000Z</time>
      </trkpt>
      <trkpt lat="37.06670333" lon="-3.37436">
        <ele>2988.0</ele>
        <time>2022-11-20T10:41:20.000Z</time>
      </trkpt>
      <trkpt lat="37.06669333" lon="-3.37435833">
        <ele>2989.0</ele>
        <time>2022-11-20T10:41:21.000Z</time>
      </trkpt>
      <trkpt lat="37.066685" lon="-3.374355">
        <ele>2989.0</ele>
        <time>2022-11-20T10:41:22.000Z</time>
      </trkpt>
      <trkpt lat="37.06667833" lon="-3.37435333">
        <ele>2989.0</ele>
        <time>2022-11-20T10:41:23.000Z</time>
      </trkpt>
      <trkpt lat="37.06666833" lon="-3.37435167">
        <ele>2989.0</ele>
        <time>2022-11-20T10:41:24.000Z</time>
      </trkpt>
      <trkpt lat="37.06665833" lon="-3.37434833">
        <ele>2989.0</ele>
        <time>2022-11-20T10:41:25.000Z</time>
      </trkpt>
      <trkpt lat="37.06664833" lon="-3.37434667">
        <ele>2989.0</ele>
        <time>2022-11-20T10:41:26.000Z</time>
      </trkpt>
      <trkpt lat="37.06663833" lon="-3.374345">
        <ele>2989.0</ele>
        <time>2022-11-20T10:41:27.000Z</time>
      </trkpt>
      <trkpt lat="37.06663" lon="-3.37434333">
        <ele>2989.0</ele>
        <time>2022-11-20T10:41:28.000Z</time>
      </trkpt>
      <trkpt lat="37.06662167" lon="-3.37434167">
        <ele>2989.0</ele>
        <time>2022-11-20T10:41:29.000Z</time>
      </trkpt>
      <trkpt lat="37.06661333" lon="-3.37434">
        <ele>2990.0</ele>
        <time>2022-11-20T10:41:30.000Z</time>
      </trkpt>
      <trkpt lat="37.066605" lon="-3.37433833">
        <ele>2990.0</ele>
        <time>2022-11-20T10:41:31.000Z</time>
      </trkpt>
      <trkpt lat="37.06659333" lon="-3.37433667">
        <ele>2990.0</ele>
        <time>2022-11-20T10:41:32.000Z</time>
      </trkpt>
      <trkpt lat="37.06658333" lon="-3.37433667">
        <ele>2990.0</ele>
        <time>2022-11-20T10:41:33.000Z</time>
      </trkpt>
      <trkpt lat="37.06657333" lon="-3.374335">
        <ele>2990.0</ele>
        <time>2022-11-20T10:41:34.000Z</time>
      </trkpt>
      <trkpt lat="37.066565" lon="-3.37433333">
        <ele>2990.0</ele>
        <time>2022-11-20T10:41:35.000Z</time>
      </trkpt>
      <trkpt lat="37.066555" lon="-3.37433333">
        <ele>2990.0</ele>
        <time>2022-11-20T10:41:36.000Z</time>
      </trkpt>
      <trkpt lat="37.066545" lon="-3.37433167">
        <ele>2990.0</ele>
        <time>2022-11-20T10:41:37.000Z</time>
      </trkpt>
      <trkpt lat="37.06653333" lon="-3.37433">
        <ele>2990.0</ele>
        <time>2022-11-20T10:41:38.000Z</time>
      </trkpt>
      <trkpt lat="37.06652333" lon="-3.37433">
        <ele>2991.0</ele>
        <time>2022-11-20T10:41:39.000Z</time>
      </trkpt>
      <trkpt lat="37.06651167" lon="-3.37433">
        <ele>2991.0</ele>
        <time>2022-11-20T10:41:40.000Z</time>
      </trkpt>
      <trkpt lat="37.06650333" lon="-3.37432833">
        <ele>2991.0</ele>
        <time>2022-11-20T10:41:41.000Z</time>
      </trkpt>
      <trkpt lat="37.066495" lon="-3.37432833">
        <ele>2991.0</ele>
        <time>2022-11-20T10:41:42.000Z</time>
      </trkpt>
      <trkpt lat="37.06648333" lon="-3.37432833">
        <ele>2991.0</ele>
        <time>2022-11-20T10:41:43.000Z</time>
      </trkpt>
      <trkpt lat="37.066475" lon="-3.37432667">
        <ele>2991.0</ele>
        <time>2022-11-20T10:41:44.000Z</time>
      </trkpt>
      <trkpt lat="37.06646333" lon="-3.374325">
        <ele>2991.0</ele>
        <time>2022-11-20T10:41:45.000Z</time>
      </trkpt>
      <trkpt lat="37.066455" lon="-3.37432">
        <ele>2991.0</ele>
        <time>2022-11-20T10:41:46.000Z</time>
      </trkpt>
      <trkpt lat="37.066445" lon="-3.37431667">
        <ele>2991.0</ele>
        <time>2022-11-20T10:41:47.000Z</time>
      </trkpt>
      <trkpt lat="37.06643667" lon="-3.374315">
        <ele>2991.0</ele>
        <time>2022-11-20T10:41:48.000Z</time>
      </trkpt>
      <trkpt lat="37.06642667" lon="-3.374315">
        <ele>2991.0</ele>
        <time>2022-11-20T10:41:49.000Z</time>
      </trkpt>
      <trkpt lat="37.06641667" lon="-3.37431667">
        <ele>2991.0</ele>
        <time>2022-11-20T10:41:50.000Z</time>
      </trkpt>
      <trkpt lat="37.06640667" lon="-3.374315">
        <ele>2991.0</ele>
        <time>2022-11-20T10:41:51.000Z</time>
      </trkpt>
      <trkpt lat="37.066395" lon="-3.37431333">
        <ele>2991.0</ele>
        <time>2022-11-20T10:41:52.000Z</time>
      </trkpt>
      <trkpt lat="37.066385" lon="-3.37430833">
        <ele>2991.0</ele>
        <time>2022-11-20T10:41:53.000Z</time>
      </trkpt>
      <trkpt lat="37.06637667" lon="-3.374305">
        <ele>2991.0</ele>
        <time>2022-11-20T10:41:54.000Z</time>
      </trkpt>
      <trkpt lat="37.066365" lon="-3.3743">
        <ele>2991.0</ele>
        <time>2022-11-20T10:41:55.000Z</time>
      </trkpt>
      <trkpt lat="37.06635667" lon="-3.37429667">
        <ele>2991.0</ele>
        <time>2022-11-20T10:41:56.000Z</time>
      </trkpt>
      <trkpt lat="37.066345" lon="-3.37429167">
        <ele>2992.0</ele>
        <time>2022-11-20T10:41:57.000Z</time>
      </trkpt>
      <trkpt lat="37.06633667" lon="-3.37428833">
        <ele>2992.0</ele>
        <time>2022-11-20T10:41:58.000Z</time>
      </trkpt>
      <trkpt lat="37.06632667" lon="-3.37428333">
        <ele>2992.0</ele>
        <time>2022-11-20T10:41:59.000Z</time>
      </trkpt>
      <trkpt lat="37.06631667" lon="-3.37427667">
        <ele>2992.0</ele>
        <time>2022-11-20T10:42:00.000Z</time>
      </trkpt>
      <trkpt lat="37.06630667" lon="-3.37427167">
        <ele>2992.0</ele>
        <time>2022-11-20T10:42:01.000Z</time>
      </trkpt>
      <trkpt lat="37.06629833" lon="-3.374265">
        <ele>2992.0</ele>
        <time>2022-11-20T10:42:02.000Z</time>
      </trkpt>
      <trkpt lat="37.06629" lon="-3.37425833">
        <ele>2992.0</ele>
        <time>2022-11-20T10:42:03.000Z</time>
      </trkpt>
      <trkpt lat="37.06628333" lon="-3.37425167">
        <ele>2992.0</ele>
        <time>2022-11-20T10:42:04.000Z</time>
      </trkpt>
      <trkpt lat="37.06627833" lon="-3.37424333">
        <ele>2992.0</ele>
        <time>2022-11-20T10:42:05.000Z</time>
      </trkpt>
      <trkpt lat="37.06627167" lon="-3.37423333">
        <ele>2992.0</ele>
        <time>2022-11-20T10:42:06.000Z</time>
      </trkpt>
      <trkpt lat="37.06626667" lon="-3.37422167">
        <ele>2992.0</ele>
        <time>2022-11-20T10:42:07.000Z</time>
      </trkpt>
      <trkpt lat="37.06626333" lon="-3.37421">
        <ele>2992.0</ele>
        <time>2022-11-20T10:42:08.000Z</time>
      </trkpt>
      <trkpt lat="37.06626" lon="-3.37419833">
        <ele>2992.0</ele>
        <time>2022-11-20T10:42:09.000Z</time>
      </trkpt>
      <trkpt lat="37.06625667" lon="-3.37418833">
        <ele>2992.0</ele>
        <time>2022-11-20T10:42:10.000Z</time>
      </trkpt>
      <trkpt lat="37.066255" lon="-3.37417667">
        <ele>2992.0</ele>
        <time>2022-11-20T10:42:11.000Z</time>
      </trkpt>
      <trkpt lat="37.06625167" lon="-3.37416667">
        <ele>2992.0</ele>
        <time>2022-11-20T10:42:12.000Z</time>
      </trkpt>
      <trkpt lat="37.06625" lon="-3.37415667">
        <ele>2993.0</ele>
        <time>2022-11-20T10:42:13.000Z</time>
      </trkpt>
      <trkpt lat="37.06624833" lon="-3.374145">
        <ele>2993.0</ele>
        <time>2022-11-20T10:42:14.000Z</time>
      </trkpt>
      <trkpt lat="37.066245" lon="-3.374135">
        <ele>2993.0</ele>
        <time>2022-11-20T10:42:15.000Z</time>
      </trkpt>
      <trkpt lat="37.066245" lon="-3.37412333">
        <ele>2993.0</ele>
        <time>2022-11-20T10:42:16.000Z</time>
      </trkpt>
      <trkpt lat="37.066245" lon="-3.37411167">
        <ele>2993.0</ele>
        <time>2022-11-20T10:42:17.000Z</time>
      </trkpt>
      <trkpt lat="37.066245" lon="-3.37410167">
        <ele>2993.0</ele>
        <time>2022-11-20T10:42:18.000Z</time>
      </trkpt>
      <trkpt lat="37.066245" lon="-3.37409333">
        <ele>2993.0</ele>
        <time>2022-11-20T10:42:19.000Z</time>
      </trkpt>
      <trkpt lat="37.06624667" lon="-3.37408333">
        <ele>2993.0</ele>
        <time>2022-11-20T10:42:20.000Z</time>
      </trkpt>
      <trkpt lat="37.06624667" lon="-3.37407333">
        <ele>2993.0</ele>
        <time>2022-11-20T10:42:21.000Z</time>
      </trkpt>
      <trkpt lat="37.06624833" lon="-3.37406167">
        <ele>2993.0</ele>
        <time>2022-11-20T10:42:22.000Z</time>
      </trkpt>
      <trkpt lat="37.06625" lon="-3.37405333">
        <ele>2993.0</ele>
        <time>2022-11-20T10:42:23.000Z</time>
      </trkpt>
      <trkpt lat="37.06625333" lon="-3.37404333">
        <ele>2993.0</ele>
        <time>2022-11-20T10:42:24.000Z</time>
      </trkpt>
      <trkpt lat="37.06625667" lon="-3.374035">
        <ele>2993.0</ele>
        <time>2022-11-20T10:42:25.000Z</time>
      </trkpt>
      <trkpt lat="37.06626" lon="-3.37402667">
        <ele>2993.0</ele>
        <time>2022-11-20T10:42:26.000Z</time>
      </trkpt>
      <trkpt lat="37.066265" lon="-3.37401833">
        <ele>2993.0</ele>
        <time>2022-11-20T10:42:27.000Z</time>
      </trkpt>
      <trkpt lat="37.06627" lon="-3.37400833">
        <ele>2993.0</ele>
        <time>2022-11-20T10:42:28.000Z</time>
      </trkpt>
      <trkpt lat="37.06627333" lon="-3.37400167">
        <ele>2993.0</ele>
        <time>2022-11-20T10:42:29.000Z</time>
      </trkpt>
      <trkpt lat="37.06627833" lon="-3.373995">
        <ele>2993.0</ele>
        <time>2022-11-20T10:42:30.000Z</time>
      </trkpt>
      <trkpt lat="37.06628333" lon="-3.37398667">
        <ele>2993.0</ele>
        <time>2022-11-20T10:42:31.000Z</time>
      </trkpt>
      <trkpt lat="37.06628833" lon="-3.37397667">
        <ele>2993.0</ele>
        <time>2022-11-20T10:42:32.000Z</time>
      </trkpt>
      <trkpt lat="37.066295" lon="-3.37396833">
        <ele>2993.0</ele>
        <time>2022-11-20T10:42:33.000Z</time>
      </trkpt>
      <trkpt lat="37.0663" lon="-3.37395833">
        <ele>2993.0</ele>
        <time>2022-11-20T10:42:34.000Z</time>
      </trkpt>
      <trkpt lat="37.066305" lon="-3.37395333">
        <ele>2994.0</ele>
        <time>2022-11-20T10:42:35.000Z</time>
      </trkpt>
      <trkpt lat="37.06631167" lon="-3.37394667">
        <ele>2994.0</ele>
        <time>2022-11-20T10:42:36.000Z</time>
      </trkpt>
      <trkpt lat="37.06631833" lon="-3.37393833">
        <ele>2994.0</ele>
        <time>2022-11-20T10:42:37.000Z</time>
      </trkpt>
      <trkpt lat="37.06632667" lon="-3.37393">
        <ele>2994.0</ele>
        <time>2022-11-20T10:42:38.000Z</time>
      </trkpt>
      <trkpt lat="37.066335" lon="-3.37392333">
        <ele>2994.0</ele>
        <time>2022-11-20T10:42:39.000Z</time>
      </trkpt>
      <trkpt lat="37.06634" lon="-3.37391833">
        <ele>2994.0</ele>
        <time>2022-11-20T10:42:40.000Z</time>
      </trkpt>
      <trkpt lat="37.06634667" lon="-3.37391333">
        <ele>2994.0</ele>
        <time>2022-11-20T10:42:41.000Z</time>
      </trkpt>
      <trkpt lat="37.066355" lon="-3.37390667">
        <ele>2994.0</ele>
        <time>2022-11-20T10:42:42.000Z</time>
      </trkpt>
      <trkpt lat="37.06636333" lon="-3.37390167">
        <ele>2994.0</ele>
        <time>2022-11-20T10:42:43.000Z</time>
      </trkpt>
      <trkpt lat="37.06637167" lon="-3.37389667">
        <ele>2994.0</ele>
        <time>2022-11-20T10:42:44.000Z</time>
      </trkpt>
      <trkpt lat="37.06637833" lon="-3.37389167">
        <ele>2994.0</ele>
        <time>2022-11-20T10:42:45.000Z</time>
      </trkpt>
      <trkpt lat="37.066385" lon="-3.37388667">
        <ele>2995.0</ele>
        <time>2022-11-20T10:42:46.000Z</time>
      </trkpt>
      <trkpt lat="37.06639333" lon="-3.37388333">
        <ele>2995.0</ele>
        <time>2022-11-20T10:42:47.000Z</time>
      </trkpt>
      <trkpt lat="37.06640167" lon="-3.37388">
        <ele>2995.0</ele>
        <time>2022-11-20T10:42:48.000Z</time>
      </trkpt>
      <trkpt lat="37.06641" lon="-3.37387833">
        <ele>2995.0</ele>
        <time>2022-11-20T10:42:49.000Z</time>
      </trkpt>
      <trkpt lat="37.06641667" lon="-3.37387667">
        <ele>2995.0</ele>
        <time>2022-11-20T10:42:50.000Z</time>
      </trkpt>
      <trkpt lat="37.066425" lon="-3.373875">
        <ele>2995.0</ele>
        <time>2022-11-20T10:42:51.000Z</time>
      </trkpt>
      <trkpt lat="37.06643333" lon="-3.37387333">
        <ele>2995.0</ele>
        <time>2022-11-20T10:42:52.000Z</time>
      </trkpt>
      <trkpt lat="37.06644167" lon="-3.37387167">
        <ele>2995.0</ele>
        <time>2022-11-20T10:42:53.000Z</time>
      </trkpt>
      <trkpt lat="37.06645167" lon="-3.37387167">
        <ele>2995.0</ele>
        <time>2022-11-20T10:42:54.000Z</time>
      </trkpt>
      <trkpt lat="37.06646167" lon="-3.37387167">
        <ele>2995.0</ele>
        <time>2022-11-20T10:42:55.000Z</time>
      </trkpt>
      <trkpt lat="37.06647333" lon="-3.37387167">
        <ele>2995.0</ele>
        <time>2022-11-20T10:42:56.000Z</time>
      </trkpt>
      <trkpt lat="37.06648333" lon="-3.373875">
        <ele>2995.0</ele>
        <time>2022-11-20T10:42:57.000Z</time>
      </trkpt>
      <trkpt lat="37.066495" lon="-3.37387833">
        <ele>2995.0</ele>
        <time>2022-11-20T10:42:58.000Z</time>
      </trkpt>
      <trkpt lat="37.066505" lon="-3.373885">
        <ele>2996.0</ele>
        <time>2022-11-20T10:42:59.000Z</time>
      </trkpt>
      <trkpt lat="37.06651333" lon="-3.37389">
        <ele>2996.0</ele>
        <time>2022-11-20T10:43:00.000Z</time>
      </trkpt>
      <trkpt lat="37.066525" lon="-3.37389667">
        <ele>2996.0</ele>
        <time>2022-11-20T10:43:01.000Z</time>
      </trkpt>
      <trkpt lat="37.06653333" lon="-3.37390167">
        <ele>2996.0</ele>
        <time>2022-11-20T10:43:02.000Z</time>
      </trkpt>
      <trkpt lat="37.06654333" lon="-3.37390833">
        <ele>2996.0</ele>
        <time>2022-11-20T10:43:03.000Z</time>
      </trkpt>
      <trkpt lat="37.06655333" lon="-3.373915">
        <ele>2996.0</ele>
        <time>2022-11-20T10:43:04.000Z</time>
      </trkpt>
      <trkpt lat="37.06656333" lon="-3.37392167">
        <ele>2996.0</ele>
        <time>2022-11-20T10:43:05.000Z</time>
      </trkpt>
      <trkpt lat="37.06657333" lon="-3.37392833">
        <ele>2996.0</ele>
        <time>2022-11-20T10:43:06.000Z</time>
      </trkpt>
      <trkpt lat="37.066585" lon="-3.373935">
        <ele>2996.0</ele>
        <time>2022-11-20T10:43:07.000Z</time>
      </trkpt>
      <trkpt lat="37.066595" lon="-3.37394167">
        <ele>2997.0</ele>
        <time>2022-11-20T10:43:08.000Z</time>
      </trkpt>
      <trkpt lat="37.06660667" lon="-3.37394833">
        <ele>2997.0</ele>
        <time>2022-11-20T10:43:09.000Z</time>
      </trkpt>
      <trkpt lat="37.06661667" lon="-3.373955">
        <ele>2997.0</ele>
        <time>2022-11-20T10:43:10.000Z</time>
      </trkpt>
      <trkpt lat="37.06662667" lon="-3.37396">
        <ele>2997.0</ele>
        <time>2022-11-20T10:43:11.000Z</time>
      </trkpt>
      <trkpt lat="37.06663833" lon="-3.37396667">
        <ele>2997.0</ele>
        <time>2022-11-20T10:43:12.000Z</time>
      </trkpt>
      <trkpt lat="37.06665" lon="-3.37397167">
        <ele>2997.0</ele>
        <time>2022-11-20T10:43:13.000Z</time>
      </trkpt>
      <trkpt lat="37.06666167" lon="-3.37397833">
        <ele>2997.0</ele>
        <time>2022-11-20T10:43:14.000Z</time>
      </trkpt>
      <trkpt lat="37.066675" lon="-3.37398333">
        <ele>2997.0</ele>
        <time>2022-11-20T10:43:15.000Z</time>
      </trkpt>
      <trkpt lat="37.066685" lon="-3.37398833">
        <ele>2998.0</ele>
        <time>2022-11-20T10:43:16.000Z</time>
      </trkpt>
      <trkpt lat="37.066695" lon="-3.37399167">
        <ele>2998.0</ele>
        <time>2022-11-20T10:43:17.000Z</time>
      </trkpt>
      <trkpt lat="37.066705" lon="-3.373995">
        <ele>2998.0</ele>
        <time>2022-11-20T10:43:18.000Z</time>
      </trkpt>
      <trkpt lat="37.066715" lon="-3.374">
        <ele>2998.0</ele>
        <time>2022-11-20T10:43:19.000Z</time>
      </trkpt>
      <trkpt lat="37.06672667" lon="-3.37400167">
        <ele>2998.0</ele>
        <time>2022-11-20T10:43:20.000Z</time>
      </trkpt>
      <trkpt lat="37.06673833" lon="-3.37400167">
        <ele>2998.0</ele>
        <time>2022-11-20T10:43:21.000Z</time>
      </trkpt>
      <trkpt lat="37.06675" lon="-3.37400333">
        <ele>2998.0</ele>
        <time>2022-11-20T10:43:22.000Z</time>
      </trkpt>
      <trkpt lat="37.06676" lon="-3.37400333">
        <ele>2998.0</ele>
        <time>2022-11-20T10:43:23.000Z</time>
      </trkpt>
      <trkpt lat="37.06677167" lon="-3.37400333">
        <ele>2999.0</ele>
        <time>2022-11-20T10:43:24.000Z</time>
      </trkpt>
      <trkpt lat="37.06678333" lon="-3.37400333">
        <ele>2999.0</ele>
        <time>2022-11-20T10:43:25.000Z</time>
      </trkpt>
      <trkpt lat="37.066795" lon="-3.37400333">
        <ele>2999.0</ele>
        <time>2022-11-20T10:43:26.000Z</time>
      </trkpt>
      <trkpt lat="37.066805" lon="-3.37400167">
        <ele>2999.0</ele>
        <time>2022-11-20T10:43:27.000Z</time>
      </trkpt>
      <trkpt lat="37.066815" lon="-3.37399833">
        <ele>2999.0</ele>
        <time>2022-11-20T10:43:28.000Z</time>
      </trkpt>
      <trkpt lat="37.06682333" lon="-3.37399667">
        <ele>2999.0</ele>
        <time>2022-11-20T10:43:29.000Z</time>
      </trkpt>
      <trkpt lat="37.06683" lon="-3.37399667">
        <ele>2999.0</ele>
        <time>2022-11-20T10:43:30.000Z</time>
      </trkpt>
      <trkpt lat="37.06683833" lon="-3.37399167">
        <ele>2999.0</ele>
        <time>2022-11-20T10:43:31.000Z</time>
      </trkpt>
      <trkpt lat="37.066845" lon="-3.373985">
        <ele>2999.0</ele>
        <time>2022-11-20T10:43:32.000Z</time>
      </trkpt>
      <trkpt lat="37.06685" lon="-3.37397667">
        <ele>2999.0</ele>
        <time>2022-11-20T10:43:33.000Z</time>
      </trkpt>
      <trkpt lat="37.06685333" lon="-3.37396833">
        <ele>2999.0</ele>
        <time>2022-11-20T10:43:34.000Z</time>
      </trkpt>
      <trkpt lat="37.06685333" lon="-3.37395833">
        <ele>2999.0</ele>
        <time>2022-11-20T10:43:35.000Z</time>
      </trkpt>
      <trkpt lat="37.066855" lon="-3.37395">
        <ele>3000.0</ele>
        <time>2022-11-20T10:43:36.000Z</time>
      </trkpt>
      <trkpt lat="37.066855" lon="-3.37394">
        <ele>3000.0</ele>
        <time>2022-11-20T10:43:37.000Z</time>
      </trkpt>
      <trkpt lat="37.06685333" lon="-3.37393167">
        <ele>3000.0</ele>
        <time>2022-11-20T10:43:38.000Z</time>
      </trkpt>
      <trkpt lat="37.06685167" lon="-3.37392167">
        <ele>3000.0</ele>
        <time>2022-11-20T10:43:39.000Z</time>
      </trkpt>
      <trkpt lat="37.06685" lon="-3.373915">
        <ele>3000.0</ele>
        <time>2022-11-20T10:43:40.000Z</time>
      </trkpt>
      <trkpt lat="37.06685" lon="-3.373905">
        <ele>3001.0</ele>
        <time>2022-11-20T10:43:41.000Z</time>
      </trkpt>
      <trkpt lat="37.06684833" lon="-3.373895">
        <ele>3001.0</ele>
        <time>2022-11-20T10:43:42.000Z</time>
      </trkpt>
      <trkpt lat="37.06684667" lon="-3.37388667">
        <ele>3001.0</ele>
        <time>2022-11-20T10:43:43.000Z</time>
      </trkpt>
      <trkpt lat="37.066845" lon="-3.37387667">
        <ele>3001.0</ele>
        <time>2022-11-20T10:43:44.000Z</time>
      </trkpt>
      <trkpt lat="37.06684333" lon="-3.37386833">
        <ele>3001.0</ele>
        <time>2022-11-20T10:43:45.000Z</time>
      </trkpt>
      <trkpt lat="37.06684167" lon="-3.37385667">
        <ele>3002.0</ele>
        <time>2022-11-20T10:43:46.000Z</time>
      </trkpt>
      <trkpt lat="37.06684167" lon="-3.37384667">
        <ele>3002.0</ele>
        <time>2022-11-20T10:43:47.000Z</time>
      </trkpt>
      <trkpt lat="37.06684167" lon="-3.37383833">
        <ele>3002.0</ele>
        <time>2022-11-20T10:43:48.000Z</time>
      </trkpt>
      <trkpt lat="37.06684" lon="-3.37383">
        <ele>3002.0</ele>
        <time>2022-11-20T10:43:49.000Z</time>
      </trkpt>
      <trkpt lat="37.06683833" lon="-3.37382">
        <ele>3002.0</ele>
        <time>2022-11-20T10:43:50.000Z</time>
      </trkpt>
      <trkpt lat="37.06683667" lon="-3.37381167">
        <ele>3002.0</ele>
        <time>2022-11-20T10:43:51.000Z</time>
      </trkpt>
      <trkpt lat="37.06683333" lon="-3.37380333">
        <ele>3002.0</ele>
        <time>2022-11-20T10:43:52.000Z</time>
      </trkpt>
      <trkpt lat="37.06683" lon="-3.37379167">
        <ele>3003.0</ele>
        <time>2022-11-20T10:43:53.000Z</time>
      </trkpt>
      <trkpt lat="37.06683" lon="-3.37378167">
        <ele>3003.0</ele>
        <time>2022-11-20T10:43:54.000Z</time>
      </trkpt>
      <trkpt lat="37.06682833" lon="-3.37377333">
        <ele>3003.0</ele>
        <time>2022-11-20T10:43:55.000Z</time>
      </trkpt>
      <trkpt lat="37.066825" lon="-3.37376">
        <ele>3003.0</ele>
        <time>2022-11-20T10:43:56.000Z</time>
      </trkpt>
      <trkpt lat="37.06682333" lon="-3.37375">
        <ele>3003.0</ele>
        <time>2022-11-20T10:43:57.000Z</time>
      </trkpt>
      <trkpt lat="37.06682167" lon="-3.37374167">
        <ele>3003.0</ele>
        <time>2022-11-20T10:43:58.000Z</time>
      </trkpt>
      <trkpt lat="37.06682167" lon="-3.37373">
        <ele>3003.0</ele>
        <time>2022-11-20T10:43:59.000Z</time>
      </trkpt>
      <trkpt lat="37.06682" lon="-3.37372167">
        <ele>3003.0</ele>
        <time>2022-11-20T10:44:00.000Z</time>
      </trkpt>
      <trkpt lat="37.06681667" lon="-3.37370833">
        <ele>3004.0</ele>
        <time>2022-11-20T10:44:01.000Z</time>
      </trkpt>
      <trkpt lat="37.066815" lon="-3.37369833">
        <ele>3004.0</ele>
        <time>2022-11-20T10:44:02.000Z</time>
      </trkpt>
      <trkpt lat="37.06681333" lon="-3.37369333">
        <ele>3004.0</ele>
        <time>2022-11-20T10:44:03.000Z</time>
      </trkpt>
      <trkpt lat="37.06681167" lon="-3.373685">
        <ele>3004.0</ele>
        <time>2022-11-20T10:44:04.000Z</time>
      </trkpt>
      <trkpt lat="37.06681" lon="-3.37367667">
        <ele>3004.0</ele>
        <time>2022-11-20T10:44:05.000Z</time>
      </trkpt>
      <trkpt lat="37.06680833" lon="-3.37366833">
        <ele>3004.0</ele>
        <time>2022-11-20T10:44:06.000Z</time>
      </trkpt>
      <trkpt lat="37.06680833" lon="-3.37366333">
        <ele>3004.0</ele>
        <time>2022-11-20T10:44:07.000Z</time>
      </trkpt>
      <trkpt lat="37.06680667" lon="-3.373655">
        <ele>3004.0</ele>
        <time>2022-11-20T10:44:08.000Z</time>
      </trkpt>
      <trkpt lat="37.066805" lon="-3.37364833">
        <ele>3004.0</ele>
        <time>2022-11-20T10:44:09.000Z</time>
      </trkpt>
      <trkpt lat="37.06680333" lon="-3.373645">
        <ele>3004.0</ele>
        <time>2022-11-20T10:44:10.000Z</time>
      </trkpt>
      <trkpt lat="37.06680333" lon="-3.37363833">
        <ele>3005.0</ele>
        <time>2022-11-20T10:44:11.000Z</time>
      </trkpt>
      <trkpt lat="37.06680167" lon="-3.37363333">
        <ele>3005.0</ele>
        <time>2022-11-20T10:44:12.000Z</time>
      </trkpt>
      <trkpt lat="37.06680333" lon="-3.37362667">
        <ele>3005.0</ele>
        <time>2022-11-20T10:44:13.000Z</time>
      </trkpt>
      <trkpt lat="37.06680333" lon="-3.37361833">
        <ele>3005.0</ele>
        <time>2022-11-20T10:44:14.000Z</time>
      </trkpt>
      <trkpt lat="37.06680333" lon="-3.37361667">
        <ele>3005.0</ele>
        <time>2022-11-20T10:44:15.000Z</time>
      </trkpt>
      <trkpt lat="37.066805" lon="-3.37361333">
        <ele>3005.0</ele>
        <time>2022-11-20T10:44:16.000Z</time>
      </trkpt>
      <trkpt lat="37.06680667" lon="-3.37360667">
        <ele>3005.0</ele>
        <time>2022-11-20T10:44:17.000Z</time>
      </trkpt>
      <trkpt lat="37.06680667" lon="-3.37360333">
        <ele>3006.0</ele>
        <time>2022-11-20T10:44:18.000Z</time>
      </trkpt>
      <trkpt lat="37.06680667" lon="-3.3736">
        <ele>3006.0</ele>
        <time>2022-11-20T10:44:19.000Z</time>
      </trkpt>
      <trkpt lat="37.06680667" lon="-3.37359167">
        <ele>3006.0</ele>
        <time>2022-11-20T10:44:20.000Z</time>
      </trkpt>
      <trkpt lat="37.06680667" lon="-3.37359">
        <ele>3006.0</ele>
        <time>2022-11-20T10:44:21.000Z</time>
      </trkpt>
      <trkpt lat="37.066805" lon="-3.373585">
        <ele>3006.0</ele>
        <time>2022-11-20T10:44:22.000Z</time>
      </trkpt>
      <trkpt lat="37.06680667" lon="-3.37358333">
        <ele>3006.0</ele>
        <time>2022-11-20T10:44:23.000Z</time>
      </trkpt>
      <trkpt lat="37.06680667" lon="-3.37357833">
        <ele>3006.0</ele>
        <time>2022-11-20T10:44:24.000Z</time>
      </trkpt>
      <trkpt lat="37.06681" lon="-3.373575">
        <ele>3007.0</ele>
        <time>2022-11-20T10:44:25.000Z</time>
      </trkpt>
      <trkpt lat="37.06681" lon="-3.37357333">
        <ele>3007.0</ele>
        <time>2022-11-20T10:44:26.000Z</time>
      </trkpt>
      <trkpt lat="37.06681167" lon="-3.37357">
        <ele>3007.0</ele>
        <time>2022-11-20T10:44:27.000Z</time>
      </trkpt>
      <trkpt lat="37.06681333" lon="-3.37356667">
        <ele>3007.0</ele>
        <time>2022-11-20T10:44:28.000Z</time>
      </trkpt>
      <trkpt lat="37.06681167" lon="-3.37356167">
        <ele>3007.0</ele>
        <time>2022-11-20T10:44:29.000Z</time>
      </trkpt>
      <trkpt lat="37.06681167" lon="-3.37355667">
        <ele>3007.0</ele>
        <time>2022-11-20T10:44:30.000Z</time>
      </trkpt>
      <trkpt lat="37.06681" lon="-3.37355">
        <ele>3007.0</ele>
        <time>2022-11-20T10:44:31.000Z</time>
      </trkpt>
      <trkpt lat="37.06680833" lon="-3.373545">
        <ele>3007.0</ele>
        <time>2022-11-20T10:44:32.000Z</time>
      </trkpt>
      <trkpt lat="37.06680667" lon="-3.37354167">
        <ele>3007.0</ele>
        <time>2022-11-20T10:44:33.000Z</time>
      </trkpt>
      <trkpt lat="37.06680333" lon="-3.37353333">
        <ele>3008.0</ele>
        <time>2022-11-20T10:44:34.000Z</time>
      </trkpt>
      <trkpt lat="37.06680167" lon="-3.37352833">
        <ele>3008.0</ele>
        <time>2022-11-20T10:44:35.000Z</time>
      </trkpt>
      <trkpt lat="37.06680167" lon="-3.37352333">
        <ele>3008.0</ele>
        <time>2022-11-20T10:44:36.000Z</time>
      </trkpt>
      <trkpt lat="37.0668" lon="-3.37352">
        <ele>3008.0</ele>
        <time>2022-11-20T10:44:37.000Z</time>
      </trkpt>
      <trkpt lat="37.0668" lon="-3.37351333">
        <ele>3008.0</ele>
        <time>2022-11-20T10:44:38.000Z</time>
      </trkpt>
      <trkpt lat="37.06680167" lon="-3.37350833">
        <ele>3008.0</ele>
        <time>2022-11-20T10:44:39.000Z</time>
      </trkpt>
      <trkpt lat="37.06680167" lon="-3.37350667">
        <ele>3008.0</ele>
        <time>2022-11-20T10:44:40.000Z</time>
      </trkpt>
      <trkpt lat="37.06680167" lon="-3.37350167">
        <ele>3008.0</ele>
        <time>2022-11-20T10:44:41.000Z</time>
      </trkpt>
      <trkpt lat="37.06680333" lon="-3.37349667">
        <ele>3008.0</ele>
        <time>2022-11-20T10:44:42.000Z</time>
      </trkpt>
      <trkpt lat="37.06680333" lon="-3.37349333">
        <ele>3008.0</ele>
        <time>2022-11-20T10:44:43.000Z</time>
      </trkpt>
      <trkpt lat="37.066805" lon="-3.37349">
        <ele>3008.0</ele>
        <time>2022-11-20T10:44:44.000Z</time>
      </trkpt>
      <trkpt lat="37.06680667" lon="-3.37348667">
        <ele>3009.0</ele>
        <time>2022-11-20T10:44:45.000Z</time>
      </trkpt>
      <trkpt lat="37.06680833" lon="-3.37348333">
        <ele>3009.0</ele>
        <time>2022-11-20T10:44:46.000Z</time>
      </trkpt>
      <trkpt lat="37.06680833" lon="-3.37348">
        <ele>3009.0</ele>
        <time>2022-11-20T10:44:47.000Z</time>
      </trkpt>
      <trkpt lat="37.06680833" lon="-3.37347833">
        <ele>3009.0</ele>
        <time>2022-11-20T10:44:48.000Z</time>
      </trkpt>
      <trkpt lat="37.06680833" lon="-3.37347333">
        <ele>3009.0</ele>
        <time>2022-11-20T10:44:49.000Z</time>
      </trkpt>
      <trkpt lat="37.06680667" lon="-3.37346833">
        <ele>3009.0</ele>
        <time>2022-11-20T10:44:50.000Z</time>
      </trkpt>
      <trkpt lat="37.06680667" lon="-3.37346167">
        <ele>3009.0</ele>
        <time>2022-11-20T10:44:51.000Z</time>
      </trkpt>
      <trkpt lat="37.06680833" lon="-3.37345833">
        <ele>3009.0</ele>
        <time>2022-11-20T10:44:52.000Z</time>
      </trkpt>
      <trkpt lat="37.06680833" lon="-3.37345667">
        <ele>3009.0</ele>
        <time>2022-11-20T10:44:53.000Z</time>
      </trkpt>
      <trkpt lat="37.06680833" lon="-3.373455">
        <ele>3009.0</ele>
        <time>2022-11-20T10:44:54.000Z</time>
      </trkpt>
      <trkpt lat="37.06680667" lon="-3.37345333">
        <ele>3010.0</ele>
        <time>2022-11-20T10:44:55.000Z</time>
      </trkpt>
      <trkpt lat="37.06680833" lon="-3.37345">
        <ele>3010.0</ele>
        <time>2022-11-20T10:44:56.000Z</time>
      </trkpt>
      <trkpt lat="37.06680833" lon="-3.37344667">
        <ele>3010.0</ele>
        <time>2022-11-20T10:44:57.000Z</time>
      </trkpt>
      <trkpt lat="37.06680833" lon="-3.37344333">
        <ele>3010.0</ele>
        <time>2022-11-20T10:44:58.000Z</time>
      </trkpt>
      <trkpt lat="37.06680667" lon="-3.37344167">
        <ele>3010.0</ele>
        <time>2022-11-20T10:44:59.000Z</time>
      </trkpt>
      <trkpt lat="37.066805" lon="-3.37343333">
        <ele>3010.0</ele>
        <time>2022-11-20T10:45:00.000Z</time>
      </trkpt>
      <trkpt lat="37.06680333" lon="-3.37342833">
        <ele>3010.0</ele>
        <time>2022-11-20T10:45:01.000Z</time>
      </trkpt>
      <trkpt lat="37.06680167" lon="-3.373425">
        <ele>3010.0</ele>
        <time>2022-11-20T10:45:02.000Z</time>
      </trkpt>
      <trkpt lat="37.06680167" lon="-3.37341833">
        <ele>3010.0</ele>
        <time>2022-11-20T10:45:03.000Z</time>
      </trkpt>
      <trkpt lat="37.06680333" lon="-3.37341667">
        <ele>3010.0</ele>
        <time>2022-11-20T10:45:04.000Z</time>
      </trkpt>
      <trkpt lat="37.06680333" lon="-3.37341">
        <ele>3010.0</ele>
        <time>2022-11-20T10:45:05.000Z</time>
      </trkpt>
      <trkpt lat="37.06680333" lon="-3.37340667">
        <ele>3011.0</ele>
        <time>2022-11-20T10:45:06.000Z</time>
      </trkpt>
      <trkpt lat="37.06680333" lon="-3.37340167">
        <ele>3011.0</ele>
        <time>2022-11-20T10:45:07.000Z</time>
      </trkpt>
      <trkpt lat="37.06680167" lon="-3.37339667">
        <ele>3011.0</ele>
        <time>2022-11-20T10:45:08.000Z</time>
      </trkpt>
      <trkpt lat="37.06680333" lon="-3.37339167">
        <ele>3011.0</ele>
        <time>2022-11-20T10:45:09.000Z</time>
      </trkpt>
      <trkpt lat="37.06680167" lon="-3.373385">
        <ele>3011.0</ele>
        <time>2022-11-20T10:45:10.000Z</time>
      </trkpt>
      <trkpt lat="37.06680167" lon="-3.37338">
        <ele>3011.0</ele>
        <time>2022-11-20T10:45:11.000Z</time>
      </trkpt>
      <trkpt lat="37.06680167" lon="-3.37337667">
        <ele>3011.0</ele>
        <time>2022-11-20T10:45:12.000Z</time>
      </trkpt>
      <trkpt lat="37.06680167" lon="-3.37337">
        <ele>3011.0</ele>
        <time>2022-11-20T10:45:13.000Z</time>
      </trkpt>
      <trkpt lat="37.06680167" lon="-3.37336667">
        <ele>3012.0</ele>
        <time>2022-11-20T10:45:14.000Z</time>
      </trkpt>
      <trkpt lat="37.06680167" lon="-3.373365">
        <ele>3012.0</ele>
        <time>2022-11-20T10:45:15.000Z</time>
      </trkpt>
      <trkpt lat="37.06680167" lon="-3.37336">
        <ele>3012.0</ele>
        <time>2022-11-20T10:45:16.000Z</time>
      </trkpt>
      <trkpt lat="37.06680167" lon="-3.37335667">
        <ele>3012.0</ele>
        <time>2022-11-20T10:45:17.000Z</time>
      </trkpt>
      <trkpt lat="37.06680167" lon="-3.37335667">
        <ele>3012.0</ele>
        <time>2022-11-20T10:45:18.000Z</time>
      </trkpt>
      <trkpt lat="37.06679833" lon="-3.37335333">
        <ele>3012.0</ele>
        <time>2022-11-20T10:45:19.000Z</time>
      </trkpt>
      <trkpt lat="37.06679833" lon="-3.37335167">
        <ele>3012.0</ele>
        <time>2022-11-20T10:45:20.000Z</time>
      </trkpt>
      <trkpt lat="37.06679833" lon="-3.37334833">
        <ele>3012.0</ele>
        <time>2022-11-20T10:45:21.000Z</time>
      </trkpt>
      <trkpt lat="37.06679667" lon="-3.37334667">
        <ele>3012.0</ele>
        <time>2022-11-20T10:45:22.000Z</time>
      </trkpt>
      <trkpt lat="37.06679833" lon="-3.37333833">
        <ele>3013.0</ele>
        <time>2022-11-20T10:45:23.000Z</time>
      </trkpt>
      <trkpt lat="37.06679833" lon="-3.37333333">
        <ele>3013.0</ele>
        <time>2022-11-20T10:45:24.000Z</time>
      </trkpt>
      <trkpt lat="37.06680167" lon="-3.37333167">
        <ele>3013.0</ele>
        <time>2022-11-20T10:45:25.000Z</time>
      </trkpt>
      <trkpt lat="37.06680333" lon="-3.37333">
        <ele>3013.0</ele>
        <time>2022-11-20T10:45:26.000Z</time>
      </trkpt>
      <trkpt lat="37.066805" lon="-3.37332833">
        <ele>3013.0</ele>
        <time>2022-11-20T10:45:27.000Z</time>
      </trkpt>
      <trkpt lat="37.066805" lon="-3.37332333">
        <ele>3013.0</ele>
        <time>2022-11-20T10:45:28.000Z</time>
      </trkpt>
      <trkpt lat="37.06680667" lon="-3.37332167">
        <ele>3013.0</ele>
        <time>2022-11-20T10:45:29.000Z</time>
      </trkpt>
      <trkpt lat="37.06680667" lon="-3.37331833">
        <ele>3013.0</ele>
        <time>2022-11-20T10:45:30.000Z</time>
      </trkpt>
      <trkpt lat="37.06680667" lon="-3.373315">
        <ele>3014.0</ele>
        <time>2022-11-20T10:45:31.000Z</time>
      </trkpt>
      <trkpt lat="37.06680667" lon="-3.37331">
        <ele>3014.0</ele>
        <time>2022-11-20T10:45:32.000Z</time>
      </trkpt>
      <trkpt lat="37.066805" lon="-3.373305">
        <ele>3014.0</ele>
        <time>2022-11-20T10:45:33.000Z</time>
      </trkpt>
      <trkpt lat="37.06680333" lon="-3.373305">
        <ele>3014.0</ele>
        <time>2022-11-20T10:45:34.000Z</time>
      </trkpt>
      <trkpt lat="37.06680333" lon="-3.37330333">
        <ele>3014.0</ele>
        <time>2022-11-20T10:45:35.000Z</time>
      </trkpt>
      <trkpt lat="37.06680333" lon="-3.37329833">
        <ele>3014.0</ele>
        <time>2022-11-20T10:45:36.000Z</time>
      </trkpt>
      <trkpt lat="37.06680167" lon="-3.37329333">
        <ele>3014.0</ele>
        <time>2022-11-20T10:45:37.000Z</time>
      </trkpt>
      <trkpt lat="37.0668" lon="-3.37329">
        <ele>3014.0</ele>
        <time>2022-11-20T10:45:38.000Z</time>
      </trkpt>
      <trkpt lat="37.0668" lon="-3.373285">
        <ele>3014.0</ele>
        <time>2022-11-20T10:45:39.000Z</time>
      </trkpt>
      <trkpt lat="37.06679833" lon="-3.373285">
        <ele>3014.0</ele>
        <time>2022-11-20T10:45:40.000Z</time>
      </trkpt>
      <trkpt lat="37.0668" lon="-3.37328333">
        <ele>3014.0</ele>
        <time>2022-11-20T10:45:41.000Z</time>
      </trkpt>
      <trkpt lat="37.0668" lon="-3.37328167">
        <ele>3015.0</ele>
        <time>2022-11-20T10:45:42.000Z</time>
      </trkpt>
      <trkpt lat="37.06679667" lon="-3.373275">
        <ele>3015.0</ele>
        <time>2022-11-20T10:45:43.000Z</time>
      </trkpt>
      <trkpt lat="37.06679667" lon="-3.37327333">
        <ele>3015.0</ele>
        <time>2022-11-20T10:45:44.000Z</time>
      </trkpt>
      <trkpt lat="37.06679667" lon="-3.37327333">
        <ele>3015.0</ele>
        <time>2022-11-20T10:45:45.000Z</time>
      </trkpt>
      <trkpt lat="37.06679667" lon="-3.37327167">
        <ele>3015.0</ele>
        <time>2022-11-20T10:45:46.000Z</time>
      </trkpt>
      <trkpt lat="37.06679667" lon="-3.37326667">
        <ele>3015.0</ele>
        <time>2022-11-20T10:45:47.000Z</time>
      </trkpt>
      <trkpt lat="37.06679667" lon="-3.37326667">
        <ele>3015.0</ele>
        <time>2022-11-20T10:45:48.000Z</time>
      </trkpt>
      <trkpt lat="37.066795" lon="-3.37326333">
        <ele>3015.0</ele>
        <time>2022-11-20T10:45:49.000Z</time>
      </trkpt>
      <trkpt lat="37.066795" lon="-3.37326">
        <ele>3015.0</ele>
        <time>2022-11-20T10:45:50.000Z</time>
      </trkpt>
      <trkpt lat="37.066795" lon="-3.37325667">
        <ele>3015.0</ele>
        <time>2022-11-20T10:45:51.000Z</time>
      </trkpt>
      <trkpt lat="37.066795" lon="-3.37325667">
        <ele>3015.0</ele>
        <time>2022-11-20T10:45:52.000Z</time>
      </trkpt>
      <trkpt lat="37.066795" lon="-3.37325667">
        <ele>3015.0</ele>
        <time>2022-11-20T10:45:53.000Z</time>
      </trkpt>
      <trkpt lat="37.066795" lon="-3.37325667">
        <ele>3015.0</ele>
        <time>2022-11-20T10:45:54.000Z</time>
      </trkpt>
      <trkpt lat="37.066795" lon="-3.37325667">
        <ele>3015.0</ele>
        <time>2022-11-20T10:45:55.000Z</time>
      </trkpt>
      <trkpt lat="37.066795" lon="-3.37325667">
        <ele>3015.0</ele>
        <time>2022-11-20T10:45:56.000Z</time>
      </trkpt>
      <trkpt lat="37.066795" lon="-3.37325667">
        <ele>3015.0</ele>
        <time>2022-11-20T10:45:57.000Z</time>
      </trkpt>
      <trkpt lat="37.066795" lon="-3.37325667">
        <ele>3015.0</ele>
        <time>2022-11-20T10:45:58.000Z</time>
      </trkpt>
      <trkpt lat="37.066795" lon="-3.37325167">
        <ele>3015.0</ele>
        <time>2022-11-20T10:45:59.000Z</time>
      </trkpt>
      <trkpt lat="37.06679333" lon="-3.37324833">
        <ele>3015.0</ele>
        <time>2022-11-20T10:46:00.000Z</time>
      </trkpt>
      <trkpt lat="37.06679333" lon="-3.37324667">
        <ele>3016.0</ele>
        <time>2022-11-20T10:46:01.000Z</time>
      </trkpt>
      <trkpt lat="37.066795" lon="-3.37324333">
        <ele>3016.0</ele>
        <time>2022-11-20T10:46:02.000Z</time>
      </trkpt>
      <trkpt lat="37.066795" lon="-3.37324167">
        <ele>3016.0</ele>
        <time>2022-11-20T10:46:03.000Z</time>
      </trkpt>
      <trkpt lat="37.066795" lon="-3.37324167">
        <ele>3016.0</ele>
        <time>2022-11-20T10:46:04.000Z</time>
      </trkpt>
      <trkpt lat="37.066795" lon="-3.37324">
        <ele>3016.0</ele>
        <time>2022-11-20T10:46:05.000Z</time>
      </trkpt>
      <trkpt lat="37.066795" lon="-3.37323833">
        <ele>3016.0</ele>
        <time>2022-11-20T10:46:06.000Z</time>
      </trkpt>
      <trkpt lat="37.06679833" lon="-3.37323833">
        <ele>3016.0</ele>
        <time>2022-11-20T10:46:07.000Z</time>
      </trkpt>
      <trkpt lat="37.06679667" lon="-3.37323833">
        <ele>3016.0</ele>
        <time>2022-11-20T10:46:08.000Z</time>
      </trkpt>
      <trkpt lat="37.06679833" lon="-3.37323833">
        <ele>3016.0</ele>
        <time>2022-11-20T10:46:09.000Z</time>
      </trkpt>
      <trkpt lat="37.06679833" lon="-3.37323833">
        <ele>3016.0</ele>
        <time>2022-11-20T10:46:10.000Z</time>
      </trkpt>
      <trkpt lat="37.06679667" lon="-3.37323833">
        <ele>3016.0</ele>
        <time>2022-11-20T10:46:11.000Z</time>
      </trkpt>
      <trkpt lat="37.06679833" lon="-3.37323833">
        <ele>3016.0</ele>
        <time>2022-11-20T10:46:12.000Z</time>
      </trkpt>
      <trkpt lat="37.06679667" lon="-3.37323333">
        <ele>3016.0</ele>
        <time>2022-11-20T10:46:13.000Z</time>
      </trkpt>
      <trkpt lat="37.06679667" lon="-3.37323167">
        <ele>3016.0</ele>
        <time>2022-11-20T10:46:14.000Z</time>
      </trkpt>
      <trkpt lat="37.06679833" lon="-3.37323">
        <ele>3016.0</ele>
        <time>2022-11-20T10:46:15.000Z</time>
      </trkpt>
      <trkpt lat="37.06679833" lon="-3.37323">
        <ele>3016.0</ele>
        <time>2022-11-20T10:46:16.000Z</time>
      </trkpt>
      <trkpt lat="37.0668" lon="-3.37323">
        <ele>3016.0</ele>
        <time>2022-11-20T10:46:17.000Z</time>
      </trkpt>
      <trkpt lat="37.0668" lon="-3.37322833">
        <ele>3016.0</ele>
        <time>2022-11-20T10:46:18.000Z</time>
      </trkpt>
      <trkpt lat="37.06679833" lon="-3.37322833">
        <ele>3016.0</ele>
        <time>2022-11-20T10:46:19.000Z</time>
      </trkpt>
      <trkpt lat="37.06679833" lon="-3.37322833">
        <ele>3016.0</ele>
        <time>2022-11-20T10:46:20.000Z</time>
      </trkpt>
      <trkpt lat="37.0668" lon="-3.373225">
        <ele>3016.0</ele>
        <time>2022-11-20T10:46:21.000Z</time>
      </trkpt>
      <trkpt lat="37.0668" lon="-3.37322333">
        <ele>3016.0</ele>
        <time>2022-11-20T10:46:22.000Z</time>
      </trkpt>
      <trkpt lat="37.0668" lon="-3.37322167">
        <ele>3016.0</ele>
        <time>2022-11-20T10:46:23.000Z</time>
      </trkpt>
      <trkpt lat="37.0668" lon="-3.37322">
        <ele>3016.0</ele>
        <time>2022-11-20T10:46:24.000Z</time>
      </trkpt>
      <trkpt lat="37.0668" lon="-3.37322">
        <ele>3016.0</ele>
        <time>2022-11-20T10:46:25.000Z</time>
      </trkpt>
      <trkpt lat="37.0668" lon="-3.37322">
        <ele>3016.0</ele>
        <time>2022-11-20T10:46:26.000Z</time>
      </trkpt>
      <trkpt lat="37.0668" lon="-3.373215">
        <ele>3016.0</ele>
        <time>2022-11-20T10:46:27.000Z</time>
      </trkpt>
      <trkpt lat="37.0668" lon="-3.373215">
        <ele>3016.0</ele>
        <time>2022-11-20T10:46:28.000Z</time>
      </trkpt>
      <trkpt lat="37.06680167" lon="-3.373215">
        <ele>3017.0</ele>
        <time>2022-11-20T10:46:29.000Z</time>
      </trkpt>
      <trkpt lat="37.06680333" lon="-3.373215">
        <ele>3017.0</ele>
        <time>2022-11-20T10:46:30.000Z</time>
      </trkpt>
      <trkpt lat="37.066805" lon="-3.37321333">
        <ele>3017.0</ele>
        <time>2022-11-20T10:46:31.000Z</time>
      </trkpt>
      <trkpt lat="37.066805" lon="-3.37321333">
        <ele>3017.0</ele>
        <time>2022-11-20T10:46:32.000Z</time>
      </trkpt>
      <trkpt lat="37.06680167" lon="-3.37321">
        <ele>3017.0</ele>
        <time>2022-11-20T10:46:33.000Z</time>
      </trkpt>
      <trkpt lat="37.0668" lon="-3.37320667">
        <ele>3017.0</ele>
        <time>2022-11-20T10:46:34.000Z</time>
      </trkpt>
      <trkpt lat="37.06680167" lon="-3.37320333">
        <ele>3017.0</ele>
        <time>2022-11-20T10:46:35.000Z</time>
      </trkpt>
      <trkpt lat="37.06680167" lon="-3.37320333">
        <ele>3018.0</ele>
        <time>2022-11-20T10:46:36.000Z</time>
      </trkpt>
      <trkpt lat="37.06680167" lon="-3.37320333">
        <ele>3018.0</ele>
        <time>2022-11-20T10:46:37.000Z</time>
      </trkpt>
      <trkpt lat="37.06680167" lon="-3.37320333">
        <ele>3018.0</ele>
        <time>2022-11-20T10:46:38.000Z</time>
      </trkpt>
      <trkpt lat="37.0668" lon="-3.3732">
        <ele>3018.0</ele>
        <time>2022-11-20T10:46:39.000Z</time>
      </trkpt>
      <trkpt lat="37.06679833" lon="-3.37319667">
        <ele>3018.0</ele>
        <time>2022-11-20T10:46:40.000Z</time>
      </trkpt>
      <trkpt lat="37.06679833" lon="-3.37319333">
        <ele>3018.0</ele>
        <time>2022-11-20T10:46:41.000Z</time>
      </trkpt>
      <trkpt lat="37.06679833" lon="-3.37318833">
        <ele>3018.0</ele>
        <time>2022-11-20T10:46:42.000Z</time>
      </trkpt>
      <trkpt lat="37.0668" lon="-3.37318667">
        <ele>3018.0</ele>
        <time>2022-11-20T10:46:43.000Z</time>
      </trkpt>
      <trkpt lat="37.0668" lon="-3.37318333">
        <ele>3018.0</ele>
        <time>2022-11-20T10:46:44.000Z</time>
      </trkpt>
      <trkpt lat="37.06680167" lon="-3.37318167">
        <ele>3019.0</ele>
        <time>2022-11-20T10:46:45.000Z</time>
      </trkpt>
      <trkpt lat="37.06680167" lon="-3.37318167">
        <ele>3019.0</ele>
        <time>2022-11-20T10:46:46.000Z</time>
      </trkpt>
      <trkpt lat="37.06680333" lon="-3.37318">
        <ele>3019.0</ele>
        <time>2022-11-20T10:46:47.000Z</time>
      </trkpt>
      <trkpt lat="37.066805" lon="-3.37318">
        <ele>3019.0</ele>
        <time>2022-11-20T10:46:48.000Z</time>
      </trkpt>
      <trkpt lat="37.06680667" lon="-3.37318">
        <ele>3019.0</ele>
        <time>2022-11-20T10:46:49.000Z</time>
      </trkpt>
      <trkpt lat="37.06680833" lon="-3.37318">
        <ele>3019.0</ele>
        <time>2022-11-20T10:46:50.000Z</time>
      </trkpt>
      <trkpt lat="37.06681" lon="-3.37317667">
        <ele>3019.0</ele>
        <time>2022-11-20T10:46:51.000Z</time>
      </trkpt>
      <trkpt lat="37.06681333" lon="-3.373175">
        <ele>3020.0</ele>
        <time>2022-11-20T10:46:52.000Z</time>
      </trkpt>
      <trkpt lat="37.066815" lon="-3.373175">
        <ele>3020.0</ele>
        <time>2022-11-20T10:46:53.000Z</time>
      </trkpt>
      <trkpt lat="37.06681833" lon="-3.373175">
        <ele>3020.0</ele>
        <time>2022-11-20T10:46:54.000Z</time>
      </trkpt>
      <trkpt lat="37.06682167" lon="-3.37317333">
        <ele>3020.0</ele>
        <time>2022-11-20T10:46:55.000Z</time>
      </trkpt>
      <trkpt lat="37.066825" lon="-3.37317167">
        <ele>3020.0</ele>
        <time>2022-11-20T10:46:56.000Z</time>
      </trkpt>
      <trkpt lat="37.06682833" lon="-3.37317167">
        <ele>3021.0</ele>
        <time>2022-11-20T10:46:57.000Z</time>
      </trkpt>
      <trkpt lat="37.06683" lon="-3.37317">
        <ele>3021.0</ele>
        <time>2022-11-20T10:46:58.000Z</time>
      </trkpt>
      <trkpt lat="37.06683" lon="-3.373165">
        <ele>3021.0</ele>
        <time>2022-11-20T10:46:59.000Z</time>
      </trkpt>
      <trkpt lat="37.06682667" lon="-3.37316">
        <ele>3021.0</ele>
        <time>2022-11-20T10:47:00.000Z</time>
      </trkpt>
      <trkpt lat="37.06682667" lon="-3.37315667">
        <ele>3021.0</ele>
        <time>2022-11-20T10:47:01.000Z</time>
      </trkpt>
      <trkpt lat="37.06682333" lon="-3.37315167">
        <ele>3021.0</ele>
        <time>2022-11-20T10:47:02.000Z</time>
      </trkpt>
      <trkpt lat="37.06682" lon="-3.37314833">
        <ele>3022.0</ele>
        <time>2022-11-20T10:47:03.000Z</time>
      </trkpt>
      <trkpt lat="37.06681667" lon="-3.37314333">
        <ele>3022.0</ele>
        <time>2022-11-20T10:47:04.000Z</time>
      </trkpt>
      <trkpt lat="37.06681167" lon="-3.37314">
        <ele>3022.0</ele>
        <time>2022-11-20T10:47:05.000Z</time>
      </trkpt>
      <trkpt lat="37.06680833" lon="-3.373135">
        <ele>3022.0</ele>
        <time>2022-11-20T10:47:06.000Z</time>
      </trkpt>
      <trkpt lat="37.06680167" lon="-3.37313333">
        <ele>3022.0</ele>
        <time>2022-11-20T10:47:07.000Z</time>
      </trkpt>
      <trkpt lat="37.06679667" lon="-3.37313167">
        <ele>3023.0</ele>
        <time>2022-11-20T10:47:08.000Z</time>
      </trkpt>
      <trkpt lat="37.06679333" lon="-3.37313167">
        <ele>3023.0</ele>
        <time>2022-11-20T10:47:09.000Z</time>
      </trkpt>
      <trkpt lat="37.06679" lon="-3.37313">
        <ele>3023.0</ele>
        <time>2022-11-20T10:47:10.000Z</time>
      </trkpt>
      <trkpt lat="37.06678167" lon="-3.37312833">
        <ele>3023.0</ele>
        <time>2022-11-20T10:47:11.000Z</time>
      </trkpt>
      <trkpt lat="37.066775" lon="-3.373125">
        <ele>3023.0</ele>
        <time>2022-11-20T10:47:12.000Z</time>
      </trkpt>
      <trkpt lat="37.06677" lon="-3.37312167">
        <ele>3023.0</ele>
        <time>2022-11-20T10:47:13.000Z</time>
      </trkpt>
      <trkpt lat="37.06677" lon="-3.37312">
        <ele>3023.0</ele>
        <time>2022-11-20T10:47:14.000Z</time>
      </trkpt>
      <trkpt lat="37.06677" lon="-3.37312">
        <ele>3024.0</ele>
        <time>2022-11-20T10:47:15.000Z</time>
      </trkpt>
      <trkpt lat="37.06677" lon="-3.37312">
        <ele>3024.0</ele>
        <time>2022-11-20T10:47:16.000Z</time>
      </trkpt>
      <trkpt lat="37.06676833" lon="-3.37312333">
        <ele>3024.0</ele>
        <time>2022-11-20T10:47:17.000Z</time>
      </trkpt>
      <trkpt lat="37.066765" lon="-3.37312167">
        <ele>3024.0</ele>
        <time>2022-11-20T10:47:18.000Z</time>
      </trkpt>
      <trkpt lat="37.06675833" lon="-3.37312">
        <ele>3024.0</ele>
        <time>2022-11-20T10:47:19.000Z</time>
      </trkpt>
      <trkpt lat="37.06675167" lon="-3.37312">
        <ele>3024.0</ele>
        <time>2022-11-20T10:47:20.000Z</time>
      </trkpt>
      <trkpt lat="37.06674833" lon="-3.37312333">
        <ele>3024.0</ele>
        <time>2022-11-20T10:47:21.000Z</time>
      </trkpt>
      <trkpt lat="37.066745" lon="-3.373125">
        <ele>3024.0</ele>
        <time>2022-11-20T10:47:22.000Z</time>
      </trkpt>
      <trkpt lat="37.06674333" lon="-3.37312667">
        <ele>3024.0</ele>
        <time>2022-11-20T10:47:23.000Z</time>
      </trkpt>
      <trkpt lat="37.06674333" lon="-3.373125">
        <ele>3024.0</ele>
        <time>2022-11-20T10:47:24.000Z</time>
      </trkpt>
      <trkpt lat="37.06674333" lon="-3.373125">
        <ele>3024.0</ele>
        <time>2022-11-20T10:47:25.000Z</time>
      </trkpt>
      <trkpt lat="37.06674333" lon="-3.37312667">
        <ele>3024.0</ele>
        <time>2022-11-20T10:47:26.000Z</time>
      </trkpt>
      <trkpt lat="37.06674333" lon="-3.37312667">
        <ele>3024.0</ele>
        <time>2022-11-20T10:47:27.000Z</time>
      </trkpt>
      <trkpt lat="37.06674333" lon="-3.37312667">
        <ele>3024.0</ele>
        <time>2022-11-20T10:47:28.000Z</time>
      </trkpt>
      <trkpt lat="37.06674333" lon="-3.37312667">
        <ele>3024.0</ele>
        <time>2022-11-20T10:47:29.000Z</time>
      </trkpt>
      <trkpt lat="37.06674333" lon="-3.37312667">
        <ele>3024.0</ele>
        <time>2022-11-20T10:47:30.000Z</time>
      </trkpt>
      <trkpt lat="37.06674167" lon="-3.37312333">
        <ele>3024.0</ele>
        <time>2022-11-20T10:47:31.000Z</time>
      </trkpt>
      <trkpt lat="37.06673667" lon="-3.37311833">
        <ele>3024.0</ele>
        <time>2022-11-20T10:47:32.000Z</time>
      </trkpt>
      <trkpt lat="37.06673167" lon="-3.373115">
        <ele>3025.0</ele>
        <time>2022-11-20T10:47:33.000Z</time>
      </trkpt>
      <trkpt lat="37.066725" lon="-3.37311167">
        <ele>3025.0</ele>
        <time>2022-11-20T10:47:34.000Z</time>
      </trkpt>
      <trkpt lat="37.06671667" lon="-3.37310833">
        <ele>3025.0</ele>
        <time>2022-11-20T10:47:35.000Z</time>
      </trkpt>
      <trkpt lat="37.06670833" lon="-3.373105">
        <ele>3025.0</ele>
        <time>2022-11-20T10:47:36.000Z</time>
      </trkpt>
      <trkpt lat="37.06669833" lon="-3.37310333">
        <ele>3025.0</ele>
        <time>2022-11-20T10:47:37.000Z</time>
      </trkpt>
      <trkpt lat="37.06669167" lon="-3.37310167">
        <ele>3025.0</ele>
        <time>2022-11-20T10:47:38.000Z</time>
      </trkpt>
      <trkpt lat="37.06668333" lon="-3.3731">
        <ele>3025.0</ele>
        <time>2022-11-20T10:47:39.000Z</time>
      </trkpt>
      <trkpt lat="37.06667333" lon="-3.37309667">
        <ele>3025.0</ele>
        <time>2022-11-20T10:47:40.000Z</time>
      </trkpt>
      <trkpt lat="37.066665" lon="-3.373095">
        <ele>3026.0</ele>
        <time>2022-11-20T10:47:41.000Z</time>
      </trkpt>
      <trkpt lat="37.06665667" lon="-3.373095">
        <ele>3026.0</ele>
        <time>2022-11-20T10:47:42.000Z</time>
      </trkpt>
      <trkpt lat="37.06665" lon="-3.37309333">
        <ele>3026.0</ele>
        <time>2022-11-20T10:47:43.000Z</time>
      </trkpt>
      <trkpt lat="37.06664" lon="-3.37308833">
        <ele>3026.0</ele>
        <time>2022-11-20T10:47:44.000Z</time>
      </trkpt>
      <trkpt lat="37.06663" lon="-3.37308667">
        <ele>3026.0</ele>
        <time>2022-11-20T10:47:45.000Z</time>
      </trkpt>
      <trkpt lat="37.06662" lon="-3.373085">
        <ele>3026.0</ele>
        <time>2022-11-20T10:47:46.000Z</time>
      </trkpt>
      <trkpt lat="37.06661167" lon="-3.37308167">
        <ele>3026.0</ele>
        <time>2022-11-20T10:47:47.000Z</time>
      </trkpt>
      <trkpt lat="37.06660333" lon="-3.37308">
        <ele>3026.0</ele>
        <time>2022-11-20T10:47:48.000Z</time>
      </trkpt>
      <trkpt lat="37.06659167" lon="-3.37307667">
        <ele>3026.0</ele>
        <time>2022-11-20T10:47:49.000Z</time>
      </trkpt>
      <trkpt lat="37.06658333" lon="-3.373075">
        <ele>3026.0</ele>
        <time>2022-11-20T10:47:50.000Z</time>
      </trkpt>
      <trkpt lat="37.06657167" lon="-3.37307167">
        <ele>3026.0</ele>
        <time>2022-11-20T10:47:51.000Z</time>
      </trkpt>
      <trkpt lat="37.06656333" lon="-3.37307">
        <ele>3026.0</ele>
        <time>2022-11-20T10:47:52.000Z</time>
      </trkpt>
      <trkpt lat="37.066555" lon="-3.37307">
        <ele>3026.0</ele>
        <time>2022-11-20T10:47:53.000Z</time>
      </trkpt>
      <trkpt lat="37.066545" lon="-3.37306833">
        <ele>3026.0</ele>
        <time>2022-11-20T10:47:54.000Z</time>
      </trkpt>
      <trkpt lat="37.06653667" lon="-3.373065">
        <ele>3026.0</ele>
        <time>2022-11-20T10:47:55.000Z</time>
      </trkpt>
      <trkpt lat="37.066525" lon="-3.37306167">
        <ele>3027.0</ele>
        <time>2022-11-20T10:47:56.000Z</time>
      </trkpt>
      <trkpt lat="37.066515" lon="-3.37306">
        <ele>3027.0</ele>
        <time>2022-11-20T10:47:57.000Z</time>
      </trkpt>
      <trkpt lat="37.066505" lon="-3.37305667">
        <ele>3027.0</ele>
        <time>2022-11-20T10:47:58.000Z</time>
      </trkpt>
      <trkpt lat="37.066495" lon="-3.373055">
        <ele>3027.0</ele>
        <time>2022-11-20T10:47:59.000Z</time>
      </trkpt>
      <trkpt lat="37.06648667" lon="-3.37305167">
        <ele>3027.0</ele>
        <time>2022-11-20T10:48:00.000Z</time>
      </trkpt>
      <trkpt lat="37.06647667" lon="-3.37305">
        <ele>3027.0</ele>
        <time>2022-11-20T10:48:01.000Z</time>
      </trkpt>
      <trkpt lat="37.06646667" lon="-3.37304667">
        <ele>3027.0</ele>
        <time>2022-11-20T10:48:02.000Z</time>
      </trkpt>
      <trkpt lat="37.06645833" lon="-3.373045">
        <ele>3027.0</ele>
        <time>2022-11-20T10:48:03.000Z</time>
      </trkpt>
      <trkpt lat="37.06645" lon="-3.37304167">
        <ele>3027.0</ele>
        <time>2022-11-20T10:48:04.000Z</time>
      </trkpt>
      <trkpt lat="37.06644333" lon="-3.37304">
        <ele>3027.0</ele>
        <time>2022-11-20T10:48:05.000Z</time>
      </trkpt>
      <trkpt lat="37.066435" lon="-3.37303333">
        <ele>3027.0</ele>
        <time>2022-11-20T10:48:06.000Z</time>
      </trkpt>
      <trkpt lat="37.06642833" lon="-3.37302667">
        <ele>3027.0</ele>
        <time>2022-11-20T10:48:07.000Z</time>
      </trkpt>
      <trkpt lat="37.06642333" lon="-3.37302167">
        <ele>3027.0</ele>
        <time>2022-11-20T10:48:08.000Z</time>
      </trkpt>
      <trkpt lat="37.06642333" lon="-3.37301833">
        <ele>3027.0</ele>
        <time>2022-11-20T10:48:09.000Z</time>
      </trkpt>
      <trkpt lat="37.06642333" lon="-3.37301833">
        <ele>3027.0</ele>
        <time>2022-11-20T10:48:10.000Z</time>
      </trkpt>
      <trkpt lat="37.06642333" lon="-3.37301833">
        <ele>3027.0</ele>
        <time>2022-11-20T10:48:11.000Z</time>
      </trkpt>
      <trkpt lat="37.06642167" lon="-3.37302">
        <ele>3027.0</ele>
        <time>2022-11-20T10:48:12.000Z</time>
      </trkpt>
      <trkpt lat="37.06642" lon="-3.37301833">
        <ele>3027.0</ele>
        <time>2022-11-20T10:48:13.000Z</time>
      </trkpt>
      <trkpt lat="37.066415" lon="-3.37301167">
        <ele>3027.0</ele>
        <time>2022-11-20T10:48:14.000Z</time>
      </trkpt>
      <trkpt lat="37.06641167" lon="-3.37300333">
        <ele>3027.0</ele>
        <time>2022-11-20T10:48:15.000Z</time>
      </trkpt>
      <trkpt lat="37.06640833" lon="-3.37299833">
        <ele>3027.0</ele>
        <time>2022-11-20T10:48:16.000Z</time>
      </trkpt>
      <trkpt lat="37.066405" lon="-3.37299">
        <ele>3027.0</ele>
        <time>2022-11-20T10:48:17.000Z</time>
      </trkpt>
      <trkpt lat="37.06640167" lon="-3.372985">
        <ele>3027.0</ele>
        <time>2022-11-20T10:48:18.000Z</time>
      </trkpt>
      <trkpt lat="37.06640167" lon="-3.37297833">
        <ele>3027.0</ele>
        <time>2022-11-20T10:48:19.000Z</time>
      </trkpt>
      <trkpt lat="37.0664" lon="-3.37297333">
        <ele>3027.0</ele>
        <time>2022-11-20T10:48:20.000Z</time>
      </trkpt>
      <trkpt lat="37.06639833" lon="-3.37296833">
        <ele>3027.0</ele>
        <time>2022-11-20T10:48:21.000Z</time>
      </trkpt>
      <trkpt lat="37.06639667" lon="-3.372965">
        <ele>3027.0</ele>
        <time>2022-11-20T10:48:22.000Z</time>
      </trkpt>
      <trkpt lat="37.066395" lon="-3.37296">
        <ele>3027.0</ele>
        <time>2022-11-20T10:48:23.000Z</time>
      </trkpt>
      <trkpt lat="37.06639333" lon="-3.37295667">
        <ele>3027.0</ele>
        <time>2022-11-20T10:48:24.000Z</time>
      </trkpt>
      <trkpt lat="37.06639167" lon="-3.37295167">
        <ele>3027.0</ele>
        <time>2022-11-20T10:48:25.000Z</time>
      </trkpt>
      <trkpt lat="37.06639" lon="-3.37294833">
        <ele>3027.0</ele>
        <time>2022-11-20T10:48:26.000Z</time>
      </trkpt>
      <trkpt lat="37.06638667" lon="-3.37294333">
        <ele>3027.0</ele>
        <time>2022-11-20T10:48:27.000Z</time>
      </trkpt>
      <trkpt lat="37.066385" lon="-3.37294">
        <ele>3027.0</ele>
        <time>2022-11-20T10:48:28.000Z</time>
      </trkpt>
      <trkpt lat="37.06638333" lon="-3.37293667">
        <ele>3027.0</ele>
        <time>2022-11-20T10:48:29.000Z</time>
      </trkpt>
      <trkpt lat="37.06638167" lon="-3.37293167">
        <ele>3027.0</ele>
        <time>2022-11-20T10:48:30.000Z</time>
      </trkpt>
      <trkpt lat="37.06638167" lon="-3.372925">
        <ele>3027.0</ele>
        <time>2022-11-20T10:48:31.000Z</time>
      </trkpt>
      <trkpt lat="37.06638167" lon="-3.37292">
        <ele>3027.0</ele>
        <time>2022-11-20T10:48:32.000Z</time>
      </trkpt>
      <trkpt lat="37.06637833" lon="-3.372915">
        <ele>3027.0</ele>
        <time>2022-11-20T10:48:33.000Z</time>
      </trkpt>
      <trkpt lat="37.06637833" lon="-3.37291">
        <ele>3027.0</ele>
        <time>2022-11-20T10:48:34.000Z</time>
      </trkpt>
      <trkpt lat="37.06637667" lon="-3.372905">
        <ele>3027.0</ele>
        <time>2022-11-20T10:48:35.000Z</time>
      </trkpt>
      <trkpt lat="37.06637667" lon="-3.37290167">
        <ele>3027.0</ele>
        <time>2022-11-20T10:48:36.000Z</time>
      </trkpt>
      <trkpt lat="37.066375" lon="-3.37289667">
        <ele>3028.0</ele>
        <time>2022-11-20T10:48:37.000Z</time>
      </trkpt>
      <trkpt lat="37.06637667" lon="-3.372895">
        <ele>3028.0</ele>
        <time>2022-11-20T10:48:38.000Z</time>
      </trkpt>
      <trkpt lat="37.066375" lon="-3.37289">
        <ele>3028.0</ele>
        <time>2022-11-20T10:48:39.000Z</time>
      </trkpt>
      <trkpt lat="37.06637667" lon="-3.372885">
        <ele>3028.0</ele>
        <time>2022-11-20T10:48:40.000Z</time>
      </trkpt>
      <trkpt lat="37.06637667" lon="-3.37288167">
        <ele>3028.0</ele>
        <time>2022-11-20T10:48:41.000Z</time>
      </trkpt>
      <trkpt lat="37.06637833" lon="-3.37287833">
        <ele>3028.0</ele>
        <time>2022-11-20T10:48:42.000Z</time>
      </trkpt>
      <trkpt lat="37.06638" lon="-3.37287667">
        <ele>3028.0</ele>
        <time>2022-11-20T10:48:43.000Z</time>
      </trkpt>
      <trkpt lat="37.06638167" lon="-3.37287333">
        <ele>3029.0</ele>
        <time>2022-11-20T10:48:44.000Z</time>
      </trkpt>
      <trkpt lat="37.066385" lon="-3.37287167">
        <ele>3029.0</ele>
        <time>2022-11-20T10:48:45.000Z</time>
      </trkpt>
      <trkpt lat="37.06638667" lon="-3.37286833">
        <ele>3029.0</ele>
        <time>2022-11-20T10:48:46.000Z</time>
      </trkpt>
      <trkpt lat="37.06639" lon="-3.372865">
        <ele>3029.0</ele>
        <time>2022-11-20T10:48:47.000Z</time>
      </trkpt>
      <trkpt lat="37.06639333" lon="-3.37286333">
        <ele>3029.0</ele>
        <time>2022-11-20T10:48:48.000Z</time>
      </trkpt>
      <trkpt lat="37.066395" lon="-3.37286167">
        <ele>3029.0</ele>
        <time>2022-11-20T10:48:49.000Z</time>
      </trkpt>
      <trkpt lat="37.06639667" lon="-3.37285667">
        <ele>3030.0</ele>
        <time>2022-11-20T10:48:50.000Z</time>
      </trkpt>
      <trkpt lat="37.06639833" lon="-3.37285333">
        <ele>3030.0</ele>
        <time>2022-11-20T10:48:51.000Z</time>
      </trkpt>
      <trkpt lat="37.0664" lon="-3.37284833">
        <ele>3030.0</ele>
        <time>2022-11-20T10:48:52.000Z</time>
      </trkpt>
      <trkpt lat="37.06640167" lon="-3.37284833">
        <ele>3030.0</ele>
        <time>2022-11-20T10:48:53.000Z</time>
      </trkpt>
      <trkpt lat="37.0664" lon="-3.372845">
        <ele>3030.0</ele>
        <time>2022-11-20T10:48:54.000Z</time>
      </trkpt>
      <trkpt lat="37.0664" lon="-3.37284333">
        <ele>3031.0</ele>
        <time>2022-11-20T10:48:55.000Z</time>
      </trkpt>
      <trkpt lat="37.06639833" lon="-3.37284167">
        <ele>3031.0</ele>
        <time>2022-11-20T10:48:56.000Z</time>
      </trkpt>
      <trkpt lat="37.06639667" lon="-3.37284">
        <ele>3031.0</ele>
        <time>2022-11-20T10:48:57.000Z</time>
      </trkpt>
      <trkpt lat="37.066395" lon="-3.37283667">
        <ele>3031.0</ele>
        <time>2022-11-20T10:48:58.000Z</time>
      </trkpt>
      <trkpt lat="37.06639167" lon="-3.37283333">
        <ele>3031.0</ele>
        <time>2022-11-20T10:48:59.000Z</time>
      </trkpt>
      <trkpt lat="37.06639" lon="-3.37283167">
        <ele>3031.0</ele>
        <time>2022-11-20T10:49:00.000Z</time>
      </trkpt>
      <trkpt lat="37.06638833" lon="-3.37282667">
        <ele>3031.0</ele>
        <time>2022-11-20T10:49:01.000Z</time>
      </trkpt>
      <trkpt lat="37.06638667" lon="-3.372825">
        <ele>3031.0</ele>
        <time>2022-11-20T10:49:02.000Z</time>
      </trkpt>
      <trkpt lat="37.066385" lon="-3.372825">
        <ele>3031.0</ele>
        <time>2022-11-20T10:49:03.000Z</time>
      </trkpt>
      <trkpt lat="37.06638167" lon="-3.37282">
        <ele>3032.0</ele>
        <time>2022-11-20T10:49:04.000Z</time>
      </trkpt>
      <trkpt lat="37.06638" lon="-3.37281667">
        <ele>3032.0</ele>
        <time>2022-11-20T10:49:05.000Z</time>
      </trkpt>
      <trkpt lat="37.06637667" lon="-3.37281167">
        <ele>3032.0</ele>
        <time>2022-11-20T10:49:06.000Z</time>
      </trkpt>
      <trkpt lat="37.066375" lon="-3.37281">
        <ele>3032.0</ele>
        <time>2022-11-20T10:49:07.000Z</time>
      </trkpt>
      <trkpt lat="37.06637333" lon="-3.372805">
        <ele>3032.0</ele>
        <time>2022-11-20T10:49:08.000Z</time>
      </trkpt>
      <trkpt lat="37.06637167" lon="-3.37280167">
        <ele>3032.0</ele>
        <time>2022-11-20T10:49:09.000Z</time>
      </trkpt>
      <trkpt lat="37.06636667" lon="-3.372795">
        <ele>3032.0</ele>
        <time>2022-11-20T10:49:10.000Z</time>
      </trkpt>
      <trkpt lat="37.06636667" lon="-3.37279">
        <ele>3032.0</ele>
        <time>2022-11-20T10:49:11.000Z</time>
      </trkpt>
      <trkpt lat="37.06636667" lon="-3.37278667">
        <ele>3033.0</ele>
        <time>2022-11-20T10:49:12.000Z</time>
      </trkpt>
      <trkpt lat="37.06636667" lon="-3.372785">
        <ele>3033.0</ele>
        <time>2022-11-20T10:49:13.000Z</time>
      </trkpt>
      <trkpt lat="37.06636333" lon="-3.37278">
        <ele>3033.0</ele>
        <time>2022-11-20T10:49:14.000Z</time>
      </trkpt>
      <trkpt lat="37.06636167" lon="-3.37277667">
        <ele>3033.0</ele>
        <time>2022-11-20T10:49:15.000Z</time>
      </trkpt>
      <trkpt lat="37.06635833" lon="-3.37277">
        <ele>3033.0</ele>
        <time>2022-11-20T10:49:16.000Z</time>
      </trkpt>
      <trkpt lat="37.066355" lon="-3.37276667">
        <ele>3033.0</ele>
        <time>2022-11-20T10:49:17.000Z</time>
      </trkpt>
      <trkpt lat="37.066355" lon="-3.37276333">
        <ele>3033.0</ele>
        <time>2022-11-20T10:49:18.000Z</time>
      </trkpt>
      <trkpt lat="37.06635" lon="-3.37275667">
        <ele>3033.0</ele>
        <time>2022-11-20T10:49:19.000Z</time>
      </trkpt>
      <trkpt lat="37.06634833" lon="-3.37275167">
        <ele>3033.0</ele>
        <time>2022-11-20T10:49:20.000Z</time>
      </trkpt>
      <trkpt lat="37.06634667" lon="-3.372745">
        <ele>3033.0</ele>
        <time>2022-11-20T10:49:21.000Z</time>
      </trkpt>
      <trkpt lat="37.06634333" lon="-3.37274167">
        <ele>3033.0</ele>
        <time>2022-11-20T10:49:22.000Z</time>
      </trkpt>
      <trkpt lat="37.06634167" lon="-3.37273833">
        <ele>3034.0</ele>
        <time>2022-11-20T10:49:23.000Z</time>
      </trkpt>
      <trkpt lat="37.06634" lon="-3.372735">
        <ele>3034.0</ele>
        <time>2022-11-20T10:49:24.000Z</time>
      </trkpt>
      <trkpt lat="37.066335" lon="-3.37273333">
        <ele>3034.0</ele>
        <time>2022-11-20T10:49:25.000Z</time>
      </trkpt>
      <trkpt lat="37.06633" lon="-3.37272833">
        <ele>3034.0</ele>
        <time>2022-11-20T10:49:26.000Z</time>
      </trkpt>
      <trkpt lat="37.06632667" lon="-3.37272333">
        <ele>3034.0</ele>
        <time>2022-11-20T10:49:27.000Z</time>
      </trkpt>
      <trkpt lat="37.06632333" lon="-3.37271833">
        <ele>3034.0</ele>
        <time>2022-11-20T10:49:28.000Z</time>
      </trkpt>
      <trkpt lat="37.06631833" lon="-3.372715">
        <ele>3035.0</ele>
        <time>2022-11-20T10:49:29.000Z</time>
      </trkpt>
      <trkpt lat="37.06631667" lon="-3.37271167">
        <ele>3035.0</ele>
        <time>2022-11-20T10:49:30.000Z</time>
      </trkpt>
      <trkpt lat="37.06631333" lon="-3.37270833">
        <ele>3035.0</ele>
        <time>2022-11-20T10:49:31.000Z</time>
      </trkpt>
      <trkpt lat="37.06631" lon="-3.372705">
        <ele>3035.0</ele>
        <time>2022-11-20T10:49:32.000Z</time>
      </trkpt>
      <trkpt lat="37.06630833" lon="-3.37269667">
        <ele>3035.0</ele>
        <time>2022-11-20T10:49:33.000Z</time>
      </trkpt>
      <trkpt lat="37.06630667" lon="-3.37269167">
        <ele>3035.0</ele>
        <time>2022-11-20T10:49:34.000Z</time>
      </trkpt>
      <trkpt lat="37.066305" lon="-3.37268833">
        <ele>3035.0</ele>
        <time>2022-11-20T10:49:35.000Z</time>
      </trkpt>
      <trkpt lat="37.06630167" lon="-3.37268667">
        <ele>3036.0</ele>
        <time>2022-11-20T10:49:36.000Z</time>
      </trkpt>
      <trkpt lat="37.0663" lon="-3.37268667">
        <ele>3036.0</ele>
        <time>2022-11-20T10:49:37.000Z</time>
      </trkpt>
      <trkpt lat="37.06629667" lon="-3.37268">
        <ele>3036.0</ele>
        <time>2022-11-20T10:49:38.000Z</time>
      </trkpt>
      <trkpt lat="37.06629333" lon="-3.37267667">
        <ele>3036.0</ele>
        <time>2022-11-20T10:49:39.000Z</time>
      </trkpt>
      <trkpt lat="37.06629" lon="-3.37267333">
        <ele>3036.0</ele>
        <time>2022-11-20T10:49:40.000Z</time>
      </trkpt>
      <trkpt lat="37.06628833" lon="-3.37266833">
        <ele>3037.0</ele>
        <time>2022-11-20T10:49:41.000Z</time>
      </trkpt>
      <trkpt lat="37.06628667" lon="-3.37266667">
        <ele>3037.0</ele>
        <time>2022-11-20T10:49:42.000Z</time>
      </trkpt>
      <trkpt lat="37.06628333" lon="-3.37266333">
        <ele>3037.0</ele>
        <time>2022-11-20T10:49:43.000Z</time>
      </trkpt>
      <trkpt lat="37.06627667" lon="-3.37265667">
        <ele>3037.0</ele>
        <time>2022-11-20T10:49:44.000Z</time>
      </trkpt>
      <trkpt lat="37.066275" lon="-3.37265333">
        <ele>3037.0</ele>
        <time>2022-11-20T10:49:45.000Z</time>
      </trkpt>
      <trkpt lat="37.06627167" lon="-3.37265">
        <ele>3038.0</ele>
        <time>2022-11-20T10:49:46.000Z</time>
      </trkpt>
      <trkpt lat="37.06626667" lon="-3.37264833">
        <ele>3038.0</ele>
        <time>2022-11-20T10:49:47.000Z</time>
      </trkpt>
      <trkpt lat="37.066265" lon="-3.37264667">
        <ele>3038.0</ele>
        <time>2022-11-20T10:49:48.000Z</time>
      </trkpt>
      <trkpt lat="37.06626" lon="-3.37264167">
        <ele>3038.0</ele>
        <time>2022-11-20T10:49:49.000Z</time>
      </trkpt>
      <trkpt lat="37.066255" lon="-3.37264">
        <ele>3039.0</ele>
        <time>2022-11-20T10:49:50.000Z</time>
      </trkpt>
      <trkpt lat="37.06625167" lon="-3.372635">
        <ele>3039.0</ele>
        <time>2022-11-20T10:49:51.000Z</time>
      </trkpt>
      <trkpt lat="37.06625" lon="-3.37262833">
        <ele>3039.0</ele>
        <time>2022-11-20T10:49:52.000Z</time>
      </trkpt>
      <trkpt lat="37.06624667" lon="-3.372625">
        <ele>3039.0</ele>
        <time>2022-11-20T10:49:53.000Z</time>
      </trkpt>
      <trkpt lat="37.06624667" lon="-3.37262167">
        <ele>3039.0</ele>
        <time>2022-11-20T10:49:54.000Z</time>
      </trkpt>
      <trkpt lat="37.06624667" lon="-3.37261667">
        <ele>3039.0</ele>
        <time>2022-11-20T10:49:55.000Z</time>
      </trkpt>
      <trkpt lat="37.06624833" lon="-3.37261">
        <ele>3039.0</ele>
        <time>2022-11-20T10:49:56.000Z</time>
      </trkpt>
      <trkpt lat="37.06624833" lon="-3.372605">
        <ele>3040.0</ele>
        <time>2022-11-20T10:49:57.000Z</time>
      </trkpt>
      <trkpt lat="37.06624833" lon="-3.37260167">
        <ele>3040.0</ele>
        <time>2022-11-20T10:49:58.000Z</time>
      </trkpt>
      <trkpt lat="37.06624833" lon="-3.37259833">
        <ele>3040.0</ele>
        <time>2022-11-20T10:49:59.000Z</time>
      </trkpt>
      <trkpt lat="37.066245" lon="-3.372595">
        <ele>3040.0</ele>
        <time>2022-11-20T10:50:00.000Z</time>
      </trkpt>
      <trkpt lat="37.06624333" lon="-3.37259167">
        <ele>3040.0</ele>
        <time>2022-11-20T10:50:01.000Z</time>
      </trkpt>
      <trkpt lat="37.06624" lon="-3.37258833">
        <ele>3040.0</ele>
        <time>2022-11-20T10:50:02.000Z</time>
      </trkpt>
      <trkpt lat="37.06623833" lon="-3.37258333">
        <ele>3041.0</ele>
        <time>2022-11-20T10:50:03.000Z</time>
      </trkpt>
      <trkpt lat="37.066235" lon="-3.37257833">
        <ele>3041.0</ele>
        <time>2022-11-20T10:50:04.000Z</time>
      </trkpt>
      <trkpt lat="37.06623333" lon="-3.37257667">
        <ele>3041.0</ele>
        <time>2022-11-20T10:50:05.000Z</time>
      </trkpt>
      <trkpt lat="37.06623167" lon="-3.37257">
        <ele>3041.0</ele>
        <time>2022-11-20T10:50:06.000Z</time>
      </trkpt>
      <trkpt lat="37.06622833" lon="-3.37256667">
        <ele>3042.0</ele>
        <time>2022-11-20T10:50:07.000Z</time>
      </trkpt>
      <trkpt lat="37.066225" lon="-3.37256167">
        <ele>3042.0</ele>
        <time>2022-11-20T10:50:08.000Z</time>
      </trkpt>
      <trkpt lat="37.06622333" lon="-3.37255667">
        <ele>3042.0</ele>
        <time>2022-11-20T10:50:09.000Z</time>
      </trkpt>
      <trkpt lat="37.06622167" lon="-3.37255333">
        <ele>3042.0</ele>
        <time>2022-11-20T10:50:10.000Z</time>
      </trkpt>
      <trkpt lat="37.06622167" lon="-3.37255167">
        <ele>3042.0</ele>
        <time>2022-11-20T10:50:11.000Z</time>
      </trkpt>
      <trkpt lat="37.06622167" lon="-3.37255167">
        <ele>3043.0</ele>
        <time>2022-11-20T10:50:12.000Z</time>
      </trkpt>
      <trkpt lat="37.06622167" lon="-3.37255167">
        <ele>3043.0</ele>
        <time>2022-11-20T10:50:13.000Z</time>
      </trkpt>
      <trkpt lat="37.06622" lon="-3.37255">
        <ele>3043.0</ele>
        <time>2022-11-20T10:50:14.000Z</time>
      </trkpt>
      <trkpt lat="37.06622" lon="-3.37254667">
        <ele>3043.0</ele>
        <time>2022-11-20T10:50:15.000Z</time>
      </trkpt>
      <trkpt lat="37.06621667" lon="-3.37254167">
        <ele>3043.0</ele>
        <time>2022-11-20T10:50:16.000Z</time>
      </trkpt>
      <trkpt lat="37.066215" lon="-3.37253667">
        <ele>3043.0</ele>
        <time>2022-11-20T10:50:17.000Z</time>
      </trkpt>
      <trkpt lat="37.06621333" lon="-3.37253333">
        <ele>3043.0</ele>
        <time>2022-11-20T10:50:18.000Z</time>
      </trkpt>
      <trkpt lat="37.06621333" lon="-3.372525">
        <ele>3043.0</ele>
        <time>2022-11-20T10:50:19.000Z</time>
      </trkpt>
      <trkpt lat="37.06621167" lon="-3.37252167">
        <ele>3043.0</ele>
        <time>2022-11-20T10:50:20.000Z</time>
      </trkpt>
      <trkpt lat="37.06621" lon="-3.37251667">
        <ele>3043.0</ele>
        <time>2022-11-20T10:50:21.000Z</time>
      </trkpt>
      <trkpt lat="37.06620667" lon="-3.37251167">
        <ele>3044.0</ele>
        <time>2022-11-20T10:50:22.000Z</time>
      </trkpt>
      <trkpt lat="37.066205" lon="-3.37250833">
        <ele>3044.0</ele>
        <time>2022-11-20T10:50:23.000Z</time>
      </trkpt>
      <trkpt lat="37.06620333" lon="-3.372505">
        <ele>3044.0</ele>
        <time>2022-11-20T10:50:24.000Z</time>
      </trkpt>
      <trkpt lat="37.0662" lon="-3.37249833">
        <ele>3044.0</ele>
        <time>2022-11-20T10:50:25.000Z</time>
      </trkpt>
      <trkpt lat="37.06619667" lon="-3.37249333">
        <ele>3044.0</ele>
        <time>2022-11-20T10:50:26.000Z</time>
      </trkpt>
      <trkpt lat="37.066195" lon="-3.37248667">
        <ele>3045.0</ele>
        <time>2022-11-20T10:50:27.000Z</time>
      </trkpt>
      <trkpt lat="37.06619333" lon="-3.37248167">
        <ele>3045.0</ele>
        <time>2022-11-20T10:50:28.000Z</time>
      </trkpt>
      <trkpt lat="37.06619333" lon="-3.37247667">
        <ele>3045.0</ele>
        <time>2022-11-20T10:50:29.000Z</time>
      </trkpt>
      <trkpt lat="37.066195" lon="-3.37247167">
        <ele>3045.0</ele>
        <time>2022-11-20T10:50:30.000Z</time>
      </trkpt>
      <trkpt lat="37.06619667" lon="-3.37246667">
        <ele>3045.0</ele>
        <time>2022-11-20T10:50:31.000Z</time>
      </trkpt>
      <trkpt lat="37.06619667" lon="-3.37246333">
        <ele>3045.0</ele>
        <time>2022-11-20T10:50:32.000Z</time>
      </trkpt>
      <trkpt lat="37.06619667" lon="-3.37245833">
        <ele>3046.0</ele>
        <time>2022-11-20T10:50:33.000Z</time>
      </trkpt>
      <trkpt lat="37.06619833" lon="-3.372455">
        <ele>3046.0</ele>
        <time>2022-11-20T10:50:34.000Z</time>
      </trkpt>
      <trkpt lat="37.06619833" lon="-3.37245">
        <ele>3046.0</ele>
        <time>2022-11-20T10:50:35.000Z</time>
      </trkpt>
      <trkpt lat="37.06619667" lon="-3.37244667">
        <ele>3046.0</ele>
        <time>2022-11-20T10:50:36.000Z</time>
      </trkpt>
      <trkpt lat="37.066195" lon="-3.37244333">
        <ele>3046.0</ele>
        <time>2022-11-20T10:50:37.000Z</time>
      </trkpt>
      <trkpt lat="37.06619" lon="-3.37243833">
        <ele>3046.0</ele>
        <time>2022-11-20T10:50:38.000Z</time>
      </trkpt>
      <trkpt lat="37.066185" lon="-3.37243333">
        <ele>3047.0</ele>
        <time>2022-11-20T10:50:39.000Z</time>
      </trkpt>
      <trkpt lat="37.06618333" lon="-3.37242667">
        <ele>3047.0</ele>
        <time>2022-11-20T10:50:40.000Z</time>
      </trkpt>
      <trkpt lat="37.06617833" lon="-3.37242167">
        <ele>3047.0</ele>
        <time>2022-11-20T10:50:41.000Z</time>
      </trkpt>
      <trkpt lat="37.06617833" lon="-3.372415">
        <ele>3047.0</ele>
        <time>2022-11-20T10:50:42.000Z</time>
      </trkpt>
      <trkpt lat="37.06617833" lon="-3.37241">
        <ele>3048.0</ele>
        <time>2022-11-20T10:50:43.000Z</time>
      </trkpt>
      <trkpt lat="37.06617833" lon="-3.372405">
        <ele>3048.0</ele>
        <time>2022-11-20T10:50:44.000Z</time>
      </trkpt>
      <trkpt lat="37.06617667" lon="-3.37239833">
        <ele>3048.0</ele>
        <time>2022-11-20T10:50:45.000Z</time>
      </trkpt>
      <trkpt lat="37.066175" lon="-3.372395">
        <ele>3048.0</ele>
        <time>2022-11-20T10:50:46.000Z</time>
      </trkpt>
      <trkpt lat="37.066175" lon="-3.37239167">
        <ele>3048.0</ele>
        <time>2022-11-20T10:50:47.000Z</time>
      </trkpt>
      <trkpt lat="37.06617167" lon="-3.37238667">
        <ele>3048.0</ele>
        <time>2022-11-20T10:50:48.000Z</time>
      </trkpt>
      <trkpt lat="37.06617167" lon="-3.37238">
        <ele>3048.0</ele>
        <time>2022-11-20T10:50:49.000Z</time>
      </trkpt>
      <trkpt lat="37.06617" lon="-3.372375">
        <ele>3048.0</ele>
        <time>2022-11-20T10:50:50.000Z</time>
      </trkpt>
      <trkpt lat="37.06616833" lon="-3.37236833">
        <ele>3049.0</ele>
        <time>2022-11-20T10:50:51.000Z</time>
      </trkpt>
      <trkpt lat="37.06616833" lon="-3.37236167">
        <ele>3049.0</ele>
        <time>2022-11-20T10:50:52.000Z</time>
      </trkpt>
      <trkpt lat="37.06616833" lon="-3.37235667">
        <ele>3049.0</ele>
        <time>2022-11-20T10:50:53.000Z</time>
      </trkpt>
      <trkpt lat="37.06617" lon="-3.37235167">
        <ele>3049.0</ele>
        <time>2022-11-20T10:50:54.000Z</time>
      </trkpt>
      <trkpt lat="37.06616833" lon="-3.37234833">
        <ele>3049.0</ele>
        <time>2022-11-20T10:50:55.000Z</time>
      </trkpt>
      <trkpt lat="37.06617" lon="-3.37234333">
        <ele>3049.0</ele>
        <time>2022-11-20T10:50:56.000Z</time>
      </trkpt>
      <trkpt lat="37.06617" lon="-3.37234">
        <ele>3049.0</ele>
        <time>2022-11-20T10:50:57.000Z</time>
      </trkpt>
      <trkpt lat="37.06617167" lon="-3.37233667">
        <ele>3049.0</ele>
        <time>2022-11-20T10:50:58.000Z</time>
      </trkpt>
      <trkpt lat="37.06617167" lon="-3.372335">
        <ele>3049.0</ele>
        <time>2022-11-20T10:50:59.000Z</time>
      </trkpt>
      <trkpt lat="37.06617167" lon="-3.37232833">
        <ele>3050.0</ele>
        <time>2022-11-20T10:51:00.000Z</time>
      </trkpt>
      <trkpt lat="37.06617" lon="-3.372325">
        <ele>3050.0</ele>
        <time>2022-11-20T10:51:01.000Z</time>
      </trkpt>
      <trkpt lat="37.06616833" lon="-3.37232167">
        <ele>3050.0</ele>
        <time>2022-11-20T10:51:02.000Z</time>
      </trkpt>
      <trkpt lat="37.06617" lon="-3.37231667">
        <ele>3050.0</ele>
        <time>2022-11-20T10:51:03.000Z</time>
      </trkpt>
      <trkpt lat="37.06616833" lon="-3.37231167">
        <ele>3050.0</ele>
        <time>2022-11-20T10:51:04.000Z</time>
      </trkpt>
      <trkpt lat="37.06616833" lon="-3.37230833">
        <ele>3050.0</ele>
        <time>2022-11-20T10:51:05.000Z</time>
      </trkpt>
      <trkpt lat="37.06616833" lon="-3.37230333">
        <ele>3050.0</ele>
        <time>2022-11-20T10:51:06.000Z</time>
      </trkpt>
      <trkpt lat="37.06616833" lon="-3.37229833">
        <ele>3050.0</ele>
        <time>2022-11-20T10:51:07.000Z</time>
      </trkpt>
      <trkpt lat="37.06616667" lon="-3.37229667">
        <ele>3050.0</ele>
        <time>2022-11-20T10:51:08.000Z</time>
      </trkpt>
      <trkpt lat="37.066165" lon="-3.37229333">
        <ele>3050.0</ele>
        <time>2022-11-20T10:51:09.000Z</time>
      </trkpt>
      <trkpt lat="37.06616333" lon="-3.37228833">
        <ele>3051.0</ele>
        <time>2022-11-20T10:51:10.000Z</time>
      </trkpt>
      <trkpt lat="37.06616167" lon="-3.372285">
        <ele>3051.0</ele>
        <time>2022-11-20T10:51:11.000Z</time>
      </trkpt>
      <trkpt lat="37.06615833" lon="-3.37227833">
        <ele>3051.0</ele>
        <time>2022-11-20T10:51:12.000Z</time>
      </trkpt>
      <trkpt lat="37.06615833" lon="-3.37227333">
        <ele>3051.0</ele>
        <time>2022-11-20T10:51:13.000Z</time>
      </trkpt>
      <trkpt lat="37.06615667" lon="-3.37226833">
        <ele>3051.0</ele>
        <time>2022-11-20T10:51:14.000Z</time>
      </trkpt>
      <trkpt lat="37.066155" lon="-3.372265">
        <ele>3051.0</ele>
        <time>2022-11-20T10:51:15.000Z</time>
      </trkpt>
      <trkpt lat="37.066155" lon="-3.37226167">
        <ele>3051.0</ele>
        <time>2022-11-20T10:51:16.000Z</time>
      </trkpt>
      <trkpt lat="37.06615333" lon="-3.37225833">
        <ele>3051.0</ele>
        <time>2022-11-20T10:51:17.000Z</time>
      </trkpt>
      <trkpt lat="37.06615" lon="-3.37225333">
        <ele>3051.0</ele>
        <time>2022-11-20T10:51:18.000Z</time>
      </trkpt>
      <trkpt lat="37.06615" lon="-3.37225">
        <ele>3052.0</ele>
        <time>2022-11-20T10:51:19.000Z</time>
      </trkpt>
      <trkpt lat="37.06614667" lon="-3.372245">
        <ele>3052.0</ele>
        <time>2022-11-20T10:51:20.000Z</time>
      </trkpt>
      <trkpt lat="37.06614667" lon="-3.37224">
        <ele>3052.0</ele>
        <time>2022-11-20T10:51:21.000Z</time>
      </trkpt>
      <trkpt lat="37.06614667" lon="-3.372235">
        <ele>3052.0</ele>
        <time>2022-11-20T10:51:22.000Z</time>
      </trkpt>
      <trkpt lat="37.06614667" lon="-3.37223167">
        <ele>3052.0</ele>
        <time>2022-11-20T10:51:23.000Z</time>
      </trkpt>
      <trkpt lat="37.066145" lon="-3.37222667">
        <ele>3053.0</ele>
        <time>2022-11-20T10:51:24.000Z</time>
      </trkpt>
      <trkpt lat="37.066145" lon="-3.37222333">
        <ele>3053.0</ele>
        <time>2022-11-20T10:51:25.000Z</time>
      </trkpt>
      <trkpt lat="37.06614167" lon="-3.37221667">
        <ele>3053.0</ele>
        <time>2022-11-20T10:51:26.000Z</time>
      </trkpt>
      <trkpt lat="37.06614167" lon="-3.37221167">
        <ele>3053.0</ele>
        <time>2022-11-20T10:51:27.000Z</time>
      </trkpt>
      <trkpt lat="37.06614" lon="-3.37220833">
        <ele>3053.0</ele>
        <time>2022-11-20T10:51:28.000Z</time>
      </trkpt>
      <trkpt lat="37.06613667" lon="-3.37220333">
        <ele>3053.0</ele>
        <time>2022-11-20T10:51:29.000Z</time>
      </trkpt>
      <trkpt lat="37.066135" lon="-3.3722">
        <ele>3053.0</ele>
        <time>2022-11-20T10:51:30.000Z</time>
      </trkpt>
      <trkpt lat="37.06613167" lon="-3.372195">
        <ele>3054.0</ele>
        <time>2022-11-20T10:51:31.000Z</time>
      </trkpt>
      <trkpt lat="37.06613" lon="-3.37219167">
        <ele>3054.0</ele>
        <time>2022-11-20T10:51:32.000Z</time>
      </trkpt>
      <trkpt lat="37.06612667" lon="-3.37218833">
        <ele>3054.0</ele>
        <time>2022-11-20T10:51:33.000Z</time>
      </trkpt>
      <trkpt lat="37.066125" lon="-3.37218333">
        <ele>3054.0</ele>
        <time>2022-11-20T10:51:34.000Z</time>
      </trkpt>
      <trkpt lat="37.066125" lon="-3.37218">
        <ele>3054.0</ele>
        <time>2022-11-20T10:51:35.000Z</time>
      </trkpt>
      <trkpt lat="37.066125" lon="-3.37217667">
        <ele>3054.0</ele>
        <time>2022-11-20T10:51:36.000Z</time>
      </trkpt>
      <trkpt lat="37.06612333" lon="-3.37217167">
        <ele>3054.0</ele>
        <time>2022-11-20T10:51:37.000Z</time>
      </trkpt>
      <trkpt lat="37.06612333" lon="-3.37217">
        <ele>3055.0</ele>
        <time>2022-11-20T10:51:38.000Z</time>
      </trkpt>
      <trkpt lat="37.06612" lon="-3.37216833">
        <ele>3055.0</ele>
        <time>2022-11-20T10:51:39.000Z</time>
      </trkpt>
      <trkpt lat="37.06611667" lon="-3.372165">
        <ele>3055.0</ele>
        <time>2022-11-20T10:51:40.000Z</time>
      </trkpt>
      <trkpt lat="37.066115" lon="-3.37216167">
        <ele>3055.0</ele>
        <time>2022-11-20T10:51:41.000Z</time>
      </trkpt>
      <trkpt lat="37.06611333" lon="-3.37215833">
        <ele>3055.0</ele>
        <time>2022-11-20T10:51:42.000Z</time>
      </trkpt>
      <trkpt lat="37.06611" lon="-3.37215333">
        <ele>3055.0</ele>
        <time>2022-11-20T10:51:43.000Z</time>
      </trkpt>
      <trkpt lat="37.06611" lon="-3.37214833">
        <ele>3056.0</ele>
        <time>2022-11-20T10:51:44.000Z</time>
      </trkpt>
      <trkpt lat="37.06610833" lon="-3.372145">
        <ele>3056.0</ele>
        <time>2022-11-20T10:51:45.000Z</time>
      </trkpt>
      <trkpt lat="37.06610667" lon="-3.37214167">
        <ele>3056.0</ele>
        <time>2022-11-20T10:51:46.000Z</time>
      </trkpt>
      <trkpt lat="37.066105" lon="-3.37213667">
        <ele>3056.0</ele>
        <time>2022-11-20T10:51:47.000Z</time>
      </trkpt>
      <trkpt lat="37.06610333" lon="-3.37213167">
        <ele>3056.0</ele>
        <time>2022-11-20T10:51:48.000Z</time>
      </trkpt>
      <trkpt lat="37.06610167" lon="-3.37212833">
        <ele>3056.0</ele>
        <time>2022-11-20T10:51:49.000Z</time>
      </trkpt>
      <trkpt lat="37.0661" lon="-3.37212333">
        <ele>3057.0</ele>
        <time>2022-11-20T10:51:50.000Z</time>
      </trkpt>
      <trkpt lat="37.06609833" lon="-3.37211833">
        <ele>3057.0</ele>
        <time>2022-11-20T10:51:51.000Z</time>
      </trkpt>
      <trkpt lat="37.06609667" lon="-3.37211333">
        <ele>3057.0</ele>
        <time>2022-11-20T10:51:52.000Z</time>
      </trkpt>
      <trkpt lat="37.066095" lon="-3.37210833">
        <ele>3057.0</ele>
        <time>2022-11-20T10:51:53.000Z</time>
      </trkpt>
      <trkpt lat="37.066095" lon="-3.372105">
        <ele>3057.0</ele>
        <time>2022-11-20T10:51:54.000Z</time>
      </trkpt>
      <trkpt lat="37.06609333" lon="-3.37210167">
        <ele>3057.0</ele>
        <time>2022-11-20T10:51:55.000Z</time>
      </trkpt>
      <trkpt lat="37.06609333" lon="-3.372095">
        <ele>3057.0</ele>
        <time>2022-11-20T10:51:56.000Z</time>
      </trkpt>
      <trkpt lat="37.06609167" lon="-3.37209167">
        <ele>3057.0</ele>
        <time>2022-11-20T10:51:57.000Z</time>
      </trkpt>
      <trkpt lat="37.06609167" lon="-3.37209">
        <ele>3058.0</ele>
        <time>2022-11-20T10:51:58.000Z</time>
      </trkpt>
      <trkpt lat="37.06608833" lon="-3.372085">
        <ele>3058.0</ele>
        <time>2022-11-20T10:51:59.000Z</time>
      </trkpt>
      <trkpt lat="37.066085" lon="-3.37208167">
        <ele>3058.0</ele>
        <time>2022-11-20T10:52:00.000Z</time>
      </trkpt>
      <trkpt lat="37.06608167" lon="-3.37207833">
        <ele>3058.0</ele>
        <time>2022-11-20T10:52:01.000Z</time>
      </trkpt>
      <trkpt lat="37.06607833" lon="-3.37207333">
        <ele>3058.0</ele>
        <time>2022-11-20T10:52:02.000Z</time>
      </trkpt>
      <trkpt lat="37.066075" lon="-3.37206833">
        <ele>3058.0</ele>
        <time>2022-11-20T10:52:03.000Z</time>
      </trkpt>
      <trkpt lat="37.066075" lon="-3.37206667">
        <ele>3059.0</ele>
        <time>2022-11-20T10:52:04.000Z</time>
      </trkpt>
      <trkpt lat="37.066075" lon="-3.372065">
        <ele>3059.0</ele>
        <time>2022-11-20T10:52:05.000Z</time>
      </trkpt>
      <trkpt lat="37.066075" lon="-3.37205833">
        <ele>3059.0</ele>
        <time>2022-11-20T10:52:06.000Z</time>
      </trkpt>
      <trkpt lat="37.06607333" lon="-3.37205333">
        <ele>3059.0</ele>
        <time>2022-11-20T10:52:07.000Z</time>
      </trkpt>
      <trkpt lat="37.06607167" lon="-3.37205">
        <ele>3059.0</ele>
        <time>2022-11-20T10:52:08.000Z</time>
      </trkpt>
      <trkpt lat="37.06607" lon="-3.37204333">
        <ele>3059.0</ele>
        <time>2022-11-20T10:52:09.000Z</time>
      </trkpt>
      <trkpt lat="37.06606833" lon="-3.37203833">
        <ele>3059.0</ele>
        <time>2022-11-20T10:52:10.000Z</time>
      </trkpt>
      <trkpt lat="37.06606667" lon="-3.37203667">
        <ele>3060.0</ele>
        <time>2022-11-20T10:52:11.000Z</time>
      </trkpt>
      <trkpt lat="37.06606667" lon="-3.37203">
        <ele>3060.0</ele>
        <time>2022-11-20T10:52:12.000Z</time>
      </trkpt>
      <trkpt lat="37.06606333" lon="-3.372025">
        <ele>3060.0</ele>
        <time>2022-11-20T10:52:13.000Z</time>
      </trkpt>
      <trkpt lat="37.06606333" lon="-3.37202333">
        <ele>3060.0</ele>
        <time>2022-11-20T10:52:14.000Z</time>
      </trkpt>
      <trkpt lat="37.06606333" lon="-3.37202167">
        <ele>3060.0</ele>
        <time>2022-11-20T10:52:15.000Z</time>
      </trkpt>
      <trkpt lat="37.06606167" lon="-3.372015">
        <ele>3060.0</ele>
        <time>2022-11-20T10:52:16.000Z</time>
      </trkpt>
      <trkpt lat="37.06606" lon="-3.37201333">
        <ele>3060.0</ele>
        <time>2022-11-20T10:52:17.000Z</time>
      </trkpt>
      <trkpt lat="37.06606" lon="-3.37200833">
        <ele>3060.0</ele>
        <time>2022-11-20T10:52:18.000Z</time>
      </trkpt>
      <trkpt lat="37.06605833" lon="-3.37200833">
        <ele>3060.0</ele>
        <time>2022-11-20T10:52:19.000Z</time>
      </trkpt>
      <trkpt lat="37.06605667" lon="-3.372005">
        <ele>3060.0</ele>
        <time>2022-11-20T10:52:20.000Z</time>
      </trkpt>
      <trkpt lat="37.06605333" lon="-3.37200167">
        <ele>3060.0</ele>
        <time>2022-11-20T10:52:21.000Z</time>
      </trkpt>
      <trkpt lat="37.06605333" lon="-3.371995">
        <ele>3061.0</ele>
        <time>2022-11-20T10:52:22.000Z</time>
      </trkpt>
      <trkpt lat="37.06605" lon="-3.37199333">
        <ele>3061.0</ele>
        <time>2022-11-20T10:52:23.000Z</time>
      </trkpt>
      <trkpt lat="37.06605" lon="-3.37199167">
        <ele>3061.0</ele>
        <time>2022-11-20T10:52:24.000Z</time>
      </trkpt>
      <trkpt lat="37.06604667" lon="-3.37198833">
        <ele>3061.0</ele>
        <time>2022-11-20T10:52:25.000Z</time>
      </trkpt>
      <trkpt lat="37.066045" lon="-3.371985">
        <ele>3061.0</ele>
        <time>2022-11-20T10:52:26.000Z</time>
      </trkpt>
      <trkpt lat="37.06604167" lon="-3.37198">
        <ele>3062.0</ele>
        <time>2022-11-20T10:52:27.000Z</time>
      </trkpt>
      <trkpt lat="37.06604" lon="-3.37197667">
        <ele>3062.0</ele>
        <time>2022-11-20T10:52:28.000Z</time>
      </trkpt>
      <trkpt lat="37.06603667" lon="-3.37197167">
        <ele>3062.0</ele>
        <time>2022-11-20T10:52:29.000Z</time>
      </trkpt>
      <trkpt lat="37.06603667" lon="-3.37196833">
        <ele>3062.0</ele>
        <time>2022-11-20T10:52:30.000Z</time>
      </trkpt>
      <trkpt lat="37.06603333" lon="-3.37196333">
        <ele>3062.0</ele>
        <time>2022-11-20T10:52:31.000Z</time>
      </trkpt>
      <trkpt lat="37.06603333" lon="-3.37196">
        <ele>3063.0</ele>
        <time>2022-11-20T10:52:32.000Z</time>
      </trkpt>
      <trkpt lat="37.06603167" lon="-3.37195833">
        <ele>3063.0</ele>
        <time>2022-11-20T10:52:33.000Z</time>
      </trkpt>
      <trkpt lat="37.06603167" lon="-3.37195667">
        <ele>3063.0</ele>
        <time>2022-11-20T10:52:34.000Z</time>
      </trkpt>
      <trkpt lat="37.06603167" lon="-3.37195667">
        <ele>3063.0</ele>
        <time>2022-11-20T10:52:35.000Z</time>
      </trkpt>
      <trkpt lat="37.06603167" lon="-3.37195667">
        <ele>3063.0</ele>
        <time>2022-11-20T10:52:36.000Z</time>
      </trkpt>
      <trkpt lat="37.06603167" lon="-3.37195667">
        <ele>3063.0</ele>
        <time>2022-11-20T10:52:37.000Z</time>
      </trkpt>
      <trkpt lat="37.06603167" lon="-3.37195667">
        <ele>3063.0</ele>
        <time>2022-11-20T10:52:38.000Z</time>
      </trkpt>
      <trkpt lat="37.06603167" lon="-3.37195667">
        <ele>3063.0</ele>
        <time>2022-11-20T10:52:39.000Z</time>
      </trkpt>
      <trkpt lat="37.06603167" lon="-3.37195667">
        <ele>3063.0</ele>
        <time>2022-11-20T10:52:40.000Z</time>
      </trkpt>
      <trkpt lat="37.06603167" lon="-3.37195667">
        <ele>3063.0</ele>
        <time>2022-11-20T10:52:41.000Z</time>
      </trkpt>
      <trkpt lat="37.06603" lon="-3.37195167">
        <ele>3063.0</ele>
        <time>2022-11-20T10:52:42.000Z</time>
      </trkpt>
      <trkpt lat="37.06602833" lon="-3.37194833">
        <ele>3063.0</ele>
        <time>2022-11-20T10:52:43.000Z</time>
      </trkpt>
      <trkpt lat="37.06602833" lon="-3.371945">
        <ele>3063.0</ele>
        <time>2022-11-20T10:52:44.000Z</time>
      </trkpt>
      <trkpt lat="37.06602667" lon="-3.37194167">
        <ele>3063.0</ele>
        <time>2022-11-20T10:52:45.000Z</time>
      </trkpt>
      <trkpt lat="37.06602667" lon="-3.37194">
        <ele>3063.0</ele>
        <time>2022-11-20T10:52:46.000Z</time>
      </trkpt>
      <trkpt lat="37.06602667" lon="-3.37194">
        <ele>3063.0</ele>
        <time>2022-11-20T10:52:47.000Z</time>
      </trkpt>
      <trkpt lat="37.06602667" lon="-3.37194">
        <ele>3063.0</ele>
        <time>2022-11-20T10:52:48.000Z</time>
      </trkpt>
      <trkpt lat="37.06602667" lon="-3.37193833">
        <ele>3063.0</ele>
        <time>2022-11-20T10:52:49.000Z</time>
      </trkpt>
      <trkpt lat="37.06602333" lon="-3.37193">
        <ele>3063.0</ele>
        <time>2022-11-20T10:52:50.000Z</time>
      </trkpt>
      <trkpt lat="37.066025" lon="-3.37192667">
        <ele>3063.0</ele>
        <time>2022-11-20T10:52:51.000Z</time>
      </trkpt>
      <trkpt lat="37.066025" lon="-3.37192167">
        <ele>3063.0</ele>
        <time>2022-11-20T10:52:52.000Z</time>
      </trkpt>
      <trkpt lat="37.06602167" lon="-3.371915">
        <ele>3063.0</ele>
        <time>2022-11-20T10:52:53.000Z</time>
      </trkpt>
      <trkpt lat="37.06602" lon="-3.37191167">
        <ele>3063.0</ele>
        <time>2022-11-20T10:52:54.000Z</time>
      </trkpt>
      <trkpt lat="37.06601833" lon="-3.37190833">
        <ele>3063.0</ele>
        <time>2022-11-20T10:52:55.000Z</time>
      </trkpt>
      <trkpt lat="37.066015" lon="-3.371905">
        <ele>3064.0</ele>
        <time>2022-11-20T10:52:56.000Z</time>
      </trkpt>
      <trkpt lat="37.06601167" lon="-3.37189833">
        <ele>3064.0</ele>
        <time>2022-11-20T10:52:57.000Z</time>
      </trkpt>
      <trkpt lat="37.06601" lon="-3.371895">
        <ele>3064.0</ele>
        <time>2022-11-20T10:52:58.000Z</time>
      </trkpt>
      <trkpt lat="37.06600667" lon="-3.37188833">
        <ele>3064.0</ele>
        <time>2022-11-20T10:52:59.000Z</time>
      </trkpt>
      <trkpt lat="37.066005" lon="-3.37188333">
        <ele>3064.0</ele>
        <time>2022-11-20T10:53:00.000Z</time>
      </trkpt>
      <trkpt lat="37.06600333" lon="-3.37188">
        <ele>3065.0</ele>
        <time>2022-11-20T10:53:01.000Z</time>
      </trkpt>
      <trkpt lat="37.06600167" lon="-3.371875">
        <ele>3065.0</ele>
        <time>2022-11-20T10:53:02.000Z</time>
      </trkpt>
      <trkpt lat="37.06600167" lon="-3.37186833">
        <ele>3065.0</ele>
        <time>2022-11-20T10:53:03.000Z</time>
      </trkpt>
      <trkpt lat="37.066" lon="-3.37186667">
        <ele>3065.0</ele>
        <time>2022-11-20T10:53:04.000Z</time>
      </trkpt>
      <trkpt lat="37.06599833" lon="-3.37186333">
        <ele>3065.0</ele>
        <time>2022-11-20T10:53:05.000Z</time>
      </trkpt>
      <trkpt lat="37.06599833" lon="-3.37186167">
        <ele>3065.0</ele>
        <time>2022-11-20T10:53:06.000Z</time>
      </trkpt>
      <trkpt lat="37.06599833" lon="-3.37185833">
        <ele>3065.0</ele>
        <time>2022-11-20T10:53:07.000Z</time>
      </trkpt>
      <trkpt lat="37.06599667" lon="-3.371855">
        <ele>3065.0</ele>
        <time>2022-11-20T10:53:08.000Z</time>
      </trkpt>
      <trkpt lat="37.065995" lon="-3.37185167">
        <ele>3066.0</ele>
        <time>2022-11-20T10:53:09.000Z</time>
      </trkpt>
      <trkpt lat="37.065995" lon="-3.37185167">
        <ele>3066.0</ele>
        <time>2022-11-20T10:53:10.000Z</time>
      </trkpt>
      <trkpt lat="37.06599667" lon="-3.37185">
        <ele>3066.0</ele>
        <time>2022-11-20T10:53:11.000Z</time>
      </trkpt>
      <trkpt lat="37.06599667" lon="-3.37184667">
        <ele>3066.0</ele>
        <time>2022-11-20T10:53:12.000Z</time>
      </trkpt>
      <trkpt lat="37.06599667" lon="-3.37184333">
        <ele>3066.0</ele>
        <time>2022-11-20T10:53:13.000Z</time>
      </trkpt>
      <trkpt lat="37.06599333" lon="-3.37184">
        <ele>3066.0</ele>
        <time>2022-11-20T10:53:14.000Z</time>
      </trkpt>
      <trkpt lat="37.06599167" lon="-3.37183667">
        <ele>3066.0</ele>
        <time>2022-11-20T10:53:15.000Z</time>
      </trkpt>
      <trkpt lat="37.06599167" lon="-3.37183">
        <ele>3067.0</ele>
        <time>2022-11-20T10:53:16.000Z</time>
      </trkpt>
      <trkpt lat="37.06599" lon="-3.37182667">
        <ele>3067.0</ele>
        <time>2022-11-20T10:53:17.000Z</time>
      </trkpt>
      <trkpt lat="37.06599" lon="-3.37182333">
        <ele>3067.0</ele>
        <time>2022-11-20T10:53:18.000Z</time>
      </trkpt>
      <trkpt lat="37.06598833" lon="-3.37181667">
        <ele>3067.0</ele>
        <time>2022-11-20T10:53:19.000Z</time>
      </trkpt>
      <trkpt lat="37.06598667" lon="-3.37181333">
        <ele>3067.0</ele>
        <time>2022-11-20T10:53:20.000Z</time>
      </trkpt>
      <trkpt lat="37.06598333" lon="-3.37180833">
        <ele>3068.0</ele>
        <time>2022-11-20T10:53:21.000Z</time>
      </trkpt>
      <trkpt lat="37.06598" lon="-3.371805">
        <ele>3068.0</ele>
        <time>2022-11-20T10:53:22.000Z</time>
      </trkpt>
      <trkpt lat="37.065975" lon="-3.37180167">
        <ele>3068.0</ele>
        <time>2022-11-20T10:53:23.000Z</time>
      </trkpt>
      <trkpt lat="37.06597167" lon="-3.37179667">
        <ele>3068.0</ele>
        <time>2022-11-20T10:53:24.000Z</time>
      </trkpt>
      <trkpt lat="37.06596833" lon="-3.37179333">
        <ele>3068.0</ele>
        <time>2022-11-20T10:53:25.000Z</time>
      </trkpt>
      <trkpt lat="37.06596667" lon="-3.37178667">
        <ele>3069.0</ele>
        <time>2022-11-20T10:53:26.000Z</time>
      </trkpt>
      <trkpt lat="37.065965" lon="-3.37178333">
        <ele>3069.0</ele>
        <time>2022-11-20T10:53:27.000Z</time>
      </trkpt>
      <trkpt lat="37.06596167" lon="-3.37178">
        <ele>3069.0</ele>
        <time>2022-11-20T10:53:28.000Z</time>
      </trkpt>
      <trkpt lat="37.06596" lon="-3.371775">
        <ele>3069.0</ele>
        <time>2022-11-20T10:53:29.000Z</time>
      </trkpt>
      <trkpt lat="37.06595667" lon="-3.37177167">
        <ele>3070.0</ele>
        <time>2022-11-20T10:53:30.000Z</time>
      </trkpt>
      <trkpt lat="37.065955" lon="-3.371765">
        <ele>3070.0</ele>
        <time>2022-11-20T10:53:31.000Z</time>
      </trkpt>
      <trkpt lat="37.06595167" lon="-3.37176">
        <ele>3070.0</ele>
        <time>2022-11-20T10:53:32.000Z</time>
      </trkpt>
      <trkpt lat="37.06595" lon="-3.37175667">
        <ele>3070.0</ele>
        <time>2022-11-20T10:53:33.000Z</time>
      </trkpt>
      <trkpt lat="37.06594667" lon="-3.37175333">
        <ele>3071.0</ele>
        <time>2022-11-20T10:53:34.000Z</time>
      </trkpt>
      <trkpt lat="37.065945" lon="-3.37174667">
        <ele>3071.0</ele>
        <time>2022-11-20T10:53:35.000Z</time>
      </trkpt>
      <trkpt lat="37.06594167" lon="-3.37174333">
        <ele>3071.0</ele>
        <time>2022-11-20T10:53:36.000Z</time>
      </trkpt>
      <trkpt lat="37.06594167" lon="-3.371745">
        <ele>3071.0</ele>
        <time>2022-11-20T10:53:37.000Z</time>
      </trkpt>
      <trkpt lat="37.06594167" lon="-3.371745">
        <ele>3071.0</ele>
        <time>2022-11-20T10:53:38.000Z</time>
      </trkpt>
      <trkpt lat="37.06594167" lon="-3.371745">
        <ele>3071.0</ele>
        <time>2022-11-20T10:53:39.000Z</time>
      </trkpt>
      <trkpt lat="37.06594167" lon="-3.371745">
        <ele>3071.0</ele>
        <time>2022-11-20T10:53:40.000Z</time>
      </trkpt>
      <trkpt lat="37.06594167" lon="-3.37174333">
        <ele>3071.0</ele>
        <time>2022-11-20T10:53:41.000Z</time>
      </trkpt>
      <trkpt lat="37.06594" lon="-3.37173667">
        <ele>3071.0</ele>
        <time>2022-11-20T10:53:42.000Z</time>
      </trkpt>
      <trkpt lat="37.06593833" lon="-3.37173167">
        <ele>3072.0</ele>
        <time>2022-11-20T10:53:43.000Z</time>
      </trkpt>
      <trkpt lat="37.065935" lon="-3.37172667">
        <ele>3072.0</ele>
        <time>2022-11-20T10:53:44.000Z</time>
      </trkpt>
      <trkpt lat="37.06593333" lon="-3.37172333">
        <ele>3072.0</ele>
        <time>2022-11-20T10:53:45.000Z</time>
      </trkpt>
      <trkpt lat="37.06593333" lon="-3.37171833">
        <ele>3072.0</ele>
        <time>2022-11-20T10:53:46.000Z</time>
      </trkpt>
      <trkpt lat="37.06593333" lon="-3.37171333">
        <ele>3072.0</ele>
        <time>2022-11-20T10:53:47.000Z</time>
      </trkpt>
      <trkpt lat="37.06593333" lon="-3.37170833">
        <ele>3072.0</ele>
        <time>2022-11-20T10:53:48.000Z</time>
      </trkpt>
      <trkpt lat="37.06593" lon="-3.371705">
        <ele>3072.0</ele>
        <time>2022-11-20T10:53:49.000Z</time>
      </trkpt>
      <trkpt lat="37.06592833" lon="-3.37169833">
        <ele>3073.0</ele>
        <time>2022-11-20T10:53:50.000Z</time>
      </trkpt>
      <trkpt lat="37.065925" lon="-3.371695">
        <ele>3073.0</ele>
        <time>2022-11-20T10:53:51.000Z</time>
      </trkpt>
      <trkpt lat="37.06592333" lon="-3.37169333">
        <ele>3073.0</ele>
        <time>2022-11-20T10:53:52.000Z</time>
      </trkpt>
      <trkpt lat="37.06592167" lon="-3.371685">
        <ele>3073.0</ele>
        <time>2022-11-20T10:53:53.000Z</time>
      </trkpt>
      <trkpt lat="37.06592" lon="-3.37168">
        <ele>3073.0</ele>
        <time>2022-11-20T10:53:54.000Z</time>
      </trkpt>
      <trkpt lat="37.06591833" lon="-3.371675">
        <ele>3073.0</ele>
        <time>2022-11-20T10:53:55.000Z</time>
      </trkpt>
      <trkpt lat="37.06591667" lon="-3.37167333">
        <ele>3073.0</ele>
        <time>2022-11-20T10:53:56.000Z</time>
      </trkpt>
      <trkpt lat="37.065915" lon="-3.37166833">
        <ele>3074.0</ele>
        <time>2022-11-20T10:53:57.000Z</time>
      </trkpt>
      <trkpt lat="37.06591167" lon="-3.37166333">
        <ele>3074.0</ele>
        <time>2022-11-20T10:53:58.000Z</time>
      </trkpt>
      <trkpt lat="37.06591" lon="-3.37165833">
        <ele>3074.0</ele>
        <time>2022-11-20T10:53:59.000Z</time>
      </trkpt>
      <trkpt lat="37.06591" lon="-3.37165333">
        <ele>3074.0</ele>
        <time>2022-11-20T10:54:00.000Z</time>
      </trkpt>
      <trkpt lat="37.06591" lon="-3.37164833">
        <ele>3074.0</ele>
        <time>2022-11-20T10:54:01.000Z</time>
      </trkpt>
      <trkpt lat="37.06591" lon="-3.37164333">
        <ele>3074.0</ele>
        <time>2022-11-20T10:54:02.000Z</time>
      </trkpt>
      <trkpt lat="37.06591" lon="-3.37164">
        <ele>3075.0</ele>
        <time>2022-11-20T10:54:03.000Z</time>
      </trkpt>
      <trkpt lat="37.06590833" lon="-3.371635">
        <ele>3075.0</ele>
        <time>2022-11-20T10:54:04.000Z</time>
      </trkpt>
      <trkpt lat="37.06591" lon="-3.37163167">
        <ele>3075.0</ele>
        <time>2022-11-20T10:54:05.000Z</time>
      </trkpt>
      <trkpt lat="37.06591167" lon="-3.37162833">
        <ele>3075.0</ele>
        <time>2022-11-20T10:54:06.000Z</time>
      </trkpt>
      <trkpt lat="37.06591333" lon="-3.371625">
        <ele>3075.0</ele>
        <time>2022-11-20T10:54:07.000Z</time>
      </trkpt>
      <trkpt lat="37.065915" lon="-3.37162">
        <ele>3075.0</ele>
        <time>2022-11-20T10:54:08.000Z</time>
      </trkpt>
      <trkpt lat="37.065915" lon="-3.37161667">
        <ele>3076.0</ele>
        <time>2022-11-20T10:54:09.000Z</time>
      </trkpt>
      <trkpt lat="37.065915" lon="-3.37161333">
        <ele>3076.0</ele>
        <time>2022-11-20T10:54:10.000Z</time>
      </trkpt>
      <trkpt lat="37.06591333" lon="-3.37160833">
        <ele>3076.0</ele>
        <time>2022-11-20T10:54:11.000Z</time>
      </trkpt>
      <trkpt lat="37.06591167" lon="-3.37160333">
        <ele>3076.0</ele>
        <time>2022-11-20T10:54:12.000Z</time>
      </trkpt>
      <trkpt lat="37.06590833" lon="-3.37159833">
        <ele>3076.0</ele>
        <time>2022-11-20T10:54:13.000Z</time>
      </trkpt>
      <trkpt lat="37.065905" lon="-3.37159">
        <ele>3076.0</ele>
        <time>2022-11-20T10:54:14.000Z</time>
      </trkpt>
      <trkpt lat="37.06590167" lon="-3.371585">
        <ele>3076.0</ele>
        <time>2022-11-20T10:54:15.000Z</time>
      </trkpt>
      <trkpt lat="37.06589667" lon="-3.37158167">
        <ele>3076.0</ele>
        <time>2022-11-20T10:54:16.000Z</time>
      </trkpt>
      <trkpt lat="37.06589333" lon="-3.37158">
        <ele>3076.0</ele>
        <time>2022-11-20T10:54:17.000Z</time>
      </trkpt>
      <trkpt lat="37.06588833" lon="-3.37157667">
        <ele>3077.0</ele>
        <time>2022-11-20T10:54:18.000Z</time>
      </trkpt>
      <trkpt lat="37.06588333" lon="-3.37157167">
        <ele>3077.0</ele>
        <time>2022-11-20T10:54:19.000Z</time>
      </trkpt>
      <trkpt lat="37.06588" lon="-3.37156833">
        <ele>3077.0</ele>
        <time>2022-11-20T10:54:20.000Z</time>
      </trkpt>
      <trkpt lat="37.065875" lon="-3.371565">
        <ele>3077.0</ele>
        <time>2022-11-20T10:54:21.000Z</time>
      </trkpt>
      <trkpt lat="37.06586833" lon="-3.37156">
        <ele>3078.0</ele>
        <time>2022-11-20T10:54:22.000Z</time>
      </trkpt>
      <trkpt lat="37.065865" lon="-3.37155667">
        <ele>3078.0</ele>
        <time>2022-11-20T10:54:23.000Z</time>
      </trkpt>
      <trkpt lat="37.06586" lon="-3.37155167">
        <ele>3078.0</ele>
        <time>2022-11-20T10:54:24.000Z</time>
      </trkpt>
      <trkpt lat="37.065855" lon="-3.371545">
        <ele>3078.0</ele>
        <time>2022-11-20T10:54:25.000Z</time>
      </trkpt>
      <trkpt lat="37.06585167" lon="-3.37154">
        <ele>3078.0</ele>
        <time>2022-11-20T10:54:26.000Z</time>
      </trkpt>
      <trkpt lat="37.06584833" lon="-3.37153667">
        <ele>3078.0</ele>
        <time>2022-11-20T10:54:27.000Z</time>
      </trkpt>
      <trkpt lat="37.065845" lon="-3.37153167">
        <ele>3079.0</ele>
        <time>2022-11-20T10:54:28.000Z</time>
      </trkpt>
      <trkpt lat="37.06584" lon="-3.37152667">
        <ele>3079.0</ele>
        <time>2022-11-20T10:54:29.000Z</time>
      </trkpt>
      <trkpt lat="37.06583667" lon="-3.37152167">
        <ele>3079.0</ele>
        <time>2022-11-20T10:54:30.000Z</time>
      </trkpt>
      <trkpt lat="37.06583667" lon="-3.37151667">
        <ele>3079.0</ele>
        <time>2022-11-20T10:54:31.000Z</time>
      </trkpt>
      <trkpt lat="37.06583667" lon="-3.371515">
        <ele>3079.0</ele>
        <time>2022-11-20T10:54:32.000Z</time>
      </trkpt>
      <trkpt lat="37.06583833" lon="-3.37151">
        <ele>3079.0</ele>
        <time>2022-11-20T10:54:33.000Z</time>
      </trkpt>
      <trkpt lat="37.06583667" lon="-3.37150667">
        <ele>3080.0</ele>
        <time>2022-11-20T10:54:34.000Z</time>
      </trkpt>
      <trkpt lat="37.065835" lon="-3.37150167">
        <ele>3080.0</ele>
        <time>2022-11-20T10:54:35.000Z</time>
      </trkpt>
      <trkpt lat="37.06583" lon="-3.37149667">
        <ele>3080.0</ele>
        <time>2022-11-20T10:54:36.000Z</time>
      </trkpt>
      <trkpt lat="37.06582833" lon="-3.37149333">
        <ele>3080.0</ele>
        <time>2022-11-20T10:54:37.000Z</time>
      </trkpt>
      <trkpt lat="37.06582833" lon="-3.371485">
        <ele>3080.0</ele>
        <time>2022-11-20T10:54:38.000Z</time>
      </trkpt>
      <trkpt lat="37.065825" lon="-3.37148">
        <ele>3080.0</ele>
        <time>2022-11-20T10:54:39.000Z</time>
      </trkpt>
      <trkpt lat="37.065825" lon="-3.371475">
        <ele>3081.0</ele>
        <time>2022-11-20T10:54:40.000Z</time>
      </trkpt>
      <trkpt lat="37.06582333" lon="-3.37146833">
        <ele>3081.0</ele>
        <time>2022-11-20T10:54:41.000Z</time>
      </trkpt>
      <trkpt lat="37.06582167" lon="-3.37146167">
        <ele>3081.0</ele>
        <time>2022-11-20T10:54:42.000Z</time>
      </trkpt>
      <trkpt lat="37.06582167" lon="-3.37145333">
        <ele>3081.0</ele>
        <time>2022-11-20T10:54:43.000Z</time>
      </trkpt>
      <trkpt lat="37.06582167" lon="-3.37144333">
        <ele>3081.0</ele>
        <time>2022-11-20T10:54:44.000Z</time>
      </trkpt>
      <trkpt lat="37.06582167" lon="-3.37143667">
        <ele>3081.0</ele>
        <time>2022-11-20T10:54:45.000Z</time>
      </trkpt>
      <trkpt lat="37.065825" lon="-3.37143">
        <ele>3082.0</ele>
        <time>2022-11-20T10:54:46.000Z</time>
      </trkpt>
      <trkpt lat="37.065825" lon="-3.371425">
        <ele>3082.0</ele>
        <time>2022-11-20T10:54:47.000Z</time>
      </trkpt>
      <trkpt lat="37.06582833" lon="-3.37142">
        <ele>3082.0</ele>
        <time>2022-11-20T10:54:48.000Z</time>
      </trkpt>
      <trkpt lat="37.06582833" lon="-3.37141667">
        <ele>3082.0</ele>
        <time>2022-11-20T10:54:49.000Z</time>
      </trkpt>
      <trkpt lat="37.06582833" lon="-3.37141333">
        <ele>3082.0</ele>
        <time>2022-11-20T10:54:50.000Z</time>
      </trkpt>
      <trkpt lat="37.06582333" lon="-3.37141">
        <ele>3082.0</ele>
        <time>2022-11-20T10:54:51.000Z</time>
      </trkpt>
      <trkpt lat="37.06581667" lon="-3.371405">
        <ele>3082.0</ele>
        <time>2022-11-20T10:54:52.000Z</time>
      </trkpt>
      <trkpt lat="37.06581" lon="-3.3714">
        <ele>3082.0</ele>
        <time>2022-11-20T10:54:53.000Z</time>
      </trkpt>
      <trkpt lat="37.06580333" lon="-3.371395">
        <ele>3082.0</ele>
        <time>2022-11-20T10:54:54.000Z</time>
      </trkpt>
      <trkpt lat="37.06579667" lon="-3.37139">
        <ele>3082.0</ele>
        <time>2022-11-20T10:54:55.000Z</time>
      </trkpt>
      <trkpt lat="37.06579" lon="-3.371385">
        <ele>3083.0</ele>
        <time>2022-11-20T10:54:56.000Z</time>
      </trkpt>
      <trkpt lat="37.06578333" lon="-3.37138167">
        <ele>3083.0</ele>
        <time>2022-11-20T10:54:57.000Z</time>
      </trkpt>
      <trkpt lat="37.06577667" lon="-3.37137667">
        <ele>3083.0</ele>
        <time>2022-11-20T10:54:58.000Z</time>
      </trkpt>
      <trkpt lat="37.06577167" lon="-3.37137167">
        <ele>3083.0</ele>
        <time>2022-11-20T10:54:59.000Z</time>
      </trkpt>
      <trkpt lat="37.065765" lon="-3.37137167">
        <ele>3083.0</ele>
        <time>2022-11-20T10:55:00.000Z</time>
      </trkpt>
      <trkpt lat="37.06576" lon="-3.37137">
        <ele>3083.0</ele>
        <time>2022-11-20T10:55:01.000Z</time>
      </trkpt>
      <trkpt lat="37.06575333" lon="-3.37136833">
        <ele>3083.0</ele>
        <time>2022-11-20T10:55:02.000Z</time>
      </trkpt>
      <trkpt lat="37.06574667" lon="-3.371365">
        <ele>3083.0</ele>
        <time>2022-11-20T10:55:03.000Z</time>
      </trkpt>
      <trkpt lat="37.06574" lon="-3.37136167">
        <ele>3084.0</ele>
        <time>2022-11-20T10:55:04.000Z</time>
      </trkpt>
      <trkpt lat="37.06573333" lon="-3.37135667">
        <ele>3084.0</ele>
        <time>2022-11-20T10:55:05.000Z</time>
      </trkpt>
      <trkpt lat="37.06572667" lon="-3.37135167">
        <ele>3084.0</ele>
        <time>2022-11-20T10:55:06.000Z</time>
      </trkpt>
      <trkpt lat="37.06572167" lon="-3.37134667">
        <ele>3084.0</ele>
        <time>2022-11-20T10:55:07.000Z</time>
      </trkpt>
      <trkpt lat="37.065715" lon="-3.37134333">
        <ele>3084.0</ele>
        <time>2022-11-20T10:55:08.000Z</time>
      </trkpt>
      <trkpt lat="37.06570833" lon="-3.37133833">
        <ele>3084.0</ele>
        <time>2022-11-20T10:55:09.000Z</time>
      </trkpt>
      <trkpt lat="37.06570333" lon="-3.371335">
        <ele>3084.0</ele>
        <time>2022-11-20T10:55:10.000Z</time>
      </trkpt>
      <trkpt lat="37.065695" lon="-3.37132833">
        <ele>3084.0</ele>
        <time>2022-11-20T10:55:11.000Z</time>
      </trkpt>
      <trkpt lat="37.06569" lon="-3.37132167">
        <ele>3084.0</ele>
        <time>2022-11-20T10:55:12.000Z</time>
      </trkpt>
      <trkpt lat="37.06568667" lon="-3.37131667">
        <ele>3084.0</ele>
        <time>2022-11-20T10:55:13.000Z</time>
      </trkpt>
      <trkpt lat="37.06567833" lon="-3.37131167">
        <ele>3085.0</ele>
        <time>2022-11-20T10:55:14.000Z</time>
      </trkpt>
      <trkpt lat="37.06567333" lon="-3.37130667">
        <ele>3085.0</ele>
        <time>2022-11-20T10:55:15.000Z</time>
      </trkpt>
      <trkpt lat="37.06566833" lon="-3.371305">
        <ele>3085.0</ele>
        <time>2022-11-20T10:55:16.000Z</time>
      </trkpt>
      <trkpt lat="37.06566167" lon="-3.37130167">
        <ele>3085.0</ele>
        <time>2022-11-20T10:55:17.000Z</time>
      </trkpt>
      <trkpt lat="37.065655" lon="-3.37129833">
        <ele>3085.0</ele>
        <time>2022-11-20T10:55:18.000Z</time>
      </trkpt>
      <trkpt lat="37.06565167" lon="-3.371295">
        <ele>3085.0</ele>
        <time>2022-11-20T10:55:19.000Z</time>
      </trkpt>
      <trkpt lat="37.06564667" lon="-3.37129">
        <ele>3085.0</ele>
        <time>2022-11-20T10:55:20.000Z</time>
      </trkpt>
      <trkpt lat="37.06564" lon="-3.37128833">
        <ele>3086.0</ele>
        <time>2022-11-20T10:55:21.000Z</time>
      </trkpt>
      <trkpt lat="37.065635" lon="-3.371285">
        <ele>3086.0</ele>
        <time>2022-11-20T10:55:22.000Z</time>
      </trkpt>
      <trkpt lat="37.06563" lon="-3.37127833">
        <ele>3086.0</ele>
        <time>2022-11-20T10:55:23.000Z</time>
      </trkpt>
      <trkpt lat="37.065625" lon="-3.371275">
        <ele>3086.0</ele>
        <time>2022-11-20T10:55:24.000Z</time>
      </trkpt>
      <trkpt lat="37.06562167" lon="-3.37127167">
        <ele>3086.0</ele>
        <time>2022-11-20T10:55:25.000Z</time>
      </trkpt>
      <trkpt lat="37.06561667" lon="-3.37126833">
        <ele>3086.0</ele>
        <time>2022-11-20T10:55:26.000Z</time>
      </trkpt>
      <trkpt lat="37.06561167" lon="-3.371265">
        <ele>3086.0</ele>
        <time>2022-11-20T10:55:27.000Z</time>
      </trkpt>
      <trkpt lat="37.06560667" lon="-3.37126333">
        <ele>3086.0</ele>
        <time>2022-11-20T10:55:28.000Z</time>
      </trkpt>
      <trkpt lat="37.06560167" lon="-3.37125833">
        <ele>3086.0</ele>
        <time>2022-11-20T10:55:29.000Z</time>
      </trkpt>
      <trkpt lat="37.06559667" lon="-3.37125333">
        <ele>3086.0</ele>
        <time>2022-11-20T10:55:30.000Z</time>
      </trkpt>
      <trkpt lat="37.06559167" lon="-3.37125167">
        <ele>3087.0</ele>
        <time>2022-11-20T10:55:31.000Z</time>
      </trkpt>
      <trkpt lat="37.06558667" lon="-3.37124667">
        <ele>3087.0</ele>
        <time>2022-11-20T10:55:32.000Z</time>
      </trkpt>
      <trkpt lat="37.06558167" lon="-3.37124167">
        <ele>3087.0</ele>
        <time>2022-11-20T10:55:33.000Z</time>
      </trkpt>
      <trkpt lat="37.06557667" lon="-3.37123667">
        <ele>3087.0</ele>
        <time>2022-11-20T10:55:34.000Z</time>
      </trkpt>
      <trkpt lat="37.06557167" lon="-3.37123333">
        <ele>3087.0</ele>
        <time>2022-11-20T10:55:35.000Z</time>
      </trkpt>
      <trkpt lat="37.06556667" lon="-3.37122833">
        <ele>3087.0</ele>
        <time>2022-11-20T10:55:36.000Z</time>
      </trkpt>
      <trkpt lat="37.06556167" lon="-3.371225">
        <ele>3087.0</ele>
        <time>2022-11-20T10:55:37.000Z</time>
      </trkpt>
      <trkpt lat="37.06555667" lon="-3.37122167">
        <ele>3087.0</ele>
        <time>2022-11-20T10:55:38.000Z</time>
      </trkpt>
      <trkpt lat="37.06555167" lon="-3.37121667">
        <ele>3088.0</ele>
        <time>2022-11-20T10:55:39.000Z</time>
      </trkpt>
      <trkpt lat="37.06554667" lon="-3.37121167">
        <ele>3088.0</ele>
        <time>2022-11-20T10:55:40.000Z</time>
      </trkpt>
      <trkpt lat="37.06554333" lon="-3.37120667">
        <ele>3088.0</ele>
        <time>2022-11-20T10:55:41.000Z</time>
      </trkpt>
      <trkpt lat="37.06553833" lon="-3.37120167">
        <ele>3088.0</ele>
        <time>2022-11-20T10:55:42.000Z</time>
      </trkpt>
      <trkpt lat="37.065535" lon="-3.3712">
        <ele>3088.0</ele>
        <time>2022-11-20T10:55:43.000Z</time>
      </trkpt>
      <trkpt lat="37.06553" lon="-3.37119667">
        <ele>3088.0</ele>
        <time>2022-11-20T10:55:44.000Z</time>
      </trkpt>
      <trkpt lat="37.06552333" lon="-3.37119333">
        <ele>3088.0</ele>
        <time>2022-11-20T10:55:45.000Z</time>
      </trkpt>
      <trkpt lat="37.06551833" lon="-3.37119">
        <ele>3089.0</ele>
        <time>2022-11-20T10:55:46.000Z</time>
      </trkpt>
      <trkpt lat="37.06551167" lon="-3.37118667">
        <ele>3089.0</ele>
        <time>2022-11-20T10:55:47.000Z</time>
      </trkpt>
      <trkpt lat="37.06550667" lon="-3.371185">
        <ele>3089.0</ele>
        <time>2022-11-20T10:55:48.000Z</time>
      </trkpt>
      <trkpt lat="37.06550167" lon="-3.37118167">
        <ele>3089.0</ele>
        <time>2022-11-20T10:55:49.000Z</time>
      </trkpt>
      <trkpt lat="37.06549667" lon="-3.37117833">
        <ele>3089.0</ele>
        <time>2022-11-20T10:55:50.000Z</time>
      </trkpt>
      <trkpt lat="37.06549" lon="-3.37117333">
        <ele>3089.0</ele>
        <time>2022-11-20T10:55:51.000Z</time>
      </trkpt>
      <trkpt lat="37.065485" lon="-3.37117167">
        <ele>3089.0</ele>
        <time>2022-11-20T10:55:52.000Z</time>
      </trkpt>
      <trkpt lat="37.06548167" lon="-3.37116667">
        <ele>3090.0</ele>
        <time>2022-11-20T10:55:53.000Z</time>
      </trkpt>
      <trkpt lat="37.06548" lon="-3.37115833">
        <ele>3090.0</ele>
        <time>2022-11-20T10:55:54.000Z</time>
      </trkpt>
      <trkpt lat="37.06548" lon="-3.37115167">
        <ele>3090.0</ele>
        <time>2022-11-20T10:55:55.000Z</time>
      </trkpt>
      <trkpt lat="37.06548333" lon="-3.37114333">
        <ele>3090.0</ele>
        <time>2022-11-20T10:55:56.000Z</time>
      </trkpt>
      <trkpt lat="37.06549" lon="-3.37114">
        <ele>3090.0</ele>
        <time>2022-11-20T10:55:57.000Z</time>
      </trkpt>
      <trkpt lat="37.06549333" lon="-3.37113667">
        <ele>3090.0</ele>
        <time>2022-11-20T10:55:58.000Z</time>
      </trkpt>
      <trkpt lat="37.06549667" lon="-3.37113167">
        <ele>3090.0</ele>
        <time>2022-11-20T10:55:59.000Z</time>
      </trkpt>
      <trkpt lat="37.0655" lon="-3.37112833">
        <ele>3090.0</ele>
        <time>2022-11-20T10:56:00.000Z</time>
      </trkpt>
      <trkpt lat="37.06550167" lon="-3.37112333">
        <ele>3090.0</ele>
        <time>2022-11-20T10:56:01.000Z</time>
      </trkpt>
      <trkpt lat="37.065505" lon="-3.371115">
        <ele>3091.0</ele>
        <time>2022-11-20T10:56:02.000Z</time>
      </trkpt>
      <trkpt lat="37.06550667" lon="-3.37110833">
        <ele>3091.0</ele>
        <time>2022-11-20T10:56:03.000Z</time>
      </trkpt>
      <trkpt lat="37.06550667" lon="-3.371105">
        <ele>3091.0</ele>
        <time>2022-11-20T10:56:04.000Z</time>
      </trkpt>
      <trkpt lat="37.06550833" lon="-3.3711">
        <ele>3091.0</ele>
        <time>2022-11-20T10:56:05.000Z</time>
      </trkpt>
      <trkpt lat="37.06550833" lon="-3.3711">
        <ele>3091.0</ele>
        <time>2022-11-20T10:56:06.000Z</time>
      </trkpt>
      <trkpt lat="37.06550833" lon="-3.3711">
        <ele>3091.0</ele>
        <time>2022-11-20T10:56:07.000Z</time>
      </trkpt>
      <trkpt lat="37.06550833" lon="-3.3711">
        <ele>3091.0</ele>
        <time>2022-11-20T10:56:08.000Z</time>
      </trkpt>
      <trkpt lat="37.06550833" lon="-3.3711">
        <ele>3091.0</ele>
        <time>2022-11-20T10:56:09.000Z</time>
      </trkpt>
      <trkpt lat="37.06550833" lon="-3.3711">
        <ele>3091.0</ele>
        <time>2022-11-20T10:56:10.000Z</time>
      </trkpt>
      <trkpt lat="37.06550833" lon="-3.37110167">
        <ele>3091.0</ele>
        <time>2022-11-20T10:56:11.000Z</time>
      </trkpt>
      <trkpt lat="37.06550833" lon="-3.3711">
        <ele>3091.0</ele>
        <time>2022-11-20T10:56:12.000Z</time>
      </trkpt>
      <trkpt lat="37.06550833" lon="-3.37109833">
        <ele>3091.0</ele>
        <time>2022-11-20T10:56:13.000Z</time>
      </trkpt>
      <trkpt lat="37.06550833" lon="-3.371095">
        <ele>3091.0</ele>
        <time>2022-11-20T10:56:14.000Z</time>
      </trkpt>
      <trkpt lat="37.06551167" lon="-3.37109">
        <ele>3091.0</ele>
        <time>2022-11-20T10:56:15.000Z</time>
      </trkpt>
      <trkpt lat="37.06551667" lon="-3.37108333">
        <ele>3091.0</ele>
        <time>2022-11-20T10:56:16.000Z</time>
      </trkpt>
      <trkpt lat="37.06552333" lon="-3.37107833">
        <ele>3091.0</ele>
        <time>2022-11-20T10:56:17.000Z</time>
      </trkpt>
      <trkpt lat="37.06552833" lon="-3.37107167">
        <ele>3091.0</ele>
        <time>2022-11-20T10:56:18.000Z</time>
      </trkpt>
      <trkpt lat="37.06553167" lon="-3.37106333">
        <ele>3092.0</ele>
        <time>2022-11-20T10:56:19.000Z</time>
      </trkpt>
      <trkpt lat="37.06553333" lon="-3.371055">
        <ele>3092.0</ele>
        <time>2022-11-20T10:56:20.000Z</time>
      </trkpt>
      <trkpt lat="37.065535" lon="-3.37104667">
        <ele>3092.0</ele>
        <time>2022-11-20T10:56:21.000Z</time>
      </trkpt>
      <trkpt lat="37.065535" lon="-3.37104">
        <ele>3092.0</ele>
        <time>2022-11-20T10:56:22.000Z</time>
      </trkpt>
      <trkpt lat="37.06553833" lon="-3.37103667">
        <ele>3092.0</ele>
        <time>2022-11-20T10:56:23.000Z</time>
      </trkpt>
      <trkpt lat="37.06554" lon="-3.37103333">
        <ele>3092.0</ele>
        <time>2022-11-20T10:56:24.000Z</time>
      </trkpt>
      <trkpt lat="37.06554167" lon="-3.37102667">
        <ele>3092.0</ele>
        <time>2022-11-20T10:56:25.000Z</time>
      </trkpt>
      <trkpt lat="37.06553833" lon="-3.37102">
        <ele>3092.0</ele>
        <time>2022-11-20T10:56:26.000Z</time>
      </trkpt>
      <trkpt lat="37.06553333" lon="-3.371015">
        <ele>3092.0</ele>
        <time>2022-11-20T10:56:27.000Z</time>
      </trkpt>
      <trkpt lat="37.06553" lon="-3.37101">
        <ele>3092.0</ele>
        <time>2022-11-20T10:56:28.000Z</time>
      </trkpt>
      <trkpt lat="37.06552333" lon="-3.37100667">
        <ele>3093.0</ele>
        <time>2022-11-20T10:56:29.000Z</time>
      </trkpt>
      <trkpt lat="37.065515" lon="-3.37100167">
        <ele>3093.0</ele>
        <time>2022-11-20T10:56:30.000Z</time>
      </trkpt>
      <trkpt lat="37.06550833" lon="-3.37099833">
        <ele>3093.0</ele>
        <time>2022-11-20T10:56:31.000Z</time>
      </trkpt>
      <trkpt lat="37.06550333" lon="-3.370995">
        <ele>3093.0</ele>
        <time>2022-11-20T10:56:32.000Z</time>
      </trkpt>
      <trkpt lat="37.065495" lon="-3.37098833">
        <ele>3093.0</ele>
        <time>2022-11-20T10:56:33.000Z</time>
      </trkpt>
      <trkpt lat="37.06549" lon="-3.37098333">
        <ele>3094.0</ele>
        <time>2022-11-20T10:56:34.000Z</time>
      </trkpt>
      <trkpt lat="37.065485" lon="-3.37098">
        <ele>3094.0</ele>
        <time>2022-11-20T10:56:35.000Z</time>
      </trkpt>
      <trkpt lat="37.06548167" lon="-3.37097333">
        <ele>3094.0</ele>
        <time>2022-11-20T10:56:36.000Z</time>
      </trkpt>
      <trkpt lat="37.06547667" lon="-3.37096833">
        <ele>3094.0</ele>
        <time>2022-11-20T10:56:37.000Z</time>
      </trkpt>
      <trkpt lat="37.06547167" lon="-3.37096333">
        <ele>3094.0</ele>
        <time>2022-11-20T10:56:38.000Z</time>
      </trkpt>
      <trkpt lat="37.065465" lon="-3.37095667">
        <ele>3094.0</ele>
        <time>2022-11-20T10:56:39.000Z</time>
      </trkpt>
      <trkpt lat="37.06545833" lon="-3.37094833">
        <ele>3095.0</ele>
        <time>2022-11-20T10:56:40.000Z</time>
      </trkpt>
      <trkpt lat="37.065455" lon="-3.37094">
        <ele>3095.0</ele>
        <time>2022-11-20T10:56:41.000Z</time>
      </trkpt>
      <trkpt lat="37.06545" lon="-3.37093">
        <ele>3095.0</ele>
        <time>2022-11-20T10:56:42.000Z</time>
      </trkpt>
      <trkpt lat="37.065445" lon="-3.370925">
        <ele>3095.0</ele>
        <time>2022-11-20T10:56:43.000Z</time>
      </trkpt>
      <trkpt lat="37.06544167" lon="-3.37092167">
        <ele>3095.0</ele>
        <time>2022-11-20T10:56:44.000Z</time>
      </trkpt>
      <trkpt lat="37.06544167" lon="-3.37091833">
        <ele>3095.0</ele>
        <time>2022-11-20T10:56:45.000Z</time>
      </trkpt>
      <trkpt lat="37.06544" lon="-3.37091833">
        <ele>3095.0</ele>
        <time>2022-11-20T10:56:46.000Z</time>
      </trkpt>
      <trkpt lat="37.06544" lon="-3.37091667">
        <ele>3095.0</ele>
        <time>2022-11-20T10:56:47.000Z</time>
      </trkpt>
      <trkpt lat="37.06544" lon="-3.37091667">
        <ele>3095.0</ele>
        <time>2022-11-20T10:56:48.000Z</time>
      </trkpt>
      <trkpt lat="37.06544" lon="-3.37091667">
        <ele>3095.0</ele>
        <time>2022-11-20T10:56:49.000Z</time>
      </trkpt>
      <trkpt lat="37.06544" lon="-3.37091833">
        <ele>3095.0</ele>
        <time>2022-11-20T10:56:50.000Z</time>
      </trkpt>
      <trkpt lat="37.06544" lon="-3.37091833">
        <ele>3095.0</ele>
        <time>2022-11-20T10:56:51.000Z</time>
      </trkpt>
      <trkpt lat="37.06544" lon="-3.37091833">
        <ele>3095.0</ele>
        <time>2022-11-20T10:56:52.000Z</time>
      </trkpt>
      <trkpt lat="37.06544167" lon="-3.37091833">
        <ele>3095.0</ele>
        <time>2022-11-20T10:56:53.000Z</time>
      </trkpt>
      <trkpt lat="37.06544167" lon="-3.37091833">
        <ele>3095.0</ele>
        <time>2022-11-20T10:56:54.000Z</time>
      </trkpt>
      <trkpt lat="37.06544" lon="-3.37091833">
        <ele>3095.0</ele>
        <time>2022-11-20T10:56:55.000Z</time>
      </trkpt>
      <trkpt lat="37.06543667" lon="-3.37091667">
        <ele>3095.0</ele>
        <time>2022-11-20T10:56:56.000Z</time>
      </trkpt>
      <trkpt lat="37.06543333" lon="-3.370915">
        <ele>3095.0</ele>
        <time>2022-11-20T10:56:57.000Z</time>
      </trkpt>
      <trkpt lat="37.06542667" lon="-3.37091">
        <ele>3095.0</ele>
        <time>2022-11-20T10:56:58.000Z</time>
      </trkpt>
      <trkpt lat="37.06542167" lon="-3.37090667">
        <ele>3096.0</ele>
        <time>2022-11-20T10:56:59.000Z</time>
      </trkpt>
      <trkpt lat="37.06541667" lon="-3.37090333">
        <ele>3096.0</ele>
        <time>2022-11-20T10:57:00.000Z</time>
      </trkpt>
      <trkpt lat="37.06541" lon="-3.37089833">
        <ele>3096.0</ele>
        <time>2022-11-20T10:57:01.000Z</time>
      </trkpt>
      <trkpt lat="37.065405" lon="-3.370895">
        <ele>3096.0</ele>
        <time>2022-11-20T10:57:02.000Z</time>
      </trkpt>
      <trkpt lat="37.06540167" lon="-3.37089333">
        <ele>3096.0</ele>
        <time>2022-11-20T10:57:03.000Z</time>
      </trkpt>
      <trkpt lat="37.06539333" lon="-3.37089167">
        <ele>3096.0</ele>
        <time>2022-11-20T10:57:04.000Z</time>
      </trkpt>
      <trkpt lat="37.06538833" lon="-3.37088833">
        <ele>3096.0</ele>
        <time>2022-11-20T10:57:05.000Z</time>
      </trkpt>
      <trkpt lat="37.06538333" lon="-3.370885">
        <ele>3097.0</ele>
        <time>2022-11-20T10:57:06.000Z</time>
      </trkpt>
      <trkpt lat="37.06538" lon="-3.37088167">
        <ele>3097.0</ele>
        <time>2022-11-20T10:57:07.000Z</time>
      </trkpt>
      <trkpt lat="37.065375" lon="-3.37087833">
        <ele>3097.0</ele>
        <time>2022-11-20T10:57:08.000Z</time>
      </trkpt>
      <trkpt lat="37.06537" lon="-3.370875">
        <ele>3097.0</ele>
        <time>2022-11-20T10:57:09.000Z</time>
      </trkpt>
      <trkpt lat="37.06536667" lon="-3.370875">
        <ele>3097.0</ele>
        <time>2022-11-20T10:57:10.000Z</time>
      </trkpt>
      <trkpt lat="37.06536167" lon="-3.37087167">
        <ele>3097.0</ele>
        <time>2022-11-20T10:57:11.000Z</time>
      </trkpt>
      <trkpt lat="37.06535667" lon="-3.37086833">
        <ele>3097.0</ele>
        <time>2022-11-20T10:57:12.000Z</time>
      </trkpt>
      <trkpt lat="37.06535167" lon="-3.37086333">
        <ele>3097.0</ele>
        <time>2022-11-20T10:57:13.000Z</time>
      </trkpt>
      <trkpt lat="37.06534667" lon="-3.37086">
        <ele>3098.0</ele>
        <time>2022-11-20T10:57:14.000Z</time>
      </trkpt>
      <trkpt lat="37.06534" lon="-3.37085667">
        <ele>3098.0</ele>
        <time>2022-11-20T10:57:15.000Z</time>
      </trkpt>
      <trkpt lat="37.06533333" lon="-3.37085167">
        <ele>3098.0</ele>
        <time>2022-11-20T10:57:16.000Z</time>
      </trkpt>
      <trkpt lat="37.06532833" lon="-3.37085">
        <ele>3098.0</ele>
        <time>2022-11-20T10:57:17.000Z</time>
      </trkpt>
      <trkpt lat="37.06532333" lon="-3.37084333">
        <ele>3098.0</ele>
        <time>2022-11-20T10:57:18.000Z</time>
      </trkpt>
      <trkpt lat="37.06531833" lon="-3.37083667">
        <ele>3098.0</ele>
        <time>2022-11-20T10:57:19.000Z</time>
      </trkpt>
      <trkpt lat="37.06531333" lon="-3.37083">
        <ele>3098.0</ele>
        <time>2022-11-20T10:57:20.000Z</time>
      </trkpt>
      <trkpt lat="37.06531" lon="-3.37082333">
        <ele>3098.0</ele>
        <time>2022-11-20T10:57:21.000Z</time>
      </trkpt>
      <trkpt lat="37.06530833" lon="-3.37082167">
        <ele>3099.0</ele>
        <time>2022-11-20T10:57:22.000Z</time>
      </trkpt>
      <trkpt lat="37.065305" lon="-3.37081667">
        <ele>3099.0</ele>
        <time>2022-11-20T10:57:23.000Z</time>
      </trkpt>
      <trkpt lat="37.06530333" lon="-3.37081333">
        <ele>3099.0</ele>
        <time>2022-11-20T10:57:24.000Z</time>
      </trkpt>
      <trkpt lat="37.06529833" lon="-3.37081">
        <ele>3099.0</ele>
        <time>2022-11-20T10:57:25.000Z</time>
      </trkpt>
      <trkpt lat="37.065295" lon="-3.37080667">
        <ele>3099.0</ele>
        <time>2022-11-20T10:57:26.000Z</time>
      </trkpt>
      <trkpt lat="37.06529167" lon="-3.370805">
        <ele>3099.0</ele>
        <time>2022-11-20T10:57:27.000Z</time>
      </trkpt>
      <trkpt lat="37.06529333" lon="-3.37080333">
        <ele>3099.0</ele>
        <time>2022-11-20T10:57:28.000Z</time>
      </trkpt>
      <trkpt lat="37.06529333" lon="-3.37080333">
        <ele>3099.0</ele>
        <time>2022-11-20T10:57:29.000Z</time>
      </trkpt>
      <trkpt lat="37.06529333" lon="-3.37080333">
        <ele>3099.0</ele>
        <time>2022-11-20T10:57:30.000Z</time>
      </trkpt>
      <trkpt lat="37.06529333" lon="-3.37080333">
        <ele>3099.0</ele>
        <time>2022-11-20T10:57:31.000Z</time>
      </trkpt>
      <trkpt lat="37.06529333" lon="-3.37080333">
        <ele>3099.0</ele>
        <time>2022-11-20T10:57:32.000Z</time>
      </trkpt>
      <trkpt lat="37.06529333" lon="-3.37080333">
        <ele>3099.0</ele>
        <time>2022-11-20T10:57:33.000Z</time>
      </trkpt>
      <trkpt lat="37.06529167" lon="-3.37080333">
        <ele>3099.0</ele>
        <time>2022-11-20T10:57:34.000Z</time>
      </trkpt>
      <trkpt lat="37.06529167" lon="-3.37080333">
        <ele>3099.0</ele>
        <time>2022-11-20T10:57:35.000Z</time>
      </trkpt>
      <trkpt lat="37.06529167" lon="-3.37080333">
        <ele>3099.0</ele>
        <time>2022-11-20T10:57:36.000Z</time>
      </trkpt>
      <trkpt lat="37.06529167" lon="-3.37080167">
        <ele>3099.0</ele>
        <time>2022-11-20T10:57:37.000Z</time>
      </trkpt>
      <trkpt lat="37.06529167" lon="-3.37080167">
        <ele>3099.0</ele>
        <time>2022-11-20T10:57:38.000Z</time>
      </trkpt>
      <trkpt lat="37.06529167" lon="-3.37080167">
        <ele>3099.0</ele>
        <time>2022-11-20T10:57:39.000Z</time>
      </trkpt>
      <trkpt lat="37.06529167" lon="-3.37080167">
        <ele>3099.0</ele>
        <time>2022-11-20T10:57:40.000Z</time>
      </trkpt>
      <trkpt lat="37.06529167" lon="-3.37080167">
        <ele>3099.0</ele>
        <time>2022-11-20T10:57:41.000Z</time>
      </trkpt>
      <trkpt lat="37.06529167" lon="-3.37080167">
        <ele>3099.0</ele>
        <time>2022-11-20T10:57:42.000Z</time>
      </trkpt>
      <trkpt lat="37.06529167" lon="-3.37080167">
        <ele>3099.0</ele>
        <time>2022-11-20T10:57:43.000Z</time>
      </trkpt>
      <trkpt lat="37.06529167" lon="-3.37080167">
        <ele>3099.0</ele>
        <time>2022-11-20T10:57:44.000Z</time>
      </trkpt>
      <trkpt lat="37.06529167" lon="-3.37080167">
        <ele>3099.0</ele>
        <time>2022-11-20T10:57:45.000Z</time>
      </trkpt>
      <trkpt lat="37.06529167" lon="-3.37080167">
        <ele>3099.0</ele>
        <time>2022-11-20T10:57:46.000Z</time>
      </trkpt>
      <trkpt lat="37.06529167" lon="-3.37080167">
        <ele>3099.0</ele>
        <time>2022-11-20T10:57:47.000Z</time>
      </trkpt>
      <trkpt lat="37.06529167" lon="-3.37080167">
        <ele>3099.0</ele>
        <time>2022-11-20T10:57:48.000Z</time>
      </trkpt>
      <trkpt lat="37.06529167" lon="-3.37080167">
        <ele>3099.0</ele>
        <time>2022-11-20T10:57:49.000Z</time>
      </trkpt>
      <trkpt lat="37.06529167" lon="-3.37080167">
        <ele>3099.0</ele>
        <time>2022-11-20T10:57:50.000Z</time>
      </trkpt>
      <trkpt lat="37.06529167" lon="-3.37080333">
        <ele>3099.0</ele>
        <time>2022-11-20T10:57:51.000Z</time>
      </trkpt>
      <trkpt lat="37.06529167" lon="-3.37080333">
        <ele>3099.0</ele>
        <time>2022-11-20T10:57:52.000Z</time>
      </trkpt>
      <trkpt lat="37.06529167" lon="-3.37080333">
        <ele>3099.0</ele>
        <time>2022-11-20T10:57:53.000Z</time>
      </trkpt>
      <trkpt lat="37.06529167" lon="-3.37080333">
        <ele>3099.0</ele>
        <time>2022-11-20T10:57:54.000Z</time>
      </trkpt>
      <trkpt lat="37.06529167" lon="-3.37080333">
        <ele>3099.0</ele>
        <time>2022-11-20T10:57:55.000Z</time>
      </trkpt>
      <trkpt lat="37.06529167" lon="-3.37080333">
        <ele>3099.0</ele>
        <time>2022-11-20T10:57:56.000Z</time>
      </trkpt>
      <trkpt lat="37.06529167" lon="-3.37080333">
        <ele>3099.0</ele>
        <time>2022-11-20T10:57:57.000Z</time>
      </trkpt>
      <trkpt lat="37.06529167" lon="-3.37080167">
        <ele>3099.0</ele>
        <time>2022-11-20T10:57:58.000Z</time>
      </trkpt>
      <trkpt lat="37.06529" lon="-3.37080167">
        <ele>3099.0</ele>
        <time>2022-11-20T10:57:59.000Z</time>
      </trkpt>
      <trkpt lat="37.06529167" lon="-3.37080167">
        <ele>3099.0</ele>
        <time>2022-11-20T10:58:00.000Z</time>
      </trkpt>
      <trkpt lat="37.06529167" lon="-3.37080167">
        <ele>3099.0</ele>
        <time>2022-11-20T10:58:01.000Z</time>
      </trkpt>
      <trkpt lat="37.06529167" lon="-3.3708">
        <ele>3099.0</ele>
        <time>2022-11-20T10:58:02.000Z</time>
      </trkpt>
      <trkpt lat="37.06529167" lon="-3.3708">
        <ele>3099.0</ele>
        <time>2022-11-20T10:58:03.000Z</time>
      </trkpt>
      <trkpt lat="37.06529167" lon="-3.3708">
        <ele>3099.0</ele>
        <time>2022-11-20T10:58:04.000Z</time>
      </trkpt>
      <trkpt lat="37.06529167" lon="-3.3708">
        <ele>3099.0</ele>
        <time>2022-11-20T10:58:05.000Z</time>
      </trkpt>
      <trkpt lat="37.06529167" lon="-3.37080167">
        <ele>3099.0</ele>
        <time>2022-11-20T10:58:06.000Z</time>
      </trkpt>
      <trkpt lat="37.06529167" lon="-3.37080167">
        <ele>3099.0</ele>
        <time>2022-11-20T10:58:07.000Z</time>
      </trkpt>
      <trkpt lat="37.06529167" lon="-3.3708">
        <ele>3099.0</ele>
        <time>2022-11-20T10:58:08.000Z</time>
      </trkpt>
      <trkpt lat="37.06529167" lon="-3.37080167">
        <ele>3099.0</ele>
        <time>2022-11-20T10:58:09.000Z</time>
      </trkpt>
      <trkpt lat="37.06529167" lon="-3.37080167">
        <ele>3099.0</ele>
        <time>2022-11-20T10:58:10.000Z</time>
      </trkpt>
      <trkpt lat="37.06529167" lon="-3.37080167">
        <ele>3099.0</ele>
        <time>2022-11-20T10:58:11.000Z</time>
      </trkpt>
      <trkpt lat="37.06529167" lon="-3.37080167">
        <ele>3099.0</ele>
        <time>2022-11-20T10:58:12.000Z</time>
      </trkpt>
      <trkpt lat="37.06529333" lon="-3.37080167">
        <ele>3099.0</ele>
        <time>2022-11-20T10:58:13.000Z</time>
      </trkpt>
      <trkpt lat="37.06529333" lon="-3.37080167">
        <ele>3099.0</ele>
        <time>2022-11-20T10:58:14.000Z</time>
      </trkpt>
      <trkpt lat="37.06529333" lon="-3.37080167">
        <ele>3099.0</ele>
        <time>2022-11-20T10:58:15.000Z</time>
      </trkpt>
      <trkpt lat="37.06529333" lon="-3.37080167">
        <ele>3099.0</ele>
        <time>2022-11-20T10:58:16.000Z</time>
      </trkpt>
      <trkpt lat="37.06529167" lon="-3.37080333">
        <ele>3099.0</ele>
        <time>2022-11-20T10:58:17.000Z</time>
      </trkpt>
      <trkpt lat="37.06529167" lon="-3.37080333">
        <ele>3099.0</ele>
        <time>2022-11-20T10:58:18.000Z</time>
      </trkpt>
      <trkpt lat="37.06529333" lon="-3.37080333">
        <ele>3099.0</ele>
        <time>2022-11-20T10:58:19.000Z</time>
      </trkpt>
      <trkpt lat="37.06529167" lon="-3.37080333">
        <ele>3099.0</ele>
        <time>2022-11-20T10:58:20.000Z</time>
      </trkpt>
      <trkpt lat="37.06529167" lon="-3.370805">
        <ele>3099.0</ele>
        <time>2022-11-20T10:58:21.000Z</time>
      </trkpt>
      <trkpt lat="37.06529333" lon="-3.370805">
        <ele>3099.0</ele>
        <time>2022-11-20T10:58:22.000Z</time>
      </trkpt>
      <trkpt lat="37.06529333" lon="-3.370805">
        <ele>3099.0</ele>
        <time>2022-11-20T10:58:23.000Z</time>
      </trkpt>
      <trkpt lat="37.06529333" lon="-3.370805">
        <ele>3099.0</ele>
        <time>2022-11-20T10:58:24.000Z</time>
      </trkpt>
      <trkpt lat="37.06529333" lon="-3.370805">
        <ele>3099.0</ele>
        <time>2022-11-20T10:58:25.000Z</time>
      </trkpt>
      <trkpt lat="37.06529333" lon="-3.370805">
        <ele>3099.0</ele>
        <time>2022-11-20T10:58:26.000Z</time>
      </trkpt>
      <trkpt lat="37.06529333" lon="-3.37080333">
        <ele>3099.0</ele>
        <time>2022-11-20T10:58:27.000Z</time>
      </trkpt>
      <trkpt lat="37.06529167" lon="-3.37080333">
        <ele>3099.0</ele>
        <time>2022-11-20T10:58:28.000Z</time>
      </trkpt>
      <trkpt lat="37.06529333" lon="-3.37080333">
        <ele>3099.0</ele>
        <time>2022-11-20T10:58:29.000Z</time>
      </trkpt>
      <trkpt lat="37.06529333" lon="-3.37080333">
        <ele>3099.0</ele>
        <time>2022-11-20T10:58:30.000Z</time>
      </trkpt>
      <trkpt lat="37.06529333" lon="-3.37080333">
        <ele>3099.0</ele>
        <time>2022-11-20T10:58:31.000Z</time>
      </trkpt>
      <trkpt lat="37.06529333" lon="-3.37080333">
        <ele>3099.0</ele>
        <time>2022-11-20T10:58:32.000Z</time>
      </trkpt>
      <trkpt lat="37.06529167" lon="-3.37080333">
        <ele>3099.0</ele>
        <time>2022-11-20T10:58:33.000Z</time>
      </trkpt>
      <trkpt lat="37.06529167" lon="-3.37080333">
        <ele>3099.0</ele>
        <time>2022-11-20T10:58:34.000Z</time>
      </trkpt>
      <trkpt lat="37.06529167" lon="-3.37080333">
        <ele>3099.0</ele>
        <time>2022-11-20T10:58:35.000Z</time>
      </trkpt>
      <trkpt lat="37.06529333" lon="-3.37080333">
        <ele>3099.0</ele>
        <time>2022-11-20T10:58:36.000Z</time>
      </trkpt>
      <trkpt lat="37.06529167" lon="-3.37080333">
        <ele>3099.0</ele>
        <time>2022-11-20T10:58:37.000Z</time>
      </trkpt>
      <trkpt lat="37.06528667" lon="-3.37080333">
        <ele>3099.0</ele>
        <time>2022-11-20T10:58:38.000Z</time>
      </trkpt>
      <trkpt lat="37.06528333" lon="-3.37080167">
        <ele>3099.0</ele>
        <time>2022-11-20T10:58:39.000Z</time>
      </trkpt>
      <trkpt lat="37.065285" lon="-3.3708">
        <ele>3099.0</ele>
        <time>2022-11-20T10:58:40.000Z</time>
      </trkpt>
      <trkpt lat="37.065285" lon="-3.3708">
        <ele>3099.0</ele>
        <time>2022-11-20T10:58:41.000Z</time>
      </trkpt>
      <trkpt lat="37.065285" lon="-3.3708">
        <ele>3099.0</ele>
        <time>2022-11-20T10:58:42.000Z</time>
      </trkpt>
      <trkpt lat="37.06528333" lon="-3.3708">
        <ele>3099.0</ele>
        <time>2022-11-20T10:58:43.000Z</time>
      </trkpt>
      <trkpt lat="37.06527833" lon="-3.37080167">
        <ele>3099.0</ele>
        <time>2022-11-20T10:58:44.000Z</time>
      </trkpt>
      <trkpt lat="37.065275" lon="-3.37079833">
        <ele>3099.0</ele>
        <time>2022-11-20T10:58:45.000Z</time>
      </trkpt>
      <trkpt lat="37.06527167" lon="-3.37079667">
        <ele>3099.0</ele>
        <time>2022-11-20T10:58:46.000Z</time>
      </trkpt>
      <trkpt lat="37.06526667" lon="-3.370795">
        <ele>3099.0</ele>
        <time>2022-11-20T10:58:47.000Z</time>
      </trkpt>
      <trkpt lat="37.06525833" lon="-3.37079667">
        <ele>3099.0</ele>
        <time>2022-11-20T10:58:48.000Z</time>
      </trkpt>
      <trkpt lat="37.06525" lon="-3.370795">
        <ele>3099.0</ele>
        <time>2022-11-20T10:58:49.000Z</time>
      </trkpt>
      <trkpt lat="37.06524167" lon="-3.37079167">
        <ele>3100.0</ele>
        <time>2022-11-20T10:58:50.000Z</time>
      </trkpt>
      <trkpt lat="37.065235" lon="-3.37079">
        <ele>3100.0</ele>
        <time>2022-11-20T10:58:51.000Z</time>
      </trkpt>
      <trkpt lat="37.06522667" lon="-3.370785">
        <ele>3100.0</ele>
        <time>2022-11-20T10:58:52.000Z</time>
      </trkpt>
      <trkpt lat="37.06522" lon="-3.37077833">
        <ele>3100.0</ele>
        <time>2022-11-20T10:58:53.000Z</time>
      </trkpt>
      <trkpt lat="37.065215" lon="-3.370775">
        <ele>3100.0</ele>
        <time>2022-11-20T10:58:54.000Z</time>
      </trkpt>
      <trkpt lat="37.06521" lon="-3.37077">
        <ele>3100.0</ele>
        <time>2022-11-20T10:58:55.000Z</time>
      </trkpt>
      <trkpt lat="37.065205" lon="-3.370765">
        <ele>3101.0</ele>
        <time>2022-11-20T10:58:56.000Z</time>
      </trkpt>
      <trkpt lat="37.06520167" lon="-3.37076">
        <ele>3101.0</ele>
        <time>2022-11-20T10:58:57.000Z</time>
      </trkpt>
      <trkpt lat="37.06519833" lon="-3.37075">
        <ele>3101.0</ele>
        <time>2022-11-20T10:58:58.000Z</time>
      </trkpt>
      <trkpt lat="37.06519667" lon="-3.370745">
        <ele>3101.0</ele>
        <time>2022-11-20T10:58:59.000Z</time>
      </trkpt>
      <trkpt lat="37.06519333" lon="-3.37073833">
        <ele>3101.0</ele>
        <time>2022-11-20T10:59:00.000Z</time>
      </trkpt>
      <trkpt lat="37.06518833" lon="-3.37073">
        <ele>3101.0</ele>
        <time>2022-11-20T10:59:01.000Z</time>
      </trkpt>
      <trkpt lat="37.065185" lon="-3.37072333">
        <ele>3102.0</ele>
        <time>2022-11-20T10:59:02.000Z</time>
      </trkpt>
      <trkpt lat="37.06518167" lon="-3.37071667">
        <ele>3102.0</ele>
        <time>2022-11-20T10:59:03.000Z</time>
      </trkpt>
      <trkpt lat="37.06517667" lon="-3.37071">
        <ele>3102.0</ele>
        <time>2022-11-20T10:59:04.000Z</time>
      </trkpt>
      <trkpt lat="37.06517333" lon="-3.37070333">
        <ele>3102.0</ele>
        <time>2022-11-20T10:59:05.000Z</time>
      </trkpt>
      <trkpt lat="37.06516833" lon="-3.37069833">
        <ele>3102.0</ele>
        <time>2022-11-20T10:59:06.000Z</time>
      </trkpt>
      <trkpt lat="37.06516333" lon="-3.37069">
        <ele>3102.0</ele>
        <time>2022-11-20T10:59:07.000Z</time>
      </trkpt>
      <trkpt lat="37.06515833" lon="-3.37068333">
        <ele>3103.0</ele>
        <time>2022-11-20T10:59:08.000Z</time>
      </trkpt>
      <trkpt lat="37.065155" lon="-3.37067833">
        <ele>3103.0</ele>
        <time>2022-11-20T10:59:09.000Z</time>
      </trkpt>
      <trkpt lat="37.06515" lon="-3.37066833">
        <ele>3103.0</ele>
        <time>2022-11-20T10:59:10.000Z</time>
      </trkpt>
      <trkpt lat="37.065145" lon="-3.37066333">
        <ele>3103.0</ele>
        <time>2022-11-20T10:59:11.000Z</time>
      </trkpt>
      <trkpt lat="37.06514" lon="-3.37065667">
        <ele>3103.0</ele>
        <time>2022-11-20T10:59:12.000Z</time>
      </trkpt>
      <trkpt lat="37.065135" lon="-3.37065167">
        <ele>3103.0</ele>
        <time>2022-11-20T10:59:13.000Z</time>
      </trkpt>
      <trkpt lat="37.06512833" lon="-3.37064667">
        <ele>3104.0</ele>
        <time>2022-11-20T10:59:14.000Z</time>
      </trkpt>
      <trkpt lat="37.06512333" lon="-3.37064">
        <ele>3104.0</ele>
        <time>2022-11-20T10:59:15.000Z</time>
      </trkpt>
      <trkpt lat="37.06511833" lon="-3.370635">
        <ele>3104.0</ele>
        <time>2022-11-20T10:59:16.000Z</time>
      </trkpt>
      <trkpt lat="37.06511167" lon="-3.37062833">
        <ele>3104.0</ele>
        <time>2022-11-20T10:59:17.000Z</time>
      </trkpt>
      <trkpt lat="37.06510667" lon="-3.37062333">
        <ele>3104.0</ele>
        <time>2022-11-20T10:59:18.000Z</time>
      </trkpt>
      <trkpt lat="37.065105" lon="-3.37061333">
        <ele>3104.0</ele>
        <time>2022-11-20T10:59:19.000Z</time>
      </trkpt>
      <trkpt lat="37.06510167" lon="-3.37060667">
        <ele>3104.0</ele>
        <time>2022-11-20T10:59:20.000Z</time>
      </trkpt>
      <trkpt lat="37.06509667" lon="-3.37060167">
        <ele>3104.0</ele>
        <time>2022-11-20T10:59:21.000Z</time>
      </trkpt>
      <trkpt lat="37.06509333" lon="-3.370595">
        <ele>3105.0</ele>
        <time>2022-11-20T10:59:22.000Z</time>
      </trkpt>
      <trkpt lat="37.06509" lon="-3.37058667">
        <ele>3105.0</ele>
        <time>2022-11-20T10:59:23.000Z</time>
      </trkpt>
      <trkpt lat="37.06508667" lon="-3.37058">
        <ele>3105.0</ele>
        <time>2022-11-20T10:59:24.000Z</time>
      </trkpt>
      <trkpt lat="37.06508167" lon="-3.37057167">
        <ele>3105.0</ele>
        <time>2022-11-20T10:59:25.000Z</time>
      </trkpt>
      <trkpt lat="37.06508" lon="-3.370565">
        <ele>3105.0</ele>
        <time>2022-11-20T10:59:26.000Z</time>
      </trkpt>
      <trkpt lat="37.06507833" lon="-3.37055667">
        <ele>3105.0</ele>
        <time>2022-11-20T10:59:27.000Z</time>
      </trkpt>
      <trkpt lat="37.065075" lon="-3.37055167">
        <ele>3105.0</ele>
        <time>2022-11-20T10:59:28.000Z</time>
      </trkpt>
      <trkpt lat="37.06507167" lon="-3.37054833">
        <ele>3105.0</ele>
        <time>2022-11-20T10:59:29.000Z</time>
      </trkpt>
      <trkpt lat="37.06507" lon="-3.37054333">
        <ele>3106.0</ele>
        <time>2022-11-20T10:59:30.000Z</time>
      </trkpt>
      <trkpt lat="37.06506833" lon="-3.37053667">
        <ele>3106.0</ele>
        <time>2022-11-20T10:59:31.000Z</time>
      </trkpt>
      <trkpt lat="37.065065" lon="-3.37053">
        <ele>3106.0</ele>
        <time>2022-11-20T10:59:32.000Z</time>
      </trkpt>
      <trkpt lat="37.06506167" lon="-3.37052333">
        <ele>3106.0</ele>
        <time>2022-11-20T10:59:33.000Z</time>
      </trkpt>
      <trkpt lat="37.06505833" lon="-3.37051667">
        <ele>3106.0</ele>
        <time>2022-11-20T10:59:34.000Z</time>
      </trkpt>
      <trkpt lat="37.06505667" lon="-3.37051">
        <ele>3107.0</ele>
        <time>2022-11-20T10:59:35.000Z</time>
      </trkpt>
      <trkpt lat="37.06505167" lon="-3.37050333">
        <ele>3107.0</ele>
        <time>2022-11-20T10:59:36.000Z</time>
      </trkpt>
      <trkpt lat="37.06504833" lon="-3.37049833">
        <ele>3107.0</ele>
        <time>2022-11-20T10:59:37.000Z</time>
      </trkpt>
      <trkpt lat="37.065045" lon="-3.37049167">
        <ele>3107.0</ele>
        <time>2022-11-20T10:59:38.000Z</time>
      </trkpt>
      <trkpt lat="37.06504167" lon="-3.370485">
        <ele>3107.0</ele>
        <time>2022-11-20T10:59:39.000Z</time>
      </trkpt>
      <trkpt lat="37.06503833" lon="-3.37048">
        <ele>3107.0</ele>
        <time>2022-11-20T10:59:40.000Z</time>
      </trkpt>
      <trkpt lat="37.06503667" lon="-3.37047167">
        <ele>3107.0</ele>
        <time>2022-11-20T10:59:41.000Z</time>
      </trkpt>
      <trkpt lat="37.06503333" lon="-3.370465">
        <ele>3108.0</ele>
        <time>2022-11-20T10:59:42.000Z</time>
      </trkpt>
      <trkpt lat="37.06503" lon="-3.37045833">
        <ele>3108.0</ele>
        <time>2022-11-20T10:59:43.000Z</time>
      </trkpt>
      <trkpt lat="37.06502833" lon="-3.37045167">
        <ele>3108.0</ele>
        <time>2022-11-20T10:59:44.000Z</time>
      </trkpt>
      <trkpt lat="37.065025" lon="-3.37044167">
        <ele>3108.0</ele>
        <time>2022-11-20T10:59:45.000Z</time>
      </trkpt>
      <trkpt lat="37.06502333" lon="-3.370435">
        <ele>3108.0</ele>
        <time>2022-11-20T10:59:46.000Z</time>
      </trkpt>
      <trkpt lat="37.06502" lon="-3.37043">
        <ele>3108.0</ele>
        <time>2022-11-20T10:59:47.000Z</time>
      </trkpt>
      <trkpt lat="37.06501667" lon="-3.37042667">
        <ele>3109.0</ele>
        <time>2022-11-20T10:59:48.000Z</time>
      </trkpt>
      <trkpt lat="37.065015" lon="-3.370425">
        <ele>3109.0</ele>
        <time>2022-11-20T10:59:49.000Z</time>
      </trkpt>
      <trkpt lat="37.065015" lon="-3.370425">
        <ele>3109.0</ele>
        <time>2022-11-20T10:59:50.000Z</time>
      </trkpt>
      <trkpt lat="37.065015" lon="-3.370425">
        <ele>3109.0</ele>
        <time>2022-11-20T10:59:51.000Z</time>
      </trkpt>
      <trkpt lat="37.065015" lon="-3.370425">
        <ele>3109.0</ele>
        <time>2022-11-20T10:59:52.000Z</time>
      </trkpt>
      <trkpt lat="37.06501667" lon="-3.370425">
        <ele>3109.0</ele>
        <time>2022-11-20T10:59:53.000Z</time>
      </trkpt>
      <trkpt lat="37.06501667" lon="-3.37042333">
        <ele>3109.0</ele>
        <time>2022-11-20T10:59:54.000Z</time>
      </trkpt>
      <trkpt lat="37.06501667" lon="-3.370425">
        <ele>3109.0</ele>
        <time>2022-11-20T10:59:55.000Z</time>
      </trkpt>
      <trkpt lat="37.06501667" lon="-3.370425">
        <ele>3109.0</ele>
        <time>2022-11-20T10:59:56.000Z</time>
      </trkpt>
      <trkpt lat="37.06501667" lon="-3.370425">
        <ele>3109.0</ele>
        <time>2022-11-20T10:59:57.000Z</time>
      </trkpt>
      <trkpt lat="37.06501667" lon="-3.370425">
        <ele>3109.0</ele>
        <time>2022-11-20T10:59:58.000Z</time>
      </trkpt>
      <trkpt lat="37.065015" lon="-3.37042333">
        <ele>3109.0</ele>
        <time>2022-11-20T10:59:59.000Z</time>
      </trkpt>
      <trkpt lat="37.06501333" lon="-3.37042167">
        <ele>3109.0</ele>
        <time>2022-11-20T11:00:00.000Z</time>
      </trkpt>
      <trkpt lat="37.06500667" lon="-3.37041833">
        <ele>3109.0</ele>
        <time>2022-11-20T11:00:01.000Z</time>
      </trkpt>
      <trkpt lat="37.06500333" lon="-3.37041667">
        <ele>3109.0</ele>
        <time>2022-11-20T11:00:02.000Z</time>
      </trkpt>
      <trkpt lat="37.06500333" lon="-3.37041667">
        <ele>3109.0</ele>
        <time>2022-11-20T11:00:03.000Z</time>
      </trkpt>
      <trkpt lat="37.06500333" lon="-3.370415">
        <ele>3109.0</ele>
        <time>2022-11-20T11:00:04.000Z</time>
      </trkpt>
      <trkpt lat="37.06500333" lon="-3.37041667">
        <ele>3109.0</ele>
        <time>2022-11-20T11:00:05.000Z</time>
      </trkpt>
      <trkpt lat="37.06500333" lon="-3.37041833">
        <ele>3109.0</ele>
        <time>2022-11-20T11:00:06.000Z</time>
      </trkpt>
      <trkpt lat="37.06500333" lon="-3.37042">
        <ele>3109.0</ele>
        <time>2022-11-20T11:00:07.000Z</time>
      </trkpt>
      <trkpt lat="37.06500167" lon="-3.37042167">
        <ele>3109.0</ele>
        <time>2022-11-20T11:00:08.000Z</time>
      </trkpt>
      <trkpt lat="37.06500333" lon="-3.370425">
        <ele>3109.0</ele>
        <time>2022-11-20T11:00:09.000Z</time>
      </trkpt>
      <trkpt lat="37.065005" lon="-3.37042833">
        <ele>3109.0</ele>
        <time>2022-11-20T11:00:10.000Z</time>
      </trkpt>
      <trkpt lat="37.06500167" lon="-3.37043167">
        <ele>3109.0</ele>
        <time>2022-11-20T11:00:11.000Z</time>
      </trkpt>
      <trkpt lat="37.065" lon="-3.370435">
        <ele>3109.0</ele>
        <time>2022-11-20T11:00:12.000Z</time>
      </trkpt>
      <trkpt lat="37.06499833" lon="-3.37043833">
        <ele>3109.0</ele>
        <time>2022-11-20T11:00:13.000Z</time>
      </trkpt>
      <trkpt lat="37.06499667" lon="-3.37043833">
        <ele>3109.0</ele>
        <time>2022-11-20T11:00:14.000Z</time>
      </trkpt>
      <trkpt lat="37.06499833" lon="-3.37043833">
        <ele>3108.0</ele>
        <time>2022-11-20T11:00:15.000Z</time>
      </trkpt>
      <trkpt lat="37.06499833" lon="-3.37043833">
        <ele>3108.0</ele>
        <time>2022-11-20T11:00:16.000Z</time>
      </trkpt>
      <trkpt lat="37.06499833" lon="-3.37043833">
        <ele>3108.0</ele>
        <time>2022-11-20T11:00:17.000Z</time>
      </trkpt>
      <trkpt lat="37.06499833" lon="-3.37043833">
        <ele>3108.0</ele>
        <time>2022-11-20T11:00:18.000Z</time>
      </trkpt>
      <trkpt lat="37.065" lon="-3.37043833">
        <ele>3108.0</ele>
        <time>2022-11-20T11:00:19.000Z</time>
      </trkpt>
      <trkpt lat="37.065" lon="-3.37043833">
        <ele>3108.0</ele>
        <time>2022-11-20T11:00:20.000Z</time>
      </trkpt>
      <trkpt lat="37.065" lon="-3.37043833">
        <ele>3108.0</ele>
        <time>2022-11-20T11:00:21.000Z</time>
      </trkpt>
      <trkpt lat="37.06499833" lon="-3.37043833">
        <ele>3108.0</ele>
        <time>2022-11-20T11:00:22.000Z</time>
      </trkpt>
      <trkpt lat="37.064995" lon="-3.37044">
        <ele>3108.0</ele>
        <time>2022-11-20T11:00:23.000Z</time>
      </trkpt>
      <trkpt lat="37.06498667" lon="-3.37044167">
        <ele>3108.0</ele>
        <time>2022-11-20T11:00:24.000Z</time>
      </trkpt>
      <trkpt lat="37.06497833" lon="-3.370445">
        <ele>3108.0</ele>
        <time>2022-11-20T11:00:25.000Z</time>
      </trkpt>
      <trkpt lat="37.06497" lon="-3.37044833">
        <ele>3108.0</ele>
        <time>2022-11-20T11:00:26.000Z</time>
      </trkpt>
      <trkpt lat="37.06496167" lon="-3.37045167">
        <ele>3108.0</ele>
        <time>2022-11-20T11:00:27.000Z</time>
      </trkpt>
      <trkpt lat="37.06495333" lon="-3.37045333">
        <ele>3108.0</ele>
        <time>2022-11-20T11:00:28.000Z</time>
      </trkpt>
      <trkpt lat="37.06494333" lon="-3.370455">
        <ele>3108.0</ele>
        <time>2022-11-20T11:00:29.000Z</time>
      </trkpt>
      <trkpt lat="37.06493333" lon="-3.37045667">
        <ele>3108.0</ele>
        <time>2022-11-20T11:00:30.000Z</time>
      </trkpt>
      <trkpt lat="37.06492667" lon="-3.37046">
        <ele>3108.0</ele>
        <time>2022-11-20T11:00:31.000Z</time>
      </trkpt>
      <trkpt lat="37.06491833" lon="-3.370465">
        <ele>3108.0</ele>
        <time>2022-11-20T11:00:32.000Z</time>
      </trkpt>
      <trkpt lat="37.06491" lon="-3.37047">
        <ele>3108.0</ele>
        <time>2022-11-20T11:00:33.000Z</time>
      </trkpt>
      <trkpt lat="37.06490167" lon="-3.370475">
        <ele>3108.0</ele>
        <time>2022-11-20T11:00:34.000Z</time>
      </trkpt>
      <trkpt lat="37.06489333" lon="-3.37048">
        <ele>3108.0</ele>
        <time>2022-11-20T11:00:35.000Z</time>
      </trkpt>
      <trkpt lat="37.06488667" lon="-3.370485">
        <ele>3108.0</ele>
        <time>2022-11-20T11:00:36.000Z</time>
      </trkpt>
      <trkpt lat="37.06488" lon="-3.37048833">
        <ele>3108.0</ele>
        <time>2022-11-20T11:00:37.000Z</time>
      </trkpt>
      <trkpt lat="37.064875" lon="-3.37049167">
        <ele>3108.0</ele>
        <time>2022-11-20T11:00:38.000Z</time>
      </trkpt>
      <trkpt lat="37.06487" lon="-3.370495">
        <ele>3108.0</ele>
        <time>2022-11-20T11:00:39.000Z</time>
      </trkpt>
      <trkpt lat="37.06486667" lon="-3.37049667">
        <ele>3108.0</ele>
        <time>2022-11-20T11:00:40.000Z</time>
      </trkpt>
      <trkpt lat="37.06486167" lon="-3.37050167">
        <ele>3108.0</ele>
        <time>2022-11-20T11:00:41.000Z</time>
      </trkpt>
      <trkpt lat="37.064855" lon="-3.370505">
        <ele>3108.0</ele>
        <time>2022-11-20T11:00:42.000Z</time>
      </trkpt>
      <trkpt lat="37.06484833" lon="-3.37050667">
        <ele>3108.0</ele>
        <time>2022-11-20T11:00:43.000Z</time>
      </trkpt>
      <trkpt lat="37.06484333" lon="-3.37050667">
        <ele>3108.0</ele>
        <time>2022-11-20T11:00:44.000Z</time>
      </trkpt>
      <trkpt lat="37.06484333" lon="-3.37050833">
        <ele>3108.0</ele>
        <time>2022-11-20T11:00:45.000Z</time>
      </trkpt>
      <trkpt lat="37.06484333" lon="-3.37050833">
        <ele>3108.0</ele>
        <time>2022-11-20T11:00:46.000Z</time>
      </trkpt>
      <trkpt lat="37.06484333" lon="-3.37050833">
        <ele>3108.0</ele>
        <time>2022-11-20T11:00:47.000Z</time>
      </trkpt>
      <trkpt lat="37.06484333" lon="-3.37050833">
        <ele>3108.0</ele>
        <time>2022-11-20T11:00:48.000Z</time>
      </trkpt>
      <trkpt lat="37.06484333" lon="-3.37050667">
        <ele>3108.0</ele>
        <time>2022-11-20T11:00:49.000Z</time>
      </trkpt>
      <trkpt lat="37.06484333" lon="-3.37050833">
        <ele>3108.0</ele>
        <time>2022-11-20T11:00:50.000Z</time>
      </trkpt>
      <trkpt lat="37.06484333" lon="-3.37050833">
        <ele>3108.0</ele>
        <time>2022-11-20T11:00:51.000Z</time>
      </trkpt>
      <trkpt lat="37.06484333" lon="-3.37050833">
        <ele>3108.0</ele>
        <time>2022-11-20T11:00:52.000Z</time>
      </trkpt>
      <trkpt lat="37.06484333" lon="-3.37050833">
        <ele>3108.0</ele>
        <time>2022-11-20T11:00:53.000Z</time>
      </trkpt>
      <trkpt lat="37.06484333" lon="-3.37050833">
        <ele>3108.0</ele>
        <time>2022-11-20T11:00:54.000Z</time>
      </trkpt>
      <trkpt lat="37.06484333" lon="-3.37050833">
        <ele>3108.0</ele>
        <time>2022-11-20T11:00:55.000Z</time>
      </trkpt>
      <trkpt lat="37.064845" lon="-3.37051">
        <ele>3108.0</ele>
        <time>2022-11-20T11:00:56.000Z</time>
      </trkpt>
      <trkpt lat="37.064845" lon="-3.37051">
        <ele>3108.0</ele>
        <time>2022-11-20T11:00:57.000Z</time>
      </trkpt>
      <trkpt lat="37.064845" lon="-3.37051">
        <ele>3108.0</ele>
        <time>2022-11-20T11:00:58.000Z</time>
      </trkpt>
      <trkpt lat="37.064845" lon="-3.37051">
        <ele>3108.0</ele>
        <time>2022-11-20T11:00:59.000Z</time>
      </trkpt>
      <trkpt lat="37.06484333" lon="-3.37050833">
        <ele>3108.0</ele>
        <time>2022-11-20T11:01:00.000Z</time>
      </trkpt>
      <trkpt lat="37.06484333" lon="-3.37050833">
        <ele>3108.0</ele>
        <time>2022-11-20T11:01:01.000Z</time>
      </trkpt>
      <trkpt lat="37.06484333" lon="-3.37050833">
        <ele>3108.0</ele>
        <time>2022-11-20T11:01:02.000Z</time>
      </trkpt>
      <trkpt lat="37.06484333" lon="-3.37050833">
        <ele>3108.0</ele>
        <time>2022-11-20T11:01:03.000Z</time>
      </trkpt>
      <trkpt lat="37.06484333" lon="-3.37050833">
        <ele>3108.0</ele>
        <time>2022-11-20T11:01:04.000Z</time>
      </trkpt>
      <trkpt lat="37.064845" lon="-3.37050833">
        <ele>3108.0</ele>
        <time>2022-11-20T11:01:05.000Z</time>
      </trkpt>
      <trkpt lat="37.06484667" lon="-3.37050667">
        <ele>3108.0</ele>
        <time>2022-11-20T11:01:06.000Z</time>
      </trkpt>
      <trkpt lat="37.06484667" lon="-3.37050833">
        <ele>3108.0</ele>
        <time>2022-11-20T11:01:07.000Z</time>
      </trkpt>
      <trkpt lat="37.064845" lon="-3.37050833">
        <ele>3108.0</ele>
        <time>2022-11-20T11:01:08.000Z</time>
      </trkpt>
      <trkpt lat="37.064845" lon="-3.37050833">
        <ele>3108.0</ele>
        <time>2022-11-20T11:01:09.000Z</time>
      </trkpt>
      <trkpt lat="37.064845" lon="-3.37050833">
        <ele>3108.0</ele>
        <time>2022-11-20T11:01:10.000Z</time>
      </trkpt>
      <trkpt lat="37.064845" lon="-3.37051">
        <ele>3108.0</ele>
        <time>2022-11-20T11:01:11.000Z</time>
      </trkpt>
      <trkpt lat="37.064845" lon="-3.37051167">
        <ele>3108.0</ele>
        <time>2022-11-20T11:01:12.000Z</time>
      </trkpt>
      <trkpt lat="37.064845" lon="-3.37051167">
        <ele>3108.0</ele>
        <time>2022-11-20T11:01:13.000Z</time>
      </trkpt>
      <trkpt lat="37.064845" lon="-3.37051167">
        <ele>3108.0</ele>
        <time>2022-11-20T11:01:14.000Z</time>
      </trkpt>
      <trkpt lat="37.064845" lon="-3.37051167">
        <ele>3108.0</ele>
        <time>2022-11-20T11:01:15.000Z</time>
      </trkpt>
      <trkpt lat="37.064845" lon="-3.37051167">
        <ele>3108.0</ele>
        <time>2022-11-20T11:01:16.000Z</time>
      </trkpt>
      <trkpt lat="37.064845" lon="-3.37051167">
        <ele>3108.0</ele>
        <time>2022-11-20T11:01:17.000Z</time>
      </trkpt>
      <trkpt lat="37.064845" lon="-3.37051167">
        <ele>3108.0</ele>
        <time>2022-11-20T11:01:18.000Z</time>
      </trkpt>
      <trkpt lat="37.06484667" lon="-3.37051167">
        <ele>3108.0</ele>
        <time>2022-11-20T11:01:19.000Z</time>
      </trkpt>
      <trkpt lat="37.06484667" lon="-3.37051167">
        <ele>3108.0</ele>
        <time>2022-11-20T11:01:20.000Z</time>
      </trkpt>
      <trkpt lat="37.06484667" lon="-3.37051167">
        <ele>3108.0</ele>
        <time>2022-11-20T11:01:21.000Z</time>
      </trkpt>
      <trkpt lat="37.06484667" lon="-3.37051167">
        <ele>3108.0</ele>
        <time>2022-11-20T11:01:22.000Z</time>
      </trkpt>
      <trkpt lat="37.06484667" lon="-3.37051167">
        <ele>3108.0</ele>
        <time>2022-11-20T11:01:23.000Z</time>
      </trkpt>
      <trkpt lat="37.06484667" lon="-3.37051167">
        <ele>3108.0</ele>
        <time>2022-11-20T11:01:24.000Z</time>
      </trkpt>
      <trkpt lat="37.06484667" lon="-3.37051167">
        <ele>3108.0</ele>
        <time>2022-11-20T11:01:25.000Z</time>
      </trkpt>
      <trkpt lat="37.06484667" lon="-3.37051333">
        <ele>3108.0</ele>
        <time>2022-11-20T11:01:26.000Z</time>
      </trkpt>
      <trkpt lat="37.06484667" lon="-3.37051333">
        <ele>3108.0</ele>
        <time>2022-11-20T11:01:27.000Z</time>
      </trkpt>
      <trkpt lat="37.06484667" lon="-3.37051333">
        <ele>3108.0</ele>
        <time>2022-11-20T11:01:28.000Z</time>
      </trkpt>
      <trkpt lat="37.06484167" lon="-3.37051667">
        <ele>3108.0</ele>
        <time>2022-11-20T11:01:29.000Z</time>
      </trkpt>
      <trkpt lat="37.06484333" lon="-3.37051667">
        <ele>3108.0</ele>
        <time>2022-11-20T11:01:30.000Z</time>
      </trkpt>
      <trkpt lat="37.06484333" lon="-3.37051667">
        <ele>3108.0</ele>
        <time>2022-11-20T11:01:31.000Z</time>
      </trkpt>
      <trkpt lat="37.06484333" lon="-3.37051667">
        <ele>3108.0</ele>
        <time>2022-11-20T11:01:32.000Z</time>
      </trkpt>
      <trkpt lat="37.06484333" lon="-3.37051667">
        <ele>3108.0</ele>
        <time>2022-11-20T11:01:33.000Z</time>
      </trkpt>
      <trkpt lat="37.06484333" lon="-3.37051667">
        <ele>3108.0</ele>
        <time>2022-11-20T11:01:34.000Z</time>
      </trkpt>
      <trkpt lat="37.06484333" lon="-3.37051667">
        <ele>3108.0</ele>
        <time>2022-11-20T11:01:35.000Z</time>
      </trkpt>
      <trkpt lat="37.06484333" lon="-3.37051667">
        <ele>3108.0</ele>
        <time>2022-11-20T11:01:36.000Z</time>
      </trkpt>
      <trkpt lat="37.06484333" lon="-3.37051667">
        <ele>3108.0</ele>
        <time>2022-11-20T11:01:37.000Z</time>
      </trkpt>
      <trkpt lat="37.06484333" lon="-3.37051833">
        <ele>3108.0</ele>
        <time>2022-11-20T11:01:38.000Z</time>
      </trkpt>
      <trkpt lat="37.06484333" lon="-3.37051833">
        <ele>3108.0</ele>
        <time>2022-11-20T11:01:39.000Z</time>
      </trkpt>
      <trkpt lat="37.06484333" lon="-3.37051833">
        <ele>3108.0</ele>
        <time>2022-11-20T11:01:40.000Z</time>
      </trkpt>
      <trkpt lat="37.06484333" lon="-3.37051833">
        <ele>3108.0</ele>
        <time>2022-11-20T11:01:41.000Z</time>
      </trkpt>
      <trkpt lat="37.06484333" lon="-3.37051833">
        <ele>3108.0</ele>
        <time>2022-11-20T11:01:42.000Z</time>
      </trkpt>
      <trkpt lat="37.06484333" lon="-3.37051833">
        <ele>3108.0</ele>
        <time>2022-11-20T11:01:43.000Z</time>
      </trkpt>
      <trkpt lat="37.06484333" lon="-3.37051833">
        <ele>3108.0</ele>
        <time>2022-11-20T11:01:44.000Z</time>
      </trkpt>
      <trkpt lat="37.06484333" lon="-3.37051833">
        <ele>3108.0</ele>
        <time>2022-11-20T11:01:45.000Z</time>
      </trkpt>
      <trkpt lat="37.06484333" lon="-3.37051833">
        <ele>3108.0</ele>
        <time>2022-11-20T11:01:46.000Z</time>
      </trkpt>
      <trkpt lat="37.06484333" lon="-3.37051833">
        <ele>3108.0</ele>
        <time>2022-11-20T11:01:47.000Z</time>
      </trkpt>
      <trkpt lat="37.06484333" lon="-3.37051833">
        <ele>3108.0</ele>
        <time>2022-11-20T11:01:48.000Z</time>
      </trkpt>
      <trkpt lat="37.06484333" lon="-3.37051833">
        <ele>3108.0</ele>
        <time>2022-11-20T11:01:49.000Z</time>
      </trkpt>
      <trkpt lat="37.06484333" lon="-3.37051833">
        <ele>3108.0</ele>
        <time>2022-11-20T11:01:50.000Z</time>
      </trkpt>
      <trkpt lat="37.06484333" lon="-3.37051833">
        <ele>3108.0</ele>
        <time>2022-11-20T11:01:51.000Z</time>
      </trkpt>
      <trkpt lat="37.06484333" lon="-3.37051833">
        <ele>3108.0</ele>
        <time>2022-11-20T11:01:52.000Z</time>
      </trkpt>
      <trkpt lat="37.06484333" lon="-3.37051833">
        <ele>3108.0</ele>
        <time>2022-11-20T11:01:53.000Z</time>
      </trkpt>
      <trkpt lat="37.06484333" lon="-3.37051833">
        <ele>3108.0</ele>
        <time>2022-11-20T11:01:54.000Z</time>
      </trkpt>
      <trkpt lat="37.06484167" lon="-3.37051833">
        <ele>3108.0</ele>
        <time>2022-11-20T11:01:55.000Z</time>
      </trkpt>
      <trkpt lat="37.06484167" lon="-3.37051667">
        <ele>3108.0</ele>
        <time>2022-11-20T11:01:56.000Z</time>
      </trkpt>
      <trkpt lat="37.06484167" lon="-3.37051833">
        <ele>3108.0</ele>
        <time>2022-11-20T11:01:57.000Z</time>
      </trkpt>
      <trkpt lat="37.06484333" lon="-3.37051833">
        <ele>3108.0</ele>
        <time>2022-11-20T11:01:58.000Z</time>
      </trkpt>
      <trkpt lat="37.06484167" lon="-3.37051833">
        <ele>3108.0</ele>
        <time>2022-11-20T11:01:59.000Z</time>
      </trkpt>
      <trkpt lat="37.06484167" lon="-3.37051833">
        <ele>3108.0</ele>
        <time>2022-11-20T11:02:00.000Z</time>
      </trkpt>
      <trkpt lat="37.06484167" lon="-3.37051833">
        <ele>3108.0</ele>
        <time>2022-11-20T11:02:01.000Z</time>
      </trkpt>
      <trkpt lat="37.06484167" lon="-3.37051833">
        <ele>3108.0</ele>
        <time>2022-11-20T11:02:02.000Z</time>
      </trkpt>
      <trkpt lat="37.06484167" lon="-3.37051833">
        <ele>3108.0</ele>
        <time>2022-11-20T11:02:03.000Z</time>
      </trkpt>
      <trkpt lat="37.06484167" lon="-3.37051833">
        <ele>3108.0</ele>
        <time>2022-11-20T11:02:04.000Z</time>
      </trkpt>
      <trkpt lat="37.06484" lon="-3.37052">
        <ele>3108.0</ele>
        <time>2022-11-20T11:02:05.000Z</time>
      </trkpt>
      <trkpt lat="37.06484" lon="-3.37052">
        <ele>3108.0</ele>
        <time>2022-11-20T11:02:06.000Z</time>
      </trkpt>
      <trkpt lat="37.06484" lon="-3.37052">
        <ele>3108.0</ele>
        <time>2022-11-20T11:02:07.000Z</time>
      </trkpt>
      <trkpt lat="37.06484" lon="-3.37052">
        <ele>3108.0</ele>
        <time>2022-11-20T11:02:08.000Z</time>
      </trkpt>
      <trkpt lat="37.06484" lon="-3.37052">
        <ele>3108.0</ele>
        <time>2022-11-20T11:02:09.000Z</time>
      </trkpt>
      <trkpt lat="37.06484" lon="-3.37052">
        <ele>3108.0</ele>
        <time>2022-11-20T11:02:10.000Z</time>
      </trkpt>
      <trkpt lat="37.06484" lon="-3.37052">
        <ele>3108.0</ele>
        <time>2022-11-20T11:02:11.000Z</time>
      </trkpt>
      <trkpt lat="37.06484" lon="-3.37052">
        <ele>3108.0</ele>
        <time>2022-11-20T11:02:12.000Z</time>
      </trkpt>
      <trkpt lat="37.06484167" lon="-3.37052">
        <ele>3108.0</ele>
        <time>2022-11-20T11:02:13.000Z</time>
      </trkpt>
      <trkpt lat="37.06484167" lon="-3.37052">
        <ele>3108.0</ele>
        <time>2022-11-20T11:02:14.000Z</time>
      </trkpt>
      <trkpt lat="37.06484167" lon="-3.37052">
        <ele>3108.0</ele>
        <time>2022-11-20T11:02:15.000Z</time>
      </trkpt>
      <trkpt lat="37.06484" lon="-3.37051833">
        <ele>3108.0</ele>
        <time>2022-11-20T11:02:16.000Z</time>
      </trkpt>
      <trkpt lat="37.06484" lon="-3.37051833">
        <ele>3108.0</ele>
        <time>2022-11-20T11:02:17.000Z</time>
      </trkpt>
      <trkpt lat="37.06484" lon="-3.37051833">
        <ele>3108.0</ele>
        <time>2022-11-20T11:02:18.000Z</time>
      </trkpt>
      <trkpt lat="37.06484167" lon="-3.37052">
        <ele>3108.0</ele>
        <time>2022-11-20T11:02:19.000Z</time>
      </trkpt>
      <trkpt lat="37.06484167" lon="-3.37052">
        <ele>3108.0</ele>
        <time>2022-11-20T11:02:20.000Z</time>
      </trkpt>
      <trkpt lat="37.06484167" lon="-3.37052">
        <ele>3108.0</ele>
        <time>2022-11-20T11:02:21.000Z</time>
      </trkpt>
      <trkpt lat="37.06484167" lon="-3.37052">
        <ele>3108.0</ele>
        <time>2022-11-20T11:02:22.000Z</time>
      </trkpt>
      <trkpt lat="37.06484167" lon="-3.37052">
        <ele>3108.0</ele>
        <time>2022-11-20T11:02:23.000Z</time>
      </trkpt>
      <trkpt lat="37.06484167" lon="-3.37052">
        <ele>3108.0</ele>
        <time>2022-11-20T11:02:24.000Z</time>
      </trkpt>
      <trkpt lat="37.06484167" lon="-3.37052">
        <ele>3108.0</ele>
        <time>2022-11-20T11:02:25.000Z</time>
      </trkpt>
      <trkpt lat="37.06484167" lon="-3.37052">
        <ele>3108.0</ele>
        <time>2022-11-20T11:02:26.000Z</time>
      </trkpt>
      <trkpt lat="37.06484167" lon="-3.37052">
        <ele>3108.0</ele>
        <time>2022-11-20T11:02:27.000Z</time>
      </trkpt>
      <trkpt lat="37.06484167" lon="-3.37052">
        <ele>3108.0</ele>
        <time>2022-11-20T11:02:28.000Z</time>
      </trkpt>
      <trkpt lat="37.06484167" lon="-3.37052">
        <ele>3108.0</ele>
        <time>2022-11-20T11:02:29.000Z</time>
      </trkpt>
      <trkpt lat="37.06484167" lon="-3.37052">
        <ele>3108.0</ele>
        <time>2022-11-20T11:02:30.000Z</time>
      </trkpt>
      <trkpt lat="37.06484167" lon="-3.37052">
        <ele>3108.0</ele>
        <time>2022-11-20T11:02:31.000Z</time>
      </trkpt>
      <trkpt lat="37.06484167" lon="-3.37052">
        <ele>3108.0</ele>
        <time>2022-11-20T11:02:32.000Z</time>
      </trkpt>
      <trkpt lat="37.06484167" lon="-3.37052">
        <ele>3108.0</ele>
        <time>2022-11-20T11:02:33.000Z</time>
      </trkpt>
      <trkpt lat="37.06484167" lon="-3.37052">
        <ele>3108.0</ele>
        <time>2022-11-20T11:02:34.000Z</time>
      </trkpt>
      <trkpt lat="37.06484167" lon="-3.37052">
        <ele>3108.0</ele>
        <time>2022-11-20T11:02:35.000Z</time>
      </trkpt>
      <trkpt lat="37.06484167" lon="-3.37052">
        <ele>3108.0</ele>
        <time>2022-11-20T11:02:36.000Z</time>
      </trkpt>
      <trkpt lat="37.06484167" lon="-3.37052">
        <ele>3108.0</ele>
        <time>2022-11-20T11:02:37.000Z</time>
      </trkpt>
      <trkpt lat="37.06484167" lon="-3.37052">
        <ele>3108.0</ele>
        <time>2022-11-20T11:02:38.000Z</time>
      </trkpt>
      <trkpt lat="37.06484167" lon="-3.37051833">
        <ele>3108.0</ele>
        <time>2022-11-20T11:02:39.000Z</time>
      </trkpt>
      <trkpt lat="37.06484167" lon="-3.37051833">
        <ele>3108.0</ele>
        <time>2022-11-20T11:02:40.000Z</time>
      </trkpt>
      <trkpt lat="37.06484167" lon="-3.37051833">
        <ele>3108.0</ele>
        <time>2022-11-20T11:02:41.000Z</time>
      </trkpt>
      <trkpt lat="37.06484167" lon="-3.37051833">
        <ele>3108.0</ele>
        <time>2022-11-20T11:02:42.000Z</time>
      </trkpt>
      <trkpt lat="37.06484167" lon="-3.37051833">
        <ele>3108.0</ele>
        <time>2022-11-20T11:02:43.000Z</time>
      </trkpt>
      <trkpt lat="37.06484167" lon="-3.37052">
        <ele>3108.0</ele>
        <time>2022-11-20T11:02:44.000Z</time>
      </trkpt>
      <trkpt lat="37.06484167" lon="-3.37052">
        <ele>3108.0</ele>
        <time>2022-11-20T11:02:45.000Z</time>
      </trkpt>
      <trkpt lat="37.06484167" lon="-3.37052">
        <ele>3108.0</ele>
        <time>2022-11-20T11:02:46.000Z</time>
      </trkpt>
      <trkpt lat="37.06484167" lon="-3.37052">
        <ele>3108.0</ele>
        <time>2022-11-20T11:02:47.000Z</time>
      </trkpt>
      <trkpt lat="37.06484167" lon="-3.37052">
        <ele>3108.0</ele>
        <time>2022-11-20T11:02:48.000Z</time>
      </trkpt>
      <trkpt lat="37.06484167" lon="-3.37052">
        <ele>3108.0</ele>
        <time>2022-11-20T11:02:49.000Z</time>
      </trkpt>
      <trkpt lat="37.06484167" lon="-3.37052">
        <ele>3108.0</ele>
        <time>2022-11-20T11:02:50.000Z</time>
      </trkpt>
      <trkpt lat="37.06484167" lon="-3.37052">
        <ele>3108.0</ele>
        <time>2022-11-20T11:02:51.000Z</time>
      </trkpt>
      <trkpt lat="37.06484167" lon="-3.37052">
        <ele>3108.0</ele>
        <time>2022-11-20T11:02:52.000Z</time>
      </trkpt>
      <trkpt lat="37.06484167" lon="-3.37052">
        <ele>3108.0</ele>
        <time>2022-11-20T11:02:53.000Z</time>
      </trkpt>
      <trkpt lat="37.06484167" lon="-3.37052">
        <ele>3108.0</ele>
        <time>2022-11-20T11:02:54.000Z</time>
      </trkpt>
      <trkpt lat="37.06484167" lon="-3.37052">
        <ele>3108.0</ele>
        <time>2022-11-20T11:02:55.000Z</time>
      </trkpt>
      <trkpt lat="37.06484167" lon="-3.37052">
        <ele>3108.0</ele>
        <time>2022-11-20T11:02:56.000Z</time>
      </trkpt>
      <trkpt lat="37.06484167" lon="-3.37052">
        <ele>3108.0</ele>
        <time>2022-11-20T11:02:57.000Z</time>
      </trkpt>
      <trkpt lat="37.06484333" lon="-3.37052">
        <ele>3108.0</ele>
        <time>2022-11-20T11:02:58.000Z</time>
      </trkpt>
      <trkpt lat="37.06484333" lon="-3.37052">
        <ele>3108.0</ele>
        <time>2022-11-20T11:02:59.000Z</time>
      </trkpt>
      <trkpt lat="37.06484333" lon="-3.37052">
        <ele>3108.0</ele>
        <time>2022-11-20T11:03:00.000Z</time>
      </trkpt>
      <trkpt lat="37.06484333" lon="-3.37052">
        <ele>3108.0</ele>
        <time>2022-11-20T11:03:01.000Z</time>
      </trkpt>
      <trkpt lat="37.06484333" lon="-3.37052">
        <ele>3108.0</ele>
        <time>2022-11-20T11:03:02.000Z</time>
      </trkpt>
      <trkpt lat="37.06484333" lon="-3.37052">
        <ele>3108.0</ele>
        <time>2022-11-20T11:03:03.000Z</time>
      </trkpt>
      <trkpt lat="37.06484333" lon="-3.37052">
        <ele>3108.0</ele>
        <time>2022-11-20T11:03:04.000Z</time>
      </trkpt>
      <trkpt lat="37.06484333" lon="-3.37052167">
        <ele>3108.0</ele>
        <time>2022-11-20T11:03:05.000Z</time>
      </trkpt>
      <trkpt lat="37.06484333" lon="-3.37052167">
        <ele>3108.0</ele>
        <time>2022-11-20T11:03:06.000Z</time>
      </trkpt>
      <trkpt lat="37.06484333" lon="-3.37052167">
        <ele>3108.0</ele>
        <time>2022-11-20T11:03:07.000Z</time>
      </trkpt>
      <trkpt lat="37.06484333" lon="-3.37052167">
        <ele>3108.0</ele>
        <time>2022-11-20T11:03:08.000Z</time>
      </trkpt>
      <trkpt lat="37.06484333" lon="-3.37052167">
        <ele>3108.0</ele>
        <time>2022-11-20T11:03:09.000Z</time>
      </trkpt>
      <trkpt lat="37.06484333" lon="-3.37052167">
        <ele>3108.0</ele>
        <time>2022-11-20T11:03:10.000Z</time>
      </trkpt>
      <trkpt lat="37.06484333" lon="-3.37052167">
        <ele>3108.0</ele>
        <time>2022-11-20T11:03:11.000Z</time>
      </trkpt>
      <trkpt lat="37.06484333" lon="-3.37052167">
        <ele>3108.0</ele>
        <time>2022-11-20T11:03:12.000Z</time>
      </trkpt>
      <trkpt lat="37.06484333" lon="-3.37052167">
        <ele>3108.0</ele>
        <time>2022-11-20T11:03:13.000Z</time>
      </trkpt>
      <trkpt lat="37.06484333" lon="-3.37052167">
        <ele>3108.0</ele>
        <time>2022-11-20T11:03:14.000Z</time>
      </trkpt>
      <trkpt lat="37.06484167" lon="-3.37052167">
        <ele>3108.0</ele>
        <time>2022-11-20T11:03:15.000Z</time>
      </trkpt>
      <trkpt lat="37.06484333" lon="-3.37052167">
        <ele>3108.0</ele>
        <time>2022-11-20T11:03:16.000Z</time>
      </trkpt>
      <trkpt lat="37.06484333" lon="-3.37052167">
        <ele>3108.0</ele>
        <time>2022-11-20T11:03:17.000Z</time>
      </trkpt>
      <trkpt lat="37.06484333" lon="-3.37052167">
        <ele>3108.0</ele>
        <time>2022-11-20T11:03:18.000Z</time>
      </trkpt>
      <trkpt lat="37.06484167" lon="-3.37052">
        <ele>3108.0</ele>
        <time>2022-11-20T11:03:19.000Z</time>
      </trkpt>
      <trkpt lat="37.06484167" lon="-3.37052">
        <ele>3108.0</ele>
        <time>2022-11-20T11:03:20.000Z</time>
      </trkpt>
      <trkpt lat="37.06484167" lon="-3.37052">
        <ele>3108.0</ele>
        <time>2022-11-20T11:03:21.000Z</time>
      </trkpt>
      <trkpt lat="37.06484167" lon="-3.37052">
        <ele>3108.0</ele>
        <time>2022-11-20T11:03:22.000Z</time>
      </trkpt>
      <trkpt lat="37.06484167" lon="-3.37052">
        <ele>3108.0</ele>
        <time>2022-11-20T11:03:23.000Z</time>
      </trkpt>
      <trkpt lat="37.06484167" lon="-3.37052">
        <ele>3108.0</ele>
        <time>2022-11-20T11:03:24.000Z</time>
      </trkpt>
      <trkpt lat="37.06484167" lon="-3.37052">
        <ele>3108.0</ele>
        <time>2022-11-20T11:03:25.000Z</time>
      </trkpt>
      <trkpt lat="37.06484167" lon="-3.37052">
        <ele>3108.0</ele>
        <time>2022-11-20T11:03:26.000Z</time>
      </trkpt>
      <trkpt lat="37.06484167" lon="-3.37052">
        <ele>3108.0</ele>
        <time>2022-11-20T11:03:27.000Z</time>
      </trkpt>
      <trkpt lat="37.06484167" lon="-3.37052">
        <ele>3108.0</ele>
        <time>2022-11-20T11:03:28.000Z</time>
      </trkpt>
      <trkpt lat="37.06484167" lon="-3.37052">
        <ele>3108.0</ele>
        <time>2022-11-20T11:03:29.000Z</time>
      </trkpt>
      <trkpt lat="37.06484167" lon="-3.37052">
        <ele>3108.0</ele>
        <time>2022-11-20T11:03:30.000Z</time>
      </trkpt>
      <trkpt lat="37.06484333" lon="-3.37052">
        <ele>3108.0</ele>
        <time>2022-11-20T11:03:31.000Z</time>
      </trkpt>
      <trkpt lat="37.06484333" lon="-3.37052">
        <ele>3108.0</ele>
        <time>2022-11-20T11:03:32.000Z</time>
      </trkpt>
      <trkpt lat="37.06484333" lon="-3.37052">
        <ele>3108.0</ele>
        <time>2022-11-20T11:03:33.000Z</time>
      </trkpt>
      <trkpt lat="37.06484333" lon="-3.37052">
        <ele>3108.0</ele>
        <time>2022-11-20T11:03:34.000Z</time>
      </trkpt>
      <trkpt lat="37.06484333" lon="-3.37051833">
        <ele>3108.0</ele>
        <time>2022-11-20T11:03:35.000Z</time>
      </trkpt>
      <trkpt lat="37.06484333" lon="-3.37051833">
        <ele>3108.0</ele>
        <time>2022-11-20T11:03:36.000Z</time>
      </trkpt>
      <trkpt lat="37.06484333" lon="-3.37051833">
        <ele>3108.0</ele>
        <time>2022-11-20T11:03:37.000Z</time>
      </trkpt>
      <trkpt lat="37.06484333" lon="-3.37051833">
        <ele>3108.0</ele>
        <time>2022-11-20T11:03:38.000Z</time>
      </trkpt>
      <trkpt lat="37.06484333" lon="-3.37051833">
        <ele>3108.0</ele>
        <time>2022-11-20T11:03:39.000Z</time>
      </trkpt>
      <trkpt lat="37.06484333" lon="-3.37051833">
        <ele>3108.0</ele>
        <time>2022-11-20T11:03:40.000Z</time>
      </trkpt>
      <trkpt lat="37.06484333" lon="-3.37051833">
        <ele>3108.0</ele>
        <time>2022-11-20T11:03:41.000Z</time>
      </trkpt>
      <trkpt lat="37.06484333" lon="-3.37052">
        <ele>3108.0</ele>
        <time>2022-11-20T11:03:42.000Z</time>
      </trkpt>
      <trkpt lat="37.06484333" lon="-3.37052">
        <ele>3108.0</ele>
        <time>2022-11-20T11:03:43.000Z</time>
      </trkpt>
      <trkpt lat="37.06484333" lon="-3.37052">
        <ele>3108.0</ele>
        <time>2022-11-20T11:03:44.000Z</time>
      </trkpt>
      <trkpt lat="37.06484333" lon="-3.37052">
        <ele>3108.0</ele>
        <time>2022-11-20T11:03:45.000Z</time>
      </trkpt>
      <trkpt lat="37.06484333" lon="-3.37052">
        <ele>3108.0</ele>
        <time>2022-11-20T11:03:46.000Z</time>
      </trkpt>
      <trkpt lat="37.06484333" lon="-3.37052">
        <ele>3108.0</ele>
        <time>2022-11-20T11:03:47.000Z</time>
      </trkpt>
      <trkpt lat="37.06484333" lon="-3.37052">
        <ele>3108.0</ele>
        <time>2022-11-20T11:03:48.000Z</time>
      </trkpt>
      <trkpt lat="37.06484167" lon="-3.37052">
        <ele>3108.0</ele>
        <time>2022-11-20T11:03:49.000Z</time>
      </trkpt>
      <trkpt lat="37.06484" lon="-3.37052167">
        <ele>3108.0</ele>
        <time>2022-11-20T11:03:50.000Z</time>
      </trkpt>
      <trkpt lat="37.06484167" lon="-3.37052">
        <ele>3108.0</ele>
        <time>2022-11-20T11:03:51.000Z</time>
      </trkpt>
      <trkpt lat="37.06484167" lon="-3.37051833">
        <ele>3108.0</ele>
        <time>2022-11-20T11:03:52.000Z</time>
      </trkpt>
      <trkpt lat="37.06484167" lon="-3.37051833">
        <ele>3108.0</ele>
        <time>2022-11-20T11:03:53.000Z</time>
      </trkpt>
      <trkpt lat="37.06484167" lon="-3.37052">
        <ele>3108.0</ele>
        <time>2022-11-20T11:03:54.000Z</time>
      </trkpt>
      <trkpt lat="37.06484167" lon="-3.37052">
        <ele>3108.0</ele>
        <time>2022-11-20T11:03:55.000Z</time>
      </trkpt>
      <trkpt lat="37.06484167" lon="-3.37052">
        <ele>3108.0</ele>
        <time>2022-11-20T11:03:56.000Z</time>
      </trkpt>
      <trkpt lat="37.06484167" lon="-3.37052">
        <ele>3108.0</ele>
        <time>2022-11-20T11:03:57.000Z</time>
      </trkpt>
      <trkpt lat="37.06484" lon="-3.37051833">
        <ele>3108.0</ele>
        <time>2022-11-20T11:03:58.000Z</time>
      </trkpt>
      <trkpt lat="37.06484" lon="-3.37051667">
        <ele>3108.0</ele>
        <time>2022-11-20T11:03:59.000Z</time>
      </trkpt>
      <trkpt lat="37.06484" lon="-3.37051667">
        <ele>3108.0</ele>
        <time>2022-11-20T11:04:00.000Z</time>
      </trkpt>
      <trkpt lat="37.06484" lon="-3.37051833">
        <ele>3108.0</ele>
        <time>2022-11-20T11:04:01.000Z</time>
      </trkpt>
      <trkpt lat="37.06484" lon="-3.37051833">
        <ele>3108.0</ele>
        <time>2022-11-20T11:04:02.000Z</time>
      </trkpt>
      <trkpt lat="37.06484" lon="-3.37051833">
        <ele>3108.0</ele>
        <time>2022-11-20T11:04:03.000Z</time>
      </trkpt>
      <trkpt lat="37.06484" lon="-3.37051833">
        <ele>3108.0</ele>
        <time>2022-11-20T11:04:04.000Z</time>
      </trkpt>
      <trkpt lat="37.06484" lon="-3.37051833">
        <ele>3108.0</ele>
        <time>2022-11-20T11:04:05.000Z</time>
      </trkpt>
      <trkpt lat="37.06484" lon="-3.37052167">
        <ele>3108.0</ele>
        <time>2022-11-20T11:04:06.000Z</time>
      </trkpt>
      <trkpt lat="37.06484" lon="-3.37051833">
        <ele>3108.0</ele>
        <time>2022-11-20T11:04:07.000Z</time>
      </trkpt>
      <trkpt lat="37.06483833" lon="-3.37051667">
        <ele>3108.0</ele>
        <time>2022-11-20T11:04:08.000Z</time>
      </trkpt>
      <trkpt lat="37.06483833" lon="-3.37051667">
        <ele>3108.0</ele>
        <time>2022-11-20T11:04:09.000Z</time>
      </trkpt>
      <trkpt lat="37.06483833" lon="-3.37051667">
        <ele>3108.0</ele>
        <time>2022-11-20T11:04:10.000Z</time>
      </trkpt>
      <trkpt lat="37.06483833" lon="-3.37051667">
        <ele>3108.0</ele>
        <time>2022-11-20T11:04:11.000Z</time>
      </trkpt>
      <trkpt lat="37.06483833" lon="-3.37051667">
        <ele>3108.0</ele>
        <time>2022-11-20T11:04:12.000Z</time>
      </trkpt>
      <trkpt lat="37.06484" lon="-3.37051667">
        <ele>3108.0</ele>
        <time>2022-11-20T11:04:13.000Z</time>
      </trkpt>
      <trkpt lat="37.06484" lon="-3.37051667">
        <ele>3108.0</ele>
        <time>2022-11-20T11:04:14.000Z</time>
      </trkpt>
      <trkpt lat="37.06484" lon="-3.37051667">
        <ele>3108.0</ele>
        <time>2022-11-20T11:04:15.000Z</time>
      </trkpt>
      <trkpt lat="37.06484167" lon="-3.370515">
        <ele>3108.0</ele>
        <time>2022-11-20T11:04:16.000Z</time>
      </trkpt>
      <trkpt lat="37.06484167" lon="-3.370515">
        <ele>3108.0</ele>
        <time>2022-11-20T11:04:17.000Z</time>
      </trkpt>
      <trkpt lat="37.06484167" lon="-3.370515">
        <ele>3108.0</ele>
        <time>2022-11-20T11:04:18.000Z</time>
      </trkpt>
      <trkpt lat="37.06484167" lon="-3.37051667">
        <ele>3108.0</ele>
        <time>2022-11-20T11:04:19.000Z</time>
      </trkpt>
      <trkpt lat="37.06484" lon="-3.37051833">
        <ele>3108.0</ele>
        <time>2022-11-20T11:04:20.000Z</time>
      </trkpt>
      <trkpt lat="37.06484" lon="-3.37051833">
        <ele>3108.0</ele>
        <time>2022-11-20T11:04:21.000Z</time>
      </trkpt>
      <trkpt lat="37.06484167" lon="-3.37051833">
        <ele>3108.0</ele>
        <time>2022-11-20T11:04:22.000Z</time>
      </trkpt>
      <trkpt lat="37.06484167" lon="-3.37051833">
        <ele>3108.0</ele>
        <time>2022-11-20T11:04:23.000Z</time>
      </trkpt>
      <trkpt lat="37.06484167" lon="-3.37051833">
        <ele>3108.0</ele>
        <time>2022-11-20T11:04:24.000Z</time>
      </trkpt>
      <trkpt lat="37.06484167" lon="-3.37051833">
        <ele>3108.0</ele>
        <time>2022-11-20T11:04:25.000Z</time>
      </trkpt>
      <trkpt lat="37.06484167" lon="-3.37051833">
        <ele>3108.0</ele>
        <time>2022-11-20T11:04:26.000Z</time>
      </trkpt>
      <trkpt lat="37.06484167" lon="-3.37051833">
        <ele>3108.0</ele>
        <time>2022-11-20T11:04:27.000Z</time>
      </trkpt>
      <trkpt lat="37.06484167" lon="-3.37051833">
        <ele>3108.0</ele>
        <time>2022-11-20T11:04:28.000Z</time>
      </trkpt>
      <trkpt lat="37.06484167" lon="-3.37051833">
        <ele>3108.0</ele>
        <time>2022-11-20T11:04:29.000Z</time>
      </trkpt>
      <trkpt lat="37.06484167" lon="-3.37051833">
        <ele>3108.0</ele>
        <time>2022-11-20T11:04:30.000Z</time>
      </trkpt>
      <trkpt lat="37.06484167" lon="-3.37051833">
        <ele>3108.0</ele>
        <time>2022-11-20T11:04:31.000Z</time>
      </trkpt>
      <trkpt lat="37.06484167" lon="-3.37051833">
        <ele>3108.0</ele>
        <time>2022-11-20T11:04:32.000Z</time>
      </trkpt>
      <trkpt lat="37.06484167" lon="-3.37051833">
        <ele>3108.0</ele>
        <time>2022-11-20T11:04:33.000Z</time>
      </trkpt>
      <trkpt lat="37.06484167" lon="-3.37051833">
        <ele>3108.0</ele>
        <time>2022-11-20T11:04:34.000Z</time>
      </trkpt>
      <trkpt lat="37.06484167" lon="-3.37051833">
        <ele>3108.0</ele>
        <time>2022-11-20T11:04:35.000Z</time>
      </trkpt>
      <trkpt lat="37.06484167" lon="-3.37051833">
        <ele>3108.0</ele>
        <time>2022-11-20T11:04:36.000Z</time>
      </trkpt>
      <trkpt lat="37.06484167" lon="-3.37051833">
        <ele>3108.0</ele>
        <time>2022-11-20T11:04:37.000Z</time>
      </trkpt>
      <trkpt lat="37.06484167" lon="-3.37051833">
        <ele>3108.0</ele>
        <time>2022-11-20T11:04:38.000Z</time>
      </trkpt>
      <trkpt lat="37.06484333" lon="-3.37051833">
        <ele>3108.0</ele>
        <time>2022-11-20T11:04:39.000Z</time>
      </trkpt>
      <trkpt lat="37.06484333" lon="-3.37051833">
        <ele>3108.0</ele>
        <time>2022-11-20T11:04:40.000Z</time>
      </trkpt>
      <trkpt lat="37.06484333" lon="-3.37051833">
        <ele>3108.0</ele>
        <time>2022-11-20T11:04:41.000Z</time>
      </trkpt>
      <trkpt lat="37.06484333" lon="-3.37051833">
        <ele>3108.0</ele>
        <time>2022-11-20T11:04:42.000Z</time>
      </trkpt>
      <trkpt lat="37.06484333" lon="-3.37051833">
        <ele>3108.0</ele>
        <time>2022-11-20T11:04:43.000Z</time>
      </trkpt>
      <trkpt lat="37.06484333" lon="-3.37051833">
        <ele>3108.0</ele>
        <time>2022-11-20T11:04:44.000Z</time>
      </trkpt>
      <trkpt lat="37.06484333" lon="-3.37051833">
        <ele>3108.0</ele>
        <time>2022-11-20T11:04:45.000Z</time>
      </trkpt>
      <trkpt lat="37.06484333" lon="-3.37051833">
        <ele>3108.0</ele>
        <time>2022-11-20T11:04:46.000Z</time>
      </trkpt>
      <trkpt lat="37.06484333" lon="-3.37051833">
        <ele>3108.0</ele>
        <time>2022-11-20T11:04:47.000Z</time>
      </trkpt>
      <trkpt lat="37.06484333" lon="-3.37051833">
        <ele>3108.0</ele>
        <time>2022-11-20T11:04:48.000Z</time>
      </trkpt>
      <trkpt lat="37.06484333" lon="-3.37051833">
        <ele>3108.0</ele>
        <time>2022-11-20T11:04:49.000Z</time>
      </trkpt>
      <trkpt lat="37.06484333" lon="-3.37051833">
        <ele>3108.0</ele>
        <time>2022-11-20T11:04:50.000Z</time>
      </trkpt>
      <trkpt lat="37.06484333" lon="-3.37051833">
        <ele>3108.0</ele>
        <time>2022-11-20T11:04:51.000Z</time>
      </trkpt>
      <trkpt lat="37.06484333" lon="-3.37051833">
        <ele>3108.0</ele>
        <time>2022-11-20T11:04:52.000Z</time>
      </trkpt>
      <trkpt lat="37.06484333" lon="-3.37051833">
        <ele>3108.0</ele>
        <time>2022-11-20T11:04:53.000Z</time>
      </trkpt>
      <trkpt lat="37.06484333" lon="-3.37051833">
        <ele>3108.0</ele>
        <time>2022-11-20T11:04:54.000Z</time>
      </trkpt>
      <trkpt lat="37.06484333" lon="-3.37051833">
        <ele>3108.0</ele>
        <time>2022-11-20T11:04:55.000Z</time>
      </trkpt>
      <trkpt lat="37.06484333" lon="-3.37051833">
        <ele>3108.0</ele>
        <time>2022-11-20T11:04:56.000Z</time>
      </trkpt>
      <trkpt lat="37.064845" lon="-3.37051833">
        <ele>3108.0</ele>
        <time>2022-11-20T11:04:57.000Z</time>
      </trkpt>
      <trkpt lat="37.064845" lon="-3.37051833">
        <ele>3108.0</ele>
        <time>2022-11-20T11:04:58.000Z</time>
      </trkpt>
      <trkpt lat="37.064845" lon="-3.37051833">
        <ele>3108.0</ele>
        <time>2022-11-20T11:04:59.000Z</time>
      </trkpt>
      <trkpt lat="37.064845" lon="-3.37051833">
        <ele>3108.0</ele>
        <time>2022-11-20T11:05:00.000Z</time>
      </trkpt>
      <trkpt lat="37.064845" lon="-3.37051833">
        <ele>3108.0</ele>
        <time>2022-11-20T11:05:01.000Z</time>
      </trkpt>
      <trkpt lat="37.064845" lon="-3.37051833">
        <ele>3108.0</ele>
        <time>2022-11-20T11:05:02.000Z</time>
      </trkpt>
      <trkpt lat="37.064845" lon="-3.37051833">
        <ele>3108.0</ele>
        <time>2022-11-20T11:05:03.000Z</time>
      </trkpt>
      <trkpt lat="37.064845" lon="-3.37051833">
        <ele>3108.0</ele>
        <time>2022-11-20T11:05:04.000Z</time>
      </trkpt>
      <trkpt lat="37.064845" lon="-3.37051833">
        <ele>3108.0</ele>
        <time>2022-11-20T11:05:05.000Z</time>
      </trkpt>
      <trkpt lat="37.064845" lon="-3.37051833">
        <ele>3108.0</ele>
        <time>2022-11-20T11:05:06.000Z</time>
      </trkpt>
      <trkpt lat="37.064845" lon="-3.37051833">
        <ele>3108.0</ele>
        <time>2022-11-20T11:05:07.000Z</time>
      </trkpt>
      <trkpt lat="37.064845" lon="-3.37051833">
        <ele>3108.0</ele>
        <time>2022-11-20T11:05:08.000Z</time>
      </trkpt>
      <trkpt lat="37.064845" lon="-3.37051833">
        <ele>3108.0</ele>
        <time>2022-11-20T11:05:09.000Z</time>
      </trkpt>
      <trkpt lat="37.064845" lon="-3.37051833">
        <ele>3108.0</ele>
        <time>2022-11-20T11:05:10.000Z</time>
      </trkpt>
      <trkpt lat="37.06484167" lon="-3.37051833">
        <ele>3108.0</ele>
        <time>2022-11-20T11:05:11.000Z</time>
      </trkpt>
      <trkpt lat="37.06484" lon="-3.37051667">
        <ele>3108.0</ele>
        <time>2022-11-20T11:05:12.000Z</time>
      </trkpt>
      <trkpt lat="37.06484" lon="-3.37051833">
        <ele>3108.0</ele>
        <time>2022-11-20T11:05:13.000Z</time>
      </trkpt>
      <trkpt lat="37.06483833" lon="-3.37051833">
        <ele>3108.0</ele>
        <time>2022-11-20T11:05:14.000Z</time>
      </trkpt>
      <trkpt lat="37.06483833" lon="-3.37051833">
        <ele>3108.0</ele>
        <time>2022-11-20T11:05:15.000Z</time>
      </trkpt>
      <trkpt lat="37.06484" lon="-3.37051833">
        <ele>3108.0</ele>
        <time>2022-11-20T11:05:16.000Z</time>
      </trkpt>
      <trkpt lat="37.06484" lon="-3.37052">
        <ele>3108.0</ele>
        <time>2022-11-20T11:05:17.000Z</time>
      </trkpt>
      <trkpt lat="37.06484" lon="-3.37052">
        <ele>3108.0</ele>
        <time>2022-11-20T11:05:18.000Z</time>
      </trkpt>
      <trkpt lat="37.06484" lon="-3.37051833">
        <ele>3108.0</ele>
        <time>2022-11-20T11:05:19.000Z</time>
      </trkpt>
      <trkpt lat="37.06484" lon="-3.37051833">
        <ele>3108.0</ele>
        <time>2022-11-20T11:05:20.000Z</time>
      </trkpt>
      <trkpt lat="37.06484" lon="-3.37051833">
        <ele>3108.0</ele>
        <time>2022-11-20T11:05:21.000Z</time>
      </trkpt>
      <trkpt lat="37.06484" lon="-3.37051833">
        <ele>3108.0</ele>
        <time>2022-11-20T11:05:22.000Z</time>
      </trkpt>
      <trkpt lat="37.06484" lon="-3.37051833">
        <ele>3108.0</ele>
        <time>2022-11-20T11:05:23.000Z</time>
      </trkpt>
      <trkpt lat="37.06484" lon="-3.37051833">
        <ele>3108.0</ele>
        <time>2022-11-20T11:05:24.000Z</time>
      </trkpt>
      <trkpt lat="37.06484" lon="-3.37051833">
        <ele>3108.0</ele>
        <time>2022-11-20T11:05:25.000Z</time>
      </trkpt>
      <trkpt lat="37.06483833" lon="-3.37051833">
        <ele>3108.0</ele>
        <time>2022-11-20T11:05:26.000Z</time>
      </trkpt>
      <trkpt lat="37.06483667" lon="-3.37051833">
        <ele>3108.0</ele>
        <time>2022-11-20T11:05:27.000Z</time>
      </trkpt>
      <trkpt lat="37.06483667" lon="-3.37051833">
        <ele>3108.0</ele>
        <time>2022-11-20T11:05:28.000Z</time>
      </trkpt>
      <trkpt lat="37.06483667" lon="-3.37051833">
        <ele>3108.0</ele>
        <time>2022-11-20T11:05:29.000Z</time>
      </trkpt>
      <trkpt lat="37.06483667" lon="-3.370515">
        <ele>3108.0</ele>
        <time>2022-11-20T11:05:30.000Z</time>
      </trkpt>
      <trkpt lat="37.064835" lon="-3.37051333">
        <ele>3108.0</ele>
        <time>2022-11-20T11:05:31.000Z</time>
      </trkpt>
      <trkpt lat="37.06483667" lon="-3.37051167">
        <ele>3108.0</ele>
        <time>2022-11-20T11:05:32.000Z</time>
      </trkpt>
      <trkpt lat="37.06483833" lon="-3.37050667">
        <ele>3108.0</ele>
        <time>2022-11-20T11:05:33.000Z</time>
      </trkpt>
      <trkpt lat="37.06484" lon="-3.37050167">
        <ele>3108.0</ele>
        <time>2022-11-20T11:05:34.000Z</time>
      </trkpt>
      <trkpt lat="37.064845" lon="-3.3705">
        <ele>3108.0</ele>
        <time>2022-11-20T11:05:35.000Z</time>
      </trkpt>
      <trkpt lat="37.064845" lon="-3.37049333">
        <ele>3108.0</ele>
        <time>2022-11-20T11:05:36.000Z</time>
      </trkpt>
      <trkpt lat="37.06484667" lon="-3.37049167">
        <ele>3108.0</ele>
        <time>2022-11-20T11:05:37.000Z</time>
      </trkpt>
      <trkpt lat="37.06484333" lon="-3.37048833">
        <ele>3108.0</ele>
        <time>2022-11-20T11:05:38.000Z</time>
      </trkpt>
      <trkpt lat="37.06484" lon="-3.37048667">
        <ele>3108.0</ele>
        <time>2022-11-20T11:05:39.000Z</time>
      </trkpt>
      <trkpt lat="37.06483333" lon="-3.37048333">
        <ele>3108.0</ele>
        <time>2022-11-20T11:05:40.000Z</time>
      </trkpt>
      <trkpt lat="37.06483" lon="-3.37048333">
        <ele>3108.0</ele>
        <time>2022-11-20T11:05:41.000Z</time>
      </trkpt>
      <trkpt lat="37.064825" lon="-3.37048167">
        <ele>3108.0</ele>
        <time>2022-11-20T11:05:42.000Z</time>
      </trkpt>
      <trkpt lat="37.06482333" lon="-3.37048">
        <ele>3108.0</ele>
        <time>2022-11-20T11:05:43.000Z</time>
      </trkpt>
      <trkpt lat="37.06482333" lon="-3.37048">
        <ele>3108.0</ele>
        <time>2022-11-20T11:05:44.000Z</time>
      </trkpt>
      <trkpt lat="37.06482" lon="-3.37047667">
        <ele>3108.0</ele>
        <time>2022-11-20T11:05:45.000Z</time>
      </trkpt>
      <trkpt lat="37.064815" lon="-3.370475">
        <ele>3109.0</ele>
        <time>2022-11-20T11:05:46.000Z</time>
      </trkpt>
      <trkpt lat="37.06481" lon="-3.37047333">
        <ele>3109.0</ele>
        <time>2022-11-20T11:05:47.000Z</time>
      </trkpt>
      <trkpt lat="37.06480333" lon="-3.37047167">
        <ele>3109.0</ele>
        <time>2022-11-20T11:05:48.000Z</time>
      </trkpt>
      <trkpt lat="37.06479833" lon="-3.37046833">
        <ele>3109.0</ele>
        <time>2022-11-20T11:05:49.000Z</time>
      </trkpt>
      <trkpt lat="37.06479333" lon="-3.370465">
        <ele>3109.0</ele>
        <time>2022-11-20T11:05:50.000Z</time>
      </trkpt>
      <trkpt lat="37.06479" lon="-3.37046167">
        <ele>3109.0</ele>
        <time>2022-11-20T11:05:51.000Z</time>
      </trkpt>
      <trkpt lat="37.06478333" lon="-3.37045667">
        <ele>3109.0</ele>
        <time>2022-11-20T11:05:52.000Z</time>
      </trkpt>
      <trkpt lat="37.06477833" lon="-3.37045333">
        <ele>3109.0</ele>
        <time>2022-11-20T11:05:53.000Z</time>
      </trkpt>
      <trkpt lat="37.064775" lon="-3.37044833">
        <ele>3110.0</ele>
        <time>2022-11-20T11:05:54.000Z</time>
      </trkpt>
      <trkpt lat="37.06477" lon="-3.37044167">
        <ele>3110.0</ele>
        <time>2022-11-20T11:05:55.000Z</time>
      </trkpt>
      <trkpt lat="37.064765" lon="-3.37044">
        <ele>3110.0</ele>
        <time>2022-11-20T11:05:56.000Z</time>
      </trkpt>
      <trkpt lat="37.06476" lon="-3.37043833">
        <ele>3110.0</ele>
        <time>2022-11-20T11:05:57.000Z</time>
      </trkpt>
      <trkpt lat="37.06475333" lon="-3.37043333">
        <ele>3110.0</ele>
        <time>2022-11-20T11:05:58.000Z</time>
      </trkpt>
      <trkpt lat="37.06474833" lon="-3.37042833">
        <ele>3110.0</ele>
        <time>2022-11-20T11:05:59.000Z</time>
      </trkpt>
      <trkpt lat="37.064745" lon="-3.370425">
        <ele>3110.0</ele>
        <time>2022-11-20T11:06:00.000Z</time>
      </trkpt>
      <trkpt lat="37.06473833" lon="-3.37041833">
        <ele>3111.0</ele>
        <time>2022-11-20T11:06:01.000Z</time>
      </trkpt>
      <trkpt lat="37.06473333" lon="-3.37041167">
        <ele>3111.0</ele>
        <time>2022-11-20T11:06:02.000Z</time>
      </trkpt>
      <trkpt lat="37.06473" lon="-3.37041">
        <ele>3111.0</ele>
        <time>2022-11-20T11:06:03.000Z</time>
      </trkpt>
      <trkpt lat="37.06472333" lon="-3.37040333">
        <ele>3111.0</ele>
        <time>2022-11-20T11:06:04.000Z</time>
      </trkpt>
      <trkpt lat="37.06471833" lon="-3.37039833">
        <ele>3111.0</ele>
        <time>2022-11-20T11:06:05.000Z</time>
      </trkpt>
      <trkpt lat="37.06471333" lon="-3.37039333">
        <ele>3111.0</ele>
        <time>2022-11-20T11:06:06.000Z</time>
      </trkpt>
      <trkpt lat="37.06470833" lon="-3.370385">
        <ele>3111.0</ele>
        <time>2022-11-20T11:06:07.000Z</time>
      </trkpt>
      <trkpt lat="37.06470167" lon="-3.37038">
        <ele>3112.0</ele>
        <time>2022-11-20T11:06:08.000Z</time>
      </trkpt>
      <trkpt lat="37.06469833" lon="-3.37037667">
        <ele>3112.0</ele>
        <time>2022-11-20T11:06:09.000Z</time>
      </trkpt>
      <trkpt lat="37.06469167" lon="-3.37037167">
        <ele>3112.0</ele>
        <time>2022-11-20T11:06:10.000Z</time>
      </trkpt>
      <trkpt lat="37.064685" lon="-3.37036667">
        <ele>3112.0</ele>
        <time>2022-11-20T11:06:11.000Z</time>
      </trkpt>
      <trkpt lat="37.06468" lon="-3.37036167">
        <ele>3112.0</ele>
        <time>2022-11-20T11:06:12.000Z</time>
      </trkpt>
      <trkpt lat="37.06467667" lon="-3.370355">
        <ele>3112.0</ele>
        <time>2022-11-20T11:06:13.000Z</time>
      </trkpt>
      <trkpt lat="37.06467333" lon="-3.37034833">
        <ele>3112.0</ele>
        <time>2022-11-20T11:06:14.000Z</time>
      </trkpt>
      <trkpt lat="37.06467167" lon="-3.37033833">
        <ele>3112.0</ele>
        <time>2022-11-20T11:06:15.000Z</time>
      </trkpt>
      <trkpt lat="37.06467" lon="-3.37033">
        <ele>3112.0</ele>
        <time>2022-11-20T11:06:16.000Z</time>
      </trkpt>
      <trkpt lat="37.06467" lon="-3.37032667">
        <ele>3112.0</ele>
        <time>2022-11-20T11:06:17.000Z</time>
      </trkpt>
      <trkpt lat="37.06467" lon="-3.37032">
        <ele>3112.0</ele>
        <time>2022-11-20T11:06:18.000Z</time>
      </trkpt>
      <trkpt lat="37.06467167" lon="-3.37030833">
        <ele>3113.0</ele>
        <time>2022-11-20T11:06:19.000Z</time>
      </trkpt>
      <trkpt lat="37.064675" lon="-3.37030167">
        <ele>3113.0</ele>
        <time>2022-11-20T11:06:20.000Z</time>
      </trkpt>
      <trkpt lat="37.06468" lon="-3.37029833">
        <ele>3113.0</ele>
        <time>2022-11-20T11:06:21.000Z</time>
      </trkpt>
      <trkpt lat="37.06468167" lon="-3.370295">
        <ele>3113.0</ele>
        <time>2022-11-20T11:06:22.000Z</time>
      </trkpt>
      <trkpt lat="37.06468167" lon="-3.370295">
        <ele>3113.0</ele>
        <time>2022-11-20T11:06:23.000Z</time>
      </trkpt>
      <trkpt lat="37.06468167" lon="-3.37029333">
        <ele>3113.0</ele>
        <time>2022-11-20T11:06:24.000Z</time>
      </trkpt>
      <trkpt lat="37.06468333" lon="-3.37029">
        <ele>3113.0</ele>
        <time>2022-11-20T11:06:25.000Z</time>
      </trkpt>
      <trkpt lat="37.064685" lon="-3.37028333">
        <ele>3113.0</ele>
        <time>2022-11-20T11:06:26.000Z</time>
      </trkpt>
      <trkpt lat="37.06468833" lon="-3.370275">
        <ele>3113.0</ele>
        <time>2022-11-20T11:06:27.000Z</time>
      </trkpt>
      <trkpt lat="37.06468667" lon="-3.37027333">
        <ele>3113.0</ele>
        <time>2022-11-20T11:06:28.000Z</time>
      </trkpt>
      <trkpt lat="37.06468667" lon="-3.37027">
        <ele>3113.0</ele>
        <time>2022-11-20T11:06:29.000Z</time>
      </trkpt>
      <trkpt lat="37.064685" lon="-3.37026667">
        <ele>3113.0</ele>
        <time>2022-11-20T11:06:30.000Z</time>
      </trkpt>
      <trkpt lat="37.06468333" lon="-3.37026">
        <ele>3113.0</ele>
        <time>2022-11-20T11:06:31.000Z</time>
      </trkpt>
      <trkpt lat="37.06468167" lon="-3.37025333">
        <ele>3113.0</ele>
        <time>2022-11-20T11:06:32.000Z</time>
      </trkpt>
      <trkpt lat="37.06467833" lon="-3.37024833">
        <ele>3113.0</ele>
        <time>2022-11-20T11:06:33.000Z</time>
      </trkpt>
      <trkpt lat="37.064675" lon="-3.37024">
        <ele>3114.0</ele>
        <time>2022-11-20T11:06:34.000Z</time>
      </trkpt>
      <trkpt lat="37.06467167" lon="-3.37023333">
        <ele>3114.0</ele>
        <time>2022-11-20T11:06:35.000Z</time>
      </trkpt>
      <trkpt lat="37.06466667" lon="-3.37022833">
        <ele>3114.0</ele>
        <time>2022-11-20T11:06:36.000Z</time>
      </trkpt>
      <trkpt lat="37.06466167" lon="-3.37022333">
        <ele>3114.0</ele>
        <time>2022-11-20T11:06:37.000Z</time>
      </trkpt>
      <trkpt lat="37.064655" lon="-3.37021833">
        <ele>3114.0</ele>
        <time>2022-11-20T11:06:38.000Z</time>
      </trkpt>
      <trkpt lat="37.06465" lon="-3.37021333">
        <ele>3114.0</ele>
        <time>2022-11-20T11:06:39.000Z</time>
      </trkpt>
      <trkpt lat="37.06464333" lon="-3.37021">
        <ele>3114.0</ele>
        <time>2022-11-20T11:06:40.000Z</time>
      </trkpt>
      <trkpt lat="37.064635" lon="-3.37020333">
        <ele>3114.0</ele>
        <time>2022-11-20T11:06:41.000Z</time>
      </trkpt>
      <trkpt lat="37.06462833" lon="-3.3702">
        <ele>3115.0</ele>
        <time>2022-11-20T11:06:42.000Z</time>
      </trkpt>
      <trkpt lat="37.06462" lon="-3.370195">
        <ele>3115.0</ele>
        <time>2022-11-20T11:06:43.000Z</time>
      </trkpt>
      <trkpt lat="37.06461167" lon="-3.37019167">
        <ele>3115.0</ele>
        <time>2022-11-20T11:06:44.000Z</time>
      </trkpt>
      <trkpt lat="37.06460667" lon="-3.37018667">
        <ele>3115.0</ele>
        <time>2022-11-20T11:06:45.000Z</time>
      </trkpt>
      <trkpt lat="37.06459833" lon="-3.37018167">
        <ele>3115.0</ele>
        <time>2022-11-20T11:06:46.000Z</time>
      </trkpt>
      <trkpt lat="37.06459167" lon="-3.370175">
        <ele>3115.0</ele>
        <time>2022-11-20T11:06:47.000Z</time>
      </trkpt>
      <trkpt lat="37.06458667" lon="-3.37016667">
        <ele>3116.0</ele>
        <time>2022-11-20T11:06:48.000Z</time>
      </trkpt>
      <trkpt lat="37.06458333" lon="-3.37015833">
        <ele>3116.0</ele>
        <time>2022-11-20T11:06:49.000Z</time>
      </trkpt>
      <trkpt lat="37.06458" lon="-3.37015167">
        <ele>3116.0</ele>
        <time>2022-11-20T11:06:50.000Z</time>
      </trkpt>
      <trkpt lat="37.064575" lon="-3.37014667">
        <ele>3116.0</ele>
        <time>2022-11-20T11:06:51.000Z</time>
      </trkpt>
      <trkpt lat="37.06456833" lon="-3.37014167">
        <ele>3116.0</ele>
        <time>2022-11-20T11:06:52.000Z</time>
      </trkpt>
      <trkpt lat="37.06456167" lon="-3.37013667">
        <ele>3116.0</ele>
        <time>2022-11-20T11:06:53.000Z</time>
      </trkpt>
      <trkpt lat="37.06455333" lon="-3.37013333">
        <ele>3116.0</ele>
        <time>2022-11-20T11:06:54.000Z</time>
      </trkpt>
      <trkpt lat="37.064545" lon="-3.37013">
        <ele>3116.0</ele>
        <time>2022-11-20T11:06:55.000Z</time>
      </trkpt>
      <trkpt lat="37.06453833" lon="-3.37012667">
        <ele>3117.0</ele>
        <time>2022-11-20T11:06:56.000Z</time>
      </trkpt>
      <trkpt lat="37.06452833" lon="-3.37012167">
        <ele>3117.0</ele>
        <time>2022-11-20T11:06:57.000Z</time>
      </trkpt>
      <trkpt lat="37.06452167" lon="-3.37011667">
        <ele>3117.0</ele>
        <time>2022-11-20T11:06:58.000Z</time>
      </trkpt>
      <trkpt lat="37.06451333" lon="-3.37011333">
        <ele>3117.0</ele>
        <time>2022-11-20T11:06:59.000Z</time>
      </trkpt>
      <trkpt lat="37.06450333" lon="-3.37010667">
        <ele>3117.0</ele>
        <time>2022-11-20T11:07:00.000Z</time>
      </trkpt>
      <trkpt lat="37.06449333" lon="-3.37010167">
        <ele>3117.0</ele>
        <time>2022-11-20T11:07:01.000Z</time>
      </trkpt>
      <trkpt lat="37.06448667" lon="-3.37009667">
        <ele>3117.0</ele>
        <time>2022-11-20T11:07:02.000Z</time>
      </trkpt>
      <trkpt lat="37.06447667" lon="-3.37009167">
        <ele>3118.0</ele>
        <time>2022-11-20T11:07:03.000Z</time>
      </trkpt>
      <trkpt lat="37.06447" lon="-3.37008667">
        <ele>3118.0</ele>
        <time>2022-11-20T11:07:04.000Z</time>
      </trkpt>
      <trkpt lat="37.06446167" lon="-3.37008">
        <ele>3118.0</ele>
        <time>2022-11-20T11:07:05.000Z</time>
      </trkpt>
      <trkpt lat="37.06445333" lon="-3.37007333">
        <ele>3118.0</ele>
        <time>2022-11-20T11:07:06.000Z</time>
      </trkpt>
      <trkpt lat="37.06444667" lon="-3.37007">
        <ele>3118.0</ele>
        <time>2022-11-20T11:07:07.000Z</time>
      </trkpt>
      <trkpt lat="37.06443833" lon="-3.37006333">
        <ele>3119.0</ele>
        <time>2022-11-20T11:07:08.000Z</time>
      </trkpt>
      <trkpt lat="37.06443" lon="-3.37005833">
        <ele>3119.0</ele>
        <time>2022-11-20T11:07:09.000Z</time>
      </trkpt>
      <trkpt lat="37.06442167" lon="-3.370055">
        <ele>3119.0</ele>
        <time>2022-11-20T11:07:10.000Z</time>
      </trkpt>
      <trkpt lat="37.06441333" lon="-3.37005">
        <ele>3119.0</ele>
        <time>2022-11-20T11:07:11.000Z</time>
      </trkpt>
      <trkpt lat="37.06440333" lon="-3.37004667">
        <ele>3119.0</ele>
        <time>2022-11-20T11:07:12.000Z</time>
      </trkpt>
      <trkpt lat="37.064395" lon="-3.37004333">
        <ele>3119.0</ele>
        <time>2022-11-20T11:07:13.000Z</time>
      </trkpt>
      <trkpt lat="37.06438667" lon="-3.37004167">
        <ele>3120.0</ele>
        <time>2022-11-20T11:07:14.000Z</time>
      </trkpt>
      <trkpt lat="37.06438" lon="-3.37004">
        <ele>3120.0</ele>
        <time>2022-11-20T11:07:15.000Z</time>
      </trkpt>
      <trkpt lat="37.064375" lon="-3.37003333">
        <ele>3120.0</ele>
        <time>2022-11-20T11:07:16.000Z</time>
      </trkpt>
      <trkpt lat="37.06437333" lon="-3.370025">
        <ele>3120.0</ele>
        <time>2022-11-20T11:07:17.000Z</time>
      </trkpt>
      <trkpt lat="37.06437333" lon="-3.370015">
        <ele>3120.0</ele>
        <time>2022-11-20T11:07:18.000Z</time>
      </trkpt>
      <trkpt lat="37.06437333" lon="-3.37000667">
        <ele>3121.0</ele>
        <time>2022-11-20T11:07:19.000Z</time>
      </trkpt>
      <trkpt lat="37.06437333" lon="-3.37000167">
        <ele>3121.0</ele>
        <time>2022-11-20T11:07:20.000Z</time>
      </trkpt>
      <trkpt lat="37.06436667" lon="-3.36999667">
        <ele>3121.0</ele>
        <time>2022-11-20T11:07:21.000Z</time>
      </trkpt>
      <trkpt lat="37.06435833" lon="-3.36999333">
        <ele>3121.0</ele>
        <time>2022-11-20T11:07:22.000Z</time>
      </trkpt>
      <trkpt lat="37.06434833" lon="-3.369995">
        <ele>3121.0</ele>
        <time>2022-11-20T11:07:23.000Z</time>
      </trkpt>
      <trkpt lat="37.06433833" lon="-3.369995">
        <ele>3121.0</ele>
        <time>2022-11-20T11:07:24.000Z</time>
      </trkpt>
      <trkpt lat="37.06432833" lon="-3.36999667">
        <ele>3121.0</ele>
        <time>2022-11-20T11:07:25.000Z</time>
      </trkpt>
      <trkpt lat="37.06431833" lon="-3.36999667">
        <ele>3121.0</ele>
        <time>2022-11-20T11:07:26.000Z</time>
      </trkpt>
      <trkpt lat="37.06430833" lon="-3.36999667">
        <ele>3121.0</ele>
        <time>2022-11-20T11:07:27.000Z</time>
      </trkpt>
      <trkpt lat="37.06429833" lon="-3.36999833">
        <ele>3121.0</ele>
        <time>2022-11-20T11:07:28.000Z</time>
      </trkpt>
      <trkpt lat="37.06429333" lon="-3.369995">
        <ele>3121.0</ele>
        <time>2022-11-20T11:07:29.000Z</time>
      </trkpt>
      <trkpt lat="37.06429167" lon="-3.369995">
        <ele>3121.0</ele>
        <time>2022-11-20T11:07:30.000Z</time>
      </trkpt>
      <trkpt lat="37.06429167" lon="-3.369995">
        <ele>3121.0</ele>
        <time>2022-11-20T11:07:31.000Z</time>
      </trkpt>
      <trkpt lat="37.06429167" lon="-3.369995">
        <ele>3121.0</ele>
        <time>2022-11-20T11:07:32.000Z</time>
      </trkpt>
      <trkpt lat="37.06429167" lon="-3.36999667">
        <ele>3121.0</ele>
        <time>2022-11-20T11:07:33.000Z</time>
      </trkpt>
      <trkpt lat="37.06429167" lon="-3.37">
        <ele>3121.0</ele>
        <time>2022-11-20T11:07:34.000Z</time>
      </trkpt>
      <trkpt lat="37.06429167" lon="-3.37000167">
        <ele>3121.0</ele>
        <time>2022-11-20T11:07:35.000Z</time>
      </trkpt>
      <trkpt lat="37.06429167" lon="-3.37000333">
        <ele>3121.0</ele>
        <time>2022-11-20T11:07:36.000Z</time>
      </trkpt>
      <trkpt lat="37.06428833" lon="-3.37000333">
        <ele>3121.0</ele>
        <time>2022-11-20T11:07:37.000Z</time>
      </trkpt>
      <trkpt lat="37.06428" lon="-3.370005">
        <ele>3121.0</ele>
        <time>2022-11-20T11:07:38.000Z</time>
      </trkpt>
      <trkpt lat="37.06427" lon="-3.37000667">
        <ele>3122.0</ele>
        <time>2022-11-20T11:07:39.000Z</time>
      </trkpt>
      <trkpt lat="37.06426167" lon="-3.37001">
        <ele>3122.0</ele>
        <time>2022-11-20T11:07:40.000Z</time>
      </trkpt>
      <trkpt lat="37.06425333" lon="-3.37001333">
        <ele>3122.0</ele>
        <time>2022-11-20T11:07:41.000Z</time>
      </trkpt>
      <trkpt lat="37.06424333" lon="-3.37001667">
        <ele>3122.0</ele>
        <time>2022-11-20T11:07:42.000Z</time>
      </trkpt>
      <trkpt lat="37.06423333" lon="-3.37001833">
        <ele>3122.0</ele>
        <time>2022-11-20T11:07:43.000Z</time>
      </trkpt>
      <trkpt lat="37.064225" lon="-3.37002">
        <ele>3122.0</ele>
        <time>2022-11-20T11:07:44.000Z</time>
      </trkpt>
      <trkpt lat="37.06421833" lon="-3.37002167">
        <ele>3122.0</ele>
        <time>2022-11-20T11:07:45.000Z</time>
      </trkpt>
      <trkpt lat="37.06421" lon="-3.370025">
        <ele>3122.0</ele>
        <time>2022-11-20T11:07:46.000Z</time>
      </trkpt>
      <trkpt lat="37.06420167" lon="-3.37002667">
        <ele>3122.0</ele>
        <time>2022-11-20T11:07:47.000Z</time>
      </trkpt>
      <trkpt lat="37.06419333" lon="-3.37002833">
        <ele>3122.0</ele>
        <time>2022-11-20T11:07:48.000Z</time>
      </trkpt>
      <trkpt lat="37.06418167" lon="-3.37003167">
        <ele>3122.0</ele>
        <time>2022-11-20T11:07:49.000Z</time>
      </trkpt>
      <trkpt lat="37.06417" lon="-3.370035">
        <ele>3122.0</ele>
        <time>2022-11-20T11:07:50.000Z</time>
      </trkpt>
      <trkpt lat="37.06415833" lon="-3.37004">
        <ele>3122.0</ele>
        <time>2022-11-20T11:07:51.000Z</time>
      </trkpt>
      <trkpt lat="37.06414667" lon="-3.370045">
        <ele>3122.0</ele>
        <time>2022-11-20T11:07:52.000Z</time>
      </trkpt>
      <trkpt lat="37.06413667" lon="-3.37004667">
        <ele>3122.0</ele>
        <time>2022-11-20T11:07:53.000Z</time>
      </trkpt>
      <trkpt lat="37.064125" lon="-3.37004833">
        <ele>3122.0</ele>
        <time>2022-11-20T11:07:54.000Z</time>
      </trkpt>
      <trkpt lat="37.064115" lon="-3.37004833">
        <ele>3122.0</ele>
        <time>2022-11-20T11:07:55.000Z</time>
      </trkpt>
      <trkpt lat="37.06410333" lon="-3.37005167">
        <ele>3122.0</ele>
        <time>2022-11-20T11:07:56.000Z</time>
      </trkpt>
      <trkpt lat="37.064095" lon="-3.37005333">
        <ele>3122.0</ele>
        <time>2022-11-20T11:07:57.000Z</time>
      </trkpt>
      <trkpt lat="37.06408333" lon="-3.370055">
        <ele>3122.0</ele>
        <time>2022-11-20T11:07:58.000Z</time>
      </trkpt>
      <trkpt lat="37.06407333" lon="-3.37005667">
        <ele>3122.0</ele>
        <time>2022-11-20T11:07:59.000Z</time>
      </trkpt>
      <trkpt lat="37.06406333" lon="-3.37005667">
        <ele>3123.0</ele>
        <time>2022-11-20T11:08:00.000Z</time>
      </trkpt>
      <trkpt lat="37.06405167" lon="-3.37005833">
        <ele>3123.0</ele>
        <time>2022-11-20T11:08:01.000Z</time>
      </trkpt>
      <trkpt lat="37.06403833" lon="-3.37005833">
        <ele>3123.0</ele>
        <time>2022-11-20T11:08:02.000Z</time>
      </trkpt>
      <trkpt lat="37.06402833" lon="-3.37005833">
        <ele>3123.0</ele>
        <time>2022-11-20T11:08:03.000Z</time>
      </trkpt>
      <trkpt lat="37.06401833" lon="-3.37005833">
        <ele>3123.0</ele>
        <time>2022-11-20T11:08:04.000Z</time>
      </trkpt>
      <trkpt lat="37.06400833" lon="-3.37006">
        <ele>3123.0</ele>
        <time>2022-11-20T11:08:05.000Z</time>
      </trkpt>
      <trkpt lat="37.06399833" lon="-3.37006">
        <ele>3123.0</ele>
        <time>2022-11-20T11:08:06.000Z</time>
      </trkpt>
      <trkpt lat="37.06398667" lon="-3.37006">
        <ele>3123.0</ele>
        <time>2022-11-20T11:08:07.000Z</time>
      </trkpt>
      <trkpt lat="37.06397667" lon="-3.37006167">
        <ele>3123.0</ele>
        <time>2022-11-20T11:08:08.000Z</time>
      </trkpt>
      <trkpt lat="37.063965" lon="-3.37006">
        <ele>3123.0</ele>
        <time>2022-11-20T11:08:09.000Z</time>
      </trkpt>
      <trkpt lat="37.063955" lon="-3.37006">
        <ele>3123.0</ele>
        <time>2022-11-20T11:08:10.000Z</time>
      </trkpt>
      <trkpt lat="37.06394333" lon="-3.37006167">
        <ele>3124.0</ele>
        <time>2022-11-20T11:08:11.000Z</time>
      </trkpt>
      <trkpt lat="37.06393167" lon="-3.37006167">
        <ele>3124.0</ele>
        <time>2022-11-20T11:08:12.000Z</time>
      </trkpt>
      <trkpt lat="37.06392" lon="-3.370065">
        <ele>3124.0</ele>
        <time>2022-11-20T11:08:13.000Z</time>
      </trkpt>
      <trkpt lat="37.06390833" lon="-3.37006667">
        <ele>3124.0</ele>
        <time>2022-11-20T11:08:14.000Z</time>
      </trkpt>
      <trkpt lat="37.06389667" lon="-3.37006833">
        <ele>3124.0</ele>
        <time>2022-11-20T11:08:15.000Z</time>
      </trkpt>
      <trkpt lat="37.06388667" lon="-3.37007">
        <ele>3124.0</ele>
        <time>2022-11-20T11:08:16.000Z</time>
      </trkpt>
      <trkpt lat="37.06387667" lon="-3.37007167">
        <ele>3124.0</ele>
        <time>2022-11-20T11:08:17.000Z</time>
      </trkpt>
      <trkpt lat="37.063865" lon="-3.37007333">
        <ele>3124.0</ele>
        <time>2022-11-20T11:08:18.000Z</time>
      </trkpt>
      <trkpt lat="37.06385333" lon="-3.370075">
        <ele>3124.0</ele>
        <time>2022-11-20T11:08:19.000Z</time>
      </trkpt>
      <trkpt lat="37.06384167" lon="-3.37007833">
        <ele>3124.0</ele>
        <time>2022-11-20T11:08:20.000Z</time>
      </trkpt>
      <trkpt lat="37.06383" lon="-3.37008167">
        <ele>3124.0</ele>
        <time>2022-11-20T11:08:21.000Z</time>
      </trkpt>
      <trkpt lat="37.06381833" lon="-3.37008667">
        <ele>3124.0</ele>
        <time>2022-11-20T11:08:22.000Z</time>
      </trkpt>
      <trkpt lat="37.06380833" lon="-3.37009333">
        <ele>3125.0</ele>
        <time>2022-11-20T11:08:23.000Z</time>
      </trkpt>
      <trkpt lat="37.06379833" lon="-3.3701">
        <ele>3125.0</ele>
        <time>2022-11-20T11:08:24.000Z</time>
      </trkpt>
      <trkpt lat="37.06379" lon="-3.37010833">
        <ele>3125.0</ele>
        <time>2022-11-20T11:08:25.000Z</time>
      </trkpt>
      <trkpt lat="37.06378167" lon="-3.37011833">
        <ele>3125.0</ele>
        <time>2022-11-20T11:08:26.000Z</time>
      </trkpt>
      <trkpt lat="37.063775" lon="-3.37012833">
        <ele>3125.0</ele>
        <time>2022-11-20T11:08:27.000Z</time>
      </trkpt>
      <trkpt lat="37.06376667" lon="-3.37013833">
        <ele>3125.0</ele>
        <time>2022-11-20T11:08:28.000Z</time>
      </trkpt>
      <trkpt lat="37.06375833" lon="-3.370145">
        <ele>3125.0</ele>
        <time>2022-11-20T11:08:29.000Z</time>
      </trkpt>
      <trkpt lat="37.06374833" lon="-3.37015333">
        <ele>3125.0</ele>
        <time>2022-11-20T11:08:30.000Z</time>
      </trkpt>
      <trkpt lat="37.06373833" lon="-3.37016167">
        <ele>3125.0</ele>
        <time>2022-11-20T11:08:31.000Z</time>
      </trkpt>
      <trkpt lat="37.06373" lon="-3.37016833">
        <ele>3125.0</ele>
        <time>2022-11-20T11:08:32.000Z</time>
      </trkpt>
      <trkpt lat="37.06372" lon="-3.37017667">
        <ele>3126.0</ele>
        <time>2022-11-20T11:08:33.000Z</time>
      </trkpt>
      <trkpt lat="37.06371167" lon="-3.37018333">
        <ele>3126.0</ele>
        <time>2022-11-20T11:08:34.000Z</time>
      </trkpt>
      <trkpt lat="37.06370333" lon="-3.37019167">
        <ele>3126.0</ele>
        <time>2022-11-20T11:08:35.000Z</time>
      </trkpt>
      <trkpt lat="37.06369333" lon="-3.37019833">
        <ele>3126.0</ele>
        <time>2022-11-20T11:08:36.000Z</time>
      </trkpt>
      <trkpt lat="37.06368333" lon="-3.37020667">
        <ele>3126.0</ele>
        <time>2022-11-20T11:08:37.000Z</time>
      </trkpt>
      <trkpt lat="37.063675" lon="-3.37021333">
        <ele>3126.0</ele>
        <time>2022-11-20T11:08:38.000Z</time>
      </trkpt>
      <trkpt lat="37.063665" lon="-3.37022333">
        <ele>3126.0</ele>
        <time>2022-11-20T11:08:39.000Z</time>
      </trkpt>
      <trkpt lat="37.06365667" lon="-3.37023167">
        <ele>3126.0</ele>
        <time>2022-11-20T11:08:40.000Z</time>
      </trkpt>
      <trkpt lat="37.06364667" lon="-3.37023833">
        <ele>3126.0</ele>
        <time>2022-11-20T11:08:41.000Z</time>
      </trkpt>
      <trkpt lat="37.06363667" lon="-3.370245">
        <ele>3126.0</ele>
        <time>2022-11-20T11:08:42.000Z</time>
      </trkpt>
      <trkpt lat="37.06362833" lon="-3.37025">
        <ele>3126.0</ele>
        <time>2022-11-20T11:08:43.000Z</time>
      </trkpt>
      <trkpt lat="37.06361833" lon="-3.37025833">
        <ele>3126.0</ele>
        <time>2022-11-20T11:08:44.000Z</time>
      </trkpt>
      <trkpt lat="37.06360833" lon="-3.37026667">
        <ele>3126.0</ele>
        <time>2022-11-20T11:08:45.000Z</time>
      </trkpt>
      <trkpt lat="37.06359833" lon="-3.370275">
        <ele>3126.0</ele>
        <time>2022-11-20T11:08:46.000Z</time>
      </trkpt>
      <trkpt lat="37.06359" lon="-3.370285">
        <ele>3126.0</ele>
        <time>2022-11-20T11:08:47.000Z</time>
      </trkpt>
      <trkpt lat="37.06358" lon="-3.37029333">
        <ele>3126.0</ele>
        <time>2022-11-20T11:08:48.000Z</time>
      </trkpt>
      <trkpt lat="37.06357" lon="-3.37030167">
        <ele>3126.0</ele>
        <time>2022-11-20T11:08:49.000Z</time>
      </trkpt>
      <trkpt lat="37.06356333" lon="-3.37030833">
        <ele>3127.0</ele>
        <time>2022-11-20T11:08:50.000Z</time>
      </trkpt>
      <trkpt lat="37.063555" lon="-3.37031667">
        <ele>3127.0</ele>
        <time>2022-11-20T11:08:51.000Z</time>
      </trkpt>
      <trkpt lat="37.06354833" lon="-3.37032167">
        <ele>3127.0</ele>
        <time>2022-11-20T11:08:52.000Z</time>
      </trkpt>
      <trkpt lat="37.06353667" lon="-3.37032833">
        <ele>3127.0</ele>
        <time>2022-11-20T11:08:53.000Z</time>
      </trkpt>
      <trkpt lat="37.06352667" lon="-3.37033333">
        <ele>3127.0</ele>
        <time>2022-11-20T11:08:54.000Z</time>
      </trkpt>
      <trkpt lat="37.06351833" lon="-3.37033833">
        <ele>3127.0</ele>
        <time>2022-11-20T11:08:55.000Z</time>
      </trkpt>
      <trkpt lat="37.06350833" lon="-3.37034167">
        <ele>3127.0</ele>
        <time>2022-11-20T11:08:56.000Z</time>
      </trkpt>
      <trkpt lat="37.0635" lon="-3.37034667">
        <ele>3127.0</ele>
        <time>2022-11-20T11:08:57.000Z</time>
      </trkpt>
      <trkpt lat="37.06349" lon="-3.37035167">
        <ele>3127.0</ele>
        <time>2022-11-20T11:08:58.000Z</time>
      </trkpt>
      <trkpt lat="37.06348" lon="-3.370355">
        <ele>3127.0</ele>
        <time>2022-11-20T11:08:59.000Z</time>
      </trkpt>
      <trkpt lat="37.06347" lon="-3.37035833">
        <ele>3127.0</ele>
        <time>2022-11-20T11:09:00.000Z</time>
      </trkpt>
      <trkpt lat="37.06345833" lon="-3.37036">
        <ele>3127.0</ele>
        <time>2022-11-20T11:09:01.000Z</time>
      </trkpt>
      <trkpt lat="37.06345" lon="-3.37036">
        <ele>3128.0</ele>
        <time>2022-11-20T11:09:02.000Z</time>
      </trkpt>
      <trkpt lat="37.06344167" lon="-3.37036167">
        <ele>3128.0</ele>
        <time>2022-11-20T11:09:03.000Z</time>
      </trkpt>
      <trkpt lat="37.06343333" lon="-3.37036333">
        <ele>3128.0</ele>
        <time>2022-11-20T11:09:04.000Z</time>
      </trkpt>
      <trkpt lat="37.06342333" lon="-3.37036167">
        <ele>3128.0</ele>
        <time>2022-11-20T11:09:05.000Z</time>
      </trkpt>
      <trkpt lat="37.063415" lon="-3.37035833">
        <ele>3128.0</ele>
        <time>2022-11-20T11:09:06.000Z</time>
      </trkpt>
      <trkpt lat="37.06341167" lon="-3.37035667">
        <ele>3128.0</ele>
        <time>2022-11-20T11:09:07.000Z</time>
      </trkpt>
      <trkpt lat="37.06341167" lon="-3.37036">
        <ele>3128.0</ele>
        <time>2022-11-20T11:09:08.000Z</time>
      </trkpt>
      <trkpt lat="37.06341333" lon="-3.37036167">
        <ele>3128.0</ele>
        <time>2022-11-20T11:09:09.000Z</time>
      </trkpt>
      <trkpt lat="37.06340667" lon="-3.37036167">
        <ele>3128.0</ele>
        <time>2022-11-20T11:09:10.000Z</time>
      </trkpt>
      <trkpt lat="37.06339833" lon="-3.37036">
        <ele>3128.0</ele>
        <time>2022-11-20T11:09:11.000Z</time>
      </trkpt>
      <trkpt lat="37.06338833" lon="-3.37035833">
        <ele>3129.0</ele>
        <time>2022-11-20T11:09:12.000Z</time>
      </trkpt>
      <trkpt lat="37.06337833" lon="-3.370355">
        <ele>3129.0</ele>
        <time>2022-11-20T11:09:13.000Z</time>
      </trkpt>
      <trkpt lat="37.06336833" lon="-3.37035333">
        <ele>3129.0</ele>
        <time>2022-11-20T11:09:14.000Z</time>
      </trkpt>
      <trkpt lat="37.06335833" lon="-3.37035167">
        <ele>3129.0</ele>
        <time>2022-11-20T11:09:15.000Z</time>
      </trkpt>
      <trkpt lat="37.06334833" lon="-3.37035">
        <ele>3129.0</ele>
        <time>2022-11-20T11:09:16.000Z</time>
      </trkpt>
      <trkpt lat="37.06333667" lon="-3.37034667">
        <ele>3129.0</ele>
        <time>2022-11-20T11:09:17.000Z</time>
      </trkpt>
      <trkpt lat="37.06332667" lon="-3.37034667">
        <ele>3129.0</ele>
        <time>2022-11-20T11:09:18.000Z</time>
      </trkpt>
      <trkpt lat="37.06331667" lon="-3.37034667">
        <ele>3129.0</ele>
        <time>2022-11-20T11:09:19.000Z</time>
      </trkpt>
      <trkpt lat="37.06330667" lon="-3.370345">
        <ele>3129.0</ele>
        <time>2022-11-20T11:09:20.000Z</time>
      </trkpt>
      <trkpt lat="37.06329667" lon="-3.37034333">
        <ele>3129.0</ele>
        <time>2022-11-20T11:09:21.000Z</time>
      </trkpt>
      <trkpt lat="37.06328667" lon="-3.37033833">
        <ele>3129.0</ele>
        <time>2022-11-20T11:09:22.000Z</time>
      </trkpt>
      <trkpt lat="37.06327833" lon="-3.37033667">
        <ele>3129.0</ele>
        <time>2022-11-20T11:09:23.000Z</time>
      </trkpt>
      <trkpt lat="37.06326667" lon="-3.37033167">
        <ele>3130.0</ele>
        <time>2022-11-20T11:09:24.000Z</time>
      </trkpt>
      <trkpt lat="37.06325667" lon="-3.37032833">
        <ele>3130.0</ele>
        <time>2022-11-20T11:09:25.000Z</time>
      </trkpt>
      <trkpt lat="37.06324667" lon="-3.370325">
        <ele>3130.0</ele>
        <time>2022-11-20T11:09:26.000Z</time>
      </trkpt>
      <trkpt lat="37.06323667" lon="-3.37032167">
        <ele>3130.0</ele>
        <time>2022-11-20T11:09:27.000Z</time>
      </trkpt>
      <trkpt lat="37.06322833" lon="-3.37031833">
        <ele>3130.0</ele>
        <time>2022-11-20T11:09:28.000Z</time>
      </trkpt>
      <trkpt lat="37.06321833" lon="-3.37031167">
        <ele>3131.0</ele>
        <time>2022-11-20T11:09:29.000Z</time>
      </trkpt>
      <trkpt lat="37.06321333" lon="-3.37030333">
        <ele>3131.0</ele>
        <time>2022-11-20T11:09:30.000Z</time>
      </trkpt>
      <trkpt lat="37.063215" lon="-3.37029167">
        <ele>3131.0</ele>
        <time>2022-11-20T11:09:31.000Z</time>
      </trkpt>
      <trkpt lat="37.063215" lon="-3.37028333">
        <ele>3131.0</ele>
        <time>2022-11-20T11:09:32.000Z</time>
      </trkpt>
      <trkpt lat="37.063215" lon="-3.37027833">
        <ele>3131.0</ele>
        <time>2022-11-20T11:09:33.000Z</time>
      </trkpt>
      <trkpt lat="37.063215" lon="-3.37027">
        <ele>3131.0</ele>
        <time>2022-11-20T11:09:34.000Z</time>
      </trkpt>
      <trkpt lat="37.06321333" lon="-3.37026333">
        <ele>3131.0</ele>
        <time>2022-11-20T11:09:35.000Z</time>
      </trkpt>
      <trkpt lat="37.06321" lon="-3.37025333">
        <ele>3132.0</ele>
        <time>2022-11-20T11:09:36.000Z</time>
      </trkpt>
      <trkpt lat="37.063205" lon="-3.370245">
        <ele>3132.0</ele>
        <time>2022-11-20T11:09:37.000Z</time>
      </trkpt>
      <trkpt lat="37.06319833" lon="-3.37023833">
        <ele>3132.0</ele>
        <time>2022-11-20T11:09:38.000Z</time>
      </trkpt>
      <trkpt lat="37.06319" lon="-3.37023167">
        <ele>3132.0</ele>
        <time>2022-11-20T11:09:39.000Z</time>
      </trkpt>
      <trkpt lat="37.06318167" lon="-3.370225">
        <ele>3132.0</ele>
        <time>2022-11-20T11:09:40.000Z</time>
      </trkpt>
      <trkpt lat="37.06317167" lon="-3.37021833">
        <ele>3132.0</ele>
        <time>2022-11-20T11:09:41.000Z</time>
      </trkpt>
      <trkpt lat="37.06316333" lon="-3.37021333">
        <ele>3132.0</ele>
        <time>2022-11-20T11:09:42.000Z</time>
      </trkpt>
      <trkpt lat="37.06315333" lon="-3.37021">
        <ele>3132.0</ele>
        <time>2022-11-20T11:09:43.000Z</time>
      </trkpt>
      <trkpt lat="37.063145" lon="-3.37020667">
        <ele>3133.0</ele>
        <time>2022-11-20T11:09:44.000Z</time>
      </trkpt>
      <trkpt lat="37.06313667" lon="-3.370205">
        <ele>3133.0</ele>
        <time>2022-11-20T11:09:45.000Z</time>
      </trkpt>
      <trkpt lat="37.06312833" lon="-3.37020167">
        <ele>3133.0</ele>
        <time>2022-11-20T11:09:46.000Z</time>
      </trkpt>
      <trkpt lat="37.06312" lon="-3.3702">
        <ele>3133.0</ele>
        <time>2022-11-20T11:09:47.000Z</time>
      </trkpt>
      <trkpt lat="37.06310833" lon="-3.370195">
        <ele>3133.0</ele>
        <time>2022-11-20T11:09:48.000Z</time>
      </trkpt>
      <trkpt lat="37.0631" lon="-3.37019">
        <ele>3133.0</ele>
        <time>2022-11-20T11:09:49.000Z</time>
      </trkpt>
      <trkpt lat="37.06309167" lon="-3.370185">
        <ele>3133.0</ele>
        <time>2022-11-20T11:09:50.000Z</time>
      </trkpt>
      <trkpt lat="37.06308333" lon="-3.37018167">
        <ele>3133.0</ele>
        <time>2022-11-20T11:09:51.000Z</time>
      </trkpt>
      <trkpt lat="37.06307667" lon="-3.37017833">
        <ele>3133.0</ele>
        <time>2022-11-20T11:09:52.000Z</time>
      </trkpt>
      <trkpt lat="37.06306833" lon="-3.37017333">
        <ele>3133.0</ele>
        <time>2022-11-20T11:09:53.000Z</time>
      </trkpt>
      <trkpt lat="37.06306" lon="-3.37017">
        <ele>3133.0</ele>
        <time>2022-11-20T11:09:54.000Z</time>
      </trkpt>
      <trkpt lat="37.06305" lon="-3.370165">
        <ele>3133.0</ele>
        <time>2022-11-20T11:09:55.000Z</time>
      </trkpt>
      <trkpt lat="37.06304167" lon="-3.37016167">
        <ele>3133.0</ele>
        <time>2022-11-20T11:09:56.000Z</time>
      </trkpt>
      <trkpt lat="37.06303333" lon="-3.37016">
        <ele>3133.0</ele>
        <time>2022-11-20T11:09:57.000Z</time>
      </trkpt>
      <trkpt lat="37.063025" lon="-3.370155">
        <ele>3133.0</ele>
        <time>2022-11-20T11:09:58.000Z</time>
      </trkpt>
      <trkpt lat="37.06301667" lon="-3.37015167">
        <ele>3133.0</ele>
        <time>2022-11-20T11:09:59.000Z</time>
      </trkpt>
      <trkpt lat="37.06300667" lon="-3.37014667">
        <ele>3133.0</ele>
        <time>2022-11-20T11:10:00.000Z</time>
      </trkpt>
      <trkpt lat="37.06299833" lon="-3.37014333">
        <ele>3134.0</ele>
        <time>2022-11-20T11:10:01.000Z</time>
      </trkpt>
      <trkpt lat="37.06299" lon="-3.37014167">
        <ele>3134.0</ele>
        <time>2022-11-20T11:10:02.000Z</time>
      </trkpt>
      <trkpt lat="37.06298333" lon="-3.37014">
        <ele>3134.0</ele>
        <time>2022-11-20T11:10:03.000Z</time>
      </trkpt>
      <trkpt lat="37.062975" lon="-3.37013833">
        <ele>3134.0</ele>
        <time>2022-11-20T11:10:04.000Z</time>
      </trkpt>
      <trkpt lat="37.06296333" lon="-3.37013333">
        <ele>3134.0</ele>
        <time>2022-11-20T11:10:05.000Z</time>
      </trkpt>
      <trkpt lat="37.062955" lon="-3.37013167">
        <ele>3134.0</ele>
        <time>2022-11-20T11:10:06.000Z</time>
      </trkpt>
      <trkpt lat="37.06294667" lon="-3.37013">
        <ele>3134.0</ele>
        <time>2022-11-20T11:10:07.000Z</time>
      </trkpt>
      <trkpt lat="37.06293667" lon="-3.370125">
        <ele>3134.0</ele>
        <time>2022-11-20T11:10:08.000Z</time>
      </trkpt>
      <trkpt lat="37.06292833" lon="-3.37012167">
        <ele>3134.0</ele>
        <time>2022-11-20T11:10:09.000Z</time>
      </trkpt>
      <trkpt lat="37.06291833" lon="-3.37011833">
        <ele>3134.0</ele>
        <time>2022-11-20T11:10:10.000Z</time>
      </trkpt>
      <trkpt lat="37.06291" lon="-3.370115">
        <ele>3134.0</ele>
        <time>2022-11-20T11:10:11.000Z</time>
      </trkpt>
      <trkpt lat="37.06290167" lon="-3.370115">
        <ele>3135.0</ele>
        <time>2022-11-20T11:10:12.000Z</time>
      </trkpt>
      <trkpt lat="37.06289167" lon="-3.37011333">
        <ele>3135.0</ele>
        <time>2022-11-20T11:10:13.000Z</time>
      </trkpt>
      <trkpt lat="37.06288167" lon="-3.37011333">
        <ele>3135.0</ele>
        <time>2022-11-20T11:10:14.000Z</time>
      </trkpt>
      <trkpt lat="37.06287167" lon="-3.37011167">
        <ele>3135.0</ele>
        <time>2022-11-20T11:10:15.000Z</time>
      </trkpt>
      <trkpt lat="37.06286167" lon="-3.37011167">
        <ele>3135.0</ele>
        <time>2022-11-20T11:10:16.000Z</time>
      </trkpt>
      <trkpt lat="37.06285333" lon="-3.37011167">
        <ele>3135.0</ele>
        <time>2022-11-20T11:10:17.000Z</time>
      </trkpt>
      <trkpt lat="37.062845" lon="-3.37010833">
        <ele>3135.0</ele>
        <time>2022-11-20T11:10:18.000Z</time>
      </trkpt>
      <trkpt lat="37.06283667" lon="-3.37010833">
        <ele>3135.0</ele>
        <time>2022-11-20T11:10:19.000Z</time>
      </trkpt>
      <trkpt lat="37.06282667" lon="-3.37010833">
        <ele>3135.0</ele>
        <time>2022-11-20T11:10:20.000Z</time>
      </trkpt>
      <trkpt lat="37.062815" lon="-3.37010667">
        <ele>3136.0</ele>
        <time>2022-11-20T11:10:21.000Z</time>
      </trkpt>
      <trkpt lat="37.062805" lon="-3.37010667">
        <ele>3136.0</ele>
        <time>2022-11-20T11:10:22.000Z</time>
      </trkpt>
      <trkpt lat="37.062795" lon="-3.37010833">
        <ele>3136.0</ele>
        <time>2022-11-20T11:10:23.000Z</time>
      </trkpt>
      <trkpt lat="37.06278667" lon="-3.37010833">
        <ele>3136.0</ele>
        <time>2022-11-20T11:10:24.000Z</time>
      </trkpt>
      <trkpt lat="37.06277667" lon="-3.37010667">
        <ele>3136.0</ele>
        <time>2022-11-20T11:10:25.000Z</time>
      </trkpt>
      <trkpt lat="37.06276667" lon="-3.370105">
        <ele>3136.0</ele>
        <time>2022-11-20T11:10:26.000Z</time>
      </trkpt>
      <trkpt lat="37.06275667" lon="-3.370105">
        <ele>3136.0</ele>
        <time>2022-11-20T11:10:27.000Z</time>
      </trkpt>
      <trkpt lat="37.06274667" lon="-3.370105">
        <ele>3136.0</ele>
        <time>2022-11-20T11:10:28.000Z</time>
      </trkpt>
      <trkpt lat="37.06273833" lon="-3.370105">
        <ele>3136.0</ele>
        <time>2022-11-20T11:10:29.000Z</time>
      </trkpt>
      <trkpt lat="37.06272833" lon="-3.370105">
        <ele>3136.0</ele>
        <time>2022-11-20T11:10:30.000Z</time>
      </trkpt>
      <trkpt lat="37.06271833" lon="-3.370105">
        <ele>3136.0</ele>
        <time>2022-11-20T11:10:31.000Z</time>
      </trkpt>
      <trkpt lat="37.06270667" lon="-3.37010667">
        <ele>3136.0</ele>
        <time>2022-11-20T11:10:32.000Z</time>
      </trkpt>
      <trkpt lat="37.06269667" lon="-3.37011">
        <ele>3136.0</ele>
        <time>2022-11-20T11:10:33.000Z</time>
      </trkpt>
      <trkpt lat="37.06268667" lon="-3.37011">
        <ele>3137.0</ele>
        <time>2022-11-20T11:10:34.000Z</time>
      </trkpt>
      <trkpt lat="37.06267667" lon="-3.37011167">
        <ele>3137.0</ele>
        <time>2022-11-20T11:10:35.000Z</time>
      </trkpt>
      <trkpt lat="37.06266667" lon="-3.37011333">
        <ele>3137.0</ele>
        <time>2022-11-20T11:10:36.000Z</time>
      </trkpt>
      <trkpt lat="37.06265667" lon="-3.37011333">
        <ele>3137.0</ele>
        <time>2022-11-20T11:10:37.000Z</time>
      </trkpt>
      <trkpt lat="37.06264667" lon="-3.37011333">
        <ele>3137.0</ele>
        <time>2022-11-20T11:10:38.000Z</time>
      </trkpt>
      <trkpt lat="37.06263667" lon="-3.370115">
        <ele>3137.0</ele>
        <time>2022-11-20T11:10:39.000Z</time>
      </trkpt>
      <trkpt lat="37.06262667" lon="-3.370115">
        <ele>3137.0</ele>
        <time>2022-11-20T11:10:40.000Z</time>
      </trkpt>
      <trkpt lat="37.06261667" lon="-3.370115">
        <ele>3137.0</ele>
        <time>2022-11-20T11:10:41.000Z</time>
      </trkpt>
      <trkpt lat="37.06260833" lon="-3.37011667">
        <ele>3137.0</ele>
        <time>2022-11-20T11:10:42.000Z</time>
      </trkpt>
      <trkpt lat="37.06259667" lon="-3.370115">
        <ele>3137.0</ele>
        <time>2022-11-20T11:10:43.000Z</time>
      </trkpt>
      <trkpt lat="37.06258667" lon="-3.370115">
        <ele>3137.0</ele>
        <time>2022-11-20T11:10:44.000Z</time>
      </trkpt>
      <trkpt lat="37.062575" lon="-3.370115">
        <ele>3137.0</ele>
        <time>2022-11-20T11:10:45.000Z</time>
      </trkpt>
      <trkpt lat="37.062565" lon="-3.370115">
        <ele>3137.0</ele>
        <time>2022-11-20T11:10:46.000Z</time>
      </trkpt>
      <trkpt lat="37.06255667" lon="-3.37011667">
        <ele>3137.0</ele>
        <time>2022-11-20T11:10:47.000Z</time>
      </trkpt>
      <trkpt lat="37.062545" lon="-3.37011833">
        <ele>3137.0</ele>
        <time>2022-11-20T11:10:48.000Z</time>
      </trkpt>
      <trkpt lat="37.062535" lon="-3.37011833">
        <ele>3137.0</ele>
        <time>2022-11-20T11:10:49.000Z</time>
      </trkpt>
      <trkpt lat="37.062525" lon="-3.37011667">
        <ele>3137.0</ele>
        <time>2022-11-20T11:10:50.000Z</time>
      </trkpt>
      <trkpt lat="37.06251667" lon="-3.370115">
        <ele>3138.0</ele>
        <time>2022-11-20T11:10:51.000Z</time>
      </trkpt>
      <trkpt lat="37.06250667" lon="-3.370115">
        <ele>3138.0</ele>
        <time>2022-11-20T11:10:52.000Z</time>
      </trkpt>
      <trkpt lat="37.06249667" lon="-3.37011333">
        <ele>3138.0</ele>
        <time>2022-11-20T11:10:53.000Z</time>
      </trkpt>
      <trkpt lat="37.062485" lon="-3.37011333">
        <ele>3138.0</ele>
        <time>2022-11-20T11:10:54.000Z</time>
      </trkpt>
      <trkpt lat="37.062475" lon="-3.37011333">
        <ele>3138.0</ele>
        <time>2022-11-20T11:10:55.000Z</time>
      </trkpt>
      <trkpt lat="37.062465" lon="-3.370115">
        <ele>3138.0</ele>
        <time>2022-11-20T11:10:56.000Z</time>
      </trkpt>
      <trkpt lat="37.062455" lon="-3.37011667">
        <ele>3138.0</ele>
        <time>2022-11-20T11:10:57.000Z</time>
      </trkpt>
      <trkpt lat="37.06244833" lon="-3.37012167">
        <ele>3138.0</ele>
        <time>2022-11-20T11:10:58.000Z</time>
      </trkpt>
      <trkpt lat="37.06243667" lon="-3.37012667">
        <ele>3138.0</ele>
        <time>2022-11-20T11:10:59.000Z</time>
      </trkpt>
      <trkpt lat="37.06242833" lon="-3.37013167">
        <ele>3138.0</ele>
        <time>2022-11-20T11:11:00.000Z</time>
      </trkpt>
      <trkpt lat="37.06241667" lon="-3.37013333">
        <ele>3138.0</ele>
        <time>2022-11-20T11:11:01.000Z</time>
      </trkpt>
      <trkpt lat="37.06240833" lon="-3.37013833">
        <ele>3139.0</ele>
        <time>2022-11-20T11:11:02.000Z</time>
      </trkpt>
      <trkpt lat="37.06239667" lon="-3.37014167">
        <ele>3139.0</ele>
        <time>2022-11-20T11:11:03.000Z</time>
      </trkpt>
      <trkpt lat="37.06238667" lon="-3.37014667">
        <ele>3139.0</ele>
        <time>2022-11-20T11:11:04.000Z</time>
      </trkpt>
      <trkpt lat="37.06237833" lon="-3.37015167">
        <ele>3139.0</ele>
        <time>2022-11-20T11:11:05.000Z</time>
      </trkpt>
      <trkpt lat="37.06236833" lon="-3.370155">
        <ele>3139.0</ele>
        <time>2022-11-20T11:11:06.000Z</time>
      </trkpt>
      <trkpt lat="37.06235833" lon="-3.37016">
        <ele>3139.0</ele>
        <time>2022-11-20T11:11:07.000Z</time>
      </trkpt>
      <trkpt lat="37.06234833" lon="-3.370165">
        <ele>3139.0</ele>
        <time>2022-11-20T11:11:08.000Z</time>
      </trkpt>
      <trkpt lat="37.06234" lon="-3.37016833">
        <ele>3139.0</ele>
        <time>2022-11-20T11:11:09.000Z</time>
      </trkpt>
      <trkpt lat="37.06233" lon="-3.37017">
        <ele>3140.0</ele>
        <time>2022-11-20T11:11:10.000Z</time>
      </trkpt>
      <trkpt lat="37.06232" lon="-3.370175">
        <ele>3140.0</ele>
        <time>2022-11-20T11:11:11.000Z</time>
      </trkpt>
      <trkpt lat="37.06231" lon="-3.37018">
        <ele>3140.0</ele>
        <time>2022-11-20T11:11:12.000Z</time>
      </trkpt>
      <trkpt lat="37.06230167" lon="-3.37018667">
        <ele>3140.0</ele>
        <time>2022-11-20T11:11:13.000Z</time>
      </trkpt>
      <trkpt lat="37.06229333" lon="-3.37019333">
        <ele>3140.0</ele>
        <time>2022-11-20T11:11:14.000Z</time>
      </trkpt>
      <trkpt lat="37.06228333" lon="-3.37020167">
        <ele>3140.0</ele>
        <time>2022-11-20T11:11:15.000Z</time>
      </trkpt>
      <trkpt lat="37.062275" lon="-3.37020833">
        <ele>3140.0</ele>
        <time>2022-11-20T11:11:16.000Z</time>
      </trkpt>
      <trkpt lat="37.062265" lon="-3.37021667">
        <ele>3140.0</ele>
        <time>2022-11-20T11:11:17.000Z</time>
      </trkpt>
      <trkpt lat="37.06225833" lon="-3.37022333">
        <ele>3140.0</ele>
        <time>2022-11-20T11:11:18.000Z</time>
      </trkpt>
      <trkpt lat="37.06224833" lon="-3.37023">
        <ele>3141.0</ele>
        <time>2022-11-20T11:11:19.000Z</time>
      </trkpt>
      <trkpt lat="37.06223833" lon="-3.37023667">
        <ele>3141.0</ele>
        <time>2022-11-20T11:11:20.000Z</time>
      </trkpt>
      <trkpt lat="37.06222667" lon="-3.37024167">
        <ele>3141.0</ele>
        <time>2022-11-20T11:11:21.000Z</time>
      </trkpt>
      <trkpt lat="37.06221667" lon="-3.370245">
        <ele>3141.0</ele>
        <time>2022-11-20T11:11:22.000Z</time>
      </trkpt>
      <trkpt lat="37.06220833" lon="-3.37025">
        <ele>3141.0</ele>
        <time>2022-11-20T11:11:23.000Z</time>
      </trkpt>
      <trkpt lat="37.0622" lon="-3.37025333">
        <ele>3141.0</ele>
        <time>2022-11-20T11:11:24.000Z</time>
      </trkpt>
      <trkpt lat="37.06219167" lon="-3.37025833">
        <ele>3141.0</ele>
        <time>2022-11-20T11:11:25.000Z</time>
      </trkpt>
      <trkpt lat="37.06218167" lon="-3.37026333">
        <ele>3141.0</ele>
        <time>2022-11-20T11:11:26.000Z</time>
      </trkpt>
      <trkpt lat="37.06217167" lon="-3.37026833">
        <ele>3141.0</ele>
        <time>2022-11-20T11:11:27.000Z</time>
      </trkpt>
      <trkpt lat="37.06216167" lon="-3.37027333">
        <ele>3142.0</ele>
        <time>2022-11-20T11:11:28.000Z</time>
      </trkpt>
      <trkpt lat="37.06215333" lon="-3.37028">
        <ele>3142.0</ele>
        <time>2022-11-20T11:11:29.000Z</time>
      </trkpt>
      <trkpt lat="37.062145" lon="-3.37028667">
        <ele>3142.0</ele>
        <time>2022-11-20T11:11:30.000Z</time>
      </trkpt>
      <trkpt lat="37.06213667" lon="-3.37029">
        <ele>3142.0</ele>
        <time>2022-11-20T11:11:31.000Z</time>
      </trkpt>
      <trkpt lat="37.06212833" lon="-3.370295">
        <ele>3142.0</ele>
        <time>2022-11-20T11:11:32.000Z</time>
      </trkpt>
      <trkpt lat="37.06212167" lon="-3.37030167">
        <ele>3142.0</ele>
        <time>2022-11-20T11:11:33.000Z</time>
      </trkpt>
      <trkpt lat="37.06211333" lon="-3.37030667">
        <ele>3142.0</ele>
        <time>2022-11-20T11:11:34.000Z</time>
      </trkpt>
      <trkpt lat="37.06210167" lon="-3.37030667">
        <ele>3142.0</ele>
        <time>2022-11-20T11:11:35.000Z</time>
      </trkpt>
      <trkpt lat="37.06209333" lon="-3.37030667">
        <ele>3142.0</ele>
        <time>2022-11-20T11:11:36.000Z</time>
      </trkpt>
      <trkpt lat="37.06208333" lon="-3.37030667">
        <ele>3143.0</ele>
        <time>2022-11-20T11:11:37.000Z</time>
      </trkpt>
      <trkpt lat="37.062075" lon="-3.37031">
        <ele>3143.0</ele>
        <time>2022-11-20T11:11:38.000Z</time>
      </trkpt>
      <trkpt lat="37.06206667" lon="-3.37031333">
        <ele>3143.0</ele>
        <time>2022-11-20T11:11:39.000Z</time>
      </trkpt>
      <trkpt lat="37.06205833" lon="-3.370315">
        <ele>3143.0</ele>
        <time>2022-11-20T11:11:40.000Z</time>
      </trkpt>
      <trkpt lat="37.06204833" lon="-3.37032">
        <ele>3143.0</ele>
        <time>2022-11-20T11:11:41.000Z</time>
      </trkpt>
      <trkpt lat="37.06203667" lon="-3.37032333">
        <ele>3143.0</ele>
        <time>2022-11-20T11:11:42.000Z</time>
      </trkpt>
      <trkpt lat="37.06202833" lon="-3.37033">
        <ele>3143.0</ele>
        <time>2022-11-20T11:11:43.000Z</time>
      </trkpt>
      <trkpt lat="37.06202" lon="-3.37033833">
        <ele>3143.0</ele>
        <time>2022-11-20T11:11:44.000Z</time>
      </trkpt>
      <trkpt lat="37.06201" lon="-3.370345">
        <ele>3143.0</ele>
        <time>2022-11-20T11:11:45.000Z</time>
      </trkpt>
      <trkpt lat="37.06200167" lon="-3.37035167">
        <ele>3143.0</ele>
        <time>2022-11-20T11:11:46.000Z</time>
      </trkpt>
      <trkpt lat="37.06199167" lon="-3.37036">
        <ele>3143.0</ele>
        <time>2022-11-20T11:11:47.000Z</time>
      </trkpt>
      <trkpt lat="37.06198333" lon="-3.370365">
        <ele>3144.0</ele>
        <time>2022-11-20T11:11:48.000Z</time>
      </trkpt>
      <trkpt lat="37.06197167" lon="-3.37037167">
        <ele>3144.0</ele>
        <time>2022-11-20T11:11:49.000Z</time>
      </trkpt>
      <trkpt lat="37.06196333" lon="-3.370375">
        <ele>3144.0</ele>
        <time>2022-11-20T11:11:50.000Z</time>
      </trkpt>
      <trkpt lat="37.06195333" lon="-3.37037833">
        <ele>3144.0</ele>
        <time>2022-11-20T11:11:51.000Z</time>
      </trkpt>
      <trkpt lat="37.061945" lon="-3.37038333">
        <ele>3144.0</ele>
        <time>2022-11-20T11:11:52.000Z</time>
      </trkpt>
      <trkpt lat="37.06193833" lon="-3.370385">
        <ele>3144.0</ele>
        <time>2022-11-20T11:11:53.000Z</time>
      </trkpt>
      <trkpt lat="37.06193" lon="-3.37038833">
        <ele>3144.0</ele>
        <time>2022-11-20T11:11:54.000Z</time>
      </trkpt>
      <trkpt lat="37.06192167" lon="-3.37039167">
        <ele>3144.0</ele>
        <time>2022-11-20T11:11:55.000Z</time>
      </trkpt>
      <trkpt lat="37.06191167" lon="-3.37039667">
        <ele>3144.0</ele>
        <time>2022-11-20T11:11:56.000Z</time>
      </trkpt>
      <trkpt lat="37.06190333" lon="-3.37040167">
        <ele>3144.0</ele>
        <time>2022-11-20T11:11:57.000Z</time>
      </trkpt>
      <trkpt lat="37.06189667" lon="-3.37040667">
        <ele>3144.0</ele>
        <time>2022-11-20T11:11:58.000Z</time>
      </trkpt>
      <trkpt lat="37.06188833" lon="-3.37041333">
        <ele>3144.0</ele>
        <time>2022-11-20T11:11:59.000Z</time>
      </trkpt>
      <trkpt lat="37.06188167" lon="-3.37042">
        <ele>3144.0</ele>
        <time>2022-11-20T11:12:00.000Z</time>
      </trkpt>
      <trkpt lat="37.061875" lon="-3.37043">
        <ele>3144.0</ele>
        <time>2022-11-20T11:12:01.000Z</time>
      </trkpt>
      <trkpt lat="37.06186833" lon="-3.37044">
        <ele>3145.0</ele>
        <time>2022-11-20T11:12:02.000Z</time>
      </trkpt>
      <trkpt lat="37.06185833" lon="-3.37045">
        <ele>3145.0</ele>
        <time>2022-11-20T11:12:03.000Z</time>
      </trkpt>
      <trkpt lat="37.06184833" lon="-3.37045833">
        <ele>3145.0</ele>
        <time>2022-11-20T11:12:04.000Z</time>
      </trkpt>
      <trkpt lat="37.06184" lon="-3.370465">
        <ele>3145.0</ele>
        <time>2022-11-20T11:12:05.000Z</time>
      </trkpt>
      <trkpt lat="37.06183167" lon="-3.37047">
        <ele>3145.0</ele>
        <time>2022-11-20T11:12:06.000Z</time>
      </trkpt>
      <trkpt lat="37.06182333" lon="-3.370475">
        <ele>3145.0</ele>
        <time>2022-11-20T11:12:07.000Z</time>
      </trkpt>
      <trkpt lat="37.06181667" lon="-3.37048167">
        <ele>3145.0</ele>
        <time>2022-11-20T11:12:08.000Z</time>
      </trkpt>
      <trkpt lat="37.06181" lon="-3.37049">
        <ele>3145.0</ele>
        <time>2022-11-20T11:12:09.000Z</time>
      </trkpt>
      <trkpt lat="37.06180167" lon="-3.3705">
        <ele>3145.0</ele>
        <time>2022-11-20T11:12:10.000Z</time>
      </trkpt>
      <trkpt lat="37.061795" lon="-3.37051">
        <ele>3145.0</ele>
        <time>2022-11-20T11:12:11.000Z</time>
      </trkpt>
      <trkpt lat="37.06178667" lon="-3.37051833">
        <ele>3146.0</ele>
        <time>2022-11-20T11:12:12.000Z</time>
      </trkpt>
      <trkpt lat="37.06177833" lon="-3.37052333">
        <ele>3146.0</ele>
        <time>2022-11-20T11:12:13.000Z</time>
      </trkpt>
      <trkpt lat="37.06177" lon="-3.37052833">
        <ele>3146.0</ele>
        <time>2022-11-20T11:12:14.000Z</time>
      </trkpt>
      <trkpt lat="37.06176167" lon="-3.37053167">
        <ele>3146.0</ele>
        <time>2022-11-20T11:12:15.000Z</time>
      </trkpt>
      <trkpt lat="37.06175333" lon="-3.37053833">
        <ele>3146.0</ele>
        <time>2022-11-20T11:12:16.000Z</time>
      </trkpt>
      <trkpt lat="37.06174333" lon="-3.370545">
        <ele>3146.0</ele>
        <time>2022-11-20T11:12:17.000Z</time>
      </trkpt>
      <trkpt lat="37.061735" lon="-3.37055">
        <ele>3146.0</ele>
        <time>2022-11-20T11:12:18.000Z</time>
      </trkpt>
      <trkpt lat="37.06172833" lon="-3.370555">
        <ele>3146.0</ele>
        <time>2022-11-20T11:12:19.000Z</time>
      </trkpt>
      <trkpt lat="37.06171833" lon="-3.37056">
        <ele>3146.0</ele>
        <time>2022-11-20T11:12:20.000Z</time>
      </trkpt>
      <trkpt lat="37.06171167" lon="-3.370565">
        <ele>3146.0</ele>
        <time>2022-11-20T11:12:21.000Z</time>
      </trkpt>
      <trkpt lat="37.06170167" lon="-3.37057167">
        <ele>3146.0</ele>
        <time>2022-11-20T11:12:22.000Z</time>
      </trkpt>
      <trkpt lat="37.06169333" lon="-3.37057833">
        <ele>3146.0</ele>
        <time>2022-11-20T11:12:23.000Z</time>
      </trkpt>
      <trkpt lat="37.061685" lon="-3.370585">
        <ele>3147.0</ele>
        <time>2022-11-20T11:12:24.000Z</time>
      </trkpt>
      <trkpt lat="37.06167667" lon="-3.37059">
        <ele>3147.0</ele>
        <time>2022-11-20T11:12:25.000Z</time>
      </trkpt>
      <trkpt lat="37.06167" lon="-3.37059333">
        <ele>3147.0</ele>
        <time>2022-11-20T11:12:26.000Z</time>
      </trkpt>
      <trkpt lat="37.06166" lon="-3.37059333">
        <ele>3147.0</ele>
        <time>2022-11-20T11:12:27.000Z</time>
      </trkpt>
      <trkpt lat="37.06165333" lon="-3.370595">
        <ele>3147.0</ele>
        <time>2022-11-20T11:12:28.000Z</time>
      </trkpt>
      <trkpt lat="37.06164333" lon="-3.370595">
        <ele>3147.0</ele>
        <time>2022-11-20T11:12:29.000Z</time>
      </trkpt>
      <trkpt lat="37.06163333" lon="-3.370595">
        <ele>3147.0</ele>
        <time>2022-11-20T11:12:30.000Z</time>
      </trkpt>
      <trkpt lat="37.06162333" lon="-3.37059833">
        <ele>3147.0</ele>
        <time>2022-11-20T11:12:31.000Z</time>
      </trkpt>
      <trkpt lat="37.06161333" lon="-3.37060167">
        <ele>3147.0</ele>
        <time>2022-11-20T11:12:32.000Z</time>
      </trkpt>
      <trkpt lat="37.061605" lon="-3.37060833">
        <ele>3147.0</ele>
        <time>2022-11-20T11:12:33.000Z</time>
      </trkpt>
      <trkpt lat="37.0616" lon="-3.370615">
        <ele>3147.0</ele>
        <time>2022-11-20T11:12:34.000Z</time>
      </trkpt>
      <trkpt lat="37.06159333" lon="-3.37062833">
        <ele>3147.0</ele>
        <time>2022-11-20T11:12:35.000Z</time>
      </trkpt>
      <trkpt lat="37.06158667" lon="-3.37063667">
        <ele>3147.0</ele>
        <time>2022-11-20T11:12:36.000Z</time>
      </trkpt>
      <trkpt lat="37.06157833" lon="-3.37064167">
        <ele>3147.0</ele>
        <time>2022-11-20T11:12:37.000Z</time>
      </trkpt>
      <trkpt lat="37.06156833" lon="-3.37064667">
        <ele>3148.0</ele>
        <time>2022-11-20T11:12:38.000Z</time>
      </trkpt>
      <trkpt lat="37.06156" lon="-3.37065167">
        <ele>3148.0</ele>
        <time>2022-11-20T11:12:39.000Z</time>
      </trkpt>
      <trkpt lat="37.06155167" lon="-3.37065833">
        <ele>3148.0</ele>
        <time>2022-11-20T11:12:40.000Z</time>
      </trkpt>
      <trkpt lat="37.06154167" lon="-3.370665">
        <ele>3148.0</ele>
        <time>2022-11-20T11:12:41.000Z</time>
      </trkpt>
      <trkpt lat="37.06153167" lon="-3.37067">
        <ele>3148.0</ele>
        <time>2022-11-20T11:12:42.000Z</time>
      </trkpt>
      <trkpt lat="37.06152333" lon="-3.370675">
        <ele>3148.0</ele>
        <time>2022-11-20T11:12:43.000Z</time>
      </trkpt>
      <trkpt lat="37.06151167" lon="-3.37068">
        <ele>3148.0</ele>
        <time>2022-11-20T11:12:44.000Z</time>
      </trkpt>
      <trkpt lat="37.06150333" lon="-3.37068333">
        <ele>3148.0</ele>
        <time>2022-11-20T11:12:45.000Z</time>
      </trkpt>
      <trkpt lat="37.06149333" lon="-3.37068833">
        <ele>3148.0</ele>
        <time>2022-11-20T11:12:46.000Z</time>
      </trkpt>
      <trkpt lat="37.061485" lon="-3.370695">
        <ele>3148.0</ele>
        <time>2022-11-20T11:12:47.000Z</time>
      </trkpt>
      <trkpt lat="37.06147833" lon="-3.37070167">
        <ele>3148.0</ele>
        <time>2022-11-20T11:12:48.000Z</time>
      </trkpt>
      <trkpt lat="37.06146833" lon="-3.37070667">
        <ele>3148.0</ele>
        <time>2022-11-20T11:12:49.000Z</time>
      </trkpt>
      <trkpt lat="37.06146167" lon="-3.37071333">
        <ele>3148.0</ele>
        <time>2022-11-20T11:12:50.000Z</time>
      </trkpt>
      <trkpt lat="37.06145333" lon="-3.37072">
        <ele>3148.0</ele>
        <time>2022-11-20T11:12:51.000Z</time>
      </trkpt>
      <trkpt lat="37.061445" lon="-3.37072667">
        <ele>3148.0</ele>
        <time>2022-11-20T11:12:52.000Z</time>
      </trkpt>
      <trkpt lat="37.06143667" lon="-3.37073833">
        <ele>3149.0</ele>
        <time>2022-11-20T11:12:53.000Z</time>
      </trkpt>
      <trkpt lat="37.06142833" lon="-3.37074667">
        <ele>3149.0</ele>
        <time>2022-11-20T11:12:54.000Z</time>
      </trkpt>
      <trkpt lat="37.06142167" lon="-3.37075667">
        <ele>3149.0</ele>
        <time>2022-11-20T11:12:55.000Z</time>
      </trkpt>
      <trkpt lat="37.06141333" lon="-3.370765">
        <ele>3149.0</ele>
        <time>2022-11-20T11:12:56.000Z</time>
      </trkpt>
      <trkpt lat="37.06140667" lon="-3.37077333">
        <ele>3149.0</ele>
        <time>2022-11-20T11:12:57.000Z</time>
      </trkpt>
      <trkpt lat="37.06139667" lon="-3.37078167">
        <ele>3149.0</ele>
        <time>2022-11-20T11:12:58.000Z</time>
      </trkpt>
      <trkpt lat="37.06138833" lon="-3.37078833">
        <ele>3149.0</ele>
        <time>2022-11-20T11:12:59.000Z</time>
      </trkpt>
      <trkpt lat="37.06137833" lon="-3.370795">
        <ele>3149.0</ele>
        <time>2022-11-20T11:13:00.000Z</time>
      </trkpt>
      <trkpt lat="37.06136833" lon="-3.37080167">
        <ele>3149.0</ele>
        <time>2022-11-20T11:13:01.000Z</time>
      </trkpt>
      <trkpt lat="37.06136333" lon="-3.37080667">
        <ele>3149.0</ele>
        <time>2022-11-20T11:13:02.000Z</time>
      </trkpt>
      <trkpt lat="37.06135667" lon="-3.37081333">
        <ele>3150.0</ele>
        <time>2022-11-20T11:13:03.000Z</time>
      </trkpt>
      <trkpt lat="37.06134833" lon="-3.37081833">
        <ele>3150.0</ele>
        <time>2022-11-20T11:13:04.000Z</time>
      </trkpt>
      <trkpt lat="37.06133833" lon="-3.37082667">
        <ele>3150.0</ele>
        <time>2022-11-20T11:13:05.000Z</time>
      </trkpt>
      <trkpt lat="37.06133" lon="-3.37083333">
        <ele>3150.0</ele>
        <time>2022-11-20T11:13:06.000Z</time>
      </trkpt>
      <trkpt lat="37.06132" lon="-3.37084">
        <ele>3150.0</ele>
        <time>2022-11-20T11:13:07.000Z</time>
      </trkpt>
      <trkpt lat="37.06131167" lon="-3.37084833">
        <ele>3150.0</ele>
        <time>2022-11-20T11:13:08.000Z</time>
      </trkpt>
      <trkpt lat="37.0613" lon="-3.37085833">
        <ele>3150.0</ele>
        <time>2022-11-20T11:13:09.000Z</time>
      </trkpt>
      <trkpt lat="37.06129" lon="-3.37086667">
        <ele>3150.0</ele>
        <time>2022-11-20T11:13:10.000Z</time>
      </trkpt>
      <trkpt lat="37.06128167" lon="-3.370875">
        <ele>3150.0</ele>
        <time>2022-11-20T11:13:11.000Z</time>
      </trkpt>
      <trkpt lat="37.06127" lon="-3.37088">
        <ele>3150.0</ele>
        <time>2022-11-20T11:13:12.000Z</time>
      </trkpt>
      <trkpt lat="37.06126167" lon="-3.37088667">
        <ele>3150.0</ele>
        <time>2022-11-20T11:13:13.000Z</time>
      </trkpt>
      <trkpt lat="37.06125167" lon="-3.37089167">
        <ele>3150.0</ele>
        <time>2022-11-20T11:13:14.000Z</time>
      </trkpt>
      <trkpt lat="37.06124167" lon="-3.37089833">
        <ele>3150.0</ele>
        <time>2022-11-20T11:13:15.000Z</time>
      </trkpt>
      <trkpt lat="37.06123167" lon="-3.37090167">
        <ele>3150.0</ele>
        <time>2022-11-20T11:13:16.000Z</time>
      </trkpt>
      <trkpt lat="37.06122" lon="-3.370905">
        <ele>3150.0</ele>
        <time>2022-11-20T11:13:17.000Z</time>
      </trkpt>
      <trkpt lat="37.06121" lon="-3.37090833">
        <ele>3151.0</ele>
        <time>2022-11-20T11:13:18.000Z</time>
      </trkpt>
      <trkpt lat="37.0612" lon="-3.37090833">
        <ele>3151.0</ele>
        <time>2022-11-20T11:13:19.000Z</time>
      </trkpt>
      <trkpt lat="37.06119167" lon="-3.37091">
        <ele>3151.0</ele>
        <time>2022-11-20T11:13:20.000Z</time>
      </trkpt>
      <trkpt lat="37.06118333" lon="-3.370915">
        <ele>3151.0</ele>
        <time>2022-11-20T11:13:21.000Z</time>
      </trkpt>
      <trkpt lat="37.06117667" lon="-3.37092">
        <ele>3151.0</ele>
        <time>2022-11-20T11:13:22.000Z</time>
      </trkpt>
      <trkpt lat="37.06116833" lon="-3.37092333">
        <ele>3151.0</ele>
        <time>2022-11-20T11:13:23.000Z</time>
      </trkpt>
      <trkpt lat="37.06116167" lon="-3.37092667">
        <ele>3151.0</ele>
        <time>2022-11-20T11:13:24.000Z</time>
      </trkpt>
      <trkpt lat="37.06115167" lon="-3.37093333">
        <ele>3151.0</ele>
        <time>2022-11-20T11:13:25.000Z</time>
      </trkpt>
      <trkpt lat="37.06114333" lon="-3.37093833">
        <ele>3151.0</ele>
        <time>2022-11-20T11:13:26.000Z</time>
      </trkpt>
      <trkpt lat="37.06113333" lon="-3.370945">
        <ele>3151.0</ele>
        <time>2022-11-20T11:13:27.000Z</time>
      </trkpt>
      <trkpt lat="37.061125" lon="-3.37095333">
        <ele>3151.0</ele>
        <time>2022-11-20T11:13:28.000Z</time>
      </trkpt>
      <trkpt lat="37.06111667" lon="-3.37096">
        <ele>3151.0</ele>
        <time>2022-11-20T11:13:29.000Z</time>
      </trkpt>
      <trkpt lat="37.06110833" lon="-3.37096667">
        <ele>3151.0</ele>
        <time>2022-11-20T11:13:30.000Z</time>
      </trkpt>
      <trkpt lat="37.0611" lon="-3.37097">
        <ele>3151.0</ele>
        <time>2022-11-20T11:13:31.000Z</time>
      </trkpt>
      <trkpt lat="37.06109" lon="-3.37097667">
        <ele>3152.0</ele>
        <time>2022-11-20T11:13:32.000Z</time>
      </trkpt>
      <trkpt lat="37.06108" lon="-3.37098">
        <ele>3152.0</ele>
        <time>2022-11-20T11:13:33.000Z</time>
      </trkpt>
      <trkpt lat="37.06107" lon="-3.37098167">
        <ele>3152.0</ele>
        <time>2022-11-20T11:13:34.000Z</time>
      </trkpt>
      <trkpt lat="37.06106" lon="-3.370985">
        <ele>3152.0</ele>
        <time>2022-11-20T11:13:35.000Z</time>
      </trkpt>
      <trkpt lat="37.06105167" lon="-3.37098833">
        <ele>3152.0</ele>
        <time>2022-11-20T11:13:36.000Z</time>
      </trkpt>
      <trkpt lat="37.06104167" lon="-3.37099">
        <ele>3152.0</ele>
        <time>2022-11-20T11:13:37.000Z</time>
      </trkpt>
      <trkpt lat="37.06103167" lon="-3.37099167">
        <ele>3152.0</ele>
        <time>2022-11-20T11:13:38.000Z</time>
      </trkpt>
      <trkpt lat="37.061025" lon="-3.370995">
        <ele>3152.0</ele>
        <time>2022-11-20T11:13:39.000Z</time>
      </trkpt>
      <trkpt lat="37.06101667" lon="-3.37099833">
        <ele>3152.0</ele>
        <time>2022-11-20T11:13:40.000Z</time>
      </trkpt>
      <trkpt lat="37.06101" lon="-3.37100167">
        <ele>3152.0</ele>
        <time>2022-11-20T11:13:41.000Z</time>
      </trkpt>
      <trkpt lat="37.06099833" lon="-3.371005">
        <ele>3152.0</ele>
        <time>2022-11-20T11:13:42.000Z</time>
      </trkpt>
      <trkpt lat="37.06099" lon="-3.37101">
        <ele>3152.0</ele>
        <time>2022-11-20T11:13:43.000Z</time>
      </trkpt>
      <trkpt lat="37.06098" lon="-3.371015">
        <ele>3153.0</ele>
        <time>2022-11-20T11:13:44.000Z</time>
      </trkpt>
      <trkpt lat="37.06097167" lon="-3.37101833">
        <ele>3153.0</ele>
        <time>2022-11-20T11:13:45.000Z</time>
      </trkpt>
      <trkpt lat="37.060965" lon="-3.37102167">
        <ele>3153.0</ele>
        <time>2022-11-20T11:13:46.000Z</time>
      </trkpt>
      <trkpt lat="37.060955" lon="-3.371025">
        <ele>3153.0</ele>
        <time>2022-11-20T11:13:47.000Z</time>
      </trkpt>
      <trkpt lat="37.06094667" lon="-3.37103">
        <ele>3153.0</ele>
        <time>2022-11-20T11:13:48.000Z</time>
      </trkpt>
      <trkpt lat="37.06094" lon="-3.371035">
        <ele>3153.0</ele>
        <time>2022-11-20T11:13:49.000Z</time>
      </trkpt>
      <trkpt lat="37.06093333" lon="-3.37104">
        <ele>3153.0</ele>
        <time>2022-11-20T11:13:50.000Z</time>
      </trkpt>
      <trkpt lat="37.060925" lon="-3.371045">
        <ele>3153.0</ele>
        <time>2022-11-20T11:13:51.000Z</time>
      </trkpt>
      <trkpt lat="37.06091667" lon="-3.37104833">
        <ele>3153.0</ele>
        <time>2022-11-20T11:13:52.000Z</time>
      </trkpt>
      <trkpt lat="37.06091" lon="-3.37105333">
        <ele>3153.0</ele>
        <time>2022-11-20T11:13:53.000Z</time>
      </trkpt>
      <trkpt lat="37.06090333" lon="-3.37105833">
        <ele>3153.0</ele>
        <time>2022-11-20T11:13:54.000Z</time>
      </trkpt>
      <trkpt lat="37.06089333" lon="-3.37106333">
        <ele>3153.0</ele>
        <time>2022-11-20T11:13:55.000Z</time>
      </trkpt>
      <trkpt lat="37.06088667" lon="-3.37106833">
        <ele>3153.0</ele>
        <time>2022-11-20T11:13:56.000Z</time>
      </trkpt>
      <trkpt lat="37.06087667" lon="-3.371075">
        <ele>3154.0</ele>
        <time>2022-11-20T11:13:57.000Z</time>
      </trkpt>
      <trkpt lat="37.06086667" lon="-3.37108167">
        <ele>3154.0</ele>
        <time>2022-11-20T11:13:58.000Z</time>
      </trkpt>
      <trkpt lat="37.06085833" lon="-3.37108833">
        <ele>3154.0</ele>
        <time>2022-11-20T11:13:59.000Z</time>
      </trkpt>
      <trkpt lat="37.06085167" lon="-3.37109333">
        <ele>3154.0</ele>
        <time>2022-11-20T11:14:00.000Z</time>
      </trkpt>
      <trkpt lat="37.06084333" lon="-3.37109833">
        <ele>3154.0</ele>
        <time>2022-11-20T11:14:01.000Z</time>
      </trkpt>
      <trkpt lat="37.06083667" lon="-3.371105">
        <ele>3154.0</ele>
        <time>2022-11-20T11:14:02.000Z</time>
      </trkpt>
      <trkpt lat="37.06083" lon="-3.37111">
        <ele>3154.0</ele>
        <time>2022-11-20T11:14:03.000Z</time>
      </trkpt>
      <trkpt lat="37.06082" lon="-3.37111333">
        <ele>3154.0</ele>
        <time>2022-11-20T11:14:04.000Z</time>
      </trkpt>
      <trkpt lat="37.06081333" lon="-3.37111833">
        <ele>3154.0</ele>
        <time>2022-11-20T11:14:05.000Z</time>
      </trkpt>
      <trkpt lat="37.06080833" lon="-3.37112333">
        <ele>3154.0</ele>
        <time>2022-11-20T11:14:06.000Z</time>
      </trkpt>
      <trkpt lat="37.06080167" lon="-3.37113">
        <ele>3154.0</ele>
        <time>2022-11-20T11:14:07.000Z</time>
      </trkpt>
      <trkpt lat="37.06079333" lon="-3.37113833">
        <ele>3154.0</ele>
        <time>2022-11-20T11:14:08.000Z</time>
      </trkpt>
      <trkpt lat="37.06078667" lon="-3.37114667">
        <ele>3154.0</ele>
        <time>2022-11-20T11:14:09.000Z</time>
      </trkpt>
      <trkpt lat="37.06077667" lon="-3.371155">
        <ele>3154.0</ele>
        <time>2022-11-20T11:14:10.000Z</time>
      </trkpt>
      <trkpt lat="37.06076667" lon="-3.37116167">
        <ele>3155.0</ele>
        <time>2022-11-20T11:14:11.000Z</time>
      </trkpt>
      <trkpt lat="37.06076" lon="-3.37116833">
        <ele>3155.0</ele>
        <time>2022-11-20T11:14:12.000Z</time>
      </trkpt>
      <trkpt lat="37.06075167" lon="-3.37117167">
        <ele>3155.0</ele>
        <time>2022-11-20T11:14:13.000Z</time>
      </trkpt>
      <trkpt lat="37.060745" lon="-3.37117667">
        <ele>3155.0</ele>
        <time>2022-11-20T11:14:14.000Z</time>
      </trkpt>
      <trkpt lat="37.06073667" lon="-3.37118167">
        <ele>3155.0</ele>
        <time>2022-11-20T11:14:15.000Z</time>
      </trkpt>
      <trkpt lat="37.06072833" lon="-3.37118833">
        <ele>3155.0</ele>
        <time>2022-11-20T11:14:16.000Z</time>
      </trkpt>
      <trkpt lat="37.06072333" lon="-3.37119333">
        <ele>3155.0</ele>
        <time>2022-11-20T11:14:17.000Z</time>
      </trkpt>
      <trkpt lat="37.06071667" lon="-3.37120167">
        <ele>3155.0</ele>
        <time>2022-11-20T11:14:18.000Z</time>
      </trkpt>
      <trkpt lat="37.06071" lon="-3.37120667">
        <ele>3155.0</ele>
        <time>2022-11-20T11:14:19.000Z</time>
      </trkpt>
      <trkpt lat="37.06070333" lon="-3.37121167">
        <ele>3155.0</ele>
        <time>2022-11-20T11:14:20.000Z</time>
      </trkpt>
      <trkpt lat="37.06069833" lon="-3.37121667">
        <ele>3155.0</ele>
        <time>2022-11-20T11:14:21.000Z</time>
      </trkpt>
      <trkpt lat="37.06069333" lon="-3.37122167">
        <ele>3155.0</ele>
        <time>2022-11-20T11:14:22.000Z</time>
      </trkpt>
      <trkpt lat="37.06068667" lon="-3.37122667">
        <ele>3156.0</ele>
        <time>2022-11-20T11:14:23.000Z</time>
      </trkpt>
      <trkpt lat="37.06068" lon="-3.37123">
        <ele>3156.0</ele>
        <time>2022-11-20T11:14:24.000Z</time>
      </trkpt>
      <trkpt lat="37.06067333" lon="-3.371235">
        <ele>3156.0</ele>
        <time>2022-11-20T11:14:25.000Z</time>
      </trkpt>
      <trkpt lat="37.06066667" lon="-3.37124333">
        <ele>3156.0</ele>
        <time>2022-11-20T11:14:26.000Z</time>
      </trkpt>
      <trkpt lat="37.06066167" lon="-3.37125167">
        <ele>3156.0</ele>
        <time>2022-11-20T11:14:27.000Z</time>
      </trkpt>
      <trkpt lat="37.06065333" lon="-3.37126">
        <ele>3156.0</ele>
        <time>2022-11-20T11:14:28.000Z</time>
      </trkpt>
      <trkpt lat="37.06064667" lon="-3.37126667">
        <ele>3156.0</ele>
        <time>2022-11-20T11:14:29.000Z</time>
      </trkpt>
      <trkpt lat="37.06063833" lon="-3.37127667">
        <ele>3156.0</ele>
        <time>2022-11-20T11:14:30.000Z</time>
      </trkpt>
      <trkpt lat="37.06063" lon="-3.37128167">
        <ele>3156.0</ele>
        <time>2022-11-20T11:14:31.000Z</time>
      </trkpt>
      <trkpt lat="37.06062" lon="-3.37129">
        <ele>3156.0</ele>
        <time>2022-11-20T11:14:32.000Z</time>
      </trkpt>
      <trkpt lat="37.06061167" lon="-3.371295">
        <ele>3156.0</ele>
        <time>2022-11-20T11:14:33.000Z</time>
      </trkpt>
      <trkpt lat="37.060605" lon="-3.37130167">
        <ele>3157.0</ele>
        <time>2022-11-20T11:14:34.000Z</time>
      </trkpt>
      <trkpt lat="37.06059667" lon="-3.37131">
        <ele>3157.0</ele>
        <time>2022-11-20T11:14:35.000Z</time>
      </trkpt>
      <trkpt lat="37.06058833" lon="-3.37131667">
        <ele>3157.0</ele>
        <time>2022-11-20T11:14:36.000Z</time>
      </trkpt>
      <trkpt lat="37.06058" lon="-3.371325">
        <ele>3157.0</ele>
        <time>2022-11-20T11:14:37.000Z</time>
      </trkpt>
      <trkpt lat="37.06057167" lon="-3.371335">
        <ele>3157.0</ele>
        <time>2022-11-20T11:14:38.000Z</time>
      </trkpt>
      <trkpt lat="37.06056333" lon="-3.37134333">
        <ele>3157.0</ele>
        <time>2022-11-20T11:14:39.000Z</time>
      </trkpt>
      <trkpt lat="37.060555" lon="-3.37135">
        <ele>3157.0</ele>
        <time>2022-11-20T11:14:40.000Z</time>
      </trkpt>
      <trkpt lat="37.06055" lon="-3.37135833">
        <ele>3157.0</ele>
        <time>2022-11-20T11:14:41.000Z</time>
      </trkpt>
      <trkpt lat="37.06054167" lon="-3.37136833">
        <ele>3157.0</ele>
        <time>2022-11-20T11:14:42.000Z</time>
      </trkpt>
      <trkpt lat="37.060535" lon="-3.371375">
        <ele>3157.0</ele>
        <time>2022-11-20T11:14:43.000Z</time>
      </trkpt>
      <trkpt lat="37.06052667" lon="-3.37138167">
        <ele>3158.0</ele>
        <time>2022-11-20T11:14:44.000Z</time>
      </trkpt>
      <trkpt lat="37.06051667" lon="-3.37139">
        <ele>3158.0</ele>
        <time>2022-11-20T11:14:45.000Z</time>
      </trkpt>
      <trkpt lat="37.06050833" lon="-3.371395">
        <ele>3158.0</ele>
        <time>2022-11-20T11:14:46.000Z</time>
      </trkpt>
      <trkpt lat="37.06049833" lon="-3.37140333">
        <ele>3158.0</ele>
        <time>2022-11-20T11:14:47.000Z</time>
      </trkpt>
      <trkpt lat="37.06049" lon="-3.37140833">
        <ele>3158.0</ele>
        <time>2022-11-20T11:14:48.000Z</time>
      </trkpt>
      <trkpt lat="37.06048167" lon="-3.371415">
        <ele>3158.0</ele>
        <time>2022-11-20T11:14:49.000Z</time>
      </trkpt>
      <trkpt lat="37.06047667" lon="-3.37142167">
        <ele>3158.0</ele>
        <time>2022-11-20T11:14:50.000Z</time>
      </trkpt>
      <trkpt lat="37.06046833" lon="-3.37143">
        <ele>3158.0</ele>
        <time>2022-11-20T11:14:51.000Z</time>
      </trkpt>
      <trkpt lat="37.06046" lon="-3.37143667">
        <ele>3158.0</ele>
        <time>2022-11-20T11:14:52.000Z</time>
      </trkpt>
      <trkpt lat="37.06045" lon="-3.371445">
        <ele>3158.0</ele>
        <time>2022-11-20T11:14:53.000Z</time>
      </trkpt>
      <trkpt lat="37.06044167" lon="-3.37145333">
        <ele>3158.0</ele>
        <time>2022-11-20T11:14:54.000Z</time>
      </trkpt>
      <trkpt lat="37.06043333" lon="-3.37146167">
        <ele>3159.0</ele>
        <time>2022-11-20T11:14:55.000Z</time>
      </trkpt>
      <trkpt lat="37.060425" lon="-3.37147167">
        <ele>3159.0</ele>
        <time>2022-11-20T11:14:56.000Z</time>
      </trkpt>
      <trkpt lat="37.060415" lon="-3.37147667">
        <ele>3159.0</ele>
        <time>2022-11-20T11:14:57.000Z</time>
      </trkpt>
      <trkpt lat="37.060405" lon="-3.37148333">
        <ele>3159.0</ele>
        <time>2022-11-20T11:14:58.000Z</time>
      </trkpt>
      <trkpt lat="37.06039667" lon="-3.37148833">
        <ele>3159.0</ele>
        <time>2022-11-20T11:14:59.000Z</time>
      </trkpt>
      <trkpt lat="37.06038833" lon="-3.371495">
        <ele>3159.0</ele>
        <time>2022-11-20T11:15:00.000Z</time>
      </trkpt>
      <trkpt lat="37.06038" lon="-3.3715">
        <ele>3159.0</ele>
        <time>2022-11-20T11:15:01.000Z</time>
      </trkpt>
      <trkpt lat="37.06037167" lon="-3.371505">
        <ele>3159.0</ele>
        <time>2022-11-20T11:15:02.000Z</time>
      </trkpt>
      <trkpt lat="37.060365" lon="-3.37151">
        <ele>3159.0</ele>
        <time>2022-11-20T11:15:03.000Z</time>
      </trkpt>
      <trkpt lat="37.06036" lon="-3.37151667">
        <ele>3159.0</ele>
        <time>2022-11-20T11:15:04.000Z</time>
      </trkpt>
      <trkpt lat="37.06035667" lon="-3.37152333">
        <ele>3159.0</ele>
        <time>2022-11-20T11:15:05.000Z</time>
      </trkpt>
      <trkpt lat="37.060355" lon="-3.37153667">
        <ele>3159.0</ele>
        <time>2022-11-20T11:15:06.000Z</time>
      </trkpt>
      <trkpt lat="37.06035" lon="-3.37154833">
        <ele>3159.0</ele>
        <time>2022-11-20T11:15:07.000Z</time>
      </trkpt>
      <trkpt lat="37.06034333" lon="-3.37155833">
        <ele>3159.0</ele>
        <time>2022-11-20T11:15:08.000Z</time>
      </trkpt>
      <trkpt lat="37.060335" lon="-3.37156333">
        <ele>3159.0</ele>
        <time>2022-11-20T11:15:09.000Z</time>
      </trkpt>
      <trkpt lat="37.060325" lon="-3.37156833">
        <ele>3160.0</ele>
        <time>2022-11-20T11:15:10.000Z</time>
      </trkpt>
      <trkpt lat="37.060315" lon="-3.37157333">
        <ele>3160.0</ele>
        <time>2022-11-20T11:15:11.000Z</time>
      </trkpt>
      <trkpt lat="37.060305" lon="-3.37157833">
        <ele>3160.0</ele>
        <time>2022-11-20T11:15:12.000Z</time>
      </trkpt>
      <trkpt lat="37.060295" lon="-3.37158167">
        <ele>3160.0</ele>
        <time>2022-11-20T11:15:13.000Z</time>
      </trkpt>
      <trkpt lat="37.060285" lon="-3.371585">
        <ele>3160.0</ele>
        <time>2022-11-20T11:15:14.000Z</time>
      </trkpt>
      <trkpt lat="37.06027333" lon="-3.37158667">
        <ele>3160.0</ele>
        <time>2022-11-20T11:15:15.000Z</time>
      </trkpt>
      <trkpt lat="37.06026333" lon="-3.37159">
        <ele>3160.0</ele>
        <time>2022-11-20T11:15:16.000Z</time>
      </trkpt>
      <trkpt lat="37.060255" lon="-3.371595">
        <ele>3160.0</ele>
        <time>2022-11-20T11:15:17.000Z</time>
      </trkpt>
      <trkpt lat="37.060245" lon="-3.37159833">
        <ele>3161.0</ele>
        <time>2022-11-20T11:15:18.000Z</time>
      </trkpt>
      <trkpt lat="37.06023667" lon="-3.371605">
        <ele>3161.0</ele>
        <time>2022-11-20T11:15:19.000Z</time>
      </trkpt>
      <trkpt lat="37.06022833" lon="-3.37161">
        <ele>3161.0</ele>
        <time>2022-11-20T11:15:20.000Z</time>
      </trkpt>
      <trkpt lat="37.06021667" lon="-3.37161167">
        <ele>3161.0</ele>
        <time>2022-11-20T11:15:21.000Z</time>
      </trkpt>
      <trkpt lat="37.06020667" lon="-3.37161667">
        <ele>3161.0</ele>
        <time>2022-11-20T11:15:22.000Z</time>
      </trkpt>
      <trkpt lat="37.06019667" lon="-3.37162167">
        <ele>3161.0</ele>
        <time>2022-11-20T11:15:23.000Z</time>
      </trkpt>
      <trkpt lat="37.06018667" lon="-3.37162667">
        <ele>3161.0</ele>
        <time>2022-11-20T11:15:24.000Z</time>
      </trkpt>
      <trkpt lat="37.060175" lon="-3.37163">
        <ele>3161.0</ele>
        <time>2022-11-20T11:15:25.000Z</time>
      </trkpt>
      <trkpt lat="37.060165" lon="-3.37163333">
        <ele>3161.0</ele>
        <time>2022-11-20T11:15:26.000Z</time>
      </trkpt>
      <trkpt lat="37.060155" lon="-3.37163833">
        <ele>3161.0</ele>
        <time>2022-11-20T11:15:27.000Z</time>
      </trkpt>
      <trkpt lat="37.060145" lon="-3.37164333">
        <ele>3162.0</ele>
        <time>2022-11-20T11:15:28.000Z</time>
      </trkpt>
      <trkpt lat="37.060135" lon="-3.37164667">
        <ele>3162.0</ele>
        <time>2022-11-20T11:15:29.000Z</time>
      </trkpt>
      <trkpt lat="37.060125" lon="-3.37165">
        <ele>3162.0</ele>
        <time>2022-11-20T11:15:30.000Z</time>
      </trkpt>
      <trkpt lat="37.060115" lon="-3.371655">
        <ele>3162.0</ele>
        <time>2022-11-20T11:15:31.000Z</time>
      </trkpt>
      <trkpt lat="37.06010167" lon="-3.37165833">
        <ele>3162.0</ele>
        <time>2022-11-20T11:15:32.000Z</time>
      </trkpt>
      <trkpt lat="37.06009" lon="-3.37166">
        <ele>3162.0</ele>
        <time>2022-11-20T11:15:33.000Z</time>
      </trkpt>
      <trkpt lat="37.06007833" lon="-3.37166167">
        <ele>3162.0</ele>
        <time>2022-11-20T11:15:34.000Z</time>
      </trkpt>
      <trkpt lat="37.06006833" lon="-3.37166167">
        <ele>3162.0</ele>
        <time>2022-11-20T11:15:35.000Z</time>
      </trkpt>
      <trkpt lat="37.06006" lon="-3.37166167">
        <ele>3163.0</ele>
        <time>2022-11-20T11:15:36.000Z</time>
      </trkpt>
      <trkpt lat="37.06005833" lon="-3.37166167">
        <ele>3163.0</ele>
        <time>2022-11-20T11:15:37.000Z</time>
      </trkpt>
      <trkpt lat="37.06005833" lon="-3.37166167">
        <ele>3163.0</ele>
        <time>2022-11-20T11:15:38.000Z</time>
      </trkpt>
      <trkpt lat="37.06005833" lon="-3.37166167">
        <ele>3162.0</ele>
        <time>2022-11-20T11:15:39.000Z</time>
      </trkpt>
      <trkpt lat="37.06005833" lon="-3.37166333">
        <ele>3163.0</ele>
        <time>2022-11-20T11:15:40.000Z</time>
      </trkpt>
      <trkpt lat="37.06005833" lon="-3.37166333">
        <ele>3163.0</ele>
        <time>2022-11-20T11:15:41.000Z</time>
      </trkpt>
      <trkpt lat="37.06005667" lon="-3.37166167">
        <ele>3163.0</ele>
        <time>2022-11-20T11:15:42.000Z</time>
      </trkpt>
      <trkpt lat="37.06005" lon="-3.37165667">
        <ele>3163.0</ele>
        <time>2022-11-20T11:15:43.000Z</time>
      </trkpt>
      <trkpt lat="37.060045" lon="-3.37164667">
        <ele>3163.0</ele>
        <time>2022-11-20T11:15:44.000Z</time>
      </trkpt>
      <trkpt lat="37.06004" lon="-3.37163833">
        <ele>3163.0</ele>
        <time>2022-11-20T11:15:45.000Z</time>
      </trkpt>
      <trkpt lat="37.06003667" lon="-3.37163">
        <ele>3163.0</ele>
        <time>2022-11-20T11:15:46.000Z</time>
      </trkpt>
      <trkpt lat="37.06003333" lon="-3.37162167">
        <ele>3163.0</ele>
        <time>2022-11-20T11:15:47.000Z</time>
      </trkpt>
      <trkpt lat="37.06003167" lon="-3.37161833">
        <ele>3163.0</ele>
        <time>2022-11-20T11:15:48.000Z</time>
      </trkpt>
      <trkpt lat="37.06002833" lon="-3.371615">
        <ele>3163.0</ele>
        <time>2022-11-20T11:15:49.000Z</time>
      </trkpt>
      <trkpt lat="37.060025" lon="-3.37161167">
        <ele>3163.0</ele>
        <time>2022-11-20T11:15:50.000Z</time>
      </trkpt>
      <trkpt lat="37.06002" lon="-3.37160833">
        <ele>3163.0</ele>
        <time>2022-11-20T11:15:51.000Z</time>
      </trkpt>
      <trkpt lat="37.060015" lon="-3.37160667">
        <ele>3164.0</ele>
        <time>2022-11-20T11:15:52.000Z</time>
      </trkpt>
      <trkpt lat="37.06001333" lon="-3.371605">
        <ele>3164.0</ele>
        <time>2022-11-20T11:15:53.000Z</time>
      </trkpt>
      <trkpt lat="37.06001" lon="-3.37159833">
        <ele>3164.0</ele>
        <time>2022-11-20T11:15:54.000Z</time>
      </trkpt>
      <trkpt lat="37.06000667" lon="-3.37159333">
        <ele>3164.0</ele>
        <time>2022-11-20T11:15:55.000Z</time>
      </trkpt>
      <trkpt lat="37.060005" lon="-3.37159167">
        <ele>3164.0</ele>
        <time>2022-11-20T11:15:56.000Z</time>
      </trkpt>
      <trkpt lat="37.06000167" lon="-3.37158833">
        <ele>3164.0</ele>
        <time>2022-11-20T11:15:57.000Z</time>
      </trkpt>
      <trkpt lat="37.05999833" lon="-3.371585">
        <ele>3165.0</ele>
        <time>2022-11-20T11:15:58.000Z</time>
      </trkpt>
      <trkpt lat="37.059995" lon="-3.37158333">
        <ele>3165.0</ele>
        <time>2022-11-20T11:15:59.000Z</time>
      </trkpt>
      <trkpt lat="37.05999" lon="-3.371585">
        <ele>3165.0</ele>
        <time>2022-11-20T11:16:00.000Z</time>
      </trkpt>
      <trkpt lat="37.05998833" lon="-3.371585">
        <ele>3165.0</ele>
        <time>2022-11-20T11:16:01.000Z</time>
      </trkpt>
      <trkpt lat="37.05998667" lon="-3.37158333">
        <ele>3165.0</ele>
        <time>2022-11-20T11:16:02.000Z</time>
      </trkpt>
      <trkpt lat="37.05998333" lon="-3.371585">
        <ele>3165.0</ele>
        <time>2022-11-20T11:16:03.000Z</time>
      </trkpt>
      <trkpt lat="37.05998167" lon="-3.371585">
        <ele>3165.0</ele>
        <time>2022-11-20T11:16:04.000Z</time>
      </trkpt>
      <trkpt lat="37.05997833" lon="-3.371585">
        <ele>3166.0</ele>
        <time>2022-11-20T11:16:05.000Z</time>
      </trkpt>
      <trkpt lat="37.05997333" lon="-3.371585">
        <ele>3166.0</ele>
        <time>2022-11-20T11:16:06.000Z</time>
      </trkpt>
      <trkpt lat="37.05997" lon="-3.37158">
        <ele>3166.0</ele>
        <time>2022-11-20T11:16:07.000Z</time>
      </trkpt>
      <trkpt lat="37.05996667" lon="-3.371575">
        <ele>3166.0</ele>
        <time>2022-11-20T11:16:08.000Z</time>
      </trkpt>
      <trkpt lat="37.059965" lon="-3.37157167">
        <ele>3166.0</ele>
        <time>2022-11-20T11:16:09.000Z</time>
      </trkpt>
      <trkpt lat="37.05996333" lon="-3.37156833">
        <ele>3166.0</ele>
        <time>2022-11-20T11:16:10.000Z</time>
      </trkpt>
      <trkpt lat="37.05996667" lon="-3.371565">
        <ele>3166.0</ele>
        <time>2022-11-20T11:16:11.000Z</time>
      </trkpt>
      <trkpt lat="37.05996833" lon="-3.37156">
        <ele>3166.0</ele>
        <time>2022-11-20T11:16:12.000Z</time>
      </trkpt>
      <trkpt lat="37.05997" lon="-3.37155667">
        <ele>3166.0</ele>
        <time>2022-11-20T11:16:13.000Z</time>
      </trkpt>
      <trkpt lat="37.05997167" lon="-3.37155333">
        <ele>3166.0</ele>
        <time>2022-11-20T11:16:14.000Z</time>
      </trkpt>
      <trkpt lat="37.05997167" lon="-3.37154833">
        <ele>3166.0</ele>
        <time>2022-11-20T11:16:15.000Z</time>
      </trkpt>
      <trkpt lat="37.05997167" lon="-3.371545">
        <ele>3166.0</ele>
        <time>2022-11-20T11:16:16.000Z</time>
      </trkpt>
      <trkpt lat="37.05997" lon="-3.371545">
        <ele>3166.0</ele>
        <time>2022-11-20T11:16:17.000Z</time>
      </trkpt>
      <trkpt lat="37.05996833" lon="-3.371545">
        <ele>3167.0</ele>
        <time>2022-11-20T11:16:18.000Z</time>
      </trkpt>
      <trkpt lat="37.05996333" lon="-3.37154333">
        <ele>3167.0</ele>
        <time>2022-11-20T11:16:19.000Z</time>
      </trkpt>
      <trkpt lat="37.05996" lon="-3.37154333">
        <ele>3167.0</ele>
        <time>2022-11-20T11:16:20.000Z</time>
      </trkpt>
      <trkpt lat="37.059955" lon="-3.37154167">
        <ele>3167.0</ele>
        <time>2022-11-20T11:16:21.000Z</time>
      </trkpt>
      <trkpt lat="37.05995" lon="-3.37154167">
        <ele>3167.0</ele>
        <time>2022-11-20T11:16:22.000Z</time>
      </trkpt>
      <trkpt lat="37.05994667" lon="-3.37154">
        <ele>3167.0</ele>
        <time>2022-11-20T11:16:23.000Z</time>
      </trkpt>
      <trkpt lat="37.05994333" lon="-3.37154">
        <ele>3167.0</ele>
        <time>2022-11-20T11:16:24.000Z</time>
      </trkpt>
      <trkpt lat="37.05994167" lon="-3.37153833">
        <ele>3167.0</ele>
        <time>2022-11-20T11:16:25.000Z</time>
      </trkpt>
      <trkpt lat="37.05993667" lon="-3.37154">
        <ele>3168.0</ele>
        <time>2022-11-20T11:16:26.000Z</time>
      </trkpt>
      <trkpt lat="37.05993167" lon="-3.37153667">
        <ele>3168.0</ele>
        <time>2022-11-20T11:16:27.000Z</time>
      </trkpt>
      <trkpt lat="37.05992667" lon="-3.37153167">
        <ele>3168.0</ele>
        <time>2022-11-20T11:16:28.000Z</time>
      </trkpt>
      <trkpt lat="37.05992333" lon="-3.37152667">
        <ele>3168.0</ele>
        <time>2022-11-20T11:16:29.000Z</time>
      </trkpt>
      <trkpt lat="37.05992167" lon="-3.37152">
        <ele>3169.0</ele>
        <time>2022-11-20T11:16:30.000Z</time>
      </trkpt>
      <trkpt lat="37.05992167" lon="-3.37151667">
        <ele>3169.0</ele>
        <time>2022-11-20T11:16:31.000Z</time>
      </trkpt>
      <trkpt lat="37.05992333" lon="-3.37151">
        <ele>3169.0</ele>
        <time>2022-11-20T11:16:32.000Z</time>
      </trkpt>
      <trkpt lat="37.059925" lon="-3.371505">
        <ele>3169.0</ele>
        <time>2022-11-20T11:16:33.000Z</time>
      </trkpt>
      <trkpt lat="37.05992667" lon="-3.37150333">
        <ele>3169.0</ele>
        <time>2022-11-20T11:16:34.000Z</time>
      </trkpt>
      <trkpt lat="37.05993" lon="-3.3715">
        <ele>3169.0</ele>
        <time>2022-11-20T11:16:35.000Z</time>
      </trkpt>
      <trkpt lat="37.05993167" lon="-3.37149667">
        <ele>3169.0</ele>
        <time>2022-11-20T11:16:36.000Z</time>
      </trkpt>
      <trkpt lat="37.05993167" lon="-3.37149333">
        <ele>3169.0</ele>
        <time>2022-11-20T11:16:37.000Z</time>
      </trkpt>
      <trkpt lat="37.05992833" lon="-3.371485">
        <ele>3169.0</ele>
        <time>2022-11-20T11:16:38.000Z</time>
      </trkpt>
      <trkpt lat="37.05992667" lon="-3.37148">
        <ele>3169.0</ele>
        <time>2022-11-20T11:16:39.000Z</time>
      </trkpt>
      <trkpt lat="37.05992667" lon="-3.37147833">
        <ele>3169.0</ele>
        <time>2022-11-20T11:16:40.000Z</time>
      </trkpt>
      <trkpt lat="37.05992667" lon="-3.37147833">
        <ele>3169.0</ele>
        <time>2022-11-20T11:16:41.000Z</time>
      </trkpt>
      <trkpt lat="37.05992167" lon="-3.371475">
        <ele>3169.0</ele>
        <time>2022-11-20T11:16:42.000Z</time>
      </trkpt>
      <trkpt lat="37.05992" lon="-3.371475">
        <ele>3169.0</ele>
        <time>2022-11-20T11:16:43.000Z</time>
      </trkpt>
      <trkpt lat="37.05991667" lon="-3.37147333">
        <ele>3170.0</ele>
        <time>2022-11-20T11:16:44.000Z</time>
      </trkpt>
      <trkpt lat="37.05991167" lon="-3.37147333">
        <ele>3170.0</ele>
        <time>2022-11-20T11:16:45.000Z</time>
      </trkpt>
      <trkpt lat="37.05990667" lon="-3.37147">
        <ele>3170.0</ele>
        <time>2022-11-20T11:16:46.000Z</time>
      </trkpt>
      <trkpt lat="37.059905" lon="-3.37146833">
        <ele>3170.0</ele>
        <time>2022-11-20T11:16:47.000Z</time>
      </trkpt>
      <trkpt lat="37.05990167" lon="-3.37146667">
        <ele>3170.0</ele>
        <time>2022-11-20T11:16:48.000Z</time>
      </trkpt>
      <trkpt lat="37.05989833" lon="-3.37146833">
        <ele>3170.0</ele>
        <time>2022-11-20T11:16:49.000Z</time>
      </trkpt>
      <trkpt lat="37.05989167" lon="-3.37146667">
        <ele>3170.0</ele>
        <time>2022-11-20T11:16:50.000Z</time>
      </trkpt>
      <trkpt lat="37.05988667" lon="-3.371465">
        <ele>3171.0</ele>
        <time>2022-11-20T11:16:51.000Z</time>
      </trkpt>
      <trkpt lat="37.05988333" lon="-3.371465">
        <ele>3171.0</ele>
        <time>2022-11-20T11:16:52.000Z</time>
      </trkpt>
      <trkpt lat="37.05988333" lon="-3.37145667">
        <ele>3171.0</ele>
        <time>2022-11-20T11:16:53.000Z</time>
      </trkpt>
      <trkpt lat="37.05988333" lon="-3.37145167">
        <ele>3171.0</ele>
        <time>2022-11-20T11:16:54.000Z</time>
      </trkpt>
      <trkpt lat="37.05988333" lon="-3.37144833">
        <ele>3171.0</ele>
        <time>2022-11-20T11:16:55.000Z</time>
      </trkpt>
      <trkpt lat="37.05988333" lon="-3.371445">
        <ele>3171.0</ele>
        <time>2022-11-20T11:16:56.000Z</time>
      </trkpt>
      <trkpt lat="37.059885" lon="-3.37144167">
        <ele>3172.0</ele>
        <time>2022-11-20T11:16:57.000Z</time>
      </trkpt>
      <trkpt lat="37.059885" lon="-3.37143667">
        <ele>3172.0</ele>
        <time>2022-11-20T11:16:58.000Z</time>
      </trkpt>
      <trkpt lat="37.059885" lon="-3.371435">
        <ele>3172.0</ele>
        <time>2022-11-20T11:16:59.000Z</time>
      </trkpt>
      <trkpt lat="37.059885" lon="-3.37143167">
        <ele>3172.0</ele>
        <time>2022-11-20T11:17:00.000Z</time>
      </trkpt>
      <trkpt lat="37.05988" lon="-3.37143">
        <ele>3172.0</ele>
        <time>2022-11-20T11:17:01.000Z</time>
      </trkpt>
      <trkpt lat="37.05988" lon="-3.37142667">
        <ele>3172.0</ele>
        <time>2022-11-20T11:17:02.000Z</time>
      </trkpt>
      <trkpt lat="37.05988" lon="-3.37142167">
        <ele>3172.0</ele>
        <time>2022-11-20T11:17:03.000Z</time>
      </trkpt>
      <trkpt lat="37.05988" lon="-3.37142">
        <ele>3173.0</ele>
        <time>2022-11-20T11:17:04.000Z</time>
      </trkpt>
      <trkpt lat="37.059875" lon="-3.37141667">
        <ele>3173.0</ele>
        <time>2022-11-20T11:17:05.000Z</time>
      </trkpt>
      <trkpt lat="37.05987333" lon="-3.37141667">
        <ele>3173.0</ele>
        <time>2022-11-20T11:17:06.000Z</time>
      </trkpt>
      <trkpt lat="37.05986833" lon="-3.371415">
        <ele>3173.0</ele>
        <time>2022-11-20T11:17:07.000Z</time>
      </trkpt>
      <trkpt lat="37.059865" lon="-3.37141333">
        <ele>3173.0</ele>
        <time>2022-11-20T11:17:08.000Z</time>
      </trkpt>
      <trkpt lat="37.05986333" lon="-3.37140833">
        <ele>3174.0</ele>
        <time>2022-11-20T11:17:09.000Z</time>
      </trkpt>
      <trkpt lat="37.05986" lon="-3.371405">
        <ele>3174.0</ele>
        <time>2022-11-20T11:17:10.000Z</time>
      </trkpt>
      <trkpt lat="37.05985667" lon="-3.37140167">
        <ele>3174.0</ele>
        <time>2022-11-20T11:17:11.000Z</time>
      </trkpt>
      <trkpt lat="37.059855" lon="-3.37140167">
        <ele>3174.0</ele>
        <time>2022-11-20T11:17:12.000Z</time>
      </trkpt>
      <trkpt lat="37.05985333" lon="-3.3714">
        <ele>3174.0</ele>
        <time>2022-11-20T11:17:13.000Z</time>
      </trkpt>
      <trkpt lat="37.05985" lon="-3.37139833">
        <ele>3174.0</ele>
        <time>2022-11-20T11:17:14.000Z</time>
      </trkpt>
      <trkpt lat="37.059845" lon="-3.37139833">
        <ele>3174.0</ele>
        <time>2022-11-20T11:17:15.000Z</time>
      </trkpt>
      <trkpt lat="37.05984333" lon="-3.37139833">
        <ele>3174.0</ele>
        <time>2022-11-20T11:17:16.000Z</time>
      </trkpt>
      <trkpt lat="37.05984" lon="-3.37139667">
        <ele>3174.0</ele>
        <time>2022-11-20T11:17:17.000Z</time>
      </trkpt>
      <trkpt lat="37.05983333" lon="-3.37139667">
        <ele>3175.0</ele>
        <time>2022-11-20T11:17:18.000Z</time>
      </trkpt>
      <trkpt lat="37.05983" lon="-3.37139667">
        <ele>3175.0</ele>
        <time>2022-11-20T11:17:19.000Z</time>
      </trkpt>
      <trkpt lat="37.05982333" lon="-3.37139667">
        <ele>3175.0</ele>
        <time>2022-11-20T11:17:20.000Z</time>
      </trkpt>
      <trkpt lat="37.05982" lon="-3.37139333">
        <ele>3175.0</ele>
        <time>2022-11-20T11:17:21.000Z</time>
      </trkpt>
      <trkpt lat="37.05982" lon="-3.37138833">
        <ele>3175.0</ele>
        <time>2022-11-20T11:17:22.000Z</time>
      </trkpt>
      <trkpt lat="37.05981833" lon="-3.37138333">
        <ele>3175.0</ele>
        <time>2022-11-20T11:17:23.000Z</time>
      </trkpt>
      <trkpt lat="37.05982167" lon="-3.37137833">
        <ele>3175.0</ele>
        <time>2022-11-20T11:17:24.000Z</time>
      </trkpt>
      <trkpt lat="37.05982333" lon="-3.37137167">
        <ele>3176.0</ele>
        <time>2022-11-20T11:17:25.000Z</time>
      </trkpt>
      <trkpt lat="37.05982333" lon="-3.37136833">
        <ele>3176.0</ele>
        <time>2022-11-20T11:17:26.000Z</time>
      </trkpt>
      <trkpt lat="37.05982333" lon="-3.37136333">
        <ele>3176.0</ele>
        <time>2022-11-20T11:17:27.000Z</time>
      </trkpt>
      <trkpt lat="37.05982167" lon="-3.37136">
        <ele>3176.0</ele>
        <time>2022-11-20T11:17:28.000Z</time>
      </trkpt>
      <trkpt lat="37.05982" lon="-3.37135667">
        <ele>3176.0</ele>
        <time>2022-11-20T11:17:29.000Z</time>
      </trkpt>
      <trkpt lat="37.05981833" lon="-3.371355">
        <ele>3176.0</ele>
        <time>2022-11-20T11:17:30.000Z</time>
      </trkpt>
      <trkpt lat="37.059815" lon="-3.37135333">
        <ele>3176.0</ele>
        <time>2022-11-20T11:17:31.000Z</time>
      </trkpt>
      <trkpt lat="37.05981" lon="-3.37135167">
        <ele>3176.0</ele>
        <time>2022-11-20T11:17:32.000Z</time>
      </trkpt>
      <trkpt lat="37.05980667" lon="-3.37135">
        <ele>3176.0</ele>
        <time>2022-11-20T11:17:33.000Z</time>
      </trkpt>
      <trkpt lat="37.05980167" lon="-3.37134667">
        <ele>3177.0</ele>
        <time>2022-11-20T11:17:34.000Z</time>
      </trkpt>
      <trkpt lat="37.05979667" lon="-3.371345">
        <ele>3177.0</ele>
        <time>2022-11-20T11:17:35.000Z</time>
      </trkpt>
      <trkpt lat="37.05979333" lon="-3.371345">
        <ele>3177.0</ele>
        <time>2022-11-20T11:17:36.000Z</time>
      </trkpt>
      <trkpt lat="37.05979" lon="-3.37134">
        <ele>3177.0</ele>
        <time>2022-11-20T11:17:37.000Z</time>
      </trkpt>
      <trkpt lat="37.05978833" lon="-3.37133">
        <ele>3177.0</ele>
        <time>2022-11-20T11:17:38.000Z</time>
      </trkpt>
      <trkpt lat="37.05978833" lon="-3.371325">
        <ele>3177.0</ele>
        <time>2022-11-20T11:17:39.000Z</time>
      </trkpt>
      <trkpt lat="37.05979" lon="-3.37132167">
        <ele>3177.0</ele>
        <time>2022-11-20T11:17:40.000Z</time>
      </trkpt>
      <trkpt lat="37.05979167" lon="-3.37131667">
        <ele>3177.0</ele>
        <time>2022-11-20T11:17:41.000Z</time>
      </trkpt>
      <trkpt lat="37.05979167" lon="-3.37131167">
        <ele>3177.0</ele>
        <time>2022-11-20T11:17:42.000Z</time>
      </trkpt>
      <trkpt lat="37.05979333" lon="-3.37130833">
        <ele>3177.0</ele>
        <time>2022-11-20T11:17:43.000Z</time>
      </trkpt>
      <trkpt lat="37.05979333" lon="-3.37130333">
        <ele>3178.0</ele>
        <time>2022-11-20T11:17:44.000Z</time>
      </trkpt>
      <trkpt lat="37.05979333" lon="-3.37129667">
        <ele>3178.0</ele>
        <time>2022-11-20T11:17:45.000Z</time>
      </trkpt>
      <trkpt lat="37.05979167" lon="-3.37129333">
        <ele>3178.0</ele>
        <time>2022-11-20T11:17:46.000Z</time>
      </trkpt>
      <trkpt lat="37.05979167" lon="-3.37129">
        <ele>3178.0</ele>
        <time>2022-11-20T11:17:47.000Z</time>
      </trkpt>
      <trkpt lat="37.05978833" lon="-3.371285">
        <ele>3178.0</ele>
        <time>2022-11-20T11:17:48.000Z</time>
      </trkpt>
      <trkpt lat="37.05978667" lon="-3.37128333">
        <ele>3178.0</ele>
        <time>2022-11-20T11:17:49.000Z</time>
      </trkpt>
      <trkpt lat="37.059785" lon="-3.37127667">
        <ele>3179.0</ele>
        <time>2022-11-20T11:17:50.000Z</time>
      </trkpt>
      <trkpt lat="37.05978333" lon="-3.37127333">
        <ele>3179.0</ele>
        <time>2022-11-20T11:17:51.000Z</time>
      </trkpt>
      <trkpt lat="37.05978" lon="-3.37127167">
        <ele>3179.0</ele>
        <time>2022-11-20T11:17:52.000Z</time>
      </trkpt>
      <trkpt lat="37.05977833" lon="-3.37127">
        <ele>3179.0</ele>
        <time>2022-11-20T11:17:53.000Z</time>
      </trkpt>
      <trkpt lat="37.059775" lon="-3.37126333">
        <ele>3179.0</ele>
        <time>2022-11-20T11:17:54.000Z</time>
      </trkpt>
      <trkpt lat="37.05977167" lon="-3.37126167">
        <ele>3179.0</ele>
        <time>2022-11-20T11:17:55.000Z</time>
      </trkpt>
      <trkpt lat="37.05977" lon="-3.37125667">
        <ele>3180.0</ele>
        <time>2022-11-20T11:17:56.000Z</time>
      </trkpt>
      <trkpt lat="37.059765" lon="-3.37125167">
        <ele>3180.0</ele>
        <time>2022-11-20T11:17:57.000Z</time>
      </trkpt>
      <trkpt lat="37.05976333" lon="-3.37124667">
        <ele>3180.0</ele>
        <time>2022-11-20T11:17:58.000Z</time>
      </trkpt>
      <trkpt lat="37.05976167" lon="-3.37124">
        <ele>3180.0</ele>
        <time>2022-11-20T11:17:59.000Z</time>
      </trkpt>
      <trkpt lat="37.05976" lon="-3.371235">
        <ele>3180.0</ele>
        <time>2022-11-20T11:18:00.000Z</time>
      </trkpt>
      <trkpt lat="37.05976" lon="-3.37123">
        <ele>3181.0</ele>
        <time>2022-11-20T11:18:01.000Z</time>
      </trkpt>
      <trkpt lat="37.05976" lon="-3.37122667">
        <ele>3181.0</ele>
        <time>2022-11-20T11:18:02.000Z</time>
      </trkpt>
      <trkpt lat="37.05975833" lon="-3.37122333">
        <ele>3181.0</ele>
        <time>2022-11-20T11:18:03.000Z</time>
      </trkpt>
      <trkpt lat="37.05975833" lon="-3.37122167">
        <ele>3181.0</ele>
        <time>2022-11-20T11:18:04.000Z</time>
      </trkpt>
      <trkpt lat="37.05975667" lon="-3.37121833">
        <ele>3181.0</ele>
        <time>2022-11-20T11:18:05.000Z</time>
      </trkpt>
      <trkpt lat="37.059755" lon="-3.37121333">
        <ele>3181.0</ele>
        <time>2022-11-20T11:18:06.000Z</time>
      </trkpt>
      <trkpt lat="37.05975333" lon="-3.37121167">
        <ele>3182.0</ele>
        <time>2022-11-20T11:18:07.000Z</time>
      </trkpt>
      <trkpt lat="37.05975333" lon="-3.37121">
        <ele>3182.0</ele>
        <time>2022-11-20T11:18:08.000Z</time>
      </trkpt>
      <trkpt lat="37.059755" lon="-3.37120833">
        <ele>3182.0</ele>
        <time>2022-11-20T11:18:09.000Z</time>
      </trkpt>
      <trkpt lat="37.05975333" lon="-3.371205">
        <ele>3182.0</ele>
        <time>2022-11-20T11:18:10.000Z</time>
      </trkpt>
      <trkpt lat="37.05975" lon="-3.37120167">
        <ele>3182.0</ele>
        <time>2022-11-20T11:18:11.000Z</time>
      </trkpt>
      <trkpt lat="37.05974667" lon="-3.3712">
        <ele>3182.0</ele>
        <time>2022-11-20T11:18:12.000Z</time>
      </trkpt>
      <trkpt lat="37.05974333" lon="-3.37119667">
        <ele>3182.0</ele>
        <time>2022-11-20T11:18:13.000Z</time>
      </trkpt>
      <trkpt lat="37.05974" lon="-3.37119667">
        <ele>3182.0</ele>
        <time>2022-11-20T11:18:14.000Z</time>
      </trkpt>
      <trkpt lat="37.05974" lon="-3.37119667">
        <ele>3183.0</ele>
        <time>2022-11-20T11:18:15.000Z</time>
      </trkpt>
      <trkpt lat="37.05973833" lon="-3.371195">
        <ele>3183.0</ele>
        <time>2022-11-20T11:18:16.000Z</time>
      </trkpt>
      <trkpt lat="37.05973667" lon="-3.37119333">
        <ele>3183.0</ele>
        <time>2022-11-20T11:18:17.000Z</time>
      </trkpt>
      <trkpt lat="37.05973333" lon="-3.37119333">
        <ele>3183.0</ele>
        <time>2022-11-20T11:18:18.000Z</time>
      </trkpt>
      <trkpt lat="37.05973" lon="-3.37119333">
        <ele>3183.0</ele>
        <time>2022-11-20T11:18:19.000Z</time>
      </trkpt>
      <trkpt lat="37.05972667" lon="-3.37119333">
        <ele>3183.0</ele>
        <time>2022-11-20T11:18:20.000Z</time>
      </trkpt>
      <trkpt lat="37.05972167" lon="-3.37119167">
        <ele>3183.0</ele>
        <time>2022-11-20T11:18:21.000Z</time>
      </trkpt>
      <trkpt lat="37.059715" lon="-3.37119">
        <ele>3183.0</ele>
        <time>2022-11-20T11:18:22.000Z</time>
      </trkpt>
      <trkpt lat="37.05971" lon="-3.37118833">
        <ele>3183.0</ele>
        <time>2022-11-20T11:18:23.000Z</time>
      </trkpt>
      <trkpt lat="37.059705" lon="-3.37118667">
        <ele>3183.0</ele>
        <time>2022-11-20T11:18:24.000Z</time>
      </trkpt>
      <trkpt lat="37.05969833" lon="-3.371185">
        <ele>3183.0</ele>
        <time>2022-11-20T11:18:25.000Z</time>
      </trkpt>
      <trkpt lat="37.05969333" lon="-3.371185">
        <ele>3184.0</ele>
        <time>2022-11-20T11:18:26.000Z</time>
      </trkpt>
      <trkpt lat="37.05968833" lon="-3.37118167">
        <ele>3184.0</ele>
        <time>2022-11-20T11:18:27.000Z</time>
      </trkpt>
      <trkpt lat="37.059685" lon="-3.37118167">
        <ele>3184.0</ele>
        <time>2022-11-20T11:18:28.000Z</time>
      </trkpt>
      <trkpt lat="37.05968167" lon="-3.37118">
        <ele>3184.0</ele>
        <time>2022-11-20T11:18:29.000Z</time>
      </trkpt>
      <trkpt lat="37.05967667" lon="-3.37117667">
        <ele>3184.0</ele>
        <time>2022-11-20T11:18:30.000Z</time>
      </trkpt>
      <trkpt lat="37.05967167" lon="-3.371175">
        <ele>3184.0</ele>
        <time>2022-11-20T11:18:31.000Z</time>
      </trkpt>
      <trkpt lat="37.05966833" lon="-3.37117333">
        <ele>3184.0</ele>
        <time>2022-11-20T11:18:32.000Z</time>
      </trkpt>
      <trkpt lat="37.05966167" lon="-3.371175">
        <ele>3184.0</ele>
        <time>2022-11-20T11:18:33.000Z</time>
      </trkpt>
      <trkpt lat="37.05965833" lon="-3.37117167">
        <ele>3184.0</ele>
        <time>2022-11-20T11:18:34.000Z</time>
      </trkpt>
      <trkpt lat="37.059655" lon="-3.37116833">
        <ele>3185.0</ele>
        <time>2022-11-20T11:18:35.000Z</time>
      </trkpt>
      <trkpt lat="37.05965167" lon="-3.37115833">
        <ele>3185.0</ele>
        <time>2022-11-20T11:18:36.000Z</time>
      </trkpt>
      <trkpt lat="37.05965167" lon="-3.37115167">
        <ele>3185.0</ele>
        <time>2022-11-20T11:18:37.000Z</time>
      </trkpt>
      <trkpt lat="37.05965167" lon="-3.37114833">
        <ele>3185.0</ele>
        <time>2022-11-20T11:18:38.000Z</time>
      </trkpt>
      <trkpt lat="37.059655" lon="-3.37114667">
        <ele>3185.0</ele>
        <time>2022-11-20T11:18:39.000Z</time>
      </trkpt>
      <trkpt lat="37.05965833" lon="-3.37114333">
        <ele>3185.0</ele>
        <time>2022-11-20T11:18:40.000Z</time>
      </trkpt>
      <trkpt lat="37.05965667" lon="-3.37114">
        <ele>3185.0</ele>
        <time>2022-11-20T11:18:41.000Z</time>
      </trkpt>
      <trkpt lat="37.05965833" lon="-3.37113833">
        <ele>3185.0</ele>
        <time>2022-11-20T11:18:42.000Z</time>
      </trkpt>
      <trkpt lat="37.05965833" lon="-3.37113333">
        <ele>3185.0</ele>
        <time>2022-11-20T11:18:43.000Z</time>
      </trkpt>
      <trkpt lat="37.05965667" lon="-3.37112667">
        <ele>3185.0</ele>
        <time>2022-11-20T11:18:44.000Z</time>
      </trkpt>
      <trkpt lat="37.05965833" lon="-3.37112">
        <ele>3185.0</ele>
        <time>2022-11-20T11:18:45.000Z</time>
      </trkpt>
      <trkpt lat="37.05966167" lon="-3.371115">
        <ele>3186.0</ele>
        <time>2022-11-20T11:18:46.000Z</time>
      </trkpt>
      <trkpt lat="37.05966333" lon="-3.37111167">
        <ele>3186.0</ele>
        <time>2022-11-20T11:18:47.000Z</time>
      </trkpt>
      <trkpt lat="37.059665" lon="-3.37110667">
        <ele>3186.0</ele>
        <time>2022-11-20T11:18:48.000Z</time>
      </trkpt>
      <trkpt lat="37.059665" lon="-3.371105">
        <ele>3186.0</ele>
        <time>2022-11-20T11:18:49.000Z</time>
      </trkpt>
      <trkpt lat="37.05966667" lon="-3.37109667">
        <ele>3186.0</ele>
        <time>2022-11-20T11:18:50.000Z</time>
      </trkpt>
      <trkpt lat="37.05966333" lon="-3.37108667">
        <ele>3186.0</ele>
        <time>2022-11-20T11:18:51.000Z</time>
      </trkpt>
      <trkpt lat="37.05966333" lon="-3.37108333">
        <ele>3186.0</ele>
        <time>2022-11-20T11:18:52.000Z</time>
      </trkpt>
      <trkpt lat="37.05966333" lon="-3.37108167">
        <ele>3186.0</ele>
        <time>2022-11-20T11:18:53.000Z</time>
      </trkpt>
      <trkpt lat="37.05966" lon="-3.37107667">
        <ele>3186.0</ele>
        <time>2022-11-20T11:18:54.000Z</time>
      </trkpt>
      <trkpt lat="37.05965833" lon="-3.37107667">
        <ele>3186.0</ele>
        <time>2022-11-20T11:18:55.000Z</time>
      </trkpt>
      <trkpt lat="37.059655" lon="-3.37107167">
        <ele>3187.0</ele>
        <time>2022-11-20T11:18:56.000Z</time>
      </trkpt>
      <trkpt lat="37.05965167" lon="-3.37107167">
        <ele>3187.0</ele>
        <time>2022-11-20T11:18:57.000Z</time>
      </trkpt>
      <trkpt lat="37.05965167" lon="-3.37107167">
        <ele>3187.0</ele>
        <time>2022-11-20T11:18:58.000Z</time>
      </trkpt>
      <trkpt lat="37.05965167" lon="-3.37107167">
        <ele>3187.0</ele>
        <time>2022-11-20T11:18:59.000Z</time>
      </trkpt>
      <trkpt lat="37.05965167" lon="-3.37107167">
        <ele>3187.0</ele>
        <time>2022-11-20T11:19:00.000Z</time>
      </trkpt>
      <trkpt lat="37.05965167" lon="-3.37107167">
        <ele>3187.0</ele>
        <time>2022-11-20T11:19:01.000Z</time>
      </trkpt>
      <trkpt lat="37.05965167" lon="-3.37107333">
        <ele>3187.0</ele>
        <time>2022-11-20T11:19:02.000Z</time>
      </trkpt>
      <trkpt lat="37.05964833" lon="-3.371075">
        <ele>3187.0</ele>
        <time>2022-11-20T11:19:03.000Z</time>
      </trkpt>
      <trkpt lat="37.059645" lon="-3.371075">
        <ele>3187.0</ele>
        <time>2022-11-20T11:19:04.000Z</time>
      </trkpt>
      <trkpt lat="37.05964333" lon="-3.371075">
        <ele>3187.0</ele>
        <time>2022-11-20T11:19:05.000Z</time>
      </trkpt>
      <trkpt lat="37.05963833" lon="-3.37107333">
        <ele>3187.0</ele>
        <time>2022-11-20T11:19:06.000Z</time>
      </trkpt>
      <trkpt lat="37.05963333" lon="-3.37107333">
        <ele>3188.0</ele>
        <time>2022-11-20T11:19:07.000Z</time>
      </trkpt>
      <trkpt lat="37.05962833" lon="-3.371075">
        <ele>3188.0</ele>
        <time>2022-11-20T11:19:08.000Z</time>
      </trkpt>
      <trkpt lat="37.05962167" lon="-3.37107333">
        <ele>3188.0</ele>
        <time>2022-11-20T11:19:09.000Z</time>
      </trkpt>
      <trkpt lat="37.05962" lon="-3.37107333">
        <ele>3188.0</ele>
        <time>2022-11-20T11:19:10.000Z</time>
      </trkpt>
      <trkpt lat="37.059615" lon="-3.37107167">
        <ele>3188.0</ele>
        <time>2022-11-20T11:19:11.000Z</time>
      </trkpt>
      <trkpt lat="37.05961167" lon="-3.37107167">
        <ele>3188.0</ele>
        <time>2022-11-20T11:19:12.000Z</time>
      </trkpt>
      <trkpt lat="37.05960833" lon="-3.37106667">
        <ele>3189.0</ele>
        <time>2022-11-20T11:19:13.000Z</time>
      </trkpt>
      <trkpt lat="37.05960333" lon="-3.37106333">
        <ele>3189.0</ele>
        <time>2022-11-20T11:19:14.000Z</time>
      </trkpt>
      <trkpt lat="37.0596" lon="-3.371065">
        <ele>3189.0</ele>
        <time>2022-11-20T11:19:15.000Z</time>
      </trkpt>
      <trkpt lat="37.05959333" lon="-3.371065">
        <ele>3189.0</ele>
        <time>2022-11-20T11:19:16.000Z</time>
      </trkpt>
      <trkpt lat="37.05958833" lon="-3.37106167">
        <ele>3189.0</ele>
        <time>2022-11-20T11:19:17.000Z</time>
      </trkpt>
      <trkpt lat="37.059585" lon="-3.37105667">
        <ele>3190.0</ele>
        <time>2022-11-20T11:19:18.000Z</time>
      </trkpt>
      <trkpt lat="37.059585" lon="-3.37105167">
        <ele>3190.0</ele>
        <time>2022-11-20T11:19:19.000Z</time>
      </trkpt>
      <trkpt lat="37.059585" lon="-3.37104667">
        <ele>3190.0</ele>
        <time>2022-11-20T11:19:20.000Z</time>
      </trkpt>
      <trkpt lat="37.059585" lon="-3.37104333">
        <ele>3190.0</ele>
        <time>2022-11-20T11:19:21.000Z</time>
      </trkpt>
      <trkpt lat="37.05958667" lon="-3.37104">
        <ele>3190.0</ele>
        <time>2022-11-20T11:19:22.000Z</time>
      </trkpt>
      <trkpt lat="37.05958833" lon="-3.371035">
        <ele>3190.0</ele>
        <time>2022-11-20T11:19:23.000Z</time>
      </trkpt>
      <trkpt lat="37.05958833" lon="-3.37103">
        <ele>3190.0</ele>
        <time>2022-11-20T11:19:24.000Z</time>
      </trkpt>
      <trkpt lat="37.05958833" lon="-3.37103">
        <ele>3190.0</ele>
        <time>2022-11-20T11:19:25.000Z</time>
      </trkpt>
      <trkpt lat="37.05958833" lon="-3.37103">
        <ele>3190.0</ele>
        <time>2022-11-20T11:19:26.000Z</time>
      </trkpt>
      <trkpt lat="37.05958833" lon="-3.37103">
        <ele>3190.0</ele>
        <time>2022-11-20T11:19:27.000Z</time>
      </trkpt>
      <trkpt lat="37.05958833" lon="-3.37103167">
        <ele>3190.0</ele>
        <time>2022-11-20T11:19:28.000Z</time>
      </trkpt>
      <trkpt lat="37.05958833" lon="-3.37103167">
        <ele>3190.0</ele>
        <time>2022-11-20T11:19:29.000Z</time>
      </trkpt>
      <trkpt lat="37.05958833" lon="-3.37103167">
        <ele>3191.0</ele>
        <time>2022-11-20T11:19:30.000Z</time>
      </trkpt>
      <trkpt lat="37.05958833" lon="-3.37103167">
        <ele>3191.0</ele>
        <time>2022-11-20T11:19:31.000Z</time>
      </trkpt>
      <trkpt lat="37.05958833" lon="-3.37103167">
        <ele>3191.0</ele>
        <time>2022-11-20T11:19:32.000Z</time>
      </trkpt>
      <trkpt lat="37.05958833" lon="-3.37103167">
        <ele>3191.0</ele>
        <time>2022-11-20T11:19:33.000Z</time>
      </trkpt>
      <trkpt lat="37.05959" lon="-3.37102833">
        <ele>3191.0</ele>
        <time>2022-11-20T11:19:34.000Z</time>
      </trkpt>
      <trkpt lat="37.05959167" lon="-3.371025">
        <ele>3191.0</ele>
        <time>2022-11-20T11:19:35.000Z</time>
      </trkpt>
      <trkpt lat="37.05959333" lon="-3.37102333">
        <ele>3191.0</ele>
        <time>2022-11-20T11:19:36.000Z</time>
      </trkpt>
      <trkpt lat="37.059595" lon="-3.37101833">
        <ele>3191.0</ele>
        <time>2022-11-20T11:19:37.000Z</time>
      </trkpt>
      <trkpt lat="37.05959667" lon="-3.37101167">
        <ele>3191.0</ele>
        <time>2022-11-20T11:19:38.000Z</time>
      </trkpt>
      <trkpt lat="37.05959833" lon="-3.37100833">
        <ele>3191.0</ele>
        <time>2022-11-20T11:19:39.000Z</time>
      </trkpt>
      <trkpt lat="37.05960167" lon="-3.37100667">
        <ele>3191.0</ele>
        <time>2022-11-20T11:19:40.000Z</time>
      </trkpt>
      <trkpt lat="37.05960667" lon="-3.37100167">
        <ele>3191.0</ele>
        <time>2022-11-20T11:19:41.000Z</time>
      </trkpt>
      <trkpt lat="37.05961" lon="-3.37099833">
        <ele>3191.0</ele>
        <time>2022-11-20T11:19:42.000Z</time>
      </trkpt>
      <trkpt lat="37.05961167" lon="-3.370995">
        <ele>3191.0</ele>
        <time>2022-11-20T11:19:43.000Z</time>
      </trkpt>
      <trkpt lat="37.05961333" lon="-3.37098833">
        <ele>3191.0</ele>
        <time>2022-11-20T11:19:44.000Z</time>
      </trkpt>
      <trkpt lat="37.059615" lon="-3.37098333">
        <ele>3192.0</ele>
        <time>2022-11-20T11:19:45.000Z</time>
      </trkpt>
      <trkpt lat="37.059615" lon="-3.37098167">
        <ele>3192.0</ele>
        <time>2022-11-20T11:19:46.000Z</time>
      </trkpt>
      <trkpt lat="37.05961333" lon="-3.37097833">
        <ele>3192.0</ele>
        <time>2022-11-20T11:19:47.000Z</time>
      </trkpt>
      <trkpt lat="37.05961" lon="-3.370975">
        <ele>3192.0</ele>
        <time>2022-11-20T11:19:48.000Z</time>
      </trkpt>
      <trkpt lat="37.05960833" lon="-3.37097167">
        <ele>3192.0</ele>
        <time>2022-11-20T11:19:49.000Z</time>
      </trkpt>
      <trkpt lat="37.059605" lon="-3.37097167">
        <ele>3192.0</ele>
        <time>2022-11-20T11:19:50.000Z</time>
      </trkpt>
      <trkpt lat="37.05960167" lon="-3.37096667">
        <ele>3193.0</ele>
        <time>2022-11-20T11:19:51.000Z</time>
      </trkpt>
      <trkpt lat="37.0596" lon="-3.37096667">
        <ele>3193.0</ele>
        <time>2022-11-20T11:19:52.000Z</time>
      </trkpt>
      <trkpt lat="37.05959667" lon="-3.37096">
        <ele>3193.0</ele>
        <time>2022-11-20T11:19:53.000Z</time>
      </trkpt>
      <trkpt lat="37.059595" lon="-3.37096">
        <ele>3193.0</ele>
        <time>2022-11-20T11:19:54.000Z</time>
      </trkpt>
      <trkpt lat="37.05959333" lon="-3.370955">
        <ele>3193.0</ele>
        <time>2022-11-20T11:19:55.000Z</time>
      </trkpt>
      <trkpt lat="37.05959167" lon="-3.37095333">
        <ele>3193.0</ele>
        <time>2022-11-20T11:19:56.000Z</time>
      </trkpt>
      <trkpt lat="37.05959333" lon="-3.37095333">
        <ele>3193.0</ele>
        <time>2022-11-20T11:19:57.000Z</time>
      </trkpt>
      <trkpt lat="37.05959167" lon="-3.37095333">
        <ele>3193.0</ele>
        <time>2022-11-20T11:19:58.000Z</time>
      </trkpt>
      <trkpt lat="37.05958833" lon="-3.37095333">
        <ele>3193.0</ele>
        <time>2022-11-20T11:19:59.000Z</time>
      </trkpt>
      <trkpt lat="37.05958667" lon="-3.37095333">
        <ele>3193.0</ele>
        <time>2022-11-20T11:20:00.000Z</time>
      </trkpt>
      <trkpt lat="37.05958667" lon="-3.37095333">
        <ele>3193.0</ele>
        <time>2022-11-20T11:20:01.000Z</time>
      </trkpt>
      <trkpt lat="37.05958667" lon="-3.37095333">
        <ele>3193.0</ele>
        <time>2022-11-20T11:20:02.000Z</time>
      </trkpt>
      <trkpt lat="37.05958667" lon="-3.37095167">
        <ele>3193.0</ele>
        <time>2022-11-20T11:20:03.000Z</time>
      </trkpt>
      <trkpt lat="37.05958333" lon="-3.37094833">
        <ele>3194.0</ele>
        <time>2022-11-20T11:20:04.000Z</time>
      </trkpt>
      <trkpt lat="37.05957833" lon="-3.370945">
        <ele>3194.0</ele>
        <time>2022-11-20T11:20:05.000Z</time>
      </trkpt>
      <trkpt lat="37.05957667" lon="-3.37094167">
        <ele>3194.0</ele>
        <time>2022-11-20T11:20:06.000Z</time>
      </trkpt>
      <trkpt lat="37.05957333" lon="-3.37094167">
        <ele>3194.0</ele>
        <time>2022-11-20T11:20:07.000Z</time>
      </trkpt>
      <trkpt lat="37.05957" lon="-3.37093833">
        <ele>3194.0</ele>
        <time>2022-11-20T11:20:08.000Z</time>
      </trkpt>
      <trkpt lat="37.05956667" lon="-3.37093667">
        <ele>3194.0</ele>
        <time>2022-11-20T11:20:09.000Z</time>
      </trkpt>
      <trkpt lat="37.05956167" lon="-3.370935">
        <ele>3194.0</ele>
        <time>2022-11-20T11:20:10.000Z</time>
      </trkpt>
      <trkpt lat="37.05955667" lon="-3.37093333">
        <ele>3195.0</ele>
        <time>2022-11-20T11:20:11.000Z</time>
      </trkpt>
      <trkpt lat="37.05955333" lon="-3.37093167">
        <ele>3195.0</ele>
        <time>2022-11-20T11:20:12.000Z</time>
      </trkpt>
      <trkpt lat="37.05955" lon="-3.37092667">
        <ele>3195.0</ele>
        <time>2022-11-20T11:20:13.000Z</time>
      </trkpt>
      <trkpt lat="37.05955" lon="-3.37091833">
        <ele>3195.0</ele>
        <time>2022-11-20T11:20:14.000Z</time>
      </trkpt>
      <trkpt lat="37.05955333" lon="-3.37091333">
        <ele>3195.0</ele>
        <time>2022-11-20T11:20:15.000Z</time>
      </trkpt>
      <trkpt lat="37.059555" lon="-3.37090833">
        <ele>3195.0</ele>
        <time>2022-11-20T11:20:16.000Z</time>
      </trkpt>
      <trkpt lat="37.059555" lon="-3.37090333">
        <ele>3196.0</ele>
        <time>2022-11-20T11:20:17.000Z</time>
      </trkpt>
      <trkpt lat="37.05955333" lon="-3.3709">
        <ele>3196.0</ele>
        <time>2022-11-20T11:20:18.000Z</time>
      </trkpt>
      <trkpt lat="37.05954833" lon="-3.37089833">
        <ele>3196.0</ele>
        <time>2022-11-20T11:20:19.000Z</time>
      </trkpt>
      <trkpt lat="37.05954167" lon="-3.370895">
        <ele>3196.0</ele>
        <time>2022-11-20T11:20:20.000Z</time>
      </trkpt>
      <trkpt lat="37.05953833" lon="-3.37089333">
        <ele>3196.0</ele>
        <time>2022-11-20T11:20:21.000Z</time>
      </trkpt>
      <trkpt lat="37.05953333" lon="-3.37088833">
        <ele>3197.0</ele>
        <time>2022-11-20T11:20:22.000Z</time>
      </trkpt>
      <trkpt lat="37.05953" lon="-3.37088333">
        <ele>3197.0</ele>
        <time>2022-11-20T11:20:23.000Z</time>
      </trkpt>
      <trkpt lat="37.05952667" lon="-3.37088167">
        <ele>3197.0</ele>
        <time>2022-11-20T11:20:24.000Z</time>
      </trkpt>
      <trkpt lat="37.05952333" lon="-3.37087833">
        <ele>3197.0</ele>
        <time>2022-11-20T11:20:25.000Z</time>
      </trkpt>
      <trkpt lat="37.05951667" lon="-3.37087833">
        <ele>3197.0</ele>
        <time>2022-11-20T11:20:26.000Z</time>
      </trkpt>
      <trkpt lat="37.05951167" lon="-3.37087667">
        <ele>3198.0</ele>
        <time>2022-11-20T11:20:27.000Z</time>
      </trkpt>
      <trkpt lat="37.059505" lon="-3.37087333">
        <ele>3198.0</ele>
        <time>2022-11-20T11:20:28.000Z</time>
      </trkpt>
      <trkpt lat="37.05950333" lon="-3.37087167">
        <ele>3198.0</ele>
        <time>2022-11-20T11:20:29.000Z</time>
      </trkpt>
      <trkpt lat="37.05949833" lon="-3.37086667">
        <ele>3198.0</ele>
        <time>2022-11-20T11:20:30.000Z</time>
      </trkpt>
      <trkpt lat="37.05949333" lon="-3.37086333">
        <ele>3198.0</ele>
        <time>2022-11-20T11:20:31.000Z</time>
      </trkpt>
      <trkpt lat="37.05948833" lon="-3.37086167">
        <ele>3199.0</ele>
        <time>2022-11-20T11:20:32.000Z</time>
      </trkpt>
      <trkpt lat="37.05948333" lon="-3.37086">
        <ele>3199.0</ele>
        <time>2022-11-20T11:20:33.000Z</time>
      </trkpt>
      <trkpt lat="37.05947667" lon="-3.37085833">
        <ele>3199.0</ele>
        <time>2022-11-20T11:20:34.000Z</time>
      </trkpt>
      <trkpt lat="37.05947333" lon="-3.370855">
        <ele>3199.0</ele>
        <time>2022-11-20T11:20:35.000Z</time>
      </trkpt>
      <trkpt lat="37.05946667" lon="-3.37085167">
        <ele>3200.0</ele>
        <time>2022-11-20T11:20:36.000Z</time>
      </trkpt>
      <trkpt lat="37.05946167" lon="-3.37084833">
        <ele>3200.0</ele>
        <time>2022-11-20T11:20:37.000Z</time>
      </trkpt>
      <trkpt lat="37.05945667" lon="-3.37084833">
        <ele>3200.0</ele>
        <time>2022-11-20T11:20:38.000Z</time>
      </trkpt>
      <trkpt lat="37.05945167" lon="-3.370845">
        <ele>3200.0</ele>
        <time>2022-11-20T11:20:39.000Z</time>
      </trkpt>
      <trkpt lat="37.059445" lon="-3.37084333">
        <ele>3200.0</ele>
        <time>2022-11-20T11:20:40.000Z</time>
      </trkpt>
      <trkpt lat="37.05944167" lon="-3.37084">
        <ele>3200.0</ele>
        <time>2022-11-20T11:20:41.000Z</time>
      </trkpt>
      <trkpt lat="37.05943833" lon="-3.37083333">
        <ele>3201.0</ele>
        <time>2022-11-20T11:20:42.000Z</time>
      </trkpt>
      <trkpt lat="37.05943667" lon="-3.370825">
        <ele>3201.0</ele>
        <time>2022-11-20T11:20:43.000Z</time>
      </trkpt>
      <trkpt lat="37.05944" lon="-3.37081833">
        <ele>3201.0</ele>
        <time>2022-11-20T11:20:44.000Z</time>
      </trkpt>
      <trkpt lat="37.05944333" lon="-3.37081667">
        <ele>3201.0</ele>
        <time>2022-11-20T11:20:45.000Z</time>
      </trkpt>
      <trkpt lat="37.05944667" lon="-3.37081333">
        <ele>3202.0</ele>
        <time>2022-11-20T11:20:46.000Z</time>
      </trkpt>
      <trkpt lat="37.05944833" lon="-3.37081">
        <ele>3202.0</ele>
        <time>2022-11-20T11:20:47.000Z</time>
      </trkpt>
      <trkpt lat="37.05945" lon="-3.37080833">
        <ele>3202.0</ele>
        <time>2022-11-20T11:20:48.000Z</time>
      </trkpt>
      <trkpt lat="37.05945" lon="-3.37080333">
        <ele>3202.0</ele>
        <time>2022-11-20T11:20:49.000Z</time>
      </trkpt>
      <trkpt lat="37.05944833" lon="-3.3708">
        <ele>3202.0</ele>
        <time>2022-11-20T11:20:50.000Z</time>
      </trkpt>
      <trkpt lat="37.05944833" lon="-3.37079833">
        <ele>3202.0</ele>
        <time>2022-11-20T11:20:51.000Z</time>
      </trkpt>
      <trkpt lat="37.05944667" lon="-3.370795">
        <ele>3202.0</ele>
        <time>2022-11-20T11:20:52.000Z</time>
      </trkpt>
      <trkpt lat="37.05944333" lon="-3.37079">
        <ele>3203.0</ele>
        <time>2022-11-20T11:20:53.000Z</time>
      </trkpt>
      <trkpt lat="37.05944167" lon="-3.370785">
        <ele>3203.0</ele>
        <time>2022-11-20T11:20:54.000Z</time>
      </trkpt>
      <trkpt lat="37.05944" lon="-3.37078333">
        <ele>3203.0</ele>
        <time>2022-11-20T11:20:55.000Z</time>
      </trkpt>
      <trkpt lat="37.05943833" lon="-3.37077833">
        <ele>3203.0</ele>
        <time>2022-11-20T11:20:56.000Z</time>
      </trkpt>
      <trkpt lat="37.05944167" lon="-3.37076833">
        <ele>3203.0</ele>
        <time>2022-11-20T11:20:57.000Z</time>
      </trkpt>
      <trkpt lat="37.05944333" lon="-3.37076167">
        <ele>3204.0</ele>
        <time>2022-11-20T11:20:58.000Z</time>
      </trkpt>
      <trkpt lat="37.059445" lon="-3.370755">
        <ele>3204.0</ele>
        <time>2022-11-20T11:20:59.000Z</time>
      </trkpt>
      <trkpt lat="37.05944167" lon="-3.37075333">
        <ele>3204.0</ele>
        <time>2022-11-20T11:21:00.000Z</time>
      </trkpt>
      <trkpt lat="37.05944" lon="-3.37074833">
        <ele>3204.0</ele>
        <time>2022-11-20T11:21:01.000Z</time>
      </trkpt>
      <trkpt lat="37.05943667" lon="-3.37074667">
        <ele>3204.0</ele>
        <time>2022-11-20T11:21:02.000Z</time>
      </trkpt>
      <trkpt lat="37.05943333" lon="-3.37074333">
        <ele>3204.0</ele>
        <time>2022-11-20T11:21:03.000Z</time>
      </trkpt>
      <trkpt lat="37.05942667" lon="-3.37074167">
        <ele>3205.0</ele>
        <time>2022-11-20T11:21:04.000Z</time>
      </trkpt>
      <trkpt lat="37.05942333" lon="-3.37073667">
        <ele>3205.0</ele>
        <time>2022-11-20T11:21:05.000Z</time>
      </trkpt>
      <trkpt lat="37.05942" lon="-3.37073167">
        <ele>3205.0</ele>
        <time>2022-11-20T11:21:06.000Z</time>
      </trkpt>
      <trkpt lat="37.05941833" lon="-3.37073">
        <ele>3205.0</ele>
        <time>2022-11-20T11:21:07.000Z</time>
      </trkpt>
      <trkpt lat="37.05941333" lon="-3.370725">
        <ele>3205.0</ele>
        <time>2022-11-20T11:21:08.000Z</time>
      </trkpt>
      <trkpt lat="37.05941" lon="-3.37072">
        <ele>3205.0</ele>
        <time>2022-11-20T11:21:09.000Z</time>
      </trkpt>
      <trkpt lat="37.05941" lon="-3.37072">
        <ele>3206.0</ele>
        <time>2022-11-20T11:21:10.000Z</time>
      </trkpt>
      <trkpt lat="37.05940667" lon="-3.37072">
        <ele>3206.0</ele>
        <time>2022-11-20T11:21:11.000Z</time>
      </trkpt>
      <trkpt lat="37.05940333" lon="-3.37071833">
        <ele>3206.0</ele>
        <time>2022-11-20T11:21:12.000Z</time>
      </trkpt>
      <trkpt lat="37.05939833" lon="-3.37071667">
        <ele>3206.0</ele>
        <time>2022-11-20T11:21:13.000Z</time>
      </trkpt>
      <trkpt lat="37.059395" lon="-3.37071333">
        <ele>3206.0</ele>
        <time>2022-11-20T11:21:14.000Z</time>
      </trkpt>
      <trkpt lat="37.05939167" lon="-3.37070833">
        <ele>3206.0</ele>
        <time>2022-11-20T11:21:15.000Z</time>
      </trkpt>
      <trkpt lat="37.05938833" lon="-3.370705">
        <ele>3207.0</ele>
        <time>2022-11-20T11:21:16.000Z</time>
      </trkpt>
      <trkpt lat="37.05938333" lon="-3.37070167">
        <ele>3207.0</ele>
        <time>2022-11-20T11:21:17.000Z</time>
      </trkpt>
      <trkpt lat="37.05937833" lon="-3.37069833">
        <ele>3207.0</ele>
        <time>2022-11-20T11:21:18.000Z</time>
      </trkpt>
      <trkpt lat="37.059375" lon="-3.370695">
        <ele>3207.0</ele>
        <time>2022-11-20T11:21:19.000Z</time>
      </trkpt>
      <trkpt lat="37.05937167" lon="-3.37069167">
        <ele>3207.0</ele>
        <time>2022-11-20T11:21:20.000Z</time>
      </trkpt>
      <trkpt lat="37.05937" lon="-3.37069167">
        <ele>3207.0</ele>
        <time>2022-11-20T11:21:21.000Z</time>
      </trkpt>
      <trkpt lat="37.059365" lon="-3.37069">
        <ele>3207.0</ele>
        <time>2022-11-20T11:21:22.000Z</time>
      </trkpt>
      <trkpt lat="37.05936" lon="-3.37068833">
        <ele>3208.0</ele>
        <time>2022-11-20T11:21:23.000Z</time>
      </trkpt>
      <trkpt lat="37.05935333" lon="-3.37068667">
        <ele>3208.0</ele>
        <time>2022-11-20T11:21:24.000Z</time>
      </trkpt>
      <trkpt lat="37.05934833" lon="-3.370685">
        <ele>3208.0</ele>
        <time>2022-11-20T11:21:25.000Z</time>
      </trkpt>
      <trkpt lat="37.05934167" lon="-3.37068333">
        <ele>3208.0</ele>
        <time>2022-11-20T11:21:26.000Z</time>
      </trkpt>
      <trkpt lat="37.05933667" lon="-3.37068">
        <ele>3208.0</ele>
        <time>2022-11-20T11:21:27.000Z</time>
      </trkpt>
      <trkpt lat="37.05933167" lon="-3.37067667">
        <ele>3209.0</ele>
        <time>2022-11-20T11:21:28.000Z</time>
      </trkpt>
      <trkpt lat="37.05932667" lon="-3.37067167">
        <ele>3209.0</ele>
        <time>2022-11-20T11:21:29.000Z</time>
      </trkpt>
      <trkpt lat="37.05932167" lon="-3.37066667">
        <ele>3209.0</ele>
        <time>2022-11-20T11:21:30.000Z</time>
      </trkpt>
      <trkpt lat="37.05931667" lon="-3.37066333">
        <ele>3209.0</ele>
        <time>2022-11-20T11:21:31.000Z</time>
      </trkpt>
      <trkpt lat="37.05931333" lon="-3.37065833">
        <ele>3209.0</ele>
        <time>2022-11-20T11:21:32.000Z</time>
      </trkpt>
      <trkpt lat="37.05931" lon="-3.37065">
        <ele>3209.0</ele>
        <time>2022-11-20T11:21:33.000Z</time>
      </trkpt>
      <trkpt lat="37.05931" lon="-3.37064167">
        <ele>3210.0</ele>
        <time>2022-11-20T11:21:34.000Z</time>
      </trkpt>
      <trkpt lat="37.05931167" lon="-3.37063333">
        <ele>3210.0</ele>
        <time>2022-11-20T11:21:35.000Z</time>
      </trkpt>
      <trkpt lat="37.05931167" lon="-3.37062833">
        <ele>3210.0</ele>
        <time>2022-11-20T11:21:36.000Z</time>
      </trkpt>
      <trkpt lat="37.059315" lon="-3.37062167">
        <ele>3210.0</ele>
        <time>2022-11-20T11:21:37.000Z</time>
      </trkpt>
      <trkpt lat="37.05931667" lon="-3.370615">
        <ele>3210.0</ele>
        <time>2022-11-20T11:21:38.000Z</time>
      </trkpt>
      <trkpt lat="37.05931833" lon="-3.37061">
        <ele>3210.0</ele>
        <time>2022-11-20T11:21:39.000Z</time>
      </trkpt>
      <trkpt lat="37.05931833" lon="-3.37060333">
        <ele>3210.0</ele>
        <time>2022-11-20T11:21:40.000Z</time>
      </trkpt>
      <trkpt lat="37.05931833" lon="-3.37059833">
        <ele>3210.0</ele>
        <time>2022-11-20T11:21:41.000Z</time>
      </trkpt>
      <trkpt lat="37.05931667" lon="-3.370595">
        <ele>3210.0</ele>
        <time>2022-11-20T11:21:42.000Z</time>
      </trkpt>
      <trkpt lat="37.059315" lon="-3.37059">
        <ele>3210.0</ele>
        <time>2022-11-20T11:21:43.000Z</time>
      </trkpt>
      <trkpt lat="37.05931167" lon="-3.370585">
        <ele>3210.0</ele>
        <time>2022-11-20T11:21:44.000Z</time>
      </trkpt>
      <trkpt lat="37.05931" lon="-3.37058167">
        <ele>3210.0</ele>
        <time>2022-11-20T11:21:45.000Z</time>
      </trkpt>
      <trkpt lat="37.05930667" lon="-3.37057833">
        <ele>3211.0</ele>
        <time>2022-11-20T11:21:46.000Z</time>
      </trkpt>
      <trkpt lat="37.05930333" lon="-3.370575">
        <ele>3211.0</ele>
        <time>2022-11-20T11:21:47.000Z</time>
      </trkpt>
      <trkpt lat="37.0593" lon="-3.370575">
        <ele>3211.0</ele>
        <time>2022-11-20T11:21:48.000Z</time>
      </trkpt>
      <trkpt lat="37.05929667" lon="-3.37057167">
        <ele>3211.0</ele>
        <time>2022-11-20T11:21:49.000Z</time>
      </trkpt>
      <trkpt lat="37.05929333" lon="-3.37057">
        <ele>3211.0</ele>
        <time>2022-11-20T11:21:50.000Z</time>
      </trkpt>
      <trkpt lat="37.05929167" lon="-3.37057">
        <ele>3211.0</ele>
        <time>2022-11-20T11:21:51.000Z</time>
      </trkpt>
      <trkpt lat="37.05928667" lon="-3.37057">
        <ele>3211.0</ele>
        <time>2022-11-20T11:21:52.000Z</time>
      </trkpt>
      <trkpt lat="37.05928167" lon="-3.37057">
        <ele>3211.0</ele>
        <time>2022-11-20T11:21:53.000Z</time>
      </trkpt>
      <trkpt lat="37.05927667" lon="-3.37056667">
        <ele>3211.0</ele>
        <time>2022-11-20T11:21:54.000Z</time>
      </trkpt>
      <trkpt lat="37.05927167" lon="-3.37056333">
        <ele>3212.0</ele>
        <time>2022-11-20T11:21:55.000Z</time>
      </trkpt>
      <trkpt lat="37.05926667" lon="-3.37056333">
        <ele>3212.0</ele>
        <time>2022-11-20T11:21:56.000Z</time>
      </trkpt>
      <trkpt lat="37.05926333" lon="-3.37056167">
        <ele>3212.0</ele>
        <time>2022-11-20T11:21:57.000Z</time>
      </trkpt>
      <trkpt lat="37.059255" lon="-3.37055833">
        <ele>3212.0</ele>
        <time>2022-11-20T11:21:58.000Z</time>
      </trkpt>
      <trkpt lat="37.05924833" lon="-3.37055667">
        <ele>3212.0</ele>
        <time>2022-11-20T11:21:59.000Z</time>
      </trkpt>
      <trkpt lat="37.059245" lon="-3.370555">
        <ele>3212.0</ele>
        <time>2022-11-20T11:22:00.000Z</time>
      </trkpt>
      <trkpt lat="37.05924" lon="-3.37055">
        <ele>3212.0</ele>
        <time>2022-11-20T11:22:01.000Z</time>
      </trkpt>
      <trkpt lat="37.05923667" lon="-3.37054333">
        <ele>3212.0</ele>
        <time>2022-11-20T11:22:02.000Z</time>
      </trkpt>
      <trkpt lat="37.059235" lon="-3.37053833">
        <ele>3212.0</ele>
        <time>2022-11-20T11:22:03.000Z</time>
      </trkpt>
      <trkpt lat="37.059235" lon="-3.37053333">
        <ele>3213.0</ele>
        <time>2022-11-20T11:22:04.000Z</time>
      </trkpt>
      <trkpt lat="37.059235" lon="-3.37052833">
        <ele>3213.0</ele>
        <time>2022-11-20T11:22:05.000Z</time>
      </trkpt>
      <trkpt lat="37.059235" lon="-3.37052167">
        <ele>3213.0</ele>
        <time>2022-11-20T11:22:06.000Z</time>
      </trkpt>
      <trkpt lat="37.05923667" lon="-3.370515">
        <ele>3213.0</ele>
        <time>2022-11-20T11:22:07.000Z</time>
      </trkpt>
      <trkpt lat="37.05923667" lon="-3.37050833">
        <ele>3213.0</ele>
        <time>2022-11-20T11:22:08.000Z</time>
      </trkpt>
      <trkpt lat="37.05924" lon="-3.37050333">
        <ele>3213.0</ele>
        <time>2022-11-20T11:22:09.000Z</time>
      </trkpt>
      <trkpt lat="37.05924333" lon="-3.37049833">
        <ele>3214.0</ele>
        <time>2022-11-20T11:22:10.000Z</time>
      </trkpt>
      <trkpt lat="37.05924833" lon="-3.37049333">
        <ele>3214.0</ele>
        <time>2022-11-20T11:22:11.000Z</time>
      </trkpt>
      <trkpt lat="37.05925167" lon="-3.37048833">
        <ele>3214.0</ele>
        <time>2022-11-20T11:22:12.000Z</time>
      </trkpt>
      <trkpt lat="37.059255" lon="-3.37048333">
        <ele>3214.0</ele>
        <time>2022-11-20T11:22:13.000Z</time>
      </trkpt>
      <trkpt lat="37.05925833" lon="-3.37047833">
        <ele>3214.0</ele>
        <time>2022-11-20T11:22:14.000Z</time>
      </trkpt>
      <trkpt lat="37.05925833" lon="-3.37047333">
        <ele>3214.0</ele>
        <time>2022-11-20T11:22:15.000Z</time>
      </trkpt>
      <trkpt lat="37.05926" lon="-3.37047167">
        <ele>3214.0</ele>
        <time>2022-11-20T11:22:16.000Z</time>
      </trkpt>
      <trkpt lat="37.05925667" lon="-3.37046833">
        <ele>3214.0</ele>
        <time>2022-11-20T11:22:17.000Z</time>
      </trkpt>
      <trkpt lat="37.05925167" lon="-3.37046833">
        <ele>3214.0</ele>
        <time>2022-11-20T11:22:18.000Z</time>
      </trkpt>
      <trkpt lat="37.05924833" lon="-3.37046833">
        <ele>3214.0</ele>
        <time>2022-11-20T11:22:19.000Z</time>
      </trkpt>
      <trkpt lat="37.05924167" lon="-3.37046833">
        <ele>3215.0</ele>
        <time>2022-11-20T11:22:20.000Z</time>
      </trkpt>
      <trkpt lat="37.05923667" lon="-3.37046833">
        <ele>3215.0</ele>
        <time>2022-11-20T11:22:21.000Z</time>
      </trkpt>
      <trkpt lat="37.05923333" lon="-3.370465">
        <ele>3215.0</ele>
        <time>2022-11-20T11:22:22.000Z</time>
      </trkpt>
      <trkpt lat="37.05922667" lon="-3.37046167">
        <ele>3215.0</ele>
        <time>2022-11-20T11:22:23.000Z</time>
      </trkpt>
      <trkpt lat="37.05922333" lon="-3.37045833">
        <ele>3215.0</ele>
        <time>2022-11-20T11:22:24.000Z</time>
      </trkpt>
      <trkpt lat="37.05922" lon="-3.370455">
        <ele>3216.0</ele>
        <time>2022-11-20T11:22:25.000Z</time>
      </trkpt>
      <trkpt lat="37.05921833" lon="-3.37045167">
        <ele>3216.0</ele>
        <time>2022-11-20T11:22:26.000Z</time>
      </trkpt>
      <trkpt lat="37.059215" lon="-3.37044833">
        <ele>3216.0</ele>
        <time>2022-11-20T11:22:27.000Z</time>
      </trkpt>
      <trkpt lat="37.05921167" lon="-3.37044667">
        <ele>3216.0</ele>
        <time>2022-11-20T11:22:28.000Z</time>
      </trkpt>
      <trkpt lat="37.05920833" lon="-3.370445">
        <ele>3216.0</ele>
        <time>2022-11-20T11:22:29.000Z</time>
      </trkpt>
      <trkpt lat="37.05920333" lon="-3.37044333">
        <ele>3217.0</ele>
        <time>2022-11-20T11:22:30.000Z</time>
      </trkpt>
      <trkpt lat="37.05919833" lon="-3.37044167">
        <ele>3217.0</ele>
        <time>2022-11-20T11:22:31.000Z</time>
      </trkpt>
      <trkpt lat="37.059195" lon="-3.37044">
        <ele>3217.0</ele>
        <time>2022-11-20T11:22:32.000Z</time>
      </trkpt>
      <trkpt lat="37.05919333" lon="-3.37044">
        <ele>3217.0</ele>
        <time>2022-11-20T11:22:33.000Z</time>
      </trkpt>
      <trkpt lat="37.059185" lon="-3.37043833">
        <ele>3217.0</ele>
        <time>2022-11-20T11:22:34.000Z</time>
      </trkpt>
      <trkpt lat="37.05917833" lon="-3.37043667">
        <ele>3218.0</ele>
        <time>2022-11-20T11:22:35.000Z</time>
      </trkpt>
      <trkpt lat="37.059175" lon="-3.370435">
        <ele>3218.0</ele>
        <time>2022-11-20T11:22:36.000Z</time>
      </trkpt>
      <trkpt lat="37.05916833" lon="-3.37043">
        <ele>3218.0</ele>
        <time>2022-11-20T11:22:37.000Z</time>
      </trkpt>
      <trkpt lat="37.059165" lon="-3.37042333">
        <ele>3218.0</ele>
        <time>2022-11-20T11:22:38.000Z</time>
      </trkpt>
      <trkpt lat="37.05916333" lon="-3.37041667">
        <ele>3218.0</ele>
        <time>2022-11-20T11:22:39.000Z</time>
      </trkpt>
      <trkpt lat="37.059165" lon="-3.37040833">
        <ele>3219.0</ele>
        <time>2022-11-20T11:22:40.000Z</time>
      </trkpt>
      <trkpt lat="37.05916667" lon="-3.370405">
        <ele>3219.0</ele>
        <time>2022-11-20T11:22:41.000Z</time>
      </trkpt>
      <trkpt lat="37.05916833" lon="-3.37039833">
        <ele>3219.0</ele>
        <time>2022-11-20T11:22:42.000Z</time>
      </trkpt>
      <trkpt lat="37.05917" lon="-3.37039333">
        <ele>3219.0</ele>
        <time>2022-11-20T11:22:43.000Z</time>
      </trkpt>
      <trkpt lat="37.05917167" lon="-3.37039">
        <ele>3219.0</ele>
        <time>2022-11-20T11:22:44.000Z</time>
      </trkpt>
      <trkpt lat="37.05917" lon="-3.37038667">
        <ele>3220.0</ele>
        <time>2022-11-20T11:22:45.000Z</time>
      </trkpt>
      <trkpt lat="37.05917" lon="-3.37038">
        <ele>3220.0</ele>
        <time>2022-11-20T11:22:46.000Z</time>
      </trkpt>
      <trkpt lat="37.05916833" lon="-3.37037667">
        <ele>3220.0</ele>
        <time>2022-11-20T11:22:47.000Z</time>
      </trkpt>
      <trkpt lat="37.059165" lon="-3.37037667">
        <ele>3220.0</ele>
        <time>2022-11-20T11:22:48.000Z</time>
      </trkpt>
      <trkpt lat="37.05916" lon="-3.37037667">
        <ele>3220.0</ele>
        <time>2022-11-20T11:22:49.000Z</time>
      </trkpt>
      <trkpt lat="37.05915333" lon="-3.37037667">
        <ele>3221.0</ele>
        <time>2022-11-20T11:22:50.000Z</time>
      </trkpt>
      <trkpt lat="37.05914667" lon="-3.37037667">
        <ele>3221.0</ele>
        <time>2022-11-20T11:22:51.000Z</time>
      </trkpt>
      <trkpt lat="37.05914167" lon="-3.370375">
        <ele>3221.0</ele>
        <time>2022-11-20T11:22:52.000Z</time>
      </trkpt>
      <trkpt lat="37.05913833" lon="-3.370375">
        <ele>3221.0</ele>
        <time>2022-11-20T11:22:53.000Z</time>
      </trkpt>
      <trkpt lat="37.05913333" lon="-3.37037167">
        <ele>3221.0</ele>
        <time>2022-11-20T11:22:54.000Z</time>
      </trkpt>
      <trkpt lat="37.05912667" lon="-3.37037167">
        <ele>3221.0</ele>
        <time>2022-11-20T11:22:55.000Z</time>
      </trkpt>
      <trkpt lat="37.05912333" lon="-3.37037167">
        <ele>3221.0</ele>
        <time>2022-11-20T11:22:56.000Z</time>
      </trkpt>
      <trkpt lat="37.05911833" lon="-3.37037">
        <ele>3221.0</ele>
        <time>2022-11-20T11:22:57.000Z</time>
      </trkpt>
      <trkpt lat="37.05911333" lon="-3.37036833">
        <ele>3222.0</ele>
        <time>2022-11-20T11:22:58.000Z</time>
      </trkpt>
      <trkpt lat="37.05910667" lon="-3.37036">
        <ele>3222.0</ele>
        <time>2022-11-20T11:22:59.000Z</time>
      </trkpt>
      <trkpt lat="37.05910333" lon="-3.37035333">
        <ele>3222.0</ele>
        <time>2022-11-20T11:23:00.000Z</time>
      </trkpt>
      <trkpt lat="37.05910333" lon="-3.37034833">
        <ele>3222.0</ele>
        <time>2022-11-20T11:23:01.000Z</time>
      </trkpt>
      <trkpt lat="37.059105" lon="-3.370345">
        <ele>3222.0</ele>
        <time>2022-11-20T11:23:02.000Z</time>
      </trkpt>
      <trkpt lat="37.05910667" lon="-3.37033833">
        <ele>3222.0</ele>
        <time>2022-11-20T11:23:03.000Z</time>
      </trkpt>
      <trkpt lat="37.05910833" lon="-3.37033333">
        <ele>3222.0</ele>
        <time>2022-11-20T11:23:04.000Z</time>
      </trkpt>
      <trkpt lat="37.05910667" lon="-3.37033">
        <ele>3223.0</ele>
        <time>2022-11-20T11:23:05.000Z</time>
      </trkpt>
      <trkpt lat="37.059105" lon="-3.37032667">
        <ele>3223.0</ele>
        <time>2022-11-20T11:23:06.000Z</time>
      </trkpt>
      <trkpt lat="37.05910167" lon="-3.370325">
        <ele>3223.0</ele>
        <time>2022-11-20T11:23:07.000Z</time>
      </trkpt>
      <trkpt lat="37.05909667" lon="-3.37032167">
        <ele>3223.0</ele>
        <time>2022-11-20T11:23:08.000Z</time>
      </trkpt>
      <trkpt lat="37.05909" lon="-3.37032">
        <ele>3224.0</ele>
        <time>2022-11-20T11:23:09.000Z</time>
      </trkpt>
      <trkpt lat="37.05908667" lon="-3.37032">
        <ele>3224.0</ele>
        <time>2022-11-20T11:23:10.000Z</time>
      </trkpt>
      <trkpt lat="37.05908" lon="-3.37032">
        <ele>3224.0</ele>
        <time>2022-11-20T11:23:11.000Z</time>
      </trkpt>
      <trkpt lat="37.05907333" lon="-3.37031833">
        <ele>3224.0</ele>
        <time>2022-11-20T11:23:12.000Z</time>
      </trkpt>
      <trkpt lat="37.05907" lon="-3.37031667">
        <ele>3224.0</ele>
        <time>2022-11-20T11:23:13.000Z</time>
      </trkpt>
      <trkpt lat="37.059065" lon="-3.37031">
        <ele>3224.0</ele>
        <time>2022-11-20T11:23:14.000Z</time>
      </trkpt>
      <trkpt lat="37.05906333" lon="-3.37030333">
        <ele>3225.0</ele>
        <time>2022-11-20T11:23:15.000Z</time>
      </trkpt>
      <trkpt lat="37.059065" lon="-3.3703">
        <ele>3225.0</ele>
        <time>2022-11-20T11:23:16.000Z</time>
      </trkpt>
      <trkpt lat="37.05906667" lon="-3.370295">
        <ele>3225.0</ele>
        <time>2022-11-20T11:23:17.000Z</time>
      </trkpt>
      <trkpt lat="37.05906667" lon="-3.37028833">
        <ele>3225.0</ele>
        <time>2022-11-20T11:23:18.000Z</time>
      </trkpt>
      <trkpt lat="37.05906833" lon="-3.37028333">
        <ele>3225.0</ele>
        <time>2022-11-20T11:23:19.000Z</time>
      </trkpt>
      <trkpt lat="37.05907167" lon="-3.37027833">
        <ele>3225.0</ele>
        <time>2022-11-20T11:23:20.000Z</time>
      </trkpt>
      <trkpt lat="37.05907333" lon="-3.37027333">
        <ele>3226.0</ele>
        <time>2022-11-20T11:23:21.000Z</time>
      </trkpt>
      <trkpt lat="37.059075" lon="-3.37026833">
        <ele>3226.0</ele>
        <time>2022-11-20T11:23:22.000Z</time>
      </trkpt>
      <trkpt lat="37.05907667" lon="-3.37026333">
        <ele>3226.0</ele>
        <time>2022-11-20T11:23:23.000Z</time>
      </trkpt>
      <trkpt lat="37.05907667" lon="-3.37026">
        <ele>3226.0</ele>
        <time>2022-11-20T11:23:24.000Z</time>
      </trkpt>
      <trkpt lat="37.05907667" lon="-3.370255">
        <ele>3226.0</ele>
        <time>2022-11-20T11:23:25.000Z</time>
      </trkpt>
      <trkpt lat="37.059075" lon="-3.37025167">
        <ele>3227.0</ele>
        <time>2022-11-20T11:23:26.000Z</time>
      </trkpt>
      <trkpt lat="37.05907333" lon="-3.37025">
        <ele>3227.0</ele>
        <time>2022-11-20T11:23:27.000Z</time>
      </trkpt>
      <trkpt lat="37.05907" lon="-3.37024667">
        <ele>3227.0</ele>
        <time>2022-11-20T11:23:28.000Z</time>
      </trkpt>
      <trkpt lat="37.05906667" lon="-3.37024667">
        <ele>3227.0</ele>
        <time>2022-11-20T11:23:29.000Z</time>
      </trkpt>
      <trkpt lat="37.05906333" lon="-3.37024667">
        <ele>3227.0</ele>
        <time>2022-11-20T11:23:30.000Z</time>
      </trkpt>
      <trkpt lat="37.05905833" lon="-3.37024667">
        <ele>3228.0</ele>
        <time>2022-11-20T11:23:31.000Z</time>
      </trkpt>
      <trkpt lat="37.059055" lon="-3.370245">
        <ele>3228.0</ele>
        <time>2022-11-20T11:23:32.000Z</time>
      </trkpt>
      <trkpt lat="37.05904833" lon="-3.370245">
        <ele>3228.0</ele>
        <time>2022-11-20T11:23:33.000Z</time>
      </trkpt>
      <trkpt lat="37.059045" lon="-3.37024667">
        <ele>3228.0</ele>
        <time>2022-11-20T11:23:34.000Z</time>
      </trkpt>
      <trkpt lat="37.05904167" lon="-3.370245">
        <ele>3228.0</ele>
        <time>2022-11-20T11:23:35.000Z</time>
      </trkpt>
      <trkpt lat="37.05903333" lon="-3.370245">
        <ele>3229.0</ele>
        <time>2022-11-20T11:23:36.000Z</time>
      </trkpt>
      <trkpt lat="37.05902833" lon="-3.370245">
        <ele>3229.0</ele>
        <time>2022-11-20T11:23:37.000Z</time>
      </trkpt>
      <trkpt lat="37.05902167" lon="-3.370245">
        <ele>3229.0</ele>
        <time>2022-11-20T11:23:38.000Z</time>
      </trkpt>
      <trkpt lat="37.059015" lon="-3.37024333">
        <ele>3229.0</ele>
        <time>2022-11-20T11:23:39.000Z</time>
      </trkpt>
      <trkpt lat="37.05901" lon="-3.37024167">
        <ele>3229.0</ele>
        <time>2022-11-20T11:23:40.000Z</time>
      </trkpt>
      <trkpt lat="37.05900667" lon="-3.370235">
        <ele>3229.0</ele>
        <time>2022-11-20T11:23:41.000Z</time>
      </trkpt>
      <trkpt lat="37.05900667" lon="-3.37022833">
        <ele>3230.0</ele>
        <time>2022-11-20T11:23:42.000Z</time>
      </trkpt>
      <trkpt lat="37.05900833" lon="-3.37022167">
        <ele>3230.0</ele>
        <time>2022-11-20T11:23:43.000Z</time>
      </trkpt>
      <trkpt lat="37.05901" lon="-3.37021667">
        <ele>3230.0</ele>
        <time>2022-11-20T11:23:44.000Z</time>
      </trkpt>
      <trkpt lat="37.05901" lon="-3.370215">
        <ele>3230.0</ele>
        <time>2022-11-20T11:23:45.000Z</time>
      </trkpt>
      <trkpt lat="37.05901167" lon="-3.37021167">
        <ele>3230.0</ele>
        <time>2022-11-20T11:23:46.000Z</time>
      </trkpt>
      <trkpt lat="37.05901333" lon="-3.37020667">
        <ele>3230.0</ele>
        <time>2022-11-20T11:23:47.000Z</time>
      </trkpt>
      <trkpt lat="37.05901167" lon="-3.37020167">
        <ele>3231.0</ele>
        <time>2022-11-20T11:23:48.000Z</time>
      </trkpt>
      <trkpt lat="37.05900833" lon="-3.37020167">
        <ele>3231.0</ele>
        <time>2022-11-20T11:23:49.000Z</time>
      </trkpt>
      <trkpt lat="37.05900667" lon="-3.37020167">
        <ele>3231.0</ele>
        <time>2022-11-20T11:23:50.000Z</time>
      </trkpt>
      <trkpt lat="37.05900167" lon="-3.37020167">
        <ele>3231.0</ele>
        <time>2022-11-20T11:23:51.000Z</time>
      </trkpt>
      <trkpt lat="37.05899833" lon="-3.37020333">
        <ele>3231.0</ele>
        <time>2022-11-20T11:23:52.000Z</time>
      </trkpt>
      <trkpt lat="37.05899833" lon="-3.37020333">
        <ele>3231.0</ele>
        <time>2022-11-20T11:23:53.000Z</time>
      </trkpt>
      <trkpt lat="37.05899833" lon="-3.37020333">
        <ele>3231.0</ele>
        <time>2022-11-20T11:23:54.000Z</time>
      </trkpt>
      <trkpt lat="37.05899833" lon="-3.37020333">
        <ele>3231.0</ele>
        <time>2022-11-20T11:23:55.000Z</time>
      </trkpt>
      <trkpt lat="37.05899833" lon="-3.37020333">
        <ele>3231.0</ele>
        <time>2022-11-20T11:23:56.000Z</time>
      </trkpt>
      <trkpt lat="37.05899667" lon="-3.37020167">
        <ele>3231.0</ele>
        <time>2022-11-20T11:23:57.000Z</time>
      </trkpt>
      <trkpt lat="37.05899667" lon="-3.37020167">
        <ele>3231.0</ele>
        <time>2022-11-20T11:23:58.000Z</time>
      </trkpt>
      <trkpt lat="37.05899667" lon="-3.37020167">
        <ele>3231.0</ele>
        <time>2022-11-20T11:23:59.000Z</time>
      </trkpt>
      <trkpt lat="37.05899667" lon="-3.37020167">
        <ele>3231.0</ele>
        <time>2022-11-20T11:24:00.000Z</time>
      </trkpt>
      <trkpt lat="37.05899667" lon="-3.37020167">
        <ele>3231.0</ele>
        <time>2022-11-20T11:24:01.000Z</time>
      </trkpt>
      <trkpt lat="37.05899667" lon="-3.37020167">
        <ele>3231.0</ele>
        <time>2022-11-20T11:24:02.000Z</time>
      </trkpt>
      <trkpt lat="37.05899667" lon="-3.37020167">
        <ele>3231.0</ele>
        <time>2022-11-20T11:24:03.000Z</time>
      </trkpt>
      <trkpt lat="37.05899333" lon="-3.37020167">
        <ele>3232.0</ele>
        <time>2022-11-20T11:24:04.000Z</time>
      </trkpt>
      <trkpt lat="37.05898833" lon="-3.370195">
        <ele>3232.0</ele>
        <time>2022-11-20T11:24:05.000Z</time>
      </trkpt>
      <trkpt lat="37.05898667" lon="-3.37018833">
        <ele>3232.0</ele>
        <time>2022-11-20T11:24:06.000Z</time>
      </trkpt>
      <trkpt lat="37.05898667" lon="-3.37018167">
        <ele>3232.0</ele>
        <time>2022-11-20T11:24:07.000Z</time>
      </trkpt>
      <trkpt lat="37.058985" lon="-3.37017333">
        <ele>3232.0</ele>
        <time>2022-11-20T11:24:08.000Z</time>
      </trkpt>
      <trkpt lat="37.058985" lon="-3.37016833">
        <ele>3232.0</ele>
        <time>2022-11-20T11:24:09.000Z</time>
      </trkpt>
      <trkpt lat="37.058985" lon="-3.37016833">
        <ele>3233.0</ele>
        <time>2022-11-20T11:24:10.000Z</time>
      </trkpt>
      <trkpt lat="37.05898" lon="-3.370165">
        <ele>3233.0</ele>
        <time>2022-11-20T11:24:11.000Z</time>
      </trkpt>
      <trkpt lat="37.058975" lon="-3.37016333">
        <ele>3233.0</ele>
        <time>2022-11-20T11:24:12.000Z</time>
      </trkpt>
      <trkpt lat="37.05897" lon="-3.37016167">
        <ele>3233.0</ele>
        <time>2022-11-20T11:24:13.000Z</time>
      </trkpt>
      <trkpt lat="37.05896333" lon="-3.37016">
        <ele>3233.0</ele>
        <time>2022-11-20T11:24:14.000Z</time>
      </trkpt>
      <trkpt lat="37.05895833" lon="-3.37016">
        <ele>3233.0</ele>
        <time>2022-11-20T11:24:15.000Z</time>
      </trkpt>
      <trkpt lat="37.05895333" lon="-3.37015667">
        <ele>3234.0</ele>
        <time>2022-11-20T11:24:16.000Z</time>
      </trkpt>
      <trkpt lat="37.05895" lon="-3.37014833">
        <ele>3234.0</ele>
        <time>2022-11-20T11:24:17.000Z</time>
      </trkpt>
      <trkpt lat="37.05894667" lon="-3.37014333">
        <ele>3234.0</ele>
        <time>2022-11-20T11:24:18.000Z</time>
      </trkpt>
      <trkpt lat="37.05894333" lon="-3.37013833">
        <ele>3234.0</ele>
        <time>2022-11-20T11:24:19.000Z</time>
      </trkpt>
      <trkpt lat="37.05894" lon="-3.37013167">
        <ele>3235.0</ele>
        <time>2022-11-20T11:24:20.000Z</time>
      </trkpt>
      <trkpt lat="37.05894" lon="-3.37012333">
        <ele>3235.0</ele>
        <time>2022-11-20T11:24:21.000Z</time>
      </trkpt>
      <trkpt lat="37.058945" lon="-3.37012">
        <ele>3235.0</ele>
        <time>2022-11-20T11:24:22.000Z</time>
      </trkpt>
      <trkpt lat="37.05894833" lon="-3.37011667">
        <ele>3235.0</ele>
        <time>2022-11-20T11:24:23.000Z</time>
      </trkpt>
      <trkpt lat="37.05895167" lon="-3.37011">
        <ele>3235.0</ele>
        <time>2022-11-20T11:24:24.000Z</time>
      </trkpt>
      <trkpt lat="37.05895" lon="-3.37010833">
        <ele>3235.0</ele>
        <time>2022-11-20T11:24:25.000Z</time>
      </trkpt>
      <trkpt lat="37.05894833" lon="-3.37010167">
        <ele>3235.0</ele>
        <time>2022-11-20T11:24:26.000Z</time>
      </trkpt>
      <trkpt lat="37.05894667" lon="-3.3701">
        <ele>3235.0</ele>
        <time>2022-11-20T11:24:27.000Z</time>
      </trkpt>
      <trkpt lat="37.05894333" lon="-3.37009833">
        <ele>3235.0</ele>
        <time>2022-11-20T11:24:28.000Z</time>
      </trkpt>
      <trkpt lat="37.05893833" lon="-3.37009667">
        <ele>3236.0</ele>
        <time>2022-11-20T11:24:29.000Z</time>
      </trkpt>
      <trkpt lat="37.05893167" lon="-3.370095">
        <ele>3236.0</ele>
        <time>2022-11-20T11:24:30.000Z</time>
      </trkpt>
      <trkpt lat="37.058925" lon="-3.37009333">
        <ele>3236.0</ele>
        <time>2022-11-20T11:24:31.000Z</time>
      </trkpt>
      <trkpt lat="37.05892" lon="-3.37009">
        <ele>3236.0</ele>
        <time>2022-11-20T11:24:32.000Z</time>
      </trkpt>
      <trkpt lat="37.05891667" lon="-3.37008333">
        <ele>3236.0</ele>
        <time>2022-11-20T11:24:33.000Z</time>
      </trkpt>
      <trkpt lat="37.05891167" lon="-3.37007833">
        <ele>3237.0</ele>
        <time>2022-11-20T11:24:34.000Z</time>
      </trkpt>
      <trkpt lat="37.05890833" lon="-3.37007667">
        <ele>3237.0</ele>
        <time>2022-11-20T11:24:35.000Z</time>
      </trkpt>
      <trkpt lat="37.05890333" lon="-3.37007333">
        <ele>3237.0</ele>
        <time>2022-11-20T11:24:36.000Z</time>
      </trkpt>
      <trkpt lat="37.0589" lon="-3.37006833">
        <ele>3237.0</ele>
        <time>2022-11-20T11:24:37.000Z</time>
      </trkpt>
      <trkpt lat="37.058895" lon="-3.37006333">
        <ele>3237.0</ele>
        <time>2022-11-20T11:24:38.000Z</time>
      </trkpt>
      <trkpt lat="37.058895" lon="-3.370055">
        <ele>3237.0</ele>
        <time>2022-11-20T11:24:39.000Z</time>
      </trkpt>
      <trkpt lat="37.05889667" lon="-3.37005">
        <ele>3238.0</ele>
        <time>2022-11-20T11:24:40.000Z</time>
      </trkpt>
      <trkpt lat="37.05889833" lon="-3.37004333">
        <ele>3238.0</ele>
        <time>2022-11-20T11:24:41.000Z</time>
      </trkpt>
      <trkpt lat="37.0589" lon="-3.37004">
        <ele>3238.0</ele>
        <time>2022-11-20T11:24:42.000Z</time>
      </trkpt>
      <trkpt lat="37.05890167" lon="-3.370035">
        <ele>3238.0</ele>
        <time>2022-11-20T11:24:43.000Z</time>
      </trkpt>
      <trkpt lat="37.0589" lon="-3.37003167">
        <ele>3238.0</ele>
        <time>2022-11-20T11:24:44.000Z</time>
      </trkpt>
      <trkpt lat="37.0589" lon="-3.370025">
        <ele>3238.0</ele>
        <time>2022-11-20T11:24:45.000Z</time>
      </trkpt>
      <trkpt lat="37.05890167" lon="-3.37002">
        <ele>3238.0</ele>
        <time>2022-11-20T11:24:46.000Z</time>
      </trkpt>
      <trkpt lat="37.05890333" lon="-3.37001333">
        <ele>3239.0</ele>
        <time>2022-11-20T11:24:47.000Z</time>
      </trkpt>
      <trkpt lat="37.05890667" lon="-3.37001">
        <ele>3239.0</ele>
        <time>2022-11-20T11:24:48.000Z</time>
      </trkpt>
      <trkpt lat="37.05890833" lon="-3.37000667">
        <ele>3239.0</ele>
        <time>2022-11-20T11:24:49.000Z</time>
      </trkpt>
      <trkpt lat="37.05891167" lon="-3.37000167">
        <ele>3239.0</ele>
        <time>2022-11-20T11:24:50.000Z</time>
      </trkpt>
      <trkpt lat="37.05891167" lon="-3.36999667">
        <ele>3239.0</ele>
        <time>2022-11-20T11:24:51.000Z</time>
      </trkpt>
      <trkpt lat="37.05891167" lon="-3.36999167">
        <ele>3239.0</ele>
        <time>2022-11-20T11:24:52.000Z</time>
      </trkpt>
      <trkpt lat="37.05891333" lon="-3.36998667">
        <ele>3239.0</ele>
        <time>2022-11-20T11:24:53.000Z</time>
      </trkpt>
      <trkpt lat="37.058915" lon="-3.36998333">
        <ele>3239.0</ele>
        <time>2022-11-20T11:24:54.000Z</time>
      </trkpt>
      <trkpt lat="37.058915" lon="-3.36997833">
        <ele>3240.0</ele>
        <time>2022-11-20T11:24:55.000Z</time>
      </trkpt>
      <trkpt lat="37.058915" lon="-3.36997167">
        <ele>3240.0</ele>
        <time>2022-11-20T11:24:56.000Z</time>
      </trkpt>
      <trkpt lat="37.05891667" lon="-3.36996667">
        <ele>3240.0</ele>
        <time>2022-11-20T11:24:57.000Z</time>
      </trkpt>
      <trkpt lat="37.05891667" lon="-3.369965">
        <ele>3240.0</ele>
        <time>2022-11-20T11:24:58.000Z</time>
      </trkpt>
      <trkpt lat="37.05891667" lon="-3.36995833">
        <ele>3240.0</ele>
        <time>2022-11-20T11:24:59.000Z</time>
      </trkpt>
      <trkpt lat="37.05891833" lon="-3.36995667">
        <ele>3240.0</ele>
        <time>2022-11-20T11:25:00.000Z</time>
      </trkpt>
      <trkpt lat="37.05891667" lon="-3.36995333">
        <ele>3240.0</ele>
        <time>2022-11-20T11:25:01.000Z</time>
      </trkpt>
      <trkpt lat="37.05891833" lon="-3.36995333">
        <ele>3240.0</ele>
        <time>2022-11-20T11:25:02.000Z</time>
      </trkpt>
      <trkpt lat="37.058915" lon="-3.36995">
        <ele>3240.0</ele>
        <time>2022-11-20T11:25:03.000Z</time>
      </trkpt>
      <trkpt lat="37.05891167" lon="-3.369945">
        <ele>3240.0</ele>
        <time>2022-11-20T11:25:04.000Z</time>
      </trkpt>
      <trkpt lat="37.05891167" lon="-3.36994167">
        <ele>3240.0</ele>
        <time>2022-11-20T11:25:05.000Z</time>
      </trkpt>
      <trkpt lat="37.05891" lon="-3.36993833">
        <ele>3241.0</ele>
        <time>2022-11-20T11:25:06.000Z</time>
      </trkpt>
      <trkpt lat="37.05890833" lon="-3.36993667">
        <ele>3241.0</ele>
        <time>2022-11-20T11:25:07.000Z</time>
      </trkpt>
      <trkpt lat="37.05890667" lon="-3.36993167">
        <ele>3241.0</ele>
        <time>2022-11-20T11:25:08.000Z</time>
      </trkpt>
      <trkpt lat="37.058905" lon="-3.36992833">
        <ele>3241.0</ele>
        <time>2022-11-20T11:25:09.000Z</time>
      </trkpt>
      <trkpt lat="37.05890333" lon="-3.36992667">
        <ele>3241.0</ele>
        <time>2022-11-20T11:25:10.000Z</time>
      </trkpt>
      <trkpt lat="37.05889833" lon="-3.36992333">
        <ele>3241.0</ele>
        <time>2022-11-20T11:25:11.000Z</time>
      </trkpt>
      <trkpt lat="37.058895" lon="-3.36992">
        <ele>3241.0</ele>
        <time>2022-11-20T11:25:12.000Z</time>
      </trkpt>
      <trkpt lat="37.05889167" lon="-3.36992">
        <ele>3242.0</ele>
        <time>2022-11-20T11:25:13.000Z</time>
      </trkpt>
      <trkpt lat="37.05888833" lon="-3.36992167">
        <ele>3242.0</ele>
        <time>2022-11-20T11:25:14.000Z</time>
      </trkpt>
      <trkpt lat="37.05888833" lon="-3.36992167">
        <ele>3242.0</ele>
        <time>2022-11-20T11:25:15.000Z</time>
      </trkpt>
      <trkpt lat="37.05888833" lon="-3.36992167">
        <ele>3242.0</ele>
        <time>2022-11-20T11:25:16.000Z</time>
      </trkpt>
      <trkpt lat="37.05888833" lon="-3.36992167">
        <ele>3242.0</ele>
        <time>2022-11-20T11:25:17.000Z</time>
      </trkpt>
      <trkpt lat="37.05888833" lon="-3.36992167">
        <ele>3242.0</ele>
        <time>2022-11-20T11:25:18.000Z</time>
      </trkpt>
      <trkpt lat="37.05888833" lon="-3.36992167">
        <ele>3242.0</ele>
        <time>2022-11-20T11:25:19.000Z</time>
      </trkpt>
      <trkpt lat="37.05888833" lon="-3.36992167">
        <ele>3242.0</ele>
        <time>2022-11-20T11:25:20.000Z</time>
      </trkpt>
      <trkpt lat="37.05888833" lon="-3.36992167">
        <ele>3242.0</ele>
        <time>2022-11-20T11:25:21.000Z</time>
      </trkpt>
      <trkpt lat="37.05888833" lon="-3.36992167">
        <ele>3242.0</ele>
        <time>2022-11-20T11:25:22.000Z</time>
      </trkpt>
      <trkpt lat="37.05888833" lon="-3.36992167">
        <ele>3242.0</ele>
        <time>2022-11-20T11:25:23.000Z</time>
      </trkpt>
      <trkpt lat="37.05888833" lon="-3.36992167">
        <ele>3242.0</ele>
        <time>2022-11-20T11:25:24.000Z</time>
      </trkpt>
      <trkpt lat="37.058885" lon="-3.36992">
        <ele>3242.0</ele>
        <time>2022-11-20T11:25:25.000Z</time>
      </trkpt>
      <trkpt lat="37.05888" lon="-3.36991833">
        <ele>3242.0</ele>
        <time>2022-11-20T11:25:26.000Z</time>
      </trkpt>
      <trkpt lat="37.05887333" lon="-3.36991667">
        <ele>3242.0</ele>
        <time>2022-11-20T11:25:27.000Z</time>
      </trkpt>
      <trkpt lat="37.05887" lon="-3.369915">
        <ele>3243.0</ele>
        <time>2022-11-20T11:25:28.000Z</time>
      </trkpt>
      <trkpt lat="37.058865" lon="-3.36991333">
        <ele>3243.0</ele>
        <time>2022-11-20T11:25:29.000Z</time>
      </trkpt>
      <trkpt lat="37.05886" lon="-3.36990833">
        <ele>3243.0</ele>
        <time>2022-11-20T11:25:30.000Z</time>
      </trkpt>
      <trkpt lat="37.058855" lon="-3.36990167">
        <ele>3243.0</ele>
        <time>2022-11-20T11:25:31.000Z</time>
      </trkpt>
      <trkpt lat="37.05885167" lon="-3.36990167">
        <ele>3244.0</ele>
        <time>2022-11-20T11:25:32.000Z</time>
      </trkpt>
      <trkpt lat="37.05884833" lon="-3.36989833">
        <ele>3244.0</ele>
        <time>2022-11-20T11:25:33.000Z</time>
      </trkpt>
      <trkpt lat="37.05884" lon="-3.36989833">
        <ele>3244.0</ele>
        <time>2022-11-20T11:25:34.000Z</time>
      </trkpt>
      <trkpt lat="37.058835" lon="-3.36989833">
        <ele>3244.0</ele>
        <time>2022-11-20T11:25:35.000Z</time>
      </trkpt>
      <trkpt lat="37.05883167" lon="-3.36989667">
        <ele>3244.0</ele>
        <time>2022-11-20T11:25:36.000Z</time>
      </trkpt>
      <trkpt lat="37.058825" lon="-3.36989667">
        <ele>3244.0</ele>
        <time>2022-11-20T11:25:37.000Z</time>
      </trkpt>
      <trkpt lat="37.05882" lon="-3.36989667">
        <ele>3245.0</ele>
        <time>2022-11-20T11:25:38.000Z</time>
      </trkpt>
      <trkpt lat="37.05881333" lon="-3.369895">
        <ele>3245.0</ele>
        <time>2022-11-20T11:25:39.000Z</time>
      </trkpt>
      <trkpt lat="37.05880667" lon="-3.369895">
        <ele>3245.0</ele>
        <time>2022-11-20T11:25:40.000Z</time>
      </trkpt>
      <trkpt lat="37.05880167" lon="-3.36989333">
        <ele>3245.0</ele>
        <time>2022-11-20T11:25:41.000Z</time>
      </trkpt>
      <trkpt lat="37.058795" lon="-3.36988333">
        <ele>3245.0</ele>
        <time>2022-11-20T11:25:42.000Z</time>
      </trkpt>
      <trkpt lat="37.05879167" lon="-3.36987667">
        <ele>3245.0</ele>
        <time>2022-11-20T11:25:43.000Z</time>
      </trkpt>
      <trkpt lat="37.05879167" lon="-3.36987333">
        <ele>3246.0</ele>
        <time>2022-11-20T11:25:44.000Z</time>
      </trkpt>
      <trkpt lat="37.05879333" lon="-3.36986833">
        <ele>3246.0</ele>
        <time>2022-11-20T11:25:45.000Z</time>
      </trkpt>
      <trkpt lat="37.058795" lon="-3.36986333">
        <ele>3246.0</ele>
        <time>2022-11-20T11:25:46.000Z</time>
      </trkpt>
      <trkpt lat="37.05879833" lon="-3.36986167">
        <ele>3246.0</ele>
        <time>2022-11-20T11:25:47.000Z</time>
      </trkpt>
      <trkpt lat="37.05880167" lon="-3.36985667">
        <ele>3246.0</ele>
        <time>2022-11-20T11:25:48.000Z</time>
      </trkpt>
      <trkpt lat="37.058805" lon="-3.36985333">
        <ele>3247.0</ele>
        <time>2022-11-20T11:25:49.000Z</time>
      </trkpt>
      <trkpt lat="37.05880667" lon="-3.36984833">
        <ele>3247.0</ele>
        <time>2022-11-20T11:25:50.000Z</time>
      </trkpt>
      <trkpt lat="37.05880833" lon="-3.36984667">
        <ele>3247.0</ele>
        <time>2022-11-20T11:25:51.000Z</time>
      </trkpt>
      <trkpt lat="37.05881" lon="-3.36984333">
        <ele>3247.0</ele>
        <time>2022-11-20T11:25:52.000Z</time>
      </trkpt>
      <trkpt lat="37.05881167" lon="-3.36984">
        <ele>3247.0</ele>
        <time>2022-11-20T11:25:53.000Z</time>
      </trkpt>
      <trkpt lat="37.05881167" lon="-3.36984">
        <ele>3247.0</ele>
        <time>2022-11-20T11:25:54.000Z</time>
      </trkpt>
      <trkpt lat="37.05881167" lon="-3.36983667">
        <ele>3247.0</ele>
        <time>2022-11-20T11:25:55.000Z</time>
      </trkpt>
      <trkpt lat="37.05880833" lon="-3.36983333">
        <ele>3247.0</ele>
        <time>2022-11-20T11:25:56.000Z</time>
      </trkpt>
      <trkpt lat="37.05880667" lon="-3.36983167">
        <ele>3247.0</ele>
        <time>2022-11-20T11:25:57.000Z</time>
      </trkpt>
      <trkpt lat="37.05880333" lon="-3.36983167">
        <ele>3247.0</ele>
        <time>2022-11-20T11:25:58.000Z</time>
      </trkpt>
      <trkpt lat="37.05880167" lon="-3.36983167">
        <ele>3248.0</ele>
        <time>2022-11-20T11:25:59.000Z</time>
      </trkpt>
      <trkpt lat="37.05879667" lon="-3.36982833">
        <ele>3248.0</ele>
        <time>2022-11-20T11:26:00.000Z</time>
      </trkpt>
      <trkpt lat="37.058795" lon="-3.36982833">
        <ele>3248.0</ele>
        <time>2022-11-20T11:26:01.000Z</time>
      </trkpt>
      <trkpt lat="37.05879" lon="-3.36982667">
        <ele>3248.0</ele>
        <time>2022-11-20T11:26:02.000Z</time>
      </trkpt>
      <trkpt lat="37.05878667" lon="-3.36982167">
        <ele>3248.0</ele>
        <time>2022-11-20T11:26:03.000Z</time>
      </trkpt>
      <trkpt lat="37.058785" lon="-3.36981667">
        <ele>3248.0</ele>
        <time>2022-11-20T11:26:04.000Z</time>
      </trkpt>
      <trkpt lat="37.058785" lon="-3.36981">
        <ele>3249.0</ele>
        <time>2022-11-20T11:26:05.000Z</time>
      </trkpt>
      <trkpt lat="37.058785" lon="-3.36980833">
        <ele>3249.0</ele>
        <time>2022-11-20T11:26:06.000Z</time>
      </trkpt>
      <trkpt lat="37.05878333" lon="-3.36980167">
        <ele>3249.0</ele>
        <time>2022-11-20T11:26:07.000Z</time>
      </trkpt>
      <trkpt lat="37.05878333" lon="-3.36979667">
        <ele>3249.0</ele>
        <time>2022-11-20T11:26:08.000Z</time>
      </trkpt>
      <trkpt lat="37.05878333" lon="-3.36979167">
        <ele>3249.0</ele>
        <time>2022-11-20T11:26:09.000Z</time>
      </trkpt>
      <trkpt lat="37.05878333" lon="-3.36978833">
        <ele>3249.0</ele>
        <time>2022-11-20T11:26:10.000Z</time>
      </trkpt>
      <trkpt lat="37.05878333" lon="-3.36978333">
        <ele>3249.0</ele>
        <time>2022-11-20T11:26:11.000Z</time>
      </trkpt>
      <trkpt lat="37.05878167" lon="-3.36978">
        <ele>3250.0</ele>
        <time>2022-11-20T11:26:12.000Z</time>
      </trkpt>
      <trkpt lat="37.05878" lon="-3.369775">
        <ele>3250.0</ele>
        <time>2022-11-20T11:26:13.000Z</time>
      </trkpt>
      <trkpt lat="37.05878" lon="-3.36977333">
        <ele>3250.0</ele>
        <time>2022-11-20T11:26:14.000Z</time>
      </trkpt>
      <trkpt lat="37.05877833" lon="-3.36977">
        <ele>3250.0</ele>
        <time>2022-11-20T11:26:15.000Z</time>
      </trkpt>
      <trkpt lat="37.05877667" lon="-3.36976833">
        <ele>3250.0</ele>
        <time>2022-11-20T11:26:16.000Z</time>
      </trkpt>
      <trkpt lat="37.058775" lon="-3.36976333">
        <ele>3250.0</ele>
        <time>2022-11-20T11:26:17.000Z</time>
      </trkpt>
      <trkpt lat="37.05877333" lon="-3.36976">
        <ele>3250.0</ele>
        <time>2022-11-20T11:26:18.000Z</time>
      </trkpt>
      <trkpt lat="37.05877" lon="-3.36975833">
        <ele>3251.0</ele>
        <time>2022-11-20T11:26:19.000Z</time>
      </trkpt>
      <trkpt lat="37.05876833" lon="-3.36975667">
        <ele>3251.0</ele>
        <time>2022-11-20T11:26:20.000Z</time>
      </trkpt>
      <trkpt lat="37.058765" lon="-3.36975667">
        <ele>3251.0</ele>
        <time>2022-11-20T11:26:21.000Z</time>
      </trkpt>
      <trkpt lat="37.05876167" lon="-3.36975667">
        <ele>3251.0</ele>
        <time>2022-11-20T11:26:22.000Z</time>
      </trkpt>
      <trkpt lat="37.05875833" lon="-3.36975833">
        <ele>3251.0</ele>
        <time>2022-11-20T11:26:23.000Z</time>
      </trkpt>
      <trkpt lat="37.058755" lon="-3.36975833">
        <ele>3251.0</ele>
        <time>2022-11-20T11:26:24.000Z</time>
      </trkpt>
      <trkpt lat="37.05875167" lon="-3.36975833">
        <ele>3251.0</ele>
        <time>2022-11-20T11:26:25.000Z</time>
      </trkpt>
      <trkpt lat="37.05875" lon="-3.36975667">
        <ele>3251.0</ele>
        <time>2022-11-20T11:26:26.000Z</time>
      </trkpt>
      <trkpt lat="37.05875" lon="-3.36975667">
        <ele>3251.0</ele>
        <time>2022-11-20T11:26:27.000Z</time>
      </trkpt>
      <trkpt lat="37.05875" lon="-3.36975667">
        <ele>3251.0</ele>
        <time>2022-11-20T11:26:28.000Z</time>
      </trkpt>
      <trkpt lat="37.05875" lon="-3.36975833">
        <ele>3251.0</ele>
        <time>2022-11-20T11:26:29.000Z</time>
      </trkpt>
      <trkpt lat="37.05874833" lon="-3.36975667">
        <ele>3252.0</ele>
        <time>2022-11-20T11:26:30.000Z</time>
      </trkpt>
      <trkpt lat="37.058745" lon="-3.36975833">
        <ele>3252.0</ele>
        <time>2022-11-20T11:26:31.000Z</time>
      </trkpt>
      <trkpt lat="37.05873833" lon="-3.369755">
        <ele>3252.0</ele>
        <time>2022-11-20T11:26:32.000Z</time>
      </trkpt>
      <trkpt lat="37.058735" lon="-3.36975">
        <ele>3252.0</ele>
        <time>2022-11-20T11:26:33.000Z</time>
      </trkpt>
      <trkpt lat="37.05873333" lon="-3.369745">
        <ele>3252.0</ele>
        <time>2022-11-20T11:26:34.000Z</time>
      </trkpt>
      <trkpt lat="37.05873333" lon="-3.36973667">
        <ele>3252.0</ele>
        <time>2022-11-20T11:26:35.000Z</time>
      </trkpt>
      <trkpt lat="37.058735" lon="-3.36973">
        <ele>3252.0</ele>
        <time>2022-11-20T11:26:36.000Z</time>
      </trkpt>
      <trkpt lat="37.05873667" lon="-3.36972333">
        <ele>3252.0</ele>
        <time>2022-11-20T11:26:37.000Z</time>
      </trkpt>
      <trkpt lat="37.05873667" lon="-3.36971833">
        <ele>3253.0</ele>
        <time>2022-11-20T11:26:38.000Z</time>
      </trkpt>
      <trkpt lat="37.05873667" lon="-3.369715">
        <ele>3253.0</ele>
        <time>2022-11-20T11:26:39.000Z</time>
      </trkpt>
      <trkpt lat="37.05873667" lon="-3.36971167">
        <ele>3253.0</ele>
        <time>2022-11-20T11:26:40.000Z</time>
      </trkpt>
      <trkpt lat="37.058735" lon="-3.36970833">
        <ele>3253.0</ele>
        <time>2022-11-20T11:26:41.000Z</time>
      </trkpt>
      <trkpt lat="37.05873333" lon="-3.36970667">
        <ele>3253.0</ele>
        <time>2022-11-20T11:26:42.000Z</time>
      </trkpt>
      <trkpt lat="37.05873" lon="-3.36970167">
        <ele>3253.0</ele>
        <time>2022-11-20T11:26:43.000Z</time>
      </trkpt>
      <trkpt lat="37.05872833" lon="-3.3697">
        <ele>3253.0</ele>
        <time>2022-11-20T11:26:44.000Z</time>
      </trkpt>
      <trkpt lat="37.05872667" lon="-3.36969667">
        <ele>3253.0</ele>
        <time>2022-11-20T11:26:45.000Z</time>
      </trkpt>
      <trkpt lat="37.058725" lon="-3.36969333">
        <ele>3254.0</ele>
        <time>2022-11-20T11:26:46.000Z</time>
      </trkpt>
      <trkpt lat="37.05872333" lon="-3.36969167">
        <ele>3254.0</ele>
        <time>2022-11-20T11:26:47.000Z</time>
      </trkpt>
      <trkpt lat="37.05872" lon="-3.36969">
        <ele>3254.0</ele>
        <time>2022-11-20T11:26:48.000Z</time>
      </trkpt>
      <trkpt lat="37.058715" lon="-3.36968833">
        <ele>3254.0</ele>
        <time>2022-11-20T11:26:49.000Z</time>
      </trkpt>
      <trkpt lat="37.05871333" lon="-3.36968667">
        <ele>3254.0</ele>
        <time>2022-11-20T11:26:50.000Z</time>
      </trkpt>
      <trkpt lat="37.05870833" lon="-3.369685">
        <ele>3254.0</ele>
        <time>2022-11-20T11:26:51.000Z</time>
      </trkpt>
      <trkpt lat="37.058705" lon="-3.36968333">
        <ele>3254.0</ele>
        <time>2022-11-20T11:26:52.000Z</time>
      </trkpt>
      <trkpt lat="37.0587" lon="-3.36968333">
        <ele>3254.0</ele>
        <time>2022-11-20T11:26:53.000Z</time>
      </trkpt>
      <trkpt lat="37.05869667" lon="-3.36968333">
        <ele>3254.0</ele>
        <time>2022-11-20T11:26:54.000Z</time>
      </trkpt>
      <trkpt lat="37.05869167" lon="-3.36968">
        <ele>3254.0</ele>
        <time>2022-11-20T11:26:55.000Z</time>
      </trkpt>
      <trkpt lat="37.05868833" lon="-3.36967833">
        <ele>3254.0</ele>
        <time>2022-11-20T11:26:56.000Z</time>
      </trkpt>
      <trkpt lat="37.058685" lon="-3.36967833">
        <ele>3254.0</ele>
        <time>2022-11-20T11:26:57.000Z</time>
      </trkpt>
      <trkpt lat="37.05868" lon="-3.369675">
        <ele>3254.0</ele>
        <time>2022-11-20T11:26:58.000Z</time>
      </trkpt>
      <trkpt lat="37.05867667" lon="-3.36967333">
        <ele>3255.0</ele>
        <time>2022-11-20T11:26:59.000Z</time>
      </trkpt>
      <trkpt lat="37.05867333" lon="-3.36967">
        <ele>3255.0</ele>
        <time>2022-11-20T11:27:00.000Z</time>
      </trkpt>
      <trkpt lat="37.05867167" lon="-3.36966833">
        <ele>3255.0</ele>
        <time>2022-11-20T11:27:01.000Z</time>
      </trkpt>
      <trkpt lat="37.05866833" lon="-3.36966833">
        <ele>3255.0</ele>
        <time>2022-11-20T11:27:02.000Z</time>
      </trkpt>
      <trkpt lat="37.05866333" lon="-3.369665">
        <ele>3255.0</ele>
        <time>2022-11-20T11:27:03.000Z</time>
      </trkpt>
      <trkpt lat="37.05865667" lon="-3.369665">
        <ele>3255.0</ele>
        <time>2022-11-20T11:27:04.000Z</time>
      </trkpt>
      <trkpt lat="37.05865333" lon="-3.36966167">
        <ele>3256.0</ele>
        <time>2022-11-20T11:27:05.000Z</time>
      </trkpt>
      <trkpt lat="37.05864667" lon="-3.36965667">
        <ele>3256.0</ele>
        <time>2022-11-20T11:27:06.000Z</time>
      </trkpt>
      <trkpt lat="37.05864167" lon="-3.36965167">
        <ele>3256.0</ele>
        <time>2022-11-20T11:27:07.000Z</time>
      </trkpt>
      <trkpt lat="37.05864333" lon="-3.36964333">
        <ele>3256.0</ele>
        <time>2022-11-20T11:27:08.000Z</time>
      </trkpt>
      <trkpt lat="37.058645" lon="-3.36963833">
        <ele>3256.0</ele>
        <time>2022-11-20T11:27:09.000Z</time>
      </trkpt>
      <trkpt lat="37.05864667" lon="-3.369635">
        <ele>3256.0</ele>
        <time>2022-11-20T11:27:10.000Z</time>
      </trkpt>
      <trkpt lat="37.05865" lon="-3.36963">
        <ele>3256.0</ele>
        <time>2022-11-20T11:27:11.000Z</time>
      </trkpt>
      <trkpt lat="37.05865167" lon="-3.369625">
        <ele>3256.0</ele>
        <time>2022-11-20T11:27:12.000Z</time>
      </trkpt>
      <trkpt lat="37.05865167" lon="-3.36962167">
        <ele>3256.0</ele>
        <time>2022-11-20T11:27:13.000Z</time>
      </trkpt>
      <trkpt lat="37.05865333" lon="-3.369615">
        <ele>3257.0</ele>
        <time>2022-11-20T11:27:14.000Z</time>
      </trkpt>
      <trkpt lat="37.05865333" lon="-3.36960833">
        <ele>3257.0</ele>
        <time>2022-11-20T11:27:15.000Z</time>
      </trkpt>
      <trkpt lat="37.05865333" lon="-3.36960667">
        <ele>3257.0</ele>
        <time>2022-11-20T11:27:16.000Z</time>
      </trkpt>
      <trkpt lat="37.05865167" lon="-3.36960333">
        <ele>3257.0</ele>
        <time>2022-11-20T11:27:17.000Z</time>
      </trkpt>
      <trkpt lat="37.05864833" lon="-3.36960167">
        <ele>3257.0</ele>
        <time>2022-11-20T11:27:18.000Z</time>
      </trkpt>
      <trkpt lat="37.05864833" lon="-3.36959833">
        <ele>3257.0</ele>
        <time>2022-11-20T11:27:19.000Z</time>
      </trkpt>
      <trkpt lat="37.05864667" lon="-3.36959667">
        <ele>3258.0</ele>
        <time>2022-11-20T11:27:20.000Z</time>
      </trkpt>
      <trkpt lat="37.05864333" lon="-3.36959333">
        <ele>3258.0</ele>
        <time>2022-11-20T11:27:21.000Z</time>
      </trkpt>
      <trkpt lat="37.05864333" lon="-3.36959">
        <ele>3258.0</ele>
        <time>2022-11-20T11:27:22.000Z</time>
      </trkpt>
      <trkpt lat="37.05864167" lon="-3.36959">
        <ele>3258.0</ele>
        <time>2022-11-20T11:27:23.000Z</time>
      </trkpt>
      <trkpt lat="37.05863833" lon="-3.36959">
        <ele>3258.0</ele>
        <time>2022-11-20T11:27:24.000Z</time>
      </trkpt>
      <trkpt lat="37.058635" lon="-3.36958833">
        <ele>3258.0</ele>
        <time>2022-11-20T11:27:25.000Z</time>
      </trkpt>
      <trkpt lat="37.05863333" lon="-3.36958833">
        <ele>3258.0</ele>
        <time>2022-11-20T11:27:26.000Z</time>
      </trkpt>
      <trkpt lat="37.05863167" lon="-3.36958667">
        <ele>3258.0</ele>
        <time>2022-11-20T11:27:27.000Z</time>
      </trkpt>
      <trkpt lat="37.05862833" lon="-3.36958667">
        <ele>3259.0</ele>
        <time>2022-11-20T11:27:28.000Z</time>
      </trkpt>
      <trkpt lat="37.058625" lon="-3.36958333">
        <ele>3259.0</ele>
        <time>2022-11-20T11:27:29.000Z</time>
      </trkpt>
      <trkpt lat="37.05862167" lon="-3.36958333">
        <ele>3259.0</ele>
        <time>2022-11-20T11:27:30.000Z</time>
      </trkpt>
      <trkpt lat="37.05861833" lon="-3.36958333">
        <ele>3259.0</ele>
        <time>2022-11-20T11:27:31.000Z</time>
      </trkpt>
      <trkpt lat="37.05861333" lon="-3.369585">
        <ele>3259.0</ele>
        <time>2022-11-20T11:27:32.000Z</time>
      </trkpt>
      <trkpt lat="37.05860833" lon="-3.369585">
        <ele>3260.0</ele>
        <time>2022-11-20T11:27:33.000Z</time>
      </trkpt>
      <trkpt lat="37.058605" lon="-3.36958333">
        <ele>3260.0</ele>
        <time>2022-11-20T11:27:34.000Z</time>
      </trkpt>
      <trkpt lat="37.0586" lon="-3.36958167">
        <ele>3260.0</ele>
        <time>2022-11-20T11:27:35.000Z</time>
      </trkpt>
      <trkpt lat="37.05859667" lon="-3.36958167">
        <ele>3260.0</ele>
        <time>2022-11-20T11:27:36.000Z</time>
      </trkpt>
      <trkpt lat="37.05859333" lon="-3.36958">
        <ele>3260.0</ele>
        <time>2022-11-20T11:27:37.000Z</time>
      </trkpt>
      <trkpt lat="37.05858667" lon="-3.36958">
        <ele>3261.0</ele>
        <time>2022-11-20T11:27:38.000Z</time>
      </trkpt>
      <trkpt lat="37.05858333" lon="-3.36958">
        <ele>3261.0</ele>
        <time>2022-11-20T11:27:39.000Z</time>
      </trkpt>
      <trkpt lat="37.05857833" lon="-3.36958167">
        <ele>3261.0</ele>
        <time>2022-11-20T11:27:40.000Z</time>
      </trkpt>
      <trkpt lat="37.05857167" lon="-3.36958">
        <ele>3261.0</ele>
        <time>2022-11-20T11:27:41.000Z</time>
      </trkpt>
      <trkpt lat="37.05856667" lon="-3.36957833">
        <ele>3261.0</ele>
        <time>2022-11-20T11:27:42.000Z</time>
      </trkpt>
      <trkpt lat="37.05856167" lon="-3.36957667">
        <ele>3261.0</ele>
        <time>2022-11-20T11:27:43.000Z</time>
      </trkpt>
      <trkpt lat="37.05855667" lon="-3.369575">
        <ele>3262.0</ele>
        <time>2022-11-20T11:27:44.000Z</time>
      </trkpt>
      <trkpt lat="37.05855333" lon="-3.36957167">
        <ele>3262.0</ele>
        <time>2022-11-20T11:27:45.000Z</time>
      </trkpt>
      <trkpt lat="37.05855" lon="-3.36957167">
        <ele>3262.0</ele>
        <time>2022-11-20T11:27:46.000Z</time>
      </trkpt>
      <trkpt lat="37.058545" lon="-3.36957167">
        <ele>3262.0</ele>
        <time>2022-11-20T11:27:47.000Z</time>
      </trkpt>
      <trkpt lat="37.05853833" lon="-3.36957333">
        <ele>3262.0</ele>
        <time>2022-11-20T11:27:48.000Z</time>
      </trkpt>
      <trkpt lat="37.05853167" lon="-3.36957">
        <ele>3262.0</ele>
        <time>2022-11-20T11:27:49.000Z</time>
      </trkpt>
      <trkpt lat="37.05852833" lon="-3.36956333">
        <ele>3263.0</ele>
        <time>2022-11-20T11:27:50.000Z</time>
      </trkpt>
      <trkpt lat="37.05853" lon="-3.36955667">
        <ele>3263.0</ele>
        <time>2022-11-20T11:27:51.000Z</time>
      </trkpt>
      <trkpt lat="37.05853" lon="-3.36955167">
        <ele>3263.0</ele>
        <time>2022-11-20T11:27:52.000Z</time>
      </trkpt>
      <trkpt lat="37.05853167" lon="-3.36954833">
        <ele>3263.0</ele>
        <time>2022-11-20T11:27:53.000Z</time>
      </trkpt>
      <trkpt lat="37.05853333" lon="-3.36954167">
        <ele>3263.0</ele>
        <time>2022-11-20T11:27:54.000Z</time>
      </trkpt>
      <trkpt lat="37.058535" lon="-3.36954">
        <ele>3263.0</ele>
        <time>2022-11-20T11:27:55.000Z</time>
      </trkpt>
      <trkpt lat="37.058535" lon="-3.369535">
        <ele>3264.0</ele>
        <time>2022-11-20T11:27:56.000Z</time>
      </trkpt>
      <trkpt lat="37.05853333" lon="-3.36953167">
        <ele>3264.0</ele>
        <time>2022-11-20T11:27:57.000Z</time>
      </trkpt>
      <trkpt lat="37.05853333" lon="-3.36952833">
        <ele>3264.0</ele>
        <time>2022-11-20T11:27:58.000Z</time>
      </trkpt>
      <trkpt lat="37.05853" lon="-3.36952667">
        <ele>3264.0</ele>
        <time>2022-11-20T11:27:59.000Z</time>
      </trkpt>
      <trkpt lat="37.05852667" lon="-3.36952333">
        <ele>3264.0</ele>
        <time>2022-11-20T11:28:00.000Z</time>
      </trkpt>
      <trkpt lat="37.05852333" lon="-3.36952333">
        <ele>3264.0</ele>
        <time>2022-11-20T11:28:01.000Z</time>
      </trkpt>
      <trkpt lat="37.05852" lon="-3.369525">
        <ele>3264.0</ele>
        <time>2022-11-20T11:28:02.000Z</time>
      </trkpt>
      <trkpt lat="37.058515" lon="-3.36952667">
        <ele>3264.0</ele>
        <time>2022-11-20T11:28:03.000Z</time>
      </trkpt>
      <trkpt lat="37.05851" lon="-3.36952667">
        <ele>3264.0</ele>
        <time>2022-11-20T11:28:04.000Z</time>
      </trkpt>
      <trkpt lat="37.05850333" lon="-3.369525">
        <ele>3264.0</ele>
        <time>2022-11-20T11:28:05.000Z</time>
      </trkpt>
      <trkpt lat="37.05849833" lon="-3.36952167">
        <ele>3264.0</ele>
        <time>2022-11-20T11:28:06.000Z</time>
      </trkpt>
      <trkpt lat="37.058495" lon="-3.36951">
        <ele>3264.0</ele>
        <time>2022-11-20T11:28:07.000Z</time>
      </trkpt>
      <trkpt lat="37.058495" lon="-3.369505">
        <ele>3264.0</ele>
        <time>2022-11-20T11:28:08.000Z</time>
      </trkpt>
      <trkpt lat="37.05849667" lon="-3.3695">
        <ele>3264.0</ele>
        <time>2022-11-20T11:28:09.000Z</time>
      </trkpt>
      <trkpt lat="37.05849833" lon="-3.369495">
        <ele>3265.0</ele>
        <time>2022-11-20T11:28:10.000Z</time>
      </trkpt>
      <trkpt lat="37.05850167" lon="-3.36949167">
        <ele>3265.0</ele>
        <time>2022-11-20T11:28:11.000Z</time>
      </trkpt>
      <trkpt lat="37.058505" lon="-3.36948667">
        <ele>3265.0</ele>
        <time>2022-11-20T11:28:12.000Z</time>
      </trkpt>
      <trkpt lat="37.05850667" lon="-3.36948333">
        <ele>3265.0</ele>
        <time>2022-11-20T11:28:13.000Z</time>
      </trkpt>
      <trkpt lat="37.05850833" lon="-3.36948">
        <ele>3265.0</ele>
        <time>2022-11-20T11:28:14.000Z</time>
      </trkpt>
      <trkpt lat="37.05851" lon="-3.369475">
        <ele>3265.0</ele>
        <time>2022-11-20T11:28:15.000Z</time>
      </trkpt>
      <trkpt lat="37.05851333" lon="-3.36947">
        <ele>3265.0</ele>
        <time>2022-11-20T11:28:16.000Z</time>
      </trkpt>
      <trkpt lat="37.058515" lon="-3.36946833">
        <ele>3265.0</ele>
        <time>2022-11-20T11:28:17.000Z</time>
      </trkpt>
      <trkpt lat="37.058515" lon="-3.36946333">
        <ele>3265.0</ele>
        <time>2022-11-20T11:28:18.000Z</time>
      </trkpt>
      <trkpt lat="37.058515" lon="-3.36946">
        <ele>3265.0</ele>
        <time>2022-11-20T11:28:19.000Z</time>
      </trkpt>
      <trkpt lat="37.058515" lon="-3.369455">
        <ele>3266.0</ele>
        <time>2022-11-20T11:28:20.000Z</time>
      </trkpt>
      <trkpt lat="37.05851333" lon="-3.369455">
        <ele>3266.0</ele>
        <time>2022-11-20T11:28:21.000Z</time>
      </trkpt>
      <trkpt lat="37.05851333" lon="-3.369455">
        <ele>3266.0</ele>
        <time>2022-11-20T11:28:22.000Z</time>
      </trkpt>
      <trkpt lat="37.05851333" lon="-3.369455">
        <ele>3266.0</ele>
        <time>2022-11-20T11:28:23.000Z</time>
      </trkpt>
      <trkpt lat="37.05851333" lon="-3.369455">
        <ele>3266.0</ele>
        <time>2022-11-20T11:28:24.000Z</time>
      </trkpt>
      <trkpt lat="37.05851167" lon="-3.36945167">
        <ele>3266.0</ele>
        <time>2022-11-20T11:28:25.000Z</time>
      </trkpt>
      <trkpt lat="37.05851" lon="-3.36944833">
        <ele>3266.0</ele>
        <time>2022-11-20T11:28:26.000Z</time>
      </trkpt>
      <trkpt lat="37.05850833" lon="-3.369445">
        <ele>3266.0</ele>
        <time>2022-11-20T11:28:27.000Z</time>
      </trkpt>
      <trkpt lat="37.05850667" lon="-3.369445">
        <ele>3266.0</ele>
        <time>2022-11-20T11:28:28.000Z</time>
      </trkpt>
      <trkpt lat="37.05850667" lon="-3.36944167">
        <ele>3266.0</ele>
        <time>2022-11-20T11:28:29.000Z</time>
      </trkpt>
      <trkpt lat="37.05850333" lon="-3.36943833">
        <ele>3267.0</ele>
        <time>2022-11-20T11:28:30.000Z</time>
      </trkpt>
      <trkpt lat="37.05850333" lon="-3.369435">
        <ele>3267.0</ele>
        <time>2022-11-20T11:28:31.000Z</time>
      </trkpt>
      <trkpt lat="37.05850167" lon="-3.36943333">
        <ele>3267.0</ele>
        <time>2022-11-20T11:28:32.000Z</time>
      </trkpt>
      <trkpt lat="37.05849833" lon="-3.36943">
        <ele>3267.0</ele>
        <time>2022-11-20T11:28:33.000Z</time>
      </trkpt>
      <trkpt lat="37.058495" lon="-3.36942833">
        <ele>3267.0</ele>
        <time>2022-11-20T11:28:34.000Z</time>
      </trkpt>
      <trkpt lat="37.05849333" lon="-3.36943">
        <ele>3267.0</ele>
        <time>2022-11-20T11:28:35.000Z</time>
      </trkpt>
      <trkpt lat="37.05848833" lon="-3.36943">
        <ele>3268.0</ele>
        <time>2022-11-20T11:28:36.000Z</time>
      </trkpt>
      <trkpt lat="37.05848667" lon="-3.36943">
        <ele>3268.0</ele>
        <time>2022-11-20T11:28:37.000Z</time>
      </trkpt>
      <trkpt lat="37.05848167" lon="-3.36943167">
        <ele>3268.0</ele>
        <time>2022-11-20T11:28:38.000Z</time>
      </trkpt>
      <trkpt lat="37.05847667" lon="-3.36943167">
        <ele>3268.0</ele>
        <time>2022-11-20T11:28:39.000Z</time>
      </trkpt>
      <trkpt lat="37.05847167" lon="-3.36943167">
        <ele>3268.0</ele>
        <time>2022-11-20T11:28:40.000Z</time>
      </trkpt>
      <trkpt lat="37.05846667" lon="-3.36943333">
        <ele>3268.0</ele>
        <time>2022-11-20T11:28:41.000Z</time>
      </trkpt>
      <trkpt lat="37.05846333" lon="-3.369435">
        <ele>3269.0</ele>
        <time>2022-11-20T11:28:42.000Z</time>
      </trkpt>
      <trkpt lat="37.05846" lon="-3.36943333">
        <ele>3269.0</ele>
        <time>2022-11-20T11:28:43.000Z</time>
      </trkpt>
      <trkpt lat="37.05846" lon="-3.36943333">
        <ele>3269.0</ele>
        <time>2022-11-20T11:28:44.000Z</time>
      </trkpt>
      <trkpt lat="37.05846" lon="-3.36943333">
        <ele>3269.0</ele>
        <time>2022-11-20T11:28:45.000Z</time>
      </trkpt>
      <trkpt lat="37.05846" lon="-3.36943333">
        <ele>3269.0</ele>
        <time>2022-11-20T11:28:46.000Z</time>
      </trkpt>
      <trkpt lat="37.05846" lon="-3.36943333">
        <ele>3269.0</ele>
        <time>2022-11-20T11:28:47.000Z</time>
      </trkpt>
      <trkpt lat="37.05845833" lon="-3.36943333">
        <ele>3269.0</ele>
        <time>2022-11-20T11:28:48.000Z</time>
      </trkpt>
      <trkpt lat="37.05845333" lon="-3.36943167">
        <ele>3269.0</ele>
        <time>2022-11-20T11:28:49.000Z</time>
      </trkpt>
      <trkpt lat="37.05844833" lon="-3.36943">
        <ele>3269.0</ele>
        <time>2022-11-20T11:28:50.000Z</time>
      </trkpt>
      <trkpt lat="37.05844667" lon="-3.36943">
        <ele>3269.0</ele>
        <time>2022-11-20T11:28:51.000Z</time>
      </trkpt>
      <trkpt lat="37.05844167" lon="-3.36942667">
        <ele>3269.0</ele>
        <time>2022-11-20T11:28:52.000Z</time>
      </trkpt>
      <trkpt lat="37.058435" lon="-3.369425">
        <ele>3269.0</ele>
        <time>2022-11-20T11:28:53.000Z</time>
      </trkpt>
      <trkpt lat="37.05843167" lon="-3.36942167">
        <ele>3270.0</ele>
        <time>2022-11-20T11:28:54.000Z</time>
      </trkpt>
      <trkpt lat="37.05842667" lon="-3.36942167">
        <ele>3270.0</ele>
        <time>2022-11-20T11:28:55.000Z</time>
      </trkpt>
      <trkpt lat="37.05842333" lon="-3.36942">
        <ele>3270.0</ele>
        <time>2022-11-20T11:28:56.000Z</time>
      </trkpt>
      <trkpt lat="37.05841833" lon="-3.36942">
        <ele>3270.0</ele>
        <time>2022-11-20T11:28:57.000Z</time>
      </trkpt>
      <trkpt lat="37.058415" lon="-3.36941667">
        <ele>3270.0</ele>
        <time>2022-11-20T11:28:58.000Z</time>
      </trkpt>
      <trkpt lat="37.05841" lon="-3.36941333">
        <ele>3270.0</ele>
        <time>2022-11-20T11:28:59.000Z</time>
      </trkpt>
      <trkpt lat="37.05840833" lon="-3.36941">
        <ele>3271.0</ele>
        <time>2022-11-20T11:29:00.000Z</time>
      </trkpt>
      <trkpt lat="37.05840833" lon="-3.36941">
        <ele>3271.0</ele>
        <time>2022-11-20T11:29:01.000Z</time>
      </trkpt>
      <trkpt lat="37.05840833" lon="-3.36941">
        <ele>3271.0</ele>
        <time>2022-11-20T11:29:02.000Z</time>
      </trkpt>
      <trkpt lat="37.05840667" lon="-3.36941">
        <ele>3271.0</ele>
        <time>2022-11-20T11:29:03.000Z</time>
      </trkpt>
      <trkpt lat="37.058405" lon="-3.36940667">
        <ele>3271.0</ele>
        <time>2022-11-20T11:29:04.000Z</time>
      </trkpt>
      <trkpt lat="37.058405" lon="-3.369405">
        <ele>3271.0</ele>
        <time>2022-11-20T11:29:05.000Z</time>
      </trkpt>
      <trkpt lat="37.05840333" lon="-3.36940167">
        <ele>3271.0</ele>
        <time>2022-11-20T11:29:06.000Z</time>
      </trkpt>
      <trkpt lat="37.05840167" lon="-3.3694">
        <ele>3271.0</ele>
        <time>2022-11-20T11:29:07.000Z</time>
      </trkpt>
      <trkpt lat="37.0584" lon="-3.36939833">
        <ele>3271.0</ele>
        <time>2022-11-20T11:29:08.000Z</time>
      </trkpt>
      <trkpt lat="37.05839667" lon="-3.36939667">
        <ele>3271.0</ele>
        <time>2022-11-20T11:29:09.000Z</time>
      </trkpt>
      <trkpt lat="37.05839667" lon="-3.36939667">
        <ele>3271.0</ele>
        <time>2022-11-20T11:29:10.000Z</time>
      </trkpt>
      <trkpt lat="37.05839667" lon="-3.369395">
        <ele>3271.0</ele>
        <time>2022-11-20T11:29:11.000Z</time>
      </trkpt>
      <trkpt lat="37.058395" lon="-3.36939333">
        <ele>3272.0</ele>
        <time>2022-11-20T11:29:12.000Z</time>
      </trkpt>
      <trkpt lat="37.058395" lon="-3.36939167">
        <ele>3272.0</ele>
        <time>2022-11-20T11:29:13.000Z</time>
      </trkpt>
      <trkpt lat="37.05839167" lon="-3.36938667">
        <ele>3272.0</ele>
        <time>2022-11-20T11:29:14.000Z</time>
      </trkpt>
      <trkpt lat="37.05839167" lon="-3.369385">
        <ele>3272.0</ele>
        <time>2022-11-20T11:29:15.000Z</time>
      </trkpt>
      <trkpt lat="37.05839" lon="-3.36938333">
        <ele>3272.0</ele>
        <time>2022-11-20T11:29:16.000Z</time>
      </trkpt>
      <trkpt lat="37.05839" lon="-3.36937667">
        <ele>3272.0</ele>
        <time>2022-11-20T11:29:17.000Z</time>
      </trkpt>
      <trkpt lat="37.05839" lon="-3.36937167">
        <ele>3273.0</ele>
        <time>2022-11-20T11:29:18.000Z</time>
      </trkpt>
      <trkpt lat="37.05839167" lon="-3.36936833">
        <ele>3273.0</ele>
        <time>2022-11-20T11:29:19.000Z</time>
      </trkpt>
      <trkpt lat="37.05839333" lon="-3.36936833">
        <ele>3273.0</ele>
        <time>2022-11-20T11:29:20.000Z</time>
      </trkpt>
      <trkpt lat="37.05839333" lon="-3.36936167">
        <ele>3273.0</ele>
        <time>2022-11-20T11:29:21.000Z</time>
      </trkpt>
      <trkpt lat="37.05839833" lon="-3.36935833">
        <ele>3273.0</ele>
        <time>2022-11-20T11:29:22.000Z</time>
      </trkpt>
      <trkpt lat="37.0584" lon="-3.36935833">
        <ele>3273.0</ele>
        <time>2022-11-20T11:29:23.000Z</time>
      </trkpt>
      <trkpt lat="37.05840167" lon="-3.36935833">
        <ele>3273.0</ele>
        <time>2022-11-20T11:29:24.000Z</time>
      </trkpt>
      <trkpt lat="37.05840167" lon="-3.36935833">
        <ele>3273.0</ele>
        <time>2022-11-20T11:29:25.000Z</time>
      </trkpt>
      <trkpt lat="37.05840333" lon="-3.36935833">
        <ele>3273.0</ele>
        <time>2022-11-20T11:29:26.000Z</time>
      </trkpt>
      <trkpt lat="37.058405" lon="-3.36935667">
        <ele>3273.0</ele>
        <time>2022-11-20T11:29:27.000Z</time>
      </trkpt>
      <trkpt lat="37.05840833" lon="-3.36935333">
        <ele>3273.0</ele>
        <time>2022-11-20T11:29:28.000Z</time>
      </trkpt>
      <trkpt lat="37.05840667" lon="-3.36934833">
        <ele>3273.0</ele>
        <time>2022-11-20T11:29:29.000Z</time>
      </trkpt>
      <trkpt lat="37.058405" lon="-3.36934833">
        <ele>3273.0</ele>
        <time>2022-11-20T11:29:30.000Z</time>
      </trkpt>
      <trkpt lat="37.05840167" lon="-3.369345">
        <ele>3274.0</ele>
        <time>2022-11-20T11:29:31.000Z</time>
      </trkpt>
      <trkpt lat="37.05839833" lon="-3.369345">
        <ele>3274.0</ele>
        <time>2022-11-20T11:29:32.000Z</time>
      </trkpt>
      <trkpt lat="37.05839667" lon="-3.36933833">
        <ele>3274.0</ele>
        <time>2022-11-20T11:29:33.000Z</time>
      </trkpt>
      <trkpt lat="37.058395" lon="-3.36933333">
        <ele>3274.0</ele>
        <time>2022-11-20T11:29:34.000Z</time>
      </trkpt>
      <trkpt lat="37.05839333" lon="-3.36933667">
        <ele>3274.0</ele>
        <time>2022-11-20T11:29:35.000Z</time>
      </trkpt>
      <trkpt lat="37.05839" lon="-3.369335">
        <ele>3274.0</ele>
        <time>2022-11-20T11:29:36.000Z</time>
      </trkpt>
      <trkpt lat="37.05838667" lon="-3.36933333">
        <ele>3274.0</ele>
        <time>2022-11-20T11:29:37.000Z</time>
      </trkpt>
      <trkpt lat="37.058385" lon="-3.36933">
        <ele>3274.0</ele>
        <time>2022-11-20T11:29:38.000Z</time>
      </trkpt>
      <trkpt lat="37.05838" lon="-3.36932333">
        <ele>3275.0</ele>
        <time>2022-11-20T11:29:39.000Z</time>
      </trkpt>
      <trkpt lat="37.05837833" lon="-3.36931833">
        <ele>3275.0</ele>
        <time>2022-11-20T11:29:40.000Z</time>
      </trkpt>
      <trkpt lat="37.05837667" lon="-3.369315">
        <ele>3275.0</ele>
        <time>2022-11-20T11:29:41.000Z</time>
      </trkpt>
      <trkpt lat="37.058375" lon="-3.36931167">
        <ele>3275.0</ele>
        <time>2022-11-20T11:29:42.000Z</time>
      </trkpt>
      <trkpt lat="37.05837333" lon="-3.36930833">
        <ele>3275.0</ele>
        <time>2022-11-20T11:29:43.000Z</time>
      </trkpt>
      <trkpt lat="37.05837167" lon="-3.36930833">
        <ele>3276.0</ele>
        <time>2022-11-20T11:29:44.000Z</time>
      </trkpt>
      <trkpt lat="37.05836667" lon="-3.369305">
        <ele>3276.0</ele>
        <time>2022-11-20T11:29:45.000Z</time>
      </trkpt>
      <trkpt lat="37.05836333" lon="-3.369305">
        <ele>3276.0</ele>
        <time>2022-11-20T11:29:46.000Z</time>
      </trkpt>
      <trkpt lat="37.05835667" lon="-3.36930167">
        <ele>3276.0</ele>
        <time>2022-11-20T11:29:47.000Z</time>
      </trkpt>
      <trkpt lat="37.05835333" lon="-3.36929833">
        <ele>3276.0</ele>
        <time>2022-11-20T11:29:48.000Z</time>
      </trkpt>
      <trkpt lat="37.05835" lon="-3.36929667">
        <ele>3276.0</ele>
        <time>2022-11-20T11:29:49.000Z</time>
      </trkpt>
      <trkpt lat="37.05835" lon="-3.369295">
        <ele>3276.0</ele>
        <time>2022-11-20T11:29:50.000Z</time>
      </trkpt>
      <trkpt lat="37.05835" lon="-3.369295">
        <ele>3276.0</ele>
        <time>2022-11-20T11:29:51.000Z</time>
      </trkpt>
      <trkpt lat="37.05835" lon="-3.369295">
        <ele>3276.0</ele>
        <time>2022-11-20T11:29:52.000Z</time>
      </trkpt>
      <trkpt lat="37.05835" lon="-3.369295">
        <ele>3276.0</ele>
        <time>2022-11-20T11:29:53.000Z</time>
      </trkpt>
      <trkpt lat="37.05835" lon="-3.36929667">
        <ele>3277.0</ele>
        <time>2022-11-20T11:29:54.000Z</time>
      </trkpt>
      <trkpt lat="37.05835167" lon="-3.36929833">
        <ele>3277.0</ele>
        <time>2022-11-20T11:29:55.000Z</time>
      </trkpt>
      <trkpt lat="37.05834833" lon="-3.36929833">
        <ele>3277.0</ele>
        <time>2022-11-20T11:29:56.000Z</time>
      </trkpt>
      <trkpt lat="37.05834833" lon="-3.36929667">
        <ele>3277.0</ele>
        <time>2022-11-20T11:29:57.000Z</time>
      </trkpt>
      <trkpt lat="37.058345" lon="-3.36929667">
        <ele>3277.0</ele>
        <time>2022-11-20T11:29:58.000Z</time>
      </trkpt>
      <trkpt lat="37.05834333" lon="-3.369295">
        <ele>3277.0</ele>
        <time>2022-11-20T11:29:59.000Z</time>
      </trkpt>
      <trkpt lat="37.05834333" lon="-3.369295">
        <ele>3277.0</ele>
        <time>2022-11-20T11:30:00.000Z</time>
      </trkpt>
      <trkpt lat="37.05834333" lon="-3.369295">
        <ele>3277.0</ele>
        <time>2022-11-20T11:30:01.000Z</time>
      </trkpt>
      <trkpt lat="37.058345" lon="-3.36929167">
        <ele>3277.0</ele>
        <time>2022-11-20T11:30:02.000Z</time>
      </trkpt>
      <trkpt lat="37.058345" lon="-3.36928667">
        <ele>3277.0</ele>
        <time>2022-11-20T11:30:03.000Z</time>
      </trkpt>
      <trkpt lat="37.05834667" lon="-3.36928167">
        <ele>3277.0</ele>
        <time>2022-11-20T11:30:04.000Z</time>
      </trkpt>
      <trkpt lat="37.05834833" lon="-3.36927833">
        <ele>3277.0</ele>
        <time>2022-11-20T11:30:05.000Z</time>
      </trkpt>
      <trkpt lat="37.05834833" lon="-3.36927333">
        <ele>3277.0</ele>
        <time>2022-11-20T11:30:06.000Z</time>
      </trkpt>
      <trkpt lat="37.05834833" lon="-3.36926833">
        <ele>3277.0</ele>
        <time>2022-11-20T11:30:07.000Z</time>
      </trkpt>
      <trkpt lat="37.05834833" lon="-3.369265">
        <ele>3277.0</ele>
        <time>2022-11-20T11:30:08.000Z</time>
      </trkpt>
      <trkpt lat="37.058345" lon="-3.36926333">
        <ele>3278.0</ele>
        <time>2022-11-20T11:30:09.000Z</time>
      </trkpt>
      <trkpt lat="37.05834167" lon="-3.36926333">
        <ele>3278.0</ele>
        <time>2022-11-20T11:30:10.000Z</time>
      </trkpt>
      <trkpt lat="37.05833667" lon="-3.36925833">
        <ele>3278.0</ele>
        <time>2022-11-20T11:30:11.000Z</time>
      </trkpt>
      <trkpt lat="37.05833333" lon="-3.36925667">
        <ele>3278.0</ele>
        <time>2022-11-20T11:30:12.000Z</time>
      </trkpt>
      <trkpt lat="37.05832667" lon="-3.36925333">
        <ele>3279.0</ele>
        <time>2022-11-20T11:30:13.000Z</time>
      </trkpt>
      <trkpt lat="37.05832167" lon="-3.36925">
        <ele>3279.0</ele>
        <time>2022-11-20T11:30:14.000Z</time>
      </trkpt>
      <trkpt lat="37.05832" lon="-3.369245">
        <ele>3279.0</ele>
        <time>2022-11-20T11:30:15.000Z</time>
      </trkpt>
      <trkpt lat="37.05831833" lon="-3.36924333">
        <ele>3279.0</ele>
        <time>2022-11-20T11:30:16.000Z</time>
      </trkpt>
      <trkpt lat="37.05831833" lon="-3.36924333">
        <ele>3279.0</ele>
        <time>2022-11-20T11:30:17.000Z</time>
      </trkpt>
      <trkpt lat="37.05831833" lon="-3.36924167">
        <ele>3280.0</ele>
        <time>2022-11-20T11:30:18.000Z</time>
      </trkpt>
      <trkpt lat="37.05831667" lon="-3.36924167">
        <ele>3280.0</ele>
        <time>2022-11-20T11:30:19.000Z</time>
      </trkpt>
      <trkpt lat="37.05831667" lon="-3.36924167">
        <ele>3280.0</ele>
        <time>2022-11-20T11:30:20.000Z</time>
      </trkpt>
      <trkpt lat="37.05831667" lon="-3.36924167">
        <ele>3280.0</ele>
        <time>2022-11-20T11:30:21.000Z</time>
      </trkpt>
      <trkpt lat="37.058315" lon="-3.36924333">
        <ele>3280.0</ele>
        <time>2022-11-20T11:30:22.000Z</time>
      </trkpt>
      <trkpt lat="37.05831333" lon="-3.369245">
        <ele>3280.0</ele>
        <time>2022-11-20T11:30:23.000Z</time>
      </trkpt>
      <trkpt lat="37.05831" lon="-3.36924667">
        <ele>3280.0</ele>
        <time>2022-11-20T11:30:24.000Z</time>
      </trkpt>
      <trkpt lat="37.05830333" lon="-3.36924333">
        <ele>3280.0</ele>
        <time>2022-11-20T11:30:25.000Z</time>
      </trkpt>
      <trkpt lat="37.05829667" lon="-3.36924167">
        <ele>3280.0</ele>
        <time>2022-11-20T11:30:26.000Z</time>
      </trkpt>
      <trkpt lat="37.05829333" lon="-3.36924167">
        <ele>3280.0</ele>
        <time>2022-11-20T11:30:27.000Z</time>
      </trkpt>
      <trkpt lat="37.05829" lon="-3.36923833">
        <ele>3280.0</ele>
        <time>2022-11-20T11:30:28.000Z</time>
      </trkpt>
      <trkpt lat="37.05828833" lon="-3.36923833">
        <ele>3280.0</ele>
        <time>2022-11-20T11:30:29.000Z</time>
      </trkpt>
      <trkpt lat="37.058285" lon="-3.36923667">
        <ele>3280.0</ele>
        <time>2022-11-20T11:30:30.000Z</time>
      </trkpt>
      <trkpt lat="37.05828167" lon="-3.369235">
        <ele>3280.0</ele>
        <time>2022-11-20T11:30:31.000Z</time>
      </trkpt>
      <trkpt lat="37.05827833" lon="-3.36923333">
        <ele>3280.0</ele>
        <time>2022-11-20T11:30:32.000Z</time>
      </trkpt>
      <trkpt lat="37.058275" lon="-3.36923333">
        <ele>3280.0</ele>
        <time>2022-11-20T11:30:33.000Z</time>
      </trkpt>
      <trkpt lat="37.05827167" lon="-3.36922833">
        <ele>3280.0</ele>
        <time>2022-11-20T11:30:34.000Z</time>
      </trkpt>
      <trkpt lat="37.05826833" lon="-3.36922667">
        <ele>3280.0</ele>
        <time>2022-11-20T11:30:35.000Z</time>
      </trkpt>
      <trkpt lat="37.05826667" lon="-3.369225">
        <ele>3280.0</ele>
        <time>2022-11-20T11:30:36.000Z</time>
      </trkpt>
      <trkpt lat="37.058265" lon="-3.36922333">
        <ele>3281.0</ele>
        <time>2022-11-20T11:30:37.000Z</time>
      </trkpt>
      <trkpt lat="37.05826333" lon="-3.36922333">
        <ele>3281.0</ele>
        <time>2022-11-20T11:30:38.000Z</time>
      </trkpt>
      <trkpt lat="37.05826333" lon="-3.369225">
        <ele>3281.0</ele>
        <time>2022-11-20T11:30:39.000Z</time>
      </trkpt>
      <trkpt lat="37.05826167" lon="-3.369225">
        <ele>3281.0</ele>
        <time>2022-11-20T11:30:40.000Z</time>
      </trkpt>
      <trkpt lat="37.05825833" lon="-3.369225">
        <ele>3281.0</ele>
        <time>2022-11-20T11:30:41.000Z</time>
      </trkpt>
      <trkpt lat="37.05825333" lon="-3.36922333">
        <ele>3281.0</ele>
        <time>2022-11-20T11:30:42.000Z</time>
      </trkpt>
      <trkpt lat="37.05825" lon="-3.36922333">
        <ele>3281.0</ele>
        <time>2022-11-20T11:30:43.000Z</time>
      </trkpt>
      <trkpt lat="37.05824667" lon="-3.369225">
        <ele>3281.0</ele>
        <time>2022-11-20T11:30:44.000Z</time>
      </trkpt>
      <trkpt lat="37.05824" lon="-3.36922833">
        <ele>3281.0</ele>
        <time>2022-11-20T11:30:45.000Z</time>
      </trkpt>
      <trkpt lat="37.05824" lon="-3.36922833">
        <ele>3282.0</ele>
        <time>2022-11-20T11:30:46.000Z</time>
      </trkpt>
      <trkpt lat="37.05824" lon="-3.36922833">
        <ele>3282.0</ele>
        <time>2022-11-20T11:30:47.000Z</time>
      </trkpt>
      <trkpt lat="37.05824" lon="-3.36922833">
        <ele>3282.0</ele>
        <time>2022-11-20T11:30:48.000Z</time>
      </trkpt>
      <trkpt lat="37.05823667" lon="-3.369225">
        <ele>3282.0</ele>
        <time>2022-11-20T11:30:49.000Z</time>
      </trkpt>
      <trkpt lat="37.058235" lon="-3.36922167">
        <ele>3282.0</ele>
        <time>2022-11-20T11:30:50.000Z</time>
      </trkpt>
      <trkpt lat="37.058235" lon="-3.36922167">
        <ele>3282.0</ele>
        <time>2022-11-20T11:30:51.000Z</time>
      </trkpt>
      <trkpt lat="37.05823167" lon="-3.36922167">
        <ele>3282.0</ele>
        <time>2022-11-20T11:30:52.000Z</time>
      </trkpt>
      <trkpt lat="37.05823" lon="-3.36922333">
        <ele>3282.0</ele>
        <time>2022-11-20T11:30:53.000Z</time>
      </trkpt>
      <trkpt lat="37.058225" lon="-3.36922333">
        <ele>3282.0</ele>
        <time>2022-11-20T11:30:54.000Z</time>
      </trkpt>
      <trkpt lat="37.05822" lon="-3.36922333">
        <ele>3282.0</ele>
        <time>2022-11-20T11:30:55.000Z</time>
      </trkpt>
      <trkpt lat="37.05821833" lon="-3.36922167">
        <ele>3282.0</ele>
        <time>2022-11-20T11:30:56.000Z</time>
      </trkpt>
      <trkpt lat="37.05821833" lon="-3.36922167">
        <ele>3282.0</ele>
        <time>2022-11-20T11:30:57.000Z</time>
      </trkpt>
      <trkpt lat="37.05821833" lon="-3.36922167">
        <ele>3282.0</ele>
        <time>2022-11-20T11:30:58.000Z</time>
      </trkpt>
      <trkpt lat="37.05821833" lon="-3.36922167">
        <ele>3282.0</ele>
        <time>2022-11-20T11:30:59.000Z</time>
      </trkpt>
      <trkpt lat="37.05821833" lon="-3.36922167">
        <ele>3282.0</ele>
        <time>2022-11-20T11:31:00.000Z</time>
      </trkpt>
      <trkpt lat="37.05821833" lon="-3.36922167">
        <ele>3282.0</ele>
        <time>2022-11-20T11:31:01.000Z</time>
      </trkpt>
      <trkpt lat="37.05822" lon="-3.36922167">
        <ele>3282.0</ele>
        <time>2022-11-20T11:31:02.000Z</time>
      </trkpt>
      <trkpt lat="37.05821667" lon="-3.36921667">
        <ele>3283.0</ele>
        <time>2022-11-20T11:31:03.000Z</time>
      </trkpt>
      <trkpt lat="37.058215" lon="-3.36921333">
        <ele>3283.0</ele>
        <time>2022-11-20T11:31:04.000Z</time>
      </trkpt>
      <trkpt lat="37.058215" lon="-3.36921">
        <ele>3283.0</ele>
        <time>2022-11-20T11:31:05.000Z</time>
      </trkpt>
      <trkpt lat="37.05821333" lon="-3.36921333">
        <ele>3283.0</ele>
        <time>2022-11-20T11:31:06.000Z</time>
      </trkpt>
      <trkpt lat="37.05821167" lon="-3.369215">
        <ele>3283.0</ele>
        <time>2022-11-20T11:31:07.000Z</time>
      </trkpt>
      <trkpt lat="37.05821167" lon="-3.369215">
        <ele>3283.0</ele>
        <time>2022-11-20T11:31:08.000Z</time>
      </trkpt>
      <trkpt lat="37.05820833" lon="-3.36921167">
        <ele>3283.0</ele>
        <time>2022-11-20T11:31:09.000Z</time>
      </trkpt>
      <trkpt lat="37.05820667" lon="-3.36920833">
        <ele>3283.0</ele>
        <time>2022-11-20T11:31:10.000Z</time>
      </trkpt>
      <trkpt lat="37.058205" lon="-3.36920667">
        <ele>3283.0</ele>
        <time>2022-11-20T11:31:11.000Z</time>
      </trkpt>
      <trkpt lat="37.058205" lon="-3.36920667">
        <ele>3283.0</ele>
        <time>2022-11-20T11:31:12.000Z</time>
      </trkpt>
      <trkpt lat="37.05820333" lon="-3.369205">
        <ele>3283.0</ele>
        <time>2022-11-20T11:31:13.000Z</time>
      </trkpt>
      <trkpt lat="37.0582" lon="-3.36920333">
        <ele>3283.0</ele>
        <time>2022-11-20T11:31:14.000Z</time>
      </trkpt>
      <trkpt lat="37.05819833" lon="-3.36920333">
        <ele>3283.0</ele>
        <time>2022-11-20T11:31:15.000Z</time>
      </trkpt>
      <trkpt lat="37.0582" lon="-3.36920333">
        <ele>3284.0</ele>
        <time>2022-11-20T11:31:16.000Z</time>
      </trkpt>
      <trkpt lat="37.0582" lon="-3.36920333">
        <ele>3284.0</ele>
        <time>2022-11-20T11:31:17.000Z</time>
      </trkpt>
      <trkpt lat="37.0582" lon="-3.369205">
        <ele>3284.0</ele>
        <time>2022-11-20T11:31:18.000Z</time>
      </trkpt>
      <trkpt lat="37.05819833" lon="-3.369205">
        <ele>3284.0</ele>
        <time>2022-11-20T11:31:19.000Z</time>
      </trkpt>
      <trkpt lat="37.05819667" lon="-3.36920667">
        <ele>3283.0</ele>
        <time>2022-11-20T11:31:20.000Z</time>
      </trkpt>
      <trkpt lat="37.058195" lon="-3.36920833">
        <ele>3283.0</ele>
        <time>2022-11-20T11:31:21.000Z</time>
      </trkpt>
      <trkpt lat="37.058195" lon="-3.36920833">
        <ele>3283.0</ele>
        <time>2022-11-20T11:31:22.000Z</time>
      </trkpt>
      <trkpt lat="37.058195" lon="-3.36920833">
        <ele>3283.0</ele>
        <time>2022-11-20T11:31:23.000Z</time>
      </trkpt>
      <trkpt lat="37.05819667" lon="-3.36921">
        <ele>3283.0</ele>
        <time>2022-11-20T11:31:24.000Z</time>
      </trkpt>
      <trkpt lat="37.05819833" lon="-3.36921167">
        <ele>3283.0</ele>
        <time>2022-11-20T11:31:25.000Z</time>
      </trkpt>
      <trkpt lat="37.05819833" lon="-3.36921167">
        <ele>3283.0</ele>
        <time>2022-11-20T11:31:26.000Z</time>
      </trkpt>
      <trkpt lat="37.05819667" lon="-3.36921333">
        <ele>3283.0</ele>
        <time>2022-11-20T11:31:27.000Z</time>
      </trkpt>
      <trkpt lat="37.05819333" lon="-3.36921333">
        <ele>3283.0</ele>
        <time>2022-11-20T11:31:28.000Z</time>
      </trkpt>
      <trkpt lat="37.05819167" lon="-3.36921333">
        <ele>3283.0</ele>
        <time>2022-11-20T11:31:29.000Z</time>
      </trkpt>
      <trkpt lat="37.05819167" lon="-3.369215">
        <ele>3283.0</ele>
        <time>2022-11-20T11:31:30.000Z</time>
      </trkpt>
      <trkpt lat="37.05819167" lon="-3.36921667">
        <ele>3283.0</ele>
        <time>2022-11-20T11:31:31.000Z</time>
      </trkpt>
      <trkpt lat="37.05819167" lon="-3.36921667">
        <ele>3283.0</ele>
        <time>2022-11-20T11:31:32.000Z</time>
      </trkpt>
      <trkpt lat="37.05819167" lon="-3.36921667">
        <ele>3283.0</ele>
        <time>2022-11-20T11:31:33.000Z</time>
      </trkpt>
      <trkpt lat="37.05819167" lon="-3.36921">
        <ele>3283.0</ele>
        <time>2022-11-20T11:31:34.000Z</time>
      </trkpt>
      <trkpt lat="37.05819167" lon="-3.36921">
        <ele>3283.0</ele>
        <time>2022-11-20T11:31:35.000Z</time>
      </trkpt>
      <trkpt lat="37.05819167" lon="-3.36921">
        <ele>3283.0</ele>
        <time>2022-11-20T11:31:36.000Z</time>
      </trkpt>
      <trkpt lat="37.05819167" lon="-3.36920833">
        <ele>3283.0</ele>
        <time>2022-11-20T11:31:37.000Z</time>
      </trkpt>
      <trkpt lat="37.05819" lon="-3.36920833">
        <ele>3283.0</ele>
        <time>2022-11-20T11:31:38.000Z</time>
      </trkpt>
      <trkpt lat="37.05819167" lon="-3.36920833">
        <ele>3283.0</ele>
        <time>2022-11-20T11:31:39.000Z</time>
      </trkpt>
      <trkpt lat="37.05819167" lon="-3.36920667">
        <ele>3284.0</ele>
        <time>2022-11-20T11:31:40.000Z</time>
      </trkpt>
      <trkpt lat="37.05819" lon="-3.36920667">
        <ele>3284.0</ele>
        <time>2022-11-20T11:31:41.000Z</time>
      </trkpt>
      <trkpt lat="37.05819" lon="-3.369205">
        <ele>3284.0</ele>
        <time>2022-11-20T11:31:42.000Z</time>
      </trkpt>
      <trkpt lat="37.05819" lon="-3.36920333">
        <ele>3284.0</ele>
        <time>2022-11-20T11:31:43.000Z</time>
      </trkpt>
      <trkpt lat="37.05819" lon="-3.36920333">
        <ele>3284.0</ele>
        <time>2022-11-20T11:31:44.000Z</time>
      </trkpt>
      <trkpt lat="37.05818667" lon="-3.36919667">
        <ele>3284.0</ele>
        <time>2022-11-20T11:31:45.000Z</time>
      </trkpt>
      <trkpt lat="37.05818333" lon="-3.36919333">
        <ele>3284.0</ele>
        <time>2022-11-20T11:31:46.000Z</time>
      </trkpt>
      <trkpt lat="37.05818167" lon="-3.36918833">
        <ele>3284.0</ele>
        <time>2022-11-20T11:31:47.000Z</time>
      </trkpt>
      <trkpt lat="37.05818" lon="-3.36918333">
        <ele>3284.0</ele>
        <time>2022-11-20T11:31:48.000Z</time>
      </trkpt>
      <trkpt lat="37.05817833" lon="-3.36918167">
        <ele>3284.0</ele>
        <time>2022-11-20T11:31:49.000Z</time>
      </trkpt>
      <trkpt lat="37.05817333" lon="-3.36917667">
        <ele>3284.0</ele>
        <time>2022-11-20T11:31:50.000Z</time>
      </trkpt>
      <trkpt lat="37.05816833" lon="-3.36917167">
        <ele>3284.0</ele>
        <time>2022-11-20T11:31:51.000Z</time>
      </trkpt>
      <trkpt lat="37.058165" lon="-3.36916833">
        <ele>3285.0</ele>
        <time>2022-11-20T11:31:52.000Z</time>
      </trkpt>
      <trkpt lat="37.05816" lon="-3.369165">
        <ele>3285.0</ele>
        <time>2022-11-20T11:31:53.000Z</time>
      </trkpt>
      <trkpt lat="37.05815333" lon="-3.369165">
        <ele>3285.0</ele>
        <time>2022-11-20T11:31:54.000Z</time>
      </trkpt>
      <trkpt lat="37.05814667" lon="-3.369165">
        <ele>3285.0</ele>
        <time>2022-11-20T11:31:55.000Z</time>
      </trkpt>
      <trkpt lat="37.05814167" lon="-3.36916833">
        <ele>3285.0</ele>
        <time>2022-11-20T11:31:56.000Z</time>
      </trkpt>
      <trkpt lat="37.05813333" lon="-3.36917">
        <ele>3285.0</ele>
        <time>2022-11-20T11:31:57.000Z</time>
      </trkpt>
      <trkpt lat="37.05812333" lon="-3.36917167">
        <ele>3285.0</ele>
        <time>2022-11-20T11:31:58.000Z</time>
      </trkpt>
      <trkpt lat="37.058115" lon="-3.36917333">
        <ele>3285.0</ele>
        <time>2022-11-20T11:31:59.000Z</time>
      </trkpt>
      <trkpt lat="37.05810833" lon="-3.36917667">
        <ele>3285.0</ele>
        <time>2022-11-20T11:32:00.000Z</time>
      </trkpt>
      <trkpt lat="37.0581" lon="-3.36918167">
        <ele>3285.0</ele>
        <time>2022-11-20T11:32:01.000Z</time>
      </trkpt>
      <trkpt lat="37.05809167" lon="-3.369185">
        <ele>3285.0</ele>
        <time>2022-11-20T11:32:02.000Z</time>
      </trkpt>
      <trkpt lat="37.05808667" lon="-3.36918833">
        <ele>3285.0</ele>
        <time>2022-11-20T11:32:03.000Z</time>
      </trkpt>
      <trkpt lat="37.05808667" lon="-3.36918667">
        <ele>3285.0</ele>
        <time>2022-11-20T11:32:04.000Z</time>
      </trkpt>
      <trkpt lat="37.05808667" lon="-3.36918667">
        <ele>3285.0</ele>
        <time>2022-11-20T11:32:05.000Z</time>
      </trkpt>
      <trkpt lat="37.05808833" lon="-3.369185">
        <ele>3285.0</ele>
        <time>2022-11-20T11:32:06.000Z</time>
      </trkpt>
      <trkpt lat="37.05808833" lon="-3.369185">
        <ele>3285.0</ele>
        <time>2022-11-20T11:32:07.000Z</time>
      </trkpt>
      <trkpt lat="37.05808667" lon="-3.36918333">
        <ele>3285.0</ele>
        <time>2022-11-20T11:32:08.000Z</time>
      </trkpt>
      <trkpt lat="37.05808667" lon="-3.36918167">
        <ele>3285.0</ele>
        <time>2022-11-20T11:32:09.000Z</time>
      </trkpt>
      <trkpt lat="37.05808667" lon="-3.36918">
        <ele>3285.0</ele>
        <time>2022-11-20T11:32:10.000Z</time>
      </trkpt>
      <trkpt lat="37.05809167" lon="-3.36918333">
        <ele>3285.0</ele>
        <time>2022-11-20T11:32:11.000Z</time>
      </trkpt>
      <trkpt lat="37.05809833" lon="-3.36919">
        <ele>3285.0</ele>
        <time>2022-11-20T11:32:12.000Z</time>
      </trkpt>
      <trkpt lat="37.05810167" lon="-3.36919333">
        <ele>3285.0</ele>
        <time>2022-11-20T11:32:13.000Z</time>
      </trkpt>
      <trkpt lat="37.05810333" lon="-3.369195">
        <ele>3285.0</ele>
        <time>2022-11-20T11:32:14.000Z</time>
      </trkpt>
      <trkpt lat="37.05810333" lon="-3.369195">
        <ele>3285.0</ele>
        <time>2022-11-20T11:32:15.000Z</time>
      </trkpt>
      <trkpt lat="37.05810333" lon="-3.369195">
        <ele>3285.0</ele>
        <time>2022-11-20T11:32:16.000Z</time>
      </trkpt>
      <trkpt lat="37.05810333" lon="-3.369195">
        <ele>3285.0</ele>
        <time>2022-11-20T11:32:17.000Z</time>
      </trkpt>
      <trkpt lat="37.05810333" lon="-3.369195">
        <ele>3285.0</ele>
        <time>2022-11-20T11:32:18.000Z</time>
      </trkpt>
      <trkpt lat="37.05810333" lon="-3.369195">
        <ele>3285.0</ele>
        <time>2022-11-20T11:32:19.000Z</time>
      </trkpt>
      <trkpt lat="37.05810333" lon="-3.369195">
        <ele>3285.0</ele>
        <time>2022-11-20T11:32:20.000Z</time>
      </trkpt>
      <trkpt lat="37.058105" lon="-3.369195">
        <ele>3285.0</ele>
        <time>2022-11-20T11:32:21.000Z</time>
      </trkpt>
      <trkpt lat="37.058105" lon="-3.369195">
        <ele>3284.0</ele>
        <time>2022-11-20T11:32:22.000Z</time>
      </trkpt>
      <trkpt lat="37.058105" lon="-3.369195">
        <ele>3284.0</ele>
        <time>2022-11-20T11:32:23.000Z</time>
      </trkpt>
      <trkpt lat="37.058105" lon="-3.369195">
        <ele>3284.0</ele>
        <time>2022-11-20T11:32:24.000Z</time>
      </trkpt>
      <trkpt lat="37.058105" lon="-3.369195">
        <ele>3284.0</ele>
        <time>2022-11-20T11:32:25.000Z</time>
      </trkpt>
      <trkpt lat="37.058105" lon="-3.369195">
        <ele>3284.0</ele>
        <time>2022-11-20T11:32:26.000Z</time>
      </trkpt>
      <trkpt lat="37.058105" lon="-3.369195">
        <ele>3284.0</ele>
        <time>2022-11-20T11:32:27.000Z</time>
      </trkpt>
      <trkpt lat="37.058105" lon="-3.369195">
        <ele>3284.0</ele>
        <time>2022-11-20T11:32:28.000Z</time>
      </trkpt>
      <trkpt lat="37.058105" lon="-3.36919667">
        <ele>3284.0</ele>
        <time>2022-11-20T11:32:29.000Z</time>
      </trkpt>
      <trkpt lat="37.058105" lon="-3.3692">
        <ele>3284.0</ele>
        <time>2022-11-20T11:32:30.000Z</time>
      </trkpt>
      <trkpt lat="37.05810167" lon="-3.36920167">
        <ele>3284.0</ele>
        <time>2022-11-20T11:32:31.000Z</time>
      </trkpt>
      <trkpt lat="37.05809333" lon="-3.36920167">
        <ele>3284.0</ele>
        <time>2022-11-20T11:32:32.000Z</time>
      </trkpt>
      <trkpt lat="37.058085" lon="-3.369205">
        <ele>3284.0</ele>
        <time>2022-11-20T11:32:33.000Z</time>
      </trkpt>
      <trkpt lat="37.058075" lon="-3.36920833">
        <ele>3284.0</ele>
        <time>2022-11-20T11:32:34.000Z</time>
      </trkpt>
      <trkpt lat="37.05806667" lon="-3.36921333">
        <ele>3284.0</ele>
        <time>2022-11-20T11:32:35.000Z</time>
      </trkpt>
      <trkpt lat="37.05805833" lon="-3.369215">
        <ele>3284.0</ele>
        <time>2022-11-20T11:32:36.000Z</time>
      </trkpt>
      <trkpt lat="37.05805" lon="-3.36921667">
        <ele>3284.0</ele>
        <time>2022-11-20T11:32:37.000Z</time>
      </trkpt>
      <trkpt lat="37.05804" lon="-3.36921833">
        <ele>3284.0</ele>
        <time>2022-11-20T11:32:38.000Z</time>
      </trkpt>
      <trkpt lat="37.05803" lon="-3.36922">
        <ele>3284.0</ele>
        <time>2022-11-20T11:32:39.000Z</time>
      </trkpt>
      <trkpt lat="37.05802333" lon="-3.36922167">
        <ele>3284.0</ele>
        <time>2022-11-20T11:32:40.000Z</time>
      </trkpt>
      <trkpt lat="37.058015" lon="-3.36922667">
        <ele>3284.0</ele>
        <time>2022-11-20T11:32:41.000Z</time>
      </trkpt>
      <trkpt lat="37.058005" lon="-3.36922833">
        <ele>3284.0</ele>
        <time>2022-11-20T11:32:42.000Z</time>
      </trkpt>
      <trkpt lat="37.057995" lon="-3.36922833">
        <ele>3284.0</ele>
        <time>2022-11-20T11:32:43.000Z</time>
      </trkpt>
      <trkpt lat="37.057985" lon="-3.36923167">
        <ele>3284.0</ele>
        <time>2022-11-20T11:32:44.000Z</time>
      </trkpt>
      <trkpt lat="37.05797667" lon="-3.36923667">
        <ele>3284.0</ele>
        <time>2022-11-20T11:32:45.000Z</time>
      </trkpt>
      <trkpt lat="37.05796667" lon="-3.36923833">
        <ele>3284.0</ele>
        <time>2022-11-20T11:32:46.000Z</time>
      </trkpt>
      <trkpt lat="37.05795833" lon="-3.36924">
        <ele>3284.0</ele>
        <time>2022-11-20T11:32:47.000Z</time>
      </trkpt>
      <trkpt lat="37.05794833" lon="-3.36924">
        <ele>3284.0</ele>
        <time>2022-11-20T11:32:48.000Z</time>
      </trkpt>
      <trkpt lat="37.05794" lon="-3.36924333">
        <ele>3284.0</ele>
        <time>2022-11-20T11:32:49.000Z</time>
      </trkpt>
      <trkpt lat="37.05793167" lon="-3.36924333">
        <ele>3284.0</ele>
        <time>2022-11-20T11:32:50.000Z</time>
      </trkpt>
      <trkpt lat="37.057925" lon="-3.369245">
        <ele>3284.0</ele>
        <time>2022-11-20T11:32:51.000Z</time>
      </trkpt>
      <trkpt lat="37.057915" lon="-3.369245">
        <ele>3284.0</ele>
        <time>2022-11-20T11:32:52.000Z</time>
      </trkpt>
      <trkpt lat="37.057905" lon="-3.369245">
        <ele>3285.0</ele>
        <time>2022-11-20T11:32:53.000Z</time>
      </trkpt>
      <trkpt lat="37.05789667" lon="-3.36924667">
        <ele>3285.0</ele>
        <time>2022-11-20T11:32:54.000Z</time>
      </trkpt>
      <trkpt lat="37.05788667" lon="-3.36925">
        <ele>3285.0</ele>
        <time>2022-11-20T11:32:55.000Z</time>
      </trkpt>
      <trkpt lat="37.05787833" lon="-3.36925167">
        <ele>3285.0</ele>
        <time>2022-11-20T11:32:56.000Z</time>
      </trkpt>
      <trkpt lat="37.05786833" lon="-3.36925">
        <ele>3285.0</ele>
        <time>2022-11-20T11:32:57.000Z</time>
      </trkpt>
      <trkpt lat="37.05786" lon="-3.36925167">
        <ele>3285.0</ele>
        <time>2022-11-20T11:32:58.000Z</time>
      </trkpt>
      <trkpt lat="37.05785" lon="-3.36925167">
        <ele>3285.0</ele>
        <time>2022-11-20T11:32:59.000Z</time>
      </trkpt>
      <trkpt lat="37.05783833" lon="-3.36925167">
        <ele>3285.0</ele>
        <time>2022-11-20T11:33:00.000Z</time>
      </trkpt>
      <trkpt lat="37.05783" lon="-3.36925">
        <ele>3285.0</ele>
        <time>2022-11-20T11:33:01.000Z</time>
      </trkpt>
      <trkpt lat="37.05782" lon="-3.36924833">
        <ele>3285.0</ele>
        <time>2022-11-20T11:33:02.000Z</time>
      </trkpt>
      <trkpt lat="37.05781167" lon="-3.36925167">
        <ele>3285.0</ele>
        <time>2022-11-20T11:33:03.000Z</time>
      </trkpt>
      <trkpt lat="37.05780167" lon="-3.36925167">
        <ele>3285.0</ele>
        <time>2022-11-20T11:33:04.000Z</time>
      </trkpt>
      <trkpt lat="37.05779" lon="-3.36925167">
        <ele>3285.0</ele>
        <time>2022-11-20T11:33:05.000Z</time>
      </trkpt>
      <trkpt lat="37.05778" lon="-3.36925167">
        <ele>3285.0</ele>
        <time>2022-11-20T11:33:06.000Z</time>
      </trkpt>
      <trkpt lat="37.05777" lon="-3.36924833">
        <ele>3285.0</ele>
        <time>2022-11-20T11:33:07.000Z</time>
      </trkpt>
      <trkpt lat="37.05776" lon="-3.369245">
        <ele>3285.0</ele>
        <time>2022-11-20T11:33:08.000Z</time>
      </trkpt>
      <trkpt lat="37.05775" lon="-3.36924667">
        <ele>3285.0</ele>
        <time>2022-11-20T11:33:09.000Z</time>
      </trkpt>
      <trkpt lat="37.05774" lon="-3.36924833">
        <ele>3285.0</ele>
        <time>2022-11-20T11:33:10.000Z</time>
      </trkpt>
      <trkpt lat="37.05773" lon="-3.369245">
        <ele>3286.0</ele>
        <time>2022-11-20T11:33:11.000Z</time>
      </trkpt>
      <trkpt lat="37.05772" lon="-3.36924333">
        <ele>3286.0</ele>
        <time>2022-11-20T11:33:12.000Z</time>
      </trkpt>
      <trkpt lat="37.05771" lon="-3.369245">
        <ele>3286.0</ele>
        <time>2022-11-20T11:33:13.000Z</time>
      </trkpt>
      <trkpt lat="37.0577" lon="-3.36924667">
        <ele>3286.0</ele>
        <time>2022-11-20T11:33:14.000Z</time>
      </trkpt>
      <trkpt lat="37.05768833" lon="-3.36924833">
        <ele>3286.0</ele>
        <time>2022-11-20T11:33:15.000Z</time>
      </trkpt>
      <trkpt lat="37.05767833" lon="-3.36925167">
        <ele>3286.0</ele>
        <time>2022-11-20T11:33:16.000Z</time>
      </trkpt>
      <trkpt lat="37.05766833" lon="-3.36925333">
        <ele>3286.0</ele>
        <time>2022-11-20T11:33:17.000Z</time>
      </trkpt>
      <trkpt lat="37.05765833" lon="-3.36925333">
        <ele>3286.0</ele>
        <time>2022-11-20T11:33:18.000Z</time>
      </trkpt>
      <trkpt lat="37.05764833" lon="-3.36925167">
        <ele>3286.0</ele>
        <time>2022-11-20T11:33:19.000Z</time>
      </trkpt>
      <trkpt lat="37.05763667" lon="-3.36925">
        <ele>3286.0</ele>
        <time>2022-11-20T11:33:20.000Z</time>
      </trkpt>
      <trkpt lat="37.05762667" lon="-3.36924667">
        <ele>3286.0</ele>
        <time>2022-11-20T11:33:21.000Z</time>
      </trkpt>
      <trkpt lat="37.057615" lon="-3.36924167">
        <ele>3286.0</ele>
        <time>2022-11-20T11:33:22.000Z</time>
      </trkpt>
      <trkpt lat="37.057605" lon="-3.36924">
        <ele>3286.0</ele>
        <time>2022-11-20T11:33:23.000Z</time>
      </trkpt>
      <trkpt lat="37.05759333" lon="-3.369235">
        <ele>3286.0</ele>
        <time>2022-11-20T11:33:24.000Z</time>
      </trkpt>
      <trkpt lat="37.05758333" lon="-3.36923333">
        <ele>3286.0</ele>
        <time>2022-11-20T11:33:25.000Z</time>
      </trkpt>
      <trkpt lat="37.05757333" lon="-3.36923167">
        <ele>3286.0</ele>
        <time>2022-11-20T11:33:26.000Z</time>
      </trkpt>
      <trkpt lat="37.05756333" lon="-3.36923">
        <ele>3286.0</ele>
        <time>2022-11-20T11:33:27.000Z</time>
      </trkpt>
      <trkpt lat="37.05755333" lon="-3.36922833">
        <ele>3286.0</ele>
        <time>2022-11-20T11:33:28.000Z</time>
      </trkpt>
      <trkpt lat="37.05754333" lon="-3.369225">
        <ele>3286.0</ele>
        <time>2022-11-20T11:33:29.000Z</time>
      </trkpt>
      <trkpt lat="37.05753333" lon="-3.36922333">
        <ele>3286.0</ele>
        <time>2022-11-20T11:33:30.000Z</time>
      </trkpt>
      <trkpt lat="37.057525" lon="-3.36922167">
        <ele>3286.0</ele>
        <time>2022-11-20T11:33:31.000Z</time>
      </trkpt>
      <trkpt lat="37.057515" lon="-3.36922">
        <ele>3287.0</ele>
        <time>2022-11-20T11:33:32.000Z</time>
      </trkpt>
      <trkpt lat="37.057505" lon="-3.369215">
        <ele>3287.0</ele>
        <time>2022-11-20T11:33:33.000Z</time>
      </trkpt>
      <trkpt lat="37.05749667" lon="-3.369215">
        <ele>3287.0</ele>
        <time>2022-11-20T11:33:34.000Z</time>
      </trkpt>
      <trkpt lat="37.05749167" lon="-3.36921833">
        <ele>3287.0</ele>
        <time>2022-11-20T11:33:35.000Z</time>
      </trkpt>
      <trkpt lat="37.05748333" lon="-3.36922167">
        <ele>3287.0</ele>
        <time>2022-11-20T11:33:36.000Z</time>
      </trkpt>
      <trkpt lat="37.05747167" lon="-3.36922">
        <ele>3287.0</ele>
        <time>2022-11-20T11:33:37.000Z</time>
      </trkpt>
      <trkpt lat="37.057465" lon="-3.36922">
        <ele>3287.0</ele>
        <time>2022-11-20T11:33:38.000Z</time>
      </trkpt>
      <trkpt lat="37.057455" lon="-3.36922">
        <ele>3287.0</ele>
        <time>2022-11-20T11:33:39.000Z</time>
      </trkpt>
      <trkpt lat="37.05744667" lon="-3.36922">
        <ele>3287.0</ele>
        <time>2022-11-20T11:33:40.000Z</time>
      </trkpt>
      <trkpt lat="37.05744" lon="-3.36922">
        <ele>3287.0</ele>
        <time>2022-11-20T11:33:41.000Z</time>
      </trkpt>
      <trkpt lat="37.05743" lon="-3.36921667">
        <ele>3287.0</ele>
        <time>2022-11-20T11:33:42.000Z</time>
      </trkpt>
      <trkpt lat="37.05742" lon="-3.369215">
        <ele>3287.0</ele>
        <time>2022-11-20T11:33:43.000Z</time>
      </trkpt>
      <trkpt lat="37.05741167" lon="-3.36921333">
        <ele>3287.0</ele>
        <time>2022-11-20T11:33:44.000Z</time>
      </trkpt>
      <trkpt lat="37.057405" lon="-3.36921167">
        <ele>3287.0</ele>
        <time>2022-11-20T11:33:45.000Z</time>
      </trkpt>
      <trkpt lat="37.05739833" lon="-3.36921">
        <ele>3287.0</ele>
        <time>2022-11-20T11:33:46.000Z</time>
      </trkpt>
      <trkpt lat="37.05739167" lon="-3.36920667">
        <ele>3287.0</ele>
        <time>2022-11-20T11:33:47.000Z</time>
      </trkpt>
      <trkpt lat="37.05738667" lon="-3.36920667">
        <ele>3287.0</ele>
        <time>2022-11-20T11:33:48.000Z</time>
      </trkpt>
      <trkpt lat="37.05737833" lon="-3.36920667">
        <ele>3287.0</ele>
        <time>2022-11-20T11:33:49.000Z</time>
      </trkpt>
      <trkpt lat="37.05737333" lon="-3.369205">
        <ele>3287.0</ele>
        <time>2022-11-20T11:33:50.000Z</time>
      </trkpt>
      <trkpt lat="37.05736333" lon="-3.3692">
        <ele>3288.0</ele>
        <time>2022-11-20T11:33:51.000Z</time>
      </trkpt>
      <trkpt lat="37.05735667" lon="-3.36919667">
        <ele>3288.0</ele>
        <time>2022-11-20T11:33:52.000Z</time>
      </trkpt>
      <trkpt lat="37.05735" lon="-3.36919333">
        <ele>3288.0</ele>
        <time>2022-11-20T11:33:53.000Z</time>
      </trkpt>
      <trkpt lat="37.05734167" lon="-3.36919167">
        <ele>3288.0</ele>
        <time>2022-11-20T11:33:54.000Z</time>
      </trkpt>
      <trkpt lat="37.05733667" lon="-3.36919">
        <ele>3288.0</ele>
        <time>2022-11-20T11:33:55.000Z</time>
      </trkpt>
      <trkpt lat="37.05733333" lon="-3.36918667">
        <ele>3288.0</ele>
        <time>2022-11-20T11:33:56.000Z</time>
      </trkpt>
      <trkpt lat="37.05733" lon="-3.36918667">
        <ele>3288.0</ele>
        <time>2022-11-20T11:33:57.000Z</time>
      </trkpt>
      <trkpt lat="37.05732667" lon="-3.36918667">
        <ele>3288.0</ele>
        <time>2022-11-20T11:33:58.000Z</time>
      </trkpt>
      <trkpt lat="37.05732" lon="-3.36918333">
        <ele>3288.0</ele>
        <time>2022-11-20T11:33:59.000Z</time>
      </trkpt>
      <trkpt lat="37.05731333" lon="-3.36917833">
        <ele>3288.0</ele>
        <time>2022-11-20T11:34:00.000Z</time>
      </trkpt>
      <trkpt lat="37.05731" lon="-3.36917833">
        <ele>3288.0</ele>
        <time>2022-11-20T11:34:01.000Z</time>
      </trkpt>
      <trkpt lat="37.05730667" lon="-3.36917667">
        <ele>3288.0</ele>
        <time>2022-11-20T11:34:02.000Z</time>
      </trkpt>
      <trkpt lat="37.0573" lon="-3.369175">
        <ele>3288.0</ele>
        <time>2022-11-20T11:34:03.000Z</time>
      </trkpt>
      <trkpt lat="37.05729333" lon="-3.369175">
        <ele>3289.0</ele>
        <time>2022-11-20T11:34:04.000Z</time>
      </trkpt>
      <trkpt lat="37.05728667" lon="-3.369175">
        <ele>3289.0</ele>
        <time>2022-11-20T11:34:05.000Z</time>
      </trkpt>
      <trkpt lat="37.05728" lon="-3.369175">
        <ele>3289.0</ele>
        <time>2022-11-20T11:34:06.000Z</time>
      </trkpt>
      <trkpt lat="37.05727333" lon="-3.369175">
        <ele>3289.0</ele>
        <time>2022-11-20T11:34:07.000Z</time>
      </trkpt>
      <trkpt lat="37.05726667" lon="-3.36917167">
        <ele>3289.0</ele>
        <time>2022-11-20T11:34:08.000Z</time>
      </trkpt>
      <trkpt lat="37.05725833" lon="-3.36916833">
        <ele>3289.0</ele>
        <time>2022-11-20T11:34:09.000Z</time>
      </trkpt>
      <trkpt lat="37.05725167" lon="-3.36916667">
        <ele>3289.0</ele>
        <time>2022-11-20T11:34:10.000Z</time>
      </trkpt>
      <trkpt lat="37.05724667" lon="-3.36916667">
        <ele>3289.0</ele>
        <time>2022-11-20T11:34:11.000Z</time>
      </trkpt>
      <trkpt lat="37.05724167" lon="-3.369165">
        <ele>3289.0</ele>
        <time>2022-11-20T11:34:12.000Z</time>
      </trkpt>
      <trkpt lat="37.05723667" lon="-3.369165">
        <ele>3289.0</ele>
        <time>2022-11-20T11:34:13.000Z</time>
      </trkpt>
      <trkpt lat="37.05723" lon="-3.36916333">
        <ele>3289.0</ele>
        <time>2022-11-20T11:34:14.000Z</time>
      </trkpt>
      <trkpt lat="37.057225" lon="-3.36916333">
        <ele>3289.0</ele>
        <time>2022-11-20T11:34:15.000Z</time>
      </trkpt>
      <trkpt lat="37.05721833" lon="-3.36916667">
        <ele>3289.0</ele>
        <time>2022-11-20T11:34:16.000Z</time>
      </trkpt>
      <trkpt lat="37.05721167" lon="-3.36917167">
        <ele>3289.0</ele>
        <time>2022-11-20T11:34:17.000Z</time>
      </trkpt>
      <trkpt lat="37.05720667" lon="-3.36917">
        <ele>3289.0</ele>
        <time>2022-11-20T11:34:18.000Z</time>
      </trkpt>
      <trkpt lat="37.057205" lon="-3.36917167">
        <ele>3289.0</ele>
        <time>2022-11-20T11:34:19.000Z</time>
      </trkpt>
      <trkpt lat="37.05720167" lon="-3.369175">
        <ele>3289.0</ele>
        <time>2022-11-20T11:34:20.000Z</time>
      </trkpt>
      <trkpt lat="37.05719833" lon="-3.36918">
        <ele>3289.0</ele>
        <time>2022-11-20T11:34:21.000Z</time>
      </trkpt>
      <trkpt lat="37.05719333" lon="-3.36918833">
        <ele>3289.0</ele>
        <time>2022-11-20T11:34:22.000Z</time>
      </trkpt>
      <trkpt lat="37.05719" lon="-3.369195">
        <ele>3289.0</ele>
        <time>2022-11-20T11:34:23.000Z</time>
      </trkpt>
      <trkpt lat="37.05718333" lon="-3.36919667">
        <ele>3289.0</ele>
        <time>2022-11-20T11:34:24.000Z</time>
      </trkpt>
      <trkpt lat="37.057175" lon="-3.36919833">
        <ele>3289.0</ele>
        <time>2022-11-20T11:34:25.000Z</time>
      </trkpt>
      <trkpt lat="37.05716667" lon="-3.36920333">
        <ele>3289.0</ele>
        <time>2022-11-20T11:34:26.000Z</time>
      </trkpt>
      <trkpt lat="37.05715833" lon="-3.36921">
        <ele>3289.0</ele>
        <time>2022-11-20T11:34:27.000Z</time>
      </trkpt>
      <trkpt lat="37.05715" lon="-3.36921667">
        <ele>3289.0</ele>
        <time>2022-11-20T11:34:28.000Z</time>
      </trkpt>
      <trkpt lat="37.05714" lon="-3.36922">
        <ele>3289.0</ele>
        <time>2022-11-20T11:34:29.000Z</time>
      </trkpt>
      <trkpt lat="37.05713167" lon="-3.36922">
        <ele>3289.0</ele>
        <time>2022-11-20T11:34:30.000Z</time>
      </trkpt>
      <trkpt lat="37.05712167" lon="-3.36922">
        <ele>3289.0</ele>
        <time>2022-11-20T11:34:31.000Z</time>
      </trkpt>
      <trkpt lat="37.05711333" lon="-3.36922333">
        <ele>3289.0</ele>
        <time>2022-11-20T11:34:32.000Z</time>
      </trkpt>
      <trkpt lat="37.057105" lon="-3.369225">
        <ele>3289.0</ele>
        <time>2022-11-20T11:34:33.000Z</time>
      </trkpt>
      <trkpt lat="37.05709667" lon="-3.36922833">
        <ele>3289.0</ele>
        <time>2022-11-20T11:34:34.000Z</time>
      </trkpt>
      <trkpt lat="37.05709" lon="-3.36923333">
        <ele>3289.0</ele>
        <time>2022-11-20T11:34:35.000Z</time>
      </trkpt>
      <trkpt lat="37.05708167" lon="-3.36923667">
        <ele>3289.0</ele>
        <time>2022-11-20T11:34:36.000Z</time>
      </trkpt>
      <trkpt lat="37.05707667" lon="-3.369235">
        <ele>3289.0</ele>
        <time>2022-11-20T11:34:37.000Z</time>
      </trkpt>
      <trkpt lat="37.05707167" lon="-3.369235">
        <ele>3289.0</ele>
        <time>2022-11-20T11:34:38.000Z</time>
      </trkpt>
      <trkpt lat="37.05706667" lon="-3.36923667">
        <ele>3289.0</ele>
        <time>2022-11-20T11:34:39.000Z</time>
      </trkpt>
      <trkpt lat="37.05706" lon="-3.36923333">
        <ele>3289.0</ele>
        <time>2022-11-20T11:34:40.000Z</time>
      </trkpt>
      <trkpt lat="37.057055" lon="-3.36923">
        <ele>3289.0</ele>
        <time>2022-11-20T11:34:41.000Z</time>
      </trkpt>
      <trkpt lat="37.05705167" lon="-3.36922833">
        <ele>3289.0</ele>
        <time>2022-11-20T11:34:42.000Z</time>
      </trkpt>
      <trkpt lat="37.05704833" lon="-3.36922667">
        <ele>3290.0</ele>
        <time>2022-11-20T11:34:43.000Z</time>
      </trkpt>
      <trkpt lat="37.05704667" lon="-3.369225">
        <ele>3290.0</ele>
        <time>2022-11-20T11:34:44.000Z</time>
      </trkpt>
      <trkpt lat="37.057045" lon="-3.36922167">
        <ele>3290.0</ele>
        <time>2022-11-20T11:34:45.000Z</time>
      </trkpt>
      <trkpt lat="37.05704167" lon="-3.36921667">
        <ele>3290.0</ele>
        <time>2022-11-20T11:34:46.000Z</time>
      </trkpt>
      <trkpt lat="37.05703833" lon="-3.36921">
        <ele>3290.0</ele>
        <time>2022-11-20T11:34:47.000Z</time>
      </trkpt>
      <trkpt lat="37.05703667" lon="-3.36920667">
        <ele>3290.0</ele>
        <time>2022-11-20T11:34:48.000Z</time>
      </trkpt>
      <trkpt lat="37.05703167" lon="-3.36920333">
        <ele>3290.0</ele>
        <time>2022-11-20T11:34:49.000Z</time>
      </trkpt>
      <trkpt lat="37.05702833" lon="-3.36920167">
        <ele>3291.0</ele>
        <time>2022-11-20T11:34:50.000Z</time>
      </trkpt>
      <trkpt lat="37.05702333" lon="-3.36919333">
        <ele>3291.0</ele>
        <time>2022-11-20T11:34:51.000Z</time>
      </trkpt>
      <trkpt lat="37.05701833" lon="-3.36918833">
        <ele>3291.0</ele>
        <time>2022-11-20T11:34:52.000Z</time>
      </trkpt>
      <trkpt lat="37.05701333" lon="-3.369185">
        <ele>3291.0</ele>
        <time>2022-11-20T11:34:53.000Z</time>
      </trkpt>
      <trkpt lat="37.057005" lon="-3.36918667">
        <ele>3291.0</ele>
        <time>2022-11-20T11:34:54.000Z</time>
      </trkpt>
      <trkpt lat="37.056995" lon="-3.36918333">
        <ele>3291.0</ele>
        <time>2022-11-20T11:34:55.000Z</time>
      </trkpt>
      <trkpt lat="37.056985" lon="-3.36918">
        <ele>3291.0</ele>
        <time>2022-11-20T11:34:56.000Z</time>
      </trkpt>
      <trkpt lat="37.05697667" lon="-3.36917833">
        <ele>3291.0</ele>
        <time>2022-11-20T11:34:57.000Z</time>
      </trkpt>
      <trkpt lat="37.05696833" lon="-3.36918">
        <ele>3291.0</ele>
        <time>2022-11-20T11:34:58.000Z</time>
      </trkpt>
      <trkpt lat="37.05696" lon="-3.36917833">
        <ele>3291.0</ele>
        <time>2022-11-20T11:34:59.000Z</time>
      </trkpt>
      <trkpt lat="37.05695" lon="-3.36917833">
        <ele>3291.0</ele>
        <time>2022-11-20T11:35:00.000Z</time>
      </trkpt>
      <trkpt lat="37.05694" lon="-3.36918">
        <ele>3291.0</ele>
        <time>2022-11-20T11:35:01.000Z</time>
      </trkpt>
      <trkpt lat="37.05692833" lon="-3.36918333">
        <ele>3291.0</ele>
        <time>2022-11-20T11:35:02.000Z</time>
      </trkpt>
      <trkpt lat="37.05691833" lon="-3.36918833">
        <ele>3291.0</ele>
        <time>2022-11-20T11:35:03.000Z</time>
      </trkpt>
      <trkpt lat="37.05690833" lon="-3.36919167">
        <ele>3291.0</ele>
        <time>2022-11-20T11:35:04.000Z</time>
      </trkpt>
      <trkpt lat="37.05689833" lon="-3.369195">
        <ele>3291.0</ele>
        <time>2022-11-20T11:35:05.000Z</time>
      </trkpt>
      <trkpt lat="37.05688667" lon="-3.36919667">
        <ele>3291.0</ele>
        <time>2022-11-20T11:35:06.000Z</time>
      </trkpt>
      <trkpt lat="37.05688" lon="-3.36919667">
        <ele>3291.0</ele>
        <time>2022-11-20T11:35:07.000Z</time>
      </trkpt>
      <trkpt lat="37.05687" lon="-3.36919833">
        <ele>3291.0</ele>
        <time>2022-11-20T11:35:08.000Z</time>
      </trkpt>
      <trkpt lat="37.05686167" lon="-3.3692">
        <ele>3291.0</ele>
        <time>2022-11-20T11:35:09.000Z</time>
      </trkpt>
      <trkpt lat="37.05685167" lon="-3.36920167">
        <ele>3291.0</ele>
        <time>2022-11-20T11:35:10.000Z</time>
      </trkpt>
      <trkpt lat="37.056845" lon="-3.36920333">
        <ele>3291.0</ele>
        <time>2022-11-20T11:35:11.000Z</time>
      </trkpt>
      <trkpt lat="37.056835" lon="-3.36920333">
        <ele>3292.0</ele>
        <time>2022-11-20T11:35:12.000Z</time>
      </trkpt>
      <trkpt lat="37.05682667" lon="-3.36920333">
        <ele>3292.0</ele>
        <time>2022-11-20T11:35:13.000Z</time>
      </trkpt>
      <trkpt lat="37.05682" lon="-3.369205">
        <ele>3292.0</ele>
        <time>2022-11-20T11:35:14.000Z</time>
      </trkpt>
      <trkpt lat="37.05681167" lon="-3.36920667">
        <ele>3292.0</ele>
        <time>2022-11-20T11:35:15.000Z</time>
      </trkpt>
      <trkpt lat="37.05680167" lon="-3.36920833">
        <ele>3292.0</ele>
        <time>2022-11-20T11:35:16.000Z</time>
      </trkpt>
      <trkpt lat="37.056795" lon="-3.36921">
        <ele>3292.0</ele>
        <time>2022-11-20T11:35:17.000Z</time>
      </trkpt>
      <trkpt lat="37.056785" lon="-3.36921">
        <ele>3293.0</ele>
        <time>2022-11-20T11:35:18.000Z</time>
      </trkpt>
      <trkpt lat="37.05677667" lon="-3.36921">
        <ele>3293.0</ele>
        <time>2022-11-20T11:35:19.000Z</time>
      </trkpt>
      <trkpt lat="37.05676833" lon="-3.36920833">
        <ele>3293.0</ele>
        <time>2022-11-20T11:35:20.000Z</time>
      </trkpt>
      <trkpt lat="37.05675833" lon="-3.36920667">
        <ele>3293.0</ele>
        <time>2022-11-20T11:35:21.000Z</time>
      </trkpt>
      <trkpt lat="37.05675" lon="-3.36920667">
        <ele>3293.0</ele>
        <time>2022-11-20T11:35:22.000Z</time>
      </trkpt>
      <trkpt lat="37.05674" lon="-3.369205">
        <ele>3293.0</ele>
        <time>2022-11-20T11:35:23.000Z</time>
      </trkpt>
      <trkpt lat="37.05673" lon="-3.369205">
        <ele>3293.0</ele>
        <time>2022-11-20T11:35:24.000Z</time>
      </trkpt>
      <trkpt lat="37.05671833" lon="-3.369205">
        <ele>3294.0</ele>
        <time>2022-11-20T11:35:25.000Z</time>
      </trkpt>
      <trkpt lat="37.05670667" lon="-3.369205">
        <ele>3294.0</ele>
        <time>2022-11-20T11:35:26.000Z</time>
      </trkpt>
      <trkpt lat="37.05669833" lon="-3.369205">
        <ele>3294.0</ele>
        <time>2022-11-20T11:35:27.000Z</time>
      </trkpt>
      <trkpt lat="37.05668667" lon="-3.369205">
        <ele>3294.0</ele>
        <time>2022-11-20T11:35:28.000Z</time>
      </trkpt>
      <trkpt lat="37.05667833" lon="-3.369205">
        <ele>3294.0</ele>
        <time>2022-11-20T11:35:29.000Z</time>
      </trkpt>
      <trkpt lat="37.05666667" lon="-3.369205">
        <ele>3294.0</ele>
        <time>2022-11-20T11:35:30.000Z</time>
      </trkpt>
      <trkpt lat="37.05665667" lon="-3.369205">
        <ele>3294.0</ele>
        <time>2022-11-20T11:35:31.000Z</time>
      </trkpt>
      <trkpt lat="37.05664833" lon="-3.36920667">
        <ele>3295.0</ele>
        <time>2022-11-20T11:35:32.000Z</time>
      </trkpt>
      <trkpt lat="37.05663833" lon="-3.369205">
        <ele>3295.0</ele>
        <time>2022-11-20T11:35:33.000Z</time>
      </trkpt>
      <trkpt lat="37.05663" lon="-3.369205">
        <ele>3295.0</ele>
        <time>2022-11-20T11:35:34.000Z</time>
      </trkpt>
      <trkpt lat="37.05661833" lon="-3.36920333">
        <ele>3295.0</ele>
        <time>2022-11-20T11:35:35.000Z</time>
      </trkpt>
      <trkpt lat="37.05660667" lon="-3.36920333">
        <ele>3295.0</ele>
        <time>2022-11-20T11:35:36.000Z</time>
      </trkpt>
      <trkpt lat="37.05659833" lon="-3.369205">
        <ele>3295.0</ele>
        <time>2022-11-20T11:35:37.000Z</time>
      </trkpt>
      <trkpt lat="37.05659" lon="-3.36920333">
        <ele>3296.0</ele>
        <time>2022-11-20T11:35:38.000Z</time>
      </trkpt>
      <trkpt lat="37.05658167" lon="-3.36920167">
        <ele>3296.0</ele>
        <time>2022-11-20T11:35:39.000Z</time>
      </trkpt>
      <trkpt lat="37.056575" lon="-3.3692">
        <ele>3296.0</ele>
        <time>2022-11-20T11:35:40.000Z</time>
      </trkpt>
      <trkpt lat="37.056565" lon="-3.36920167">
        <ele>3296.0</ele>
        <time>2022-11-20T11:35:41.000Z</time>
      </trkpt>
      <trkpt lat="37.056555" lon="-3.36920167">
        <ele>3296.0</ele>
        <time>2022-11-20T11:35:42.000Z</time>
      </trkpt>
      <trkpt lat="37.056545" lon="-3.36920167">
        <ele>3296.0</ele>
        <time>2022-11-20T11:35:43.000Z</time>
      </trkpt>
      <trkpt lat="37.056535" lon="-3.36920167">
        <ele>3296.0</ele>
        <time>2022-11-20T11:35:44.000Z</time>
      </trkpt>
      <trkpt lat="37.056525" lon="-3.3692">
        <ele>3296.0</ele>
        <time>2022-11-20T11:35:45.000Z</time>
      </trkpt>
      <trkpt lat="37.05651333" lon="-3.3692">
        <ele>3296.0</ele>
        <time>2022-11-20T11:35:46.000Z</time>
      </trkpt>
      <trkpt lat="37.05650333" lon="-3.3692">
        <ele>3297.0</ele>
        <time>2022-11-20T11:35:47.000Z</time>
      </trkpt>
      <trkpt lat="37.05649333" lon="-3.3692">
        <ele>3297.0</ele>
        <time>2022-11-20T11:35:48.000Z</time>
      </trkpt>
      <trkpt lat="37.05648333" lon="-3.3692">
        <ele>3297.0</ele>
        <time>2022-11-20T11:35:49.000Z</time>
      </trkpt>
      <trkpt lat="37.05647333" lon="-3.36920167">
        <ele>3297.0</ele>
        <time>2022-11-20T11:35:50.000Z</time>
      </trkpt>
      <trkpt lat="37.056465" lon="-3.36920167">
        <ele>3297.0</ele>
        <time>2022-11-20T11:35:51.000Z</time>
      </trkpt>
      <trkpt lat="37.056455" lon="-3.36919833">
        <ele>3297.0</ele>
        <time>2022-11-20T11:35:52.000Z</time>
      </trkpt>
      <trkpt lat="37.056445" lon="-3.36919667">
        <ele>3297.0</ele>
        <time>2022-11-20T11:35:53.000Z</time>
      </trkpt>
      <trkpt lat="37.056435" lon="-3.36919667">
        <ele>3297.0</ele>
        <time>2022-11-20T11:35:54.000Z</time>
      </trkpt>
      <trkpt lat="37.056425" lon="-3.369195">
        <ele>3297.0</ele>
        <time>2022-11-20T11:35:55.000Z</time>
      </trkpt>
      <trkpt lat="37.056415" lon="-3.36919333">
        <ele>3297.0</ele>
        <time>2022-11-20T11:35:56.000Z</time>
      </trkpt>
      <trkpt lat="37.056405" lon="-3.36918833">
        <ele>3298.0</ele>
        <time>2022-11-20T11:35:57.000Z</time>
      </trkpt>
      <trkpt lat="37.05639667" lon="-3.36918667">
        <ele>3298.0</ele>
        <time>2022-11-20T11:35:58.000Z</time>
      </trkpt>
      <trkpt lat="37.05638667" lon="-3.36918">
        <ele>3298.0</ele>
        <time>2022-11-20T11:35:59.000Z</time>
      </trkpt>
      <trkpt lat="37.05637667" lon="-3.369175">
        <ele>3298.0</ele>
        <time>2022-11-20T11:36:00.000Z</time>
      </trkpt>
      <trkpt lat="37.056365" lon="-3.36917167">
        <ele>3298.0</ele>
        <time>2022-11-20T11:36:01.000Z</time>
      </trkpt>
      <trkpt lat="37.05635333" lon="-3.36916833">
        <ele>3298.0</ele>
        <time>2022-11-20T11:36:02.000Z</time>
      </trkpt>
      <trkpt lat="37.05634333" lon="-3.369165">
        <ele>3298.0</ele>
        <time>2022-11-20T11:36:03.000Z</time>
      </trkpt>
      <trkpt lat="37.05633167" lon="-3.369165">
        <ele>3298.0</ele>
        <time>2022-11-20T11:36:04.000Z</time>
      </trkpt>
      <trkpt lat="37.05632167" lon="-3.36916333">
        <ele>3298.0</ele>
        <time>2022-11-20T11:36:05.000Z</time>
      </trkpt>
      <trkpt lat="37.05631167" lon="-3.36916">
        <ele>3299.0</ele>
        <time>2022-11-20T11:36:06.000Z</time>
      </trkpt>
      <trkpt lat="37.05630167" lon="-3.36915667">
        <ele>3299.0</ele>
        <time>2022-11-20T11:36:07.000Z</time>
      </trkpt>
      <trkpt lat="37.05629167" lon="-3.36915333">
        <ele>3299.0</ele>
        <time>2022-11-20T11:36:08.000Z</time>
      </trkpt>
      <trkpt lat="37.05628167" lon="-3.36914833">
        <ele>3299.0</ele>
        <time>2022-11-20T11:36:09.000Z</time>
      </trkpt>
      <trkpt lat="37.05627333" lon="-3.369145">
        <ele>3299.0</ele>
        <time>2022-11-20T11:36:10.000Z</time>
      </trkpt>
      <trkpt lat="37.056265" lon="-3.36914167">
        <ele>3299.0</ele>
        <time>2022-11-20T11:36:11.000Z</time>
      </trkpt>
      <trkpt lat="37.05625667" lon="-3.36914">
        <ele>3299.0</ele>
        <time>2022-11-20T11:36:12.000Z</time>
      </trkpt>
      <trkpt lat="37.05624667" lon="-3.36913833">
        <ele>3299.0</ele>
        <time>2022-11-20T11:36:13.000Z</time>
      </trkpt>
      <trkpt lat="37.05623833" lon="-3.369135">
        <ele>3300.0</ele>
        <time>2022-11-20T11:36:14.000Z</time>
      </trkpt>
      <trkpt lat="37.05623" lon="-3.36913167">
        <ele>3300.0</ele>
        <time>2022-11-20T11:36:15.000Z</time>
      </trkpt>
      <trkpt lat="37.056225" lon="-3.36912667">
        <ele>3300.0</ele>
        <time>2022-11-20T11:36:16.000Z</time>
      </trkpt>
      <trkpt lat="37.05622333" lon="-3.36912667">
        <ele>3300.0</ele>
        <time>2022-11-20T11:36:17.000Z</time>
      </trkpt>
      <trkpt lat="37.05622333" lon="-3.369125">
        <ele>3300.0</ele>
        <time>2022-11-20T11:36:18.000Z</time>
      </trkpt>
      <trkpt lat="37.05622333" lon="-3.36912333">
        <ele>3301.0</ele>
        <time>2022-11-20T11:36:19.000Z</time>
      </trkpt>
      <trkpt lat="37.05622167" lon="-3.36912333">
        <ele>3301.0</ele>
        <time>2022-11-20T11:36:20.000Z</time>
      </trkpt>
      <trkpt lat="37.05622167" lon="-3.36912167">
        <ele>3301.0</ele>
        <time>2022-11-20T11:36:21.000Z</time>
      </trkpt>
      <trkpt lat="37.05622167" lon="-3.36912">
        <ele>3301.0</ele>
        <time>2022-11-20T11:36:22.000Z</time>
      </trkpt>
      <trkpt lat="37.05622167" lon="-3.36912">
        <ele>3301.0</ele>
        <time>2022-11-20T11:36:23.000Z</time>
      </trkpt>
      <trkpt lat="37.05622167" lon="-3.36912">
        <ele>3301.0</ele>
        <time>2022-11-20T11:36:24.000Z</time>
      </trkpt>
      <trkpt lat="37.05622333" lon="-3.36912167">
        <ele>3301.0</ele>
        <time>2022-11-20T11:36:25.000Z</time>
      </trkpt>
      <trkpt lat="37.05622333" lon="-3.36912167">
        <ele>3301.0</ele>
        <time>2022-11-20T11:36:26.000Z</time>
      </trkpt>
      <trkpt lat="37.05622333" lon="-3.36912333">
        <ele>3301.0</ele>
        <time>2022-11-20T11:36:27.000Z</time>
      </trkpt>
      <trkpt lat="37.05622333" lon="-3.36912333">
        <ele>3300.0</ele>
        <time>2022-11-20T11:36:28.000Z</time>
      </trkpt>
      <trkpt lat="37.05622333" lon="-3.36912333">
        <ele>3300.0</ele>
        <time>2022-11-20T11:36:29.000Z</time>
      </trkpt>
      <trkpt lat="37.05622333" lon="-3.36912333">
        <ele>3300.0</ele>
        <time>2022-11-20T11:36:30.000Z</time>
      </trkpt>
      <trkpt lat="37.05622333" lon="-3.36912333">
        <ele>3300.0</ele>
        <time>2022-11-20T11:36:31.000Z</time>
      </trkpt>
      <trkpt lat="37.05622333" lon="-3.36912333">
        <ele>3300.0</ele>
        <time>2022-11-20T11:36:32.000Z</time>
      </trkpt>
      <trkpt lat="37.05622333" lon="-3.36912333">
        <ele>3300.0</ele>
        <time>2022-11-20T11:36:33.000Z</time>
      </trkpt>
      <trkpt lat="37.05622333" lon="-3.36912333">
        <ele>3300.0</ele>
        <time>2022-11-20T11:36:34.000Z</time>
      </trkpt>
      <trkpt lat="37.056225" lon="-3.36912333">
        <ele>3300.0</ele>
        <time>2022-11-20T11:36:35.000Z</time>
      </trkpt>
      <trkpt lat="37.056225" lon="-3.36912333">
        <ele>3300.0</ele>
        <time>2022-11-20T11:36:36.000Z</time>
      </trkpt>
      <trkpt lat="37.056225" lon="-3.36912333">
        <ele>3300.0</ele>
        <time>2022-11-20T11:36:37.000Z</time>
      </trkpt>
      <trkpt lat="37.05622667" lon="-3.36912333">
        <ele>3300.0</ele>
        <time>2022-11-20T11:36:38.000Z</time>
      </trkpt>
      <trkpt lat="37.05622667" lon="-3.36912333">
        <ele>3300.0</ele>
        <time>2022-11-20T11:36:39.000Z</time>
      </trkpt>
      <trkpt lat="37.05622667" lon="-3.36912333">
        <ele>3300.0</ele>
        <time>2022-11-20T11:36:40.000Z</time>
      </trkpt>
      <trkpt lat="37.05622833" lon="-3.369125">
        <ele>3300.0</ele>
        <time>2022-11-20T11:36:41.000Z</time>
      </trkpt>
      <trkpt lat="37.05622833" lon="-3.36912333">
        <ele>3300.0</ele>
        <time>2022-11-20T11:36:42.000Z</time>
      </trkpt>
      <trkpt lat="37.05622667" lon="-3.36912333">
        <ele>3300.0</ele>
        <time>2022-11-20T11:36:43.000Z</time>
      </trkpt>
      <trkpt lat="37.05622667" lon="-3.36912333">
        <ele>3300.0</ele>
        <time>2022-11-20T11:36:44.000Z</time>
      </trkpt>
      <trkpt lat="37.05622667" lon="-3.36912333">
        <ele>3300.0</ele>
        <time>2022-11-20T11:36:45.000Z</time>
      </trkpt>
      <trkpt lat="37.05622667" lon="-3.36912333">
        <ele>3300.0</ele>
        <time>2022-11-20T11:36:46.000Z</time>
      </trkpt>
      <trkpt lat="37.05622667" lon="-3.36912333">
        <ele>3300.0</ele>
        <time>2022-11-20T11:36:47.000Z</time>
      </trkpt>
      <trkpt lat="37.05622667" lon="-3.36912333">
        <ele>3300.0</ele>
        <time>2022-11-20T11:36:48.000Z</time>
      </trkpt>
      <trkpt lat="37.05622667" lon="-3.36912333">
        <ele>3300.0</ele>
        <time>2022-11-20T11:36:49.000Z</time>
      </trkpt>
      <trkpt lat="37.05622667" lon="-3.36912333">
        <ele>3300.0</ele>
        <time>2022-11-20T11:36:50.000Z</time>
      </trkpt>
      <trkpt lat="37.05622667" lon="-3.369125">
        <ele>3300.0</ele>
        <time>2022-11-20T11:36:51.000Z</time>
      </trkpt>
      <trkpt lat="37.05622667" lon="-3.369125">
        <ele>3300.0</ele>
        <time>2022-11-20T11:36:52.000Z</time>
      </trkpt>
      <trkpt lat="37.05622667" lon="-3.369125">
        <ele>3300.0</ele>
        <time>2022-11-20T11:36:53.000Z</time>
      </trkpt>
      <trkpt lat="37.05622667" lon="-3.369125">
        <ele>3300.0</ele>
        <time>2022-11-20T11:36:54.000Z</time>
      </trkpt>
      <trkpt lat="37.05622667" lon="-3.369125">
        <ele>3300.0</ele>
        <time>2022-11-20T11:36:55.000Z</time>
      </trkpt>
      <trkpt lat="37.05622667" lon="-3.369125">
        <ele>3300.0</ele>
        <time>2022-11-20T11:36:56.000Z</time>
      </trkpt>
      <trkpt lat="37.05622333" lon="-3.36912167">
        <ele>3300.0</ele>
        <time>2022-11-20T11:36:57.000Z</time>
      </trkpt>
      <trkpt lat="37.05622167" lon="-3.36911833">
        <ele>3300.0</ele>
        <time>2022-11-20T11:36:58.000Z</time>
      </trkpt>
      <trkpt lat="37.056225" lon="-3.36911167">
        <ele>3300.0</ele>
        <time>2022-11-20T11:36:59.000Z</time>
      </trkpt>
      <trkpt lat="37.05622833" lon="-3.369105">
        <ele>3300.0</ele>
        <time>2022-11-20T11:37:00.000Z</time>
      </trkpt>
      <trkpt lat="37.056235" lon="-3.36909833">
        <ele>3300.0</ele>
        <time>2022-11-20T11:37:01.000Z</time>
      </trkpt>
      <trkpt lat="37.056245" lon="-3.36909333">
        <ele>3301.0</ele>
        <time>2022-11-20T11:37:02.000Z</time>
      </trkpt>
      <trkpt lat="37.05625667" lon="-3.36909167">
        <ele>3301.0</ele>
        <time>2022-11-20T11:37:03.000Z</time>
      </trkpt>
      <trkpt lat="37.05626833" lon="-3.36909167">
        <ele>3301.0</ele>
        <time>2022-11-20T11:37:04.000Z</time>
      </trkpt>
      <trkpt lat="37.05628" lon="-3.36909">
        <ele>3301.0</ele>
        <time>2022-11-20T11:37:05.000Z</time>
      </trkpt>
      <trkpt lat="37.05628833" lon="-3.36909">
        <ele>3301.0</ele>
        <time>2022-11-20T11:37:06.000Z</time>
      </trkpt>
      <trkpt lat="37.05629833" lon="-3.36908833">
        <ele>3301.0</ele>
        <time>2022-11-20T11:37:07.000Z</time>
      </trkpt>
      <trkpt lat="37.05631" lon="-3.36908667">
        <ele>3301.0</ele>
        <time>2022-11-20T11:37:08.000Z</time>
      </trkpt>
      <trkpt lat="37.05631833" lon="-3.36908333">
        <ele>3301.0</ele>
        <time>2022-11-20T11:37:09.000Z</time>
      </trkpt>
      <trkpt lat="37.05632833" lon="-3.36908">
        <ele>3301.0</ele>
        <time>2022-11-20T11:37:10.000Z</time>
      </trkpt>
      <trkpt lat="37.05633833" lon="-3.369075">
        <ele>3301.0</ele>
        <time>2022-11-20T11:37:11.000Z</time>
      </trkpt>
      <trkpt lat="37.05635" lon="-3.36907">
        <ele>3302.0</ele>
        <time>2022-11-20T11:37:12.000Z</time>
      </trkpt>
      <trkpt lat="37.05636167" lon="-3.36906667">
        <ele>3302.0</ele>
        <time>2022-11-20T11:37:13.000Z</time>
      </trkpt>
      <trkpt lat="37.05637167" lon="-3.369065">
        <ele>3302.0</ele>
        <time>2022-11-20T11:37:14.000Z</time>
      </trkpt>
      <trkpt lat="37.05638333" lon="-3.36906">
        <ele>3302.0</ele>
        <time>2022-11-20T11:37:15.000Z</time>
      </trkpt>
      <trkpt lat="37.05639333" lon="-3.369055">
        <ele>3302.0</ele>
        <time>2022-11-20T11:37:16.000Z</time>
      </trkpt>
      <trkpt lat="37.05640333" lon="-3.36904833">
        <ele>3302.0</ele>
        <time>2022-11-20T11:37:17.000Z</time>
      </trkpt>
      <trkpt lat="37.05641167" lon="-3.36904167">
        <ele>3302.0</ele>
        <time>2022-11-20T11:37:18.000Z</time>
      </trkpt>
      <trkpt lat="37.05642167" lon="-3.369035">
        <ele>3302.0</ele>
        <time>2022-11-20T11:37:19.000Z</time>
      </trkpt>
      <trkpt lat="37.05643333" lon="-3.36903167">
        <ele>3302.0</ele>
        <time>2022-11-20T11:37:20.000Z</time>
      </trkpt>
      <trkpt lat="37.056445" lon="-3.36902667">
        <ele>3302.0</ele>
        <time>2022-11-20T11:37:21.000Z</time>
      </trkpt>
      <trkpt lat="37.05645667" lon="-3.36902167">
        <ele>3302.0</ele>
        <time>2022-11-20T11:37:22.000Z</time>
      </trkpt>
      <trkpt lat="37.05646667" lon="-3.36901667">
        <ele>3302.0</ele>
        <time>2022-11-20T11:37:23.000Z</time>
      </trkpt>
      <trkpt lat="37.05647833" lon="-3.36901">
        <ele>3302.0</ele>
        <time>2022-11-20T11:37:24.000Z</time>
      </trkpt>
      <trkpt lat="37.05648833" lon="-3.369005">
        <ele>3303.0</ele>
        <time>2022-11-20T11:37:25.000Z</time>
      </trkpt>
      <trkpt lat="37.05649833" lon="-3.36899667">
        <ele>3303.0</ele>
        <time>2022-11-20T11:37:26.000Z</time>
      </trkpt>
      <trkpt lat="37.05650667" lon="-3.36899167">
        <ele>3303.0</ele>
        <time>2022-11-20T11:37:27.000Z</time>
      </trkpt>
      <trkpt lat="37.05651833" lon="-3.368985">
        <ele>3303.0</ele>
        <time>2022-11-20T11:37:28.000Z</time>
      </trkpt>
      <trkpt lat="37.05652833" lon="-3.36898">
        <ele>3303.0</ele>
        <time>2022-11-20T11:37:29.000Z</time>
      </trkpt>
      <trkpt lat="37.05653833" lon="-3.36897167">
        <ele>3303.0</ele>
        <time>2022-11-20T11:37:30.000Z</time>
      </trkpt>
      <trkpt lat="37.05655" lon="-3.368965">
        <ele>3303.0</ele>
        <time>2022-11-20T11:37:31.000Z</time>
      </trkpt>
      <trkpt lat="37.05655833" lon="-3.36896">
        <ele>3303.0</ele>
        <time>2022-11-20T11:37:32.000Z</time>
      </trkpt>
      <trkpt lat="37.05656833" lon="-3.368955">
        <ele>3303.0</ele>
        <time>2022-11-20T11:37:33.000Z</time>
      </trkpt>
      <trkpt lat="37.05658" lon="-3.36895">
        <ele>3303.0</ele>
        <time>2022-11-20T11:37:34.000Z</time>
      </trkpt>
      <trkpt lat="37.05659" lon="-3.36894333">
        <ele>3304.0</ele>
        <time>2022-11-20T11:37:35.000Z</time>
      </trkpt>
      <trkpt lat="37.0566" lon="-3.368935">
        <ele>3304.0</ele>
        <time>2022-11-20T11:37:36.000Z</time>
      </trkpt>
      <trkpt lat="37.05661" lon="-3.36892667">
        <ele>3304.0</ele>
        <time>2022-11-20T11:37:37.000Z</time>
      </trkpt>
      <trkpt lat="37.05662" lon="-3.36892">
        <ele>3304.0</ele>
        <time>2022-11-20T11:37:38.000Z</time>
      </trkpt>
      <trkpt lat="37.05663167" lon="-3.36891167">
        <ele>3304.0</ele>
        <time>2022-11-20T11:37:39.000Z</time>
      </trkpt>
      <trkpt lat="37.05664" lon="-3.36890333">
        <ele>3304.0</ele>
        <time>2022-11-20T11:37:40.000Z</time>
      </trkpt>
      <trkpt lat="37.05665167" lon="-3.368895">
        <ele>3304.0</ele>
        <time>2022-11-20T11:37:41.000Z</time>
      </trkpt>
      <trkpt lat="37.05666167" lon="-3.36888667">
        <ele>3304.0</ele>
        <time>2022-11-20T11:37:42.000Z</time>
      </trkpt>
      <trkpt lat="37.05667167" lon="-3.36887833">
        <ele>3304.0</ele>
        <time>2022-11-20T11:37:43.000Z</time>
      </trkpt>
      <trkpt lat="37.05668" lon="-3.36887">
        <ele>3304.0</ele>
        <time>2022-11-20T11:37:44.000Z</time>
      </trkpt>
      <trkpt lat="37.05669" lon="-3.36886167">
        <ele>3304.0</ele>
        <time>2022-11-20T11:37:45.000Z</time>
      </trkpt>
      <trkpt lat="37.05669667" lon="-3.36885167">
        <ele>3304.0</ele>
        <time>2022-11-20T11:37:46.000Z</time>
      </trkpt>
      <trkpt lat="37.05670333" lon="-3.36884333">
        <ele>3305.0</ele>
        <time>2022-11-20T11:37:47.000Z</time>
      </trkpt>
      <trkpt lat="37.05671167" lon="-3.368835">
        <ele>3305.0</ele>
        <time>2022-11-20T11:37:48.000Z</time>
      </trkpt>
      <trkpt lat="37.05672167" lon="-3.36883">
        <ele>3305.0</ele>
        <time>2022-11-20T11:37:49.000Z</time>
      </trkpt>
      <trkpt lat="37.05673" lon="-3.36882333">
        <ele>3305.0</ele>
        <time>2022-11-20T11:37:50.000Z</time>
      </trkpt>
      <trkpt lat="37.05674" lon="-3.36881667">
        <ele>3305.0</ele>
        <time>2022-11-20T11:37:51.000Z</time>
      </trkpt>
      <trkpt lat="37.05675167" lon="-3.36881">
        <ele>3305.0</ele>
        <time>2022-11-20T11:37:52.000Z</time>
      </trkpt>
      <trkpt lat="37.05676" lon="-3.368805">
        <ele>3305.0</ele>
        <time>2022-11-20T11:37:53.000Z</time>
      </trkpt>
      <trkpt lat="37.05676667" lon="-3.36879833">
        <ele>3305.0</ele>
        <time>2022-11-20T11:37:54.000Z</time>
      </trkpt>
      <trkpt lat="37.05677" lon="-3.36879167">
        <ele>3305.0</ele>
        <time>2022-11-20T11:37:55.000Z</time>
      </trkpt>
      <trkpt lat="37.05677333" lon="-3.36878">
        <ele>3305.0</ele>
        <time>2022-11-20T11:37:56.000Z</time>
      </trkpt>
      <trkpt lat="37.05677667" lon="-3.36877">
        <ele>3305.0</ele>
        <time>2022-11-20T11:37:57.000Z</time>
      </trkpt>
      <trkpt lat="37.05677667" lon="-3.36875833">
        <ele>3306.0</ele>
        <time>2022-11-20T11:37:58.000Z</time>
      </trkpt>
      <trkpt lat="37.05677667" lon="-3.36875167">
        <ele>3306.0</ele>
        <time>2022-11-20T11:37:59.000Z</time>
      </trkpt>
      <trkpt lat="37.056775" lon="-3.368745">
        <ele>3306.0</ele>
        <time>2022-11-20T11:38:00.000Z</time>
      </trkpt>
      <trkpt lat="37.05677167" lon="-3.36874">
        <ele>3306.0</ele>
        <time>2022-11-20T11:38:01.000Z</time>
      </trkpt>
      <trkpt lat="37.05676667" lon="-3.36873167">
        <ele>3306.0</ele>
        <time>2022-11-20T11:38:02.000Z</time>
      </trkpt>
      <trkpt lat="37.05675833" lon="-3.368725">
        <ele>3306.0</ele>
        <time>2022-11-20T11:38:03.000Z</time>
      </trkpt>
      <trkpt lat="37.05675" lon="-3.36871833">
        <ele>3306.0</ele>
        <time>2022-11-20T11:38:04.000Z</time>
      </trkpt>
      <trkpt lat="37.05674167" lon="-3.36871333">
        <ele>3307.0</ele>
        <time>2022-11-20T11:38:05.000Z</time>
      </trkpt>
      <trkpt lat="37.05673167" lon="-3.36871">
        <ele>3307.0</ele>
        <time>2022-11-20T11:38:06.000Z</time>
      </trkpt>
      <trkpt lat="37.05672333" lon="-3.36870833">
        <ele>3307.0</ele>
        <time>2022-11-20T11:38:07.000Z</time>
      </trkpt>
      <trkpt lat="37.05671" lon="-3.368705">
        <ele>3307.0</ele>
        <time>2022-11-20T11:38:08.000Z</time>
      </trkpt>
      <trkpt lat="37.0567" lon="-3.36870333">
        <ele>3307.0</ele>
        <time>2022-11-20T11:38:09.000Z</time>
      </trkpt>
      <trkpt lat="37.05668833" lon="-3.36870167">
        <ele>3307.0</ele>
        <time>2022-11-20T11:38:10.000Z</time>
      </trkpt>
      <trkpt lat="37.05667833" lon="-3.36870167">
        <ele>3307.0</ele>
        <time>2022-11-20T11:38:11.000Z</time>
      </trkpt>
      <trkpt lat="37.05666833" lon="-3.36870333">
        <ele>3307.0</ele>
        <time>2022-11-20T11:38:12.000Z</time>
      </trkpt>
      <trkpt lat="37.05665833" lon="-3.36870333">
        <ele>3307.0</ele>
        <time>2022-11-20T11:38:13.000Z</time>
      </trkpt>
      <trkpt lat="37.05664833" lon="-3.368705">
        <ele>3308.0</ele>
        <time>2022-11-20T11:38:14.000Z</time>
      </trkpt>
      <trkpt lat="37.05663833" lon="-3.36870667">
        <ele>3308.0</ele>
        <time>2022-11-20T11:38:15.000Z</time>
      </trkpt>
      <trkpt lat="37.056625" lon="-3.36871">
        <ele>3308.0</ele>
        <time>2022-11-20T11:38:16.000Z</time>
      </trkpt>
      <trkpt lat="37.056615" lon="-3.36871">
        <ele>3308.0</ele>
        <time>2022-11-20T11:38:17.000Z</time>
      </trkpt>
      <trkpt lat="37.05660333" lon="-3.36870833">
        <ele>3308.0</ele>
        <time>2022-11-20T11:38:18.000Z</time>
      </trkpt>
      <trkpt lat="37.05659333" lon="-3.36870667">
        <ele>3308.0</ele>
        <time>2022-11-20T11:38:19.000Z</time>
      </trkpt>
      <trkpt lat="37.05658333" lon="-3.36870667">
        <ele>3308.0</ele>
        <time>2022-11-20T11:38:20.000Z</time>
      </trkpt>
      <trkpt lat="37.05657333" lon="-3.36870667">
        <ele>3308.0</ele>
        <time>2022-11-20T11:38:21.000Z</time>
      </trkpt>
      <trkpt lat="37.05656333" lon="-3.368705">
        <ele>3308.0</ele>
        <time>2022-11-20T11:38:22.000Z</time>
      </trkpt>
      <trkpt lat="37.05655333" lon="-3.36870333">
        <ele>3308.0</ele>
        <time>2022-11-20T11:38:23.000Z</time>
      </trkpt>
      <trkpt lat="37.056545" lon="-3.36870167">
        <ele>3309.0</ele>
        <time>2022-11-20T11:38:24.000Z</time>
      </trkpt>
      <trkpt lat="37.05653667" lon="-3.36869667">
        <ele>3309.0</ele>
        <time>2022-11-20T11:38:25.000Z</time>
      </trkpt>
      <trkpt lat="37.05653167" lon="-3.36869333">
        <ele>3309.0</ele>
        <time>2022-11-20T11:38:26.000Z</time>
      </trkpt>
      <trkpt lat="37.056525" lon="-3.368695">
        <ele>3309.0</ele>
        <time>2022-11-20T11:38:27.000Z</time>
      </trkpt>
      <trkpt lat="37.05651667" lon="-3.36869667">
        <ele>3309.0</ele>
        <time>2022-11-20T11:38:28.000Z</time>
      </trkpt>
      <trkpt lat="37.05651" lon="-3.36870167">
        <ele>3309.0</ele>
        <time>2022-11-20T11:38:29.000Z</time>
      </trkpt>
      <trkpt lat="37.05650167" lon="-3.36870667">
        <ele>3309.0</ele>
        <time>2022-11-20T11:38:30.000Z</time>
      </trkpt>
      <trkpt lat="37.05649167" lon="-3.368715">
        <ele>3309.0</ele>
        <time>2022-11-20T11:38:31.000Z</time>
      </trkpt>
      <trkpt lat="37.05648333" lon="-3.36872333">
        <ele>3309.0</ele>
        <time>2022-11-20T11:38:32.000Z</time>
      </trkpt>
      <trkpt lat="37.056475" lon="-3.36873167">
        <ele>3309.0</ele>
        <time>2022-11-20T11:38:33.000Z</time>
      </trkpt>
      <trkpt lat="37.05646667" lon="-3.36873667">
        <ele>3309.0</ele>
        <time>2022-11-20T11:38:34.000Z</time>
      </trkpt>
      <trkpt lat="37.05645333" lon="-3.36874">
        <ele>3309.0</ele>
        <time>2022-11-20T11:38:35.000Z</time>
      </trkpt>
      <trkpt lat="37.05644167" lon="-3.36874167">
        <ele>3309.0</ele>
        <time>2022-11-20T11:38:36.000Z</time>
      </trkpt>
      <trkpt lat="37.05643" lon="-3.36874333">
        <ele>3309.0</ele>
        <time>2022-11-20T11:38:37.000Z</time>
      </trkpt>
      <trkpt lat="37.05641833" lon="-3.36874333">
        <ele>3309.0</ele>
        <time>2022-11-20T11:38:38.000Z</time>
      </trkpt>
      <trkpt lat="37.05640667" lon="-3.36874333">
        <ele>3310.0</ele>
        <time>2022-11-20T11:38:39.000Z</time>
      </trkpt>
      <trkpt lat="37.056395" lon="-3.368745">
        <ele>3310.0</ele>
        <time>2022-11-20T11:38:40.000Z</time>
      </trkpt>
      <trkpt lat="37.05638667" lon="-3.368745">
        <ele>3310.0</ele>
        <time>2022-11-20T11:38:41.000Z</time>
      </trkpt>
      <trkpt lat="37.05637667" lon="-3.36874833">
        <ele>3310.0</ele>
        <time>2022-11-20T11:38:42.000Z</time>
      </trkpt>
      <trkpt lat="37.05636667" lon="-3.36875167">
        <ele>3310.0</ele>
        <time>2022-11-20T11:38:43.000Z</time>
      </trkpt>
      <trkpt lat="37.05635667" lon="-3.36875167">
        <ele>3310.0</ele>
        <time>2022-11-20T11:38:44.000Z</time>
      </trkpt>
      <trkpt lat="37.056345" lon="-3.36875333">
        <ele>3310.0</ele>
        <time>2022-11-20T11:38:45.000Z</time>
      </trkpt>
      <trkpt lat="37.05633333" lon="-3.36875333">
        <ele>3310.0</ele>
        <time>2022-11-20T11:38:46.000Z</time>
      </trkpt>
      <trkpt lat="37.05632167" lon="-3.368755">
        <ele>3310.0</ele>
        <time>2022-11-20T11:38:47.000Z</time>
      </trkpt>
      <trkpt lat="37.05630833" lon="-3.368755">
        <ele>3310.0</ele>
        <time>2022-11-20T11:38:48.000Z</time>
      </trkpt>
      <trkpt lat="37.05629833" lon="-3.368755">
        <ele>3310.0</ele>
        <time>2022-11-20T11:38:49.000Z</time>
      </trkpt>
      <trkpt lat="37.05628667" lon="-3.368755">
        <ele>3310.0</ele>
        <time>2022-11-20T11:38:50.000Z</time>
      </trkpt>
      <trkpt lat="37.056275" lon="-3.36875333">
        <ele>3310.0</ele>
        <time>2022-11-20T11:38:51.000Z</time>
      </trkpt>
      <trkpt lat="37.056265" lon="-3.36875333">
        <ele>3310.0</ele>
        <time>2022-11-20T11:38:52.000Z</time>
      </trkpt>
      <trkpt lat="37.05625167" lon="-3.36875167">
        <ele>3310.0</ele>
        <time>2022-11-20T11:38:53.000Z</time>
      </trkpt>
      <trkpt lat="37.05624167" lon="-3.36875">
        <ele>3310.0</ele>
        <time>2022-11-20T11:38:54.000Z</time>
      </trkpt>
      <trkpt lat="37.05623" lon="-3.36874667">
        <ele>3311.0</ele>
        <time>2022-11-20T11:38:55.000Z</time>
      </trkpt>
      <trkpt lat="37.05622" lon="-3.368745">
        <ele>3311.0</ele>
        <time>2022-11-20T11:38:56.000Z</time>
      </trkpt>
      <trkpt lat="37.05620833" lon="-3.36874333">
        <ele>3311.0</ele>
        <time>2022-11-20T11:38:57.000Z</time>
      </trkpt>
      <trkpt lat="37.056195" lon="-3.36874167">
        <ele>3311.0</ele>
        <time>2022-11-20T11:38:58.000Z</time>
      </trkpt>
      <trkpt lat="37.056185" lon="-3.36874">
        <ele>3311.0</ele>
        <time>2022-11-20T11:38:59.000Z</time>
      </trkpt>
      <trkpt lat="37.05617333" lon="-3.36873667">
        <ele>3311.0</ele>
        <time>2022-11-20T11:39:00.000Z</time>
      </trkpt>
      <trkpt lat="37.05616167" lon="-3.368735">
        <ele>3311.0</ele>
        <time>2022-11-20T11:39:01.000Z</time>
      </trkpt>
      <trkpt lat="37.05615" lon="-3.36873167">
        <ele>3311.0</ele>
        <time>2022-11-20T11:39:02.000Z</time>
      </trkpt>
      <trkpt lat="37.05614" lon="-3.36873">
        <ele>3311.0</ele>
        <time>2022-11-20T11:39:03.000Z</time>
      </trkpt>
      <trkpt lat="37.05612833" lon="-3.36872667">
        <ele>3311.0</ele>
        <time>2022-11-20T11:39:04.000Z</time>
      </trkpt>
      <trkpt lat="37.05611667" lon="-3.368725">
        <ele>3311.0</ele>
        <time>2022-11-20T11:39:05.000Z</time>
      </trkpt>
      <trkpt lat="37.056105" lon="-3.36872167">
        <ele>3312.0</ele>
        <time>2022-11-20T11:39:06.000Z</time>
      </trkpt>
      <trkpt lat="37.05609333" lon="-3.36871667">
        <ele>3312.0</ele>
        <time>2022-11-20T11:39:07.000Z</time>
      </trkpt>
      <trkpt lat="37.05608167" lon="-3.36871167">
        <ele>3312.0</ele>
        <time>2022-11-20T11:39:08.000Z</time>
      </trkpt>
      <trkpt lat="37.05607" lon="-3.36870667">
        <ele>3312.0</ele>
        <time>2022-11-20T11:39:09.000Z</time>
      </trkpt>
      <trkpt lat="37.05605833" lon="-3.368705">
        <ele>3312.0</ele>
        <time>2022-11-20T11:39:10.000Z</time>
      </trkpt>
      <trkpt lat="37.05604667" lon="-3.36869833">
        <ele>3312.0</ele>
        <time>2022-11-20T11:39:11.000Z</time>
      </trkpt>
      <trkpt lat="37.05603833" lon="-3.36869333">
        <ele>3312.0</ele>
        <time>2022-11-20T11:39:12.000Z</time>
      </trkpt>
      <trkpt lat="37.05602833" lon="-3.36868667">
        <ele>3312.0</ele>
        <time>2022-11-20T11:39:13.000Z</time>
      </trkpt>
      <trkpt lat="37.05601833" lon="-3.36868">
        <ele>3312.0</ele>
        <time>2022-11-20T11:39:14.000Z</time>
      </trkpt>
      <trkpt lat="37.05600833" lon="-3.368675">
        <ele>3313.0</ele>
        <time>2022-11-20T11:39:15.000Z</time>
      </trkpt>
      <trkpt lat="37.05599667" lon="-3.36867167">
        <ele>3313.0</ele>
        <time>2022-11-20T11:39:16.000Z</time>
      </trkpt>
      <trkpt lat="37.05598667" lon="-3.368665">
        <ele>3313.0</ele>
        <time>2022-11-20T11:39:17.000Z</time>
      </trkpt>
      <trkpt lat="37.05597667" lon="-3.36865833">
        <ele>3313.0</ele>
        <time>2022-11-20T11:39:18.000Z</time>
      </trkpt>
      <trkpt lat="37.055965" lon="-3.36865333">
        <ele>3313.0</ele>
        <time>2022-11-20T11:39:19.000Z</time>
      </trkpt>
      <trkpt lat="37.055955" lon="-3.36864667">
        <ele>3313.0</ele>
        <time>2022-11-20T11:39:20.000Z</time>
      </trkpt>
      <trkpt lat="37.055945" lon="-3.36864">
        <ele>3313.0</ele>
        <time>2022-11-20T11:39:21.000Z</time>
      </trkpt>
      <trkpt lat="37.055935" lon="-3.368635">
        <ele>3314.0</ele>
        <time>2022-11-20T11:39:22.000Z</time>
      </trkpt>
      <trkpt lat="37.055925" lon="-3.36862667">
        <ele>3314.0</ele>
        <time>2022-11-20T11:39:23.000Z</time>
      </trkpt>
      <trkpt lat="37.05591333" lon="-3.36862">
        <ele>3314.0</ele>
        <time>2022-11-20T11:39:24.000Z</time>
      </trkpt>
      <trkpt lat="37.05590333" lon="-3.368615">
        <ele>3314.0</ele>
        <time>2022-11-20T11:39:25.000Z</time>
      </trkpt>
      <trkpt lat="37.05589167" lon="-3.36860833">
        <ele>3314.0</ele>
        <time>2022-11-20T11:39:26.000Z</time>
      </trkpt>
      <trkpt lat="37.05588167" lon="-3.36860167">
        <ele>3314.0</ele>
        <time>2022-11-20T11:39:27.000Z</time>
      </trkpt>
      <trkpt lat="37.05587167" lon="-3.36859333">
        <ele>3314.0</ele>
        <time>2022-11-20T11:39:28.000Z</time>
      </trkpt>
      <trkpt lat="37.05586167" lon="-3.368585">
        <ele>3314.0</ele>
        <time>2022-11-20T11:39:29.000Z</time>
      </trkpt>
      <trkpt lat="37.05585167" lon="-3.36857667">
        <ele>3314.0</ele>
        <time>2022-11-20T11:39:30.000Z</time>
      </trkpt>
      <trkpt lat="37.05584" lon="-3.36856833">
        <ele>3314.0</ele>
        <time>2022-11-20T11:39:31.000Z</time>
      </trkpt>
      <trkpt lat="37.05583" lon="-3.36856167">
        <ele>3314.0</ele>
        <time>2022-11-20T11:39:32.000Z</time>
      </trkpt>
      <trkpt lat="37.05582" lon="-3.368555">
        <ele>3315.0</ele>
        <time>2022-11-20T11:39:33.000Z</time>
      </trkpt>
      <trkpt lat="37.05580833" lon="-3.36854833">
        <ele>3315.0</ele>
        <time>2022-11-20T11:39:34.000Z</time>
      </trkpt>
      <trkpt lat="37.05579833" lon="-3.36854">
        <ele>3315.0</ele>
        <time>2022-11-20T11:39:35.000Z</time>
      </trkpt>
      <trkpt lat="37.05578667" lon="-3.36853333">
        <ele>3315.0</ele>
        <time>2022-11-20T11:39:36.000Z</time>
      </trkpt>
      <trkpt lat="37.05577667" lon="-3.368525">
        <ele>3315.0</ele>
        <time>2022-11-20T11:39:37.000Z</time>
      </trkpt>
      <trkpt lat="37.05576667" lon="-3.368515">
        <ele>3315.0</ele>
        <time>2022-11-20T11:39:38.000Z</time>
      </trkpt>
      <trkpt lat="37.05575667" lon="-3.36850667">
        <ele>3315.0</ele>
        <time>2022-11-20T11:39:39.000Z</time>
      </trkpt>
      <trkpt lat="37.05574667" lon="-3.36849833">
        <ele>3315.0</ele>
        <time>2022-11-20T11:39:40.000Z</time>
      </trkpt>
      <trkpt lat="37.05573667" lon="-3.36849">
        <ele>3315.0</ele>
        <time>2022-11-20T11:39:41.000Z</time>
      </trkpt>
      <trkpt lat="37.05572667" lon="-3.36848167">
        <ele>3315.0</ele>
        <time>2022-11-20T11:39:42.000Z</time>
      </trkpt>
      <trkpt lat="37.05571667" lon="-3.36847333">
        <ele>3315.0</ele>
        <time>2022-11-20T11:39:43.000Z</time>
      </trkpt>
      <trkpt lat="37.05570833" lon="-3.36846167">
        <ele>3316.0</ele>
        <time>2022-11-20T11:39:44.000Z</time>
      </trkpt>
      <trkpt lat="37.0557" lon="-3.36845167">
        <ele>3316.0</ele>
        <time>2022-11-20T11:39:45.000Z</time>
      </trkpt>
      <trkpt lat="37.05569167" lon="-3.36844167">
        <ele>3316.0</ele>
        <time>2022-11-20T11:39:46.000Z</time>
      </trkpt>
      <trkpt lat="37.05568167" lon="-3.36843333">
        <ele>3316.0</ele>
        <time>2022-11-20T11:39:47.000Z</time>
      </trkpt>
      <trkpt lat="37.05567167" lon="-3.368425">
        <ele>3316.0</ele>
        <time>2022-11-20T11:39:48.000Z</time>
      </trkpt>
      <trkpt lat="37.05566167" lon="-3.36841833">
        <ele>3316.0</ele>
        <time>2022-11-20T11:39:49.000Z</time>
      </trkpt>
      <trkpt lat="37.05565" lon="-3.36841">
        <ele>3316.0</ele>
        <time>2022-11-20T11:39:50.000Z</time>
      </trkpt>
      <trkpt lat="37.05564" lon="-3.36840167">
        <ele>3316.0</ele>
        <time>2022-11-20T11:39:51.000Z</time>
      </trkpt>
      <trkpt lat="37.05563" lon="-3.368395">
        <ele>3317.0</ele>
        <time>2022-11-20T11:39:52.000Z</time>
      </trkpt>
      <trkpt lat="37.05562" lon="-3.368385">
        <ele>3317.0</ele>
        <time>2022-11-20T11:39:53.000Z</time>
      </trkpt>
      <trkpt lat="37.05561167" lon="-3.36837667">
        <ele>3317.0</ele>
        <time>2022-11-20T11:39:54.000Z</time>
      </trkpt>
      <trkpt lat="37.05560333" lon="-3.36836833">
        <ele>3317.0</ele>
        <time>2022-11-20T11:39:55.000Z</time>
      </trkpt>
      <trkpt lat="37.05559667" lon="-3.36835833">
        <ele>3317.0</ele>
        <time>2022-11-20T11:39:56.000Z</time>
      </trkpt>
      <trkpt lat="37.05558833" lon="-3.36835">
        <ele>3317.0</ele>
        <time>2022-11-20T11:39:57.000Z</time>
      </trkpt>
      <trkpt lat="37.05558" lon="-3.36834167">
        <ele>3317.0</ele>
        <time>2022-11-20T11:39:58.000Z</time>
      </trkpt>
      <trkpt lat="37.05557333" lon="-3.36833667">
        <ele>3318.0</ele>
        <time>2022-11-20T11:39:59.000Z</time>
      </trkpt>
      <trkpt lat="37.05556167" lon="-3.368325">
        <ele>3318.0</ele>
        <time>2022-11-20T11:40:00.000Z</time>
      </trkpt>
      <trkpt lat="37.055555" lon="-3.368315">
        <ele>3318.0</ele>
        <time>2022-11-20T11:40:01.000Z</time>
      </trkpt>
      <trkpt lat="37.05554667" lon="-3.36830333">
        <ele>3318.0</ele>
        <time>2022-11-20T11:40:02.000Z</time>
      </trkpt>
      <trkpt lat="37.05553833" lon="-3.368295">
        <ele>3318.0</ele>
        <time>2022-11-20T11:40:03.000Z</time>
      </trkpt>
      <trkpt lat="37.05552833" lon="-3.36828667">
        <ele>3318.0</ele>
        <time>2022-11-20T11:40:04.000Z</time>
      </trkpt>
      <trkpt lat="37.05552" lon="-3.36827667">
        <ele>3318.0</ele>
        <time>2022-11-20T11:40:05.000Z</time>
      </trkpt>
      <trkpt lat="37.05551167" lon="-3.36826667">
        <ele>3318.0</ele>
        <time>2022-11-20T11:40:06.000Z</time>
      </trkpt>
      <trkpt lat="37.05550167" lon="-3.36826">
        <ele>3318.0</ele>
        <time>2022-11-20T11:40:07.000Z</time>
      </trkpt>
      <trkpt lat="37.05549333" lon="-3.36825333">
        <ele>3319.0</ele>
        <time>2022-11-20T11:40:08.000Z</time>
      </trkpt>
      <trkpt lat="37.055485" lon="-3.368245">
        <ele>3319.0</ele>
        <time>2022-11-20T11:40:09.000Z</time>
      </trkpt>
      <trkpt lat="37.05547667" lon="-3.36823833">
        <ele>3319.0</ele>
        <time>2022-11-20T11:40:10.000Z</time>
      </trkpt>
      <trkpt lat="37.05546667" lon="-3.36823167">
        <ele>3319.0</ele>
        <time>2022-11-20T11:40:11.000Z</time>
      </trkpt>
      <trkpt lat="37.05545667" lon="-3.368225">
        <ele>3319.0</ele>
        <time>2022-11-20T11:40:12.000Z</time>
      </trkpt>
      <trkpt lat="37.05544667" lon="-3.36821833">
        <ele>3319.0</ele>
        <time>2022-11-20T11:40:13.000Z</time>
      </trkpt>
      <trkpt lat="37.05543667" lon="-3.36821167">
        <ele>3319.0</ele>
        <time>2022-11-20T11:40:14.000Z</time>
      </trkpt>
      <trkpt lat="37.05542667" lon="-3.368205">
        <ele>3319.0</ele>
        <time>2022-11-20T11:40:15.000Z</time>
      </trkpt>
      <trkpt lat="37.05541833" lon="-3.36819667">
        <ele>3319.0</ele>
        <time>2022-11-20T11:40:16.000Z</time>
      </trkpt>
      <trkpt lat="37.05540833" lon="-3.36819">
        <ele>3319.0</ele>
        <time>2022-11-20T11:40:17.000Z</time>
      </trkpt>
      <trkpt lat="37.05539833" lon="-3.36818333">
        <ele>3320.0</ele>
        <time>2022-11-20T11:40:18.000Z</time>
      </trkpt>
      <trkpt lat="37.05538833" lon="-3.36817833">
        <ele>3320.0</ele>
        <time>2022-11-20T11:40:19.000Z</time>
      </trkpt>
      <trkpt lat="37.05538" lon="-3.36816833">
        <ele>3320.0</ele>
        <time>2022-11-20T11:40:20.000Z</time>
      </trkpt>
      <trkpt lat="37.05537167" lon="-3.36816167">
        <ele>3320.0</ele>
        <time>2022-11-20T11:40:21.000Z</time>
      </trkpt>
      <trkpt lat="37.05536167" lon="-3.36815167">
        <ele>3320.0</ele>
        <time>2022-11-20T11:40:22.000Z</time>
      </trkpt>
      <trkpt lat="37.05535167" lon="-3.36814333">
        <ele>3320.0</ele>
        <time>2022-11-20T11:40:23.000Z</time>
      </trkpt>
      <trkpt lat="37.05534167" lon="-3.36813667">
        <ele>3320.0</ele>
        <time>2022-11-20T11:40:24.000Z</time>
      </trkpt>
      <trkpt lat="37.05533" lon="-3.36813167">
        <ele>3320.0</ele>
        <time>2022-11-20T11:40:25.000Z</time>
      </trkpt>
      <trkpt lat="37.05531833" lon="-3.36812833">
        <ele>3320.0</ele>
        <time>2022-11-20T11:40:26.000Z</time>
      </trkpt>
      <trkpt lat="37.05530833" lon="-3.36812333">
        <ele>3320.0</ele>
        <time>2022-11-20T11:40:27.000Z</time>
      </trkpt>
      <trkpt lat="37.05529833" lon="-3.36811667">
        <ele>3320.0</ele>
        <time>2022-11-20T11:40:28.000Z</time>
      </trkpt>
      <trkpt lat="37.05528833" lon="-3.36811">
        <ele>3320.0</ele>
        <time>2022-11-20T11:40:29.000Z</time>
      </trkpt>
      <trkpt lat="37.05527833" lon="-3.36810333">
        <ele>3320.0</ele>
        <time>2022-11-20T11:40:30.000Z</time>
      </trkpt>
      <trkpt lat="37.05526833" lon="-3.368095">
        <ele>3320.0</ele>
        <time>2022-11-20T11:40:31.000Z</time>
      </trkpt>
      <trkpt lat="37.05525833" lon="-3.36808833">
        <ele>3320.0</ele>
        <time>2022-11-20T11:40:32.000Z</time>
      </trkpt>
      <trkpt lat="37.05524833" lon="-3.36808">
        <ele>3321.0</ele>
        <time>2022-11-20T11:40:33.000Z</time>
      </trkpt>
      <trkpt lat="37.05523833" lon="-3.36807167">
        <ele>3321.0</ele>
        <time>2022-11-20T11:40:34.000Z</time>
      </trkpt>
      <trkpt lat="37.05522833" lon="-3.36806333">
        <ele>3321.0</ele>
        <time>2022-11-20T11:40:35.000Z</time>
      </trkpt>
      <trkpt lat="37.05521667" lon="-3.368055">
        <ele>3321.0</ele>
        <time>2022-11-20T11:40:36.000Z</time>
      </trkpt>
      <trkpt lat="37.05520667" lon="-3.36804833">
        <ele>3321.0</ele>
        <time>2022-11-20T11:40:37.000Z</time>
      </trkpt>
      <trkpt lat="37.05519667" lon="-3.36804">
        <ele>3321.0</ele>
        <time>2022-11-20T11:40:38.000Z</time>
      </trkpt>
      <trkpt lat="37.05518667" lon="-3.36803333">
        <ele>3321.0</ele>
        <time>2022-11-20T11:40:39.000Z</time>
      </trkpt>
      <trkpt lat="37.05517667" lon="-3.368025">
        <ele>3321.0</ele>
        <time>2022-11-20T11:40:40.000Z</time>
      </trkpt>
      <trkpt lat="37.05516833" lon="-3.36802">
        <ele>3321.0</ele>
        <time>2022-11-20T11:40:41.000Z</time>
      </trkpt>
      <trkpt lat="37.05515667" lon="-3.36800833">
        <ele>3321.0</ele>
        <time>2022-11-20T11:40:42.000Z</time>
      </trkpt>
      <trkpt lat="37.05514833" lon="-3.368">
        <ele>3322.0</ele>
        <time>2022-11-20T11:40:43.000Z</time>
      </trkpt>
      <trkpt lat="37.05513833" lon="-3.36799167">
        <ele>3322.0</ele>
        <time>2022-11-20T11:40:44.000Z</time>
      </trkpt>
      <trkpt lat="37.05513" lon="-3.36798333">
        <ele>3322.0</ele>
        <time>2022-11-20T11:40:45.000Z</time>
      </trkpt>
      <trkpt lat="37.05512" lon="-3.36797667">
        <ele>3322.0</ele>
        <time>2022-11-20T11:40:46.000Z</time>
      </trkpt>
      <trkpt lat="37.05511" lon="-3.36797">
        <ele>3322.0</ele>
        <time>2022-11-20T11:40:47.000Z</time>
      </trkpt>
      <trkpt lat="37.05510167" lon="-3.36796333">
        <ele>3322.0</ele>
        <time>2022-11-20T11:40:48.000Z</time>
      </trkpt>
      <trkpt lat="37.05509333" lon="-3.36795333">
        <ele>3322.0</ele>
        <time>2022-11-20T11:40:49.000Z</time>
      </trkpt>
      <trkpt lat="37.055085" lon="-3.36794667">
        <ele>3323.0</ele>
        <time>2022-11-20T11:40:50.000Z</time>
      </trkpt>
      <trkpt lat="37.055075" lon="-3.36793833">
        <ele>3323.0</ele>
        <time>2022-11-20T11:40:51.000Z</time>
      </trkpt>
      <trkpt lat="37.05506667" lon="-3.36793167">
        <ele>3323.0</ele>
        <time>2022-11-20T11:40:52.000Z</time>
      </trkpt>
      <trkpt lat="37.05505833" lon="-3.36792167">
        <ele>3323.0</ele>
        <time>2022-11-20T11:40:53.000Z</time>
      </trkpt>
      <trkpt lat="37.05505" lon="-3.36791333">
        <ele>3323.0</ele>
        <time>2022-11-20T11:40:54.000Z</time>
      </trkpt>
      <trkpt lat="37.05504" lon="-3.367905">
        <ele>3323.0</ele>
        <time>2022-11-20T11:40:55.000Z</time>
      </trkpt>
      <trkpt lat="37.05502833" lon="-3.36789667">
        <ele>3323.0</ele>
        <time>2022-11-20T11:40:56.000Z</time>
      </trkpt>
      <trkpt lat="37.05501833" lon="-3.36788667">
        <ele>3323.0</ele>
        <time>2022-11-20T11:40:57.000Z</time>
      </trkpt>
      <trkpt lat="37.05501" lon="-3.36787833">
        <ele>3323.0</ele>
        <time>2022-11-20T11:40:58.000Z</time>
      </trkpt>
      <trkpt lat="37.055" lon="-3.36787167">
        <ele>3323.0</ele>
        <time>2022-11-20T11:40:59.000Z</time>
      </trkpt>
      <trkpt lat="37.05499167" lon="-3.36786333">
        <ele>3323.0</ele>
        <time>2022-11-20T11:41:00.000Z</time>
      </trkpt>
      <trkpt lat="37.05498167" lon="-3.36785333">
        <ele>3324.0</ele>
        <time>2022-11-20T11:41:01.000Z</time>
      </trkpt>
      <trkpt lat="37.05497333" lon="-3.36784333">
        <ele>3324.0</ele>
        <time>2022-11-20T11:41:02.000Z</time>
      </trkpt>
      <trkpt lat="37.054965" lon="-3.36783667">
        <ele>3324.0</ele>
        <time>2022-11-20T11:41:03.000Z</time>
      </trkpt>
      <trkpt lat="37.05495667" lon="-3.36782833">
        <ele>3324.0</ele>
        <time>2022-11-20T11:41:04.000Z</time>
      </trkpt>
      <trkpt lat="37.05495" lon="-3.36782">
        <ele>3324.0</ele>
        <time>2022-11-20T11:41:05.000Z</time>
      </trkpt>
      <trkpt lat="37.05494" lon="-3.36781">
        <ele>3324.0</ele>
        <time>2022-11-20T11:41:06.000Z</time>
      </trkpt>
      <trkpt lat="37.05493167" lon="-3.36780333">
        <ele>3324.0</ele>
        <time>2022-11-20T11:41:07.000Z</time>
      </trkpt>
      <trkpt lat="37.05492" lon="-3.36779667">
        <ele>3324.0</ele>
        <time>2022-11-20T11:41:08.000Z</time>
      </trkpt>
      <trkpt lat="37.05491167" lon="-3.36779167">
        <ele>3324.0</ele>
        <time>2022-11-20T11:41:09.000Z</time>
      </trkpt>
      <trkpt lat="37.05490167" lon="-3.36778167">
        <ele>3324.0</ele>
        <time>2022-11-20T11:41:10.000Z</time>
      </trkpt>
      <trkpt lat="37.05489167" lon="-3.36777167">
        <ele>3324.0</ele>
        <time>2022-11-20T11:41:11.000Z</time>
      </trkpt>
      <trkpt lat="37.05488" lon="-3.367765">
        <ele>3324.0</ele>
        <time>2022-11-20T11:41:12.000Z</time>
      </trkpt>
      <trkpt lat="37.05486833" lon="-3.36775833">
        <ele>3324.0</ele>
        <time>2022-11-20T11:41:13.000Z</time>
      </trkpt>
      <trkpt lat="37.05485833" lon="-3.36775">
        <ele>3324.0</ele>
        <time>2022-11-20T11:41:14.000Z</time>
      </trkpt>
      <trkpt lat="37.05484833" lon="-3.36774333">
        <ele>3324.0</ele>
        <time>2022-11-20T11:41:15.000Z</time>
      </trkpt>
      <trkpt lat="37.05484" lon="-3.367735">
        <ele>3324.0</ele>
        <time>2022-11-20T11:41:16.000Z</time>
      </trkpt>
      <trkpt lat="37.05483" lon="-3.367725">
        <ele>3324.0</ele>
        <time>2022-11-20T11:41:17.000Z</time>
      </trkpt>
      <trkpt lat="37.05482167" lon="-3.36771833">
        <ele>3325.0</ele>
        <time>2022-11-20T11:41:18.000Z</time>
      </trkpt>
      <trkpt lat="37.05481" lon="-3.36771167">
        <ele>3325.0</ele>
        <time>2022-11-20T11:41:19.000Z</time>
      </trkpt>
      <trkpt lat="37.0548" lon="-3.36770667">
        <ele>3325.0</ele>
        <time>2022-11-20T11:41:20.000Z</time>
      </trkpt>
      <trkpt lat="37.05478833" lon="-3.367705">
        <ele>3325.0</ele>
        <time>2022-11-20T11:41:21.000Z</time>
      </trkpt>
      <trkpt lat="37.05477667" lon="-3.367705">
        <ele>3325.0</ele>
        <time>2022-11-20T11:41:22.000Z</time>
      </trkpt>
      <trkpt lat="37.05476333" lon="-3.3677">
        <ele>3325.0</ele>
        <time>2022-11-20T11:41:23.000Z</time>
      </trkpt>
      <trkpt lat="37.05475333" lon="-3.36769667">
        <ele>3325.0</ele>
        <time>2022-11-20T11:41:24.000Z</time>
      </trkpt>
      <trkpt lat="37.05474167" lon="-3.36769333">
        <ele>3325.0</ele>
        <time>2022-11-20T11:41:25.000Z</time>
      </trkpt>
      <trkpt lat="37.05473" lon="-3.36769167">
        <ele>3325.0</ele>
        <time>2022-11-20T11:41:26.000Z</time>
      </trkpt>
      <trkpt lat="37.05471833" lon="-3.36769">
        <ele>3325.0</ele>
        <time>2022-11-20T11:41:27.000Z</time>
      </trkpt>
      <trkpt lat="37.054705" lon="-3.36768833">
        <ele>3325.0</ele>
        <time>2022-11-20T11:41:28.000Z</time>
      </trkpt>
      <trkpt lat="37.05469333" lon="-3.36768667">
        <ele>3325.0</ele>
        <time>2022-11-20T11:41:29.000Z</time>
      </trkpt>
      <trkpt lat="37.05468333" lon="-3.367685">
        <ele>3325.0</ele>
        <time>2022-11-20T11:41:30.000Z</time>
      </trkpt>
      <trkpt lat="37.05467" lon="-3.36768167">
        <ele>3325.0</ele>
        <time>2022-11-20T11:41:31.000Z</time>
      </trkpt>
      <trkpt lat="37.05466" lon="-3.36767833">
        <ele>3325.0</ele>
        <time>2022-11-20T11:41:32.000Z</time>
      </trkpt>
      <trkpt lat="37.05464833" lon="-3.367675">
        <ele>3325.0</ele>
        <time>2022-11-20T11:41:33.000Z</time>
      </trkpt>
      <trkpt lat="37.05463667" lon="-3.36767333">
        <ele>3325.0</ele>
        <time>2022-11-20T11:41:34.000Z</time>
      </trkpt>
      <trkpt lat="37.054625" lon="-3.36767">
        <ele>3325.0</ele>
        <time>2022-11-20T11:41:35.000Z</time>
      </trkpt>
      <trkpt lat="37.05461333" lon="-3.367665">
        <ele>3325.0</ele>
        <time>2022-11-20T11:41:36.000Z</time>
      </trkpt>
      <trkpt lat="37.05460167" lon="-3.36766">
        <ele>3325.0</ele>
        <time>2022-11-20T11:41:37.000Z</time>
      </trkpt>
      <trkpt lat="37.05459" lon="-3.36765833">
        <ele>3325.0</ele>
        <time>2022-11-20T11:41:38.000Z</time>
      </trkpt>
      <trkpt lat="37.05458" lon="-3.36765333">
        <ele>3325.0</ele>
        <time>2022-11-20T11:41:39.000Z</time>
      </trkpt>
      <trkpt lat="37.05457" lon="-3.36764833">
        <ele>3325.0</ele>
        <time>2022-11-20T11:41:40.000Z</time>
      </trkpt>
      <trkpt lat="37.05456" lon="-3.36764667">
        <ele>3325.0</ele>
        <time>2022-11-20T11:41:41.000Z</time>
      </trkpt>
      <trkpt lat="37.05455167" lon="-3.36764167">
        <ele>3325.0</ele>
        <time>2022-11-20T11:41:42.000Z</time>
      </trkpt>
      <trkpt lat="37.05454333" lon="-3.36763667">
        <ele>3325.0</ele>
        <time>2022-11-20T11:41:43.000Z</time>
      </trkpt>
      <trkpt lat="37.05454" lon="-3.36763333">
        <ele>3325.0</ele>
        <time>2022-11-20T11:41:44.000Z</time>
      </trkpt>
      <trkpt lat="37.05454" lon="-3.36763167">
        <ele>3325.0</ele>
        <time>2022-11-20T11:41:45.000Z</time>
      </trkpt>
      <trkpt lat="37.05454" lon="-3.36763167">
        <ele>3325.0</ele>
        <time>2022-11-20T11:41:46.000Z</time>
      </trkpt>
      <trkpt lat="37.05453833" lon="-3.36763167">
        <ele>3325.0</ele>
        <time>2022-11-20T11:41:47.000Z</time>
      </trkpt>
      <trkpt lat="37.05453167" lon="-3.36762833">
        <ele>3325.0</ele>
        <time>2022-11-20T11:41:48.000Z</time>
      </trkpt>
      <trkpt lat="37.05452667" lon="-3.36762333">
        <ele>3325.0</ele>
        <time>2022-11-20T11:41:49.000Z</time>
      </trkpt>
      <trkpt lat="37.05452333" lon="-3.36762">
        <ele>3325.0</ele>
        <time>2022-11-20T11:41:50.000Z</time>
      </trkpt>
      <trkpt lat="37.05452333" lon="-3.36761833">
        <ele>3325.0</ele>
        <time>2022-11-20T11:41:51.000Z</time>
      </trkpt>
      <trkpt lat="37.05452333" lon="-3.36761833">
        <ele>3325.0</ele>
        <time>2022-11-20T11:41:52.000Z</time>
      </trkpt>
      <trkpt lat="37.05452333" lon="-3.36761833">
        <ele>3325.0</ele>
        <time>2022-11-20T11:41:53.000Z</time>
      </trkpt>
      <trkpt lat="37.05452333" lon="-3.36761833">
        <ele>3325.0</ele>
        <time>2022-11-20T11:41:54.000Z</time>
      </trkpt>
      <trkpt lat="37.05452333" lon="-3.36761833">
        <ele>3325.0</ele>
        <time>2022-11-20T11:41:55.000Z</time>
      </trkpt>
      <trkpt lat="37.05452333" lon="-3.36762">
        <ele>3325.0</ele>
        <time>2022-11-20T11:41:56.000Z</time>
      </trkpt>
      <trkpt lat="37.05452333" lon="-3.36762">
        <ele>3325.0</ele>
        <time>2022-11-20T11:41:57.000Z</time>
      </trkpt>
      <trkpt lat="37.05452333" lon="-3.36762">
        <ele>3325.0</ele>
        <time>2022-11-20T11:41:58.000Z</time>
      </trkpt>
      <trkpt lat="37.05452333" lon="-3.36762">
        <ele>3325.0</ele>
        <time>2022-11-20T11:41:59.000Z</time>
      </trkpt>
      <trkpt lat="37.05452333" lon="-3.36762">
        <ele>3325.0</ele>
        <time>2022-11-20T11:42:00.000Z</time>
      </trkpt>
      <trkpt lat="37.05452" lon="-3.36761667">
        <ele>3325.0</ele>
        <time>2022-11-20T11:42:01.000Z</time>
      </trkpt>
      <trkpt lat="37.054515" lon="-3.36761167">
        <ele>3325.0</ele>
        <time>2022-11-20T11:42:02.000Z</time>
      </trkpt>
      <trkpt lat="37.05451" lon="-3.36761167">
        <ele>3325.0</ele>
        <time>2022-11-20T11:42:03.000Z</time>
      </trkpt>
      <trkpt lat="37.05450667" lon="-3.36761167">
        <ele>3325.0</ele>
        <time>2022-11-20T11:42:04.000Z</time>
      </trkpt>
      <trkpt lat="37.054505" lon="-3.36761">
        <ele>3325.0</ele>
        <time>2022-11-20T11:42:05.000Z</time>
      </trkpt>
      <trkpt lat="37.054505" lon="-3.36761">
        <ele>3325.0</ele>
        <time>2022-11-20T11:42:06.000Z</time>
      </trkpt>
      <trkpt lat="37.054505" lon="-3.36761">
        <ele>3325.0</ele>
        <time>2022-11-20T11:42:07.000Z</time>
      </trkpt>
      <trkpt lat="37.054505" lon="-3.36761">
        <ele>3325.0</ele>
        <time>2022-11-20T11:42:08.000Z</time>
      </trkpt>
      <trkpt lat="37.054505" lon="-3.36761167">
        <ele>3325.0</ele>
        <time>2022-11-20T11:42:09.000Z</time>
      </trkpt>
      <trkpt lat="37.054505" lon="-3.36761167">
        <ele>3325.0</ele>
        <time>2022-11-20T11:42:10.000Z</time>
      </trkpt>
      <trkpt lat="37.054505" lon="-3.36761167">
        <ele>3325.0</ele>
        <time>2022-11-20T11:42:11.000Z</time>
      </trkpt>
      <trkpt lat="37.054505" lon="-3.36761167">
        <ele>3325.0</ele>
        <time>2022-11-20T11:42:12.000Z</time>
      </trkpt>
      <trkpt lat="37.054505" lon="-3.36761167">
        <ele>3325.0</ele>
        <time>2022-11-20T11:42:13.000Z</time>
      </trkpt>
      <trkpt lat="37.054505" lon="-3.36761167">
        <ele>3325.0</ele>
        <time>2022-11-20T11:42:14.000Z</time>
      </trkpt>
      <trkpt lat="37.054505" lon="-3.36761167">
        <ele>3325.0</ele>
        <time>2022-11-20T11:42:15.000Z</time>
      </trkpt>
      <trkpt lat="37.054505" lon="-3.36761167">
        <ele>3325.0</ele>
        <time>2022-11-20T11:42:16.000Z</time>
      </trkpt>
      <trkpt lat="37.05450333" lon="-3.36761333">
        <ele>3325.0</ele>
        <time>2022-11-20T11:42:17.000Z</time>
      </trkpt>
      <trkpt lat="37.0545" lon="-3.367615">
        <ele>3325.0</ele>
        <time>2022-11-20T11:42:18.000Z</time>
      </trkpt>
      <trkpt lat="37.0545" lon="-3.367615">
        <ele>3325.0</ele>
        <time>2022-11-20T11:42:19.000Z</time>
      </trkpt>
      <trkpt lat="37.0545" lon="-3.367615">
        <ele>3325.0</ele>
        <time>2022-11-20T11:42:20.000Z</time>
      </trkpt>
      <trkpt lat="37.0545" lon="-3.367615">
        <ele>3325.0</ele>
        <time>2022-11-20T11:42:21.000Z</time>
      </trkpt>
      <trkpt lat="37.0545" lon="-3.367615">
        <ele>3325.0</ele>
        <time>2022-11-20T11:42:22.000Z</time>
      </trkpt>
      <trkpt lat="37.0545" lon="-3.367615">
        <ele>3325.0</ele>
        <time>2022-11-20T11:42:23.000Z</time>
      </trkpt>
      <trkpt lat="37.0545" lon="-3.367615">
        <ele>3325.0</ele>
        <time>2022-11-20T11:42:24.000Z</time>
      </trkpt>
      <trkpt lat="37.0545" lon="-3.367615">
        <ele>3325.0</ele>
        <time>2022-11-20T11:42:25.000Z</time>
      </trkpt>
      <trkpt lat="37.05449833" lon="-3.367615">
        <ele>3325.0</ele>
        <time>2022-11-20T11:42:26.000Z</time>
      </trkpt>
      <trkpt lat="37.054495" lon="-3.36761">
        <ele>3325.0</ele>
        <time>2022-11-20T11:42:27.000Z</time>
      </trkpt>
      <trkpt lat="37.05449333" lon="-3.36760833">
        <ele>3325.0</ele>
        <time>2022-11-20T11:42:28.000Z</time>
      </trkpt>
      <trkpt lat="37.05449167" lon="-3.36760333">
        <ele>3325.0</ele>
        <time>2022-11-20T11:42:29.000Z</time>
      </trkpt>
      <trkpt lat="37.05449" lon="-3.36759667">
        <ele>3325.0</ele>
        <time>2022-11-20T11:42:30.000Z</time>
      </trkpt>
      <trkpt lat="37.05448667" lon="-3.36758667">
        <ele>3325.0</ele>
        <time>2022-11-20T11:42:31.000Z</time>
      </trkpt>
      <trkpt lat="37.054485" lon="-3.36757833">
        <ele>3325.0</ele>
        <time>2022-11-20T11:42:32.000Z</time>
      </trkpt>
      <trkpt lat="37.05448333" lon="-3.36757">
        <ele>3325.0</ele>
        <time>2022-11-20T11:42:33.000Z</time>
      </trkpt>
      <trkpt lat="37.05448167" lon="-3.367565">
        <ele>3325.0</ele>
        <time>2022-11-20T11:42:34.000Z</time>
      </trkpt>
      <trkpt lat="37.05448167" lon="-3.36755667">
        <ele>3325.0</ele>
        <time>2022-11-20T11:42:35.000Z</time>
      </trkpt>
      <trkpt lat="37.054485" lon="-3.36754833">
        <ele>3325.0</ele>
        <time>2022-11-20T11:42:36.000Z</time>
      </trkpt>
      <trkpt lat="37.05449" lon="-3.36754">
        <ele>3325.0</ele>
        <time>2022-11-20T11:42:37.000Z</time>
      </trkpt>
      <trkpt lat="37.05449167" lon="-3.36752667">
        <ele>3326.0</ele>
        <time>2022-11-20T11:42:38.000Z</time>
      </trkpt>
      <trkpt lat="37.054495" lon="-3.367515">
        <ele>3326.0</ele>
        <time>2022-11-20T11:42:39.000Z</time>
      </trkpt>
      <trkpt lat="37.054495" lon="-3.367505">
        <ele>3326.0</ele>
        <time>2022-11-20T11:42:40.000Z</time>
      </trkpt>
      <trkpt lat="37.05449667" lon="-3.367495">
        <ele>3326.0</ele>
        <time>2022-11-20T11:42:41.000Z</time>
      </trkpt>
      <trkpt lat="37.05449833" lon="-3.367485">
        <ele>3326.0</ele>
        <time>2022-11-20T11:42:42.000Z</time>
      </trkpt>
      <trkpt lat="37.0545" lon="-3.36747333">
        <ele>3326.0</ele>
        <time>2022-11-20T11:42:43.000Z</time>
      </trkpt>
      <trkpt lat="37.05450167" lon="-3.367465">
        <ele>3326.0</ele>
        <time>2022-11-20T11:42:44.000Z</time>
      </trkpt>
      <trkpt lat="37.054505" lon="-3.36745167">
        <ele>3326.0</ele>
        <time>2022-11-20T11:42:45.000Z</time>
      </trkpt>
      <trkpt lat="37.05451" lon="-3.36744">
        <ele>3326.0</ele>
        <time>2022-11-20T11:42:46.000Z</time>
      </trkpt>
      <trkpt lat="37.05451167" lon="-3.36743167">
        <ele>3326.0</ele>
        <time>2022-11-20T11:42:47.000Z</time>
      </trkpt>
      <trkpt lat="37.05451333" lon="-3.36742167">
        <ele>3326.0</ele>
        <time>2022-11-20T11:42:48.000Z</time>
      </trkpt>
      <trkpt lat="37.05451167" lon="-3.36741167">
        <ele>3326.0</ele>
        <time>2022-11-20T11:42:49.000Z</time>
      </trkpt>
      <trkpt lat="37.05450833" lon="-3.36739833">
        <ele>3326.0</ele>
        <time>2022-11-20T11:42:50.000Z</time>
      </trkpt>
      <trkpt lat="37.05450833" lon="-3.36738667">
        <ele>3326.0</ele>
        <time>2022-11-20T11:42:51.000Z</time>
      </trkpt>
      <trkpt lat="37.05450667" lon="-3.36737667">
        <ele>3326.0</ele>
        <time>2022-11-20T11:42:52.000Z</time>
      </trkpt>
      <trkpt lat="37.054505" lon="-3.36736833">
        <ele>3327.0</ele>
        <time>2022-11-20T11:42:53.000Z</time>
      </trkpt>
      <trkpt lat="37.05450333" lon="-3.36736">
        <ele>3327.0</ele>
        <time>2022-11-20T11:42:54.000Z</time>
      </trkpt>
      <trkpt lat="37.054505" lon="-3.36735167">
        <ele>3327.0</ele>
        <time>2022-11-20T11:42:55.000Z</time>
      </trkpt>
      <trkpt lat="37.054505" lon="-3.36734333">
        <ele>3327.0</ele>
        <time>2022-11-20T11:42:56.000Z</time>
      </trkpt>
      <trkpt lat="37.05450833" lon="-3.36733833">
        <ele>3327.0</ele>
        <time>2022-11-20T11:42:57.000Z</time>
      </trkpt>
      <trkpt lat="37.05451" lon="-3.367335">
        <ele>3327.0</ele>
        <time>2022-11-20T11:42:58.000Z</time>
      </trkpt>
      <trkpt lat="37.05451167" lon="-3.36733">
        <ele>3327.0</ele>
        <time>2022-11-20T11:42:59.000Z</time>
      </trkpt>
      <trkpt lat="37.05451333" lon="-3.36732667">
        <ele>3327.0</ele>
        <time>2022-11-20T11:43:00.000Z</time>
      </trkpt>
      <trkpt lat="37.05451667" lon="-3.36732167">
        <ele>3327.0</ele>
        <time>2022-11-20T11:43:01.000Z</time>
      </trkpt>
      <trkpt lat="37.05452" lon="-3.367315">
        <ele>3328.0</ele>
        <time>2022-11-20T11:43:02.000Z</time>
      </trkpt>
      <trkpt lat="37.05452333" lon="-3.36731333">
        <ele>3328.0</ele>
        <time>2022-11-20T11:43:03.000Z</time>
      </trkpt>
      <trkpt lat="37.05452667" lon="-3.36730833">
        <ele>3328.0</ele>
        <time>2022-11-20T11:43:04.000Z</time>
      </trkpt>
      <trkpt lat="37.05452833" lon="-3.36730667">
        <ele>3328.0</ele>
        <time>2022-11-20T11:43:05.000Z</time>
      </trkpt>
      <trkpt lat="37.05453167" lon="-3.36730333">
        <ele>3328.0</ele>
        <time>2022-11-20T11:43:06.000Z</time>
      </trkpt>
      <trkpt lat="37.05453333" lon="-3.36730167">
        <ele>3328.0</ele>
        <time>2022-11-20T11:43:07.000Z</time>
      </trkpt>
      <trkpt lat="37.05453833" lon="-3.3673">
        <ele>3328.0</ele>
        <time>2022-11-20T11:43:08.000Z</time>
      </trkpt>
      <trkpt lat="37.05454" lon="-3.36729667">
        <ele>3329.0</ele>
        <time>2022-11-20T11:43:09.000Z</time>
      </trkpt>
      <trkpt lat="37.05454333" lon="-3.367295">
        <ele>3329.0</ele>
        <time>2022-11-20T11:43:10.000Z</time>
      </trkpt>
      <trkpt lat="37.054545" lon="-3.36729167">
        <ele>3329.0</ele>
        <time>2022-11-20T11:43:11.000Z</time>
      </trkpt>
      <trkpt lat="37.05454833" lon="-3.36729167">
        <ele>3329.0</ele>
        <time>2022-11-20T11:43:12.000Z</time>
      </trkpt>
      <trkpt lat="37.05455333" lon="-3.36728833">
        <ele>3329.0</ele>
        <time>2022-11-20T11:43:13.000Z</time>
      </trkpt>
      <trkpt lat="37.05455667" lon="-3.36728667">
        <ele>3330.0</ele>
        <time>2022-11-20T11:43:14.000Z</time>
      </trkpt>
      <trkpt lat="37.05456167" lon="-3.367285">
        <ele>3330.0</ele>
        <time>2022-11-20T11:43:15.000Z</time>
      </trkpt>
      <trkpt lat="37.05456333" lon="-3.367285">
        <ele>3330.0</ele>
        <time>2022-11-20T11:43:16.000Z</time>
      </trkpt>
      <trkpt lat="37.05456667" lon="-3.367285">
        <ele>3330.0</ele>
        <time>2022-11-20T11:43:17.000Z</time>
      </trkpt>
      <trkpt lat="37.05456667" lon="-3.367285">
        <ele>3330.0</ele>
        <time>2022-11-20T11:43:18.000Z</time>
      </trkpt>
      <trkpt lat="37.05456667" lon="-3.367285">
        <ele>3330.0</ele>
        <time>2022-11-20T11:43:19.000Z</time>
      </trkpt>
      <trkpt lat="37.05456667" lon="-3.367285">
        <ele>3330.0</ele>
        <time>2022-11-20T11:43:20.000Z</time>
      </trkpt>
      <trkpt lat="37.05456667" lon="-3.367285">
        <ele>3330.0</ele>
        <time>2022-11-20T11:43:21.000Z</time>
      </trkpt>
      <trkpt lat="37.05456833" lon="-3.367285">
        <ele>3330.0</ele>
        <time>2022-11-20T11:43:22.000Z</time>
      </trkpt>
      <trkpt lat="37.05457167" lon="-3.36728">
        <ele>3330.0</ele>
        <time>2022-11-20T11:43:23.000Z</time>
      </trkpt>
      <trkpt lat="37.05457333" lon="-3.36727333">
        <ele>3330.0</ele>
        <time>2022-11-20T11:43:24.000Z</time>
      </trkpt>
      <trkpt lat="37.05457667" lon="-3.36727167">
        <ele>3330.0</ele>
        <time>2022-11-20T11:43:25.000Z</time>
      </trkpt>
      <trkpt lat="37.05458167" lon="-3.36727167">
        <ele>3330.0</ele>
        <time>2022-11-20T11:43:26.000Z</time>
      </trkpt>
      <trkpt lat="37.05458667" lon="-3.36726833">
        <ele>3331.0</ele>
        <time>2022-11-20T11:43:27.000Z</time>
      </trkpt>
      <trkpt lat="37.05459" lon="-3.36726667">
        <ele>3331.0</ele>
        <time>2022-11-20T11:43:28.000Z</time>
      </trkpt>
      <trkpt lat="37.05459" lon="-3.36726333">
        <ele>3331.0</ele>
        <time>2022-11-20T11:43:29.000Z</time>
      </trkpt>
      <trkpt lat="37.05459667" lon="-3.36725833">
        <ele>3331.0</ele>
        <time>2022-11-20T11:43:30.000Z</time>
      </trkpt>
      <trkpt lat="37.05459833" lon="-3.36725667">
        <ele>3331.0</ele>
        <time>2022-11-20T11:43:31.000Z</time>
      </trkpt>
      <trkpt lat="37.0546" lon="-3.36725833">
        <ele>3331.0</ele>
        <time>2022-11-20T11:43:32.000Z</time>
      </trkpt>
      <trkpt lat="37.05460333" lon="-3.36725833">
        <ele>3331.0</ele>
        <time>2022-11-20T11:43:33.000Z</time>
      </trkpt>
      <trkpt lat="37.05460167" lon="-3.36725667">
        <ele>3331.0</ele>
        <time>2022-11-20T11:43:34.000Z</time>
      </trkpt>
      <trkpt lat="37.05460167" lon="-3.367255">
        <ele>3331.0</ele>
        <time>2022-11-20T11:43:35.000Z</time>
      </trkpt>
      <trkpt lat="37.05460333" lon="-3.36725333">
        <ele>3331.0</ele>
        <time>2022-11-20T11:43:36.000Z</time>
      </trkpt>
      <trkpt lat="37.054605" lon="-3.36725">
        <ele>3332.0</ele>
        <time>2022-11-20T11:43:37.000Z</time>
      </trkpt>
      <trkpt lat="37.054605" lon="-3.36724667">
        <ele>3332.0</ele>
        <time>2022-11-20T11:43:38.000Z</time>
      </trkpt>
      <trkpt lat="37.05460667" lon="-3.36724167">
        <ele>3332.0</ele>
        <time>2022-11-20T11:43:39.000Z</time>
      </trkpt>
      <trkpt lat="37.05460833" lon="-3.36723667">
        <ele>3332.0</ele>
        <time>2022-11-20T11:43:40.000Z</time>
      </trkpt>
      <trkpt lat="37.05461" lon="-3.367235">
        <ele>3332.0</ele>
        <time>2022-11-20T11:43:41.000Z</time>
      </trkpt>
      <trkpt lat="37.05461167" lon="-3.367235">
        <ele>3332.0</ele>
        <time>2022-11-20T11:43:42.000Z</time>
      </trkpt>
      <trkpt lat="37.05461167" lon="-3.367235">
        <ele>3332.0</ele>
        <time>2022-11-20T11:43:43.000Z</time>
      </trkpt>
      <trkpt lat="37.05461333" lon="-3.36723833">
        <ele>3332.0</ele>
        <time>2022-11-20T11:43:44.000Z</time>
      </trkpt>
      <trkpt lat="37.05461333" lon="-3.36724167">
        <ele>3333.0</ele>
        <time>2022-11-20T11:43:45.000Z</time>
      </trkpt>
      <trkpt lat="37.05461667" lon="-3.36724333">
        <ele>3333.0</ele>
        <time>2022-11-20T11:43:46.000Z</time>
      </trkpt>
      <trkpt lat="37.05461833" lon="-3.367245">
        <ele>3333.0</ele>
        <time>2022-11-20T11:43:47.000Z</time>
      </trkpt>
      <trkpt lat="37.05461833" lon="-3.367245">
        <ele>3333.0</ele>
        <time>2022-11-20T11:43:48.000Z</time>
      </trkpt>
      <trkpt lat="37.05461833" lon="-3.367245">
        <ele>3333.0</ele>
        <time>2022-11-20T11:43:49.000Z</time>
      </trkpt>
      <trkpt lat="37.05461833" lon="-3.367245">
        <ele>3333.0</ele>
        <time>2022-11-20T11:43:50.000Z</time>
      </trkpt>
      <trkpt lat="37.05462" lon="-3.36724333">
        <ele>3333.0</ele>
        <time>2022-11-20T11:43:51.000Z</time>
      </trkpt>
      <trkpt lat="37.05462167" lon="-3.36724333">
        <ele>3333.0</ele>
        <time>2022-11-20T11:43:52.000Z</time>
      </trkpt>
      <trkpt lat="37.05462333" lon="-3.36724">
        <ele>3333.0</ele>
        <time>2022-11-20T11:43:53.000Z</time>
      </trkpt>
      <trkpt lat="37.05462667" lon="-3.36723667">
        <ele>3333.0</ele>
        <time>2022-11-20T11:43:54.000Z</time>
      </trkpt>
      <trkpt lat="37.05462833" lon="-3.36723667">
        <ele>3333.0</ele>
        <time>2022-11-20T11:43:55.000Z</time>
      </trkpt>
      <trkpt lat="37.05463" lon="-3.36723667">
        <ele>3334.0</ele>
        <time>2022-11-20T11:43:56.000Z</time>
      </trkpt>
      <trkpt lat="37.05463" lon="-3.367235">
        <ele>3334.0</ele>
        <time>2022-11-20T11:43:57.000Z</time>
      </trkpt>
      <trkpt lat="37.05463167" lon="-3.36723333">
        <ele>3334.0</ele>
        <time>2022-11-20T11:43:58.000Z</time>
      </trkpt>
      <trkpt lat="37.05463167" lon="-3.36723167">
        <ele>3334.0</ele>
        <time>2022-11-20T11:43:59.000Z</time>
      </trkpt>
      <trkpt lat="37.05463167" lon="-3.36723167">
        <ele>3334.0</ele>
        <time>2022-11-20T11:44:00.000Z</time>
      </trkpt>
      <trkpt lat="37.05463167" lon="-3.36723167">
        <ele>3334.0</ele>
        <time>2022-11-20T11:44:01.000Z</time>
      </trkpt>
      <trkpt lat="37.05463167" lon="-3.36723167">
        <ele>3334.0</ele>
        <time>2022-11-20T11:44:02.000Z</time>
      </trkpt>
      <trkpt lat="37.05463167" lon="-3.36723">
        <ele>3334.0</ele>
        <time>2022-11-20T11:44:03.000Z</time>
      </trkpt>
      <trkpt lat="37.05463167" lon="-3.36722833">
        <ele>3334.0</ele>
        <time>2022-11-20T11:44:04.000Z</time>
      </trkpt>
      <trkpt lat="37.05463333" lon="-3.367225">
        <ele>3334.0</ele>
        <time>2022-11-20T11:44:05.000Z</time>
      </trkpt>
      <trkpt lat="37.05463667" lon="-3.36721833">
        <ele>3334.0</ele>
        <time>2022-11-20T11:44:06.000Z</time>
      </trkpt>
      <trkpt lat="37.05464" lon="-3.367215">
        <ele>3334.0</ele>
        <time>2022-11-20T11:44:07.000Z</time>
      </trkpt>
      <trkpt lat="37.05464167" lon="-3.36721167">
        <ele>3334.0</ele>
        <time>2022-11-20T11:44:08.000Z</time>
      </trkpt>
      <trkpt lat="37.05464333" lon="-3.367205">
        <ele>3334.0</ele>
        <time>2022-11-20T11:44:09.000Z</time>
      </trkpt>
      <trkpt lat="37.054645" lon="-3.36719833">
        <ele>3335.0</ele>
        <time>2022-11-20T11:44:10.000Z</time>
      </trkpt>
      <trkpt lat="37.05464667" lon="-3.36719333">
        <ele>3335.0</ele>
        <time>2022-11-20T11:44:11.000Z</time>
      </trkpt>
      <trkpt lat="37.05465" lon="-3.36719">
        <ele>3335.0</ele>
        <time>2022-11-20T11:44:12.000Z</time>
      </trkpt>
      <trkpt lat="37.05465" lon="-3.36718833">
        <ele>3335.0</ele>
        <time>2022-11-20T11:44:13.000Z</time>
      </trkpt>
      <trkpt lat="37.05465" lon="-3.36718167">
        <ele>3335.0</ele>
        <time>2022-11-20T11:44:14.000Z</time>
      </trkpt>
      <trkpt lat="37.05465167" lon="-3.36717667">
        <ele>3336.0</ele>
        <time>2022-11-20T11:44:15.000Z</time>
      </trkpt>
      <trkpt lat="37.05465667" lon="-3.36717">
        <ele>3336.0</ele>
        <time>2022-11-20T11:44:16.000Z</time>
      </trkpt>
      <trkpt lat="37.05466333" lon="-3.367165">
        <ele>3336.0</ele>
        <time>2022-11-20T11:44:17.000Z</time>
      </trkpt>
      <trkpt lat="37.05466667" lon="-3.36716333">
        <ele>3336.0</ele>
        <time>2022-11-20T11:44:18.000Z</time>
      </trkpt>
      <trkpt lat="37.05467" lon="-3.36716167">
        <ele>3337.0</ele>
        <time>2022-11-20T11:44:19.000Z</time>
      </trkpt>
      <trkpt lat="37.054675" lon="-3.36716">
        <ele>3337.0</ele>
        <time>2022-11-20T11:44:20.000Z</time>
      </trkpt>
      <trkpt lat="37.05467667" lon="-3.36715833">
        <ele>3337.0</ele>
        <time>2022-11-20T11:44:21.000Z</time>
      </trkpt>
      <trkpt lat="37.05467833" lon="-3.36716">
        <ele>3337.0</ele>
        <time>2022-11-20T11:44:22.000Z</time>
      </trkpt>
      <trkpt lat="37.05467833" lon="-3.36716">
        <ele>3337.0</ele>
        <time>2022-11-20T11:44:23.000Z</time>
      </trkpt>
      <trkpt lat="37.05468" lon="-3.36716">
        <ele>3337.0</ele>
        <time>2022-11-20T11:44:24.000Z</time>
      </trkpt>
      <trkpt lat="37.05468167" lon="-3.36715833">
        <ele>3337.0</ele>
        <time>2022-11-20T11:44:25.000Z</time>
      </trkpt>
      <trkpt lat="37.054685" lon="-3.36715667">
        <ele>3337.0</ele>
        <time>2022-11-20T11:44:26.000Z</time>
      </trkpt>
      <trkpt lat="37.05469" lon="-3.367155">
        <ele>3337.0</ele>
        <time>2022-11-20T11:44:27.000Z</time>
      </trkpt>
      <trkpt lat="37.05469167" lon="-3.36715333">
        <ele>3337.0</ele>
        <time>2022-11-20T11:44:28.000Z</time>
      </trkpt>
      <trkpt lat="37.05469333" lon="-3.36714833">
        <ele>3338.0</ele>
        <time>2022-11-20T11:44:29.000Z</time>
      </trkpt>
      <trkpt lat="37.05469833" lon="-3.367145">
        <ele>3338.0</ele>
        <time>2022-11-20T11:44:30.000Z</time>
      </trkpt>
      <trkpt lat="37.05470167" lon="-3.36714">
        <ele>3338.0</ele>
        <time>2022-11-20T11:44:31.000Z</time>
      </trkpt>
      <trkpt lat="37.05470333" lon="-3.36713833">
        <ele>3338.0</ele>
        <time>2022-11-20T11:44:32.000Z</time>
      </trkpt>
      <trkpt lat="37.05470833" lon="-3.36713167">
        <ele>3338.0</ele>
        <time>2022-11-20T11:44:33.000Z</time>
      </trkpt>
      <trkpt lat="37.05471" lon="-3.36712833">
        <ele>3338.0</ele>
        <time>2022-11-20T11:44:34.000Z</time>
      </trkpt>
      <trkpt lat="37.05471667" lon="-3.367125">
        <ele>3339.0</ele>
        <time>2022-11-20T11:44:35.000Z</time>
      </trkpt>
      <trkpt lat="37.05472" lon="-3.367125">
        <ele>3339.0</ele>
        <time>2022-11-20T11:44:36.000Z</time>
      </trkpt>
      <trkpt lat="37.05472667" lon="-3.367125">
        <ele>3339.0</ele>
        <time>2022-11-20T11:44:37.000Z</time>
      </trkpt>
      <trkpt lat="37.05473167" lon="-3.367125">
        <ele>3339.0</ele>
        <time>2022-11-20T11:44:38.000Z</time>
      </trkpt>
      <trkpt lat="37.05473833" lon="-3.36712667">
        <ele>3339.0</ele>
        <time>2022-11-20T11:44:39.000Z</time>
      </trkpt>
      <trkpt lat="37.054745" lon="-3.367125">
        <ele>3339.0</ele>
        <time>2022-11-20T11:44:40.000Z</time>
      </trkpt>
      <trkpt lat="37.05475" lon="-3.36712333">
        <ele>3340.0</ele>
        <time>2022-11-20T11:44:41.000Z</time>
      </trkpt>
      <trkpt lat="37.054755" lon="-3.36711833">
        <ele>3340.0</ele>
        <time>2022-11-20T11:44:42.000Z</time>
      </trkpt>
      <trkpt lat="37.05475833" lon="-3.367115">
        <ele>3340.0</ele>
        <time>2022-11-20T11:44:43.000Z</time>
      </trkpt>
      <trkpt lat="37.054765" lon="-3.36711">
        <ele>3340.0</ele>
        <time>2022-11-20T11:44:44.000Z</time>
      </trkpt>
      <trkpt lat="37.05477167" lon="-3.36710833">
        <ele>3340.0</ele>
        <time>2022-11-20T11:44:45.000Z</time>
      </trkpt>
      <trkpt lat="37.05477667" lon="-3.36711">
        <ele>3340.0</ele>
        <time>2022-11-20T11:44:46.000Z</time>
      </trkpt>
      <trkpt lat="37.05478333" lon="-3.36711">
        <ele>3340.0</ele>
        <time>2022-11-20T11:44:47.000Z</time>
      </trkpt>
      <trkpt lat="37.05479" lon="-3.36711">
        <ele>3340.0</ele>
        <time>2022-11-20T11:44:48.000Z</time>
      </trkpt>
      <trkpt lat="37.054795" lon="-3.36710833">
        <ele>3340.0</ele>
        <time>2022-11-20T11:44:49.000Z</time>
      </trkpt>
      <trkpt lat="37.05480167" lon="-3.36711">
        <ele>3341.0</ele>
        <time>2022-11-20T11:44:50.000Z</time>
      </trkpt>
      <trkpt lat="37.05480833" lon="-3.36711">
        <ele>3341.0</ele>
        <time>2022-11-20T11:44:51.000Z</time>
      </trkpt>
      <trkpt lat="37.05481333" lon="-3.36711333">
        <ele>3341.0</ele>
        <time>2022-11-20T11:44:52.000Z</time>
      </trkpt>
      <trkpt lat="37.05481833" lon="-3.36711333">
        <ele>3341.0</ele>
        <time>2022-11-20T11:44:53.000Z</time>
      </trkpt>
      <trkpt lat="37.05482333" lon="-3.36711333">
        <ele>3341.0</ele>
        <time>2022-11-20T11:44:54.000Z</time>
      </trkpt>
      <trkpt lat="37.05482833" lon="-3.36711333">
        <ele>3341.0</ele>
        <time>2022-11-20T11:44:55.000Z</time>
      </trkpt>
      <trkpt lat="37.05483" lon="-3.367115">
        <ele>3342.0</ele>
        <time>2022-11-20T11:44:56.000Z</time>
      </trkpt>
      <trkpt lat="37.05483" lon="-3.367115">
        <ele>3342.0</ele>
        <time>2022-11-20T11:44:57.000Z</time>
      </trkpt>
      <trkpt lat="37.05483" lon="-3.367115">
        <ele>3342.0</ele>
        <time>2022-11-20T11:44:58.000Z</time>
      </trkpt>
      <trkpt lat="37.05483" lon="-3.367115">
        <ele>3342.0</ele>
        <time>2022-11-20T11:44:59.000Z</time>
      </trkpt>
      <trkpt lat="37.05483" lon="-3.36711333">
        <ele>3342.0</ele>
        <time>2022-11-20T11:45:00.000Z</time>
      </trkpt>
      <trkpt lat="37.05483167" lon="-3.36711333">
        <ele>3342.0</ele>
        <time>2022-11-20T11:45:01.000Z</time>
      </trkpt>
      <trkpt lat="37.05483" lon="-3.36711333">
        <ele>3342.0</ele>
        <time>2022-11-20T11:45:02.000Z</time>
      </trkpt>
      <trkpt lat="37.05483" lon="-3.36711167">
        <ele>3342.0</ele>
        <time>2022-11-20T11:45:03.000Z</time>
      </trkpt>
      <trkpt lat="37.05483167" lon="-3.36711333">
        <ele>3342.0</ele>
        <time>2022-11-20T11:45:04.000Z</time>
      </trkpt>
      <trkpt lat="37.05483333" lon="-3.36711">
        <ele>3342.0</ele>
        <time>2022-11-20T11:45:05.000Z</time>
      </trkpt>
      <trkpt lat="37.05483333" lon="-3.36710667">
        <ele>3342.0</ele>
        <time>2022-11-20T11:45:06.000Z</time>
      </trkpt>
      <trkpt lat="37.05483667" lon="-3.36710333">
        <ele>3342.0</ele>
        <time>2022-11-20T11:45:07.000Z</time>
      </trkpt>
      <trkpt lat="37.05484167" lon="-3.36710167">
        <ele>3342.0</ele>
        <time>2022-11-20T11:45:08.000Z</time>
      </trkpt>
      <trkpt lat="37.05484667" lon="-3.36709833">
        <ele>3342.0</ele>
        <time>2022-11-20T11:45:09.000Z</time>
      </trkpt>
      <trkpt lat="37.05484833" lon="-3.36709667">
        <ele>3342.0</ele>
        <time>2022-11-20T11:45:10.000Z</time>
      </trkpt>
      <trkpt lat="37.054855" lon="-3.36709333">
        <ele>3343.0</ele>
        <time>2022-11-20T11:45:11.000Z</time>
      </trkpt>
      <trkpt lat="37.05485667" lon="-3.36709">
        <ele>3343.0</ele>
        <time>2022-11-20T11:45:12.000Z</time>
      </trkpt>
      <trkpt lat="37.05486" lon="-3.36708667">
        <ele>3343.0</ele>
        <time>2022-11-20T11:45:13.000Z</time>
      </trkpt>
      <trkpt lat="37.05486333" lon="-3.36708167">
        <ele>3343.0</ele>
        <time>2022-11-20T11:45:14.000Z</time>
      </trkpt>
      <trkpt lat="37.054865" lon="-3.36708">
        <ele>3343.0</ele>
        <time>2022-11-20T11:45:15.000Z</time>
      </trkpt>
      <trkpt lat="37.05487167" lon="-3.36707667">
        <ele>3343.0</ele>
        <time>2022-11-20T11:45:16.000Z</time>
      </trkpt>
      <trkpt lat="37.05487667" lon="-3.367075">
        <ele>3343.0</ele>
        <time>2022-11-20T11:45:17.000Z</time>
      </trkpt>
      <trkpt lat="37.05488" lon="-3.36707">
        <ele>3343.0</ele>
        <time>2022-11-20T11:45:18.000Z</time>
      </trkpt>
      <trkpt lat="37.05488333" lon="-3.36706167">
        <ele>3344.0</ele>
        <time>2022-11-20T11:45:19.000Z</time>
      </trkpt>
      <trkpt lat="37.05488667" lon="-3.36705833">
        <ele>3344.0</ele>
        <time>2022-11-20T11:45:20.000Z</time>
      </trkpt>
      <trkpt lat="37.05489" lon="-3.36705667">
        <ele>3344.0</ele>
        <time>2022-11-20T11:45:21.000Z</time>
      </trkpt>
      <trkpt lat="37.054895" lon="-3.36705167">
        <ele>3344.0</ele>
        <time>2022-11-20T11:45:22.000Z</time>
      </trkpt>
      <trkpt lat="37.05489833" lon="-3.36704833">
        <ele>3344.0</ele>
        <time>2022-11-20T11:45:23.000Z</time>
      </trkpt>
      <trkpt lat="37.05490167" lon="-3.367045">
        <ele>3344.0</ele>
        <time>2022-11-20T11:45:24.000Z</time>
      </trkpt>
      <trkpt lat="37.05490333" lon="-3.36704">
        <ele>3344.0</ele>
        <time>2022-11-20T11:45:25.000Z</time>
      </trkpt>
      <trkpt lat="37.054905" lon="-3.367035">
        <ele>3345.0</ele>
        <time>2022-11-20T11:45:26.000Z</time>
      </trkpt>
      <trkpt lat="37.05490833" lon="-3.36703167">
        <ele>3345.0</ele>
        <time>2022-11-20T11:45:27.000Z</time>
      </trkpt>
      <trkpt lat="37.05491" lon="-3.36702667">
        <ele>3345.0</ele>
        <time>2022-11-20T11:45:28.000Z</time>
      </trkpt>
      <trkpt lat="37.05491167" lon="-3.36702333">
        <ele>3345.0</ele>
        <time>2022-11-20T11:45:29.000Z</time>
      </trkpt>
      <trkpt lat="37.05491167" lon="-3.36702167">
        <ele>3345.0</ele>
        <time>2022-11-20T11:45:30.000Z</time>
      </trkpt>
      <trkpt lat="37.05490833" lon="-3.36702">
        <ele>3346.0</ele>
        <time>2022-11-20T11:45:31.000Z</time>
      </trkpt>
      <trkpt lat="37.05490833" lon="-3.36701167">
        <ele>3346.0</ele>
        <time>2022-11-20T11:45:32.000Z</time>
      </trkpt>
      <trkpt lat="37.05490667" lon="-3.36700833">
        <ele>3346.0</ele>
        <time>2022-11-20T11:45:33.000Z</time>
      </trkpt>
      <trkpt lat="37.05490667" lon="-3.36700333">
        <ele>3346.0</ele>
        <time>2022-11-20T11:45:34.000Z</time>
      </trkpt>
      <trkpt lat="37.054905" lon="-3.36699833">
        <ele>3347.0</ele>
        <time>2022-11-20T11:45:35.000Z</time>
      </trkpt>
      <trkpt lat="37.05490333" lon="-3.366995">
        <ele>3347.0</ele>
        <time>2022-11-20T11:45:36.000Z</time>
      </trkpt>
      <trkpt lat="37.05490333" lon="-3.36699333">
        <ele>3347.0</ele>
        <time>2022-11-20T11:45:37.000Z</time>
      </trkpt>
      <trkpt lat="37.0549" lon="-3.36699167">
        <ele>3347.0</ele>
        <time>2022-11-20T11:45:38.000Z</time>
      </trkpt>
      <trkpt lat="37.054895" lon="-3.366985">
        <ele>3348.0</ele>
        <time>2022-11-20T11:45:39.000Z</time>
      </trkpt>
      <trkpt lat="37.054895" lon="-3.36698">
        <ele>3348.0</ele>
        <time>2022-11-20T11:45:40.000Z</time>
      </trkpt>
      <trkpt lat="37.05489667" lon="-3.36697333">
        <ele>3348.0</ele>
        <time>2022-11-20T11:45:41.000Z</time>
      </trkpt>
      <trkpt lat="37.05490167" lon="-3.36697167">
        <ele>3348.0</ele>
        <time>2022-11-20T11:45:42.000Z</time>
      </trkpt>
      <trkpt lat="37.054905" lon="-3.36697">
        <ele>3348.0</ele>
        <time>2022-11-20T11:45:43.000Z</time>
      </trkpt>
      <trkpt lat="37.05490833" lon="-3.36697167">
        <ele>3349.0</ele>
        <time>2022-11-20T11:45:44.000Z</time>
      </trkpt>
      <trkpt lat="37.05491" lon="-3.36696833">
        <ele>3349.0</ele>
        <time>2022-11-20T11:45:45.000Z</time>
      </trkpt>
      <trkpt lat="37.05491167" lon="-3.36696833">
        <ele>3349.0</ele>
        <time>2022-11-20T11:45:46.000Z</time>
      </trkpt>
      <trkpt lat="37.05491333" lon="-3.36696667">
        <ele>3349.0</ele>
        <time>2022-11-20T11:45:47.000Z</time>
      </trkpt>
      <trkpt lat="37.054915" lon="-3.366965">
        <ele>3349.0</ele>
        <time>2022-11-20T11:45:48.000Z</time>
      </trkpt>
      <trkpt lat="37.05491333" lon="-3.36696">
        <ele>3350.0</ele>
        <time>2022-11-20T11:45:49.000Z</time>
      </trkpt>
      <trkpt lat="37.054915" lon="-3.366955">
        <ele>3350.0</ele>
        <time>2022-11-20T11:45:50.000Z</time>
      </trkpt>
      <trkpt lat="37.05491667" lon="-3.36695">
        <ele>3350.0</ele>
        <time>2022-11-20T11:45:51.000Z</time>
      </trkpt>
      <trkpt lat="37.05491833" lon="-3.36694333">
        <ele>3350.0</ele>
        <time>2022-11-20T11:45:52.000Z</time>
      </trkpt>
      <trkpt lat="37.05492333" lon="-3.36694">
        <ele>3350.0</ele>
        <time>2022-11-20T11:45:53.000Z</time>
      </trkpt>
      <trkpt lat="37.054925" lon="-3.36693667">
        <ele>3350.0</ele>
        <time>2022-11-20T11:45:54.000Z</time>
      </trkpt>
      <trkpt lat="37.05492667" lon="-3.36693667">
        <ele>3350.0</ele>
        <time>2022-11-20T11:45:55.000Z</time>
      </trkpt>
      <trkpt lat="37.05492667" lon="-3.36693667">
        <ele>3351.0</ele>
        <time>2022-11-20T11:45:56.000Z</time>
      </trkpt>
      <trkpt lat="37.05493" lon="-3.36693667">
        <ele>3351.0</ele>
        <time>2022-11-20T11:45:57.000Z</time>
      </trkpt>
      <trkpt lat="37.054935" lon="-3.36693833">
        <ele>3351.0</ele>
        <time>2022-11-20T11:45:58.000Z</time>
      </trkpt>
      <trkpt lat="37.05494" lon="-3.36693667">
        <ele>3351.0</ele>
        <time>2022-11-20T11:45:59.000Z</time>
      </trkpt>
      <trkpt lat="37.05494333" lon="-3.36693833">
        <ele>3351.0</ele>
        <time>2022-11-20T11:46:00.000Z</time>
      </trkpt>
      <trkpt lat="37.05494333" lon="-3.36694">
        <ele>3351.0</ele>
        <time>2022-11-20T11:46:01.000Z</time>
      </trkpt>
      <trkpt lat="37.054945" lon="-3.36694167">
        <ele>3351.0</ele>
        <time>2022-11-20T11:46:02.000Z</time>
      </trkpt>
      <trkpt lat="37.054945" lon="-3.36694333">
        <ele>3352.0</ele>
        <time>2022-11-20T11:46:03.000Z</time>
      </trkpt>
      <trkpt lat="37.054945" lon="-3.36694333">
        <ele>3352.0</ele>
        <time>2022-11-20T11:46:04.000Z</time>
      </trkpt>
      <trkpt lat="37.054945" lon="-3.36694167">
        <ele>3352.0</ele>
        <time>2022-11-20T11:46:05.000Z</time>
      </trkpt>
      <trkpt lat="37.054945" lon="-3.36694167">
        <ele>3352.0</ele>
        <time>2022-11-20T11:46:06.000Z</time>
      </trkpt>
      <trkpt lat="37.054945" lon="-3.36694167">
        <ele>3352.0</ele>
        <time>2022-11-20T11:46:07.000Z</time>
      </trkpt>
      <trkpt lat="37.054945" lon="-3.36694167">
        <ele>3352.0</ele>
        <time>2022-11-20T11:46:08.000Z</time>
      </trkpt>
      <trkpt lat="37.054945" lon="-3.36694">
        <ele>3352.0</ele>
        <time>2022-11-20T11:46:09.000Z</time>
      </trkpt>
      <trkpt lat="37.05494667" lon="-3.36693667">
        <ele>3352.0</ele>
        <time>2022-11-20T11:46:10.000Z</time>
      </trkpt>
      <trkpt lat="37.05495" lon="-3.366935">
        <ele>3352.0</ele>
        <time>2022-11-20T11:46:11.000Z</time>
      </trkpt>
      <trkpt lat="37.054955" lon="-3.36693333">
        <ele>3352.0</ele>
        <time>2022-11-20T11:46:12.000Z</time>
      </trkpt>
      <trkpt lat="37.05495833" lon="-3.36693">
        <ele>3352.0</ele>
        <time>2022-11-20T11:46:13.000Z</time>
      </trkpt>
      <trkpt lat="37.05496" lon="-3.36692667">
        <ele>3352.0</ele>
        <time>2022-11-20T11:46:14.000Z</time>
      </trkpt>
      <trkpt lat="37.05496333" lon="-3.36692">
        <ele>3352.0</ele>
        <time>2022-11-20T11:46:15.000Z</time>
      </trkpt>
      <trkpt lat="37.05496333" lon="-3.36691667">
        <ele>3352.0</ele>
        <time>2022-11-20T11:46:16.000Z</time>
      </trkpt>
      <trkpt lat="37.054965" lon="-3.36691167">
        <ele>3352.0</ele>
        <time>2022-11-20T11:46:17.000Z</time>
      </trkpt>
      <trkpt lat="37.05496833" lon="-3.36690833">
        <ele>3352.0</ele>
        <time>2022-11-20T11:46:18.000Z</time>
      </trkpt>
      <trkpt lat="37.05497333" lon="-3.36690833">
        <ele>3352.0</ele>
        <time>2022-11-20T11:46:19.000Z</time>
      </trkpt>
      <trkpt lat="37.05497667" lon="-3.36690833">
        <ele>3352.0</ele>
        <time>2022-11-20T11:46:20.000Z</time>
      </trkpt>
      <trkpt lat="37.05497833" lon="-3.36690667">
        <ele>3353.0</ele>
        <time>2022-11-20T11:46:21.000Z</time>
      </trkpt>
      <trkpt lat="37.05498" lon="-3.3669">
        <ele>3353.0</ele>
        <time>2022-11-20T11:46:22.000Z</time>
      </trkpt>
      <trkpt lat="37.05498333" lon="-3.36689667">
        <ele>3353.0</ele>
        <time>2022-11-20T11:46:23.000Z</time>
      </trkpt>
      <trkpt lat="37.05498833" lon="-3.36689333">
        <ele>3353.0</ele>
        <time>2022-11-20T11:46:24.000Z</time>
      </trkpt>
      <trkpt lat="37.05499333" lon="-3.36689333">
        <ele>3353.0</ele>
        <time>2022-11-20T11:46:25.000Z</time>
      </trkpt>
      <trkpt lat="37.05499667" lon="-3.36689167">
        <ele>3353.0</ele>
        <time>2022-11-20T11:46:26.000Z</time>
      </trkpt>
      <trkpt lat="37.055" lon="-3.36688833">
        <ele>3354.0</ele>
        <time>2022-11-20T11:46:27.000Z</time>
      </trkpt>
      <trkpt lat="37.05500667" lon="-3.366885">
        <ele>3354.0</ele>
        <time>2022-11-20T11:46:28.000Z</time>
      </trkpt>
      <trkpt lat="37.05501" lon="-3.36688167">
        <ele>3354.0</ele>
        <time>2022-11-20T11:46:29.000Z</time>
      </trkpt>
      <trkpt lat="37.055015" lon="-3.36687667">
        <ele>3354.0</ele>
        <time>2022-11-20T11:46:30.000Z</time>
      </trkpt>
      <trkpt lat="37.05501833" lon="-3.366875">
        <ele>3354.0</ele>
        <time>2022-11-20T11:46:31.000Z</time>
      </trkpt>
      <trkpt lat="37.05502167" lon="-3.36687167">
        <ele>3354.0</ele>
        <time>2022-11-20T11:46:32.000Z</time>
      </trkpt>
      <trkpt lat="37.055025" lon="-3.36686833">
        <ele>3354.0</ele>
        <time>2022-11-20T11:46:33.000Z</time>
      </trkpt>
      <trkpt lat="37.055025" lon="-3.36686667">
        <ele>3355.0</ele>
        <time>2022-11-20T11:46:34.000Z</time>
      </trkpt>
      <trkpt lat="37.05502833" lon="-3.36686333">
        <ele>3355.0</ele>
        <time>2022-11-20T11:46:35.000Z</time>
      </trkpt>
      <trkpt lat="37.05503" lon="-3.36686">
        <ele>3355.0</ele>
        <time>2022-11-20T11:46:36.000Z</time>
      </trkpt>
      <trkpt lat="37.055035" lon="-3.36685667">
        <ele>3355.0</ele>
        <time>2022-11-20T11:46:37.000Z</time>
      </trkpt>
      <trkpt lat="37.05504167" lon="-3.36685333">
        <ele>3355.0</ele>
        <time>2022-11-20T11:46:38.000Z</time>
      </trkpt>
      <trkpt lat="37.05504667" lon="-3.36685167">
        <ele>3355.0</ele>
        <time>2022-11-20T11:46:39.000Z</time>
      </trkpt>
      <trkpt lat="37.05505167" lon="-3.36684667">
        <ele>3355.0</ele>
        <time>2022-11-20T11:46:40.000Z</time>
      </trkpt>
      <trkpt lat="37.05505667" lon="-3.36684333">
        <ele>3356.0</ele>
        <time>2022-11-20T11:46:41.000Z</time>
      </trkpt>
      <trkpt lat="37.05506167" lon="-3.36684">
        <ele>3356.0</ele>
        <time>2022-11-20T11:46:42.000Z</time>
      </trkpt>
      <trkpt lat="37.05506333" lon="-3.36683833">
        <ele>3356.0</ele>
        <time>2022-11-20T11:46:43.000Z</time>
      </trkpt>
      <trkpt lat="37.05507" lon="-3.366835">
        <ele>3356.0</ele>
        <time>2022-11-20T11:46:44.000Z</time>
      </trkpt>
      <trkpt lat="37.055075" lon="-3.36683167">
        <ele>3356.0</ele>
        <time>2022-11-20T11:46:45.000Z</time>
      </trkpt>
      <trkpt lat="37.05507667" lon="-3.36683">
        <ele>3356.0</ele>
        <time>2022-11-20T11:46:46.000Z</time>
      </trkpt>
      <trkpt lat="37.05508167" lon="-3.36682667">
        <ele>3356.0</ele>
        <time>2022-11-20T11:46:47.000Z</time>
      </trkpt>
      <trkpt lat="37.05508833" lon="-3.36682167">
        <ele>3356.0</ele>
        <time>2022-11-20T11:46:48.000Z</time>
      </trkpt>
      <trkpt lat="37.05509" lon="-3.36681833">
        <ele>3357.0</ele>
        <time>2022-11-20T11:46:49.000Z</time>
      </trkpt>
      <trkpt lat="37.05509333" lon="-3.36681333">
        <ele>3357.0</ele>
        <time>2022-11-20T11:46:50.000Z</time>
      </trkpt>
      <trkpt lat="37.05509667" lon="-3.36680833">
        <ele>3357.0</ele>
        <time>2022-11-20T11:46:51.000Z</time>
      </trkpt>
      <trkpt lat="37.0551" lon="-3.366805">
        <ele>3357.0</ele>
        <time>2022-11-20T11:46:52.000Z</time>
      </trkpt>
      <trkpt lat="37.05510167" lon="-3.3668">
        <ele>3357.0</ele>
        <time>2022-11-20T11:46:53.000Z</time>
      </trkpt>
      <trkpt lat="37.05510167" lon="-3.366795">
        <ele>3357.0</ele>
        <time>2022-11-20T11:46:54.000Z</time>
      </trkpt>
      <trkpt lat="37.05510333" lon="-3.36679167">
        <ele>3357.0</ele>
        <time>2022-11-20T11:46:55.000Z</time>
      </trkpt>
      <trkpt lat="37.05510167" lon="-3.36678833">
        <ele>3358.0</ele>
        <time>2022-11-20T11:46:56.000Z</time>
      </trkpt>
      <trkpt lat="37.05510167" lon="-3.366785">
        <ele>3358.0</ele>
        <time>2022-11-20T11:46:57.000Z</time>
      </trkpt>
      <trkpt lat="37.05510167" lon="-3.366785">
        <ele>3358.0</ele>
        <time>2022-11-20T11:46:58.000Z</time>
      </trkpt>
      <trkpt lat="37.05510167" lon="-3.36678333">
        <ele>3358.0</ele>
        <time>2022-11-20T11:46:59.000Z</time>
      </trkpt>
      <trkpt lat="37.05510167" lon="-3.36678333">
        <ele>3358.0</ele>
        <time>2022-11-20T11:47:00.000Z</time>
      </trkpt>
      <trkpt lat="37.0551" lon="-3.36678167">
        <ele>3358.0</ele>
        <time>2022-11-20T11:47:01.000Z</time>
      </trkpt>
      <trkpt lat="37.0551" lon="-3.36678">
        <ele>3358.0</ele>
        <time>2022-11-20T11:47:02.000Z</time>
      </trkpt>
      <trkpt lat="37.05509833" lon="-3.36677833">
        <ele>3358.0</ele>
        <time>2022-11-20T11:47:03.000Z</time>
      </trkpt>
      <trkpt lat="37.05509667" lon="-3.36677667">
        <ele>3358.0</ele>
        <time>2022-11-20T11:47:04.000Z</time>
      </trkpt>
      <trkpt lat="37.05510167" lon="-3.36677333">
        <ele>3358.0</ele>
        <time>2022-11-20T11:47:05.000Z</time>
      </trkpt>
      <trkpt lat="37.05510667" lon="-3.36677">
        <ele>3358.0</ele>
        <time>2022-11-20T11:47:06.000Z</time>
      </trkpt>
      <trkpt lat="37.05511" lon="-3.366765">
        <ele>3358.0</ele>
        <time>2022-11-20T11:47:07.000Z</time>
      </trkpt>
      <trkpt lat="37.05511167" lon="-3.36676">
        <ele>3358.0</ele>
        <time>2022-11-20T11:47:08.000Z</time>
      </trkpt>
      <trkpt lat="37.055115" lon="-3.36675833">
        <ele>3358.0</ele>
        <time>2022-11-20T11:47:09.000Z</time>
      </trkpt>
      <trkpt lat="37.055115" lon="-3.36675333">
        <ele>3359.0</ele>
        <time>2022-11-20T11:47:10.000Z</time>
      </trkpt>
      <trkpt lat="37.05511667" lon="-3.36674667">
        <ele>3359.0</ele>
        <time>2022-11-20T11:47:11.000Z</time>
      </trkpt>
      <trkpt lat="37.05511667" lon="-3.36674333">
        <ele>3359.0</ele>
        <time>2022-11-20T11:47:12.000Z</time>
      </trkpt>
      <trkpt lat="37.05511833" lon="-3.36673667">
        <ele>3359.0</ele>
        <time>2022-11-20T11:47:13.000Z</time>
      </trkpt>
      <trkpt lat="37.05511833" lon="-3.366735">
        <ele>3359.0</ele>
        <time>2022-11-20T11:47:14.000Z</time>
      </trkpt>
      <trkpt lat="37.05512" lon="-3.36673">
        <ele>3359.0</ele>
        <time>2022-11-20T11:47:15.000Z</time>
      </trkpt>
      <trkpt lat="37.05511833" lon="-3.36672833">
        <ele>3359.0</ele>
        <time>2022-11-20T11:47:16.000Z</time>
      </trkpt>
      <trkpt lat="37.05511667" lon="-3.36672167">
        <ele>3359.0</ele>
        <time>2022-11-20T11:47:17.000Z</time>
      </trkpt>
      <trkpt lat="37.055115" lon="-3.36671833">
        <ele>3359.0</ele>
        <time>2022-11-20T11:47:18.000Z</time>
      </trkpt>
      <trkpt lat="37.05511667" lon="-3.36671333">
        <ele>3360.0</ele>
        <time>2022-11-20T11:47:19.000Z</time>
      </trkpt>
      <trkpt lat="37.055115" lon="-3.36670667">
        <ele>3360.0</ele>
        <time>2022-11-20T11:47:20.000Z</time>
      </trkpt>
      <trkpt lat="37.055115" lon="-3.36670333">
        <ele>3360.0</ele>
        <time>2022-11-20T11:47:21.000Z</time>
      </trkpt>
      <trkpt lat="37.055115" lon="-3.366695">
        <ele>3360.0</ele>
        <time>2022-11-20T11:47:22.000Z</time>
      </trkpt>
      <trkpt lat="37.055115" lon="-3.36668833">
        <ele>3360.0</ele>
        <time>2022-11-20T11:47:23.000Z</time>
      </trkpt>
      <trkpt lat="37.055115" lon="-3.36668333">
        <ele>3361.0</ele>
        <time>2022-11-20T11:47:24.000Z</time>
      </trkpt>
      <trkpt lat="37.05511333" lon="-3.36668">
        <ele>3361.0</ele>
        <time>2022-11-20T11:47:25.000Z</time>
      </trkpt>
      <trkpt lat="37.055115" lon="-3.36667167">
        <ele>3361.0</ele>
        <time>2022-11-20T11:47:26.000Z</time>
      </trkpt>
      <trkpt lat="37.055115" lon="-3.366665">
        <ele>3361.0</ele>
        <time>2022-11-20T11:47:27.000Z</time>
      </trkpt>
      <trkpt lat="37.05511667" lon="-3.36666333">
        <ele>3361.0</ele>
        <time>2022-11-20T11:47:28.000Z</time>
      </trkpt>
      <trkpt lat="37.055115" lon="-3.366665">
        <ele>3362.0</ele>
        <time>2022-11-20T11:47:29.000Z</time>
      </trkpt>
      <trkpt lat="37.055115" lon="-3.366665">
        <ele>3362.0</ele>
        <time>2022-11-20T11:47:30.000Z</time>
      </trkpt>
      <trkpt lat="37.055115" lon="-3.366665">
        <ele>3362.0</ele>
        <time>2022-11-20T11:47:31.000Z</time>
      </trkpt>
      <trkpt lat="37.055115" lon="-3.366665">
        <ele>3362.0</ele>
        <time>2022-11-20T11:47:32.000Z</time>
      </trkpt>
      <trkpt lat="37.055115" lon="-3.366665">
        <ele>3362.0</ele>
        <time>2022-11-20T11:47:33.000Z</time>
      </trkpt>
      <trkpt lat="37.055115" lon="-3.36666333">
        <ele>3362.0</ele>
        <time>2022-11-20T11:47:34.000Z</time>
      </trkpt>
      <trkpt lat="37.055115" lon="-3.36666333">
        <ele>3362.0</ele>
        <time>2022-11-20T11:47:35.000Z</time>
      </trkpt>
      <trkpt lat="37.055115" lon="-3.36666333">
        <ele>3362.0</ele>
        <time>2022-11-20T11:47:36.000Z</time>
      </trkpt>
      <trkpt lat="37.055115" lon="-3.36666333">
        <ele>3362.0</ele>
        <time>2022-11-20T11:47:37.000Z</time>
      </trkpt>
      <trkpt lat="37.055115" lon="-3.36666167">
        <ele>3362.0</ele>
        <time>2022-11-20T11:47:38.000Z</time>
      </trkpt>
      <trkpt lat="37.05511833" lon="-3.36665667">
        <ele>3362.0</ele>
        <time>2022-11-20T11:47:39.000Z</time>
      </trkpt>
      <trkpt lat="37.05512167" lon="-3.36665333">
        <ele>3362.0</ele>
        <time>2022-11-20T11:47:40.000Z</time>
      </trkpt>
      <trkpt lat="37.055125" lon="-3.36665">
        <ele>3362.0</ele>
        <time>2022-11-20T11:47:41.000Z</time>
      </trkpt>
      <trkpt lat="37.05512833" lon="-3.366645">
        <ele>3362.0</ele>
        <time>2022-11-20T11:47:42.000Z</time>
      </trkpt>
      <trkpt lat="37.05513167" lon="-3.36663833">
        <ele>3362.0</ele>
        <time>2022-11-20T11:47:43.000Z</time>
      </trkpt>
      <trkpt lat="37.055135" lon="-3.36663167">
        <ele>3362.0</ele>
        <time>2022-11-20T11:47:44.000Z</time>
      </trkpt>
      <trkpt lat="37.05514" lon="-3.36662667">
        <ele>3363.0</ele>
        <time>2022-11-20T11:47:45.000Z</time>
      </trkpt>
      <trkpt lat="37.05514667" lon="-3.36662333">
        <ele>3363.0</ele>
        <time>2022-11-20T11:47:46.000Z</time>
      </trkpt>
      <trkpt lat="37.05515167" lon="-3.36661833">
        <ele>3363.0</ele>
        <time>2022-11-20T11:47:47.000Z</time>
      </trkpt>
      <trkpt lat="37.055155" lon="-3.36661">
        <ele>3363.0</ele>
        <time>2022-11-20T11:47:48.000Z</time>
      </trkpt>
      <trkpt lat="37.055155" lon="-3.36660167">
        <ele>3363.0</ele>
        <time>2022-11-20T11:47:49.000Z</time>
      </trkpt>
      <trkpt lat="37.05515333" lon="-3.36659167">
        <ele>3363.0</ele>
        <time>2022-11-20T11:47:50.000Z</time>
      </trkpt>
      <trkpt lat="37.05515333" lon="-3.36658">
        <ele>3364.0</ele>
        <time>2022-11-20T11:47:51.000Z</time>
      </trkpt>
      <trkpt lat="37.055155" lon="-3.36657">
        <ele>3364.0</ele>
        <time>2022-11-20T11:47:52.000Z</time>
      </trkpt>
      <trkpt lat="37.05516" lon="-3.36656333">
        <ele>3364.0</ele>
        <time>2022-11-20T11:47:53.000Z</time>
      </trkpt>
      <trkpt lat="37.055165" lon="-3.36656">
        <ele>3364.0</ele>
        <time>2022-11-20T11:47:54.000Z</time>
      </trkpt>
      <trkpt lat="37.05516833" lon="-3.366555">
        <ele>3364.0</ele>
        <time>2022-11-20T11:47:55.000Z</time>
      </trkpt>
      <trkpt lat="37.05517" lon="-3.36655167">
        <ele>3365.0</ele>
        <time>2022-11-20T11:47:56.000Z</time>
      </trkpt>
      <trkpt lat="37.05517167" lon="-3.36654833">
        <ele>3365.0</ele>
        <time>2022-11-20T11:47:57.000Z</time>
      </trkpt>
      <trkpt lat="37.05517333" lon="-3.36654333">
        <ele>3365.0</ele>
        <time>2022-11-20T11:47:58.000Z</time>
      </trkpt>
      <trkpt lat="37.05517667" lon="-3.36654">
        <ele>3365.0</ele>
        <time>2022-11-20T11:47:59.000Z</time>
      </trkpt>
      <trkpt lat="37.05518333" lon="-3.36653833">
        <ele>3365.0</ele>
        <time>2022-11-20T11:48:00.000Z</time>
      </trkpt>
      <trkpt lat="37.05518833" lon="-3.36653667">
        <ele>3365.0</ele>
        <time>2022-11-20T11:48:01.000Z</time>
      </trkpt>
      <trkpt lat="37.055195" lon="-3.366535">
        <ele>3366.0</ele>
        <time>2022-11-20T11:48:02.000Z</time>
      </trkpt>
      <trkpt lat="37.05519833" lon="-3.36653">
        <ele>3366.0</ele>
        <time>2022-11-20T11:48:03.000Z</time>
      </trkpt>
      <trkpt lat="37.0552" lon="-3.36652667">
        <ele>3366.0</ele>
        <time>2022-11-20T11:48:04.000Z</time>
      </trkpt>
      <trkpt lat="37.055205" lon="-3.366525">
        <ele>3366.0</ele>
        <time>2022-11-20T11:48:05.000Z</time>
      </trkpt>
      <trkpt lat="37.05520833" lon="-3.36652333">
        <ele>3366.0</ele>
        <time>2022-11-20T11:48:06.000Z</time>
      </trkpt>
      <trkpt lat="37.05521167" lon="-3.36652">
        <ele>3366.0</ele>
        <time>2022-11-20T11:48:07.000Z</time>
      </trkpt>
      <trkpt lat="37.05521333" lon="-3.36651833">
        <ele>3366.0</ele>
        <time>2022-11-20T11:48:08.000Z</time>
      </trkpt>
      <trkpt lat="37.055215" lon="-3.36651833">
        <ele>3367.0</ele>
        <time>2022-11-20T11:48:09.000Z</time>
      </trkpt>
      <trkpt lat="37.05521667" lon="-3.36651333">
        <ele>3367.0</ele>
        <time>2022-11-20T11:48:10.000Z</time>
      </trkpt>
      <trkpt lat="37.05521667" lon="-3.36651">
        <ele>3367.0</ele>
        <time>2022-11-20T11:48:11.000Z</time>
      </trkpt>
      <trkpt lat="37.05521667" lon="-3.36651">
        <ele>3367.0</ele>
        <time>2022-11-20T11:48:12.000Z</time>
      </trkpt>
      <trkpt lat="37.05521833" lon="-3.36650667">
        <ele>3367.0</ele>
        <time>2022-11-20T11:48:13.000Z</time>
      </trkpt>
      <trkpt lat="37.05522" lon="-3.36650667">
        <ele>3367.0</ele>
        <time>2022-11-20T11:48:14.000Z</time>
      </trkpt>
      <trkpt lat="37.05522" lon="-3.3665">
        <ele>3367.0</ele>
        <time>2022-11-20T11:48:15.000Z</time>
      </trkpt>
      <trkpt lat="37.05522167" lon="-3.366495">
        <ele>3367.0</ele>
        <time>2022-11-20T11:48:16.000Z</time>
      </trkpt>
      <trkpt lat="37.055225" lon="-3.36649">
        <ele>3368.0</ele>
        <time>2022-11-20T11:48:17.000Z</time>
      </trkpt>
      <trkpt lat="37.05522833" lon="-3.366485">
        <ele>3368.0</ele>
        <time>2022-11-20T11:48:18.000Z</time>
      </trkpt>
      <trkpt lat="37.05523167" lon="-3.36648333">
        <ele>3368.0</ele>
        <time>2022-11-20T11:48:19.000Z</time>
      </trkpt>
      <trkpt lat="37.055235" lon="-3.36647833">
        <ele>3368.0</ele>
        <time>2022-11-20T11:48:20.000Z</time>
      </trkpt>
      <trkpt lat="37.055235" lon="-3.36647667">
        <ele>3368.0</ele>
        <time>2022-11-20T11:48:21.000Z</time>
      </trkpt>
      <trkpt lat="37.055235" lon="-3.36647667">
        <ele>3368.0</ele>
        <time>2022-11-20T11:48:22.000Z</time>
      </trkpt>
      <trkpt lat="37.05523167" lon="-3.36647167">
        <ele>3368.0</ele>
        <time>2022-11-20T11:48:23.000Z</time>
      </trkpt>
      <trkpt lat="37.05523" lon="-3.366465">
        <ele>3368.0</ele>
        <time>2022-11-20T11:48:24.000Z</time>
      </trkpt>
      <trkpt lat="37.05523" lon="-3.36646">
        <ele>3369.0</ele>
        <time>2022-11-20T11:48:25.000Z</time>
      </trkpt>
      <trkpt lat="37.05523" lon="-3.36645667">
        <ele>3369.0</ele>
        <time>2022-11-20T11:48:26.000Z</time>
      </trkpt>
      <trkpt lat="37.05523" lon="-3.36645333">
        <ele>3369.0</ele>
        <time>2022-11-20T11:48:27.000Z</time>
      </trkpt>
      <trkpt lat="37.05523167" lon="-3.36644833">
        <ele>3369.0</ele>
        <time>2022-11-20T11:48:28.000Z</time>
      </trkpt>
      <trkpt lat="37.05523333" lon="-3.36644667">
        <ele>3369.0</ele>
        <time>2022-11-20T11:48:29.000Z</time>
      </trkpt>
      <trkpt lat="37.05523667" lon="-3.36644333">
        <ele>3369.0</ele>
        <time>2022-11-20T11:48:30.000Z</time>
      </trkpt>
      <trkpt lat="37.05523833" lon="-3.36644167">
        <ele>3369.0</ele>
        <time>2022-11-20T11:48:31.000Z</time>
      </trkpt>
      <trkpt lat="37.05524167" lon="-3.366435">
        <ele>3369.0</ele>
        <time>2022-11-20T11:48:32.000Z</time>
      </trkpt>
      <trkpt lat="37.05524333" lon="-3.36643">
        <ele>3370.0</ele>
        <time>2022-11-20T11:48:33.000Z</time>
      </trkpt>
      <trkpt lat="37.05524667" lon="-3.366425">
        <ele>3370.0</ele>
        <time>2022-11-20T11:48:34.000Z</time>
      </trkpt>
      <trkpt lat="37.05524667" lon="-3.36642167">
        <ele>3370.0</ele>
        <time>2022-11-20T11:48:35.000Z</time>
      </trkpt>
      <trkpt lat="37.05524833" lon="-3.366415">
        <ele>3370.0</ele>
        <time>2022-11-20T11:48:36.000Z</time>
      </trkpt>
      <trkpt lat="37.05524833" lon="-3.36641">
        <ele>3370.0</ele>
        <time>2022-11-20T11:48:37.000Z</time>
      </trkpt>
      <trkpt lat="37.05524833" lon="-3.36640833">
        <ele>3370.0</ele>
        <time>2022-11-20T11:48:38.000Z</time>
      </trkpt>
      <trkpt lat="37.05524833" lon="-3.36640833">
        <ele>3370.0</ele>
        <time>2022-11-20T11:48:39.000Z</time>
      </trkpt>
      <trkpt lat="37.05524833" lon="-3.36640833">
        <ele>3370.0</ele>
        <time>2022-11-20T11:48:40.000Z</time>
      </trkpt>
      <trkpt lat="37.05525" lon="-3.36640667">
        <ele>3370.0</ele>
        <time>2022-11-20T11:48:41.000Z</time>
      </trkpt>
      <trkpt lat="37.05525167" lon="-3.36640333">
        <ele>3370.0</ele>
        <time>2022-11-20T11:48:42.000Z</time>
      </trkpt>
      <trkpt lat="37.05525333" lon="-3.36639833">
        <ele>3370.0</ele>
        <time>2022-11-20T11:48:43.000Z</time>
      </trkpt>
      <trkpt lat="37.05525667" lon="-3.36639333">
        <ele>3370.0</ele>
        <time>2022-11-20T11:48:44.000Z</time>
      </trkpt>
      <trkpt lat="37.05525833" lon="-3.36639">
        <ele>3370.0</ele>
        <time>2022-11-20T11:48:45.000Z</time>
      </trkpt>
      <trkpt lat="37.05526" lon="-3.366385">
        <ele>3371.0</ele>
        <time>2022-11-20T11:48:46.000Z</time>
      </trkpt>
      <trkpt lat="37.05525833" lon="-3.36637833">
        <ele>3371.0</ele>
        <time>2022-11-20T11:48:47.000Z</time>
      </trkpt>
      <trkpt lat="37.05525667" lon="-3.366375">
        <ele>3371.0</ele>
        <time>2022-11-20T11:48:48.000Z</time>
      </trkpt>
      <trkpt lat="37.055255" lon="-3.36637333">
        <ele>3371.0</ele>
        <time>2022-11-20T11:48:49.000Z</time>
      </trkpt>
      <trkpt lat="37.05525333" lon="-3.36636833">
        <ele>3371.0</ele>
        <time>2022-11-20T11:48:50.000Z</time>
      </trkpt>
      <trkpt lat="37.055255" lon="-3.36636333">
        <ele>3371.0</ele>
        <time>2022-11-20T11:48:51.000Z</time>
      </trkpt>
      <trkpt lat="37.05526" lon="-3.36635667">
        <ele>3371.0</ele>
        <time>2022-11-20T11:48:52.000Z</time>
      </trkpt>
      <trkpt lat="37.05526167" lon="-3.36635">
        <ele>3372.0</ele>
        <time>2022-11-20T11:48:53.000Z</time>
      </trkpt>
      <trkpt lat="37.055265" lon="-3.36634333">
        <ele>3372.0</ele>
        <time>2022-11-20T11:48:54.000Z</time>
      </trkpt>
      <trkpt lat="37.05526833" lon="-3.36633667">
        <ele>3372.0</ele>
        <time>2022-11-20T11:48:55.000Z</time>
      </trkpt>
      <trkpt lat="37.05527167" lon="-3.36633">
        <ele>3372.0</ele>
        <time>2022-11-20T11:48:56.000Z</time>
      </trkpt>
      <trkpt lat="37.05527667" lon="-3.366325">
        <ele>3372.0</ele>
        <time>2022-11-20T11:48:57.000Z</time>
      </trkpt>
      <trkpt lat="37.05528167" lon="-3.36632">
        <ele>3372.0</ele>
        <time>2022-11-20T11:48:58.000Z</time>
      </trkpt>
      <trkpt lat="37.05528667" lon="-3.366315">
        <ele>3373.0</ele>
        <time>2022-11-20T11:48:59.000Z</time>
      </trkpt>
      <trkpt lat="37.05528833" lon="-3.36630833">
        <ele>3373.0</ele>
        <time>2022-11-20T11:49:00.000Z</time>
      </trkpt>
      <trkpt lat="37.05529333" lon="-3.366305">
        <ele>3373.0</ele>
        <time>2022-11-20T11:49:01.000Z</time>
      </trkpt>
      <trkpt lat="37.05529833" lon="-3.36630167">
        <ele>3373.0</ele>
        <time>2022-11-20T11:49:02.000Z</time>
      </trkpt>
      <trkpt lat="37.05530167" lon="-3.36629667">
        <ele>3373.0</ele>
        <time>2022-11-20T11:49:03.000Z</time>
      </trkpt>
      <trkpt lat="37.05530667" lon="-3.36629167">
        <ele>3373.0</ele>
        <time>2022-11-20T11:49:04.000Z</time>
      </trkpt>
      <trkpt lat="37.05531167" lon="-3.36628833">
        <ele>3373.0</ele>
        <time>2022-11-20T11:49:05.000Z</time>
      </trkpt>
      <trkpt lat="37.05531667" lon="-3.366285">
        <ele>3374.0</ele>
        <time>2022-11-20T11:49:06.000Z</time>
      </trkpt>
      <trkpt lat="37.05532167" lon="-3.36628">
        <ele>3374.0</ele>
        <time>2022-11-20T11:49:07.000Z</time>
      </trkpt>
      <trkpt lat="37.05532667" lon="-3.36627667">
        <ele>3374.0</ele>
        <time>2022-11-20T11:49:08.000Z</time>
      </trkpt>
      <trkpt lat="37.05533167" lon="-3.36627333">
        <ele>3374.0</ele>
        <time>2022-11-20T11:49:09.000Z</time>
      </trkpt>
      <trkpt lat="37.055335" lon="-3.36627">
        <ele>3374.0</ele>
        <time>2022-11-20T11:49:10.000Z</time>
      </trkpt>
      <trkpt lat="37.05533833" lon="-3.36626333">
        <ele>3374.0</ele>
        <time>2022-11-20T11:49:11.000Z</time>
      </trkpt>
      <trkpt lat="37.05534333" lon="-3.36625833">
        <ele>3374.0</ele>
        <time>2022-11-20T11:49:12.000Z</time>
      </trkpt>
      <trkpt lat="37.05534833" lon="-3.36625333">
        <ele>3374.0</ele>
        <time>2022-11-20T11:49:13.000Z</time>
      </trkpt>
      <trkpt lat="37.05535167" lon="-3.36625">
        <ele>3374.0</ele>
        <time>2022-11-20T11:49:14.000Z</time>
      </trkpt>
      <trkpt lat="37.055355" lon="-3.36624833">
        <ele>3375.0</ele>
        <time>2022-11-20T11:49:15.000Z</time>
      </trkpt>
      <trkpt lat="37.05535667" lon="-3.366245">
        <ele>3375.0</ele>
        <time>2022-11-20T11:49:16.000Z</time>
      </trkpt>
      <trkpt lat="37.05535833" lon="-3.36624167">
        <ele>3375.0</ele>
        <time>2022-11-20T11:49:17.000Z</time>
      </trkpt>
      <trkpt lat="37.05536" lon="-3.36624">
        <ele>3375.0</ele>
        <time>2022-11-20T11:49:18.000Z</time>
      </trkpt>
      <trkpt lat="37.05536167" lon="-3.36623667">
        <ele>3375.0</ele>
        <time>2022-11-20T11:49:19.000Z</time>
      </trkpt>
      <trkpt lat="37.05536333" lon="-3.36623333">
        <ele>3375.0</ele>
        <time>2022-11-20T11:49:20.000Z</time>
      </trkpt>
      <trkpt lat="37.05536667" lon="-3.36623333">
        <ele>3375.0</ele>
        <time>2022-11-20T11:49:21.000Z</time>
      </trkpt>
      <trkpt lat="37.05536667" lon="-3.36623167">
        <ele>3375.0</ele>
        <time>2022-11-20T11:49:22.000Z</time>
      </trkpt>
      <trkpt lat="37.05536833" lon="-3.36623">
        <ele>3376.0</ele>
        <time>2022-11-20T11:49:23.000Z</time>
      </trkpt>
      <trkpt lat="37.05536833" lon="-3.36622667">
        <ele>3376.0</ele>
        <time>2022-11-20T11:49:24.000Z</time>
      </trkpt>
      <trkpt lat="37.05536833" lon="-3.36622167">
        <ele>3376.0</ele>
        <time>2022-11-20T11:49:25.000Z</time>
      </trkpt>
      <trkpt lat="37.05536833" lon="-3.36621667">
        <ele>3376.0</ele>
        <time>2022-11-20T11:49:26.000Z</time>
      </trkpt>
      <trkpt lat="37.05537167" lon="-3.36621167">
        <ele>3376.0</ele>
        <time>2022-11-20T11:49:27.000Z</time>
      </trkpt>
      <trkpt lat="37.05537333" lon="-3.36620667">
        <ele>3376.0</ele>
        <time>2022-11-20T11:49:28.000Z</time>
      </trkpt>
      <trkpt lat="37.055375" lon="-3.3662">
        <ele>3377.0</ele>
        <time>2022-11-20T11:49:29.000Z</time>
      </trkpt>
      <trkpt lat="37.05537833" lon="-3.36619667">
        <ele>3377.0</ele>
        <time>2022-11-20T11:49:30.000Z</time>
      </trkpt>
      <trkpt lat="37.05538167" lon="-3.36619167">
        <ele>3377.0</ele>
        <time>2022-11-20T11:49:31.000Z</time>
      </trkpt>
      <trkpt lat="37.055385" lon="-3.366185">
        <ele>3377.0</ele>
        <time>2022-11-20T11:49:32.000Z</time>
      </trkpt>
      <trkpt lat="37.05538667" lon="-3.36617833">
        <ele>3377.0</ele>
        <time>2022-11-20T11:49:33.000Z</time>
      </trkpt>
      <trkpt lat="37.05538833" lon="-3.36617">
        <ele>3377.0</ele>
        <time>2022-11-20T11:49:34.000Z</time>
      </trkpt>
      <trkpt lat="37.05539" lon="-3.36616">
        <ele>3378.0</ele>
        <time>2022-11-20T11:49:35.000Z</time>
      </trkpt>
      <trkpt lat="37.05539333" lon="-3.36615167">
        <ele>3378.0</ele>
        <time>2022-11-20T11:49:36.000Z</time>
      </trkpt>
      <trkpt lat="37.055395" lon="-3.36614667">
        <ele>3378.0</ele>
        <time>2022-11-20T11:49:37.000Z</time>
      </trkpt>
      <trkpt lat="37.05539333" lon="-3.366145">
        <ele>3378.0</ele>
        <time>2022-11-20T11:49:38.000Z</time>
      </trkpt>
      <trkpt lat="37.05539333" lon="-3.36614">
        <ele>3378.0</ele>
        <time>2022-11-20T11:49:39.000Z</time>
      </trkpt>
      <trkpt lat="37.055395" lon="-3.36613167">
        <ele>3378.0</ele>
        <time>2022-11-20T11:49:40.000Z</time>
      </trkpt>
      <trkpt lat="37.055395" lon="-3.36612833">
        <ele>3378.0</ele>
        <time>2022-11-20T11:49:41.000Z</time>
      </trkpt>
      <trkpt lat="37.055395" lon="-3.36612833">
        <ele>3379.0</ele>
        <time>2022-11-20T11:49:42.000Z</time>
      </trkpt>
      <trkpt lat="37.055395" lon="-3.36612833">
        <ele>3379.0</ele>
        <time>2022-11-20T11:49:43.000Z</time>
      </trkpt>
      <trkpt lat="37.055395" lon="-3.36612833">
        <ele>3379.0</ele>
        <time>2022-11-20T11:49:44.000Z</time>
      </trkpt>
      <trkpt lat="37.055395" lon="-3.36612667">
        <ele>3379.0</ele>
        <time>2022-11-20T11:49:45.000Z</time>
      </trkpt>
      <trkpt lat="37.0554" lon="-3.36612667">
        <ele>3379.0</ele>
        <time>2022-11-20T11:49:46.000Z</time>
      </trkpt>
      <trkpt lat="37.05540833" lon="-3.36612667">
        <ele>3379.0</ele>
        <time>2022-11-20T11:49:47.000Z</time>
      </trkpt>
      <trkpt lat="37.05541667" lon="-3.36612833">
        <ele>3379.0</ele>
        <time>2022-11-20T11:49:48.000Z</time>
      </trkpt>
      <trkpt lat="37.05542667" lon="-3.36613333">
        <ele>3379.0</ele>
        <time>2022-11-20T11:49:49.000Z</time>
      </trkpt>
      <trkpt lat="37.055435" lon="-3.36613667">
        <ele>3379.0</ele>
        <time>2022-11-20T11:49:50.000Z</time>
      </trkpt>
      <trkpt lat="37.05544333" lon="-3.36613667">
        <ele>3379.0</ele>
        <time>2022-11-20T11:49:51.000Z</time>
      </trkpt>
      <trkpt lat="37.05545" lon="-3.366135">
        <ele>3379.0</ele>
        <time>2022-11-20T11:49:52.000Z</time>
      </trkpt>
      <trkpt lat="37.05545667" lon="-3.36613">
        <ele>3379.0</ele>
        <time>2022-11-20T11:49:53.000Z</time>
      </trkpt>
      <trkpt lat="37.05546333" lon="-3.36612667">
        <ele>3379.0</ele>
        <time>2022-11-20T11:49:54.000Z</time>
      </trkpt>
      <trkpt lat="37.05546833" lon="-3.36611833">
        <ele>3379.0</ele>
        <time>2022-11-20T11:49:55.000Z</time>
      </trkpt>
      <trkpt lat="37.055475" lon="-3.36611167">
        <ele>3379.0</ele>
        <time>2022-11-20T11:49:56.000Z</time>
      </trkpt>
      <trkpt lat="37.05548" lon="-3.366105">
        <ele>3379.0</ele>
        <time>2022-11-20T11:49:57.000Z</time>
      </trkpt>
      <trkpt lat="37.05549" lon="-3.3661">
        <ele>3379.0</ele>
        <time>2022-11-20T11:49:58.000Z</time>
      </trkpt>
      <trkpt lat="37.05549833" lon="-3.36609833">
        <ele>3379.0</ele>
        <time>2022-11-20T11:49:59.000Z</time>
      </trkpt>
      <trkpt lat="37.055505" lon="-3.36609667">
        <ele>3379.0</ele>
        <time>2022-11-20T11:50:00.000Z</time>
      </trkpt>
      <trkpt lat="37.05551" lon="-3.36609667">
        <ele>3379.0</ele>
        <time>2022-11-20T11:50:01.000Z</time>
      </trkpt>
      <trkpt lat="37.05551667" lon="-3.36609667">
        <ele>3380.0</ele>
        <time>2022-11-20T11:50:02.000Z</time>
      </trkpt>
      <trkpt lat="37.05552333" lon="-3.3661">
        <ele>3380.0</ele>
        <time>2022-11-20T11:50:03.000Z</time>
      </trkpt>
      <trkpt lat="37.05552833" lon="-3.3661">
        <ele>3380.0</ele>
        <time>2022-11-20T11:50:04.000Z</time>
      </trkpt>
      <trkpt lat="37.055535" lon="-3.36610167">
        <ele>3380.0</ele>
        <time>2022-11-20T11:50:05.000Z</time>
      </trkpt>
      <trkpt lat="37.05554167" lon="-3.36610167">
        <ele>3380.0</ele>
        <time>2022-11-20T11:50:06.000Z</time>
      </trkpt>
      <trkpt lat="37.05554667" lon="-3.36609833">
        <ele>3380.0</ele>
        <time>2022-11-20T11:50:07.000Z</time>
      </trkpt>
      <trkpt lat="37.05555167" lon="-3.36609833">
        <ele>3380.0</ele>
        <time>2022-11-20T11:50:08.000Z</time>
      </trkpt>
      <trkpt lat="37.05556" lon="-3.36609833">
        <ele>3380.0</ele>
        <time>2022-11-20T11:50:09.000Z</time>
      </trkpt>
      <trkpt lat="37.05556333" lon="-3.36609667">
        <ele>3381.0</ele>
        <time>2022-11-20T11:50:10.000Z</time>
      </trkpt>
      <trkpt lat="37.05556833" lon="-3.36609833">
        <ele>3381.0</ele>
        <time>2022-11-20T11:50:11.000Z</time>
      </trkpt>
      <trkpt lat="37.05557667" lon="-3.3661">
        <ele>3381.0</ele>
        <time>2022-11-20T11:50:12.000Z</time>
      </trkpt>
      <trkpt lat="37.05558333" lon="-3.36610333">
        <ele>3381.0</ele>
        <time>2022-11-20T11:50:13.000Z</time>
      </trkpt>
      <trkpt lat="37.05559" lon="-3.36610667">
        <ele>3381.0</ele>
        <time>2022-11-20T11:50:14.000Z</time>
      </trkpt>
      <trkpt lat="37.05559667" lon="-3.36610667">
        <ele>3381.0</ele>
        <time>2022-11-20T11:50:15.000Z</time>
      </trkpt>
      <trkpt lat="37.055605" lon="-3.36610833">
        <ele>3381.0</ele>
        <time>2022-11-20T11:50:16.000Z</time>
      </trkpt>
      <trkpt lat="37.055615" lon="-3.36610667">
        <ele>3381.0</ele>
        <time>2022-11-20T11:50:17.000Z</time>
      </trkpt>
      <trkpt lat="37.05562167" lon="-3.366105">
        <ele>3381.0</ele>
        <time>2022-11-20T11:50:18.000Z</time>
      </trkpt>
      <trkpt lat="37.05562833" lon="-3.366105">
        <ele>3381.0</ele>
        <time>2022-11-20T11:50:19.000Z</time>
      </trkpt>
      <trkpt lat="37.05563667" lon="-3.36610167">
        <ele>3381.0</ele>
        <time>2022-11-20T11:50:20.000Z</time>
      </trkpt>
      <trkpt lat="37.05564167" lon="-3.36609833">
        <ele>3381.0</ele>
        <time>2022-11-20T11:50:21.000Z</time>
      </trkpt>
      <trkpt lat="37.05564833" lon="-3.36609333">
        <ele>3381.0</ele>
        <time>2022-11-20T11:50:22.000Z</time>
      </trkpt>
      <trkpt lat="37.05565667" lon="-3.36608833">
        <ele>3381.0</ele>
        <time>2022-11-20T11:50:23.000Z</time>
      </trkpt>
      <trkpt lat="37.055665" lon="-3.36608333">
        <ele>3381.0</ele>
        <time>2022-11-20T11:50:24.000Z</time>
      </trkpt>
      <trkpt lat="37.05567167" lon="-3.36608">
        <ele>3382.0</ele>
        <time>2022-11-20T11:50:25.000Z</time>
      </trkpt>
      <trkpt lat="37.05568" lon="-3.36607833">
        <ele>3382.0</ele>
        <time>2022-11-20T11:50:26.000Z</time>
      </trkpt>
      <trkpt lat="37.05568667" lon="-3.36607833">
        <ele>3382.0</ele>
        <time>2022-11-20T11:50:27.000Z</time>
      </trkpt>
      <trkpt lat="37.05569333" lon="-3.36607667">
        <ele>3382.0</ele>
        <time>2022-11-20T11:50:28.000Z</time>
      </trkpt>
      <trkpt lat="37.05570333" lon="-3.36607167">
        <ele>3382.0</ele>
        <time>2022-11-20T11:50:29.000Z</time>
      </trkpt>
      <trkpt lat="37.05571167" lon="-3.36606833">
        <ele>3382.0</ele>
        <time>2022-11-20T11:50:30.000Z</time>
      </trkpt>
      <trkpt lat="37.05572" lon="-3.36606167">
        <ele>3382.0</ele>
        <time>2022-11-20T11:50:31.000Z</time>
      </trkpt>
      <trkpt lat="37.05573" lon="-3.36605833">
        <ele>3382.0</ele>
        <time>2022-11-20T11:50:32.000Z</time>
      </trkpt>
      <trkpt lat="37.05573667" lon="-3.36605167">
        <ele>3382.0</ele>
        <time>2022-11-20T11:50:33.000Z</time>
      </trkpt>
      <trkpt lat="37.055745" lon="-3.36604667">
        <ele>3383.0</ele>
        <time>2022-11-20T11:50:34.000Z</time>
      </trkpt>
      <trkpt lat="37.05575333" lon="-3.36604167">
        <ele>3383.0</ele>
        <time>2022-11-20T11:50:35.000Z</time>
      </trkpt>
      <trkpt lat="37.05576" lon="-3.36604">
        <ele>3383.0</ele>
        <time>2022-11-20T11:50:36.000Z</time>
      </trkpt>
      <trkpt lat="37.055765" lon="-3.36603667">
        <ele>3383.0</ele>
        <time>2022-11-20T11:50:37.000Z</time>
      </trkpt>
      <trkpt lat="37.05577167" lon="-3.36603333">
        <ele>3383.0</ele>
        <time>2022-11-20T11:50:38.000Z</time>
      </trkpt>
      <trkpt lat="37.055775" lon="-3.36603">
        <ele>3383.0</ele>
        <time>2022-11-20T11:50:39.000Z</time>
      </trkpt>
      <trkpt lat="37.05578" lon="-3.36602333">
        <ele>3383.0</ele>
        <time>2022-11-20T11:50:40.000Z</time>
      </trkpt>
      <trkpt lat="37.055785" lon="-3.36601667">
        <ele>3384.0</ele>
        <time>2022-11-20T11:50:41.000Z</time>
      </trkpt>
      <trkpt lat="37.05579" lon="-3.36601">
        <ele>3384.0</ele>
        <time>2022-11-20T11:50:42.000Z</time>
      </trkpt>
      <trkpt lat="37.055795" lon="-3.366005">
        <ele>3384.0</ele>
        <time>2022-11-20T11:50:43.000Z</time>
      </trkpt>
      <trkpt lat="37.0558" lon="-3.366">
        <ele>3384.0</ele>
        <time>2022-11-20T11:50:44.000Z</time>
      </trkpt>
      <trkpt lat="37.05580167" lon="-3.36599333">
        <ele>3384.0</ele>
        <time>2022-11-20T11:50:45.000Z</time>
      </trkpt>
      <trkpt lat="37.05580333" lon="-3.36598833">
        <ele>3385.0</ele>
        <time>2022-11-20T11:50:46.000Z</time>
      </trkpt>
      <trkpt lat="37.055805" lon="-3.36598167">
        <ele>3385.0</ele>
        <time>2022-11-20T11:50:47.000Z</time>
      </trkpt>
      <trkpt lat="37.05580833" lon="-3.365975">
        <ele>3385.0</ele>
        <time>2022-11-20T11:50:48.000Z</time>
      </trkpt>
      <trkpt lat="37.05580833" lon="-3.36597">
        <ele>3385.0</ele>
        <time>2022-11-20T11:50:49.000Z</time>
      </trkpt>
      <trkpt lat="37.05581333" lon="-3.365965">
        <ele>3385.0</ele>
        <time>2022-11-20T11:50:50.000Z</time>
      </trkpt>
      <trkpt lat="37.05581833" lon="-3.36596167">
        <ele>3385.0</ele>
        <time>2022-11-20T11:50:51.000Z</time>
      </trkpt>
      <trkpt lat="37.05582333" lon="-3.36595833">
        <ele>3385.0</ele>
        <time>2022-11-20T11:50:52.000Z</time>
      </trkpt>
      <trkpt lat="37.05582667" lon="-3.36595667">
        <ele>3386.0</ele>
        <time>2022-11-20T11:50:53.000Z</time>
      </trkpt>
      <trkpt lat="37.05583167" lon="-3.36595167">
        <ele>3386.0</ele>
        <time>2022-11-20T11:50:54.000Z</time>
      </trkpt>
      <trkpt lat="37.05583833" lon="-3.365945">
        <ele>3386.0</ele>
        <time>2022-11-20T11:50:55.000Z</time>
      </trkpt>
      <trkpt lat="37.05583833" lon="-3.36594">
        <ele>3386.0</ele>
        <time>2022-11-20T11:50:56.000Z</time>
      </trkpt>
      <trkpt lat="37.05584167" lon="-3.36593667">
        <ele>3386.0</ele>
        <time>2022-11-20T11:50:57.000Z</time>
      </trkpt>
      <trkpt lat="37.05584333" lon="-3.36593333">
        <ele>3386.0</ele>
        <time>2022-11-20T11:50:58.000Z</time>
      </trkpt>
      <trkpt lat="37.055845" lon="-3.36593167">
        <ele>3386.0</ele>
        <time>2022-11-20T11:50:59.000Z</time>
      </trkpt>
      <trkpt lat="37.055845" lon="-3.36593">
        <ele>3387.0</ele>
        <time>2022-11-20T11:51:00.000Z</time>
      </trkpt>
      <trkpt lat="37.055845" lon="-3.36592667">
        <ele>3387.0</ele>
        <time>2022-11-20T11:51:01.000Z</time>
      </trkpt>
      <trkpt lat="37.055845" lon="-3.36592333">
        <ele>3387.0</ele>
        <time>2022-11-20T11:51:02.000Z</time>
      </trkpt>
      <trkpt lat="37.05584667" lon="-3.36592">
        <ele>3387.0</ele>
        <time>2022-11-20T11:51:03.000Z</time>
      </trkpt>
      <trkpt lat="37.05584833" lon="-3.36591833">
        <ele>3387.0</ele>
        <time>2022-11-20T11:51:04.000Z</time>
      </trkpt>
      <trkpt lat="37.05584833" lon="-3.36591833">
        <ele>3388.0</ele>
        <time>2022-11-20T11:51:05.000Z</time>
      </trkpt>
      <trkpt lat="37.05584833" lon="-3.36591333">
        <ele>3388.0</ele>
        <time>2022-11-20T11:51:06.000Z</time>
      </trkpt>
      <trkpt lat="37.05585" lon="-3.36590833">
        <ele>3388.0</ele>
        <time>2022-11-20T11:51:07.000Z</time>
      </trkpt>
      <trkpt lat="37.05585333" lon="-3.3659">
        <ele>3388.0</ele>
        <time>2022-11-20T11:51:08.000Z</time>
      </trkpt>
      <trkpt lat="37.055855" lon="-3.36589333">
        <ele>3388.0</ele>
        <time>2022-11-20T11:51:09.000Z</time>
      </trkpt>
      <trkpt lat="37.05586333" lon="-3.36588833">
        <ele>3388.0</ele>
        <time>2022-11-20T11:51:10.000Z</time>
      </trkpt>
      <trkpt lat="37.05586833" lon="-3.365885">
        <ele>3389.0</ele>
        <time>2022-11-20T11:51:11.000Z</time>
      </trkpt>
      <trkpt lat="37.05587333" lon="-3.365885">
        <ele>3389.0</ele>
        <time>2022-11-20T11:51:12.000Z</time>
      </trkpt>
      <trkpt lat="37.055875" lon="-3.36587833">
        <ele>3389.0</ele>
        <time>2022-11-20T11:51:13.000Z</time>
      </trkpt>
      <trkpt lat="37.05588167" lon="-3.365875">
        <ele>3389.0</ele>
        <time>2022-11-20T11:51:14.000Z</time>
      </trkpt>
      <trkpt lat="37.055885" lon="-3.36587333">
        <ele>3389.0</ele>
        <time>2022-11-20T11:51:15.000Z</time>
      </trkpt>
      <trkpt lat="37.05589333" lon="-3.36586833">
        <ele>3389.0</ele>
        <time>2022-11-20T11:51:16.000Z</time>
      </trkpt>
      <trkpt lat="37.0559" lon="-3.36586167">
        <ele>3389.0</ele>
        <time>2022-11-20T11:51:17.000Z</time>
      </trkpt>
      <trkpt lat="37.055905" lon="-3.36585667">
        <ele>3389.0</ele>
        <time>2022-11-20T11:51:18.000Z</time>
      </trkpt>
      <trkpt lat="37.05590833" lon="-3.36585">
        <ele>3389.0</ele>
        <time>2022-11-20T11:51:19.000Z</time>
      </trkpt>
      <trkpt lat="37.05591" lon="-3.36584333">
        <ele>3390.0</ele>
        <time>2022-11-20T11:51:20.000Z</time>
      </trkpt>
      <trkpt lat="37.05591" lon="-3.36583667">
        <ele>3390.0</ele>
        <time>2022-11-20T11:51:21.000Z</time>
      </trkpt>
      <trkpt lat="37.05591" lon="-3.36583333">
        <ele>3390.0</ele>
        <time>2022-11-20T11:51:22.000Z</time>
      </trkpt>
      <trkpt lat="37.05590833" lon="-3.36583167">
        <ele>3390.0</ele>
        <time>2022-11-20T11:51:23.000Z</time>
      </trkpt>
      <trkpt lat="37.05590833" lon="-3.36583">
        <ele>3390.0</ele>
        <time>2022-11-20T11:51:24.000Z</time>
      </trkpt>
      <trkpt lat="37.05590667" lon="-3.36582667">
        <ele>3390.0</ele>
        <time>2022-11-20T11:51:25.000Z</time>
      </trkpt>
      <trkpt lat="37.05591" lon="-3.36582">
        <ele>3390.0</ele>
        <time>2022-11-20T11:51:26.000Z</time>
      </trkpt>
      <trkpt lat="37.05591167" lon="-3.365815">
        <ele>3390.0</ele>
        <time>2022-11-20T11:51:27.000Z</time>
      </trkpt>
      <trkpt lat="37.055915" lon="-3.36580833">
        <ele>3391.0</ele>
        <time>2022-11-20T11:51:28.000Z</time>
      </trkpt>
      <trkpt lat="37.05592" lon="-3.36580167">
        <ele>3391.0</ele>
        <time>2022-11-20T11:51:29.000Z</time>
      </trkpt>
      <trkpt lat="37.055925" lon="-3.36579667">
        <ele>3391.0</ele>
        <time>2022-11-20T11:51:30.000Z</time>
      </trkpt>
      <trkpt lat="37.05593" lon="-3.36579167">
        <ele>3391.0</ele>
        <time>2022-11-20T11:51:31.000Z</time>
      </trkpt>
      <trkpt lat="37.055935" lon="-3.365785">
        <ele>3391.0</ele>
        <time>2022-11-20T11:51:32.000Z</time>
      </trkpt>
      <trkpt lat="37.05593833" lon="-3.36578167">
        <ele>3391.0</ele>
        <time>2022-11-20T11:51:33.000Z</time>
      </trkpt>
      <trkpt lat="37.055945" lon="-3.365775">
        <ele>3391.0</ele>
        <time>2022-11-20T11:51:34.000Z</time>
      </trkpt>
      <trkpt lat="37.05595" lon="-3.36577167">
        <ele>3392.0</ele>
        <time>2022-11-20T11:51:35.000Z</time>
      </trkpt>
      <trkpt lat="37.05595667" lon="-3.36577">
        <ele>3392.0</ele>
        <time>2022-11-20T11:51:36.000Z</time>
      </trkpt>
      <trkpt lat="37.05596" lon="-3.365765">
        <ele>3392.0</ele>
        <time>2022-11-20T11:51:37.000Z</time>
      </trkpt>
      <trkpt lat="37.05596333" lon="-3.36576">
        <ele>3392.0</ele>
        <time>2022-11-20T11:51:38.000Z</time>
      </trkpt>
      <trkpt lat="37.055965" lon="-3.365755">
        <ele>3392.0</ele>
        <time>2022-11-20T11:51:39.000Z</time>
      </trkpt>
      <trkpt lat="37.05596667" lon="-3.36575">
        <ele>3392.0</ele>
        <time>2022-11-20T11:51:40.000Z</time>
      </trkpt>
      <trkpt lat="37.05597167" lon="-3.365745">
        <ele>3393.0</ele>
        <time>2022-11-20T11:51:41.000Z</time>
      </trkpt>
      <trkpt lat="37.055975" lon="-3.36574167">
        <ele>3393.0</ele>
        <time>2022-11-20T11:51:42.000Z</time>
      </trkpt>
      <trkpt lat="37.05597833" lon="-3.36574">
        <ele>3393.0</ele>
        <time>2022-11-20T11:51:43.000Z</time>
      </trkpt>
      <trkpt lat="37.05598167" lon="-3.36573667">
        <ele>3393.0</ele>
        <time>2022-11-20T11:51:44.000Z</time>
      </trkpt>
      <trkpt lat="37.05598833" lon="-3.36573333">
        <ele>3393.0</ele>
        <time>2022-11-20T11:51:45.000Z</time>
      </trkpt>
      <trkpt lat="37.05599333" lon="-3.36573167">
        <ele>3394.0</ele>
        <time>2022-11-20T11:51:46.000Z</time>
      </trkpt>
      <trkpt lat="37.05599667" lon="-3.36573167">
        <ele>3394.0</ele>
        <time>2022-11-20T11:51:47.000Z</time>
      </trkpt>
      <trkpt lat="37.056" lon="-3.36573">
        <ele>3394.0</ele>
        <time>2022-11-20T11:51:48.000Z</time>
      </trkpt>
      <trkpt lat="37.05600167" lon="-3.36572333">
        <ele>3394.0</ele>
        <time>2022-11-20T11:51:49.000Z</time>
      </trkpt>
      <trkpt lat="37.056005" lon="-3.36571833">
        <ele>3394.0</ele>
        <time>2022-11-20T11:51:50.000Z</time>
      </trkpt>
      <trkpt lat="37.05601" lon="-3.36571333">
        <ele>3394.0</ele>
        <time>2022-11-20T11:51:51.000Z</time>
      </trkpt>
      <trkpt lat="37.05601" lon="-3.36571167">
        <ele>3395.0</ele>
        <time>2022-11-20T11:51:52.000Z</time>
      </trkpt>
      <trkpt lat="37.05601167" lon="-3.36571">
        <ele>3395.0</ele>
        <time>2022-11-20T11:51:53.000Z</time>
      </trkpt>
      <trkpt lat="37.05601167" lon="-3.36571">
        <ele>3395.0</ele>
        <time>2022-11-20T11:51:54.000Z</time>
      </trkpt>
      <trkpt lat="37.05601333" lon="-3.36571">
        <ele>3395.0</ele>
        <time>2022-11-20T11:51:55.000Z</time>
      </trkpt>
      <trkpt lat="37.05601167" lon="-3.36570833">
        <ele>3395.0</ele>
        <time>2022-11-20T11:51:56.000Z</time>
      </trkpt>
      <trkpt lat="37.05601333" lon="-3.365705">
        <ele>3395.0</ele>
        <time>2022-11-20T11:51:57.000Z</time>
      </trkpt>
      <trkpt lat="37.05601833" lon="-3.3657">
        <ele>3395.0</ele>
        <time>2022-11-20T11:51:58.000Z</time>
      </trkpt>
      <trkpt lat="37.05602167" lon="-3.36569667">
        <ele>3395.0</ele>
        <time>2022-11-20T11:51:59.000Z</time>
      </trkpt>
      <trkpt lat="37.056025" lon="-3.36569333">
        <ele>3395.0</ele>
        <time>2022-11-20T11:52:00.000Z</time>
      </trkpt>
      <trkpt lat="37.05602667" lon="-3.36569167">
        <ele>3395.0</ele>
        <time>2022-11-20T11:52:01.000Z</time>
      </trkpt>
      <trkpt lat="37.05603" lon="-3.36568833">
        <ele>3396.0</ele>
        <time>2022-11-20T11:52:02.000Z</time>
      </trkpt>
      <trkpt lat="37.05603" lon="-3.36568667">
        <ele>3396.0</ele>
        <time>2022-11-20T11:52:03.000Z</time>
      </trkpt>
      <trkpt lat="37.05603167" lon="-3.36568333">
        <ele>3396.0</ele>
        <time>2022-11-20T11:52:04.000Z</time>
      </trkpt>
      <trkpt lat="37.05603333" lon="-3.36568">
        <ele>3396.0</ele>
        <time>2022-11-20T11:52:05.000Z</time>
      </trkpt>
      <trkpt lat="37.05603333" lon="-3.36567833">
        <ele>3396.0</ele>
        <time>2022-11-20T11:52:06.000Z</time>
      </trkpt>
      <trkpt lat="37.05603167" lon="-3.36568">
        <ele>3396.0</ele>
        <time>2022-11-20T11:52:07.000Z</time>
      </trkpt>
      <trkpt lat="37.05603167" lon="-3.36568">
        <ele>3396.0</ele>
        <time>2022-11-20T11:52:08.000Z</time>
      </trkpt>
      <trkpt lat="37.05603333" lon="-3.36568">
        <ele>3396.0</ele>
        <time>2022-11-20T11:52:09.000Z</time>
      </trkpt>
      <trkpt lat="37.05603333" lon="-3.36568167">
        <ele>3396.0</ele>
        <time>2022-11-20T11:52:10.000Z</time>
      </trkpt>
      <trkpt lat="37.05603333" lon="-3.36567833">
        <ele>3396.0</ele>
        <time>2022-11-20T11:52:11.000Z</time>
      </trkpt>
      <trkpt lat="37.05603333" lon="-3.36567833">
        <ele>3396.0</ele>
        <time>2022-11-20T11:52:12.000Z</time>
      </trkpt>
      <trkpt lat="37.05603167" lon="-3.36567833">
        <ele>3396.0</ele>
        <time>2022-11-20T11:52:13.000Z</time>
      </trkpt>
      <trkpt lat="37.05603167" lon="-3.36567833">
        <ele>3396.0</ele>
        <time>2022-11-20T11:52:14.000Z</time>
      </trkpt>
      <trkpt lat="37.05603167" lon="-3.36567833">
        <ele>3396.0</ele>
        <time>2022-11-20T11:52:15.000Z</time>
      </trkpt>
      <trkpt lat="37.05603333" lon="-3.36567833">
        <ele>3396.0</ele>
        <time>2022-11-20T11:52:16.000Z</time>
      </trkpt>
      <trkpt lat="37.05603333" lon="-3.36567833">
        <ele>3396.0</ele>
        <time>2022-11-20T11:52:17.000Z</time>
      </trkpt>
      <trkpt lat="37.05603333" lon="-3.36568">
        <ele>3396.0</ele>
        <time>2022-11-20T11:52:18.000Z</time>
      </trkpt>
      <trkpt lat="37.05603333" lon="-3.36568">
        <ele>3396.0</ele>
        <time>2022-11-20T11:52:19.000Z</time>
      </trkpt>
      <trkpt lat="37.05603167" lon="-3.36568">
        <ele>3396.0</ele>
        <time>2022-11-20T11:52:20.000Z</time>
      </trkpt>
      <trkpt lat="37.05603167" lon="-3.36568">
        <ele>3396.0</ele>
        <time>2022-11-20T11:52:21.000Z</time>
      </trkpt>
      <trkpt lat="37.05603167" lon="-3.36568167">
        <ele>3396.0</ele>
        <time>2022-11-20T11:52:22.000Z</time>
      </trkpt>
      <trkpt lat="37.05603167" lon="-3.36568167">
        <ele>3396.0</ele>
        <time>2022-11-20T11:52:23.000Z</time>
      </trkpt>
      <trkpt lat="37.05603167" lon="-3.36568">
        <ele>3396.0</ele>
        <time>2022-11-20T11:52:24.000Z</time>
      </trkpt>
      <trkpt lat="37.05603" lon="-3.36568">
        <ele>3396.0</ele>
        <time>2022-11-20T11:52:25.000Z</time>
      </trkpt>
      <trkpt lat="37.05603" lon="-3.36567833">
        <ele>3396.0</ele>
        <time>2022-11-20T11:52:26.000Z</time>
      </trkpt>
      <trkpt lat="37.05603167" lon="-3.36567333">
        <ele>3396.0</ele>
        <time>2022-11-20T11:52:27.000Z</time>
      </trkpt>
      <trkpt lat="37.05603167" lon="-3.36567">
        <ele>3396.0</ele>
        <time>2022-11-20T11:52:28.000Z</time>
      </trkpt>
      <trkpt lat="37.05603333" lon="-3.365665">
        <ele>3397.0</ele>
        <time>2022-11-20T11:52:29.000Z</time>
      </trkpt>
      <trkpt lat="37.05603333" lon="-3.36566333">
        <ele>3397.0</ele>
        <time>2022-11-20T11:52:30.000Z</time>
      </trkpt>
      <trkpt lat="37.05603333" lon="-3.365665">
        <ele>3397.0</ele>
        <time>2022-11-20T11:52:31.000Z</time>
      </trkpt>
      <trkpt lat="37.05603333" lon="-3.365665">
        <ele>3397.0</ele>
        <time>2022-11-20T11:52:32.000Z</time>
      </trkpt>
      <trkpt lat="37.05603333" lon="-3.365665">
        <ele>3397.0</ele>
        <time>2022-11-20T11:52:33.000Z</time>
      </trkpt>
      <trkpt lat="37.05603333" lon="-3.365665">
        <ele>3397.0</ele>
        <time>2022-11-20T11:52:34.000Z</time>
      </trkpt>
      <trkpt lat="37.05603333" lon="-3.365665">
        <ele>3397.0</ele>
        <time>2022-11-20T11:52:35.000Z</time>
      </trkpt>
      <trkpt lat="37.05603333" lon="-3.36566667">
        <ele>3397.0</ele>
        <time>2022-11-20T11:52:36.000Z</time>
      </trkpt>
      <trkpt lat="37.05603333" lon="-3.365665">
        <ele>3397.0</ele>
        <time>2022-11-20T11:52:37.000Z</time>
      </trkpt>
      <trkpt lat="37.056035" lon="-3.365665">
        <ele>3397.0</ele>
        <time>2022-11-20T11:52:38.000Z</time>
      </trkpt>
      <trkpt lat="37.05603333" lon="-3.365665">
        <ele>3397.0</ele>
        <time>2022-11-20T11:52:39.000Z</time>
      </trkpt>
      <trkpt lat="37.05603333" lon="-3.365665">
        <ele>3397.0</ele>
        <time>2022-11-20T11:52:40.000Z</time>
      </trkpt>
      <trkpt lat="37.056035" lon="-3.365665">
        <ele>3397.0</ele>
        <time>2022-11-20T11:52:41.000Z</time>
      </trkpt>
      <trkpt lat="37.05603667" lon="-3.365665">
        <ele>3397.0</ele>
        <time>2022-11-20T11:52:42.000Z</time>
      </trkpt>
      <trkpt lat="37.05603833" lon="-3.365665">
        <ele>3397.0</ele>
        <time>2022-11-20T11:52:43.000Z</time>
      </trkpt>
      <trkpt lat="37.05603833" lon="-3.36566333">
        <ele>3397.0</ele>
        <time>2022-11-20T11:52:44.000Z</time>
      </trkpt>
      <trkpt lat="37.05603667" lon="-3.36566167">
        <ele>3397.0</ele>
        <time>2022-11-20T11:52:45.000Z</time>
      </trkpt>
      <trkpt lat="37.05603667" lon="-3.36566167">
        <ele>3397.0</ele>
        <time>2022-11-20T11:52:46.000Z</time>
      </trkpt>
      <trkpt lat="37.05603667" lon="-3.36566">
        <ele>3397.0</ele>
        <time>2022-11-20T11:52:47.000Z</time>
      </trkpt>
      <trkpt lat="37.05603667" lon="-3.36566">
        <ele>3397.0</ele>
        <time>2022-11-20T11:52:48.000Z</time>
      </trkpt>
      <trkpt lat="37.05603667" lon="-3.36566">
        <ele>3397.0</ele>
        <time>2022-11-20T11:52:49.000Z</time>
      </trkpt>
      <trkpt lat="37.05603667" lon="-3.36566167">
        <ele>3397.0</ele>
        <time>2022-11-20T11:52:50.000Z</time>
      </trkpt>
      <trkpt lat="37.05603667" lon="-3.36566167">
        <ele>3397.0</ele>
        <time>2022-11-20T11:52:51.000Z</time>
      </trkpt>
      <trkpt lat="37.05603667" lon="-3.36566167">
        <ele>3397.0</ele>
        <time>2022-11-20T11:52:52.000Z</time>
      </trkpt>
      <trkpt lat="37.05603667" lon="-3.36566167">
        <ele>3397.0</ele>
        <time>2022-11-20T11:52:53.000Z</time>
      </trkpt>
      <trkpt lat="37.05603667" lon="-3.36566167">
        <ele>3397.0</ele>
        <time>2022-11-20T11:52:54.000Z</time>
      </trkpt>
      <trkpt lat="37.05603667" lon="-3.36566167">
        <ele>3397.0</ele>
        <time>2022-11-20T11:52:55.000Z</time>
      </trkpt>
      <trkpt lat="37.05603667" lon="-3.36566167">
        <ele>3397.0</ele>
        <time>2022-11-20T11:52:56.000Z</time>
      </trkpt>
      <trkpt lat="37.05603667" lon="-3.36566333">
        <ele>3397.0</ele>
        <time>2022-11-20T11:52:57.000Z</time>
      </trkpt>
      <trkpt lat="37.05603667" lon="-3.36566333">
        <ele>3397.0</ele>
        <time>2022-11-20T11:52:58.000Z</time>
      </trkpt>
      <trkpt lat="37.05603667" lon="-3.36566333">
        <ele>3397.0</ele>
        <time>2022-11-20T11:52:59.000Z</time>
      </trkpt>
      <trkpt lat="37.05603667" lon="-3.36566333">
        <ele>3397.0</ele>
        <time>2022-11-20T11:53:00.000Z</time>
      </trkpt>
      <trkpt lat="37.05603667" lon="-3.36566333">
        <ele>3397.0</ele>
        <time>2022-11-20T11:53:01.000Z</time>
      </trkpt>
      <trkpt lat="37.05603667" lon="-3.36566333">
        <ele>3397.0</ele>
        <time>2022-11-20T11:53:02.000Z</time>
      </trkpt>
      <trkpt lat="37.05603667" lon="-3.36566333">
        <ele>3397.0</ele>
        <time>2022-11-20T11:53:03.000Z</time>
      </trkpt>
      <trkpt lat="37.05603667" lon="-3.36566333">
        <ele>3397.0</ele>
        <time>2022-11-20T11:53:04.000Z</time>
      </trkpt>
      <trkpt lat="37.05603667" lon="-3.36566333">
        <ele>3397.0</ele>
        <time>2022-11-20T11:53:05.000Z</time>
      </trkpt>
      <trkpt lat="37.05603667" lon="-3.36566333">
        <ele>3397.0</ele>
        <time>2022-11-20T11:53:06.000Z</time>
      </trkpt>
      <trkpt lat="37.05603667" lon="-3.36566333">
        <ele>3397.0</ele>
        <time>2022-11-20T11:53:07.000Z</time>
      </trkpt>
      <trkpt lat="37.05603833" lon="-3.36566333">
        <ele>3397.0</ele>
        <time>2022-11-20T11:53:08.000Z</time>
      </trkpt>
      <trkpt lat="37.05603667" lon="-3.36566333">
        <ele>3397.0</ele>
        <time>2022-11-20T11:53:09.000Z</time>
      </trkpt>
      <trkpt lat="37.056035" lon="-3.365665">
        <ele>3397.0</ele>
        <time>2022-11-20T11:53:10.000Z</time>
      </trkpt>
      <trkpt lat="37.05603333" lon="-3.36566667">
        <ele>3397.0</ele>
        <time>2022-11-20T11:53:11.000Z</time>
      </trkpt>
      <trkpt lat="37.05603333" lon="-3.365665">
        <ele>3397.0</ele>
        <time>2022-11-20T11:53:12.000Z</time>
      </trkpt>
      <trkpt lat="37.05603333" lon="-3.365665">
        <ele>3397.0</ele>
        <time>2022-11-20T11:53:13.000Z</time>
      </trkpt>
      <trkpt lat="37.05603333" lon="-3.365665">
        <ele>3397.0</ele>
        <time>2022-11-20T11:53:14.000Z</time>
      </trkpt>
      <trkpt lat="37.05603333" lon="-3.365665">
        <ele>3397.0</ele>
        <time>2022-11-20T11:53:15.000Z</time>
      </trkpt>
      <trkpt lat="37.056035" lon="-3.36566667">
        <ele>3397.0</ele>
        <time>2022-11-20T11:53:16.000Z</time>
      </trkpt>
      <trkpt lat="37.05603667" lon="-3.36566667">
        <ele>3397.0</ele>
        <time>2022-11-20T11:53:17.000Z</time>
      </trkpt>
      <trkpt lat="37.05603667" lon="-3.36566833">
        <ele>3397.0</ele>
        <time>2022-11-20T11:53:18.000Z</time>
      </trkpt>
      <trkpt lat="37.05603667" lon="-3.36566833">
        <ele>3397.0</ele>
        <time>2022-11-20T11:53:19.000Z</time>
      </trkpt>
      <trkpt lat="37.056035" lon="-3.36567167">
        <ele>3397.0</ele>
        <time>2022-11-20T11:53:20.000Z</time>
      </trkpt>
      <trkpt lat="37.05603167" lon="-3.365675">
        <ele>3397.0</ele>
        <time>2022-11-20T11:53:21.000Z</time>
      </trkpt>
      <trkpt lat="37.05603" lon="-3.36567333">
        <ele>3397.0</ele>
        <time>2022-11-20T11:53:22.000Z</time>
      </trkpt>
      <trkpt lat="37.05603" lon="-3.36567333">
        <ele>3397.0</ele>
        <time>2022-11-20T11:53:23.000Z</time>
      </trkpt>
      <trkpt lat="37.05603" lon="-3.36567333">
        <ele>3397.0</ele>
        <time>2022-11-20T11:53:24.000Z</time>
      </trkpt>
      <trkpt lat="37.05603" lon="-3.365675">
        <ele>3397.0</ele>
        <time>2022-11-20T11:53:25.000Z</time>
      </trkpt>
      <trkpt lat="37.05602833" lon="-3.365675">
        <ele>3397.0</ele>
        <time>2022-11-20T11:53:26.000Z</time>
      </trkpt>
      <trkpt lat="37.05602667" lon="-3.36567333">
        <ele>3397.0</ele>
        <time>2022-11-20T11:53:27.000Z</time>
      </trkpt>
      <trkpt lat="37.05602667" lon="-3.36567333">
        <ele>3397.0</ele>
        <time>2022-11-20T11:53:28.000Z</time>
      </trkpt>
      <trkpt lat="37.05602667" lon="-3.36567333">
        <ele>3397.0</ele>
        <time>2022-11-20T11:53:29.000Z</time>
      </trkpt>
      <trkpt lat="37.05602667" lon="-3.36567333">
        <ele>3397.0</ele>
        <time>2022-11-20T11:53:30.000Z</time>
      </trkpt>
      <trkpt lat="37.05602833" lon="-3.365675">
        <ele>3397.0</ele>
        <time>2022-11-20T11:53:31.000Z</time>
      </trkpt>
      <trkpt lat="37.05602833" lon="-3.365675">
        <ele>3397.0</ele>
        <time>2022-11-20T11:53:32.000Z</time>
      </trkpt>
      <trkpt lat="37.05602833" lon="-3.365675">
        <ele>3397.0</ele>
        <time>2022-11-20T11:53:33.000Z</time>
      </trkpt>
      <trkpt lat="37.05602833" lon="-3.365675">
        <ele>3397.0</ele>
        <time>2022-11-20T11:53:34.000Z</time>
      </trkpt>
      <trkpt lat="37.05602833" lon="-3.365675">
        <ele>3397.0</ele>
        <time>2022-11-20T11:53:35.000Z</time>
      </trkpt>
      <trkpt lat="37.05602833" lon="-3.365675">
        <ele>3397.0</ele>
        <time>2022-11-20T11:53:36.000Z</time>
      </trkpt>
      <trkpt lat="37.05602833" lon="-3.365675">
        <ele>3397.0</ele>
        <time>2022-11-20T11:53:37.000Z</time>
      </trkpt>
      <trkpt lat="37.05602833" lon="-3.365675">
        <ele>3397.0</ele>
        <time>2022-11-20T11:53:38.000Z</time>
      </trkpt>
      <trkpt lat="37.05602667" lon="-3.36567667">
        <ele>3397.0</ele>
        <time>2022-11-20T11:53:39.000Z</time>
      </trkpt>
      <trkpt lat="37.05602667" lon="-3.36567667">
        <ele>3397.0</ele>
        <time>2022-11-20T11:53:40.000Z</time>
      </trkpt>
      <trkpt lat="37.05602667" lon="-3.36567667">
        <ele>3397.0</ele>
        <time>2022-11-20T11:53:41.000Z</time>
      </trkpt>
      <trkpt lat="37.05602667" lon="-3.36567667">
        <ele>3397.0</ele>
        <time>2022-11-20T11:53:42.000Z</time>
      </trkpt>
      <trkpt lat="37.05602833" lon="-3.36568">
        <ele>3397.0</ele>
        <time>2022-11-20T11:53:43.000Z</time>
      </trkpt>
      <trkpt lat="37.05602833" lon="-3.36568167">
        <ele>3397.0</ele>
        <time>2022-11-20T11:53:44.000Z</time>
      </trkpt>
      <trkpt lat="37.05602833" lon="-3.36568167">
        <ele>3397.0</ele>
        <time>2022-11-20T11:53:45.000Z</time>
      </trkpt>
      <trkpt lat="37.05602833" lon="-3.36568167">
        <ele>3397.0</ele>
        <time>2022-11-20T11:53:46.000Z</time>
      </trkpt>
      <trkpt lat="37.05603" lon="-3.36568167">
        <ele>3397.0</ele>
        <time>2022-11-20T11:53:47.000Z</time>
      </trkpt>
      <trkpt lat="37.05603" lon="-3.36568333">
        <ele>3397.0</ele>
        <time>2022-11-20T11:53:48.000Z</time>
      </trkpt>
      <trkpt lat="37.05603" lon="-3.36568333">
        <ele>3397.0</ele>
        <time>2022-11-20T11:53:49.000Z</time>
      </trkpt>
      <trkpt lat="37.05603167" lon="-3.36568333">
        <ele>3397.0</ele>
        <time>2022-11-20T11:53:50.000Z</time>
      </trkpt>
      <trkpt lat="37.05603167" lon="-3.36568333">
        <ele>3397.0</ele>
        <time>2022-11-20T11:53:51.000Z</time>
      </trkpt>
      <trkpt lat="37.05603" lon="-3.36568333">
        <ele>3397.0</ele>
        <time>2022-11-20T11:53:52.000Z</time>
      </trkpt>
      <trkpt lat="37.05603167" lon="-3.36568333">
        <ele>3397.0</ele>
        <time>2022-11-20T11:53:53.000Z</time>
      </trkpt>
      <trkpt lat="37.05602833" lon="-3.36568167">
        <ele>3397.0</ele>
        <time>2022-11-20T11:53:54.000Z</time>
      </trkpt>
      <trkpt lat="37.05602833" lon="-3.36568167">
        <ele>3397.0</ele>
        <time>2022-11-20T11:53:55.000Z</time>
      </trkpt>
      <trkpt lat="37.05602833" lon="-3.36568333">
        <ele>3397.0</ele>
        <time>2022-11-20T11:53:56.000Z</time>
      </trkpt>
      <trkpt lat="37.05602833" lon="-3.36568333">
        <ele>3397.0</ele>
        <time>2022-11-20T11:53:57.000Z</time>
      </trkpt>
      <trkpt lat="37.05602833" lon="-3.36568333">
        <ele>3397.0</ele>
        <time>2022-11-20T11:53:58.000Z</time>
      </trkpt>
      <trkpt lat="37.05603" lon="-3.36568333">
        <ele>3397.0</ele>
        <time>2022-11-20T11:53:59.000Z</time>
      </trkpt>
      <trkpt lat="37.05603" lon="-3.36568333">
        <ele>3397.0</ele>
        <time>2022-11-20T11:54:00.000Z</time>
      </trkpt>
      <trkpt lat="37.05602833" lon="-3.36568167">
        <ele>3397.0</ele>
        <time>2022-11-20T11:54:01.000Z</time>
      </trkpt>
      <trkpt lat="37.05603" lon="-3.36568167">
        <ele>3397.0</ele>
        <time>2022-11-20T11:54:02.000Z</time>
      </trkpt>
      <trkpt lat="37.05603" lon="-3.36568167">
        <ele>3396.0</ele>
        <time>2022-11-20T11:54:03.000Z</time>
      </trkpt>
      <trkpt lat="37.05603" lon="-3.36568333">
        <ele>3396.0</ele>
        <time>2022-11-20T11:54:04.000Z</time>
      </trkpt>
      <trkpt lat="37.05603" lon="-3.365685">
        <ele>3396.0</ele>
        <time>2022-11-20T11:54:05.000Z</time>
      </trkpt>
      <trkpt lat="37.05603" lon="-3.36568667">
        <ele>3396.0</ele>
        <time>2022-11-20T11:54:06.000Z</time>
      </trkpt>
      <trkpt lat="37.05603" lon="-3.365685">
        <ele>3396.0</ele>
        <time>2022-11-20T11:54:07.000Z</time>
      </trkpt>
      <trkpt lat="37.05603" lon="-3.365685">
        <ele>3396.0</ele>
        <time>2022-11-20T11:54:08.000Z</time>
      </trkpt>
      <trkpt lat="37.05602667" lon="-3.36568833">
        <ele>3396.0</ele>
        <time>2022-11-20T11:54:09.000Z</time>
      </trkpt>
      <trkpt lat="37.05602" lon="-3.36569">
        <ele>3396.0</ele>
        <time>2022-11-20T11:54:10.000Z</time>
      </trkpt>
      <trkpt lat="37.05601667" lon="-3.36568667">
        <ele>3396.0</ele>
        <time>2022-11-20T11:54:11.000Z</time>
      </trkpt>
      <trkpt lat="37.056015" lon="-3.36568333">
        <ele>3396.0</ele>
        <time>2022-11-20T11:54:12.000Z</time>
      </trkpt>
      <trkpt lat="37.056015" lon="-3.36568333">
        <ele>3396.0</ele>
        <time>2022-11-20T11:54:13.000Z</time>
      </trkpt>
      <trkpt lat="37.05601667" lon="-3.36568333">
        <ele>3396.0</ele>
        <time>2022-11-20T11:54:14.000Z</time>
      </trkpt>
      <trkpt lat="37.05601833" lon="-3.36568333">
        <ele>3396.0</ele>
        <time>2022-11-20T11:54:15.000Z</time>
      </trkpt>
      <trkpt lat="37.05601833" lon="-3.36568333">
        <ele>3396.0</ele>
        <time>2022-11-20T11:54:16.000Z</time>
      </trkpt>
      <trkpt lat="37.05601833" lon="-3.36568333">
        <ele>3396.0</ele>
        <time>2022-11-20T11:54:17.000Z</time>
      </trkpt>
      <trkpt lat="37.05602" lon="-3.36568333">
        <ele>3396.0</ele>
        <time>2022-11-20T11:54:18.000Z</time>
      </trkpt>
      <trkpt lat="37.05602" lon="-3.36568333">
        <ele>3396.0</ele>
        <time>2022-11-20T11:54:19.000Z</time>
      </trkpt>
      <trkpt lat="37.05601833" lon="-3.36568333">
        <ele>3396.0</ele>
        <time>2022-11-20T11:54:20.000Z</time>
      </trkpt>
      <trkpt lat="37.05601833" lon="-3.36568333">
        <ele>3396.0</ele>
        <time>2022-11-20T11:54:21.000Z</time>
      </trkpt>
      <trkpt lat="37.05602167" lon="-3.36568">
        <ele>3396.0</ele>
        <time>2022-11-20T11:54:22.000Z</time>
      </trkpt>
      <trkpt lat="37.05602333" lon="-3.365675">
        <ele>3396.0</ele>
        <time>2022-11-20T11:54:23.000Z</time>
      </trkpt>
      <trkpt lat="37.05602833" lon="-3.36567">
        <ele>3396.0</ele>
        <time>2022-11-20T11:54:24.000Z</time>
      </trkpt>
      <trkpt lat="37.05602833" lon="-3.36566833">
        <ele>3396.0</ele>
        <time>2022-11-20T11:54:25.000Z</time>
      </trkpt>
      <trkpt lat="37.05602833" lon="-3.36566833">
        <ele>3396.0</ele>
        <time>2022-11-20T11:54:26.000Z</time>
      </trkpt>
      <trkpt lat="37.05602667" lon="-3.36566833">
        <ele>3396.0</ele>
        <time>2022-11-20T11:54:27.000Z</time>
      </trkpt>
      <trkpt lat="37.05602833" lon="-3.36566833">
        <ele>3396.0</ele>
        <time>2022-11-20T11:54:28.000Z</time>
      </trkpt>
      <trkpt lat="37.05602833" lon="-3.36566833">
        <ele>3396.0</ele>
        <time>2022-11-20T11:54:29.000Z</time>
      </trkpt>
      <trkpt lat="37.05602833" lon="-3.36566833">
        <ele>3396.0</ele>
        <time>2022-11-20T11:54:30.000Z</time>
      </trkpt>
      <trkpt lat="37.05602833" lon="-3.36566833">
        <ele>3396.0</ele>
        <time>2022-11-20T11:54:31.000Z</time>
      </trkpt>
      <trkpt lat="37.05602833" lon="-3.36566833">
        <ele>3396.0</ele>
        <time>2022-11-20T11:54:32.000Z</time>
      </trkpt>
      <trkpt lat="37.05602833" lon="-3.36566833">
        <ele>3396.0</ele>
        <time>2022-11-20T11:54:33.000Z</time>
      </trkpt>
      <trkpt lat="37.05603" lon="-3.36566667">
        <ele>3396.0</ele>
        <time>2022-11-20T11:54:34.000Z</time>
      </trkpt>
      <trkpt lat="37.05603" lon="-3.36566667">
        <ele>3396.0</ele>
        <time>2022-11-20T11:54:35.000Z</time>
      </trkpt>
      <trkpt lat="37.05603" lon="-3.36566667">
        <ele>3396.0</ele>
        <time>2022-11-20T11:54:36.000Z</time>
      </trkpt>
      <trkpt lat="37.05603167" lon="-3.36566667">
        <ele>3396.0</ele>
        <time>2022-11-20T11:54:37.000Z</time>
      </trkpt>
      <trkpt lat="37.05603167" lon="-3.36566667">
        <ele>3396.0</ele>
        <time>2022-11-20T11:54:38.000Z</time>
      </trkpt>
      <trkpt lat="37.05603167" lon="-3.365665">
        <ele>3396.0</ele>
        <time>2022-11-20T11:54:39.000Z</time>
      </trkpt>
      <trkpt lat="37.05603167" lon="-3.365665">
        <ele>3396.0</ele>
        <time>2022-11-20T11:54:40.000Z</time>
      </trkpt>
      <trkpt lat="37.05603167" lon="-3.36566833">
        <ele>3396.0</ele>
        <time>2022-11-20T11:54:41.000Z</time>
      </trkpt>
      <trkpt lat="37.05603" lon="-3.36567">
        <ele>3396.0</ele>
        <time>2022-11-20T11:54:42.000Z</time>
      </trkpt>
      <trkpt lat="37.05603167" lon="-3.36567167">
        <ele>3396.0</ele>
        <time>2022-11-20T11:54:43.000Z</time>
      </trkpt>
      <trkpt lat="37.05603167" lon="-3.36567167">
        <ele>3396.0</ele>
        <time>2022-11-20T11:54:44.000Z</time>
      </trkpt>
      <trkpt lat="37.05603167" lon="-3.36567167">
        <ele>3396.0</ele>
        <time>2022-11-20T11:54:45.000Z</time>
      </trkpt>
      <trkpt lat="37.05603167" lon="-3.36567167">
        <ele>3396.0</ele>
        <time>2022-11-20T11:54:46.000Z</time>
      </trkpt>
      <trkpt lat="37.05603167" lon="-3.36567167">
        <ele>3396.0</ele>
        <time>2022-11-20T11:54:47.000Z</time>
      </trkpt>
      <trkpt lat="37.05603167" lon="-3.36567167">
        <ele>3396.0</ele>
        <time>2022-11-20T11:54:48.000Z</time>
      </trkpt>
      <trkpt lat="37.05603167" lon="-3.36567167">
        <ele>3396.0</ele>
        <time>2022-11-20T11:54:49.000Z</time>
      </trkpt>
      <trkpt lat="37.05603167" lon="-3.36567167">
        <ele>3396.0</ele>
        <time>2022-11-20T11:54:50.000Z</time>
      </trkpt>
      <trkpt lat="37.05603167" lon="-3.36567167">
        <ele>3396.0</ele>
        <time>2022-11-20T11:54:51.000Z</time>
      </trkpt>
      <trkpt lat="37.05603167" lon="-3.36567167">
        <ele>3396.0</ele>
        <time>2022-11-20T11:54:52.000Z</time>
      </trkpt>
      <trkpt lat="37.05603167" lon="-3.36567167">
        <ele>3396.0</ele>
        <time>2022-11-20T11:54:53.000Z</time>
      </trkpt>
      <trkpt lat="37.05603167" lon="-3.36567167">
        <ele>3396.0</ele>
        <time>2022-11-20T11:54:54.000Z</time>
      </trkpt>
      <trkpt lat="37.05603167" lon="-3.36567167">
        <ele>3396.0</ele>
        <time>2022-11-20T11:54:55.000Z</time>
      </trkpt>
      <trkpt lat="37.05603167" lon="-3.36567167">
        <ele>3396.0</ele>
        <time>2022-11-20T11:54:56.000Z</time>
      </trkpt>
      <trkpt lat="37.05603167" lon="-3.36567167">
        <ele>3396.0</ele>
        <time>2022-11-20T11:54:57.000Z</time>
      </trkpt>
      <trkpt lat="37.05603167" lon="-3.36567167">
        <ele>3396.0</ele>
        <time>2022-11-20T11:54:58.000Z</time>
      </trkpt>
      <trkpt lat="37.05603167" lon="-3.36567167">
        <ele>3396.0</ele>
        <time>2022-11-20T11:54:59.000Z</time>
      </trkpt>
      <trkpt lat="37.05603333" lon="-3.36567">
        <ele>3396.0</ele>
        <time>2022-11-20T11:55:00.000Z</time>
      </trkpt>
      <trkpt lat="37.05603333" lon="-3.36567">
        <ele>3396.0</ele>
        <time>2022-11-20T11:55:01.000Z</time>
      </trkpt>
      <trkpt lat="37.05603" lon="-3.36567">
        <ele>3396.0</ele>
        <time>2022-11-20T11:55:02.000Z</time>
      </trkpt>
      <trkpt lat="37.056025" lon="-3.36567">
        <ele>3396.0</ele>
        <time>2022-11-20T11:55:03.000Z</time>
      </trkpt>
      <trkpt lat="37.05602333" lon="-3.36567167">
        <ele>3396.0</ele>
        <time>2022-11-20T11:55:04.000Z</time>
      </trkpt>
      <trkpt lat="37.05602167" lon="-3.36567167">
        <ele>3396.0</ele>
        <time>2022-11-20T11:55:05.000Z</time>
      </trkpt>
      <trkpt lat="37.05602167" lon="-3.36567167">
        <ele>3396.0</ele>
        <time>2022-11-20T11:55:06.000Z</time>
      </trkpt>
      <trkpt lat="37.05602167" lon="-3.36567167">
        <ele>3396.0</ele>
        <time>2022-11-20T11:55:07.000Z</time>
      </trkpt>
      <trkpt lat="37.05602167" lon="-3.36567167">
        <ele>3396.0</ele>
        <time>2022-11-20T11:55:08.000Z</time>
      </trkpt>
      <trkpt lat="37.05602167" lon="-3.36567167">
        <ele>3396.0</ele>
        <time>2022-11-20T11:55:09.000Z</time>
      </trkpt>
      <trkpt lat="37.05602" lon="-3.36567333">
        <ele>3397.0</ele>
        <time>2022-11-20T11:55:10.000Z</time>
      </trkpt>
      <trkpt lat="37.05601833" lon="-3.365675">
        <ele>3397.0</ele>
        <time>2022-11-20T11:55:11.000Z</time>
      </trkpt>
      <trkpt lat="37.05601833" lon="-3.36567667">
        <ele>3397.0</ele>
        <time>2022-11-20T11:55:12.000Z</time>
      </trkpt>
      <trkpt lat="37.05601833" lon="-3.36567667">
        <ele>3397.0</ele>
        <time>2022-11-20T11:55:13.000Z</time>
      </trkpt>
      <trkpt lat="37.05601833" lon="-3.36567667">
        <ele>3397.0</ele>
        <time>2022-11-20T11:55:14.000Z</time>
      </trkpt>
      <trkpt lat="37.05601667" lon="-3.36567667">
        <ele>3397.0</ele>
        <time>2022-11-20T11:55:15.000Z</time>
      </trkpt>
      <trkpt lat="37.05601833" lon="-3.36567667">
        <ele>3397.0</ele>
        <time>2022-11-20T11:55:16.000Z</time>
      </trkpt>
      <trkpt lat="37.05601833" lon="-3.36567667">
        <ele>3397.0</ele>
        <time>2022-11-20T11:55:17.000Z</time>
      </trkpt>
      <trkpt lat="37.05601667" lon="-3.36567667">
        <ele>3397.0</ele>
        <time>2022-11-20T11:55:18.000Z</time>
      </trkpt>
      <trkpt lat="37.056015" lon="-3.36567667">
        <ele>3397.0</ele>
        <time>2022-11-20T11:55:19.000Z</time>
      </trkpt>
      <trkpt lat="37.056015" lon="-3.36567667">
        <ele>3397.0</ele>
        <time>2022-11-20T11:55:20.000Z</time>
      </trkpt>
      <trkpt lat="37.056015" lon="-3.36567667">
        <ele>3397.0</ele>
        <time>2022-11-20T11:55:21.000Z</time>
      </trkpt>
      <trkpt lat="37.05601667" lon="-3.36567333">
        <ele>3397.0</ele>
        <time>2022-11-20T11:55:22.000Z</time>
      </trkpt>
      <trkpt lat="37.056015" lon="-3.36567333">
        <ele>3397.0</ele>
        <time>2022-11-20T11:55:23.000Z</time>
      </trkpt>
      <trkpt lat="37.056015" lon="-3.36567333">
        <ele>3397.0</ele>
        <time>2022-11-20T11:55:24.000Z</time>
      </trkpt>
      <trkpt lat="37.056015" lon="-3.36567">
        <ele>3397.0</ele>
        <time>2022-11-20T11:55:25.000Z</time>
      </trkpt>
      <trkpt lat="37.056015" lon="-3.36567">
        <ele>3397.0</ele>
        <time>2022-11-20T11:55:26.000Z</time>
      </trkpt>
      <trkpt lat="37.056015" lon="-3.36567167">
        <ele>3397.0</ele>
        <time>2022-11-20T11:55:27.000Z</time>
      </trkpt>
      <trkpt lat="37.056015" lon="-3.365675">
        <ele>3397.0</ele>
        <time>2022-11-20T11:55:28.000Z</time>
      </trkpt>
      <trkpt lat="37.05601333" lon="-3.36567833">
        <ele>3397.0</ele>
        <time>2022-11-20T11:55:29.000Z</time>
      </trkpt>
      <trkpt lat="37.05600833" lon="-3.36568167">
        <ele>3397.0</ele>
        <time>2022-11-20T11:55:30.000Z</time>
      </trkpt>
      <trkpt lat="37.05600833" lon="-3.36568167">
        <ele>3397.0</ele>
        <time>2022-11-20T11:55:31.000Z</time>
      </trkpt>
      <trkpt lat="37.05600833" lon="-3.36568167">
        <ele>3397.0</ele>
        <time>2022-11-20T11:55:32.000Z</time>
      </trkpt>
      <trkpt lat="37.05600833" lon="-3.36568167">
        <ele>3397.0</ele>
        <time>2022-11-20T11:55:33.000Z</time>
      </trkpt>
      <trkpt lat="37.05600833" lon="-3.36568167">
        <ele>3397.0</ele>
        <time>2022-11-20T11:55:34.000Z</time>
      </trkpt>
      <trkpt lat="37.05600833" lon="-3.36568167">
        <ele>3397.0</ele>
        <time>2022-11-20T11:55:35.000Z</time>
      </trkpt>
      <trkpt lat="37.05601" lon="-3.36568167">
        <ele>3397.0</ele>
        <time>2022-11-20T11:55:36.000Z</time>
      </trkpt>
      <trkpt lat="37.05601" lon="-3.36568167">
        <ele>3397.0</ele>
        <time>2022-11-20T11:55:37.000Z</time>
      </trkpt>
      <trkpt lat="37.05601" lon="-3.36568167">
        <ele>3397.0</ele>
        <time>2022-11-20T11:55:38.000Z</time>
      </trkpt>
      <trkpt lat="37.05601" lon="-3.36568167">
        <ele>3397.0</ele>
        <time>2022-11-20T11:55:39.000Z</time>
      </trkpt>
      <trkpt lat="37.05601" lon="-3.36568167">
        <ele>3397.0</ele>
        <time>2022-11-20T11:55:40.000Z</time>
      </trkpt>
      <trkpt lat="37.05601" lon="-3.36568333">
        <ele>3397.0</ele>
        <time>2022-11-20T11:55:41.000Z</time>
      </trkpt>
      <trkpt lat="37.05601" lon="-3.365685">
        <ele>3397.0</ele>
        <time>2022-11-20T11:55:42.000Z</time>
      </trkpt>
      <trkpt lat="37.05600833" lon="-3.36569">
        <ele>3397.0</ele>
        <time>2022-11-20T11:55:43.000Z</time>
      </trkpt>
      <trkpt lat="37.056005" lon="-3.36569">
        <ele>3397.0</ele>
        <time>2022-11-20T11:55:44.000Z</time>
      </trkpt>
      <trkpt lat="37.056005" lon="-3.36569167">
        <ele>3397.0</ele>
        <time>2022-11-20T11:55:45.000Z</time>
      </trkpt>
      <trkpt lat="37.056005" lon="-3.36569167">
        <ele>3397.0</ele>
        <time>2022-11-20T11:55:46.000Z</time>
      </trkpt>
      <trkpt lat="37.056005" lon="-3.36569167">
        <ele>3397.0</ele>
        <time>2022-11-20T11:55:47.000Z</time>
      </trkpt>
      <trkpt lat="37.056005" lon="-3.36569167">
        <ele>3396.0</ele>
        <time>2022-11-20T11:55:48.000Z</time>
      </trkpt>
      <trkpt lat="37.056005" lon="-3.36569167">
        <ele>3396.0</ele>
        <time>2022-11-20T11:55:49.000Z</time>
      </trkpt>
      <trkpt lat="37.056005" lon="-3.36569167">
        <ele>3396.0</ele>
        <time>2022-11-20T11:55:50.000Z</time>
      </trkpt>
      <trkpt lat="37.056005" lon="-3.36569167">
        <ele>3396.0</ele>
        <time>2022-11-20T11:55:51.000Z</time>
      </trkpt>
      <trkpt lat="37.056005" lon="-3.36569167">
        <ele>3396.0</ele>
        <time>2022-11-20T11:55:52.000Z</time>
      </trkpt>
      <trkpt lat="37.056005" lon="-3.36569167">
        <ele>3396.0</ele>
        <time>2022-11-20T11:55:53.000Z</time>
      </trkpt>
      <trkpt lat="37.056005" lon="-3.36569167">
        <ele>3396.0</ele>
        <time>2022-11-20T11:55:54.000Z</time>
      </trkpt>
      <trkpt lat="37.056005" lon="-3.36569">
        <ele>3396.0</ele>
        <time>2022-11-20T11:55:55.000Z</time>
      </trkpt>
      <trkpt lat="37.056005" lon="-3.36569">
        <ele>3396.0</ele>
        <time>2022-11-20T11:55:56.000Z</time>
      </trkpt>
      <trkpt lat="37.056005" lon="-3.36569">
        <ele>3396.0</ele>
        <time>2022-11-20T11:55:57.000Z</time>
      </trkpt>
      <trkpt lat="37.05600667" lon="-3.36569">
        <ele>3396.0</ele>
        <time>2022-11-20T11:55:58.000Z</time>
      </trkpt>
      <trkpt lat="37.05600667" lon="-3.36569">
        <ele>3396.0</ele>
        <time>2022-11-20T11:55:59.000Z</time>
      </trkpt>
      <trkpt lat="37.05600667" lon="-3.36569">
        <ele>3396.0</ele>
        <time>2022-11-20T11:56:00.000Z</time>
      </trkpt>
      <trkpt lat="37.05600667" lon="-3.36569">
        <ele>3396.0</ele>
        <time>2022-11-20T11:56:01.000Z</time>
      </trkpt>
      <trkpt lat="37.05600667" lon="-3.36569">
        <ele>3396.0</ele>
        <time>2022-11-20T11:56:02.000Z</time>
      </trkpt>
      <trkpt lat="37.05600667" lon="-3.36569">
        <ele>3396.0</ele>
        <time>2022-11-20T11:56:03.000Z</time>
      </trkpt>
      <trkpt lat="37.05600667" lon="-3.36569">
        <ele>3396.0</ele>
        <time>2022-11-20T11:56:04.000Z</time>
      </trkpt>
      <trkpt lat="37.05600667" lon="-3.36569">
        <ele>3396.0</ele>
        <time>2022-11-20T11:56:05.000Z</time>
      </trkpt>
      <trkpt lat="37.05600667" lon="-3.36569">
        <ele>3396.0</ele>
        <time>2022-11-20T11:56:06.000Z</time>
      </trkpt>
      <trkpt lat="37.05600667" lon="-3.36569">
        <ele>3396.0</ele>
        <time>2022-11-20T11:56:07.000Z</time>
      </trkpt>
      <trkpt lat="37.05600667" lon="-3.36569">
        <ele>3396.0</ele>
        <time>2022-11-20T11:56:08.000Z</time>
      </trkpt>
      <trkpt lat="37.05600667" lon="-3.36569">
        <ele>3396.0</ele>
        <time>2022-11-20T11:56:09.000Z</time>
      </trkpt>
      <trkpt lat="37.05600667" lon="-3.36569">
        <ele>3396.0</ele>
        <time>2022-11-20T11:56:10.000Z</time>
      </trkpt>
      <trkpt lat="37.056005" lon="-3.36569">
        <ele>3396.0</ele>
        <time>2022-11-20T11:56:11.000Z</time>
      </trkpt>
      <trkpt lat="37.056005" lon="-3.36568667">
        <ele>3396.0</ele>
        <time>2022-11-20T11:56:12.000Z</time>
      </trkpt>
      <trkpt lat="37.056005" lon="-3.365685">
        <ele>3396.0</ele>
        <time>2022-11-20T11:56:13.000Z</time>
      </trkpt>
      <trkpt lat="37.056005" lon="-3.365685">
        <ele>3396.0</ele>
        <time>2022-11-20T11:56:14.000Z</time>
      </trkpt>
      <trkpt lat="37.056005" lon="-3.365685">
        <ele>3396.0</ele>
        <time>2022-11-20T11:56:15.000Z</time>
      </trkpt>
      <trkpt lat="37.056005" lon="-3.365685">
        <ele>3396.0</ele>
        <time>2022-11-20T11:56:16.000Z</time>
      </trkpt>
      <trkpt lat="37.056005" lon="-3.365685">
        <ele>3396.0</ele>
        <time>2022-11-20T11:56:17.000Z</time>
      </trkpt>
      <trkpt lat="37.056005" lon="-3.365685">
        <ele>3396.0</ele>
        <time>2022-11-20T11:56:18.000Z</time>
      </trkpt>
      <trkpt lat="37.056005" lon="-3.365685">
        <ele>3396.0</ele>
        <time>2022-11-20T11:56:19.000Z</time>
      </trkpt>
      <trkpt lat="37.056005" lon="-3.365685">
        <ele>3396.0</ele>
        <time>2022-11-20T11:56:20.000Z</time>
      </trkpt>
      <trkpt lat="37.056005" lon="-3.365685">
        <ele>3396.0</ele>
        <time>2022-11-20T11:56:21.000Z</time>
      </trkpt>
      <trkpt lat="37.056005" lon="-3.365685">
        <ele>3396.0</ele>
        <time>2022-11-20T11:56:22.000Z</time>
      </trkpt>
      <trkpt lat="37.056005" lon="-3.36568667">
        <ele>3396.0</ele>
        <time>2022-11-20T11:56:23.000Z</time>
      </trkpt>
      <trkpt lat="37.056005" lon="-3.36568667">
        <ele>3396.0</ele>
        <time>2022-11-20T11:56:24.000Z</time>
      </trkpt>
      <trkpt lat="37.056005" lon="-3.36568667">
        <ele>3396.0</ele>
        <time>2022-11-20T11:56:25.000Z</time>
      </trkpt>
      <trkpt lat="37.056005" lon="-3.36568667">
        <ele>3396.0</ele>
        <time>2022-11-20T11:56:26.000Z</time>
      </trkpt>
      <trkpt lat="37.056005" lon="-3.36568667">
        <ele>3396.0</ele>
        <time>2022-11-20T11:56:27.000Z</time>
      </trkpt>
      <trkpt lat="37.056005" lon="-3.36568667">
        <ele>3396.0</ele>
        <time>2022-11-20T11:56:28.000Z</time>
      </trkpt>
      <trkpt lat="37.056005" lon="-3.36568667">
        <ele>3396.0</ele>
        <time>2022-11-20T11:56:29.000Z</time>
      </trkpt>
      <trkpt lat="37.056005" lon="-3.36568667">
        <ele>3396.0</ele>
        <time>2022-11-20T11:56:30.000Z</time>
      </trkpt>
      <trkpt lat="37.056005" lon="-3.36568667">
        <ele>3396.0</ele>
        <time>2022-11-20T11:56:31.000Z</time>
      </trkpt>
      <trkpt lat="37.056005" lon="-3.36568667">
        <ele>3396.0</ele>
        <time>2022-11-20T11:56:32.000Z</time>
      </trkpt>
      <trkpt lat="37.056005" lon="-3.36568667">
        <ele>3396.0</ele>
        <time>2022-11-20T11:56:33.000Z</time>
      </trkpt>
      <trkpt lat="37.056005" lon="-3.36568667">
        <ele>3396.0</ele>
        <time>2022-11-20T11:56:34.000Z</time>
      </trkpt>
      <trkpt lat="37.056005" lon="-3.36568667">
        <ele>3396.0</ele>
        <time>2022-11-20T11:56:35.000Z</time>
      </trkpt>
      <trkpt lat="37.056005" lon="-3.36568667">
        <ele>3396.0</ele>
        <time>2022-11-20T11:56:36.000Z</time>
      </trkpt>
      <trkpt lat="37.056005" lon="-3.36568667">
        <ele>3396.0</ele>
        <time>2022-11-20T11:56:37.000Z</time>
      </trkpt>
      <trkpt lat="37.056005" lon="-3.365685">
        <ele>3396.0</ele>
        <time>2022-11-20T11:56:38.000Z</time>
      </trkpt>
      <trkpt lat="37.056005" lon="-3.365685">
        <ele>3396.0</ele>
        <time>2022-11-20T11:56:39.000Z</time>
      </trkpt>
      <trkpt lat="37.056005" lon="-3.365685">
        <ele>3396.0</ele>
        <time>2022-11-20T11:56:40.000Z</time>
      </trkpt>
      <trkpt lat="37.056005" lon="-3.365685">
        <ele>3396.0</ele>
        <time>2022-11-20T11:56:41.000Z</time>
      </trkpt>
      <trkpt lat="37.056005" lon="-3.365685">
        <ele>3396.0</ele>
        <time>2022-11-20T11:56:42.000Z</time>
      </trkpt>
      <trkpt lat="37.056005" lon="-3.365685">
        <ele>3396.0</ele>
        <time>2022-11-20T11:56:43.000Z</time>
      </trkpt>
      <trkpt lat="37.056005" lon="-3.365685">
        <ele>3396.0</ele>
        <time>2022-11-20T11:56:44.000Z</time>
      </trkpt>
      <trkpt lat="37.056005" lon="-3.365685">
        <ele>3396.0</ele>
        <time>2022-11-20T11:56:45.000Z</time>
      </trkpt>
      <trkpt lat="37.056005" lon="-3.365685">
        <ele>3396.0</ele>
        <time>2022-11-20T11:56:46.000Z</time>
      </trkpt>
      <trkpt lat="37.056005" lon="-3.365685">
        <ele>3396.0</ele>
        <time>2022-11-20T11:56:47.000Z</time>
      </trkpt>
      <trkpt lat="37.056005" lon="-3.365685">
        <ele>3396.0</ele>
        <time>2022-11-20T11:56:48.000Z</time>
      </trkpt>
      <trkpt lat="37.056005" lon="-3.365685">
        <ele>3396.0</ele>
        <time>2022-11-20T11:56:49.000Z</time>
      </trkpt>
      <trkpt lat="37.056005" lon="-3.365685">
        <ele>3396.0</ele>
        <time>2022-11-20T11:56:50.000Z</time>
      </trkpt>
      <trkpt lat="37.056005" lon="-3.365685">
        <ele>3396.0</ele>
        <time>2022-11-20T11:56:51.000Z</time>
      </trkpt>
      <trkpt lat="37.056005" lon="-3.365685">
        <ele>3396.0</ele>
        <time>2022-11-20T11:56:52.000Z</time>
      </trkpt>
      <trkpt lat="37.056005" lon="-3.365685">
        <ele>3396.0</ele>
        <time>2022-11-20T11:56:53.000Z</time>
      </trkpt>
      <trkpt lat="37.056005" lon="-3.365685">
        <ele>3396.0</ele>
        <time>2022-11-20T11:56:54.000Z</time>
      </trkpt>
      <trkpt lat="37.056005" lon="-3.365685">
        <ele>3396.0</ele>
        <time>2022-11-20T11:56:55.000Z</time>
      </trkpt>
      <trkpt lat="37.056005" lon="-3.365685">
        <ele>3396.0</ele>
        <time>2022-11-20T11:56:56.000Z</time>
      </trkpt>
      <trkpt lat="37.056005" lon="-3.365685">
        <ele>3396.0</ele>
        <time>2022-11-20T11:56:57.000Z</time>
      </trkpt>
      <trkpt lat="37.056005" lon="-3.365685">
        <ele>3396.0</ele>
        <time>2022-11-20T11:56:58.000Z</time>
      </trkpt>
      <trkpt lat="37.056005" lon="-3.365685">
        <ele>3396.0</ele>
        <time>2022-11-20T11:56:59.000Z</time>
      </trkpt>
      <trkpt lat="37.05600333" lon="-3.365685">
        <ele>3396.0</ele>
        <time>2022-11-20T11:57:00.000Z</time>
      </trkpt>
      <trkpt lat="37.05600333" lon="-3.365685">
        <ele>3396.0</ele>
        <time>2022-11-20T11:57:01.000Z</time>
      </trkpt>
      <trkpt lat="37.05600333" lon="-3.365685">
        <ele>3396.0</ele>
        <time>2022-11-20T11:57:02.000Z</time>
      </trkpt>
      <trkpt lat="37.056005" lon="-3.365685">
        <ele>3396.0</ele>
        <time>2022-11-20T11:57:03.000Z</time>
      </trkpt>
      <trkpt lat="37.056005" lon="-3.365685">
        <ele>3396.0</ele>
        <time>2022-11-20T11:57:04.000Z</time>
      </trkpt>
      <trkpt lat="37.056005" lon="-3.365685">
        <ele>3396.0</ele>
        <time>2022-11-20T11:57:05.000Z</time>
      </trkpt>
      <trkpt lat="37.05600333" lon="-3.365685">
        <ele>3396.0</ele>
        <time>2022-11-20T11:57:06.000Z</time>
      </trkpt>
      <trkpt lat="37.05600333" lon="-3.365685">
        <ele>3396.0</ele>
        <time>2022-11-20T11:57:07.000Z</time>
      </trkpt>
      <trkpt lat="37.05600333" lon="-3.365685">
        <ele>3396.0</ele>
        <time>2022-11-20T11:57:08.000Z</time>
      </trkpt>
      <trkpt lat="37.05600167" lon="-3.36568333">
        <ele>3396.0</ele>
        <time>2022-11-20T11:57:09.000Z</time>
      </trkpt>
      <trkpt lat="37.05600167" lon="-3.36568333">
        <ele>3396.0</ele>
        <time>2022-11-20T11:57:10.000Z</time>
      </trkpt>
      <trkpt lat="37.05600167" lon="-3.36568333">
        <ele>3396.0</ele>
        <time>2022-11-20T11:57:11.000Z</time>
      </trkpt>
      <trkpt lat="37.05600333" lon="-3.36568333">
        <ele>3396.0</ele>
        <time>2022-11-20T11:57:12.000Z</time>
      </trkpt>
      <trkpt lat="37.05600333" lon="-3.36568333">
        <ele>3396.0</ele>
        <time>2022-11-20T11:57:13.000Z</time>
      </trkpt>
      <trkpt lat="37.05600333" lon="-3.36568333">
        <ele>3396.0</ele>
        <time>2022-11-20T11:57:14.000Z</time>
      </trkpt>
      <trkpt lat="37.05600333" lon="-3.36568333">
        <ele>3396.0</ele>
        <time>2022-11-20T11:57:15.000Z</time>
      </trkpt>
      <trkpt lat="37.05600333" lon="-3.36568333">
        <ele>3396.0</ele>
        <time>2022-11-20T11:57:16.000Z</time>
      </trkpt>
      <trkpt lat="37.05600333" lon="-3.36568333">
        <ele>3396.0</ele>
        <time>2022-11-20T11:57:17.000Z</time>
      </trkpt>
      <trkpt lat="37.05600333" lon="-3.36568333">
        <ele>3396.0</ele>
        <time>2022-11-20T11:57:18.000Z</time>
      </trkpt>
      <trkpt lat="37.05600333" lon="-3.36568333">
        <ele>3396.0</ele>
        <time>2022-11-20T11:57:19.000Z</time>
      </trkpt>
      <trkpt lat="37.05600333" lon="-3.365685">
        <ele>3396.0</ele>
        <time>2022-11-20T11:57:20.000Z</time>
      </trkpt>
      <trkpt lat="37.05600167" lon="-3.365685">
        <ele>3396.0</ele>
        <time>2022-11-20T11:57:21.000Z</time>
      </trkpt>
      <trkpt lat="37.05600167" lon="-3.365685">
        <ele>3396.0</ele>
        <time>2022-11-20T11:57:22.000Z</time>
      </trkpt>
      <trkpt lat="37.056" lon="-3.365685">
        <ele>3396.0</ele>
        <time>2022-11-20T11:57:23.000Z</time>
      </trkpt>
      <trkpt lat="37.05599667" lon="-3.36568333">
        <ele>3396.0</ele>
        <time>2022-11-20T11:57:24.000Z</time>
      </trkpt>
      <trkpt lat="37.05599333" lon="-3.36567833">
        <ele>3396.0</ele>
        <time>2022-11-20T11:57:25.000Z</time>
      </trkpt>
      <trkpt lat="37.05599167" lon="-3.36567667">
        <ele>3396.0</ele>
        <time>2022-11-20T11:57:26.000Z</time>
      </trkpt>
      <trkpt lat="37.05599167" lon="-3.36567667">
        <ele>3396.0</ele>
        <time>2022-11-20T11:57:27.000Z</time>
      </trkpt>
      <trkpt lat="37.05599167" lon="-3.36567667">
        <ele>3396.0</ele>
        <time>2022-11-20T11:57:28.000Z</time>
      </trkpt>
      <trkpt lat="37.05599167" lon="-3.36567667">
        <ele>3396.0</ele>
        <time>2022-11-20T11:57:29.000Z</time>
      </trkpt>
      <trkpt lat="37.05599167" lon="-3.36567667">
        <ele>3396.0</ele>
        <time>2022-11-20T11:57:30.000Z</time>
      </trkpt>
      <trkpt lat="37.05599167" lon="-3.36567833">
        <ele>3396.0</ele>
        <time>2022-11-20T11:57:31.000Z</time>
      </trkpt>
      <trkpt lat="37.05599167" lon="-3.36567833">
        <ele>3396.0</ele>
        <time>2022-11-20T11:57:32.000Z</time>
      </trkpt>
      <trkpt lat="37.05599333" lon="-3.36567833">
        <ele>3396.0</ele>
        <time>2022-11-20T11:57:33.000Z</time>
      </trkpt>
      <trkpt lat="37.05599333" lon="-3.36567833">
        <ele>3396.0</ele>
        <time>2022-11-20T11:57:34.000Z</time>
      </trkpt>
      <trkpt lat="37.05599333" lon="-3.36567833">
        <ele>3396.0</ele>
        <time>2022-11-20T11:57:35.000Z</time>
      </trkpt>
      <trkpt lat="37.05599333" lon="-3.36567833">
        <ele>3396.0</ele>
        <time>2022-11-20T11:57:36.000Z</time>
      </trkpt>
      <trkpt lat="37.05599333" lon="-3.36567833">
        <ele>3396.0</ele>
        <time>2022-11-20T11:57:37.000Z</time>
      </trkpt>
      <trkpt lat="37.05599333" lon="-3.36567833">
        <ele>3396.0</ele>
        <time>2022-11-20T11:57:38.000Z</time>
      </trkpt>
      <trkpt lat="37.05599333" lon="-3.36568">
        <ele>3396.0</ele>
        <time>2022-11-20T11:57:39.000Z</time>
      </trkpt>
      <trkpt lat="37.05599333" lon="-3.36568">
        <ele>3396.0</ele>
        <time>2022-11-20T11:57:40.000Z</time>
      </trkpt>
      <trkpt lat="37.05599333" lon="-3.36568">
        <ele>3396.0</ele>
        <time>2022-11-20T11:57:41.000Z</time>
      </trkpt>
      <trkpt lat="37.05599333" lon="-3.36568">
        <ele>3396.0</ele>
        <time>2022-11-20T11:57:42.000Z</time>
      </trkpt>
      <trkpt lat="37.05599333" lon="-3.36568">
        <ele>3396.0</ele>
        <time>2022-11-20T11:57:43.000Z</time>
      </trkpt>
      <trkpt lat="37.05599333" lon="-3.36568">
        <ele>3396.0</ele>
        <time>2022-11-20T11:57:44.000Z</time>
      </trkpt>
      <trkpt lat="37.05599333" lon="-3.36568">
        <ele>3396.0</ele>
        <time>2022-11-20T11:57:45.000Z</time>
      </trkpt>
      <trkpt lat="37.05599333" lon="-3.36568">
        <ele>3396.0</ele>
        <time>2022-11-20T11:57:46.000Z</time>
      </trkpt>
      <trkpt lat="37.055995" lon="-3.36568167">
        <ele>3396.0</ele>
        <time>2022-11-20T11:57:47.000Z</time>
      </trkpt>
      <trkpt lat="37.055995" lon="-3.36568333">
        <ele>3396.0</ele>
        <time>2022-11-20T11:57:48.000Z</time>
      </trkpt>
      <trkpt lat="37.055995" lon="-3.365685">
        <ele>3396.0</ele>
        <time>2022-11-20T11:57:49.000Z</time>
      </trkpt>
      <trkpt lat="37.05599333" lon="-3.36568833">
        <ele>3396.0</ele>
        <time>2022-11-20T11:57:50.000Z</time>
      </trkpt>
      <trkpt lat="37.05599" lon="-3.36569167">
        <ele>3396.0</ele>
        <time>2022-11-20T11:57:51.000Z</time>
      </trkpt>
      <trkpt lat="37.05598667" lon="-3.36569">
        <ele>3396.0</ele>
        <time>2022-11-20T11:57:52.000Z</time>
      </trkpt>
      <trkpt lat="37.05598333" lon="-3.36569">
        <ele>3396.0</ele>
        <time>2022-11-20T11:57:53.000Z</time>
      </trkpt>
      <trkpt lat="37.05598333" lon="-3.36569333">
        <ele>3396.0</ele>
        <time>2022-11-20T11:57:54.000Z</time>
      </trkpt>
      <trkpt lat="37.05598167" lon="-3.36569167">
        <ele>3396.0</ele>
        <time>2022-11-20T11:57:55.000Z</time>
      </trkpt>
      <trkpt lat="37.05597667" lon="-3.36569">
        <ele>3396.0</ele>
        <time>2022-11-20T11:57:56.000Z</time>
      </trkpt>
      <trkpt lat="37.05597333" lon="-3.36568667">
        <ele>3396.0</ele>
        <time>2022-11-20T11:57:57.000Z</time>
      </trkpt>
      <trkpt lat="37.05597333" lon="-3.36568667">
        <ele>3396.0</ele>
        <time>2022-11-20T11:57:58.000Z</time>
      </trkpt>
      <trkpt lat="37.05597333" lon="-3.36568667">
        <ele>3396.0</ele>
        <time>2022-11-20T11:57:59.000Z</time>
      </trkpt>
      <trkpt lat="37.05597333" lon="-3.36568667">
        <ele>3396.0</ele>
        <time>2022-11-20T11:58:00.000Z</time>
      </trkpt>
      <trkpt lat="37.05597333" lon="-3.36568667">
        <ele>3396.0</ele>
        <time>2022-11-20T11:58:01.000Z</time>
      </trkpt>
      <trkpt lat="37.05597333" lon="-3.36568667">
        <ele>3396.0</ele>
        <time>2022-11-20T11:58:02.000Z</time>
      </trkpt>
      <trkpt lat="37.05597333" lon="-3.36568667">
        <ele>3396.0</ele>
        <time>2022-11-20T11:58:03.000Z</time>
      </trkpt>
      <trkpt lat="37.055975" lon="-3.36568833">
        <ele>3396.0</ele>
        <time>2022-11-20T11:58:04.000Z</time>
      </trkpt>
      <trkpt lat="37.055975" lon="-3.36568833">
        <ele>3396.0</ele>
        <time>2022-11-20T11:58:05.000Z</time>
      </trkpt>
      <trkpt lat="37.05597333" lon="-3.36568667">
        <ele>3396.0</ele>
        <time>2022-11-20T11:58:06.000Z</time>
      </trkpt>
      <trkpt lat="37.05597333" lon="-3.365685">
        <ele>3396.0</ele>
        <time>2022-11-20T11:58:07.000Z</time>
      </trkpt>
      <trkpt lat="37.05597333" lon="-3.36568333">
        <ele>3396.0</ele>
        <time>2022-11-20T11:58:08.000Z</time>
      </trkpt>
      <trkpt lat="37.055975" lon="-3.36568167">
        <ele>3396.0</ele>
        <time>2022-11-20T11:58:09.000Z</time>
      </trkpt>
      <trkpt lat="37.05597667" lon="-3.36568333">
        <ele>3396.0</ele>
        <time>2022-11-20T11:58:10.000Z</time>
      </trkpt>
      <trkpt lat="37.05598" lon="-3.36568333">
        <ele>3396.0</ele>
        <time>2022-11-20T11:58:11.000Z</time>
      </trkpt>
      <trkpt lat="37.05598" lon="-3.365685">
        <ele>3396.0</ele>
        <time>2022-11-20T11:58:12.000Z</time>
      </trkpt>
      <trkpt lat="37.05598" lon="-3.365685">
        <ele>3396.0</ele>
        <time>2022-11-20T11:58:13.000Z</time>
      </trkpt>
      <trkpt lat="37.05598167" lon="-3.365685">
        <ele>3396.0</ele>
        <time>2022-11-20T11:58:14.000Z</time>
      </trkpt>
      <trkpt lat="37.05598167" lon="-3.36568667">
        <ele>3396.0</ele>
        <time>2022-11-20T11:58:15.000Z</time>
      </trkpt>
      <trkpt lat="37.05598167" lon="-3.36568667">
        <ele>3396.0</ele>
        <time>2022-11-20T11:58:16.000Z</time>
      </trkpt>
      <trkpt lat="37.05598" lon="-3.36568667">
        <ele>3396.0</ele>
        <time>2022-11-20T11:58:17.000Z</time>
      </trkpt>
      <trkpt lat="37.05598" lon="-3.365685">
        <ele>3396.0</ele>
        <time>2022-11-20T11:58:18.000Z</time>
      </trkpt>
      <trkpt lat="37.05598" lon="-3.365685">
        <ele>3396.0</ele>
        <time>2022-11-20T11:58:19.000Z</time>
      </trkpt>
      <trkpt lat="37.05598167" lon="-3.365685">
        <ele>3396.0</ele>
        <time>2022-11-20T11:58:20.000Z</time>
      </trkpt>
      <trkpt lat="37.05598167" lon="-3.365685">
        <ele>3396.0</ele>
        <time>2022-11-20T11:58:21.000Z</time>
      </trkpt>
      <trkpt lat="37.05598167" lon="-3.365685">
        <ele>3396.0</ele>
        <time>2022-11-20T11:58:22.000Z</time>
      </trkpt>
      <trkpt lat="37.05598333" lon="-3.365685">
        <ele>3396.0</ele>
        <time>2022-11-20T11:58:23.000Z</time>
      </trkpt>
      <trkpt lat="37.05598667" lon="-3.365685">
        <ele>3396.0</ele>
        <time>2022-11-20T11:58:24.000Z</time>
      </trkpt>
      <trkpt lat="37.05599" lon="-3.36568667">
        <ele>3396.0</ele>
        <time>2022-11-20T11:58:25.000Z</time>
      </trkpt>
      <trkpt lat="37.05599167" lon="-3.36568667">
        <ele>3396.0</ele>
        <time>2022-11-20T11:58:26.000Z</time>
      </trkpt>
      <trkpt lat="37.05599167" lon="-3.36568667">
        <ele>3397.0</ele>
        <time>2022-11-20T11:58:27.000Z</time>
      </trkpt>
      <trkpt lat="37.05599167" lon="-3.36568667">
        <ele>3397.0</ele>
        <time>2022-11-20T11:58:28.000Z</time>
      </trkpt>
      <trkpt lat="37.05599167" lon="-3.36568667">
        <ele>3397.0</ele>
        <time>2022-11-20T11:58:29.000Z</time>
      </trkpt>
      <trkpt lat="37.05599167" lon="-3.36568667">
        <ele>3397.0</ele>
        <time>2022-11-20T11:58:30.000Z</time>
      </trkpt>
      <trkpt lat="37.05599167" lon="-3.36568667">
        <ele>3397.0</ele>
        <time>2022-11-20T11:58:31.000Z</time>
      </trkpt>
      <trkpt lat="37.05599167" lon="-3.36568667">
        <ele>3397.0</ele>
        <time>2022-11-20T11:58:32.000Z</time>
      </trkpt>
      <trkpt lat="37.05599167" lon="-3.36568667">
        <ele>3396.0</ele>
        <time>2022-11-20T11:58:33.000Z</time>
      </trkpt>
      <trkpt lat="37.05599167" lon="-3.36568667">
        <ele>3396.0</ele>
        <time>2022-11-20T11:58:34.000Z</time>
      </trkpt>
      <trkpt lat="37.05599167" lon="-3.36568667">
        <ele>3396.0</ele>
        <time>2022-11-20T11:58:35.000Z</time>
      </trkpt>
      <trkpt lat="37.05599167" lon="-3.36568667">
        <ele>3396.0</ele>
        <time>2022-11-20T11:58:36.000Z</time>
      </trkpt>
      <trkpt lat="37.05599167" lon="-3.36568667">
        <ele>3396.0</ele>
        <time>2022-11-20T11:58:37.000Z</time>
      </trkpt>
      <trkpt lat="37.05599167" lon="-3.36568667">
        <ele>3397.0</ele>
        <time>2022-11-20T11:58:38.000Z</time>
      </trkpt>
      <trkpt lat="37.05599333" lon="-3.36568667">
        <ele>3397.0</ele>
        <time>2022-11-20T11:58:39.000Z</time>
      </trkpt>
      <trkpt lat="37.05599333" lon="-3.36568667">
        <ele>3397.0</ele>
        <time>2022-11-20T11:58:40.000Z</time>
      </trkpt>
      <trkpt lat="37.05599333" lon="-3.36568667">
        <ele>3397.0</ele>
        <time>2022-11-20T11:58:41.000Z</time>
      </trkpt>
      <trkpt lat="37.05599333" lon="-3.36568833">
        <ele>3397.0</ele>
        <time>2022-11-20T11:58:42.000Z</time>
      </trkpt>
      <trkpt lat="37.05599333" lon="-3.36568833">
        <ele>3396.0</ele>
        <time>2022-11-20T11:58:43.000Z</time>
      </trkpt>
      <trkpt lat="37.05599333" lon="-3.36568833">
        <ele>3396.0</ele>
        <time>2022-11-20T11:58:44.000Z</time>
      </trkpt>
      <trkpt lat="37.05599333" lon="-3.36568833">
        <ele>3396.0</ele>
        <time>2022-11-20T11:58:45.000Z</time>
      </trkpt>
      <trkpt lat="37.055995" lon="-3.36568833">
        <ele>3396.0</ele>
        <time>2022-11-20T11:58:46.000Z</time>
      </trkpt>
      <trkpt lat="37.05599833" lon="-3.36568667">
        <ele>3397.0</ele>
        <time>2022-11-20T11:58:47.000Z</time>
      </trkpt>
      <trkpt lat="37.056" lon="-3.36568667">
        <ele>3397.0</ele>
        <time>2022-11-20T11:58:48.000Z</time>
      </trkpt>
      <trkpt lat="37.056" lon="-3.36568667">
        <ele>3397.0</ele>
        <time>2022-11-20T11:58:49.000Z</time>
      </trkpt>
      <trkpt lat="37.056" lon="-3.36568667">
        <ele>3397.0</ele>
        <time>2022-11-20T11:58:50.000Z</time>
      </trkpt>
      <trkpt lat="37.05599833" lon="-3.36568667">
        <ele>3397.0</ele>
        <time>2022-11-20T11:58:51.000Z</time>
      </trkpt>
      <trkpt lat="37.05599833" lon="-3.36568667">
        <ele>3396.0</ele>
        <time>2022-11-20T11:58:52.000Z</time>
      </trkpt>
      <trkpt lat="37.05599833" lon="-3.36568667">
        <ele>3396.0</ele>
        <time>2022-11-20T11:58:53.000Z</time>
      </trkpt>
      <trkpt lat="37.056" lon="-3.365685">
        <ele>3397.0</ele>
        <time>2022-11-20T11:58:54.000Z</time>
      </trkpt>
      <trkpt lat="37.05600167" lon="-3.365685">
        <ele>3397.0</ele>
        <time>2022-11-20T11:58:55.000Z</time>
      </trkpt>
      <trkpt lat="37.056005" lon="-3.36569">
        <ele>3397.0</ele>
        <time>2022-11-20T11:58:56.000Z</time>
      </trkpt>
      <trkpt lat="37.05600333" lon="-3.36569">
        <ele>3397.0</ele>
        <time>2022-11-20T11:58:57.000Z</time>
      </trkpt>
      <trkpt lat="37.05600333" lon="-3.36569">
        <ele>3397.0</ele>
        <time>2022-11-20T11:58:58.000Z</time>
      </trkpt>
      <trkpt lat="37.056005" lon="-3.36569">
        <ele>3397.0</ele>
        <time>2022-11-20T11:58:59.000Z</time>
      </trkpt>
      <trkpt lat="37.056005" lon="-3.36569">
        <ele>3397.0</ele>
        <time>2022-11-20T11:59:00.000Z</time>
      </trkpt>
      <trkpt lat="37.056005" lon="-3.36569">
        <ele>3397.0</ele>
        <time>2022-11-20T11:59:01.000Z</time>
      </trkpt>
      <trkpt lat="37.05600667" lon="-3.36569333">
        <ele>3397.0</ele>
        <time>2022-11-20T11:59:02.000Z</time>
      </trkpt>
      <trkpt lat="37.05600833" lon="-3.36569667">
        <ele>3396.0</ele>
        <time>2022-11-20T11:59:03.000Z</time>
      </trkpt>
      <trkpt lat="37.05601" lon="-3.36570167">
        <ele>3396.0</ele>
        <time>2022-11-20T11:59:04.000Z</time>
      </trkpt>
      <trkpt lat="37.05601167" lon="-3.365705">
        <ele>3396.0</ele>
        <time>2022-11-20T11:59:05.000Z</time>
      </trkpt>
      <trkpt lat="37.05601333" lon="-3.36570833">
        <ele>3396.0</ele>
        <time>2022-11-20T11:59:06.000Z</time>
      </trkpt>
      <trkpt lat="37.05601667" lon="-3.36571167">
        <ele>3396.0</ele>
        <time>2022-11-20T11:59:07.000Z</time>
      </trkpt>
      <trkpt lat="37.05601833" lon="-3.36571667">
        <ele>3396.0</ele>
        <time>2022-11-20T11:59:08.000Z</time>
      </trkpt>
      <trkpt lat="37.05602" lon="-3.36572">
        <ele>3396.0</ele>
        <time>2022-11-20T11:59:09.000Z</time>
      </trkpt>
      <trkpt lat="37.05601833" lon="-3.365725">
        <ele>3396.0</ele>
        <time>2022-11-20T11:59:10.000Z</time>
      </trkpt>
      <trkpt lat="37.05601667" lon="-3.36572833">
        <ele>3396.0</ele>
        <time>2022-11-20T11:59:11.000Z</time>
      </trkpt>
      <trkpt lat="37.05601667" lon="-3.36573">
        <ele>3396.0</ele>
        <time>2022-11-20T11:59:12.000Z</time>
      </trkpt>
      <trkpt lat="37.05601667" lon="-3.36573">
        <ele>3396.0</ele>
        <time>2022-11-20T11:59:13.000Z</time>
      </trkpt>
      <trkpt lat="37.05601667" lon="-3.36573">
        <ele>3396.0</ele>
        <time>2022-11-20T11:59:14.000Z</time>
      </trkpt>
      <trkpt lat="37.05601667" lon="-3.36573">
        <ele>3396.0</ele>
        <time>2022-11-20T11:59:15.000Z</time>
      </trkpt>
      <trkpt lat="37.05601833" lon="-3.36573">
        <ele>3396.0</ele>
        <time>2022-11-20T11:59:16.000Z</time>
      </trkpt>
      <trkpt lat="37.05601833" lon="-3.36573">
        <ele>3396.0</ele>
        <time>2022-11-20T11:59:17.000Z</time>
      </trkpt>
      <trkpt lat="37.05601833" lon="-3.36573">
        <ele>3396.0</ele>
        <time>2022-11-20T11:59:18.000Z</time>
      </trkpt>
      <trkpt lat="37.05601833" lon="-3.36573">
        <ele>3396.0</ele>
        <time>2022-11-20T11:59:19.000Z</time>
      </trkpt>
      <trkpt lat="37.05601833" lon="-3.36573">
        <ele>3396.0</ele>
        <time>2022-11-20T11:59:20.000Z</time>
      </trkpt>
      <trkpt lat="37.05601833" lon="-3.36573">
        <ele>3396.0</ele>
        <time>2022-11-20T11:59:21.000Z</time>
      </trkpt>
      <trkpt lat="37.05601833" lon="-3.36573">
        <ele>3396.0</ele>
        <time>2022-11-20T11:59:22.000Z</time>
      </trkpt>
      <trkpt lat="37.05601667" lon="-3.36573">
        <ele>3396.0</ele>
        <time>2022-11-20T11:59:23.000Z</time>
      </trkpt>
      <trkpt lat="37.05601333" lon="-3.36572833">
        <ele>3396.0</ele>
        <time>2022-11-20T11:59:24.000Z</time>
      </trkpt>
      <trkpt lat="37.05601167" lon="-3.36572667">
        <ele>3396.0</ele>
        <time>2022-11-20T11:59:25.000Z</time>
      </trkpt>
      <trkpt lat="37.05601167" lon="-3.36572667">
        <ele>3396.0</ele>
        <time>2022-11-20T11:59:26.000Z</time>
      </trkpt>
      <trkpt lat="37.05601167" lon="-3.36572667">
        <ele>3396.0</ele>
        <time>2022-11-20T11:59:27.000Z</time>
      </trkpt>
      <trkpt lat="37.05601333" lon="-3.36572333">
        <ele>3396.0</ele>
        <time>2022-11-20T11:59:28.000Z</time>
      </trkpt>
      <trkpt lat="37.05601667" lon="-3.36571833">
        <ele>3396.0</ele>
        <time>2022-11-20T11:59:29.000Z</time>
      </trkpt>
      <trkpt lat="37.05602" lon="-3.36571333">
        <ele>3396.0</ele>
        <time>2022-11-20T11:59:30.000Z</time>
      </trkpt>
      <trkpt lat="37.05602167" lon="-3.36570833">
        <ele>3397.0</ele>
        <time>2022-11-20T11:59:31.000Z</time>
      </trkpt>
      <trkpt lat="37.05602167" lon="-3.365705">
        <ele>3397.0</ele>
        <time>2022-11-20T11:59:32.000Z</time>
      </trkpt>
      <trkpt lat="37.056025" lon="-3.3657">
        <ele>3397.0</ele>
        <time>2022-11-20T11:59:33.000Z</time>
      </trkpt>
      <trkpt lat="37.05603" lon="-3.36569667">
        <ele>3397.0</ele>
        <time>2022-11-20T11:59:34.000Z</time>
      </trkpt>
      <trkpt lat="37.056035" lon="-3.36569167">
        <ele>3397.0</ele>
        <time>2022-11-20T11:59:35.000Z</time>
      </trkpt>
      <trkpt lat="37.05603833" lon="-3.36569">
        <ele>3397.0</ele>
        <time>2022-11-20T11:59:36.000Z</time>
      </trkpt>
      <trkpt lat="37.05604167" lon="-3.36569">
        <ele>3397.0</ele>
        <time>2022-11-20T11:59:37.000Z</time>
      </trkpt>
      <trkpt lat="37.05604167" lon="-3.36569333">
        <ele>3397.0</ele>
        <time>2022-11-20T11:59:38.000Z</time>
      </trkpt>
      <trkpt lat="37.05604" lon="-3.36569">
        <ele>3397.0</ele>
        <time>2022-11-20T11:59:39.000Z</time>
      </trkpt>
      <trkpt lat="37.05604167" lon="-3.36569">
        <ele>3397.0</ele>
        <time>2022-11-20T11:59:40.000Z</time>
      </trkpt>
      <trkpt lat="37.05604167" lon="-3.36569">
        <ele>3397.0</ele>
        <time>2022-11-20T11:59:41.000Z</time>
      </trkpt>
      <trkpt lat="37.05604167" lon="-3.36569">
        <ele>3397.0</ele>
        <time>2022-11-20T11:59:42.000Z</time>
      </trkpt>
      <trkpt lat="37.05604167" lon="-3.36569">
        <ele>3397.0</ele>
        <time>2022-11-20T11:59:43.000Z</time>
      </trkpt>
      <trkpt lat="37.05604167" lon="-3.36569">
        <ele>3397.0</ele>
        <time>2022-11-20T11:59:44.000Z</time>
      </trkpt>
      <trkpt lat="37.05604167" lon="-3.36569">
        <ele>3397.0</ele>
        <time>2022-11-20T11:59:45.000Z</time>
      </trkpt>
      <trkpt lat="37.05604167" lon="-3.36569">
        <ele>3397.0</ele>
        <time>2022-11-20T11:59:46.000Z</time>
      </trkpt>
      <trkpt lat="37.05604167" lon="-3.36569">
        <ele>3397.0</ele>
        <time>2022-11-20T11:59:47.000Z</time>
      </trkpt>
      <trkpt lat="37.05604167" lon="-3.36569167">
        <ele>3397.0</ele>
        <time>2022-11-20T11:59:48.000Z</time>
      </trkpt>
      <trkpt lat="37.05604167" lon="-3.36569167">
        <ele>3397.0</ele>
        <time>2022-11-20T11:59:49.000Z</time>
      </trkpt>
      <trkpt lat="37.05604167" lon="-3.36569167">
        <ele>3397.0</ele>
        <time>2022-11-20T11:59:50.000Z</time>
      </trkpt>
      <trkpt lat="37.05604333" lon="-3.36569333">
        <ele>3397.0</ele>
        <time>2022-11-20T11:59:51.000Z</time>
      </trkpt>
      <trkpt lat="37.05604" lon="-3.36569667">
        <ele>3397.0</ele>
        <time>2022-11-20T11:59:52.000Z</time>
      </trkpt>
      <trkpt lat="37.056035" lon="-3.36569833">
        <ele>3397.0</ele>
        <time>2022-11-20T11:59:53.000Z</time>
      </trkpt>
      <trkpt lat="37.056035" lon="-3.36569667">
        <ele>3397.0</ele>
        <time>2022-11-20T11:59:54.000Z</time>
      </trkpt>
      <trkpt lat="37.05603833" lon="-3.365695">
        <ele>3397.0</ele>
        <time>2022-11-20T11:59:55.000Z</time>
      </trkpt>
      <trkpt lat="37.05604333" lon="-3.36569333">
        <ele>3397.0</ele>
        <time>2022-11-20T11:59:56.000Z</time>
      </trkpt>
      <trkpt lat="37.05604833" lon="-3.36569333">
        <ele>3397.0</ele>
        <time>2022-11-20T11:59:57.000Z</time>
      </trkpt>
      <trkpt lat="37.056055" lon="-3.36569333">
        <ele>3397.0</ele>
        <time>2022-11-20T11:59:58.000Z</time>
      </trkpt>
      <trkpt lat="37.05605833" lon="-3.36569333">
        <ele>3397.0</ele>
        <time>2022-11-20T11:59:59.000Z</time>
      </trkpt>
      <trkpt lat="37.05605833" lon="-3.365695">
        <ele>3397.0</ele>
        <time>2022-11-20T12:00:00.000Z</time>
      </trkpt>
      <trkpt lat="37.05605833" lon="-3.365695">
        <ele>3397.0</ele>
        <time>2022-11-20T12:00:01.000Z</time>
      </trkpt>
      <trkpt lat="37.05605833" lon="-3.365695">
        <ele>3397.0</ele>
        <time>2022-11-20T12:00:02.000Z</time>
      </trkpt>
      <trkpt lat="37.05605833" lon="-3.365695">
        <ele>3397.0</ele>
        <time>2022-11-20T12:00:03.000Z</time>
      </trkpt>
      <trkpt lat="37.05605833" lon="-3.365695">
        <ele>3397.0</ele>
        <time>2022-11-20T12:00:04.000Z</time>
      </trkpt>
      <trkpt lat="37.05605833" lon="-3.365695">
        <ele>3397.0</ele>
        <time>2022-11-20T12:00:05.000Z</time>
      </trkpt>
      <trkpt lat="37.05605833" lon="-3.365695">
        <ele>3397.0</ele>
        <time>2022-11-20T12:00:06.000Z</time>
      </trkpt>
      <trkpt lat="37.05605833" lon="-3.365695">
        <ele>3397.0</ele>
        <time>2022-11-20T12:00:07.000Z</time>
      </trkpt>
      <trkpt lat="37.05605833" lon="-3.365695">
        <ele>3397.0</ele>
        <time>2022-11-20T12:00:08.000Z</time>
      </trkpt>
      <trkpt lat="37.05605833" lon="-3.365695">
        <ele>3397.0</ele>
        <time>2022-11-20T12:00:09.000Z</time>
      </trkpt>
      <trkpt lat="37.05605833" lon="-3.36569333">
        <ele>3397.0</ele>
        <time>2022-11-20T12:00:10.000Z</time>
      </trkpt>
      <trkpt lat="37.056055" lon="-3.36569333">
        <ele>3397.0</ele>
        <time>2022-11-20T12:00:11.000Z</time>
      </trkpt>
      <trkpt lat="37.05605167" lon="-3.36569333">
        <ele>3397.0</ele>
        <time>2022-11-20T12:00:12.000Z</time>
      </trkpt>
      <trkpt lat="37.05604667" lon="-3.36569">
        <ele>3397.0</ele>
        <time>2022-11-20T12:00:13.000Z</time>
      </trkpt>
      <trkpt lat="37.05604167" lon="-3.365685">
        <ele>3397.0</ele>
        <time>2022-11-20T12:00:14.000Z</time>
      </trkpt>
      <trkpt lat="37.05604" lon="-3.36568">
        <ele>3397.0</ele>
        <time>2022-11-20T12:00:15.000Z</time>
      </trkpt>
      <trkpt lat="37.05603833" lon="-3.36567833">
        <ele>3397.0</ele>
        <time>2022-11-20T12:00:16.000Z</time>
      </trkpt>
      <trkpt lat="37.05603833" lon="-3.36567667">
        <ele>3397.0</ele>
        <time>2022-11-20T12:00:17.000Z</time>
      </trkpt>
      <trkpt lat="37.056035" lon="-3.365675">
        <ele>3397.0</ele>
        <time>2022-11-20T12:00:18.000Z</time>
      </trkpt>
      <trkpt lat="37.05603167" lon="-3.36567167">
        <ele>3397.0</ele>
        <time>2022-11-20T12:00:19.000Z</time>
      </trkpt>
      <trkpt lat="37.05603" lon="-3.36567">
        <ele>3397.0</ele>
        <time>2022-11-20T12:00:20.000Z</time>
      </trkpt>
      <trkpt lat="37.05602833" lon="-3.36566833">
        <ele>3398.0</ele>
        <time>2022-11-20T12:00:21.000Z</time>
      </trkpt>
      <trkpt lat="37.05602667" lon="-3.365665">
        <ele>3398.0</ele>
        <time>2022-11-20T12:00:22.000Z</time>
      </trkpt>
      <trkpt lat="37.056025" lon="-3.36566167">
        <ele>3398.0</ele>
        <time>2022-11-20T12:00:23.000Z</time>
      </trkpt>
      <trkpt lat="37.05602333" lon="-3.36565667">
        <ele>3398.0</ele>
        <time>2022-11-20T12:00:24.000Z</time>
      </trkpt>
      <trkpt lat="37.056025" lon="-3.36565667">
        <ele>3398.0</ele>
        <time>2022-11-20T12:00:25.000Z</time>
      </trkpt>
      <trkpt lat="37.05602833" lon="-3.36566">
        <ele>3398.0</ele>
        <time>2022-11-20T12:00:26.000Z</time>
      </trkpt>
      <trkpt lat="37.05602833" lon="-3.36566">
        <ele>3398.0</ele>
        <time>2022-11-20T12:00:27.000Z</time>
      </trkpt>
      <trkpt lat="37.05603" lon="-3.36566167">
        <ele>3398.0</ele>
        <time>2022-11-20T12:00:28.000Z</time>
      </trkpt>
      <trkpt lat="37.05603" lon="-3.36566167">
        <ele>3398.0</ele>
        <time>2022-11-20T12:00:29.000Z</time>
      </trkpt>
      <trkpt lat="37.05602833" lon="-3.36566167">
        <ele>3398.0</ele>
        <time>2022-11-20T12:00:30.000Z</time>
      </trkpt>
      <trkpt lat="37.05602833" lon="-3.36566167">
        <ele>3398.0</ele>
        <time>2022-11-20T12:00:31.000Z</time>
      </trkpt>
      <trkpt lat="37.05602833" lon="-3.36566167">
        <ele>3398.0</ele>
        <time>2022-11-20T12:00:32.000Z</time>
      </trkpt>
      <trkpt lat="37.05602833" lon="-3.36566">
        <ele>3398.0</ele>
        <time>2022-11-20T12:00:33.000Z</time>
      </trkpt>
      <trkpt lat="37.05602667" lon="-3.36566">
        <ele>3398.0</ele>
        <time>2022-11-20T12:00:34.000Z</time>
      </trkpt>
      <trkpt lat="37.05602667" lon="-3.36566">
        <ele>3398.0</ele>
        <time>2022-11-20T12:00:35.000Z</time>
      </trkpt>
      <trkpt lat="37.05602667" lon="-3.36565833">
        <ele>3398.0</ele>
        <time>2022-11-20T12:00:36.000Z</time>
      </trkpt>
      <trkpt lat="37.05602667" lon="-3.36565667">
        <ele>3398.0</ele>
        <time>2022-11-20T12:00:37.000Z</time>
      </trkpt>
      <trkpt lat="37.05602667" lon="-3.36565667">
        <ele>3398.0</ele>
        <time>2022-11-20T12:00:38.000Z</time>
      </trkpt>
      <trkpt lat="37.05602667" lon="-3.36565667">
        <ele>3398.0</ele>
        <time>2022-11-20T12:00:39.000Z</time>
      </trkpt>
      <trkpt lat="37.05602667" lon="-3.36565667">
        <ele>3398.0</ele>
        <time>2022-11-20T12:00:40.000Z</time>
      </trkpt>
      <trkpt lat="37.05602667" lon="-3.36565667">
        <ele>3398.0</ele>
        <time>2022-11-20T12:00:41.000Z</time>
      </trkpt>
      <trkpt lat="37.05602667" lon="-3.36565667">
        <ele>3398.0</ele>
        <time>2022-11-20T12:00:42.000Z</time>
      </trkpt>
      <trkpt lat="37.05602667" lon="-3.36565667">
        <ele>3398.0</ele>
        <time>2022-11-20T12:00:43.000Z</time>
      </trkpt>
      <trkpt lat="37.056025" lon="-3.36565833">
        <ele>3398.0</ele>
        <time>2022-11-20T12:00:44.000Z</time>
      </trkpt>
      <trkpt lat="37.056025" lon="-3.36565833">
        <ele>3398.0</ele>
        <time>2022-11-20T12:00:45.000Z</time>
      </trkpt>
      <trkpt lat="37.05602333" lon="-3.36565833">
        <ele>3398.0</ele>
        <time>2022-11-20T12:00:46.000Z</time>
      </trkpt>
      <trkpt lat="37.05602333" lon="-3.36565833">
        <ele>3398.0</ele>
        <time>2022-11-20T12:00:47.000Z</time>
      </trkpt>
      <trkpt lat="37.056025" lon="-3.36566">
        <ele>3398.0</ele>
        <time>2022-11-20T12:00:48.000Z</time>
      </trkpt>
      <trkpt lat="37.05602667" lon="-3.36566">
        <ele>3398.0</ele>
        <time>2022-11-20T12:00:49.000Z</time>
      </trkpt>
      <trkpt lat="37.05602667" lon="-3.36566">
        <ele>3398.0</ele>
        <time>2022-11-20T12:00:50.000Z</time>
      </trkpt>
      <trkpt lat="37.05602667" lon="-3.36566167">
        <ele>3398.0</ele>
        <time>2022-11-20T12:00:51.000Z</time>
      </trkpt>
      <trkpt lat="37.05602667" lon="-3.36566167">
        <ele>3398.0</ele>
        <time>2022-11-20T12:00:52.000Z</time>
      </trkpt>
      <trkpt lat="37.05602667" lon="-3.36566167">
        <ele>3398.0</ele>
        <time>2022-11-20T12:00:53.000Z</time>
      </trkpt>
      <trkpt lat="37.05602667" lon="-3.36566167">
        <ele>3398.0</ele>
        <time>2022-11-20T12:00:54.000Z</time>
      </trkpt>
      <trkpt lat="37.05602667" lon="-3.36566167">
        <ele>3398.0</ele>
        <time>2022-11-20T12:00:55.000Z</time>
      </trkpt>
      <trkpt lat="37.05602667" lon="-3.36566167">
        <ele>3398.0</ele>
        <time>2022-11-20T12:00:56.000Z</time>
      </trkpt>
      <trkpt lat="37.056025" lon="-3.36566167">
        <ele>3398.0</ele>
        <time>2022-11-20T12:00:57.000Z</time>
      </trkpt>
      <trkpt lat="37.056025" lon="-3.36566167">
        <ele>3398.0</ele>
        <time>2022-11-20T12:00:58.000Z</time>
      </trkpt>
      <trkpt lat="37.056025" lon="-3.365665">
        <ele>3398.0</ele>
        <time>2022-11-20T12:00:59.000Z</time>
      </trkpt>
      <trkpt lat="37.056025" lon="-3.36566833">
        <ele>3398.0</ele>
        <time>2022-11-20T12:01:00.000Z</time>
      </trkpt>
      <trkpt lat="37.056025" lon="-3.36566667">
        <ele>3398.0</ele>
        <time>2022-11-20T12:01:01.000Z</time>
      </trkpt>
      <trkpt lat="37.056025" lon="-3.36566667">
        <ele>3398.0</ele>
        <time>2022-11-20T12:01:02.000Z</time>
      </trkpt>
      <trkpt lat="37.056025" lon="-3.36566833">
        <ele>3398.0</ele>
        <time>2022-11-20T12:01:03.000Z</time>
      </trkpt>
      <trkpt lat="37.056025" lon="-3.36567">
        <ele>3398.0</ele>
        <time>2022-11-20T12:01:04.000Z</time>
      </trkpt>
      <trkpt lat="37.056025" lon="-3.36567">
        <ele>3398.0</ele>
        <time>2022-11-20T12:01:05.000Z</time>
      </trkpt>
      <trkpt lat="37.056025" lon="-3.36567">
        <ele>3398.0</ele>
        <time>2022-11-20T12:01:06.000Z</time>
      </trkpt>
      <trkpt lat="37.056025" lon="-3.36567">
        <ele>3398.0</ele>
        <time>2022-11-20T12:01:07.000Z</time>
      </trkpt>
      <trkpt lat="37.056025" lon="-3.36567167">
        <ele>3398.0</ele>
        <time>2022-11-20T12:01:08.000Z</time>
      </trkpt>
      <trkpt lat="37.056025" lon="-3.36567333">
        <ele>3398.0</ele>
        <time>2022-11-20T12:01:09.000Z</time>
      </trkpt>
      <trkpt lat="37.05602667" lon="-3.36567167">
        <ele>3398.0</ele>
        <time>2022-11-20T12:01:10.000Z</time>
      </trkpt>
      <trkpt lat="37.056025" lon="-3.36566833">
        <ele>3398.0</ele>
        <time>2022-11-20T12:01:11.000Z</time>
      </trkpt>
      <trkpt lat="37.056025" lon="-3.36566833">
        <ele>3398.0</ele>
        <time>2022-11-20T12:01:12.000Z</time>
      </trkpt>
      <trkpt lat="37.05602667" lon="-3.36567167">
        <ele>3398.0</ele>
        <time>2022-11-20T12:01:13.000Z</time>
      </trkpt>
      <trkpt lat="37.05602833" lon="-3.365675">
        <ele>3398.0</ele>
        <time>2022-11-20T12:01:14.000Z</time>
      </trkpt>
      <trkpt lat="37.05603" lon="-3.36567833">
        <ele>3397.0</ele>
        <time>2022-11-20T12:01:15.000Z</time>
      </trkpt>
      <trkpt lat="37.05602667" lon="-3.36568167">
        <ele>3397.0</ele>
        <time>2022-11-20T12:01:16.000Z</time>
      </trkpt>
      <trkpt lat="37.05602333" lon="-3.36568167">
        <ele>3397.0</ele>
        <time>2022-11-20T12:01:17.000Z</time>
      </trkpt>
      <trkpt lat="37.05602" lon="-3.36568333">
        <ele>3397.0</ele>
        <time>2022-11-20T12:01:18.000Z</time>
      </trkpt>
      <trkpt lat="37.05601667" lon="-3.365685">
        <ele>3397.0</ele>
        <time>2022-11-20T12:01:19.000Z</time>
      </trkpt>
      <trkpt lat="37.056015" lon="-3.36569">
        <ele>3397.0</ele>
        <time>2022-11-20T12:01:20.000Z</time>
      </trkpt>
      <trkpt lat="37.05601667" lon="-3.36569833">
        <ele>3397.0</ele>
        <time>2022-11-20T12:01:21.000Z</time>
      </trkpt>
      <trkpt lat="37.05601667" lon="-3.36571">
        <ele>3397.0</ele>
        <time>2022-11-20T12:01:22.000Z</time>
      </trkpt>
      <trkpt lat="37.056015" lon="-3.36571833">
        <ele>3397.0</ele>
        <time>2022-11-20T12:01:23.000Z</time>
      </trkpt>
      <trkpt lat="37.05601167" lon="-3.36572333">
        <ele>3397.0</ele>
        <time>2022-11-20T12:01:24.000Z</time>
      </trkpt>
      <trkpt lat="37.056005" lon="-3.36572833">
        <ele>3397.0</ele>
        <time>2022-11-20T12:01:25.000Z</time>
      </trkpt>
      <trkpt lat="37.05600333" lon="-3.365735">
        <ele>3397.0</ele>
        <time>2022-11-20T12:01:26.000Z</time>
      </trkpt>
      <trkpt lat="37.05599833" lon="-3.36574">
        <ele>3397.0</ele>
        <time>2022-11-20T12:01:27.000Z</time>
      </trkpt>
      <trkpt lat="37.055995" lon="-3.36574333">
        <ele>3396.0</ele>
        <time>2022-11-20T12:01:28.000Z</time>
      </trkpt>
      <trkpt lat="37.05598833" lon="-3.36574667">
        <ele>3396.0</ele>
        <time>2022-11-20T12:01:29.000Z</time>
      </trkpt>
      <trkpt lat="37.05598333" lon="-3.36574833">
        <ele>3396.0</ele>
        <time>2022-11-20T12:01:30.000Z</time>
      </trkpt>
      <trkpt lat="37.05597833" lon="-3.36574833">
        <ele>3396.0</ele>
        <time>2022-11-20T12:01:31.000Z</time>
      </trkpt>
      <trkpt lat="37.055975" lon="-3.36575">
        <ele>3396.0</ele>
        <time>2022-11-20T12:01:32.000Z</time>
      </trkpt>
      <trkpt lat="37.05596833" lon="-3.36575167">
        <ele>3396.0</ele>
        <time>2022-11-20T12:01:33.000Z</time>
      </trkpt>
      <trkpt lat="37.05596333" lon="-3.36575167">
        <ele>3396.0</ele>
        <time>2022-11-20T12:01:34.000Z</time>
      </trkpt>
      <trkpt lat="37.05596" lon="-3.36575">
        <ele>3396.0</ele>
        <time>2022-11-20T12:01:35.000Z</time>
      </trkpt>
      <trkpt lat="37.055955" lon="-3.36575">
        <ele>3396.0</ele>
        <time>2022-11-20T12:01:36.000Z</time>
      </trkpt>
      <trkpt lat="37.055955" lon="-3.36575">
        <ele>3396.0</ele>
        <time>2022-11-20T12:01:37.000Z</time>
      </trkpt>
      <trkpt lat="37.055955" lon="-3.36575">
        <ele>3396.0</ele>
        <time>2022-11-20T12:01:38.000Z</time>
      </trkpt>
      <trkpt lat="37.055955" lon="-3.36575167">
        <ele>3396.0</ele>
        <time>2022-11-20T12:01:39.000Z</time>
      </trkpt>
      <trkpt lat="37.055955" lon="-3.36575167">
        <ele>3396.0</ele>
        <time>2022-11-20T12:01:40.000Z</time>
      </trkpt>
      <trkpt lat="37.05595667" lon="-3.365755">
        <ele>3396.0</ele>
        <time>2022-11-20T12:01:41.000Z</time>
      </trkpt>
      <trkpt lat="37.05595667" lon="-3.36576167">
        <ele>3396.0</ele>
        <time>2022-11-20T12:01:42.000Z</time>
      </trkpt>
      <trkpt lat="37.055955" lon="-3.36577">
        <ele>3396.0</ele>
        <time>2022-11-20T12:01:43.000Z</time>
      </trkpt>
      <trkpt lat="37.05595167" lon="-3.36577833">
        <ele>3395.0</ele>
        <time>2022-11-20T12:01:44.000Z</time>
      </trkpt>
      <trkpt lat="37.05594667" lon="-3.365785">
        <ele>3395.0</ele>
        <time>2022-11-20T12:01:45.000Z</time>
      </trkpt>
      <trkpt lat="37.05594167" lon="-3.36579">
        <ele>3395.0</ele>
        <time>2022-11-20T12:01:46.000Z</time>
      </trkpt>
      <trkpt lat="37.05593667" lon="-3.365795">
        <ele>3395.0</ele>
        <time>2022-11-20T12:01:47.000Z</time>
      </trkpt>
      <trkpt lat="37.05593333" lon="-3.36579833">
        <ele>3395.0</ele>
        <time>2022-11-20T12:01:48.000Z</time>
      </trkpt>
      <trkpt lat="37.05592833" lon="-3.36580333">
        <ele>3395.0</ele>
        <time>2022-11-20T12:01:49.000Z</time>
      </trkpt>
      <trkpt lat="37.055925" lon="-3.36580667">
        <ele>3395.0</ele>
        <time>2022-11-20T12:01:50.000Z</time>
      </trkpt>
      <trkpt lat="37.05592167" lon="-3.36581">
        <ele>3394.0</ele>
        <time>2022-11-20T12:01:51.000Z</time>
      </trkpt>
      <trkpt lat="37.05592" lon="-3.36581333">
        <ele>3394.0</ele>
        <time>2022-11-20T12:01:52.000Z</time>
      </trkpt>
      <trkpt lat="37.05591833" lon="-3.36581667">
        <ele>3394.0</ele>
        <time>2022-11-20T12:01:53.000Z</time>
      </trkpt>
      <trkpt lat="37.05591833" lon="-3.36582167">
        <ele>3394.0</ele>
        <time>2022-11-20T12:01:54.000Z</time>
      </trkpt>
      <trkpt lat="37.05591667" lon="-3.365825">
        <ele>3394.0</ele>
        <time>2022-11-20T12:01:55.000Z</time>
      </trkpt>
      <trkpt lat="37.05591667" lon="-3.365835">
        <ele>3394.0</ele>
        <time>2022-11-20T12:01:56.000Z</time>
      </trkpt>
      <trkpt lat="37.05591833" lon="-3.36584833">
        <ele>3394.0</ele>
        <time>2022-11-20T12:01:57.000Z</time>
      </trkpt>
      <trkpt lat="37.055915" lon="-3.36585833">
        <ele>3393.0</ele>
        <time>2022-11-20T12:01:58.000Z</time>
      </trkpt>
      <trkpt lat="37.05591167" lon="-3.36586833">
        <ele>3393.0</ele>
        <time>2022-11-20T12:01:59.000Z</time>
      </trkpt>
      <trkpt lat="37.0559" lon="-3.36587833">
        <ele>3393.0</ele>
        <time>2022-11-20T12:02:00.000Z</time>
      </trkpt>
      <trkpt lat="37.05589333" lon="-3.36588833">
        <ele>3393.0</ele>
        <time>2022-11-20T12:02:01.000Z</time>
      </trkpt>
      <trkpt lat="37.05589" lon="-3.36589333">
        <ele>3393.0</ele>
        <time>2022-11-20T12:02:02.000Z</time>
      </trkpt>
      <trkpt lat="37.05589" lon="-3.36589333">
        <ele>3393.0</ele>
        <time>2022-11-20T12:02:03.000Z</time>
      </trkpt>
      <trkpt lat="37.05589" lon="-3.36589333">
        <ele>3393.0</ele>
        <time>2022-11-20T12:02:04.000Z</time>
      </trkpt>
      <trkpt lat="37.05589167" lon="-3.36589333">
        <ele>3393.0</ele>
        <time>2022-11-20T12:02:05.000Z</time>
      </trkpt>
      <trkpt lat="37.05589167" lon="-3.36589333">
        <ele>3393.0</ele>
        <time>2022-11-20T12:02:06.000Z</time>
      </trkpt>
      <trkpt lat="37.05589167" lon="-3.36589333">
        <ele>3393.0</ele>
        <time>2022-11-20T12:02:07.000Z</time>
      </trkpt>
      <trkpt lat="37.05589167" lon="-3.36589333">
        <ele>3393.0</ele>
        <time>2022-11-20T12:02:08.000Z</time>
      </trkpt>
      <trkpt lat="37.05589167" lon="-3.36589333">
        <ele>3393.0</ele>
        <time>2022-11-20T12:02:09.000Z</time>
      </trkpt>
      <trkpt lat="37.05589167" lon="-3.36589333">
        <ele>3393.0</ele>
        <time>2022-11-20T12:02:10.000Z</time>
      </trkpt>
      <trkpt lat="37.05589167" lon="-3.36589333">
        <ele>3393.0</ele>
        <time>2022-11-20T12:02:11.000Z</time>
      </trkpt>
      <trkpt lat="37.05589167" lon="-3.36589333">
        <ele>3393.0</ele>
        <time>2022-11-20T12:02:12.000Z</time>
      </trkpt>
      <trkpt lat="37.05589167" lon="-3.36589333">
        <ele>3393.0</ele>
        <time>2022-11-20T12:02:13.000Z</time>
      </trkpt>
      <trkpt lat="37.05589167" lon="-3.36589333">
        <ele>3393.0</ele>
        <time>2022-11-20T12:02:14.000Z</time>
      </trkpt>
      <trkpt lat="37.05589333" lon="-3.36589333">
        <ele>3393.0</ele>
        <time>2022-11-20T12:02:15.000Z</time>
      </trkpt>
      <trkpt lat="37.05589333" lon="-3.36589333">
        <ele>3393.0</ele>
        <time>2022-11-20T12:02:16.000Z</time>
      </trkpt>
      <trkpt lat="37.05589333" lon="-3.36589333">
        <ele>3393.0</ele>
        <time>2022-11-20T12:02:17.000Z</time>
      </trkpt>
      <trkpt lat="37.05589333" lon="-3.36589333">
        <ele>3393.0</ele>
        <time>2022-11-20T12:02:18.000Z</time>
      </trkpt>
      <trkpt lat="37.05589167" lon="-3.36589333">
        <ele>3393.0</ele>
        <time>2022-11-20T12:02:19.000Z</time>
      </trkpt>
      <trkpt lat="37.05588833" lon="-3.36589167">
        <ele>3393.0</ele>
        <time>2022-11-20T12:02:20.000Z</time>
      </trkpt>
      <trkpt lat="37.055885" lon="-3.36589">
        <ele>3393.0</ele>
        <time>2022-11-20T12:02:21.000Z</time>
      </trkpt>
      <trkpt lat="37.05588333" lon="-3.36589">
        <ele>3393.0</ele>
        <time>2022-11-20T12:02:22.000Z</time>
      </trkpt>
      <trkpt lat="37.05588167" lon="-3.36589167">
        <ele>3393.0</ele>
        <time>2022-11-20T12:02:23.000Z</time>
      </trkpt>
      <trkpt lat="37.05588333" lon="-3.36589167">
        <ele>3393.0</ele>
        <time>2022-11-20T12:02:24.000Z</time>
      </trkpt>
      <trkpt lat="37.055885" lon="-3.365895">
        <ele>3392.0</ele>
        <time>2022-11-20T12:02:25.000Z</time>
      </trkpt>
      <trkpt lat="37.05588333" lon="-3.3659">
        <ele>3392.0</ele>
        <time>2022-11-20T12:02:26.000Z</time>
      </trkpt>
      <trkpt lat="37.05588167" lon="-3.36590333">
        <ele>3392.0</ele>
        <time>2022-11-20T12:02:27.000Z</time>
      </trkpt>
      <trkpt lat="37.05588167" lon="-3.36590333">
        <ele>3392.0</ele>
        <time>2022-11-20T12:02:28.000Z</time>
      </trkpt>
      <trkpt lat="37.05587833" lon="-3.365905">
        <ele>3392.0</ele>
        <time>2022-11-20T12:02:29.000Z</time>
      </trkpt>
      <trkpt lat="37.05587333" lon="-3.36590667">
        <ele>3392.0</ele>
        <time>2022-11-20T12:02:30.000Z</time>
      </trkpt>
      <trkpt lat="37.05586833" lon="-3.36591">
        <ele>3392.0</ele>
        <time>2022-11-20T12:02:31.000Z</time>
      </trkpt>
      <trkpt lat="37.05586333" lon="-3.36591333">
        <ele>3392.0</ele>
        <time>2022-11-20T12:02:32.000Z</time>
      </trkpt>
      <trkpt lat="37.05585833" lon="-3.36591667">
        <ele>3392.0</ele>
        <time>2022-11-20T12:02:33.000Z</time>
      </trkpt>
      <trkpt lat="37.05585667" lon="-3.36591667">
        <ele>3392.0</ele>
        <time>2022-11-20T12:02:34.000Z</time>
      </trkpt>
      <trkpt lat="37.055855" lon="-3.36592">
        <ele>3391.0</ele>
        <time>2022-11-20T12:02:35.000Z</time>
      </trkpt>
      <trkpt lat="37.05585333" lon="-3.36592167">
        <ele>3391.0</ele>
        <time>2022-11-20T12:02:36.000Z</time>
      </trkpt>
      <trkpt lat="37.05585333" lon="-3.36592333">
        <ele>3391.0</ele>
        <time>2022-11-20T12:02:37.000Z</time>
      </trkpt>
      <trkpt lat="37.05585" lon="-3.36592667">
        <ele>3391.0</ele>
        <time>2022-11-20T12:02:38.000Z</time>
      </trkpt>
      <trkpt lat="37.05584667" lon="-3.36593">
        <ele>3391.0</ele>
        <time>2022-11-20T12:02:39.000Z</time>
      </trkpt>
      <trkpt lat="37.05584333" lon="-3.36593167">
        <ele>3391.0</ele>
        <time>2022-11-20T12:02:40.000Z</time>
      </trkpt>
      <trkpt lat="37.05584" lon="-3.365935">
        <ele>3391.0</ele>
        <time>2022-11-20T12:02:41.000Z</time>
      </trkpt>
      <trkpt lat="37.055835" lon="-3.36593667">
        <ele>3391.0</ele>
        <time>2022-11-20T12:02:42.000Z</time>
      </trkpt>
      <trkpt lat="37.05583167" lon="-3.36593833">
        <ele>3390.0</ele>
        <time>2022-11-20T12:02:43.000Z</time>
      </trkpt>
      <trkpt lat="37.05583" lon="-3.36594">
        <ele>3390.0</ele>
        <time>2022-11-20T12:02:44.000Z</time>
      </trkpt>
      <trkpt lat="37.05582833" lon="-3.36594167">
        <ele>3390.0</ele>
        <time>2022-11-20T12:02:45.000Z</time>
      </trkpt>
      <trkpt lat="37.055825" lon="-3.365945">
        <ele>3390.0</ele>
        <time>2022-11-20T12:02:46.000Z</time>
      </trkpt>
      <trkpt lat="37.05582333" lon="-3.36595">
        <ele>3390.0</ele>
        <time>2022-11-20T12:02:47.000Z</time>
      </trkpt>
      <trkpt lat="37.05581667" lon="-3.365955">
        <ele>3390.0</ele>
        <time>2022-11-20T12:02:48.000Z</time>
      </trkpt>
      <trkpt lat="37.05581" lon="-3.36595833">
        <ele>3390.0</ele>
        <time>2022-11-20T12:02:49.000Z</time>
      </trkpt>
      <trkpt lat="37.05580333" lon="-3.36596333">
        <ele>3389.0</ele>
        <time>2022-11-20T12:02:50.000Z</time>
      </trkpt>
      <trkpt lat="37.05579667" lon="-3.36597167">
        <ele>3389.0</ele>
        <time>2022-11-20T12:02:51.000Z</time>
      </trkpt>
      <trkpt lat="37.05579" lon="-3.365975">
        <ele>3389.0</ele>
        <time>2022-11-20T12:02:52.000Z</time>
      </trkpt>
      <trkpt lat="37.05578667" lon="-3.36597833">
        <ele>3389.0</ele>
        <time>2022-11-20T12:02:53.000Z</time>
      </trkpt>
      <trkpt lat="37.05578333" lon="-3.36598167">
        <ele>3389.0</ele>
        <time>2022-11-20T12:02:54.000Z</time>
      </trkpt>
      <trkpt lat="37.05578" lon="-3.36598667">
        <ele>3388.0</ele>
        <time>2022-11-20T12:02:55.000Z</time>
      </trkpt>
      <trkpt lat="37.05578" lon="-3.36599167">
        <ele>3388.0</ele>
        <time>2022-11-20T12:02:56.000Z</time>
      </trkpt>
      <trkpt lat="37.05578167" lon="-3.36599667">
        <ele>3388.0</ele>
        <time>2022-11-20T12:02:57.000Z</time>
      </trkpt>
      <trkpt lat="37.05578167" lon="-3.366">
        <ele>3388.0</ele>
        <time>2022-11-20T12:02:58.000Z</time>
      </trkpt>
      <trkpt lat="37.05578333" lon="-3.366">
        <ele>3388.0</ele>
        <time>2022-11-20T12:02:59.000Z</time>
      </trkpt>
      <trkpt lat="37.055785" lon="-3.36600167">
        <ele>3388.0</ele>
        <time>2022-11-20T12:03:00.000Z</time>
      </trkpt>
      <trkpt lat="37.05578833" lon="-3.366005">
        <ele>3387.0</ele>
        <time>2022-11-20T12:03:01.000Z</time>
      </trkpt>
      <trkpt lat="37.05579167" lon="-3.366015">
        <ele>3387.0</ele>
        <time>2022-11-20T12:03:02.000Z</time>
      </trkpt>
      <trkpt lat="37.05578667" lon="-3.36602667">
        <ele>3387.0</ele>
        <time>2022-11-20T12:03:03.000Z</time>
      </trkpt>
      <trkpt lat="37.05578167" lon="-3.36603">
        <ele>3387.0</ele>
        <time>2022-11-20T12:03:04.000Z</time>
      </trkpt>
      <trkpt lat="37.05578" lon="-3.366035">
        <ele>3387.0</ele>
        <time>2022-11-20T12:03:05.000Z</time>
      </trkpt>
      <trkpt lat="37.055775" lon="-3.36604167">
        <ele>3387.0</ele>
        <time>2022-11-20T12:03:06.000Z</time>
      </trkpt>
      <trkpt lat="37.05577" lon="-3.366045">
        <ele>3387.0</ele>
        <time>2022-11-20T12:03:07.000Z</time>
      </trkpt>
      <trkpt lat="37.055765" lon="-3.36604833">
        <ele>3386.0</ele>
        <time>2022-11-20T12:03:08.000Z</time>
      </trkpt>
      <trkpt lat="37.05575667" lon="-3.36605">
        <ele>3386.0</ele>
        <time>2022-11-20T12:03:09.000Z</time>
      </trkpt>
      <trkpt lat="37.055755" lon="-3.36605167">
        <ele>3386.0</ele>
        <time>2022-11-20T12:03:10.000Z</time>
      </trkpt>
      <trkpt lat="37.05575167" lon="-3.36605667">
        <ele>3386.0</ele>
        <time>2022-11-20T12:03:11.000Z</time>
      </trkpt>
      <trkpt lat="37.05574667" lon="-3.36606667">
        <ele>3386.0</ele>
        <time>2022-11-20T12:03:12.000Z</time>
      </trkpt>
      <trkpt lat="37.05573667" lon="-3.36607">
        <ele>3386.0</ele>
        <time>2022-11-20T12:03:13.000Z</time>
      </trkpt>
      <trkpt lat="37.05573" lon="-3.36607167">
        <ele>3386.0</ele>
        <time>2022-11-20T12:03:14.000Z</time>
      </trkpt>
      <trkpt lat="37.05572167" lon="-3.36607333">
        <ele>3385.0</ele>
        <time>2022-11-20T12:03:15.000Z</time>
      </trkpt>
      <trkpt lat="37.05571333" lon="-3.36607667">
        <ele>3385.0</ele>
        <time>2022-11-20T12:03:16.000Z</time>
      </trkpt>
      <trkpt lat="37.055705" lon="-3.36608">
        <ele>3385.0</ele>
        <time>2022-11-20T12:03:17.000Z</time>
      </trkpt>
      <trkpt lat="37.05569833" lon="-3.36607333">
        <ele>3385.0</ele>
        <time>2022-11-20T12:03:18.000Z</time>
      </trkpt>
      <trkpt lat="37.05569667" lon="-3.36607">
        <ele>3385.0</ele>
        <time>2022-11-20T12:03:19.000Z</time>
      </trkpt>
      <trkpt lat="37.05569667" lon="-3.36606833">
        <ele>3385.0</ele>
        <time>2022-11-20T12:03:20.000Z</time>
      </trkpt>
      <trkpt lat="37.055695" lon="-3.36607">
        <ele>3385.0</ele>
        <time>2022-11-20T12:03:21.000Z</time>
      </trkpt>
      <trkpt lat="37.055695" lon="-3.36607">
        <ele>3385.0</ele>
        <time>2022-11-20T12:03:22.000Z</time>
      </trkpt>
      <trkpt lat="37.055695" lon="-3.36607">
        <ele>3385.0</ele>
        <time>2022-11-20T12:03:23.000Z</time>
      </trkpt>
      <trkpt lat="37.055695" lon="-3.36607">
        <ele>3385.0</ele>
        <time>2022-11-20T12:03:24.000Z</time>
      </trkpt>
      <trkpt lat="37.055695" lon="-3.36607">
        <ele>3385.0</ele>
        <time>2022-11-20T12:03:25.000Z</time>
      </trkpt>
      <trkpt lat="37.05569167" lon="-3.366075">
        <ele>3385.0</ele>
        <time>2022-11-20T12:03:26.000Z</time>
      </trkpt>
      <trkpt lat="37.05568833" lon="-3.366075">
        <ele>3384.0</ele>
        <time>2022-11-20T12:03:27.000Z</time>
      </trkpt>
      <trkpt lat="37.05568" lon="-3.36607333">
        <ele>3384.0</ele>
        <time>2022-11-20T12:03:28.000Z</time>
      </trkpt>
      <trkpt lat="37.05567333" lon="-3.366075">
        <ele>3384.0</ele>
        <time>2022-11-20T12:03:29.000Z</time>
      </trkpt>
      <trkpt lat="37.05566667" lon="-3.36607667">
        <ele>3384.0</ele>
        <time>2022-11-20T12:03:30.000Z</time>
      </trkpt>
      <trkpt lat="37.05565833" lon="-3.36607833">
        <ele>3384.0</ele>
        <time>2022-11-20T12:03:31.000Z</time>
      </trkpt>
      <trkpt lat="37.05565" lon="-3.36608">
        <ele>3384.0</ele>
        <time>2022-11-20T12:03:32.000Z</time>
      </trkpt>
      <trkpt lat="37.05564333" lon="-3.366085">
        <ele>3384.0</ele>
        <time>2022-11-20T12:03:33.000Z</time>
      </trkpt>
      <trkpt lat="37.055635" lon="-3.36609333">
        <ele>3384.0</ele>
        <time>2022-11-20T12:03:34.000Z</time>
      </trkpt>
      <trkpt lat="37.055625" lon="-3.36609833">
        <ele>3384.0</ele>
        <time>2022-11-20T12:03:35.000Z</time>
      </trkpt>
      <trkpt lat="37.05561667" lon="-3.36610333">
        <ele>3384.0</ele>
        <time>2022-11-20T12:03:36.000Z</time>
      </trkpt>
      <trkpt lat="37.05560667" lon="-3.36610833">
        <ele>3383.0</ele>
        <time>2022-11-20T12:03:37.000Z</time>
      </trkpt>
      <trkpt lat="37.05559667" lon="-3.366115">
        <ele>3383.0</ele>
        <time>2022-11-20T12:03:38.000Z</time>
      </trkpt>
      <trkpt lat="37.05558667" lon="-3.36612">
        <ele>3383.0</ele>
        <time>2022-11-20T12:03:39.000Z</time>
      </trkpt>
      <trkpt lat="37.05557833" lon="-3.36612333">
        <ele>3383.0</ele>
        <time>2022-11-20T12:03:40.000Z</time>
      </trkpt>
      <trkpt lat="37.05556667" lon="-3.36612333">
        <ele>3383.0</ele>
        <time>2022-11-20T12:03:41.000Z</time>
      </trkpt>
      <trkpt lat="37.055555" lon="-3.366125">
        <ele>3383.0</ele>
        <time>2022-11-20T12:03:42.000Z</time>
      </trkpt>
      <trkpt lat="37.05554667" lon="-3.366125">
        <ele>3383.0</ele>
        <time>2022-11-20T12:03:43.000Z</time>
      </trkpt>
      <trkpt lat="37.055535" lon="-3.36612167">
        <ele>3383.0</ele>
        <time>2022-11-20T12:03:44.000Z</time>
      </trkpt>
      <trkpt lat="37.05552333" lon="-3.366115">
        <ele>3383.0</ele>
        <time>2022-11-20T12:03:45.000Z</time>
      </trkpt>
      <trkpt lat="37.05551833" lon="-3.36610833">
        <ele>3383.0</ele>
        <time>2022-11-20T12:03:46.000Z</time>
      </trkpt>
      <trkpt lat="37.05551" lon="-3.36610333">
        <ele>3382.0</ele>
        <time>2022-11-20T12:03:47.000Z</time>
      </trkpt>
      <trkpt lat="37.05550333" lon="-3.36610167">
        <ele>3382.0</ele>
        <time>2022-11-20T12:03:48.000Z</time>
      </trkpt>
      <trkpt lat="37.055495" lon="-3.36610167">
        <ele>3382.0</ele>
        <time>2022-11-20T12:03:49.000Z</time>
      </trkpt>
      <trkpt lat="37.05548667" lon="-3.36610333">
        <ele>3382.0</ele>
        <time>2022-11-20T12:03:50.000Z</time>
      </trkpt>
      <trkpt lat="37.05548" lon="-3.36610833">
        <ele>3382.0</ele>
        <time>2022-11-20T12:03:51.000Z</time>
      </trkpt>
      <trkpt lat="37.055475" lon="-3.366115">
        <ele>3382.0</ele>
        <time>2022-11-20T12:03:52.000Z</time>
      </trkpt>
      <trkpt lat="37.05546833" lon="-3.36612667">
        <ele>3382.0</ele>
        <time>2022-11-20T12:03:53.000Z</time>
      </trkpt>
      <trkpt lat="37.05545833" lon="-3.366135">
        <ele>3382.0</ele>
        <time>2022-11-20T12:03:54.000Z</time>
      </trkpt>
      <trkpt lat="37.05545" lon="-3.36614333">
        <ele>3381.0</ele>
        <time>2022-11-20T12:03:55.000Z</time>
      </trkpt>
      <trkpt lat="37.055445" lon="-3.366155">
        <ele>3381.0</ele>
        <time>2022-11-20T12:03:56.000Z</time>
      </trkpt>
      <trkpt lat="37.05544333" lon="-3.36616667">
        <ele>3381.0</ele>
        <time>2022-11-20T12:03:57.000Z</time>
      </trkpt>
      <trkpt lat="37.05544333" lon="-3.36617333">
        <ele>3381.0</ele>
        <time>2022-11-20T12:03:58.000Z</time>
      </trkpt>
      <trkpt lat="37.055445" lon="-3.36618667">
        <ele>3381.0</ele>
        <time>2022-11-20T12:03:59.000Z</time>
      </trkpt>
      <trkpt lat="37.055445" lon="-3.3662">
        <ele>3381.0</ele>
        <time>2022-11-20T12:04:00.000Z</time>
      </trkpt>
      <trkpt lat="37.05544333" lon="-3.36621333">
        <ele>3381.0</ele>
        <time>2022-11-20T12:04:01.000Z</time>
      </trkpt>
      <trkpt lat="37.05544167" lon="-3.366225">
        <ele>3381.0</ele>
        <time>2022-11-20T12:04:02.000Z</time>
      </trkpt>
      <trkpt lat="37.05544" lon="-3.366235">
        <ele>3381.0</ele>
        <time>2022-11-20T12:04:03.000Z</time>
      </trkpt>
      <trkpt lat="37.05544" lon="-3.36624167">
        <ele>3381.0</ele>
        <time>2022-11-20T12:04:04.000Z</time>
      </trkpt>
      <trkpt lat="37.05544" lon="-3.36624333">
        <ele>3381.0</ele>
        <time>2022-11-20T12:04:05.000Z</time>
      </trkpt>
      <trkpt lat="37.05544" lon="-3.366245">
        <ele>3381.0</ele>
        <time>2022-11-20T12:04:06.000Z</time>
      </trkpt>
      <trkpt lat="37.05544" lon="-3.36624833">
        <ele>3381.0</ele>
        <time>2022-11-20T12:04:07.000Z</time>
      </trkpt>
      <trkpt lat="37.05543667" lon="-3.36624833">
        <ele>3381.0</ele>
        <time>2022-11-20T12:04:08.000Z</time>
      </trkpt>
      <trkpt lat="37.055435" lon="-3.36624">
        <ele>3381.0</ele>
        <time>2022-11-20T12:04:09.000Z</time>
      </trkpt>
      <trkpt lat="37.055435" lon="-3.36623333">
        <ele>3381.0</ele>
        <time>2022-11-20T12:04:10.000Z</time>
      </trkpt>
      <trkpt lat="37.055435" lon="-3.366225">
        <ele>3381.0</ele>
        <time>2022-11-20T12:04:11.000Z</time>
      </trkpt>
      <trkpt lat="37.05543333" lon="-3.36622">
        <ele>3381.0</ele>
        <time>2022-11-20T12:04:12.000Z</time>
      </trkpt>
      <trkpt lat="37.05543167" lon="-3.36621667">
        <ele>3381.0</ele>
        <time>2022-11-20T12:04:13.000Z</time>
      </trkpt>
      <trkpt lat="37.05543333" lon="-3.366215">
        <ele>3381.0</ele>
        <time>2022-11-20T12:04:14.000Z</time>
      </trkpt>
      <trkpt lat="37.05543333" lon="-3.366215">
        <ele>3381.0</ele>
        <time>2022-11-20T12:04:15.000Z</time>
      </trkpt>
      <trkpt lat="37.05543333" lon="-3.366215">
        <ele>3381.0</ele>
        <time>2022-11-20T12:04:16.000Z</time>
      </trkpt>
      <trkpt lat="37.05543167" lon="-3.36621667">
        <ele>3380.0</ele>
        <time>2022-11-20T12:04:17.000Z</time>
      </trkpt>
      <trkpt lat="37.05542833" lon="-3.36621833">
        <ele>3380.0</ele>
        <time>2022-11-20T12:04:18.000Z</time>
      </trkpt>
      <trkpt lat="37.055425" lon="-3.36621833">
        <ele>3380.0</ele>
        <time>2022-11-20T12:04:19.000Z</time>
      </trkpt>
      <trkpt lat="37.05542" lon="-3.36622167">
        <ele>3380.0</ele>
        <time>2022-11-20T12:04:20.000Z</time>
      </trkpt>
      <trkpt lat="37.055415" lon="-3.366225">
        <ele>3380.0</ele>
        <time>2022-11-20T12:04:21.000Z</time>
      </trkpt>
      <trkpt lat="37.05541333" lon="-3.36623">
        <ele>3380.0</ele>
        <time>2022-11-20T12:04:22.000Z</time>
      </trkpt>
      <trkpt lat="37.05541167" lon="-3.36623167">
        <ele>3380.0</ele>
        <time>2022-11-20T12:04:23.000Z</time>
      </trkpt>
      <trkpt lat="37.05541" lon="-3.36623333">
        <ele>3380.0</ele>
        <time>2022-11-20T12:04:24.000Z</time>
      </trkpt>
      <trkpt lat="37.05541" lon="-3.36623333">
        <ele>3380.0</ele>
        <time>2022-11-20T12:04:25.000Z</time>
      </trkpt>
      <trkpt lat="37.05541" lon="-3.366235">
        <ele>3380.0</ele>
        <time>2022-11-20T12:04:26.000Z</time>
      </trkpt>
      <trkpt lat="37.05541" lon="-3.366235">
        <ele>3380.0</ele>
        <time>2022-11-20T12:04:27.000Z</time>
      </trkpt>
      <trkpt lat="37.05541" lon="-3.366235">
        <ele>3380.0</ele>
        <time>2022-11-20T12:04:28.000Z</time>
      </trkpt>
      <trkpt lat="37.05541" lon="-3.366235">
        <ele>3380.0</ele>
        <time>2022-11-20T12:04:29.000Z</time>
      </trkpt>
      <trkpt lat="37.05541" lon="-3.366235">
        <ele>3380.0</ele>
        <time>2022-11-20T12:04:30.000Z</time>
      </trkpt>
      <trkpt lat="37.05541" lon="-3.366235">
        <ele>3380.0</ele>
        <time>2022-11-20T12:04:31.000Z</time>
      </trkpt>
      <trkpt lat="37.05541" lon="-3.366235">
        <ele>3380.0</ele>
        <time>2022-11-20T12:04:32.000Z</time>
      </trkpt>
      <trkpt lat="37.05541" lon="-3.366235">
        <ele>3380.0</ele>
        <time>2022-11-20T12:04:33.000Z</time>
      </trkpt>
      <trkpt lat="37.05541" lon="-3.366235">
        <ele>3380.0</ele>
        <time>2022-11-20T12:04:34.000Z</time>
      </trkpt>
      <trkpt lat="37.05541" lon="-3.366235">
        <ele>3380.0</ele>
        <time>2022-11-20T12:04:35.000Z</time>
      </trkpt>
      <trkpt lat="37.05541" lon="-3.366235">
        <ele>3380.0</ele>
        <time>2022-11-20T12:04:36.000Z</time>
      </trkpt>
      <trkpt lat="37.05541" lon="-3.36623667">
        <ele>3380.0</ele>
        <time>2022-11-20T12:04:37.000Z</time>
      </trkpt>
      <trkpt lat="37.05540833" lon="-3.36623667">
        <ele>3380.0</ele>
        <time>2022-11-20T12:04:38.000Z</time>
      </trkpt>
      <trkpt lat="37.05540333" lon="-3.36623667">
        <ele>3380.0</ele>
        <time>2022-11-20T12:04:39.000Z</time>
      </trkpt>
      <trkpt lat="37.0554" lon="-3.366235">
        <ele>3380.0</ele>
        <time>2022-11-20T12:04:40.000Z</time>
      </trkpt>
      <trkpt lat="37.05539667" lon="-3.36623">
        <ele>3380.0</ele>
        <time>2022-11-20T12:04:41.000Z</time>
      </trkpt>
      <trkpt lat="37.05539333" lon="-3.36622333">
        <ele>3380.0</ele>
        <time>2022-11-20T12:04:42.000Z</time>
      </trkpt>
      <trkpt lat="37.05539167" lon="-3.36621667">
        <ele>3380.0</ele>
        <time>2022-11-20T12:04:43.000Z</time>
      </trkpt>
      <trkpt lat="37.05538833" lon="-3.36621167">
        <ele>3380.0</ele>
        <time>2022-11-20T12:04:44.000Z</time>
      </trkpt>
      <trkpt lat="37.05538833" lon="-3.36620833">
        <ele>3380.0</ele>
        <time>2022-11-20T12:04:45.000Z</time>
      </trkpt>
      <trkpt lat="37.05538833" lon="-3.36620833">
        <ele>3380.0</ele>
        <time>2022-11-20T12:04:46.000Z</time>
      </trkpt>
      <trkpt lat="37.05538833" lon="-3.36621">
        <ele>3380.0</ele>
        <time>2022-11-20T12:04:47.000Z</time>
      </trkpt>
      <trkpt lat="37.05538833" lon="-3.36621">
        <ele>3380.0</ele>
        <time>2022-11-20T12:04:48.000Z</time>
      </trkpt>
      <trkpt lat="37.05538833" lon="-3.36621">
        <ele>3380.0</ele>
        <time>2022-11-20T12:04:49.000Z</time>
      </trkpt>
      <trkpt lat="37.05539167" lon="-3.366205">
        <ele>3380.0</ele>
        <time>2022-11-20T12:04:50.000Z</time>
      </trkpt>
      <trkpt lat="37.05539667" lon="-3.36620833">
        <ele>3380.0</ele>
        <time>2022-11-20T12:04:51.000Z</time>
      </trkpt>
      <trkpt lat="37.055405" lon="-3.36621">
        <ele>3379.0</ele>
        <time>2022-11-20T12:04:52.000Z</time>
      </trkpt>
      <trkpt lat="37.055415" lon="-3.36621333">
        <ele>3379.0</ele>
        <time>2022-11-20T12:04:53.000Z</time>
      </trkpt>
      <trkpt lat="37.055425" lon="-3.366215">
        <ele>3379.0</ele>
        <time>2022-11-20T12:04:54.000Z</time>
      </trkpt>
      <trkpt lat="37.05543667" lon="-3.36621333">
        <ele>3379.0</ele>
        <time>2022-11-20T12:04:55.000Z</time>
      </trkpt>
      <trkpt lat="37.05544833" lon="-3.36621333">
        <ele>3379.0</ele>
        <time>2022-11-20T12:04:56.000Z</time>
      </trkpt>
      <trkpt lat="37.05546" lon="-3.366215">
        <ele>3379.0</ele>
        <time>2022-11-20T12:04:57.000Z</time>
      </trkpt>
      <trkpt lat="37.05547" lon="-3.36621833">
        <ele>3379.0</ele>
        <time>2022-11-20T12:04:58.000Z</time>
      </trkpt>
      <trkpt lat="37.05548167" lon="-3.36622">
        <ele>3379.0</ele>
        <time>2022-11-20T12:04:59.000Z</time>
      </trkpt>
      <trkpt lat="37.05549167" lon="-3.36622167">
        <ele>3379.0</ele>
        <time>2022-11-20T12:05:00.000Z</time>
      </trkpt>
      <trkpt lat="37.05550167" lon="-3.36622167">
        <ele>3379.0</ele>
        <time>2022-11-20T12:05:01.000Z</time>
      </trkpt>
      <trkpt lat="37.05551167" lon="-3.36622167">
        <ele>3379.0</ele>
        <time>2022-11-20T12:05:02.000Z</time>
      </trkpt>
      <trkpt lat="37.05552333" lon="-3.36622333">
        <ele>3378.0</ele>
        <time>2022-11-20T12:05:03.000Z</time>
      </trkpt>
      <trkpt lat="37.05553333" lon="-3.36622">
        <ele>3378.0</ele>
        <time>2022-11-20T12:05:04.000Z</time>
      </trkpt>
      <trkpt lat="37.055545" lon="-3.36621667">
        <ele>3378.0</ele>
        <time>2022-11-20T12:05:05.000Z</time>
      </trkpt>
      <trkpt lat="37.05555667" lon="-3.36621667">
        <ele>3378.0</ele>
        <time>2022-11-20T12:05:06.000Z</time>
      </trkpt>
      <trkpt lat="37.05556833" lon="-3.366215">
        <ele>3378.0</ele>
        <time>2022-11-20T12:05:07.000Z</time>
      </trkpt>
      <trkpt lat="37.05558167" lon="-3.366215">
        <ele>3378.0</ele>
        <time>2022-11-20T12:05:08.000Z</time>
      </trkpt>
      <trkpt lat="37.05559333" lon="-3.366215">
        <ele>3378.0</ele>
        <time>2022-11-20T12:05:09.000Z</time>
      </trkpt>
      <trkpt lat="37.05560667" lon="-3.36621667">
        <ele>3378.0</ele>
        <time>2022-11-20T12:05:10.000Z</time>
      </trkpt>
      <trkpt lat="37.05562" lon="-3.36621833">
        <ele>3378.0</ele>
        <time>2022-11-20T12:05:11.000Z</time>
      </trkpt>
      <trkpt lat="37.05563333" lon="-3.36622">
        <ele>3378.0</ele>
        <time>2022-11-20T12:05:12.000Z</time>
      </trkpt>
      <trkpt lat="37.055645" lon="-3.36622167">
        <ele>3378.0</ele>
        <time>2022-11-20T12:05:13.000Z</time>
      </trkpt>
      <trkpt lat="37.05565833" lon="-3.366225">
        <ele>3378.0</ele>
        <time>2022-11-20T12:05:14.000Z</time>
      </trkpt>
      <trkpt lat="37.05567" lon="-3.36622833">
        <ele>3378.0</ele>
        <time>2022-11-20T12:05:15.000Z</time>
      </trkpt>
      <trkpt lat="37.05568167" lon="-3.366235">
        <ele>3378.0</ele>
        <time>2022-11-20T12:05:16.000Z</time>
      </trkpt>
      <trkpt lat="37.05569333" lon="-3.36624">
        <ele>3378.0</ele>
        <time>2022-11-20T12:05:17.000Z</time>
      </trkpt>
      <trkpt lat="37.055705" lon="-3.36624667">
        <ele>3378.0</ele>
        <time>2022-11-20T12:05:18.000Z</time>
      </trkpt>
      <trkpt lat="37.055715" lon="-3.36625167">
        <ele>3378.0</ele>
        <time>2022-11-20T12:05:19.000Z</time>
      </trkpt>
      <trkpt lat="37.055725" lon="-3.36625833">
        <ele>3378.0</ele>
        <time>2022-11-20T12:05:20.000Z</time>
      </trkpt>
      <trkpt lat="37.05573667" lon="-3.366265">
        <ele>3377.0</ele>
        <time>2022-11-20T12:05:21.000Z</time>
      </trkpt>
      <trkpt lat="37.05575" lon="-3.36627">
        <ele>3377.0</ele>
        <time>2022-11-20T12:05:22.000Z</time>
      </trkpt>
      <trkpt lat="37.05576333" lon="-3.366275">
        <ele>3377.0</ele>
        <time>2022-11-20T12:05:23.000Z</time>
      </trkpt>
      <trkpt lat="37.055775" lon="-3.36628">
        <ele>3377.0</ele>
        <time>2022-11-20T12:05:24.000Z</time>
      </trkpt>
      <trkpt lat="37.05578667" lon="-3.36628667">
        <ele>3377.0</ele>
        <time>2022-11-20T12:05:25.000Z</time>
      </trkpt>
      <trkpt lat="37.05579833" lon="-3.36629333">
        <ele>3377.0</ele>
        <time>2022-11-20T12:05:26.000Z</time>
      </trkpt>
      <trkpt lat="37.05581" lon="-3.3663">
        <ele>3377.0</ele>
        <time>2022-11-20T12:05:27.000Z</time>
      </trkpt>
      <trkpt lat="37.05582167" lon="-3.36630667">
        <ele>3377.0</ele>
        <time>2022-11-20T12:05:28.000Z</time>
      </trkpt>
      <trkpt lat="37.055835" lon="-3.36631167">
        <ele>3376.0</ele>
        <time>2022-11-20T12:05:29.000Z</time>
      </trkpt>
      <trkpt lat="37.05584333" lon="-3.36631833">
        <ele>3376.0</ele>
        <time>2022-11-20T12:05:30.000Z</time>
      </trkpt>
      <trkpt lat="37.05585333" lon="-3.366325">
        <ele>3376.0</ele>
        <time>2022-11-20T12:05:31.000Z</time>
      </trkpt>
      <trkpt lat="37.05586333" lon="-3.36633">
        <ele>3376.0</ele>
        <time>2022-11-20T12:05:32.000Z</time>
      </trkpt>
      <trkpt lat="37.05587667" lon="-3.366335">
        <ele>3376.0</ele>
        <time>2022-11-20T12:05:33.000Z</time>
      </trkpt>
      <trkpt lat="37.05589" lon="-3.36634">
        <ele>3376.0</ele>
        <time>2022-11-20T12:05:34.000Z</time>
      </trkpt>
      <trkpt lat="37.05590333" lon="-3.366345">
        <ele>3375.0</ele>
        <time>2022-11-20T12:05:35.000Z</time>
      </trkpt>
      <trkpt lat="37.05591667" lon="-3.36635167">
        <ele>3375.0</ele>
        <time>2022-11-20T12:05:36.000Z</time>
      </trkpt>
      <trkpt lat="37.05592667" lon="-3.36635833">
        <ele>3375.0</ele>
        <time>2022-11-20T12:05:37.000Z</time>
      </trkpt>
      <trkpt lat="37.05593667" lon="-3.36636667">
        <ele>3375.0</ele>
        <time>2022-11-20T12:05:38.000Z</time>
      </trkpt>
      <trkpt lat="37.05594833" lon="-3.36637667">
        <ele>3375.0</ele>
        <time>2022-11-20T12:05:39.000Z</time>
      </trkpt>
      <trkpt lat="37.05595833" lon="-3.36638833">
        <ele>3375.0</ele>
        <time>2022-11-20T12:05:40.000Z</time>
      </trkpt>
      <trkpt lat="37.05596833" lon="-3.36639833">
        <ele>3375.0</ele>
        <time>2022-11-20T12:05:41.000Z</time>
      </trkpt>
      <trkpt lat="37.05597833" lon="-3.36640833">
        <ele>3374.0</ele>
        <time>2022-11-20T12:05:42.000Z</time>
      </trkpt>
      <trkpt lat="37.05599167" lon="-3.36641667">
        <ele>3374.0</ele>
        <time>2022-11-20T12:05:43.000Z</time>
      </trkpt>
      <trkpt lat="37.056005" lon="-3.36642667">
        <ele>3374.0</ele>
        <time>2022-11-20T12:05:44.000Z</time>
      </trkpt>
      <trkpt lat="37.05601667" lon="-3.36643667">
        <ele>3374.0</ele>
        <time>2022-11-20T12:05:45.000Z</time>
      </trkpt>
      <trkpt lat="37.05602667" lon="-3.366445">
        <ele>3373.0</ele>
        <time>2022-11-20T12:05:46.000Z</time>
      </trkpt>
      <trkpt lat="37.05603833" lon="-3.366455">
        <ele>3373.0</ele>
        <time>2022-11-20T12:05:47.000Z</time>
      </trkpt>
      <trkpt lat="37.05604833" lon="-3.366465">
        <ele>3373.0</ele>
        <time>2022-11-20T12:05:48.000Z</time>
      </trkpt>
      <trkpt lat="37.05606" lon="-3.366475">
        <ele>3373.0</ele>
        <time>2022-11-20T12:05:49.000Z</time>
      </trkpt>
      <trkpt lat="37.05607167" lon="-3.366485">
        <ele>3372.0</ele>
        <time>2022-11-20T12:05:50.000Z</time>
      </trkpt>
      <trkpt lat="37.05608667" lon="-3.36649333">
        <ele>3372.0</ele>
        <time>2022-11-20T12:05:51.000Z</time>
      </trkpt>
      <trkpt lat="37.0561" lon="-3.36650333">
        <ele>3372.0</ele>
        <time>2022-11-20T12:05:52.000Z</time>
      </trkpt>
      <trkpt lat="37.05611167" lon="-3.366515">
        <ele>3372.0</ele>
        <time>2022-11-20T12:05:53.000Z</time>
      </trkpt>
      <trkpt lat="37.05612333" lon="-3.366525">
        <ele>3372.0</ele>
        <time>2022-11-20T12:05:54.000Z</time>
      </trkpt>
      <trkpt lat="37.056135" lon="-3.36653667">
        <ele>3371.0</ele>
        <time>2022-11-20T12:05:55.000Z</time>
      </trkpt>
      <trkpt lat="37.056145" lon="-3.36654667">
        <ele>3371.0</ele>
        <time>2022-11-20T12:05:56.000Z</time>
      </trkpt>
      <trkpt lat="37.05615333" lon="-3.366555">
        <ele>3371.0</ele>
        <time>2022-11-20T12:05:57.000Z</time>
      </trkpt>
      <trkpt lat="37.05616333" lon="-3.366565">
        <ele>3371.0</ele>
        <time>2022-11-20T12:05:58.000Z</time>
      </trkpt>
      <trkpt lat="37.056175" lon="-3.366575">
        <ele>3371.0</ele>
        <time>2022-11-20T12:05:59.000Z</time>
      </trkpt>
      <trkpt lat="37.056185" lon="-3.36658667">
        <ele>3370.0</ele>
        <time>2022-11-20T12:06:00.000Z</time>
      </trkpt>
      <trkpt lat="37.05619667" lon="-3.36659833">
        <ele>3370.0</ele>
        <time>2022-11-20T12:06:01.000Z</time>
      </trkpt>
      <trkpt lat="37.05620667" lon="-3.36660833">
        <ele>3370.0</ele>
        <time>2022-11-20T12:06:02.000Z</time>
      </trkpt>
      <trkpt lat="37.05621667" lon="-3.36661833">
        <ele>3370.0</ele>
        <time>2022-11-20T12:06:03.000Z</time>
      </trkpt>
      <trkpt lat="37.05622667" lon="-3.36663">
        <ele>3369.0</ele>
        <time>2022-11-20T12:06:04.000Z</time>
      </trkpt>
      <trkpt lat="37.056235" lon="-3.36664">
        <ele>3369.0</ele>
        <time>2022-11-20T12:06:05.000Z</time>
      </trkpt>
      <trkpt lat="37.05624667" lon="-3.36665167">
        <ele>3369.0</ele>
        <time>2022-11-20T12:06:06.000Z</time>
      </trkpt>
      <trkpt lat="37.056255" lon="-3.36666333">
        <ele>3369.0</ele>
        <time>2022-11-20T12:06:07.000Z</time>
      </trkpt>
      <trkpt lat="37.056265" lon="-3.366675">
        <ele>3369.0</ele>
        <time>2022-11-20T12:06:08.000Z</time>
      </trkpt>
      <trkpt lat="37.05627667" lon="-3.366685">
        <ele>3369.0</ele>
        <time>2022-11-20T12:06:09.000Z</time>
      </trkpt>
      <trkpt lat="37.05628667" lon="-3.36669667">
        <ele>3368.0</ele>
        <time>2022-11-20T12:06:10.000Z</time>
      </trkpt>
      <trkpt lat="37.05629833" lon="-3.36670667">
        <ele>3368.0</ele>
        <time>2022-11-20T12:06:11.000Z</time>
      </trkpt>
      <trkpt lat="37.05630833" lon="-3.36671667">
        <ele>3368.0</ele>
        <time>2022-11-20T12:06:12.000Z</time>
      </trkpt>
      <trkpt lat="37.05632167" lon="-3.366725">
        <ele>3368.0</ele>
        <time>2022-11-20T12:06:13.000Z</time>
      </trkpt>
      <trkpt lat="37.05633333" lon="-3.366735">
        <ele>3368.0</ele>
        <time>2022-11-20T12:06:14.000Z</time>
      </trkpt>
      <trkpt lat="37.056345" lon="-3.36674667">
        <ele>3368.0</ele>
        <time>2022-11-20T12:06:15.000Z</time>
      </trkpt>
      <trkpt lat="37.05635667" lon="-3.36675667">
        <ele>3368.0</ele>
        <time>2022-11-20T12:06:16.000Z</time>
      </trkpt>
      <trkpt lat="37.05636667" lon="-3.366765">
        <ele>3367.0</ele>
        <time>2022-11-20T12:06:17.000Z</time>
      </trkpt>
      <trkpt lat="37.056375" lon="-3.36677">
        <ele>3367.0</ele>
        <time>2022-11-20T12:06:18.000Z</time>
      </trkpt>
      <trkpt lat="37.056385" lon="-3.36677667">
        <ele>3367.0</ele>
        <time>2022-11-20T12:06:19.000Z</time>
      </trkpt>
      <trkpt lat="37.056395" lon="-3.36678333">
        <ele>3367.0</ele>
        <time>2022-11-20T12:06:20.000Z</time>
      </trkpt>
      <trkpt lat="37.05640667" lon="-3.36679167">
        <ele>3367.0</ele>
        <time>2022-11-20T12:06:21.000Z</time>
      </trkpt>
      <trkpt lat="37.05641833" lon="-3.3668">
        <ele>3367.0</ele>
        <time>2022-11-20T12:06:22.000Z</time>
      </trkpt>
      <trkpt lat="37.05642833" lon="-3.36680833">
        <ele>3367.0</ele>
        <time>2022-11-20T12:06:23.000Z</time>
      </trkpt>
      <trkpt lat="37.05644" lon="-3.36681667">
        <ele>3366.0</ele>
        <time>2022-11-20T12:06:24.000Z</time>
      </trkpt>
      <trkpt lat="37.05645333" lon="-3.36683">
        <ele>3366.0</ele>
        <time>2022-11-20T12:06:25.000Z</time>
      </trkpt>
      <trkpt lat="37.05646333" lon="-3.36684167">
        <ele>3366.0</ele>
        <time>2022-11-20T12:06:26.000Z</time>
      </trkpt>
      <trkpt lat="37.05647333" lon="-3.36685333">
        <ele>3366.0</ele>
        <time>2022-11-20T12:06:27.000Z</time>
      </trkpt>
      <trkpt lat="37.05648333" lon="-3.36686333">
        <ele>3366.0</ele>
        <time>2022-11-20T12:06:28.000Z</time>
      </trkpt>
      <trkpt lat="37.05649167" lon="-3.36687333">
        <ele>3366.0</ele>
        <time>2022-11-20T12:06:29.000Z</time>
      </trkpt>
      <trkpt lat="37.05650333" lon="-3.36688167">
        <ele>3365.0</ele>
        <time>2022-11-20T12:06:30.000Z</time>
      </trkpt>
      <trkpt lat="37.05651333" lon="-3.36689333">
        <ele>3365.0</ele>
        <time>2022-11-20T12:06:31.000Z</time>
      </trkpt>
      <trkpt lat="37.056525" lon="-3.36689833">
        <ele>3365.0</ele>
        <time>2022-11-20T12:06:32.000Z</time>
      </trkpt>
      <trkpt lat="37.05653667" lon="-3.36690333">
        <ele>3365.0</ele>
        <time>2022-11-20T12:06:33.000Z</time>
      </trkpt>
      <trkpt lat="37.05654667" lon="-3.36690833">
        <ele>3365.0</ele>
        <time>2022-11-20T12:06:34.000Z</time>
      </trkpt>
      <trkpt lat="37.05655833" lon="-3.366915">
        <ele>3364.0</ele>
        <time>2022-11-20T12:06:35.000Z</time>
      </trkpt>
      <trkpt lat="37.05657" lon="-3.36692333">
        <ele>3364.0</ele>
        <time>2022-11-20T12:06:36.000Z</time>
      </trkpt>
      <trkpt lat="37.05658167" lon="-3.366935">
        <ele>3364.0</ele>
        <time>2022-11-20T12:06:37.000Z</time>
      </trkpt>
      <trkpt lat="37.05659167" lon="-3.366945">
        <ele>3364.0</ele>
        <time>2022-11-20T12:06:38.000Z</time>
      </trkpt>
      <trkpt lat="37.05660333" lon="-3.36695333">
        <ele>3364.0</ele>
        <time>2022-11-20T12:06:39.000Z</time>
      </trkpt>
      <trkpt lat="37.056615" lon="-3.36696">
        <ele>3364.0</ele>
        <time>2022-11-20T12:06:40.000Z</time>
      </trkpt>
      <trkpt lat="37.05662667" lon="-3.36696667">
        <ele>3363.0</ele>
        <time>2022-11-20T12:06:41.000Z</time>
      </trkpt>
      <trkpt lat="37.05663833" lon="-3.36697167">
        <ele>3363.0</ele>
        <time>2022-11-20T12:06:42.000Z</time>
      </trkpt>
      <trkpt lat="37.05665" lon="-3.36697667">
        <ele>3363.0</ele>
        <time>2022-11-20T12:06:43.000Z</time>
      </trkpt>
      <trkpt lat="37.05666167" lon="-3.36698167">
        <ele>3363.0</ele>
        <time>2022-11-20T12:06:44.000Z</time>
      </trkpt>
      <trkpt lat="37.056675" lon="-3.36698833">
        <ele>3362.0</ele>
        <time>2022-11-20T12:06:45.000Z</time>
      </trkpt>
      <trkpt lat="37.05669" lon="-3.36699333">
        <ele>3362.0</ele>
        <time>2022-11-20T12:06:46.000Z</time>
      </trkpt>
      <trkpt lat="37.05670333" lon="-3.367">
        <ele>3362.0</ele>
        <time>2022-11-20T12:06:47.000Z</time>
      </trkpt>
      <trkpt lat="37.056715" lon="-3.367005">
        <ele>3362.0</ele>
        <time>2022-11-20T12:06:48.000Z</time>
      </trkpt>
      <trkpt lat="37.05673" lon="-3.36700833">
        <ele>3361.0</ele>
        <time>2022-11-20T12:06:49.000Z</time>
      </trkpt>
      <trkpt lat="37.056745" lon="-3.36701167">
        <ele>3361.0</ele>
        <time>2022-11-20T12:06:50.000Z</time>
      </trkpt>
      <trkpt lat="37.05675833" lon="-3.367015">
        <ele>3361.0</ele>
        <time>2022-11-20T12:06:51.000Z</time>
      </trkpt>
      <trkpt lat="37.05677167" lon="-3.36702">
        <ele>3361.0</ele>
        <time>2022-11-20T12:06:52.000Z</time>
      </trkpt>
      <trkpt lat="37.05678667" lon="-3.36702333">
        <ele>3361.0</ele>
        <time>2022-11-20T12:06:53.000Z</time>
      </trkpt>
      <trkpt lat="37.05679833" lon="-3.36702667">
        <ele>3360.0</ele>
        <time>2022-11-20T12:06:54.000Z</time>
      </trkpt>
      <trkpt lat="37.05681167" lon="-3.36703167">
        <ele>3360.0</ele>
        <time>2022-11-20T12:06:55.000Z</time>
      </trkpt>
      <trkpt lat="37.056825" lon="-3.367035">
        <ele>3360.0</ele>
        <time>2022-11-20T12:06:56.000Z</time>
      </trkpt>
      <trkpt lat="37.05683833" lon="-3.36704">
        <ele>3360.0</ele>
        <time>2022-11-20T12:06:57.000Z</time>
      </trkpt>
      <trkpt lat="37.05685" lon="-3.36704667">
        <ele>3359.0</ele>
        <time>2022-11-20T12:06:58.000Z</time>
      </trkpt>
      <trkpt lat="37.05686" lon="-3.36705667">
        <ele>3359.0</ele>
        <time>2022-11-20T12:06:59.000Z</time>
      </trkpt>
      <trkpt lat="37.05687167" lon="-3.36706833">
        <ele>3359.0</ele>
        <time>2022-11-20T12:07:00.000Z</time>
      </trkpt>
      <trkpt lat="37.05688667" lon="-3.36708">
        <ele>3359.0</ele>
        <time>2022-11-20T12:07:01.000Z</time>
      </trkpt>
      <trkpt lat="37.05689833" lon="-3.36709">
        <ele>3358.0</ele>
        <time>2022-11-20T12:07:02.000Z</time>
      </trkpt>
      <trkpt lat="37.05691" lon="-3.36710333">
        <ele>3358.0</ele>
        <time>2022-11-20T12:07:03.000Z</time>
      </trkpt>
      <trkpt lat="37.05692167" lon="-3.36711667">
        <ele>3358.0</ele>
        <time>2022-11-20T12:07:04.000Z</time>
      </trkpt>
      <trkpt lat="37.05693167" lon="-3.36713167">
        <ele>3358.0</ele>
        <time>2022-11-20T12:07:05.000Z</time>
      </trkpt>
      <trkpt lat="37.05694167" lon="-3.36714667">
        <ele>3357.0</ele>
        <time>2022-11-20T12:07:06.000Z</time>
      </trkpt>
      <trkpt lat="37.05695" lon="-3.367165">
        <ele>3357.0</ele>
        <time>2022-11-20T12:07:07.000Z</time>
      </trkpt>
      <trkpt lat="37.05695833" lon="-3.36718333">
        <ele>3357.0</ele>
        <time>2022-11-20T12:07:08.000Z</time>
      </trkpt>
      <trkpt lat="37.05696667" lon="-3.3672">
        <ele>3356.0</ele>
        <time>2022-11-20T12:07:09.000Z</time>
      </trkpt>
      <trkpt lat="37.056975" lon="-3.36722">
        <ele>3356.0</ele>
        <time>2022-11-20T12:07:10.000Z</time>
      </trkpt>
      <trkpt lat="37.05698333" lon="-3.36724">
        <ele>3356.0</ele>
        <time>2022-11-20T12:07:11.000Z</time>
      </trkpt>
      <trkpt lat="37.05698833" lon="-3.36726167">
        <ele>3356.0</ele>
        <time>2022-11-20T12:07:12.000Z</time>
      </trkpt>
      <trkpt lat="37.05699167" lon="-3.36728333">
        <ele>3355.0</ele>
        <time>2022-11-20T12:07:13.000Z</time>
      </trkpt>
      <trkpt lat="37.05699667" lon="-3.36730333">
        <ele>3355.0</ele>
        <time>2022-11-20T12:07:14.000Z</time>
      </trkpt>
      <trkpt lat="37.05700333" lon="-3.36732667">
        <ele>3355.0</ele>
        <time>2022-11-20T12:07:15.000Z</time>
      </trkpt>
      <trkpt lat="37.05700833" lon="-3.36735">
        <ele>3355.0</ele>
        <time>2022-11-20T12:07:16.000Z</time>
      </trkpt>
      <trkpt lat="37.05701333" lon="-3.36737333">
        <ele>3354.0</ele>
        <time>2022-11-20T12:07:17.000Z</time>
      </trkpt>
      <trkpt lat="37.05701833" lon="-3.36739667">
        <ele>3354.0</ele>
        <time>2022-11-20T12:07:18.000Z</time>
      </trkpt>
      <trkpt lat="37.05702167" lon="-3.36741833">
        <ele>3354.0</ele>
        <time>2022-11-20T12:07:19.000Z</time>
      </trkpt>
      <trkpt lat="37.05702667" lon="-3.36744167">
        <ele>3354.0</ele>
        <time>2022-11-20T12:07:20.000Z</time>
      </trkpt>
      <trkpt lat="37.05703" lon="-3.367465">
        <ele>3353.0</ele>
        <time>2022-11-20T12:07:21.000Z</time>
      </trkpt>
      <trkpt lat="37.057035" lon="-3.36748833">
        <ele>3353.0</ele>
        <time>2022-11-20T12:07:22.000Z</time>
      </trkpt>
      <trkpt lat="37.05704167" lon="-3.36751167">
        <ele>3353.0</ele>
        <time>2022-11-20T12:07:23.000Z</time>
      </trkpt>
      <trkpt lat="37.05704667" lon="-3.367535">
        <ele>3352.0</ele>
        <time>2022-11-20T12:07:24.000Z</time>
      </trkpt>
      <trkpt lat="37.05705167" lon="-3.36755833">
        <ele>3352.0</ele>
        <time>2022-11-20T12:07:25.000Z</time>
      </trkpt>
      <trkpt lat="37.05705667" lon="-3.36758333">
        <ele>3352.0</ele>
        <time>2022-11-20T12:07:26.000Z</time>
      </trkpt>
      <trkpt lat="37.05705833" lon="-3.367605">
        <ele>3352.0</ele>
        <time>2022-11-20T12:07:27.000Z</time>
      </trkpt>
      <trkpt lat="37.05705667" lon="-3.367625">
        <ele>3352.0</ele>
        <time>2022-11-20T12:07:28.000Z</time>
      </trkpt>
      <trkpt lat="37.05704833" lon="-3.36764167">
        <ele>3351.0</ele>
        <time>2022-11-20T12:07:29.000Z</time>
      </trkpt>
      <trkpt lat="37.05703667" lon="-3.36765167">
        <ele>3351.0</ele>
        <time>2022-11-20T12:07:30.000Z</time>
      </trkpt>
      <trkpt lat="37.057025" lon="-3.36766">
        <ele>3351.0</ele>
        <time>2022-11-20T12:07:31.000Z</time>
      </trkpt>
      <trkpt lat="37.05700833" lon="-3.36766833">
        <ele>3351.0</ele>
        <time>2022-11-20T12:07:32.000Z</time>
      </trkpt>
      <trkpt lat="37.05699333" lon="-3.367675">
        <ele>3351.0</ele>
        <time>2022-11-20T12:07:33.000Z</time>
      </trkpt>
      <trkpt lat="37.05697833" lon="-3.36768333">
        <ele>3350.0</ele>
        <time>2022-11-20T12:07:34.000Z</time>
      </trkpt>
      <trkpt lat="37.05696333" lon="-3.36769">
        <ele>3350.0</ele>
        <time>2022-11-20T12:07:35.000Z</time>
      </trkpt>
      <trkpt lat="37.05694833" lon="-3.367695">
        <ele>3350.0</ele>
        <time>2022-11-20T12:07:36.000Z</time>
      </trkpt>
      <trkpt lat="37.05693333" lon="-3.36769667">
        <ele>3350.0</ele>
        <time>2022-11-20T12:07:37.000Z</time>
      </trkpt>
      <trkpt lat="37.05691833" lon="-3.36769667">
        <ele>3350.0</ele>
        <time>2022-11-20T12:07:38.000Z</time>
      </trkpt>
      <trkpt lat="37.05690167" lon="-3.36769333">
        <ele>3350.0</ele>
        <time>2022-11-20T12:07:39.000Z</time>
      </trkpt>
      <trkpt lat="37.05688667" lon="-3.36769">
        <ele>3349.0</ele>
        <time>2022-11-20T12:07:40.000Z</time>
      </trkpt>
      <trkpt lat="37.05687" lon="-3.36768667">
        <ele>3349.0</ele>
        <time>2022-11-20T12:07:41.000Z</time>
      </trkpt>
      <trkpt lat="37.056855" lon="-3.36768333">
        <ele>3349.0</ele>
        <time>2022-11-20T12:07:42.000Z</time>
      </trkpt>
      <trkpt lat="37.05684333" lon="-3.36767833">
        <ele>3349.0</ele>
        <time>2022-11-20T12:07:43.000Z</time>
      </trkpt>
      <trkpt lat="37.05683167" lon="-3.36767833">
        <ele>3349.0</ele>
        <time>2022-11-20T12:07:44.000Z</time>
      </trkpt>
      <trkpt lat="37.05681833" lon="-3.36767833">
        <ele>3349.0</ele>
        <time>2022-11-20T12:07:45.000Z</time>
      </trkpt>
      <trkpt lat="37.05680667" lon="-3.36767833">
        <ele>3349.0</ele>
        <time>2022-11-20T12:07:46.000Z</time>
      </trkpt>
      <trkpt lat="37.05679333" lon="-3.36767667">
        <ele>3349.0</ele>
        <time>2022-11-20T12:07:47.000Z</time>
      </trkpt>
      <trkpt lat="37.05678833" lon="-3.36767333">
        <ele>3349.0</ele>
        <time>2022-11-20T12:07:48.000Z</time>
      </trkpt>
      <trkpt lat="37.05678667" lon="-3.36767">
        <ele>3348.0</ele>
        <time>2022-11-20T12:07:49.000Z</time>
      </trkpt>
      <trkpt lat="37.05678667" lon="-3.36767">
        <ele>3348.0</ele>
        <time>2022-11-20T12:07:50.000Z</time>
      </trkpt>
      <trkpt lat="37.056785" lon="-3.36767">
        <ele>3348.0</ele>
        <time>2022-11-20T12:07:51.000Z</time>
      </trkpt>
      <trkpt lat="37.05678333" lon="-3.36767">
        <ele>3348.0</ele>
        <time>2022-11-20T12:07:52.000Z</time>
      </trkpt>
      <trkpt lat="37.05678" lon="-3.36767167">
        <ele>3348.0</ele>
        <time>2022-11-20T12:07:53.000Z</time>
      </trkpt>
      <trkpt lat="37.056775" lon="-3.36766833">
        <ele>3348.0</ele>
        <time>2022-11-20T12:07:54.000Z</time>
      </trkpt>
      <trkpt lat="37.05676667" lon="-3.36766333">
        <ele>3348.0</ele>
        <time>2022-11-20T12:07:55.000Z</time>
      </trkpt>
      <trkpt lat="37.05675667" lon="-3.36766167">
        <ele>3348.0</ele>
        <time>2022-11-20T12:07:56.000Z</time>
      </trkpt>
      <trkpt lat="37.05674667" lon="-3.36766">
        <ele>3348.0</ele>
        <time>2022-11-20T12:07:57.000Z</time>
      </trkpt>
      <trkpt lat="37.05673833" lon="-3.36765667">
        <ele>3348.0</ele>
        <time>2022-11-20T12:07:58.000Z</time>
      </trkpt>
      <trkpt lat="37.05673" lon="-3.36765333">
        <ele>3347.0</ele>
        <time>2022-11-20T12:07:59.000Z</time>
      </trkpt>
      <trkpt lat="37.05672667" lon="-3.36765167">
        <ele>3347.0</ele>
        <time>2022-11-20T12:08:00.000Z</time>
      </trkpt>
      <trkpt lat="37.05672667" lon="-3.36765">
        <ele>3347.0</ele>
        <time>2022-11-20T12:08:01.000Z</time>
      </trkpt>
      <trkpt lat="37.056725" lon="-3.36765">
        <ele>3347.0</ele>
        <time>2022-11-20T12:08:02.000Z</time>
      </trkpt>
      <trkpt lat="37.05672" lon="-3.36765167">
        <ele>3347.0</ele>
        <time>2022-11-20T12:08:03.000Z</time>
      </trkpt>
      <trkpt lat="37.05671333" lon="-3.36765">
        <ele>3347.0</ele>
        <time>2022-11-20T12:08:04.000Z</time>
      </trkpt>
      <trkpt lat="37.05670333" lon="-3.36764667">
        <ele>3347.0</ele>
        <time>2022-11-20T12:08:05.000Z</time>
      </trkpt>
      <trkpt lat="37.056695" lon="-3.36764333">
        <ele>3347.0</ele>
        <time>2022-11-20T12:08:06.000Z</time>
      </trkpt>
      <trkpt lat="37.05668667" lon="-3.36764">
        <ele>3347.0</ele>
        <time>2022-11-20T12:08:07.000Z</time>
      </trkpt>
      <trkpt lat="37.05668" lon="-3.367635">
        <ele>3347.0</ele>
        <time>2022-11-20T12:08:08.000Z</time>
      </trkpt>
      <trkpt lat="37.05667333" lon="-3.367625">
        <ele>3347.0</ele>
        <time>2022-11-20T12:08:09.000Z</time>
      </trkpt>
      <trkpt lat="37.05666833" lon="-3.36762">
        <ele>3347.0</ele>
        <time>2022-11-20T12:08:10.000Z</time>
      </trkpt>
      <trkpt lat="37.05666667" lon="-3.36762">
        <ele>3347.0</ele>
        <time>2022-11-20T12:08:11.000Z</time>
      </trkpt>
      <trkpt lat="37.05666667" lon="-3.36761667">
        <ele>3347.0</ele>
        <time>2022-11-20T12:08:12.000Z</time>
      </trkpt>
      <trkpt lat="37.056665" lon="-3.36761333">
        <ele>3346.0</ele>
        <time>2022-11-20T12:08:13.000Z</time>
      </trkpt>
      <trkpt lat="37.05666333" lon="-3.36761333">
        <ele>3346.0</ele>
        <time>2022-11-20T12:08:14.000Z</time>
      </trkpt>
      <trkpt lat="37.05665667" lon="-3.367615">
        <ele>3346.0</ele>
        <time>2022-11-20T12:08:15.000Z</time>
      </trkpt>
      <trkpt lat="37.05664667" lon="-3.367615">
        <ele>3346.0</ele>
        <time>2022-11-20T12:08:16.000Z</time>
      </trkpt>
      <trkpt lat="37.056635" lon="-3.36761667">
        <ele>3346.0</ele>
        <time>2022-11-20T12:08:17.000Z</time>
      </trkpt>
      <trkpt lat="37.05662167" lon="-3.367615">
        <ele>3346.0</ele>
        <time>2022-11-20T12:08:18.000Z</time>
      </trkpt>
      <trkpt lat="37.05661" lon="-3.36761333">
        <ele>3346.0</ele>
        <time>2022-11-20T12:08:19.000Z</time>
      </trkpt>
      <trkpt lat="37.056595" lon="-3.36761333">
        <ele>3346.0</ele>
        <time>2022-11-20T12:08:20.000Z</time>
      </trkpt>
      <trkpt lat="37.05658333" lon="-3.36761333">
        <ele>3346.0</ele>
        <time>2022-11-20T12:08:21.000Z</time>
      </trkpt>
      <trkpt lat="37.05656833" lon="-3.36761333">
        <ele>3346.0</ele>
        <time>2022-11-20T12:08:22.000Z</time>
      </trkpt>
      <trkpt lat="37.056555" lon="-3.36761333">
        <ele>3345.0</ele>
        <time>2022-11-20T12:08:23.000Z</time>
      </trkpt>
      <trkpt lat="37.05654333" lon="-3.36761167">
        <ele>3345.0</ele>
        <time>2022-11-20T12:08:24.000Z</time>
      </trkpt>
      <trkpt lat="37.05653" lon="-3.36761">
        <ele>3345.0</ele>
        <time>2022-11-20T12:08:25.000Z</time>
      </trkpt>
      <trkpt lat="37.05651667" lon="-3.36761">
        <ele>3345.0</ele>
        <time>2022-11-20T12:08:26.000Z</time>
      </trkpt>
      <trkpt lat="37.05650333" lon="-3.36761">
        <ele>3345.0</ele>
        <time>2022-11-20T12:08:27.000Z</time>
      </trkpt>
      <trkpt lat="37.05648833" lon="-3.36760833">
        <ele>3345.0</ele>
        <time>2022-11-20T12:08:28.000Z</time>
      </trkpt>
      <trkpt lat="37.056475" lon="-3.36760667">
        <ele>3345.0</ele>
        <time>2022-11-20T12:08:29.000Z</time>
      </trkpt>
      <trkpt lat="37.05646167" lon="-3.367605">
        <ele>3345.0</ele>
        <time>2022-11-20T12:08:30.000Z</time>
      </trkpt>
      <trkpt lat="37.05644833" lon="-3.36760333">
        <ele>3344.0</ele>
        <time>2022-11-20T12:08:31.000Z</time>
      </trkpt>
      <trkpt lat="37.056435" lon="-3.3676">
        <ele>3344.0</ele>
        <time>2022-11-20T12:08:32.000Z</time>
      </trkpt>
      <trkpt lat="37.05642167" lon="-3.36759667">
        <ele>3344.0</ele>
        <time>2022-11-20T12:08:33.000Z</time>
      </trkpt>
      <trkpt lat="37.05640833" lon="-3.36759333">
        <ele>3344.0</ele>
        <time>2022-11-20T12:08:34.000Z</time>
      </trkpt>
      <trkpt lat="37.05639333" lon="-3.36758833">
        <ele>3344.0</ele>
        <time>2022-11-20T12:08:35.000Z</time>
      </trkpt>
      <trkpt lat="37.05638" lon="-3.36758833">
        <ele>3344.0</ele>
        <time>2022-11-20T12:08:36.000Z</time>
      </trkpt>
      <trkpt lat="37.056365" lon="-3.36759167">
        <ele>3344.0</ele>
        <time>2022-11-20T12:08:37.000Z</time>
      </trkpt>
      <trkpt lat="37.05635" lon="-3.36759333">
        <ele>3344.0</ele>
        <time>2022-11-20T12:08:38.000Z</time>
      </trkpt>
      <trkpt lat="37.056335" lon="-3.36759167">
        <ele>3344.0</ele>
        <time>2022-11-20T12:08:39.000Z</time>
      </trkpt>
      <trkpt lat="37.05632167" lon="-3.36758833">
        <ele>3344.0</ele>
        <time>2022-11-20T12:08:40.000Z</time>
      </trkpt>
      <trkpt lat="37.05630667" lon="-3.36758833">
        <ele>3344.0</ele>
        <time>2022-11-20T12:08:41.000Z</time>
      </trkpt>
      <trkpt lat="37.05629167" lon="-3.36759">
        <ele>3344.0</ele>
        <time>2022-11-20T12:08:42.000Z</time>
      </trkpt>
      <trkpt lat="37.05627833" lon="-3.36759333">
        <ele>3343.0</ele>
        <time>2022-11-20T12:08:43.000Z</time>
      </trkpt>
      <trkpt lat="37.056265" lon="-3.367595">
        <ele>3343.0</ele>
        <time>2022-11-20T12:08:44.000Z</time>
      </trkpt>
      <trkpt lat="37.05625333" lon="-3.36759333">
        <ele>3343.0</ele>
        <time>2022-11-20T12:08:45.000Z</time>
      </trkpt>
      <trkpt lat="37.05624167" lon="-3.36759167">
        <ele>3343.0</ele>
        <time>2022-11-20T12:08:46.000Z</time>
      </trkpt>
      <trkpt lat="37.05623333" lon="-3.367595">
        <ele>3343.0</ele>
        <time>2022-11-20T12:08:47.000Z</time>
      </trkpt>
      <trkpt lat="37.05622" lon="-3.36759833">
        <ele>3343.0</ele>
        <time>2022-11-20T12:08:48.000Z</time>
      </trkpt>
      <trkpt lat="37.05620833" lon="-3.36760167">
        <ele>3343.0</ele>
        <time>2022-11-20T12:08:49.000Z</time>
      </trkpt>
      <trkpt lat="37.056195" lon="-3.36760167">
        <ele>3343.0</ele>
        <time>2022-11-20T12:08:50.000Z</time>
      </trkpt>
      <trkpt lat="37.05618" lon="-3.36760167">
        <ele>3343.0</ele>
        <time>2022-11-20T12:08:51.000Z</time>
      </trkpt>
      <trkpt lat="37.056165" lon="-3.36760167">
        <ele>3343.0</ele>
        <time>2022-11-20T12:08:52.000Z</time>
      </trkpt>
      <trkpt lat="37.05615" lon="-3.36759833">
        <ele>3343.0</ele>
        <time>2022-11-20T12:08:53.000Z</time>
      </trkpt>
      <trkpt lat="37.05613667" lon="-3.36759667">
        <ele>3343.0</ele>
        <time>2022-11-20T12:08:54.000Z</time>
      </trkpt>
      <trkpt lat="37.05612333" lon="-3.36759167">
        <ele>3342.0</ele>
        <time>2022-11-20T12:08:55.000Z</time>
      </trkpt>
      <trkpt lat="37.05611" lon="-3.36758833">
        <ele>3342.0</ele>
        <time>2022-11-20T12:08:56.000Z</time>
      </trkpt>
      <trkpt lat="37.05609333" lon="-3.367585">
        <ele>3342.0</ele>
        <time>2022-11-20T12:08:57.000Z</time>
      </trkpt>
      <trkpt lat="37.05607833" lon="-3.36758333">
        <ele>3342.0</ele>
        <time>2022-11-20T12:08:58.000Z</time>
      </trkpt>
      <trkpt lat="37.05606167" lon="-3.36758167">
        <ele>3342.0</ele>
        <time>2022-11-20T12:08:59.000Z</time>
      </trkpt>
      <trkpt lat="37.05604667" lon="-3.36758">
        <ele>3342.0</ele>
        <time>2022-11-20T12:09:00.000Z</time>
      </trkpt>
      <trkpt lat="37.05603167" lon="-3.36757833">
        <ele>3342.0</ele>
        <time>2022-11-20T12:09:01.000Z</time>
      </trkpt>
      <trkpt lat="37.05601833" lon="-3.36757667">
        <ele>3342.0</ele>
        <time>2022-11-20T12:09:02.000Z</time>
      </trkpt>
      <trkpt lat="37.056" lon="-3.36757167">
        <ele>3342.0</ele>
        <time>2022-11-20T12:09:03.000Z</time>
      </trkpt>
      <trkpt lat="37.05598" lon="-3.36757">
        <ele>3341.0</ele>
        <time>2022-11-20T12:09:04.000Z</time>
      </trkpt>
      <trkpt lat="37.05596167" lon="-3.36757">
        <ele>3341.0</ele>
        <time>2022-11-20T12:09:05.000Z</time>
      </trkpt>
      <trkpt lat="37.05594167" lon="-3.36757167">
        <ele>3341.0</ele>
        <time>2022-11-20T12:09:06.000Z</time>
      </trkpt>
      <trkpt lat="37.05592" lon="-3.36757333">
        <ele>3341.0</ele>
        <time>2022-11-20T12:09:07.000Z</time>
      </trkpt>
      <trkpt lat="37.05590167" lon="-3.36757167">
        <ele>3341.0</ele>
        <time>2022-11-20T12:09:08.000Z</time>
      </trkpt>
      <trkpt lat="37.055885" lon="-3.36757">
        <ele>3341.0</ele>
        <time>2022-11-20T12:09:09.000Z</time>
      </trkpt>
      <trkpt lat="37.05586833" lon="-3.36757">
        <ele>3341.0</ele>
        <time>2022-11-20T12:09:10.000Z</time>
      </trkpt>
      <trkpt lat="37.05585333" lon="-3.36757">
        <ele>3341.0</ele>
        <time>2022-11-20T12:09:11.000Z</time>
      </trkpt>
      <trkpt lat="37.05584" lon="-3.36757333">
        <ele>3341.0</ele>
        <time>2022-11-20T12:09:12.000Z</time>
      </trkpt>
      <trkpt lat="37.05582667" lon="-3.36757667">
        <ele>3340.0</ele>
        <time>2022-11-20T12:09:13.000Z</time>
      </trkpt>
      <trkpt lat="37.05581333" lon="-3.36757667">
        <ele>3340.0</ele>
        <time>2022-11-20T12:09:14.000Z</time>
      </trkpt>
      <trkpt lat="37.0558" lon="-3.36757667">
        <ele>3340.0</ele>
        <time>2022-11-20T12:09:15.000Z</time>
      </trkpt>
      <trkpt lat="37.05578333" lon="-3.367575">
        <ele>3340.0</ele>
        <time>2022-11-20T12:09:16.000Z</time>
      </trkpt>
      <trkpt lat="37.05576833" lon="-3.367575">
        <ele>3340.0</ele>
        <time>2022-11-20T12:09:17.000Z</time>
      </trkpt>
      <trkpt lat="37.05575333" lon="-3.367575">
        <ele>3340.0</ele>
        <time>2022-11-20T12:09:18.000Z</time>
      </trkpt>
      <trkpt lat="37.05573833" lon="-3.36757333">
        <ele>3340.0</ele>
        <time>2022-11-20T12:09:19.000Z</time>
      </trkpt>
      <trkpt lat="37.055725" lon="-3.367575">
        <ele>3340.0</ele>
        <time>2022-11-20T12:09:20.000Z</time>
      </trkpt>
      <trkpt lat="37.05571" lon="-3.367575">
        <ele>3340.0</ele>
        <time>2022-11-20T12:09:21.000Z</time>
      </trkpt>
      <trkpt lat="37.05569667" lon="-3.36757333">
        <ele>3339.0</ele>
        <time>2022-11-20T12:09:22.000Z</time>
      </trkpt>
      <trkpt lat="37.05568333" lon="-3.36757167">
        <ele>3339.0</ele>
        <time>2022-11-20T12:09:23.000Z</time>
      </trkpt>
      <trkpt lat="37.05567167" lon="-3.36756833">
        <ele>3339.0</ele>
        <time>2022-11-20T12:09:24.000Z</time>
      </trkpt>
      <trkpt lat="37.05565667" lon="-3.36756667">
        <ele>3339.0</ele>
        <time>2022-11-20T12:09:25.000Z</time>
      </trkpt>
      <trkpt lat="37.05564167" lon="-3.367565">
        <ele>3339.0</ele>
        <time>2022-11-20T12:09:26.000Z</time>
      </trkpt>
      <trkpt lat="37.055625" lon="-3.36756333">
        <ele>3339.0</ele>
        <time>2022-11-20T12:09:27.000Z</time>
      </trkpt>
      <trkpt lat="37.05561167" lon="-3.36756">
        <ele>3339.0</ele>
        <time>2022-11-20T12:09:28.000Z</time>
      </trkpt>
      <trkpt lat="37.05559833" lon="-3.367555">
        <ele>3339.0</ele>
        <time>2022-11-20T12:09:29.000Z</time>
      </trkpt>
      <trkpt lat="37.055585" lon="-3.36755333">
        <ele>3339.0</ele>
        <time>2022-11-20T12:09:30.000Z</time>
      </trkpt>
      <trkpt lat="37.05557" lon="-3.36755">
        <ele>3338.0</ele>
        <time>2022-11-20T12:09:31.000Z</time>
      </trkpt>
      <trkpt lat="37.055555" lon="-3.36755">
        <ele>3338.0</ele>
        <time>2022-11-20T12:09:32.000Z</time>
      </trkpt>
      <trkpt lat="37.05554" lon="-3.36755167">
        <ele>3338.0</ele>
        <time>2022-11-20T12:09:33.000Z</time>
      </trkpt>
      <trkpt lat="37.055525" lon="-3.36755167">
        <ele>3338.0</ele>
        <time>2022-11-20T12:09:34.000Z</time>
      </trkpt>
      <trkpt lat="37.05551" lon="-3.36755">
        <ele>3338.0</ele>
        <time>2022-11-20T12:09:35.000Z</time>
      </trkpt>
      <trkpt lat="37.055495" lon="-3.36755167">
        <ele>3337.0</ele>
        <time>2022-11-20T12:09:36.000Z</time>
      </trkpt>
      <trkpt lat="37.05548" lon="-3.36755">
        <ele>3337.0</ele>
        <time>2022-11-20T12:09:37.000Z</time>
      </trkpt>
      <trkpt lat="37.055465" lon="-3.36755">
        <ele>3337.0</ele>
        <time>2022-11-20T12:09:38.000Z</time>
      </trkpt>
      <trkpt lat="37.05545" lon="-3.36755">
        <ele>3337.0</ele>
        <time>2022-11-20T12:09:39.000Z</time>
      </trkpt>
      <trkpt lat="37.055435" lon="-3.36755">
        <ele>3337.0</ele>
        <time>2022-11-20T12:09:40.000Z</time>
      </trkpt>
      <trkpt lat="37.05542" lon="-3.36754833">
        <ele>3337.0</ele>
        <time>2022-11-20T12:09:41.000Z</time>
      </trkpt>
      <trkpt lat="37.05540667" lon="-3.367545">
        <ele>3337.0</ele>
        <time>2022-11-20T12:09:42.000Z</time>
      </trkpt>
      <trkpt lat="37.05539167" lon="-3.36754167">
        <ele>3337.0</ele>
        <time>2022-11-20T12:09:43.000Z</time>
      </trkpt>
      <trkpt lat="37.05537833" lon="-3.367535">
        <ele>3336.0</ele>
        <time>2022-11-20T12:09:44.000Z</time>
      </trkpt>
      <trkpt lat="37.055365" lon="-3.36753">
        <ele>3336.0</ele>
        <time>2022-11-20T12:09:45.000Z</time>
      </trkpt>
      <trkpt lat="37.05535167" lon="-3.367525">
        <ele>3336.0</ele>
        <time>2022-11-20T12:09:46.000Z</time>
      </trkpt>
      <trkpt lat="37.055335" lon="-3.36752167">
        <ele>3336.0</ele>
        <time>2022-11-20T12:09:47.000Z</time>
      </trkpt>
      <trkpt lat="37.05532167" lon="-3.36751667">
        <ele>3336.0</ele>
        <time>2022-11-20T12:09:48.000Z</time>
      </trkpt>
      <trkpt lat="37.05530833" lon="-3.36751167">
        <ele>3336.0</ele>
        <time>2022-11-20T12:09:49.000Z</time>
      </trkpt>
      <trkpt lat="37.055295" lon="-3.36751">
        <ele>3336.0</ele>
        <time>2022-11-20T12:09:50.000Z</time>
      </trkpt>
      <trkpt lat="37.05528" lon="-3.36750667">
        <ele>3335.0</ele>
        <time>2022-11-20T12:09:51.000Z</time>
      </trkpt>
      <trkpt lat="37.05526667" lon="-3.36750667">
        <ele>3335.0</ele>
        <time>2022-11-20T12:09:52.000Z</time>
      </trkpt>
      <trkpt lat="37.05525167" lon="-3.36750667">
        <ele>3335.0</ele>
        <time>2022-11-20T12:09:53.000Z</time>
      </trkpt>
      <trkpt lat="37.05523833" lon="-3.36750833">
        <ele>3335.0</ele>
        <time>2022-11-20T12:09:54.000Z</time>
      </trkpt>
      <trkpt lat="37.05522333" lon="-3.36750833">
        <ele>3335.0</ele>
        <time>2022-11-20T12:09:55.000Z</time>
      </trkpt>
      <trkpt lat="37.05520833" lon="-3.36750833">
        <ele>3335.0</ele>
        <time>2022-11-20T12:09:56.000Z</time>
      </trkpt>
      <trkpt lat="37.055195" lon="-3.36751">
        <ele>3334.0</ele>
        <time>2022-11-20T12:09:57.000Z</time>
      </trkpt>
      <trkpt lat="37.05518167" lon="-3.36751">
        <ele>3334.0</ele>
        <time>2022-11-20T12:09:58.000Z</time>
      </trkpt>
      <trkpt lat="37.05516667" lon="-3.36751">
        <ele>3334.0</ele>
        <time>2022-11-20T12:09:59.000Z</time>
      </trkpt>
      <trkpt lat="37.05515167" lon="-3.36751167">
        <ele>3334.0</ele>
        <time>2022-11-20T12:10:00.000Z</time>
      </trkpt>
      <trkpt lat="37.05513667" lon="-3.36751333">
        <ele>3334.0</ele>
        <time>2022-11-20T12:10:01.000Z</time>
      </trkpt>
      <trkpt lat="37.05512333" lon="-3.36751333">
        <ele>3334.0</ele>
        <time>2022-11-20T12:10:02.000Z</time>
      </trkpt>
      <trkpt lat="37.05510833" lon="-3.367515">
        <ele>3334.0</ele>
        <time>2022-11-20T12:10:03.000Z</time>
      </trkpt>
      <trkpt lat="37.055095" lon="-3.36751333">
        <ele>3334.0</ele>
        <time>2022-11-20T12:10:04.000Z</time>
      </trkpt>
      <trkpt lat="37.05508" lon="-3.36751333">
        <ele>3333.0</ele>
        <time>2022-11-20T12:10:05.000Z</time>
      </trkpt>
      <trkpt lat="37.05506667" lon="-3.36751167">
        <ele>3333.0</ele>
        <time>2022-11-20T12:10:06.000Z</time>
      </trkpt>
      <trkpt lat="37.05505167" lon="-3.36751">
        <ele>3333.0</ele>
        <time>2022-11-20T12:10:07.000Z</time>
      </trkpt>
      <trkpt lat="37.05503833" lon="-3.36751">
        <ele>3333.0</ele>
        <time>2022-11-20T12:10:08.000Z</time>
      </trkpt>
      <trkpt lat="37.05502167" lon="-3.36750667">
        <ele>3333.0</ele>
        <time>2022-11-20T12:10:09.000Z</time>
      </trkpt>
      <trkpt lat="37.05500833" lon="-3.36750667">
        <ele>3333.0</ele>
        <time>2022-11-20T12:10:10.000Z</time>
      </trkpt>
      <trkpt lat="37.05499333" lon="-3.36750667">
        <ele>3333.0</ele>
        <time>2022-11-20T12:10:11.000Z</time>
      </trkpt>
      <trkpt lat="37.05497833" lon="-3.36750667">
        <ele>3332.0</ele>
        <time>2022-11-20T12:10:12.000Z</time>
      </trkpt>
      <trkpt lat="37.05496667" lon="-3.367505">
        <ele>3332.0</ele>
        <time>2022-11-20T12:10:13.000Z</time>
      </trkpt>
      <trkpt lat="37.05495167" lon="-3.36750667">
        <ele>3332.0</ele>
        <time>2022-11-20T12:10:14.000Z</time>
      </trkpt>
      <trkpt lat="37.05493833" lon="-3.36750667">
        <ele>3332.0</ele>
        <time>2022-11-20T12:10:15.000Z</time>
      </trkpt>
      <trkpt lat="37.05492333" lon="-3.36750667">
        <ele>3332.0</ele>
        <time>2022-11-20T12:10:16.000Z</time>
      </trkpt>
      <trkpt lat="37.05491" lon="-3.36750333">
        <ele>3332.0</ele>
        <time>2022-11-20T12:10:17.000Z</time>
      </trkpt>
      <trkpt lat="37.054895" lon="-3.36750167">
        <ele>3332.0</ele>
        <time>2022-11-20T12:10:18.000Z</time>
      </trkpt>
      <trkpt lat="37.05488" lon="-3.36749833">
        <ele>3332.0</ele>
        <time>2022-11-20T12:10:19.000Z</time>
      </trkpt>
      <trkpt lat="37.054865" lon="-3.36749833">
        <ele>3332.0</ele>
        <time>2022-11-20T12:10:20.000Z</time>
      </trkpt>
      <trkpt lat="37.05485167" lon="-3.367495">
        <ele>3332.0</ele>
        <time>2022-11-20T12:10:21.000Z</time>
      </trkpt>
      <trkpt lat="37.05483667" lon="-3.36749167">
        <ele>3331.0</ele>
        <time>2022-11-20T12:10:22.000Z</time>
      </trkpt>
      <trkpt lat="37.05482333" lon="-3.36748667">
        <ele>3331.0</ele>
        <time>2022-11-20T12:10:23.000Z</time>
      </trkpt>
      <trkpt lat="37.05481" lon="-3.36748167">
        <ele>3331.0</ele>
        <time>2022-11-20T12:10:24.000Z</time>
      </trkpt>
      <trkpt lat="37.054795" lon="-3.36747833">
        <ele>3331.0</ele>
        <time>2022-11-20T12:10:25.000Z</time>
      </trkpt>
      <trkpt lat="37.05478167" lon="-3.367475">
        <ele>3331.0</ele>
        <time>2022-11-20T12:10:26.000Z</time>
      </trkpt>
      <trkpt lat="37.05476833" lon="-3.36747">
        <ele>3331.0</ele>
        <time>2022-11-20T12:10:27.000Z</time>
      </trkpt>
      <trkpt lat="37.05475333" lon="-3.36746667">
        <ele>3331.0</ele>
        <time>2022-11-20T12:10:28.000Z</time>
      </trkpt>
      <trkpt lat="37.05474167" lon="-3.367465">
        <ele>3331.0</ele>
        <time>2022-11-20T12:10:29.000Z</time>
      </trkpt>
      <trkpt lat="37.05472833" lon="-3.36746333">
        <ele>3331.0</ele>
        <time>2022-11-20T12:10:30.000Z</time>
      </trkpt>
      <trkpt lat="37.054715" lon="-3.36745833">
        <ele>3330.0</ele>
        <time>2022-11-20T12:10:31.000Z</time>
      </trkpt>
      <trkpt lat="37.05470167" lon="-3.367455">
        <ele>3330.0</ele>
        <time>2022-11-20T12:10:32.000Z</time>
      </trkpt>
      <trkpt lat="37.05469" lon="-3.36745333">
        <ele>3330.0</ele>
        <time>2022-11-20T12:10:33.000Z</time>
      </trkpt>
      <trkpt lat="37.05467667" lon="-3.36745333">
        <ele>3330.0</ele>
        <time>2022-11-20T12:10:34.000Z</time>
      </trkpt>
      <trkpt lat="37.054665" lon="-3.36745167">
        <ele>3330.0</ele>
        <time>2022-11-20T12:10:35.000Z</time>
      </trkpt>
      <trkpt lat="37.05465167" lon="-3.36744833">
        <ele>3330.0</ele>
        <time>2022-11-20T12:10:36.000Z</time>
      </trkpt>
      <trkpt lat="37.05464" lon="-3.36744167">
        <ele>3330.0</ele>
        <time>2022-11-20T12:10:37.000Z</time>
      </trkpt>
      <trkpt lat="37.05462833" lon="-3.36743833">
        <ele>3330.0</ele>
        <time>2022-11-20T12:10:38.000Z</time>
      </trkpt>
      <trkpt lat="37.05461667" lon="-3.36743">
        <ele>3330.0</ele>
        <time>2022-11-20T12:10:39.000Z</time>
      </trkpt>
      <trkpt lat="37.05460667" lon="-3.36742333">
        <ele>3330.0</ele>
        <time>2022-11-20T12:10:40.000Z</time>
      </trkpt>
      <trkpt lat="37.054595" lon="-3.36741333">
        <ele>3330.0</ele>
        <time>2022-11-20T12:10:41.000Z</time>
      </trkpt>
      <trkpt lat="37.054585" lon="-3.36740667">
        <ele>3330.0</ele>
        <time>2022-11-20T12:10:42.000Z</time>
      </trkpt>
      <trkpt lat="37.05457167" lon="-3.36740167">
        <ele>3330.0</ele>
        <time>2022-11-20T12:10:43.000Z</time>
      </trkpt>
      <trkpt lat="37.05455833" lon="-3.36740167">
        <ele>3330.0</ele>
        <time>2022-11-20T12:10:44.000Z</time>
      </trkpt>
      <trkpt lat="37.054545" lon="-3.36740333">
        <ele>3329.0</ele>
        <time>2022-11-20T12:10:45.000Z</time>
      </trkpt>
      <trkpt lat="37.054535" lon="-3.36741167">
        <ele>3329.0</ele>
        <time>2022-11-20T12:10:46.000Z</time>
      </trkpt>
      <trkpt lat="37.05452667" lon="-3.36742333">
        <ele>3329.0</ele>
        <time>2022-11-20T12:10:47.000Z</time>
      </trkpt>
      <trkpt lat="37.05452167" lon="-3.36743333">
        <ele>3329.0</ele>
        <time>2022-11-20T12:10:48.000Z</time>
      </trkpt>
      <trkpt lat="37.054515" lon="-3.36744167">
        <ele>3329.0</ele>
        <time>2022-11-20T12:10:49.000Z</time>
      </trkpt>
      <trkpt lat="37.05451" lon="-3.367445">
        <ele>3329.0</ele>
        <time>2022-11-20T12:10:50.000Z</time>
      </trkpt>
      <trkpt lat="37.05450667" lon="-3.36744667">
        <ele>3329.0</ele>
        <time>2022-11-20T12:10:51.000Z</time>
      </trkpt>
      <trkpt lat="37.05450167" lon="-3.36745167">
        <ele>3329.0</ele>
        <time>2022-11-20T12:10:52.000Z</time>
      </trkpt>
      <trkpt lat="37.05449833" lon="-3.36745667">
        <ele>3329.0</ele>
        <time>2022-11-20T12:10:53.000Z</time>
      </trkpt>
      <trkpt lat="37.05449833" lon="-3.36746333">
        <ele>3328.0</ele>
        <time>2022-11-20T12:10:54.000Z</time>
      </trkpt>
      <trkpt lat="37.0545" lon="-3.36747167">
        <ele>3328.0</ele>
        <time>2022-11-20T12:10:55.000Z</time>
      </trkpt>
      <trkpt lat="37.05449833" lon="-3.36748">
        <ele>3328.0</ele>
        <time>2022-11-20T12:10:56.000Z</time>
      </trkpt>
      <trkpt lat="37.05449667" lon="-3.36749167">
        <ele>3328.0</ele>
        <time>2022-11-20T12:10:57.000Z</time>
      </trkpt>
      <trkpt lat="37.054495" lon="-3.36750333">
        <ele>3328.0</ele>
        <time>2022-11-20T12:10:58.000Z</time>
      </trkpt>
      <trkpt lat="37.054495" lon="-3.36751833">
        <ele>3328.0</ele>
        <time>2022-11-20T12:10:59.000Z</time>
      </trkpt>
      <trkpt lat="37.054495" lon="-3.36753333">
        <ele>3328.0</ele>
        <time>2022-11-20T12:11:00.000Z</time>
      </trkpt>
      <trkpt lat="37.054495" lon="-3.36754667">
        <ele>3327.0</ele>
        <time>2022-11-20T12:11:01.000Z</time>
      </trkpt>
      <trkpt lat="37.05449667" lon="-3.36756">
        <ele>3327.0</ele>
        <time>2022-11-20T12:11:02.000Z</time>
      </trkpt>
      <trkpt lat="37.0545" lon="-3.36757167">
        <ele>3327.0</ele>
        <time>2022-11-20T12:11:03.000Z</time>
      </trkpt>
      <trkpt lat="37.05450667" lon="-3.36758333">
        <ele>3327.0</ele>
        <time>2022-11-20T12:11:04.000Z</time>
      </trkpt>
      <trkpt lat="37.054515" lon="-3.36759667">
        <ele>3327.0</ele>
        <time>2022-11-20T12:11:05.000Z</time>
      </trkpt>
      <trkpt lat="37.05452333" lon="-3.36760667">
        <ele>3326.0</ele>
        <time>2022-11-20T12:11:06.000Z</time>
      </trkpt>
      <trkpt lat="37.054535" lon="-3.36761333">
        <ele>3326.0</ele>
        <time>2022-11-20T12:11:07.000Z</time>
      </trkpt>
      <trkpt lat="37.05454667" lon="-3.36761833">
        <ele>3326.0</ele>
        <time>2022-11-20T12:11:08.000Z</time>
      </trkpt>
      <trkpt lat="37.05455833" lon="-3.36762333">
        <ele>3326.0</ele>
        <time>2022-11-20T12:11:09.000Z</time>
      </trkpt>
      <trkpt lat="37.05457" lon="-3.36763">
        <ele>3326.0</ele>
        <time>2022-11-20T12:11:10.000Z</time>
      </trkpt>
      <trkpt lat="37.054585" lon="-3.36763667">
        <ele>3326.0</ele>
        <time>2022-11-20T12:11:11.000Z</time>
      </trkpt>
      <trkpt lat="37.05459833" lon="-3.36764333">
        <ele>3326.0</ele>
        <time>2022-11-20T12:11:12.000Z</time>
      </trkpt>
      <trkpt lat="37.05461333" lon="-3.36764833">
        <ele>3325.0</ele>
        <time>2022-11-20T12:11:13.000Z</time>
      </trkpt>
      <trkpt lat="37.05462667" lon="-3.36765">
        <ele>3325.0</ele>
        <time>2022-11-20T12:11:14.000Z</time>
      </trkpt>
      <trkpt lat="37.05464167" lon="-3.36765333">
        <ele>3325.0</ele>
        <time>2022-11-20T12:11:15.000Z</time>
      </trkpt>
      <trkpt lat="37.054655" lon="-3.367655">
        <ele>3325.0</ele>
        <time>2022-11-20T12:11:16.000Z</time>
      </trkpt>
      <trkpt lat="37.05466667" lon="-3.367655">
        <ele>3325.0</ele>
        <time>2022-11-20T12:11:17.000Z</time>
      </trkpt>
      <trkpt lat="37.05468" lon="-3.367655">
        <ele>3325.0</ele>
        <time>2022-11-20T12:11:18.000Z</time>
      </trkpt>
      <trkpt lat="37.05469" lon="-3.36765833">
        <ele>3325.0</ele>
        <time>2022-11-20T12:11:19.000Z</time>
      </trkpt>
      <trkpt lat="37.05470333" lon="-3.367665">
        <ele>3325.0</ele>
        <time>2022-11-20T12:11:20.000Z</time>
      </trkpt>
      <trkpt lat="37.05471333" lon="-3.36767">
        <ele>3325.0</ele>
        <time>2022-11-20T12:11:21.000Z</time>
      </trkpt>
      <trkpt lat="37.05472167" lon="-3.36767333">
        <ele>3325.0</ele>
        <time>2022-11-20T12:11:22.000Z</time>
      </trkpt>
      <trkpt lat="37.05473333" lon="-3.367675">
        <ele>3324.0</ele>
        <time>2022-11-20T12:11:23.000Z</time>
      </trkpt>
      <trkpt lat="37.054745" lon="-3.36768">
        <ele>3324.0</ele>
        <time>2022-11-20T12:11:24.000Z</time>
      </trkpt>
      <trkpt lat="37.05475833" lon="-3.36768667">
        <ele>3324.0</ele>
        <time>2022-11-20T12:11:25.000Z</time>
      </trkpt>
      <trkpt lat="37.05477167" lon="-3.36769167">
        <ele>3324.0</ele>
        <time>2022-11-20T12:11:26.000Z</time>
      </trkpt>
      <trkpt lat="37.054785" lon="-3.36769333">
        <ele>3324.0</ele>
        <time>2022-11-20T12:11:27.000Z</time>
      </trkpt>
      <trkpt lat="37.05479833" lon="-3.367695">
        <ele>3324.0</ele>
        <time>2022-11-20T12:11:28.000Z</time>
      </trkpt>
      <trkpt lat="37.05481333" lon="-3.367695">
        <ele>3324.0</ele>
        <time>2022-11-20T12:11:29.000Z</time>
      </trkpt>
      <trkpt lat="37.05482667" lon="-3.36770167">
        <ele>3324.0</ele>
        <time>2022-11-20T12:11:30.000Z</time>
      </trkpt>
      <trkpt lat="37.05483833" lon="-3.36770833">
        <ele>3324.0</ele>
        <time>2022-11-20T12:11:31.000Z</time>
      </trkpt>
      <trkpt lat="37.05485333" lon="-3.36771667">
        <ele>3324.0</ele>
        <time>2022-11-20T12:11:32.000Z</time>
      </trkpt>
      <trkpt lat="37.054865" lon="-3.367725">
        <ele>3324.0</ele>
        <time>2022-11-20T12:11:33.000Z</time>
      </trkpt>
      <trkpt lat="37.05487833" lon="-3.36773167">
        <ele>3323.0</ele>
        <time>2022-11-20T12:11:34.000Z</time>
      </trkpt>
      <trkpt lat="37.05489167" lon="-3.36773833">
        <ele>3323.0</ele>
        <time>2022-11-20T12:11:35.000Z</time>
      </trkpt>
      <trkpt lat="37.054905" lon="-3.36774833">
        <ele>3323.0</ele>
        <time>2022-11-20T12:11:36.000Z</time>
      </trkpt>
      <trkpt lat="37.05491833" lon="-3.36775667">
        <ele>3323.0</ele>
        <time>2022-11-20T12:11:37.000Z</time>
      </trkpt>
      <trkpt lat="37.05493167" lon="-3.367765">
        <ele>3323.0</ele>
        <time>2022-11-20T12:11:38.000Z</time>
      </trkpt>
      <trkpt lat="37.054945" lon="-3.36777667">
        <ele>3323.0</ele>
        <time>2022-11-20T12:11:39.000Z</time>
      </trkpt>
      <trkpt lat="37.05495667" lon="-3.36778667">
        <ele>3322.0</ele>
        <time>2022-11-20T12:11:40.000Z</time>
      </trkpt>
      <trkpt lat="37.05497" lon="-3.36779667">
        <ele>3322.0</ele>
        <time>2022-11-20T12:11:41.000Z</time>
      </trkpt>
      <trkpt lat="37.05498333" lon="-3.36780667">
        <ele>3322.0</ele>
        <time>2022-11-20T12:11:42.000Z</time>
      </trkpt>
      <trkpt lat="37.05499667" lon="-3.36782">
        <ele>3322.0</ele>
        <time>2022-11-20T12:11:43.000Z</time>
      </trkpt>
      <trkpt lat="37.05500833" lon="-3.36783167">
        <ele>3322.0</ele>
        <time>2022-11-20T12:11:44.000Z</time>
      </trkpt>
      <trkpt lat="37.05502167" lon="-3.36784">
        <ele>3322.0</ele>
        <time>2022-11-20T12:11:45.000Z</time>
      </trkpt>
      <trkpt lat="37.055035" lon="-3.36785">
        <ele>3321.0</ele>
        <time>2022-11-20T12:11:46.000Z</time>
      </trkpt>
      <trkpt lat="37.05504833" lon="-3.36785833">
        <ele>3321.0</ele>
        <time>2022-11-20T12:11:47.000Z</time>
      </trkpt>
      <trkpt lat="37.05506167" lon="-3.36786833">
        <ele>3321.0</ele>
        <time>2022-11-20T12:11:48.000Z</time>
      </trkpt>
      <trkpt lat="37.05507667" lon="-3.36788">
        <ele>3321.0</ele>
        <time>2022-11-20T12:11:49.000Z</time>
      </trkpt>
      <trkpt lat="37.05509167" lon="-3.36789167">
        <ele>3321.0</ele>
        <time>2022-11-20T12:11:50.000Z</time>
      </trkpt>
      <trkpt lat="37.055105" lon="-3.367905">
        <ele>3321.0</ele>
        <time>2022-11-20T12:11:51.000Z</time>
      </trkpt>
      <trkpt lat="37.05512" lon="-3.367915">
        <ele>3321.0</ele>
        <time>2022-11-20T12:11:52.000Z</time>
      </trkpt>
      <trkpt lat="37.055135" lon="-3.36793">
        <ele>3320.0</ele>
        <time>2022-11-20T12:11:53.000Z</time>
      </trkpt>
      <trkpt lat="37.05515167" lon="-3.36794333">
        <ele>3320.0</ele>
        <time>2022-11-20T12:11:54.000Z</time>
      </trkpt>
      <trkpt lat="37.05516833" lon="-3.36795833">
        <ele>3320.0</ele>
        <time>2022-11-20T12:11:55.000Z</time>
      </trkpt>
      <trkpt lat="37.05518333" lon="-3.36797333">
        <ele>3320.0</ele>
        <time>2022-11-20T12:11:56.000Z</time>
      </trkpt>
      <trkpt lat="37.05519667" lon="-3.36799167">
        <ele>3320.0</ele>
        <time>2022-11-20T12:11:57.000Z</time>
      </trkpt>
      <trkpt lat="37.05521333" lon="-3.36801">
        <ele>3320.0</ele>
        <time>2022-11-20T12:11:58.000Z</time>
      </trkpt>
      <trkpt lat="37.05522833" lon="-3.36802333">
        <ele>3320.0</ele>
        <time>2022-11-20T12:11:59.000Z</time>
      </trkpt>
      <trkpt lat="37.05524667" lon="-3.36803833">
        <ele>3319.0</ele>
        <time>2022-11-20T12:12:00.000Z</time>
      </trkpt>
      <trkpt lat="37.055265" lon="-3.36805167">
        <ele>3319.0</ele>
        <time>2022-11-20T12:12:01.000Z</time>
      </trkpt>
      <trkpt lat="37.05528" lon="-3.36806667">
        <ele>3319.0</ele>
        <time>2022-11-20T12:12:02.000Z</time>
      </trkpt>
      <trkpt lat="37.05529167" lon="-3.36807833">
        <ele>3319.0</ele>
        <time>2022-11-20T12:12:03.000Z</time>
      </trkpt>
      <trkpt lat="37.055305" lon="-3.36809">
        <ele>3319.0</ele>
        <time>2022-11-20T12:12:04.000Z</time>
      </trkpt>
      <trkpt lat="37.05531833" lon="-3.36809833">
        <ele>3319.0</ele>
        <time>2022-11-20T12:12:05.000Z</time>
      </trkpt>
      <trkpt lat="37.05533" lon="-3.36810667">
        <ele>3319.0</ele>
        <time>2022-11-20T12:12:06.000Z</time>
      </trkpt>
      <trkpt lat="37.05534167" lon="-3.368115">
        <ele>3318.0</ele>
        <time>2022-11-20T12:12:07.000Z</time>
      </trkpt>
      <trkpt lat="37.055355" lon="-3.368125">
        <ele>3318.0</ele>
        <time>2022-11-20T12:12:08.000Z</time>
      </trkpt>
      <trkpt lat="37.05536833" lon="-3.368135">
        <ele>3318.0</ele>
        <time>2022-11-20T12:12:09.000Z</time>
      </trkpt>
      <trkpt lat="37.05538333" lon="-3.368145">
        <ele>3318.0</ele>
        <time>2022-11-20T12:12:10.000Z</time>
      </trkpt>
      <trkpt lat="37.055395" lon="-3.368155">
        <ele>3318.0</ele>
        <time>2022-11-20T12:12:11.000Z</time>
      </trkpt>
      <trkpt lat="37.05541" lon="-3.368165">
        <ele>3318.0</ele>
        <time>2022-11-20T12:12:12.000Z</time>
      </trkpt>
      <trkpt lat="37.05542333" lon="-3.36817667">
        <ele>3318.0</ele>
        <time>2022-11-20T12:12:13.000Z</time>
      </trkpt>
      <trkpt lat="37.05543333" lon="-3.368185">
        <ele>3317.0</ele>
        <time>2022-11-20T12:12:14.000Z</time>
      </trkpt>
      <trkpt lat="37.05544333" lon="-3.36819833">
        <ele>3317.0</ele>
        <time>2022-11-20T12:12:15.000Z</time>
      </trkpt>
      <trkpt lat="37.05545333" lon="-3.36821">
        <ele>3317.0</ele>
        <time>2022-11-20T12:12:16.000Z</time>
      </trkpt>
      <trkpt lat="37.05546667" lon="-3.36822">
        <ele>3317.0</ele>
        <time>2022-11-20T12:12:17.000Z</time>
      </trkpt>
      <trkpt lat="37.05548" lon="-3.36822833">
        <ele>3317.0</ele>
        <time>2022-11-20T12:12:18.000Z</time>
      </trkpt>
      <trkpt lat="37.05549333" lon="-3.36824">
        <ele>3317.0</ele>
        <time>2022-11-20T12:12:19.000Z</time>
      </trkpt>
      <trkpt lat="37.055505" lon="-3.36825">
        <ele>3317.0</ele>
        <time>2022-11-20T12:12:20.000Z</time>
      </trkpt>
      <trkpt lat="37.05551667" lon="-3.36825833">
        <ele>3317.0</ele>
        <time>2022-11-20T12:12:21.000Z</time>
      </trkpt>
      <trkpt lat="37.05553" lon="-3.36826833">
        <ele>3316.0</ele>
        <time>2022-11-20T12:12:22.000Z</time>
      </trkpt>
      <trkpt lat="37.05554167" lon="-3.36828">
        <ele>3316.0</ele>
        <time>2022-11-20T12:12:23.000Z</time>
      </trkpt>
      <trkpt lat="37.05555333" lon="-3.36829167">
        <ele>3316.0</ele>
        <time>2022-11-20T12:12:24.000Z</time>
      </trkpt>
      <trkpt lat="37.055565" lon="-3.36830333">
        <ele>3316.0</ele>
        <time>2022-11-20T12:12:25.000Z</time>
      </trkpt>
      <trkpt lat="37.05557833" lon="-3.368315">
        <ele>3316.0</ele>
        <time>2022-11-20T12:12:26.000Z</time>
      </trkpt>
      <trkpt lat="37.05559" lon="-3.368325">
        <ele>3316.0</ele>
        <time>2022-11-20T12:12:27.000Z</time>
      </trkpt>
      <trkpt lat="37.0556" lon="-3.36833833">
        <ele>3316.0</ele>
        <time>2022-11-20T12:12:28.000Z</time>
      </trkpt>
      <trkpt lat="37.05561" lon="-3.36835167">
        <ele>3315.0</ele>
        <time>2022-11-20T12:12:29.000Z</time>
      </trkpt>
      <trkpt lat="37.05561833" lon="-3.368365">
        <ele>3315.0</ele>
        <time>2022-11-20T12:12:30.000Z</time>
      </trkpt>
      <trkpt lat="37.05563" lon="-3.368375">
        <ele>3315.0</ele>
        <time>2022-11-20T12:12:31.000Z</time>
      </trkpt>
      <trkpt lat="37.05564167" lon="-3.36838667">
        <ele>3315.0</ele>
        <time>2022-11-20T12:12:32.000Z</time>
      </trkpt>
      <trkpt lat="37.05565167" lon="-3.36839667">
        <ele>3315.0</ele>
        <time>2022-11-20T12:12:33.000Z</time>
      </trkpt>
      <trkpt lat="37.05566333" lon="-3.36841">
        <ele>3315.0</ele>
        <time>2022-11-20T12:12:34.000Z</time>
      </trkpt>
      <trkpt lat="37.05567167" lon="-3.368425">
        <ele>3315.0</ele>
        <time>2022-11-20T12:12:35.000Z</time>
      </trkpt>
      <trkpt lat="37.05567833" lon="-3.36844">
        <ele>3314.0</ele>
        <time>2022-11-20T12:12:36.000Z</time>
      </trkpt>
      <trkpt lat="37.05568167" lon="-3.36845333">
        <ele>3314.0</ele>
        <time>2022-11-20T12:12:37.000Z</time>
      </trkpt>
      <trkpt lat="37.05567667" lon="-3.36846167">
        <ele>3314.0</ele>
        <time>2022-11-20T12:12:38.000Z</time>
      </trkpt>
      <trkpt lat="37.05567" lon="-3.368465">
        <ele>3314.0</ele>
        <time>2022-11-20T12:12:39.000Z</time>
      </trkpt>
      <trkpt lat="37.05566333" lon="-3.36846833">
        <ele>3314.0</ele>
        <time>2022-11-20T12:12:40.000Z</time>
      </trkpt>
      <trkpt lat="37.05565833" lon="-3.36847">
        <ele>3314.0</ele>
        <time>2022-11-20T12:12:41.000Z</time>
      </trkpt>
      <trkpt lat="37.05565667" lon="-3.36847167">
        <ele>3314.0</ele>
        <time>2022-11-20T12:12:42.000Z</time>
      </trkpt>
      <trkpt lat="37.055655" lon="-3.36847333">
        <ele>3314.0</ele>
        <time>2022-11-20T12:12:43.000Z</time>
      </trkpt>
      <trkpt lat="37.055655" lon="-3.36847333">
        <ele>3314.0</ele>
        <time>2022-11-20T12:12:44.000Z</time>
      </trkpt>
      <trkpt lat="37.05565333" lon="-3.36847333">
        <ele>3313.0</ele>
        <time>2022-11-20T12:12:45.000Z</time>
      </trkpt>
      <trkpt lat="37.05565" lon="-3.368475">
        <ele>3313.0</ele>
        <time>2022-11-20T12:12:46.000Z</time>
      </trkpt>
      <trkpt lat="37.055645" lon="-3.368475">
        <ele>3313.0</ele>
        <time>2022-11-20T12:12:47.000Z</time>
      </trkpt>
      <trkpt lat="37.05564" lon="-3.36847667">
        <ele>3313.0</ele>
        <time>2022-11-20T12:12:48.000Z</time>
      </trkpt>
      <trkpt lat="37.05563667" lon="-3.36847833">
        <ele>3313.0</ele>
        <time>2022-11-20T12:12:49.000Z</time>
      </trkpt>
      <trkpt lat="37.05563333" lon="-3.36848">
        <ele>3313.0</ele>
        <time>2022-11-20T12:12:50.000Z</time>
      </trkpt>
      <trkpt lat="37.05562833" lon="-3.36848167">
        <ele>3313.0</ele>
        <time>2022-11-20T12:12:51.000Z</time>
      </trkpt>
      <trkpt lat="37.05562333" lon="-3.36848333">
        <ele>3313.0</ele>
        <time>2022-11-20T12:12:52.000Z</time>
      </trkpt>
      <trkpt lat="37.05561667" lon="-3.36848667">
        <ele>3313.0</ele>
        <time>2022-11-20T12:12:53.000Z</time>
      </trkpt>
      <trkpt lat="37.05561" lon="-3.36848833">
        <ele>3312.0</ele>
        <time>2022-11-20T12:12:54.000Z</time>
      </trkpt>
      <trkpt lat="37.05560167" lon="-3.36849">
        <ele>3312.0</ele>
        <time>2022-11-20T12:12:55.000Z</time>
      </trkpt>
      <trkpt lat="37.05559167" lon="-3.36849167">
        <ele>3312.0</ele>
        <time>2022-11-20T12:12:56.000Z</time>
      </trkpt>
      <trkpt lat="37.055585" lon="-3.36849167">
        <ele>3312.0</ele>
        <time>2022-11-20T12:12:57.000Z</time>
      </trkpt>
      <trkpt lat="37.05557833" lon="-3.36849167">
        <ele>3312.0</ele>
        <time>2022-11-20T12:12:58.000Z</time>
      </trkpt>
      <trkpt lat="37.05557167" lon="-3.36849167">
        <ele>3312.0</ele>
        <time>2022-11-20T12:12:59.000Z</time>
      </trkpt>
      <trkpt lat="37.05556333" lon="-3.36849">
        <ele>3312.0</ele>
        <time>2022-11-20T12:13:00.000Z</time>
      </trkpt>
      <trkpt lat="37.05556" lon="-3.36849">
        <ele>3312.0</ele>
        <time>2022-11-20T12:13:01.000Z</time>
      </trkpt>
      <trkpt lat="37.05555333" lon="-3.36849">
        <ele>3311.0</ele>
        <time>2022-11-20T12:13:02.000Z</time>
      </trkpt>
      <trkpt lat="37.05554667" lon="-3.36848833">
        <ele>3311.0</ele>
        <time>2022-11-20T12:13:03.000Z</time>
      </trkpt>
      <trkpt lat="37.05554" lon="-3.368485">
        <ele>3311.0</ele>
        <time>2022-11-20T12:13:04.000Z</time>
      </trkpt>
      <trkpt lat="37.055535" lon="-3.368485">
        <ele>3311.0</ele>
        <time>2022-11-20T12:13:05.000Z</time>
      </trkpt>
      <trkpt lat="37.05553167" lon="-3.368485">
        <ele>3311.0</ele>
        <time>2022-11-20T12:13:06.000Z</time>
      </trkpt>
      <trkpt lat="37.05552833" lon="-3.36848833">
        <ele>3311.0</ele>
        <time>2022-11-20T12:13:07.000Z</time>
      </trkpt>
      <trkpt lat="37.05552" lon="-3.36849167">
        <ele>3311.0</ele>
        <time>2022-11-20T12:13:08.000Z</time>
      </trkpt>
      <trkpt lat="37.055515" lon="-3.36849167">
        <ele>3311.0</ele>
        <time>2022-11-20T12:13:09.000Z</time>
      </trkpt>
      <trkpt lat="37.05550833" lon="-3.36849333">
        <ele>3311.0</ele>
        <time>2022-11-20T12:13:10.000Z</time>
      </trkpt>
      <trkpt lat="37.0555" lon="-3.368495">
        <ele>3310.0</ele>
        <time>2022-11-20T12:13:11.000Z</time>
      </trkpt>
      <trkpt lat="37.05549333" lon="-3.36849833">
        <ele>3310.0</ele>
        <time>2022-11-20T12:13:12.000Z</time>
      </trkpt>
      <trkpt lat="37.055485" lon="-3.36850167">
        <ele>3310.0</ele>
        <time>2022-11-20T12:13:13.000Z</time>
      </trkpt>
      <trkpt lat="37.05548" lon="-3.36850333">
        <ele>3310.0</ele>
        <time>2022-11-20T12:13:14.000Z</time>
      </trkpt>
      <trkpt lat="37.055475" lon="-3.36850667">
        <ele>3310.0</ele>
        <time>2022-11-20T12:13:15.000Z</time>
      </trkpt>
      <trkpt lat="37.05547" lon="-3.36851">
        <ele>3310.0</ele>
        <time>2022-11-20T12:13:16.000Z</time>
      </trkpt>
      <trkpt lat="37.055465" lon="-3.368515">
        <ele>3309.0</ele>
        <time>2022-11-20T12:13:17.000Z</time>
      </trkpt>
      <trkpt lat="37.05546" lon="-3.36851833">
        <ele>3309.0</ele>
        <time>2022-11-20T12:13:18.000Z</time>
      </trkpt>
      <trkpt lat="37.05545167" lon="-3.36852167">
        <ele>3309.0</ele>
        <time>2022-11-20T12:13:19.000Z</time>
      </trkpt>
      <trkpt lat="37.055445" lon="-3.36852333">
        <ele>3309.0</ele>
        <time>2022-11-20T12:13:20.000Z</time>
      </trkpt>
      <trkpt lat="37.05543833" lon="-3.36852667">
        <ele>3309.0</ele>
        <time>2022-11-20T12:13:21.000Z</time>
      </trkpt>
      <trkpt lat="37.05543167" lon="-3.36853">
        <ele>3309.0</ele>
        <time>2022-11-20T12:13:22.000Z</time>
      </trkpt>
      <trkpt lat="37.05542833" lon="-3.36853333">
        <ele>3308.0</ele>
        <time>2022-11-20T12:13:23.000Z</time>
      </trkpt>
      <trkpt lat="37.05542333" lon="-3.36853833">
        <ele>3308.0</ele>
        <time>2022-11-20T12:13:24.000Z</time>
      </trkpt>
      <trkpt lat="37.05542167" lon="-3.36854333">
        <ele>3308.0</ele>
        <time>2022-11-20T12:13:25.000Z</time>
      </trkpt>
      <trkpt lat="37.05541833" lon="-3.36854833">
        <ele>3308.0</ele>
        <time>2022-11-20T12:13:26.000Z</time>
      </trkpt>
      <trkpt lat="37.05541667" lon="-3.36855">
        <ele>3308.0</ele>
        <time>2022-11-20T12:13:27.000Z</time>
      </trkpt>
      <trkpt lat="37.055415" lon="-3.36855667">
        <ele>3308.0</ele>
        <time>2022-11-20T12:13:28.000Z</time>
      </trkpt>
      <trkpt lat="37.05541333" lon="-3.36856">
        <ele>3308.0</ele>
        <time>2022-11-20T12:13:29.000Z</time>
      </trkpt>
      <trkpt lat="37.05541167" lon="-3.36856333">
        <ele>3308.0</ele>
        <time>2022-11-20T12:13:30.000Z</time>
      </trkpt>
      <trkpt lat="37.05541167" lon="-3.36856333">
        <ele>3307.0</ele>
        <time>2022-11-20T12:13:31.000Z</time>
      </trkpt>
      <trkpt lat="37.05541" lon="-3.36856667">
        <ele>3307.0</ele>
        <time>2022-11-20T12:13:32.000Z</time>
      </trkpt>
      <trkpt lat="37.05541" lon="-3.36857167">
        <ele>3307.0</ele>
        <time>2022-11-20T12:13:33.000Z</time>
      </trkpt>
      <trkpt lat="37.05540833" lon="-3.36857667">
        <ele>3307.0</ele>
        <time>2022-11-20T12:13:34.000Z</time>
      </trkpt>
      <trkpt lat="37.055405" lon="-3.36857833">
        <ele>3307.0</ele>
        <time>2022-11-20T12:13:35.000Z</time>
      </trkpt>
      <trkpt lat="37.05540333" lon="-3.36857833">
        <ele>3307.0</ele>
        <time>2022-11-20T12:13:36.000Z</time>
      </trkpt>
      <trkpt lat="37.05540167" lon="-3.36857667">
        <ele>3307.0</ele>
        <time>2022-11-20T12:13:37.000Z</time>
      </trkpt>
      <trkpt lat="37.0554" lon="-3.36857833">
        <ele>3307.0</ele>
        <time>2022-11-20T12:13:38.000Z</time>
      </trkpt>
      <trkpt lat="37.0554" lon="-3.36857833">
        <ele>3307.0</ele>
        <time>2022-11-20T12:13:39.000Z</time>
      </trkpt>
      <trkpt lat="37.05539833" lon="-3.36857833">
        <ele>3307.0</ele>
        <time>2022-11-20T12:13:40.000Z</time>
      </trkpt>
      <trkpt lat="37.0554" lon="-3.36857667">
        <ele>3307.0</ele>
        <time>2022-11-20T12:13:41.000Z</time>
      </trkpt>
      <trkpt lat="37.0554" lon="-3.36857667">
        <ele>3307.0</ele>
        <time>2022-11-20T12:13:42.000Z</time>
      </trkpt>
      <trkpt lat="37.05540167" lon="-3.36857667">
        <ele>3307.0</ele>
        <time>2022-11-20T12:13:43.000Z</time>
      </trkpt>
      <trkpt lat="37.05540333" lon="-3.36857667">
        <ele>3307.0</ele>
        <time>2022-11-20T12:13:44.000Z</time>
      </trkpt>
      <trkpt lat="37.05540167" lon="-3.36857667">
        <ele>3307.0</ele>
        <time>2022-11-20T12:13:45.000Z</time>
      </trkpt>
      <trkpt lat="37.0554" lon="-3.36857667">
        <ele>3307.0</ele>
        <time>2022-11-20T12:13:46.000Z</time>
      </trkpt>
      <trkpt lat="37.05539833" lon="-3.36857667">
        <ele>3307.0</ele>
        <time>2022-11-20T12:13:47.000Z</time>
      </trkpt>
      <trkpt lat="37.055395" lon="-3.36857667">
        <ele>3307.0</ele>
        <time>2022-11-20T12:13:48.000Z</time>
      </trkpt>
      <trkpt lat="37.05539333" lon="-3.36857667">
        <ele>3307.0</ele>
        <time>2022-11-20T12:13:49.000Z</time>
      </trkpt>
      <trkpt lat="37.05539333" lon="-3.36857833">
        <ele>3307.0</ele>
        <time>2022-11-20T12:13:50.000Z</time>
      </trkpt>
      <trkpt lat="37.055395" lon="-3.36857833">
        <ele>3307.0</ele>
        <time>2022-11-20T12:13:51.000Z</time>
      </trkpt>
      <trkpt lat="37.055395" lon="-3.36857833">
        <ele>3307.0</ele>
        <time>2022-11-20T12:13:52.000Z</time>
      </trkpt>
      <trkpt lat="37.055395" lon="-3.36857833">
        <ele>3307.0</ele>
        <time>2022-11-20T12:13:53.000Z</time>
      </trkpt>
      <trkpt lat="37.055395" lon="-3.36857833">
        <ele>3307.0</ele>
        <time>2022-11-20T12:13:54.000Z</time>
      </trkpt>
      <trkpt lat="37.055395" lon="-3.36857833">
        <ele>3307.0</ele>
        <time>2022-11-20T12:13:55.000Z</time>
      </trkpt>
      <trkpt lat="37.055395" lon="-3.36858">
        <ele>3307.0</ele>
        <time>2022-11-20T12:13:56.000Z</time>
      </trkpt>
      <trkpt lat="37.055395" lon="-3.36858">
        <ele>3307.0</ele>
        <time>2022-11-20T12:13:57.000Z</time>
      </trkpt>
      <trkpt lat="37.05539333" lon="-3.36858167">
        <ele>3307.0</ele>
        <time>2022-11-20T12:13:58.000Z</time>
      </trkpt>
      <trkpt lat="37.05539333" lon="-3.36858667">
        <ele>3307.0</ele>
        <time>2022-11-20T12:13:59.000Z</time>
      </trkpt>
      <trkpt lat="37.055395" lon="-3.36859167">
        <ele>3306.0</ele>
        <time>2022-11-20T12:14:00.000Z</time>
      </trkpt>
      <trkpt lat="37.05539333" lon="-3.36859667">
        <ele>3306.0</ele>
        <time>2022-11-20T12:14:01.000Z</time>
      </trkpt>
      <trkpt lat="37.05539" lon="-3.3686">
        <ele>3306.0</ele>
        <time>2022-11-20T12:14:02.000Z</time>
      </trkpt>
      <trkpt lat="37.055385" lon="-3.3686">
        <ele>3306.0</ele>
        <time>2022-11-20T12:14:03.000Z</time>
      </trkpt>
      <trkpt lat="37.05538" lon="-3.3686">
        <ele>3306.0</ele>
        <time>2022-11-20T12:14:04.000Z</time>
      </trkpt>
      <trkpt lat="37.055375" lon="-3.3686">
        <ele>3306.0</ele>
        <time>2022-11-20T12:14:05.000Z</time>
      </trkpt>
      <trkpt lat="37.055375" lon="-3.3686">
        <ele>3306.0</ele>
        <time>2022-11-20T12:14:06.000Z</time>
      </trkpt>
      <trkpt lat="37.055375" lon="-3.3686">
        <ele>3306.0</ele>
        <time>2022-11-20T12:14:07.000Z</time>
      </trkpt>
      <trkpt lat="37.055375" lon="-3.3686">
        <ele>3306.0</ele>
        <time>2022-11-20T12:14:08.000Z</time>
      </trkpt>
      <trkpt lat="37.055375" lon="-3.3686">
        <ele>3306.0</ele>
        <time>2022-11-20T12:14:09.000Z</time>
      </trkpt>
      <trkpt lat="37.055375" lon="-3.3686">
        <ele>3306.0</ele>
        <time>2022-11-20T12:14:10.000Z</time>
      </trkpt>
      <trkpt lat="37.05537667" lon="-3.3686">
        <ele>3306.0</ele>
        <time>2022-11-20T12:14:11.000Z</time>
      </trkpt>
      <trkpt lat="37.05537667" lon="-3.3686">
        <ele>3306.0</ele>
        <time>2022-11-20T12:14:12.000Z</time>
      </trkpt>
      <trkpt lat="37.05537667" lon="-3.36860167">
        <ele>3306.0</ele>
        <time>2022-11-20T12:14:13.000Z</time>
      </trkpt>
      <trkpt lat="37.05537667" lon="-3.368605">
        <ele>3306.0</ele>
        <time>2022-11-20T12:14:14.000Z</time>
      </trkpt>
      <trkpt lat="37.05537833" lon="-3.36861">
        <ele>3306.0</ele>
        <time>2022-11-20T12:14:15.000Z</time>
      </trkpt>
      <trkpt lat="37.05537667" lon="-3.368615">
        <ele>3306.0</ele>
        <time>2022-11-20T12:14:16.000Z</time>
      </trkpt>
      <trkpt lat="37.055375" lon="-3.36862">
        <ele>3306.0</ele>
        <time>2022-11-20T12:14:17.000Z</time>
      </trkpt>
      <trkpt lat="37.055375" lon="-3.36862333">
        <ele>3305.0</ele>
        <time>2022-11-20T12:14:18.000Z</time>
      </trkpt>
      <trkpt lat="37.05537333" lon="-3.36863">
        <ele>3305.0</ele>
        <time>2022-11-20T12:14:19.000Z</time>
      </trkpt>
      <trkpt lat="37.05537" lon="-3.368635">
        <ele>3305.0</ele>
        <time>2022-11-20T12:14:20.000Z</time>
      </trkpt>
      <trkpt lat="37.05537" lon="-3.36864">
        <ele>3305.0</ele>
        <time>2022-11-20T12:14:21.000Z</time>
      </trkpt>
      <trkpt lat="37.05536833" lon="-3.36864667">
        <ele>3305.0</ele>
        <time>2022-11-20T12:14:22.000Z</time>
      </trkpt>
      <trkpt lat="37.05536333" lon="-3.36865167">
        <ele>3305.0</ele>
        <time>2022-11-20T12:14:23.000Z</time>
      </trkpt>
      <trkpt lat="37.05536167" lon="-3.368655">
        <ele>3305.0</ele>
        <time>2022-11-20T12:14:24.000Z</time>
      </trkpt>
      <trkpt lat="37.05535667" lon="-3.36865833">
        <ele>3305.0</ele>
        <time>2022-11-20T12:14:25.000Z</time>
      </trkpt>
      <trkpt lat="37.05535333" lon="-3.36866167">
        <ele>3305.0</ele>
        <time>2022-11-20T12:14:26.000Z</time>
      </trkpt>
      <trkpt lat="37.05535" lon="-3.36866333">
        <ele>3305.0</ele>
        <time>2022-11-20T12:14:27.000Z</time>
      </trkpt>
      <trkpt lat="37.055345" lon="-3.36866667">
        <ele>3304.0</ele>
        <time>2022-11-20T12:14:28.000Z</time>
      </trkpt>
      <trkpt lat="37.05534167" lon="-3.36867">
        <ele>3304.0</ele>
        <time>2022-11-20T12:14:29.000Z</time>
      </trkpt>
      <trkpt lat="37.05533833" lon="-3.36867333">
        <ele>3304.0</ele>
        <time>2022-11-20T12:14:30.000Z</time>
      </trkpt>
      <trkpt lat="37.055335" lon="-3.36867667">
        <ele>3304.0</ele>
        <time>2022-11-20T12:14:31.000Z</time>
      </trkpt>
      <trkpt lat="37.05532833" lon="-3.36867833">
        <ele>3304.0</ele>
        <time>2022-11-20T12:14:32.000Z</time>
      </trkpt>
      <trkpt lat="37.05532333" lon="-3.36868">
        <ele>3303.0</ele>
        <time>2022-11-20T12:14:33.000Z</time>
      </trkpt>
      <trkpt lat="37.05531833" lon="-3.368685">
        <ele>3303.0</ele>
        <time>2022-11-20T12:14:34.000Z</time>
      </trkpt>
      <trkpt lat="37.05531167" lon="-3.36868833">
        <ele>3303.0</ele>
        <time>2022-11-20T12:14:35.000Z</time>
      </trkpt>
      <trkpt lat="37.05530167" lon="-3.36868833">
        <ele>3303.0</ele>
        <time>2022-11-20T12:14:36.000Z</time>
      </trkpt>
      <trkpt lat="37.05529333" lon="-3.36869">
        <ele>3303.0</ele>
        <time>2022-11-20T12:14:37.000Z</time>
      </trkpt>
      <trkpt lat="37.05528333" lon="-3.36869">
        <ele>3303.0</ele>
        <time>2022-11-20T12:14:38.000Z</time>
      </trkpt>
      <trkpt lat="37.05527667" lon="-3.36869">
        <ele>3302.0</ele>
        <time>2022-11-20T12:14:39.000Z</time>
      </trkpt>
      <trkpt lat="37.05526833" lon="-3.36869">
        <ele>3302.0</ele>
        <time>2022-11-20T12:14:40.000Z</time>
      </trkpt>
      <trkpt lat="37.05525833" lon="-3.36869333">
        <ele>3302.0</ele>
        <time>2022-11-20T12:14:41.000Z</time>
      </trkpt>
      <trkpt lat="37.05525" lon="-3.3687">
        <ele>3302.0</ele>
        <time>2022-11-20T12:14:42.000Z</time>
      </trkpt>
      <trkpt lat="37.05524" lon="-3.36870667">
        <ele>3302.0</ele>
        <time>2022-11-20T12:14:43.000Z</time>
      </trkpt>
      <trkpt lat="37.05523" lon="-3.368715">
        <ele>3302.0</ele>
        <time>2022-11-20T12:14:44.000Z</time>
      </trkpt>
      <trkpt lat="37.05522" lon="-3.36872333">
        <ele>3301.0</ele>
        <time>2022-11-20T12:14:45.000Z</time>
      </trkpt>
      <trkpt lat="37.05520833" lon="-3.36873">
        <ele>3301.0</ele>
        <time>2022-11-20T12:14:46.000Z</time>
      </trkpt>
      <trkpt lat="37.055195" lon="-3.36873333">
        <ele>3301.0</ele>
        <time>2022-11-20T12:14:47.000Z</time>
      </trkpt>
      <trkpt lat="37.05518333" lon="-3.36873833">
        <ele>3301.0</ele>
        <time>2022-11-20T12:14:48.000Z</time>
      </trkpt>
      <trkpt lat="37.055175" lon="-3.368745">
        <ele>3301.0</ele>
        <time>2022-11-20T12:14:49.000Z</time>
      </trkpt>
      <trkpt lat="37.055165" lon="-3.36874833">
        <ele>3301.0</ele>
        <time>2022-11-20T12:14:50.000Z</time>
      </trkpt>
      <trkpt lat="37.05515333" lon="-3.36875333">
        <ele>3301.0</ele>
        <time>2022-11-20T12:14:51.000Z</time>
      </trkpt>
      <trkpt lat="37.05514333" lon="-3.36876">
        <ele>3300.0</ele>
        <time>2022-11-20T12:14:52.000Z</time>
      </trkpt>
      <trkpt lat="37.055135" lon="-3.36876667">
        <ele>3300.0</ele>
        <time>2022-11-20T12:14:53.000Z</time>
      </trkpt>
      <trkpt lat="37.05512667" lon="-3.36877333">
        <ele>3300.0</ele>
        <time>2022-11-20T12:14:54.000Z</time>
      </trkpt>
      <trkpt lat="37.05512167" lon="-3.36878">
        <ele>3300.0</ele>
        <time>2022-11-20T12:14:55.000Z</time>
      </trkpt>
      <trkpt lat="37.055115" lon="-3.36878833">
        <ele>3300.0</ele>
        <time>2022-11-20T12:14:56.000Z</time>
      </trkpt>
      <trkpt lat="37.05510833" lon="-3.36879667">
        <ele>3300.0</ele>
        <time>2022-11-20T12:14:57.000Z</time>
      </trkpt>
      <trkpt lat="37.05510167" lon="-3.368805">
        <ele>3299.0</ele>
        <time>2022-11-20T12:14:58.000Z</time>
      </trkpt>
      <trkpt lat="37.0551" lon="-3.36881167">
        <ele>3299.0</ele>
        <time>2022-11-20T12:14:59.000Z</time>
      </trkpt>
      <trkpt lat="37.05509833" lon="-3.36881833">
        <ele>3299.0</ele>
        <time>2022-11-20T12:15:00.000Z</time>
      </trkpt>
      <trkpt lat="37.05509833" lon="-3.36882167">
        <ele>3299.0</ele>
        <time>2022-11-20T12:15:01.000Z</time>
      </trkpt>
      <trkpt lat="37.05509833" lon="-3.36882667">
        <ele>3299.0</ele>
        <time>2022-11-20T12:15:02.000Z</time>
      </trkpt>
      <trkpt lat="37.05509667" lon="-3.36883333">
        <ele>3299.0</ele>
        <time>2022-11-20T12:15:03.000Z</time>
      </trkpt>
      <trkpt lat="37.055095" lon="-3.36884">
        <ele>3299.0</ele>
        <time>2022-11-20T12:15:04.000Z</time>
      </trkpt>
      <trkpt lat="37.05509333" lon="-3.368845">
        <ele>3299.0</ele>
        <time>2022-11-20T12:15:05.000Z</time>
      </trkpt>
      <trkpt lat="37.05509333" lon="-3.36884833">
        <ele>3299.0</ele>
        <time>2022-11-20T12:15:06.000Z</time>
      </trkpt>
      <trkpt lat="37.05509167" lon="-3.36885167">
        <ele>3298.0</ele>
        <time>2022-11-20T12:15:07.000Z</time>
      </trkpt>
      <trkpt lat="37.05508833" lon="-3.368855">
        <ele>3298.0</ele>
        <time>2022-11-20T12:15:08.000Z</time>
      </trkpt>
      <trkpt lat="37.05508667" lon="-3.36885833">
        <ele>3298.0</ele>
        <time>2022-11-20T12:15:09.000Z</time>
      </trkpt>
      <trkpt lat="37.05508333" lon="-3.36886333">
        <ele>3298.0</ele>
        <time>2022-11-20T12:15:10.000Z</time>
      </trkpt>
      <trkpt lat="37.05508167" lon="-3.36886667">
        <ele>3298.0</ele>
        <time>2022-11-20T12:15:11.000Z</time>
      </trkpt>
      <trkpt lat="37.05507667" lon="-3.36887167">
        <ele>3298.0</ele>
        <time>2022-11-20T12:15:12.000Z</time>
      </trkpt>
      <trkpt lat="37.05507" lon="-3.36887667">
        <ele>3297.0</ele>
        <time>2022-11-20T12:15:13.000Z</time>
      </trkpt>
      <trkpt lat="37.055065" lon="-3.36887833">
        <ele>3297.0</ele>
        <time>2022-11-20T12:15:14.000Z</time>
      </trkpt>
      <trkpt lat="37.05506" lon="-3.36888167">
        <ele>3297.0</ele>
        <time>2022-11-20T12:15:15.000Z</time>
      </trkpt>
      <trkpt lat="37.05505333" lon="-3.36888333">
        <ele>3297.0</ele>
        <time>2022-11-20T12:15:16.000Z</time>
      </trkpt>
      <trkpt lat="37.055045" lon="-3.36888333">
        <ele>3297.0</ele>
        <time>2022-11-20T12:15:17.000Z</time>
      </trkpt>
      <trkpt lat="37.05503667" lon="-3.36888333">
        <ele>3297.0</ele>
        <time>2022-11-20T12:15:18.000Z</time>
      </trkpt>
      <trkpt lat="37.05502667" lon="-3.36888667">
        <ele>3297.0</ele>
        <time>2022-11-20T12:15:19.000Z</time>
      </trkpt>
      <trkpt lat="37.05501833" lon="-3.36888833">
        <ele>3297.0</ele>
        <time>2022-11-20T12:15:20.000Z</time>
      </trkpt>
      <trkpt lat="37.05501" lon="-3.36889">
        <ele>3297.0</ele>
        <time>2022-11-20T12:15:21.000Z</time>
      </trkpt>
      <trkpt lat="37.05500333" lon="-3.36889167">
        <ele>3297.0</ele>
        <time>2022-11-20T12:15:22.000Z</time>
      </trkpt>
      <trkpt lat="37.05499833" lon="-3.368895">
        <ele>3297.0</ele>
        <time>2022-11-20T12:15:23.000Z</time>
      </trkpt>
      <trkpt lat="37.05499333" lon="-3.36889667">
        <ele>3297.0</ele>
        <time>2022-11-20T12:15:24.000Z</time>
      </trkpt>
      <trkpt lat="37.05498833" lon="-3.36889667">
        <ele>3297.0</ele>
        <time>2022-11-20T12:15:25.000Z</time>
      </trkpt>
      <trkpt lat="37.05498667" lon="-3.36889667">
        <ele>3297.0</ele>
        <time>2022-11-20T12:15:26.000Z</time>
      </trkpt>
      <trkpt lat="37.05498667" lon="-3.36889667">
        <ele>3297.0</ele>
        <time>2022-11-20T12:15:27.000Z</time>
      </trkpt>
      <trkpt lat="37.05498667" lon="-3.36889833">
        <ele>3297.0</ele>
        <time>2022-11-20T12:15:28.000Z</time>
      </trkpt>
      <trkpt lat="37.05498667" lon="-3.36890167">
        <ele>3297.0</ele>
        <time>2022-11-20T12:15:29.000Z</time>
      </trkpt>
      <trkpt lat="37.05498333" lon="-3.368905">
        <ele>3297.0</ele>
        <time>2022-11-20T12:15:30.000Z</time>
      </trkpt>
      <trkpt lat="37.05497667" lon="-3.36890667">
        <ele>3297.0</ele>
        <time>2022-11-20T12:15:31.000Z</time>
      </trkpt>
      <trkpt lat="37.05497167" lon="-3.36890667">
        <ele>3297.0</ele>
        <time>2022-11-20T12:15:32.000Z</time>
      </trkpt>
      <trkpt lat="37.05496333" lon="-3.368905">
        <ele>3297.0</ele>
        <time>2022-11-20T12:15:33.000Z</time>
      </trkpt>
      <trkpt lat="37.05495333" lon="-3.368905">
        <ele>3297.0</ele>
        <time>2022-11-20T12:15:34.000Z</time>
      </trkpt>
      <trkpt lat="37.05494167" lon="-3.36890667">
        <ele>3297.0</ele>
        <time>2022-11-20T12:15:35.000Z</time>
      </trkpt>
      <trkpt lat="37.05493167" lon="-3.36891">
        <ele>3297.0</ele>
        <time>2022-11-20T12:15:36.000Z</time>
      </trkpt>
      <trkpt lat="37.05492" lon="-3.36891333">
        <ele>3297.0</ele>
        <time>2022-11-20T12:15:37.000Z</time>
      </trkpt>
      <trkpt lat="37.05491" lon="-3.368915">
        <ele>3297.0</ele>
        <time>2022-11-20T12:15:38.000Z</time>
      </trkpt>
      <trkpt lat="37.0549" lon="-3.36892">
        <ele>3297.0</ele>
        <time>2022-11-20T12:15:39.000Z</time>
      </trkpt>
      <trkpt lat="37.05489667" lon="-3.36892167">
        <ele>3297.0</ele>
        <time>2022-11-20T12:15:40.000Z</time>
      </trkpt>
      <trkpt lat="37.05489667" lon="-3.36892833">
        <ele>3297.0</ele>
        <time>2022-11-20T12:15:41.000Z</time>
      </trkpt>
      <trkpt lat="37.05489667" lon="-3.36893833">
        <ele>3297.0</ele>
        <time>2022-11-20T12:15:42.000Z</time>
      </trkpt>
      <trkpt lat="37.054895" lon="-3.36894667">
        <ele>3297.0</ele>
        <time>2022-11-20T12:15:43.000Z</time>
      </trkpt>
      <trkpt lat="37.05489167" lon="-3.368955">
        <ele>3297.0</ele>
        <time>2022-11-20T12:15:44.000Z</time>
      </trkpt>
      <trkpt lat="37.05489" lon="-3.36896167">
        <ele>3297.0</ele>
        <time>2022-11-20T12:15:45.000Z</time>
      </trkpt>
      <trkpt lat="37.05489333" lon="-3.36896833">
        <ele>3297.0</ele>
        <time>2022-11-20T12:15:46.000Z</time>
      </trkpt>
      <trkpt lat="37.05489667" lon="-3.36897333">
        <ele>3297.0</ele>
        <time>2022-11-20T12:15:47.000Z</time>
      </trkpt>
      <trkpt lat="37.0549" lon="-3.36897833">
        <ele>3297.0</ele>
        <time>2022-11-20T12:15:48.000Z</time>
      </trkpt>
      <trkpt lat="37.05490333" lon="-3.36898333">
        <ele>3297.0</ele>
        <time>2022-11-20T12:15:49.000Z</time>
      </trkpt>
      <trkpt lat="37.054905" lon="-3.36899167">
        <ele>3296.0</ele>
        <time>2022-11-20T12:15:50.000Z</time>
      </trkpt>
      <trkpt lat="37.05490167" lon="-3.36900167">
        <ele>3296.0</ele>
        <time>2022-11-20T12:15:51.000Z</time>
      </trkpt>
      <trkpt lat="37.0549" lon="-3.36901">
        <ele>3296.0</ele>
        <time>2022-11-20T12:15:52.000Z</time>
      </trkpt>
      <trkpt lat="37.05489667" lon="-3.36901833">
        <ele>3296.0</ele>
        <time>2022-11-20T12:15:53.000Z</time>
      </trkpt>
      <trkpt lat="37.054895" lon="-3.369025">
        <ele>3296.0</ele>
        <time>2022-11-20T12:15:54.000Z</time>
      </trkpt>
      <trkpt lat="37.05489333" lon="-3.36903167">
        <ele>3295.0</ele>
        <time>2022-11-20T12:15:55.000Z</time>
      </trkpt>
      <trkpt lat="37.05489333" lon="-3.36904">
        <ele>3295.0</ele>
        <time>2022-11-20T12:15:56.000Z</time>
      </trkpt>
      <trkpt lat="37.05489333" lon="-3.36905167">
        <ele>3295.0</ele>
        <time>2022-11-20T12:15:57.000Z</time>
      </trkpt>
      <trkpt lat="37.05488833" lon="-3.36906333">
        <ele>3295.0</ele>
        <time>2022-11-20T12:15:58.000Z</time>
      </trkpt>
      <trkpt lat="37.05488333" lon="-3.36907167">
        <ele>3295.0</ele>
        <time>2022-11-20T12:15:59.000Z</time>
      </trkpt>
      <trkpt lat="37.05487833" lon="-3.36908">
        <ele>3295.0</ele>
        <time>2022-11-20T12:16:00.000Z</time>
      </trkpt>
      <trkpt lat="37.05487667" lon="-3.36908833">
        <ele>3294.0</ele>
        <time>2022-11-20T12:16:01.000Z</time>
      </trkpt>
      <trkpt lat="37.05487167" lon="-3.3691">
        <ele>3294.0</ele>
        <time>2022-11-20T12:16:02.000Z</time>
      </trkpt>
      <trkpt lat="37.05487167" lon="-3.36911167">
        <ele>3294.0</ele>
        <time>2022-11-20T12:16:03.000Z</time>
      </trkpt>
      <trkpt lat="37.05487167" lon="-3.369125">
        <ele>3294.0</ele>
        <time>2022-11-20T12:16:04.000Z</time>
      </trkpt>
      <trkpt lat="37.054875" lon="-3.36913833">
        <ele>3293.0</ele>
        <time>2022-11-20T12:16:05.000Z</time>
      </trkpt>
      <trkpt lat="37.05487833" lon="-3.36915167">
        <ele>3293.0</ele>
        <time>2022-11-20T12:16:06.000Z</time>
      </trkpt>
      <trkpt lat="37.05488" lon="-3.36916167">
        <ele>3293.0</ele>
        <time>2022-11-20T12:16:07.000Z</time>
      </trkpt>
      <trkpt lat="37.05487833" lon="-3.36917">
        <ele>3293.0</ele>
        <time>2022-11-20T12:16:08.000Z</time>
      </trkpt>
      <trkpt lat="37.05487167" lon="-3.369175">
        <ele>3293.0</ele>
        <time>2022-11-20T12:16:09.000Z</time>
      </trkpt>
      <trkpt lat="37.05486333" lon="-3.36917833">
        <ele>3292.0</ele>
        <time>2022-11-20T12:16:10.000Z</time>
      </trkpt>
      <trkpt lat="37.054855" lon="-3.36918">
        <ele>3292.0</ele>
        <time>2022-11-20T12:16:11.000Z</time>
      </trkpt>
      <trkpt lat="37.054845" lon="-3.36918">
        <ele>3292.0</ele>
        <time>2022-11-20T12:16:12.000Z</time>
      </trkpt>
      <trkpt lat="37.05483667" lon="-3.36918167">
        <ele>3292.0</ele>
        <time>2022-11-20T12:16:13.000Z</time>
      </trkpt>
      <trkpt lat="37.05483" lon="-3.36918667">
        <ele>3292.0</ele>
        <time>2022-11-20T12:16:14.000Z</time>
      </trkpt>
      <trkpt lat="37.05482667" lon="-3.36919">
        <ele>3292.0</ele>
        <time>2022-11-20T12:16:15.000Z</time>
      </trkpt>
      <trkpt lat="37.05482167" lon="-3.36919667">
        <ele>3291.0</ele>
        <time>2022-11-20T12:16:16.000Z</time>
      </trkpt>
      <trkpt lat="37.05482" lon="-3.36920333">
        <ele>3291.0</ele>
        <time>2022-11-20T12:16:17.000Z</time>
      </trkpt>
      <trkpt lat="37.054815" lon="-3.36921167">
        <ele>3291.0</ele>
        <time>2022-11-20T12:16:18.000Z</time>
      </trkpt>
      <trkpt lat="37.054815" lon="-3.36921833">
        <ele>3291.0</ele>
        <time>2022-11-20T12:16:19.000Z</time>
      </trkpt>
      <trkpt lat="37.054815" lon="-3.36922333">
        <ele>3291.0</ele>
        <time>2022-11-20T12:16:20.000Z</time>
      </trkpt>
      <trkpt lat="37.05482" lon="-3.36923167">
        <ele>3291.0</ele>
        <time>2022-11-20T12:16:21.000Z</time>
      </trkpt>
      <trkpt lat="37.05482833" lon="-3.36924167">
        <ele>3290.0</ele>
        <time>2022-11-20T12:16:22.000Z</time>
      </trkpt>
      <trkpt lat="37.054835" lon="-3.36925333">
        <ele>3290.0</ele>
        <time>2022-11-20T12:16:23.000Z</time>
      </trkpt>
      <trkpt lat="37.05484" lon="-3.36926833">
        <ele>3290.0</ele>
        <time>2022-11-20T12:16:24.000Z</time>
      </trkpt>
      <trkpt lat="37.05483667" lon="-3.36928">
        <ele>3290.0</ele>
        <time>2022-11-20T12:16:25.000Z</time>
      </trkpt>
      <trkpt lat="37.05482667" lon="-3.36929167">
        <ele>3290.0</ele>
        <time>2022-11-20T12:16:26.000Z</time>
      </trkpt>
      <trkpt lat="37.054815" lon="-3.36930333">
        <ele>3290.0</ele>
        <time>2022-11-20T12:16:27.000Z</time>
      </trkpt>
      <trkpt lat="37.0548" lon="-3.36931667">
        <ele>3289.0</ele>
        <time>2022-11-20T12:16:28.000Z</time>
      </trkpt>
      <trkpt lat="37.05478833" lon="-3.36933167">
        <ele>3289.0</ele>
        <time>2022-11-20T12:16:29.000Z</time>
      </trkpt>
      <trkpt lat="37.054775" lon="-3.36934167">
        <ele>3289.0</ele>
        <time>2022-11-20T12:16:30.000Z</time>
      </trkpt>
      <trkpt lat="37.05476667" lon="-3.36935">
        <ele>3289.0</ele>
        <time>2022-11-20T12:16:31.000Z</time>
      </trkpt>
      <trkpt lat="37.05475667" lon="-3.36935333">
        <ele>3288.0</ele>
        <time>2022-11-20T12:16:32.000Z</time>
      </trkpt>
      <trkpt lat="37.054745" lon="-3.36935333">
        <ele>3288.0</ele>
        <time>2022-11-20T12:16:33.000Z</time>
      </trkpt>
      <trkpt lat="37.05473333" lon="-3.36935167">
        <ele>3288.0</ele>
        <time>2022-11-20T12:16:34.000Z</time>
      </trkpt>
      <trkpt lat="37.05472" lon="-3.36935167">
        <ele>3288.0</ele>
        <time>2022-11-20T12:16:35.000Z</time>
      </trkpt>
      <trkpt lat="37.05471" lon="-3.36935167">
        <ele>3288.0</ele>
        <time>2022-11-20T12:16:36.000Z</time>
      </trkpt>
      <trkpt lat="37.05470333" lon="-3.36935833">
        <ele>3288.0</ele>
        <time>2022-11-20T12:16:37.000Z</time>
      </trkpt>
      <trkpt lat="37.05469667" lon="-3.36936167">
        <ele>3288.0</ele>
        <time>2022-11-20T12:16:38.000Z</time>
      </trkpt>
      <trkpt lat="37.05468667" lon="-3.369365">
        <ele>3288.0</ele>
        <time>2022-11-20T12:16:39.000Z</time>
      </trkpt>
      <trkpt lat="37.05467667" lon="-3.36937333">
        <ele>3288.0</ele>
        <time>2022-11-20T12:16:40.000Z</time>
      </trkpt>
      <trkpt lat="37.05466333" lon="-3.36938167">
        <ele>3287.0</ele>
        <time>2022-11-20T12:16:41.000Z</time>
      </trkpt>
      <trkpt lat="37.05465167" lon="-3.36939">
        <ele>3287.0</ele>
        <time>2022-11-20T12:16:42.000Z</time>
      </trkpt>
      <trkpt lat="37.05463833" lon="-3.3694">
        <ele>3287.0</ele>
        <time>2022-11-20T12:16:43.000Z</time>
      </trkpt>
      <trkpt lat="37.05462667" lon="-3.36940833">
        <ele>3287.0</ele>
        <time>2022-11-20T12:16:44.000Z</time>
      </trkpt>
      <trkpt lat="37.054615" lon="-3.36941667">
        <ele>3287.0</ele>
        <time>2022-11-20T12:16:45.000Z</time>
      </trkpt>
      <trkpt lat="37.05460167" lon="-3.36942333">
        <ele>3286.0</ele>
        <time>2022-11-20T12:16:46.000Z</time>
      </trkpt>
      <trkpt lat="37.05458833" lon="-3.36943167">
        <ele>3286.0</ele>
        <time>2022-11-20T12:16:47.000Z</time>
      </trkpt>
      <trkpt lat="37.05457667" lon="-3.36944">
        <ele>3286.0</ele>
        <time>2022-11-20T12:16:48.000Z</time>
      </trkpt>
      <trkpt lat="37.05456333" lon="-3.36945">
        <ele>3286.0</ele>
        <time>2022-11-20T12:16:49.000Z</time>
      </trkpt>
      <trkpt lat="37.05455" lon="-3.36946">
        <ele>3286.0</ele>
        <time>2022-11-20T12:16:50.000Z</time>
      </trkpt>
      <trkpt lat="37.05453833" lon="-3.36947">
        <ele>3286.0</ele>
        <time>2022-11-20T12:16:51.000Z</time>
      </trkpt>
      <trkpt lat="37.05452833" lon="-3.36948">
        <ele>3286.0</ele>
        <time>2022-11-20T12:16:52.000Z</time>
      </trkpt>
      <trkpt lat="37.05451333" lon="-3.36949167">
        <ele>3285.0</ele>
        <time>2022-11-20T12:16:53.000Z</time>
      </trkpt>
      <trkpt lat="37.0545" lon="-3.3695">
        <ele>3285.0</ele>
        <time>2022-11-20T12:16:54.000Z</time>
      </trkpt>
      <trkpt lat="37.054485" lon="-3.36951">
        <ele>3285.0</ele>
        <time>2022-11-20T12:16:55.000Z</time>
      </trkpt>
      <trkpt lat="37.05447167" lon="-3.36952">
        <ele>3285.0</ele>
        <time>2022-11-20T12:16:56.000Z</time>
      </trkpt>
      <trkpt lat="37.05445667" lon="-3.36953">
        <ele>3285.0</ele>
        <time>2022-11-20T12:16:57.000Z</time>
      </trkpt>
      <trkpt lat="37.05444167" lon="-3.36954">
        <ele>3284.0</ele>
        <time>2022-11-20T12:16:58.000Z</time>
      </trkpt>
      <trkpt lat="37.05442833" lon="-3.36955">
        <ele>3284.0</ele>
        <time>2022-11-20T12:16:59.000Z</time>
      </trkpt>
      <trkpt lat="37.054415" lon="-3.36955833">
        <ele>3284.0</ele>
        <time>2022-11-20T12:17:00.000Z</time>
      </trkpt>
      <trkpt lat="37.05440167" lon="-3.36956667">
        <ele>3284.0</ele>
        <time>2022-11-20T12:17:01.000Z</time>
      </trkpt>
      <trkpt lat="37.05438833" lon="-3.36957667">
        <ele>3284.0</ele>
        <time>2022-11-20T12:17:02.000Z</time>
      </trkpt>
      <trkpt lat="37.054375" lon="-3.36958833">
        <ele>3284.0</ele>
        <time>2022-11-20T12:17:03.000Z</time>
      </trkpt>
      <trkpt lat="37.05436167" lon="-3.36959333">
        <ele>3284.0</ele>
        <time>2022-11-20T12:17:04.000Z</time>
      </trkpt>
      <trkpt lat="37.054345" lon="-3.36960167">
        <ele>3284.0</ele>
        <time>2022-11-20T12:17:05.000Z</time>
      </trkpt>
      <trkpt lat="37.05433" lon="-3.36961">
        <ele>3284.0</ele>
        <time>2022-11-20T12:17:06.000Z</time>
      </trkpt>
      <trkpt lat="37.05431833" lon="-3.36961333">
        <ele>3283.0</ele>
        <time>2022-11-20T12:17:07.000Z</time>
      </trkpt>
      <trkpt lat="37.054305" lon="-3.36961667">
        <ele>3283.0</ele>
        <time>2022-11-20T12:17:08.000Z</time>
      </trkpt>
      <trkpt lat="37.05429333" lon="-3.36962">
        <ele>3283.0</ele>
        <time>2022-11-20T12:17:09.000Z</time>
      </trkpt>
      <trkpt lat="37.05428167" lon="-3.36962667">
        <ele>3283.0</ele>
        <time>2022-11-20T12:17:10.000Z</time>
      </trkpt>
      <trkpt lat="37.05426833" lon="-3.36963333">
        <ele>3283.0</ele>
        <time>2022-11-20T12:17:11.000Z</time>
      </trkpt>
      <trkpt lat="37.054255" lon="-3.36964">
        <ele>3283.0</ele>
        <time>2022-11-20T12:17:12.000Z</time>
      </trkpt>
      <trkpt lat="37.05424" lon="-3.36964833">
        <ele>3283.0</ele>
        <time>2022-11-20T12:17:13.000Z</time>
      </trkpt>
      <trkpt lat="37.054225" lon="-3.369655">
        <ele>3283.0</ele>
        <time>2022-11-20T12:17:14.000Z</time>
      </trkpt>
      <trkpt lat="37.05420833" lon="-3.36966">
        <ele>3283.0</ele>
        <time>2022-11-20T12:17:15.000Z</time>
      </trkpt>
      <trkpt lat="37.054195" lon="-3.369665">
        <ele>3283.0</ele>
        <time>2022-11-20T12:17:16.000Z</time>
      </trkpt>
      <trkpt lat="37.05417833" lon="-3.36967167">
        <ele>3282.0</ele>
        <time>2022-11-20T12:17:17.000Z</time>
      </trkpt>
      <trkpt lat="37.05415833" lon="-3.36968167">
        <ele>3282.0</ele>
        <time>2022-11-20T12:17:18.000Z</time>
      </trkpt>
      <trkpt lat="37.05414" lon="-3.36969333">
        <ele>3282.0</ele>
        <time>2022-11-20T12:17:19.000Z</time>
      </trkpt>
      <trkpt lat="37.05412167" lon="-3.369705">
        <ele>3282.0</ele>
        <time>2022-11-20T12:17:20.000Z</time>
      </trkpt>
      <trkpt lat="37.054105" lon="-3.369715">
        <ele>3282.0</ele>
        <time>2022-11-20T12:17:21.000Z</time>
      </trkpt>
      <trkpt lat="37.05409333" lon="-3.36972167">
        <ele>3281.0</ele>
        <time>2022-11-20T12:17:22.000Z</time>
      </trkpt>
      <trkpt lat="37.05408" lon="-3.36972833">
        <ele>3281.0</ele>
        <time>2022-11-20T12:17:23.000Z</time>
      </trkpt>
      <trkpt lat="37.054065" lon="-3.369735">
        <ele>3281.0</ele>
        <time>2022-11-20T12:17:24.000Z</time>
      </trkpt>
      <trkpt lat="37.05405167" lon="-3.36974167">
        <ele>3281.0</ele>
        <time>2022-11-20T12:17:25.000Z</time>
      </trkpt>
      <trkpt lat="37.054035" lon="-3.36974667">
        <ele>3281.0</ele>
        <time>2022-11-20T12:17:26.000Z</time>
      </trkpt>
      <trkpt lat="37.05402167" lon="-3.36975">
        <ele>3281.0</ele>
        <time>2022-11-20T12:17:27.000Z</time>
      </trkpt>
      <trkpt lat="37.05400667" lon="-3.36975333">
        <ele>3281.0</ele>
        <time>2022-11-20T12:17:28.000Z</time>
      </trkpt>
      <trkpt lat="37.053995" lon="-3.36975333">
        <ele>3281.0</ele>
        <time>2022-11-20T12:17:29.000Z</time>
      </trkpt>
      <trkpt lat="37.05398167" lon="-3.369755">
        <ele>3281.0</ele>
        <time>2022-11-20T12:17:30.000Z</time>
      </trkpt>
      <trkpt lat="37.05396833" lon="-3.36976">
        <ele>3281.0</ele>
        <time>2022-11-20T12:17:31.000Z</time>
      </trkpt>
      <trkpt lat="37.05395333" lon="-3.36976333">
        <ele>3280.0</ele>
        <time>2022-11-20T12:17:32.000Z</time>
      </trkpt>
      <trkpt lat="37.05394167" lon="-3.36976667">
        <ele>3280.0</ele>
        <time>2022-11-20T12:17:33.000Z</time>
      </trkpt>
      <trkpt lat="37.05392833" lon="-3.36977167">
        <ele>3280.0</ele>
        <time>2022-11-20T12:17:34.000Z</time>
      </trkpt>
      <trkpt lat="37.05391667" lon="-3.36978167">
        <ele>3280.0</ele>
        <time>2022-11-20T12:17:35.000Z</time>
      </trkpt>
      <trkpt lat="37.05390167" lon="-3.36978833">
        <ele>3280.0</ele>
        <time>2022-11-20T12:17:36.000Z</time>
      </trkpt>
      <trkpt lat="37.05389" lon="-3.36979333">
        <ele>3280.0</ele>
        <time>2022-11-20T12:17:37.000Z</time>
      </trkpt>
      <trkpt lat="37.05387833" lon="-3.3698">
        <ele>3280.0</ele>
        <time>2022-11-20T12:17:38.000Z</time>
      </trkpt>
      <trkpt lat="37.053865" lon="-3.36980333">
        <ele>3280.0</ele>
        <time>2022-11-20T12:17:39.000Z</time>
      </trkpt>
      <trkpt lat="37.05385167" lon="-3.36980667">
        <ele>3280.0</ele>
        <time>2022-11-20T12:17:40.000Z</time>
      </trkpt>
      <trkpt lat="37.05383667" lon="-3.36980833">
        <ele>3279.0</ele>
        <time>2022-11-20T12:17:41.000Z</time>
      </trkpt>
      <trkpt lat="37.05382333" lon="-3.36981">
        <ele>3279.0</ele>
        <time>2022-11-20T12:17:42.000Z</time>
      </trkpt>
      <trkpt lat="37.05381" lon="-3.36981667">
        <ele>3279.0</ele>
        <time>2022-11-20T12:17:43.000Z</time>
      </trkpt>
      <trkpt lat="37.05379667" lon="-3.36982167">
        <ele>3279.0</ele>
        <time>2022-11-20T12:17:44.000Z</time>
      </trkpt>
      <trkpt lat="37.05378167" lon="-3.36982667">
        <ele>3279.0</ele>
        <time>2022-11-20T12:17:45.000Z</time>
      </trkpt>
      <trkpt lat="37.05376833" lon="-3.36983333">
        <ele>3279.0</ele>
        <time>2022-11-20T12:17:46.000Z</time>
      </trkpt>
      <trkpt lat="37.05375333" lon="-3.36983833">
        <ele>3278.0</ele>
        <time>2022-11-20T12:17:47.000Z</time>
      </trkpt>
      <trkpt lat="37.05374" lon="-3.36984333">
        <ele>3278.0</ele>
        <time>2022-11-20T12:17:48.000Z</time>
      </trkpt>
      <trkpt lat="37.05372833" lon="-3.36984667">
        <ele>3278.0</ele>
        <time>2022-11-20T12:17:49.000Z</time>
      </trkpt>
      <trkpt lat="37.05371667" lon="-3.36985333">
        <ele>3278.0</ele>
        <time>2022-11-20T12:17:50.000Z</time>
      </trkpt>
      <trkpt lat="37.05370333" lon="-3.36986167">
        <ele>3278.0</ele>
        <time>2022-11-20T12:17:51.000Z</time>
      </trkpt>
      <trkpt lat="37.05369" lon="-3.36986833">
        <ele>3278.0</ele>
        <time>2022-11-20T12:17:52.000Z</time>
      </trkpt>
      <trkpt lat="37.05367833" lon="-3.36987333">
        <ele>3278.0</ele>
        <time>2022-11-20T12:17:53.000Z</time>
      </trkpt>
      <trkpt lat="37.05367" lon="-3.36987833">
        <ele>3278.0</ele>
        <time>2022-11-20T12:17:54.000Z</time>
      </trkpt>
      <trkpt lat="37.05365833" lon="-3.36988333">
        <ele>3277.0</ele>
        <time>2022-11-20T12:17:55.000Z</time>
      </trkpt>
      <trkpt lat="37.05364667" lon="-3.36988833">
        <ele>3277.0</ele>
        <time>2022-11-20T12:17:56.000Z</time>
      </trkpt>
      <trkpt lat="37.05363167" lon="-3.36989333">
        <ele>3277.0</ele>
        <time>2022-11-20T12:17:57.000Z</time>
      </trkpt>
      <trkpt lat="37.05361333" lon="-3.36989833">
        <ele>3277.0</ele>
        <time>2022-11-20T12:17:58.000Z</time>
      </trkpt>
      <trkpt lat="37.05359167" lon="-3.36990333">
        <ele>3277.0</ele>
        <time>2022-11-20T12:17:59.000Z</time>
      </trkpt>
      <trkpt lat="37.05357333" lon="-3.36991">
        <ele>3277.0</ele>
        <time>2022-11-20T12:18:00.000Z</time>
      </trkpt>
      <trkpt lat="37.05355667" lon="-3.36992167">
        <ele>3277.0</ele>
        <time>2022-11-20T12:18:01.000Z</time>
      </trkpt>
      <trkpt lat="37.05354167" lon="-3.36993167">
        <ele>3276.0</ele>
        <time>2022-11-20T12:18:02.000Z</time>
      </trkpt>
      <trkpt lat="37.05353333" lon="-3.36993667">
        <ele>3276.0</ele>
        <time>2022-11-20T12:18:03.000Z</time>
      </trkpt>
      <trkpt lat="37.05352167" lon="-3.369945">
        <ele>3276.0</ele>
        <time>2022-11-20T12:18:04.000Z</time>
      </trkpt>
      <trkpt lat="37.05351" lon="-3.36995333">
        <ele>3276.0</ele>
        <time>2022-11-20T12:18:05.000Z</time>
      </trkpt>
      <trkpt lat="37.05349833" lon="-3.36996167">
        <ele>3276.0</ele>
        <time>2022-11-20T12:18:06.000Z</time>
      </trkpt>
      <trkpt lat="37.05348333" lon="-3.36996833">
        <ele>3276.0</ele>
        <time>2022-11-20T12:18:07.000Z</time>
      </trkpt>
      <trkpt lat="37.05347" lon="-3.36997167">
        <ele>3276.0</ele>
        <time>2022-11-20T12:18:08.000Z</time>
      </trkpt>
      <trkpt lat="37.053455" lon="-3.36997667">
        <ele>3276.0</ele>
        <time>2022-11-20T12:18:09.000Z</time>
      </trkpt>
      <trkpt lat="37.05344" lon="-3.36998">
        <ele>3276.0</ele>
        <time>2022-11-20T12:18:10.000Z</time>
      </trkpt>
      <trkpt lat="37.05342667" lon="-3.36998333">
        <ele>3276.0</ele>
        <time>2022-11-20T12:18:11.000Z</time>
      </trkpt>
      <trkpt lat="37.05341167" lon="-3.36998667">
        <ele>3276.0</ele>
        <time>2022-11-20T12:18:12.000Z</time>
      </trkpt>
      <trkpt lat="37.05339667" lon="-3.36999">
        <ele>3275.0</ele>
        <time>2022-11-20T12:18:13.000Z</time>
      </trkpt>
      <trkpt lat="37.05338333" lon="-3.36999167">
        <ele>3275.0</ele>
        <time>2022-11-20T12:18:14.000Z</time>
      </trkpt>
      <trkpt lat="37.05336833" lon="-3.369995">
        <ele>3275.0</ele>
        <time>2022-11-20T12:18:15.000Z</time>
      </trkpt>
      <trkpt lat="37.053355" lon="-3.36999833">
        <ele>3275.0</ele>
        <time>2022-11-20T12:18:16.000Z</time>
      </trkpt>
      <trkpt lat="37.05334" lon="-3.37000333">
        <ele>3275.0</ele>
        <time>2022-11-20T12:18:17.000Z</time>
      </trkpt>
      <trkpt lat="37.053325" lon="-3.37000667">
        <ele>3275.0</ele>
        <time>2022-11-20T12:18:18.000Z</time>
      </trkpt>
      <trkpt lat="37.05331333" lon="-3.37001">
        <ele>3275.0</ele>
        <time>2022-11-20T12:18:19.000Z</time>
      </trkpt>
      <trkpt lat="37.0533" lon="-3.370015">
        <ele>3275.0</ele>
        <time>2022-11-20T12:18:20.000Z</time>
      </trkpt>
      <trkpt lat="37.05329" lon="-3.37001833">
        <ele>3274.0</ele>
        <time>2022-11-20T12:18:21.000Z</time>
      </trkpt>
      <trkpt lat="37.05328" lon="-3.37002167">
        <ele>3274.0</ele>
        <time>2022-11-20T12:18:22.000Z</time>
      </trkpt>
      <trkpt lat="37.05326667" lon="-3.370025">
        <ele>3274.0</ele>
        <time>2022-11-20T12:18:23.000Z</time>
      </trkpt>
      <trkpt lat="37.05325167" lon="-3.370025">
        <ele>3274.0</ele>
        <time>2022-11-20T12:18:24.000Z</time>
      </trkpt>
      <trkpt lat="37.05323667" lon="-3.370025">
        <ele>3274.0</ele>
        <time>2022-11-20T12:18:25.000Z</time>
      </trkpt>
      <trkpt lat="37.05322167" lon="-3.37002333">
        <ele>3274.0</ele>
        <time>2022-11-20T12:18:26.000Z</time>
      </trkpt>
      <trkpt lat="37.05320833" lon="-3.37002333">
        <ele>3274.0</ele>
        <time>2022-11-20T12:18:27.000Z</time>
      </trkpt>
      <trkpt lat="37.05319333" lon="-3.37002333">
        <ele>3274.0</ele>
        <time>2022-11-20T12:18:28.000Z</time>
      </trkpt>
      <trkpt lat="37.05318" lon="-3.37002167">
        <ele>3273.0</ele>
        <time>2022-11-20T12:18:29.000Z</time>
      </trkpt>
      <trkpt lat="37.053165" lon="-3.37001833">
        <ele>3273.0</ele>
        <time>2022-11-20T12:18:30.000Z</time>
      </trkpt>
      <trkpt lat="37.05315" lon="-3.37001667">
        <ele>3273.0</ele>
        <time>2022-11-20T12:18:31.000Z</time>
      </trkpt>
      <trkpt lat="37.05313667" lon="-3.37001333">
        <ele>3273.0</ele>
        <time>2022-11-20T12:18:32.000Z</time>
      </trkpt>
      <trkpt lat="37.05312" lon="-3.37001167">
        <ele>3273.0</ele>
        <time>2022-11-20T12:18:33.000Z</time>
      </trkpt>
      <trkpt lat="37.053105" lon="-3.37001167">
        <ele>3272.0</ele>
        <time>2022-11-20T12:18:34.000Z</time>
      </trkpt>
      <trkpt lat="37.05309167" lon="-3.37001167">
        <ele>3272.0</ele>
        <time>2022-11-20T12:18:35.000Z</time>
      </trkpt>
      <trkpt lat="37.05308" lon="-3.37001167">
        <ele>3272.0</ele>
        <time>2022-11-20T12:18:36.000Z</time>
      </trkpt>
      <trkpt lat="37.053065" lon="-3.37001167">
        <ele>3272.0</ele>
        <time>2022-11-20T12:18:37.000Z</time>
      </trkpt>
      <trkpt lat="37.05305" lon="-3.37001167">
        <ele>3271.0</ele>
        <time>2022-11-20T12:18:38.000Z</time>
      </trkpt>
      <trkpt lat="37.053035" lon="-3.37000833">
        <ele>3271.0</ele>
        <time>2022-11-20T12:18:39.000Z</time>
      </trkpt>
      <trkpt lat="37.05302167" lon="-3.37000333">
        <ele>3271.0</ele>
        <time>2022-11-20T12:18:40.000Z</time>
      </trkpt>
      <trkpt lat="37.05300833" lon="-3.36999667">
        <ele>3271.0</ele>
        <time>2022-11-20T12:18:41.000Z</time>
      </trkpt>
      <trkpt lat="37.052995" lon="-3.36998833">
        <ele>3271.0</ele>
        <time>2022-11-20T12:18:42.000Z</time>
      </trkpt>
      <trkpt lat="37.05298333" lon="-3.36997833">
        <ele>3271.0</ele>
        <time>2022-11-20T12:18:43.000Z</time>
      </trkpt>
      <trkpt lat="37.05296833" lon="-3.36997167">
        <ele>3271.0</ele>
        <time>2022-11-20T12:18:44.000Z</time>
      </trkpt>
      <trkpt lat="37.05295333" lon="-3.36996667">
        <ele>3271.0</ele>
        <time>2022-11-20T12:18:45.000Z</time>
      </trkpt>
      <trkpt lat="37.05294" lon="-3.36995833">
        <ele>3271.0</ele>
        <time>2022-11-20T12:18:46.000Z</time>
      </trkpt>
      <trkpt lat="37.052925" lon="-3.36995167">
        <ele>3271.0</ele>
        <time>2022-11-20T12:18:47.000Z</time>
      </trkpt>
      <trkpt lat="37.05291167" lon="-3.369945">
        <ele>3271.0</ele>
        <time>2022-11-20T12:18:48.000Z</time>
      </trkpt>
      <trkpt lat="37.05289833" lon="-3.36993833">
        <ele>3271.0</ele>
        <time>2022-11-20T12:18:49.000Z</time>
      </trkpt>
      <trkpt lat="37.05288333" lon="-3.36993167">
        <ele>3270.0</ele>
        <time>2022-11-20T12:18:50.000Z</time>
      </trkpt>
      <trkpt lat="37.05286833" lon="-3.369925">
        <ele>3270.0</ele>
        <time>2022-11-20T12:18:51.000Z</time>
      </trkpt>
      <trkpt lat="37.052855" lon="-3.36991667">
        <ele>3270.0</ele>
        <time>2022-11-20T12:18:52.000Z</time>
      </trkpt>
      <trkpt lat="37.05284" lon="-3.36990833">
        <ele>3270.0</ele>
        <time>2022-11-20T12:18:53.000Z</time>
      </trkpt>
      <trkpt lat="37.052825" lon="-3.3699">
        <ele>3270.0</ele>
        <time>2022-11-20T12:18:54.000Z</time>
      </trkpt>
      <trkpt lat="37.05281" lon="-3.36989167">
        <ele>3270.0</ele>
        <time>2022-11-20T12:18:55.000Z</time>
      </trkpt>
      <trkpt lat="37.05279667" lon="-3.36988167">
        <ele>3270.0</ele>
        <time>2022-11-20T12:18:56.000Z</time>
      </trkpt>
      <trkpt lat="37.05278333" lon="-3.36987333">
        <ele>3270.0</ele>
        <time>2022-11-20T12:18:57.000Z</time>
      </trkpt>
      <trkpt lat="37.05277" lon="-3.36986333">
        <ele>3269.0</ele>
        <time>2022-11-20T12:18:58.000Z</time>
      </trkpt>
      <trkpt lat="37.05275667" lon="-3.369855">
        <ele>3269.0</ele>
        <time>2022-11-20T12:18:59.000Z</time>
      </trkpt>
      <trkpt lat="37.052745" lon="-3.369845">
        <ele>3269.0</ele>
        <time>2022-11-20T12:19:00.000Z</time>
      </trkpt>
      <trkpt lat="37.05273" lon="-3.36983667">
        <ele>3269.0</ele>
        <time>2022-11-20T12:19:01.000Z</time>
      </trkpt>
      <trkpt lat="37.05271667" lon="-3.369825">
        <ele>3269.0</ele>
        <time>2022-11-20T12:19:02.000Z</time>
      </trkpt>
      <trkpt lat="37.05270333" lon="-3.369815">
        <ele>3269.0</ele>
        <time>2022-11-20T12:19:03.000Z</time>
      </trkpt>
      <trkpt lat="37.05269" lon="-3.36980333">
        <ele>3269.0</ele>
        <time>2022-11-20T12:19:04.000Z</time>
      </trkpt>
      <trkpt lat="37.05267667" lon="-3.36979333">
        <ele>3269.0</ele>
        <time>2022-11-20T12:19:05.000Z</time>
      </trkpt>
      <trkpt lat="37.052665" lon="-3.36978333">
        <ele>3269.0</ele>
        <time>2022-11-20T12:19:06.000Z</time>
      </trkpt>
      <trkpt lat="37.052655" lon="-3.369775">
        <ele>3269.0</ele>
        <time>2022-11-20T12:19:07.000Z</time>
      </trkpt>
      <trkpt lat="37.05264333" lon="-3.36976833">
        <ele>3269.0</ele>
        <time>2022-11-20T12:19:08.000Z</time>
      </trkpt>
      <trkpt lat="37.05263333" lon="-3.36976167">
        <ele>3268.0</ele>
        <time>2022-11-20T12:19:09.000Z</time>
      </trkpt>
      <trkpt lat="37.05262167" lon="-3.36975667">
        <ele>3268.0</ele>
        <time>2022-11-20T12:19:10.000Z</time>
      </trkpt>
      <trkpt lat="37.05261333" lon="-3.36975167">
        <ele>3268.0</ele>
        <time>2022-11-20T12:19:11.000Z</time>
      </trkpt>
      <trkpt lat="37.05260167" lon="-3.36974167">
        <ele>3268.0</ele>
        <time>2022-11-20T12:19:12.000Z</time>
      </trkpt>
      <trkpt lat="37.05259" lon="-3.369735">
        <ele>3268.0</ele>
        <time>2022-11-20T12:19:13.000Z</time>
      </trkpt>
      <trkpt lat="37.05257833" lon="-3.369735">
        <ele>3268.0</ele>
        <time>2022-11-20T12:19:14.000Z</time>
      </trkpt>
      <trkpt lat="37.052565" lon="-3.36973833">
        <ele>3268.0</ele>
        <time>2022-11-20T12:19:15.000Z</time>
      </trkpt>
      <trkpt lat="37.05255167" lon="-3.36974">
        <ele>3268.0</ele>
        <time>2022-11-20T12:19:16.000Z</time>
      </trkpt>
      <trkpt lat="37.052535" lon="-3.36973833">
        <ele>3268.0</ele>
        <time>2022-11-20T12:19:17.000Z</time>
      </trkpt>
      <trkpt lat="37.05252" lon="-3.36973333">
        <ele>3267.0</ele>
        <time>2022-11-20T12:19:18.000Z</time>
      </trkpt>
      <trkpt lat="37.05250333" lon="-3.36972833">
        <ele>3267.0</ele>
        <time>2022-11-20T12:19:19.000Z</time>
      </trkpt>
      <trkpt lat="37.05248833" lon="-3.36972333">
        <ele>3267.0</ele>
        <time>2022-11-20T12:19:20.000Z</time>
      </trkpt>
      <trkpt lat="37.052475" lon="-3.36972">
        <ele>3267.0</ele>
        <time>2022-11-20T12:19:21.000Z</time>
      </trkpt>
      <trkpt lat="37.05246" lon="-3.369715">
        <ele>3267.0</ele>
        <time>2022-11-20T12:19:22.000Z</time>
      </trkpt>
      <trkpt lat="37.05244167" lon="-3.36971">
        <ele>3266.0</ele>
        <time>2022-11-20T12:19:23.000Z</time>
      </trkpt>
      <trkpt lat="37.05242667" lon="-3.36970833">
        <ele>3266.0</ele>
        <time>2022-11-20T12:19:24.000Z</time>
      </trkpt>
      <trkpt lat="37.05241167" lon="-3.36970667">
        <ele>3266.0</ele>
        <time>2022-11-20T12:19:25.000Z</time>
      </trkpt>
      <trkpt lat="37.052395" lon="-3.369705">
        <ele>3266.0</ele>
        <time>2022-11-20T12:19:26.000Z</time>
      </trkpt>
      <trkpt lat="37.05238" lon="-3.36970667">
        <ele>3266.0</ele>
        <time>2022-11-20T12:19:27.000Z</time>
      </trkpt>
      <trkpt lat="37.052365" lon="-3.36970667">
        <ele>3266.0</ele>
        <time>2022-11-20T12:19:28.000Z</time>
      </trkpt>
      <trkpt lat="37.05234833" lon="-3.36971">
        <ele>3266.0</ele>
        <time>2022-11-20T12:19:29.000Z</time>
      </trkpt>
      <trkpt lat="37.05233167" lon="-3.36971">
        <ele>3266.0</ele>
        <time>2022-11-20T12:19:30.000Z</time>
      </trkpt>
      <trkpt lat="37.05231833" lon="-3.36970833">
        <ele>3266.0</ele>
        <time>2022-11-20T12:19:31.000Z</time>
      </trkpt>
      <trkpt lat="37.05230333" lon="-3.36970833">
        <ele>3266.0</ele>
        <time>2022-11-20T12:19:32.000Z</time>
      </trkpt>
      <trkpt lat="37.05228833" lon="-3.36971">
        <ele>3265.0</ele>
        <time>2022-11-20T12:19:33.000Z</time>
      </trkpt>
      <trkpt lat="37.052275" lon="-3.36971333">
        <ele>3265.0</ele>
        <time>2022-11-20T12:19:34.000Z</time>
      </trkpt>
      <trkpt lat="37.05225833" lon="-3.36971667">
        <ele>3265.0</ele>
        <time>2022-11-20T12:19:35.000Z</time>
      </trkpt>
      <trkpt lat="37.05224333" lon="-3.36972">
        <ele>3265.0</ele>
        <time>2022-11-20T12:19:36.000Z</time>
      </trkpt>
      <trkpt lat="37.05222833" lon="-3.36972333">
        <ele>3265.0</ele>
        <time>2022-11-20T12:19:37.000Z</time>
      </trkpt>
      <trkpt lat="37.052215" lon="-3.36972667">
        <ele>3265.0</ele>
        <time>2022-11-20T12:19:38.000Z</time>
      </trkpt>
      <trkpt lat="37.05220333" lon="-3.36972833">
        <ele>3264.0</ele>
        <time>2022-11-20T12:19:39.000Z</time>
      </trkpt>
      <trkpt lat="37.05219167" lon="-3.36973167">
        <ele>3264.0</ele>
        <time>2022-11-20T12:19:40.000Z</time>
      </trkpt>
      <trkpt lat="37.05218" lon="-3.36973333">
        <ele>3264.0</ele>
        <time>2022-11-20T12:19:41.000Z</time>
      </trkpt>
      <trkpt lat="37.05217" lon="-3.36973333">
        <ele>3264.0</ele>
        <time>2022-11-20T12:19:42.000Z</time>
      </trkpt>
      <trkpt lat="37.05216" lon="-3.36973167">
        <ele>3264.0</ele>
        <time>2022-11-20T12:19:43.000Z</time>
      </trkpt>
      <trkpt lat="37.05214833" lon="-3.36973">
        <ele>3264.0</ele>
        <time>2022-11-20T12:19:44.000Z</time>
      </trkpt>
      <trkpt lat="37.05213667" lon="-3.36972833">
        <ele>3263.0</ele>
        <time>2022-11-20T12:19:45.000Z</time>
      </trkpt>
      <trkpt lat="37.05212833" lon="-3.36973">
        <ele>3263.0</ele>
        <time>2022-11-20T12:19:46.000Z</time>
      </trkpt>
      <trkpt lat="37.05211833" lon="-3.36973333">
        <ele>3263.0</ele>
        <time>2022-11-20T12:19:47.000Z</time>
      </trkpt>
      <trkpt lat="37.05211" lon="-3.369735">
        <ele>3263.0</ele>
        <time>2022-11-20T12:19:48.000Z</time>
      </trkpt>
      <trkpt lat="37.05210167" lon="-3.36973667">
        <ele>3263.0</ele>
        <time>2022-11-20T12:19:49.000Z</time>
      </trkpt>
      <trkpt lat="37.052095" lon="-3.36974">
        <ele>3263.0</ele>
        <time>2022-11-20T12:19:50.000Z</time>
      </trkpt>
      <trkpt lat="37.05208833" lon="-3.36974667">
        <ele>3263.0</ele>
        <time>2022-11-20T12:19:51.000Z</time>
      </trkpt>
      <trkpt lat="37.05208333" lon="-3.36975167">
        <ele>3263.0</ele>
        <time>2022-11-20T12:19:52.000Z</time>
      </trkpt>
      <trkpt lat="37.052075" lon="-3.36976167">
        <ele>3263.0</ele>
        <time>2022-11-20T12:19:53.000Z</time>
      </trkpt>
      <trkpt lat="37.05206667" lon="-3.36977">
        <ele>3263.0</ele>
        <time>2022-11-20T12:19:54.000Z</time>
      </trkpt>
      <trkpt lat="37.05205833" lon="-3.36977833">
        <ele>3262.0</ele>
        <time>2022-11-20T12:19:55.000Z</time>
      </trkpt>
      <trkpt lat="37.05205167" lon="-3.369785">
        <ele>3262.0</ele>
        <time>2022-11-20T12:19:56.000Z</time>
      </trkpt>
      <trkpt lat="37.05204667" lon="-3.36979">
        <ele>3262.0</ele>
        <time>2022-11-20T12:19:57.000Z</time>
      </trkpt>
      <trkpt lat="37.05204167" lon="-3.36979333">
        <ele>3262.0</ele>
        <time>2022-11-20T12:19:58.000Z</time>
      </trkpt>
      <trkpt lat="37.052035" lon="-3.369795">
        <ele>3262.0</ele>
        <time>2022-11-20T12:19:59.000Z</time>
      </trkpt>
      <trkpt lat="37.05202667" lon="-3.36980333">
        <ele>3262.0</ele>
        <time>2022-11-20T12:20:00.000Z</time>
      </trkpt>
      <trkpt lat="37.052015" lon="-3.36980667">
        <ele>3262.0</ele>
        <time>2022-11-20T12:20:01.000Z</time>
      </trkpt>
      <trkpt lat="37.05200333" lon="-3.36981">
        <ele>3261.0</ele>
        <time>2022-11-20T12:20:02.000Z</time>
      </trkpt>
      <trkpt lat="37.05199667" lon="-3.36981667">
        <ele>3261.0</ele>
        <time>2022-11-20T12:20:03.000Z</time>
      </trkpt>
      <trkpt lat="37.05199" lon="-3.369825">
        <ele>3261.0</ele>
        <time>2022-11-20T12:20:04.000Z</time>
      </trkpt>
      <trkpt lat="37.051985" lon="-3.369835">
        <ele>3261.0</ele>
        <time>2022-11-20T12:20:05.000Z</time>
      </trkpt>
      <trkpt lat="37.05198333" lon="-3.36984333">
        <ele>3261.0</ele>
        <time>2022-11-20T12:20:06.000Z</time>
      </trkpt>
      <trkpt lat="37.051985" lon="-3.36985333">
        <ele>3261.0</ele>
        <time>2022-11-20T12:20:07.000Z</time>
      </trkpt>
      <trkpt lat="37.05199167" lon="-3.36986333">
        <ele>3261.0</ele>
        <time>2022-11-20T12:20:08.000Z</time>
      </trkpt>
      <trkpt lat="37.05199167" lon="-3.36987667">
        <ele>3261.0</ele>
        <time>2022-11-20T12:20:09.000Z</time>
      </trkpt>
      <trkpt lat="37.05199167" lon="-3.36989">
        <ele>3261.0</ele>
        <time>2022-11-20T12:20:10.000Z</time>
      </trkpt>
      <trkpt lat="37.051995" lon="-3.36990333">
        <ele>3261.0</ele>
        <time>2022-11-20T12:20:11.000Z</time>
      </trkpt>
      <trkpt lat="37.05199833" lon="-3.369915">
        <ele>3261.0</ele>
        <time>2022-11-20T12:20:12.000Z</time>
      </trkpt>
      <trkpt lat="37.052005" lon="-3.36992333">
        <ele>3260.0</ele>
        <time>2022-11-20T12:20:13.000Z</time>
      </trkpt>
      <trkpt lat="37.05201333" lon="-3.36993333">
        <ele>3260.0</ele>
        <time>2022-11-20T12:20:14.000Z</time>
      </trkpt>
      <trkpt lat="37.05202167" lon="-3.369945">
        <ele>3260.0</ele>
        <time>2022-11-20T12:20:15.000Z</time>
      </trkpt>
      <trkpt lat="37.05202667" lon="-3.36995667">
        <ele>3260.0</ele>
        <time>2022-11-20T12:20:16.000Z</time>
      </trkpt>
      <trkpt lat="37.05203167" lon="-3.36997">
        <ele>3260.0</ele>
        <time>2022-11-20T12:20:17.000Z</time>
      </trkpt>
      <trkpt lat="37.05203667" lon="-3.36997833">
        <ele>3260.0</ele>
        <time>2022-11-20T12:20:18.000Z</time>
      </trkpt>
      <trkpt lat="37.05204333" lon="-3.36999">
        <ele>3260.0</ele>
        <time>2022-11-20T12:20:19.000Z</time>
      </trkpt>
      <trkpt lat="37.05205" lon="-3.37000333">
        <ele>3260.0</ele>
        <time>2022-11-20T12:20:20.000Z</time>
      </trkpt>
      <trkpt lat="37.05205667" lon="-3.370015">
        <ele>3259.0</ele>
        <time>2022-11-20T12:20:21.000Z</time>
      </trkpt>
      <trkpt lat="37.05206667" lon="-3.37003">
        <ele>3259.0</ele>
        <time>2022-11-20T12:20:22.000Z</time>
      </trkpt>
      <trkpt lat="37.052075" lon="-3.37004167">
        <ele>3259.0</ele>
        <time>2022-11-20T12:20:23.000Z</time>
      </trkpt>
      <trkpt lat="37.05208667" lon="-3.37005333">
        <ele>3259.0</ele>
        <time>2022-11-20T12:20:24.000Z</time>
      </trkpt>
      <trkpt lat="37.05209667" lon="-3.370065">
        <ele>3259.0</ele>
        <time>2022-11-20T12:20:25.000Z</time>
      </trkpt>
      <trkpt lat="37.05210667" lon="-3.37007667">
        <ele>3259.0</ele>
        <time>2022-11-20T12:20:26.000Z</time>
      </trkpt>
      <trkpt lat="37.05211833" lon="-3.37009">
        <ele>3259.0</ele>
        <time>2022-11-20T12:20:27.000Z</time>
      </trkpt>
      <trkpt lat="37.05212833" lon="-3.3701">
        <ele>3258.0</ele>
        <time>2022-11-20T12:20:28.000Z</time>
      </trkpt>
      <trkpt lat="37.05214" lon="-3.37010833">
        <ele>3258.0</ele>
        <time>2022-11-20T12:20:29.000Z</time>
      </trkpt>
      <trkpt lat="37.05215333" lon="-3.37011167">
        <ele>3258.0</ele>
        <time>2022-11-20T12:20:30.000Z</time>
      </trkpt>
      <trkpt lat="37.052165" lon="-3.37011833">
        <ele>3258.0</ele>
        <time>2022-11-20T12:20:31.000Z</time>
      </trkpt>
      <trkpt lat="37.05217833" lon="-3.370125">
        <ele>3258.0</ele>
        <time>2022-11-20T12:20:32.000Z</time>
      </trkpt>
      <trkpt lat="37.05219" lon="-3.370135">
        <ele>3258.0</ele>
        <time>2022-11-20T12:20:33.000Z</time>
      </trkpt>
      <trkpt lat="37.05220167" lon="-3.37014333">
        <ele>3258.0</ele>
        <time>2022-11-20T12:20:34.000Z</time>
      </trkpt>
      <trkpt lat="37.05221333" lon="-3.37015333">
        <ele>3258.0</ele>
        <time>2022-11-20T12:20:35.000Z</time>
      </trkpt>
      <trkpt lat="37.05222333" lon="-3.37016167">
        <ele>3258.0</ele>
        <time>2022-11-20T12:20:36.000Z</time>
      </trkpt>
      <trkpt lat="37.052235" lon="-3.37017167">
        <ele>3258.0</ele>
        <time>2022-11-20T12:20:37.000Z</time>
      </trkpt>
      <trkpt lat="37.05224667" lon="-3.37018333">
        <ele>3258.0</ele>
        <time>2022-11-20T12:20:38.000Z</time>
      </trkpt>
      <trkpt lat="37.05225833" lon="-3.37019333">
        <ele>3258.0</ele>
        <time>2022-11-20T12:20:39.000Z</time>
      </trkpt>
      <trkpt lat="37.05227167" lon="-3.370205">
        <ele>3258.0</ele>
        <time>2022-11-20T12:20:40.000Z</time>
      </trkpt>
      <trkpt lat="37.05228333" lon="-3.370215">
        <ele>3258.0</ele>
        <time>2022-11-20T12:20:41.000Z</time>
      </trkpt>
      <trkpt lat="37.052295" lon="-3.37022333">
        <ele>3258.0</ele>
        <time>2022-11-20T12:20:42.000Z</time>
      </trkpt>
      <trkpt lat="37.05230667" lon="-3.37023167">
        <ele>3257.0</ele>
        <time>2022-11-20T12:20:43.000Z</time>
      </trkpt>
      <trkpt lat="37.05231833" lon="-3.37024167">
        <ele>3257.0</ele>
        <time>2022-11-20T12:20:44.000Z</time>
      </trkpt>
      <trkpt lat="37.05232667" lon="-3.37025667">
        <ele>3257.0</ele>
        <time>2022-11-20T12:20:45.000Z</time>
      </trkpt>
      <trkpt lat="37.052335" lon="-3.37027167">
        <ele>3257.0</ele>
        <time>2022-11-20T12:20:46.000Z</time>
      </trkpt>
      <trkpt lat="37.052345" lon="-3.370285">
        <ele>3257.0</ele>
        <time>2022-11-20T12:20:47.000Z</time>
      </trkpt>
      <trkpt lat="37.052355" lon="-3.37029833">
        <ele>3257.0</ele>
        <time>2022-11-20T12:20:48.000Z</time>
      </trkpt>
      <trkpt lat="37.05236333" lon="-3.37031167">
        <ele>3257.0</ele>
        <time>2022-11-20T12:20:49.000Z</time>
      </trkpt>
      <trkpt lat="37.05237333" lon="-3.37032667">
        <ele>3256.0</ele>
        <time>2022-11-20T12:20:50.000Z</time>
      </trkpt>
      <trkpt lat="37.05237667" lon="-3.370345">
        <ele>3256.0</ele>
        <time>2022-11-20T12:20:51.000Z</time>
      </trkpt>
      <trkpt lat="37.05237667" lon="-3.37036333">
        <ele>3256.0</ele>
        <time>2022-11-20T12:20:52.000Z</time>
      </trkpt>
      <trkpt lat="37.05237167" lon="-3.37038">
        <ele>3256.0</ele>
        <time>2022-11-20T12:20:53.000Z</time>
      </trkpt>
      <trkpt lat="37.05236833" lon="-3.37039667">
        <ele>3256.0</ele>
        <time>2022-11-20T12:20:54.000Z</time>
      </trkpt>
      <trkpt lat="37.05236333" lon="-3.37041167">
        <ele>3255.0</ele>
        <time>2022-11-20T12:20:55.000Z</time>
      </trkpt>
      <trkpt lat="37.05235667" lon="-3.37042833">
        <ele>3255.0</ele>
        <time>2022-11-20T12:20:56.000Z</time>
      </trkpt>
      <trkpt lat="37.05234833" lon="-3.370445">
        <ele>3255.0</ele>
        <time>2022-11-20T12:20:57.000Z</time>
      </trkpt>
      <trkpt lat="37.05234" lon="-3.37046">
        <ele>3255.0</ele>
        <time>2022-11-20T12:20:58.000Z</time>
      </trkpt>
      <trkpt lat="37.05233167" lon="-3.370475">
        <ele>3255.0</ele>
        <time>2022-11-20T12:20:59.000Z</time>
      </trkpt>
      <trkpt lat="37.05232" lon="-3.37048833">
        <ele>3255.0</ele>
        <time>2022-11-20T12:21:00.000Z</time>
      </trkpt>
      <trkpt lat="37.05230667" lon="-3.37049833">
        <ele>3255.0</ele>
        <time>2022-11-20T12:21:01.000Z</time>
      </trkpt>
      <trkpt lat="37.05229333" lon="-3.37051">
        <ele>3255.0</ele>
        <time>2022-11-20T12:21:02.000Z</time>
      </trkpt>
      <trkpt lat="37.05228333" lon="-3.37052">
        <ele>3255.0</ele>
        <time>2022-11-20T12:21:03.000Z</time>
      </trkpt>
      <trkpt lat="37.05226833" lon="-3.37053">
        <ele>3254.0</ele>
        <time>2022-11-20T12:21:04.000Z</time>
      </trkpt>
      <trkpt lat="37.052255" lon="-3.37053667">
        <ele>3254.0</ele>
        <time>2022-11-20T12:21:05.000Z</time>
      </trkpt>
      <trkpt lat="37.05223833" lon="-3.37054167">
        <ele>3254.0</ele>
        <time>2022-11-20T12:21:06.000Z</time>
      </trkpt>
      <trkpt lat="37.05222167" lon="-3.37054833">
        <ele>3254.0</ele>
        <time>2022-11-20T12:21:07.000Z</time>
      </trkpt>
      <trkpt lat="37.05220667" lon="-3.37055333">
        <ele>3254.0</ele>
        <time>2022-11-20T12:21:08.000Z</time>
      </trkpt>
      <trkpt lat="37.05219" lon="-3.37056">
        <ele>3254.0</ele>
        <time>2022-11-20T12:21:09.000Z</time>
      </trkpt>
      <trkpt lat="37.052175" lon="-3.37056667">
        <ele>3254.0</ele>
        <time>2022-11-20T12:21:10.000Z</time>
      </trkpt>
      <trkpt lat="37.05216" lon="-3.37057333">
        <ele>3254.0</ele>
        <time>2022-11-20T12:21:11.000Z</time>
      </trkpt>
      <trkpt lat="37.05214333" lon="-3.37058">
        <ele>3253.0</ele>
        <time>2022-11-20T12:21:12.000Z</time>
      </trkpt>
      <trkpt lat="37.05212833" lon="-3.37058667">
        <ele>3253.0</ele>
        <time>2022-11-20T12:21:13.000Z</time>
      </trkpt>
      <trkpt lat="37.05211167" lon="-3.37059333">
        <ele>3253.0</ele>
        <time>2022-11-20T12:21:14.000Z</time>
      </trkpt>
      <trkpt lat="37.05209667" lon="-3.37060167">
        <ele>3253.0</ele>
        <time>2022-11-20T12:21:15.000Z</time>
      </trkpt>
      <trkpt lat="37.05208" lon="-3.37060833">
        <ele>3253.0</ele>
        <time>2022-11-20T12:21:16.000Z</time>
      </trkpt>
      <trkpt lat="37.05206333" lon="-3.37061333">
        <ele>3253.0</ele>
        <time>2022-11-20T12:21:17.000Z</time>
      </trkpt>
      <trkpt lat="37.05204667" lon="-3.37062">
        <ele>3253.0</ele>
        <time>2022-11-20T12:21:18.000Z</time>
      </trkpt>
      <trkpt lat="37.05203" lon="-3.370625">
        <ele>3253.0</ele>
        <time>2022-11-20T12:21:19.000Z</time>
      </trkpt>
      <trkpt lat="37.052015" lon="-3.37063">
        <ele>3252.0</ele>
        <time>2022-11-20T12:21:20.000Z</time>
      </trkpt>
      <trkpt lat="37.05199833" lon="-3.37063333">
        <ele>3252.0</ele>
        <time>2022-11-20T12:21:21.000Z</time>
      </trkpt>
      <trkpt lat="37.05198333" lon="-3.37064">
        <ele>3252.0</ele>
        <time>2022-11-20T12:21:22.000Z</time>
      </trkpt>
      <trkpt lat="37.05196667" lon="-3.37064667">
        <ele>3252.0</ele>
        <time>2022-11-20T12:21:23.000Z</time>
      </trkpt>
      <trkpt lat="37.05195167" lon="-3.370655">
        <ele>3252.0</ele>
        <time>2022-11-20T12:21:24.000Z</time>
      </trkpt>
      <trkpt lat="37.05193667" lon="-3.37066167">
        <ele>3251.0</ele>
        <time>2022-11-20T12:21:25.000Z</time>
      </trkpt>
      <trkpt lat="37.05192" lon="-3.37066833">
        <ele>3251.0</ele>
        <time>2022-11-20T12:21:26.000Z</time>
      </trkpt>
      <trkpt lat="37.051905" lon="-3.370675">
        <ele>3251.0</ele>
        <time>2022-11-20T12:21:27.000Z</time>
      </trkpt>
      <trkpt lat="37.05189167" lon="-3.37068167">
        <ele>3251.0</ele>
        <time>2022-11-20T12:21:28.000Z</time>
      </trkpt>
      <trkpt lat="37.05187667" lon="-3.37069">
        <ele>3251.0</ele>
        <time>2022-11-20T12:21:29.000Z</time>
      </trkpt>
      <trkpt lat="37.05186167" lon="-3.37069667">
        <ele>3251.0</ele>
        <time>2022-11-20T12:21:30.000Z</time>
      </trkpt>
      <trkpt lat="37.05184667" lon="-3.37070333">
        <ele>3250.0</ele>
        <time>2022-11-20T12:21:31.000Z</time>
      </trkpt>
      <trkpt lat="37.05183167" lon="-3.37071167">
        <ele>3250.0</ele>
        <time>2022-11-20T12:21:32.000Z</time>
      </trkpt>
      <trkpt lat="37.05181667" lon="-3.37072">
        <ele>3250.0</ele>
        <time>2022-11-20T12:21:33.000Z</time>
      </trkpt>
      <trkpt lat="37.05180167" lon="-3.37072667">
        <ele>3250.0</ele>
        <time>2022-11-20T12:21:34.000Z</time>
      </trkpt>
      <trkpt lat="37.05178667" lon="-3.37073167">
        <ele>3250.0</ele>
        <time>2022-11-20T12:21:35.000Z</time>
      </trkpt>
      <trkpt lat="37.05177333" lon="-3.37073833">
        <ele>3250.0</ele>
        <time>2022-11-20T12:21:36.000Z</time>
      </trkpt>
      <trkpt lat="37.05175833" lon="-3.37074833">
        <ele>3250.0</ele>
        <time>2022-11-20T12:21:37.000Z</time>
      </trkpt>
      <trkpt lat="37.051745" lon="-3.37075833">
        <ele>3249.0</ele>
        <time>2022-11-20T12:21:38.000Z</time>
      </trkpt>
      <trkpt lat="37.05173167" lon="-3.37076833">
        <ele>3249.0</ele>
        <time>2022-11-20T12:21:39.000Z</time>
      </trkpt>
      <trkpt lat="37.05171667" lon="-3.37077833">
        <ele>3249.0</ele>
        <time>2022-11-20T12:21:40.000Z</time>
      </trkpt>
      <trkpt lat="37.0517" lon="-3.37078333">
        <ele>3249.0</ele>
        <time>2022-11-20T12:21:41.000Z</time>
      </trkpt>
      <trkpt lat="37.05168333" lon="-3.37078833">
        <ele>3249.0</ele>
        <time>2022-11-20T12:21:42.000Z</time>
      </trkpt>
      <trkpt lat="37.05166833" lon="-3.37079333">
        <ele>3249.0</ele>
        <time>2022-11-20T12:21:43.000Z</time>
      </trkpt>
      <trkpt lat="37.05165333" lon="-3.37079833">
        <ele>3249.0</ele>
        <time>2022-11-20T12:21:44.000Z</time>
      </trkpt>
      <trkpt lat="37.05163833" lon="-3.370805">
        <ele>3249.0</ele>
        <time>2022-11-20T12:21:45.000Z</time>
      </trkpt>
      <trkpt lat="37.05162333" lon="-3.37081167">
        <ele>3249.0</ele>
        <time>2022-11-20T12:21:46.000Z</time>
      </trkpt>
      <trkpt lat="37.05160667" lon="-3.37081667">
        <ele>3249.0</ele>
        <time>2022-11-20T12:21:47.000Z</time>
      </trkpt>
      <trkpt lat="37.05159" lon="-3.37082333">
        <ele>3248.0</ele>
        <time>2022-11-20T12:21:48.000Z</time>
      </trkpt>
      <trkpt lat="37.05157333" lon="-3.37082833">
        <ele>3248.0</ele>
        <time>2022-11-20T12:21:49.000Z</time>
      </trkpt>
      <trkpt lat="37.05155833" lon="-3.37083333">
        <ele>3248.0</ele>
        <time>2022-11-20T12:21:50.000Z</time>
      </trkpt>
      <trkpt lat="37.05154333" lon="-3.37083833">
        <ele>3248.0</ele>
        <time>2022-11-20T12:21:51.000Z</time>
      </trkpt>
      <trkpt lat="37.05152667" lon="-3.37084333">
        <ele>3248.0</ele>
        <time>2022-11-20T12:21:52.000Z</time>
      </trkpt>
      <trkpt lat="37.05151167" lon="-3.37084833">
        <ele>3248.0</ele>
        <time>2022-11-20T12:21:53.000Z</time>
      </trkpt>
      <trkpt lat="37.051495" lon="-3.37085167">
        <ele>3248.0</ele>
        <time>2022-11-20T12:21:54.000Z</time>
      </trkpt>
      <trkpt lat="37.05148" lon="-3.37085333">
        <ele>3248.0</ele>
        <time>2022-11-20T12:21:55.000Z</time>
      </trkpt>
      <trkpt lat="37.05146333" lon="-3.37085333">
        <ele>3248.0</ele>
        <time>2022-11-20T12:21:56.000Z</time>
      </trkpt>
      <trkpt lat="37.05144833" lon="-3.37085333">
        <ele>3247.0</ele>
        <time>2022-11-20T12:21:57.000Z</time>
      </trkpt>
      <trkpt lat="37.05143333" lon="-3.370855">
        <ele>3247.0</ele>
        <time>2022-11-20T12:21:58.000Z</time>
      </trkpt>
      <trkpt lat="37.05141833" lon="-3.37085667">
        <ele>3247.0</ele>
        <time>2022-11-20T12:21:59.000Z</time>
      </trkpt>
      <trkpt lat="37.05140333" lon="-3.37085833">
        <ele>3247.0</ele>
        <time>2022-11-20T12:22:00.000Z</time>
      </trkpt>
      <trkpt lat="37.05139" lon="-3.37086">
        <ele>3247.0</ele>
        <time>2022-11-20T12:22:01.000Z</time>
      </trkpt>
      <trkpt lat="37.05137833" lon="-3.37086167">
        <ele>3247.0</ele>
        <time>2022-11-20T12:22:02.000Z</time>
      </trkpt>
      <trkpt lat="37.05136333" lon="-3.370865">
        <ele>3247.0</ele>
        <time>2022-11-20T12:22:03.000Z</time>
      </trkpt>
      <trkpt lat="37.05135" lon="-3.37086833">
        <ele>3247.0</ele>
        <time>2022-11-20T12:22:04.000Z</time>
      </trkpt>
      <trkpt lat="37.051335" lon="-3.37087167">
        <ele>3247.0</ele>
        <time>2022-11-20T12:22:05.000Z</time>
      </trkpt>
      <trkpt lat="37.05132333" lon="-3.370875">
        <ele>3247.0</ele>
        <time>2022-11-20T12:22:06.000Z</time>
      </trkpt>
      <trkpt lat="37.05131167" lon="-3.37087833">
        <ele>3247.0</ele>
        <time>2022-11-20T12:22:07.000Z</time>
      </trkpt>
      <trkpt lat="37.05130167" lon="-3.37087833">
        <ele>3247.0</ele>
        <time>2022-11-20T12:22:08.000Z</time>
      </trkpt>
      <trkpt lat="37.05129" lon="-3.37087333">
        <ele>3247.0</ele>
        <time>2022-11-20T12:22:09.000Z</time>
      </trkpt>
      <trkpt lat="37.05128" lon="-3.370865">
        <ele>3246.0</ele>
        <time>2022-11-20T12:22:10.000Z</time>
      </trkpt>
      <trkpt lat="37.05126833" lon="-3.37085667">
        <ele>3246.0</ele>
        <time>2022-11-20T12:22:11.000Z</time>
      </trkpt>
      <trkpt lat="37.051255" lon="-3.37084833">
        <ele>3246.0</ele>
        <time>2022-11-20T12:22:12.000Z</time>
      </trkpt>
      <trkpt lat="37.051245" lon="-3.37084333">
        <ele>3246.0</ele>
        <time>2022-11-20T12:22:13.000Z</time>
      </trkpt>
      <trkpt lat="37.05123667" lon="-3.37083333">
        <ele>3246.0</ele>
        <time>2022-11-20T12:22:14.000Z</time>
      </trkpt>
      <trkpt lat="37.05122667" lon="-3.37082667">
        <ele>3246.0</ele>
        <time>2022-11-20T12:22:15.000Z</time>
      </trkpt>
      <trkpt lat="37.05121667" lon="-3.37081667">
        <ele>3246.0</ele>
        <time>2022-11-20T12:22:16.000Z</time>
      </trkpt>
      <trkpt lat="37.05120833" lon="-3.37080667">
        <ele>3246.0</ele>
        <time>2022-11-20T12:22:17.000Z</time>
      </trkpt>
      <trkpt lat="37.05120167" lon="-3.37079833">
        <ele>3246.0</ele>
        <time>2022-11-20T12:22:18.000Z</time>
      </trkpt>
      <trkpt lat="37.051195" lon="-3.370785">
        <ele>3246.0</ele>
        <time>2022-11-20T12:22:19.000Z</time>
      </trkpt>
      <trkpt lat="37.05119" lon="-3.37077167">
        <ele>3246.0</ele>
        <time>2022-11-20T12:22:20.000Z</time>
      </trkpt>
      <trkpt lat="37.051185" lon="-3.37075833">
        <ele>3246.0</ele>
        <time>2022-11-20T12:22:21.000Z</time>
      </trkpt>
      <trkpt lat="37.05117833" lon="-3.370745">
        <ele>3246.0</ele>
        <time>2022-11-20T12:22:22.000Z</time>
      </trkpt>
      <trkpt lat="37.05117167" lon="-3.37073333">
        <ele>3246.0</ele>
        <time>2022-11-20T12:22:23.000Z</time>
      </trkpt>
      <trkpt lat="37.05116667" lon="-3.37072">
        <ele>3246.0</ele>
        <time>2022-11-20T12:22:24.000Z</time>
      </trkpt>
      <trkpt lat="37.05116167" lon="-3.37071">
        <ele>3246.0</ele>
        <time>2022-11-20T12:22:25.000Z</time>
      </trkpt>
      <trkpt lat="37.051155" lon="-3.37070167">
        <ele>3246.0</ele>
        <time>2022-11-20T12:22:26.000Z</time>
      </trkpt>
      <trkpt lat="37.05114667" lon="-3.37069333">
        <ele>3246.0</ele>
        <time>2022-11-20T12:22:27.000Z</time>
      </trkpt>
      <trkpt lat="37.05114" lon="-3.370685">
        <ele>3246.0</ele>
        <time>2022-11-20T12:22:28.000Z</time>
      </trkpt>
      <trkpt lat="37.05113333" lon="-3.37068">
        <ele>3246.0</ele>
        <time>2022-11-20T12:22:29.000Z</time>
      </trkpt>
      <trkpt lat="37.05112833" lon="-3.37068">
        <ele>3246.0</ele>
        <time>2022-11-20T12:22:30.000Z</time>
      </trkpt>
      <trkpt lat="37.05112333" lon="-3.37068">
        <ele>3245.0</ele>
        <time>2022-11-20T12:22:31.000Z</time>
      </trkpt>
      <trkpt lat="37.05111833" lon="-3.37068">
        <ele>3245.0</ele>
        <time>2022-11-20T12:22:32.000Z</time>
      </trkpt>
      <trkpt lat="37.051115" lon="-3.37068167">
        <ele>3245.0</ele>
        <time>2022-11-20T12:22:33.000Z</time>
      </trkpt>
      <trkpt lat="37.05110667" lon="-3.37068667">
        <ele>3245.0</ele>
        <time>2022-11-20T12:22:34.000Z</time>
      </trkpt>
      <trkpt lat="37.05110167" lon="-3.370695">
        <ele>3245.0</ele>
        <time>2022-11-20T12:22:35.000Z</time>
      </trkpt>
      <trkpt lat="37.05109333" lon="-3.370705">
        <ele>3245.0</ele>
        <time>2022-11-20T12:22:36.000Z</time>
      </trkpt>
      <trkpt lat="37.051085" lon="-3.37071333">
        <ele>3245.0</ele>
        <time>2022-11-20T12:22:37.000Z</time>
      </trkpt>
      <trkpt lat="37.05107833" lon="-3.37071833">
        <ele>3245.0</ele>
        <time>2022-11-20T12:22:38.000Z</time>
      </trkpt>
      <trkpt lat="37.05106833" lon="-3.37071833">
        <ele>3245.0</ele>
        <time>2022-11-20T12:22:39.000Z</time>
      </trkpt>
      <trkpt lat="37.05105833" lon="-3.37071833">
        <ele>3245.0</ele>
        <time>2022-11-20T12:22:40.000Z</time>
      </trkpt>
      <trkpt lat="37.05105" lon="-3.37071833">
        <ele>3245.0</ele>
        <time>2022-11-20T12:22:41.000Z</time>
      </trkpt>
      <trkpt lat="37.05104167" lon="-3.37072">
        <ele>3245.0</ele>
        <time>2022-11-20T12:22:42.000Z</time>
      </trkpt>
      <trkpt lat="37.051035" lon="-3.370725">
        <ele>3244.0</ele>
        <time>2022-11-20T12:22:43.000Z</time>
      </trkpt>
      <trkpt lat="37.05103" lon="-3.370735">
        <ele>3244.0</ele>
        <time>2022-11-20T12:22:44.000Z</time>
      </trkpt>
      <trkpt lat="37.05102667" lon="-3.37074667">
        <ele>3244.0</ele>
        <time>2022-11-20T12:22:45.000Z</time>
      </trkpt>
      <trkpt lat="37.05102" lon="-3.37075833">
        <ele>3244.0</ele>
        <time>2022-11-20T12:22:46.000Z</time>
      </trkpt>
      <trkpt lat="37.05101333" lon="-3.37076833">
        <ele>3244.0</ele>
        <time>2022-11-20T12:22:47.000Z</time>
      </trkpt>
      <trkpt lat="37.051005" lon="-3.370775">
        <ele>3244.0</ele>
        <time>2022-11-20T12:22:48.000Z</time>
      </trkpt>
      <trkpt lat="37.051" lon="-3.37078333">
        <ele>3243.0</ele>
        <time>2022-11-20T12:22:49.000Z</time>
      </trkpt>
      <trkpt lat="37.05099667" lon="-3.37079333">
        <ele>3243.0</ele>
        <time>2022-11-20T12:22:50.000Z</time>
      </trkpt>
      <trkpt lat="37.05099167" lon="-3.37080333">
        <ele>3243.0</ele>
        <time>2022-11-20T12:22:51.000Z</time>
      </trkpt>
      <trkpt lat="37.05099167" lon="-3.370815">
        <ele>3243.0</ele>
        <time>2022-11-20T12:22:52.000Z</time>
      </trkpt>
      <trkpt lat="37.05099333" lon="-3.37082833">
        <ele>3243.0</ele>
        <time>2022-11-20T12:22:53.000Z</time>
      </trkpt>
      <trkpt lat="37.05099833" lon="-3.37084167">
        <ele>3243.0</ele>
        <time>2022-11-20T12:22:54.000Z</time>
      </trkpt>
      <trkpt lat="37.051" lon="-3.37085833">
        <ele>3243.0</ele>
        <time>2022-11-20T12:22:55.000Z</time>
      </trkpt>
      <trkpt lat="37.051" lon="-3.37087333">
        <ele>3242.0</ele>
        <time>2022-11-20T12:22:56.000Z</time>
      </trkpt>
      <trkpt lat="37.05099833" lon="-3.370885">
        <ele>3242.0</ele>
        <time>2022-11-20T12:22:57.000Z</time>
      </trkpt>
      <trkpt lat="37.05099833" lon="-3.37089833">
        <ele>3242.0</ele>
        <time>2022-11-20T12:22:58.000Z</time>
      </trkpt>
      <trkpt lat="37.05100167" lon="-3.37090833">
        <ele>3242.0</ele>
        <time>2022-11-20T12:22:59.000Z</time>
      </trkpt>
      <trkpt lat="37.05100833" lon="-3.370915">
        <ele>3242.0</ele>
        <time>2022-11-20T12:23:00.000Z</time>
      </trkpt>
      <trkpt lat="37.05101667" lon="-3.370925">
        <ele>3242.0</ele>
        <time>2022-11-20T12:23:01.000Z</time>
      </trkpt>
      <trkpt lat="37.051025" lon="-3.37093667">
        <ele>3242.0</ele>
        <time>2022-11-20T12:23:02.000Z</time>
      </trkpt>
      <trkpt lat="37.05103333" lon="-3.37095167">
        <ele>3242.0</ele>
        <time>2022-11-20T12:23:03.000Z</time>
      </trkpt>
      <trkpt lat="37.05104" lon="-3.370965">
        <ele>3241.0</ele>
        <time>2022-11-20T12:23:04.000Z</time>
      </trkpt>
      <trkpt lat="37.05104833" lon="-3.370975">
        <ele>3241.0</ele>
        <time>2022-11-20T12:23:05.000Z</time>
      </trkpt>
      <trkpt lat="37.05105833" lon="-3.37098333">
        <ele>3241.0</ele>
        <time>2022-11-20T12:23:06.000Z</time>
      </trkpt>
      <trkpt lat="37.05106833" lon="-3.370995">
        <ele>3241.0</ele>
        <time>2022-11-20T12:23:07.000Z</time>
      </trkpt>
      <trkpt lat="37.05107333" lon="-3.37100833">
        <ele>3241.0</ele>
        <time>2022-11-20T12:23:08.000Z</time>
      </trkpt>
      <trkpt lat="37.05108" lon="-3.37102">
        <ele>3241.0</ele>
        <time>2022-11-20T12:23:09.000Z</time>
      </trkpt>
      <trkpt lat="37.05108833" lon="-3.37103167">
        <ele>3241.0</ele>
        <time>2022-11-20T12:23:10.000Z</time>
      </trkpt>
      <trkpt lat="37.05109667" lon="-3.37104333">
        <ele>3241.0</ele>
        <time>2022-11-20T12:23:11.000Z</time>
      </trkpt>
      <trkpt lat="37.051105" lon="-3.37105333">
        <ele>3241.0</ele>
        <time>2022-11-20T12:23:12.000Z</time>
      </trkpt>
      <trkpt lat="37.051115" lon="-3.371065">
        <ele>3240.0</ele>
        <time>2022-11-20T12:23:13.000Z</time>
      </trkpt>
      <trkpt lat="37.05112667" lon="-3.37107167">
        <ele>3240.0</ele>
        <time>2022-11-20T12:23:14.000Z</time>
      </trkpt>
      <trkpt lat="37.05113833" lon="-3.37108333">
        <ele>3240.0</ele>
        <time>2022-11-20T12:23:15.000Z</time>
      </trkpt>
      <trkpt lat="37.05115" lon="-3.371095">
        <ele>3240.0</ele>
        <time>2022-11-20T12:23:16.000Z</time>
      </trkpt>
      <trkpt lat="37.05116" lon="-3.37110833">
        <ele>3240.0</ele>
        <time>2022-11-20T12:23:17.000Z</time>
      </trkpt>
      <trkpt lat="37.05117167" lon="-3.37112167">
        <ele>3240.0</ele>
        <time>2022-11-20T12:23:18.000Z</time>
      </trkpt>
      <trkpt lat="37.05118167" lon="-3.37113667">
        <ele>3239.0</ele>
        <time>2022-11-20T12:23:19.000Z</time>
      </trkpt>
      <trkpt lat="37.05119167" lon="-3.37115167">
        <ele>3239.0</ele>
        <time>2022-11-20T12:23:20.000Z</time>
      </trkpt>
      <trkpt lat="37.0512" lon="-3.37116667">
        <ele>3239.0</ele>
        <time>2022-11-20T12:23:21.000Z</time>
      </trkpt>
      <trkpt lat="37.05120833" lon="-3.37118333">
        <ele>3239.0</ele>
        <time>2022-11-20T12:23:22.000Z</time>
      </trkpt>
      <trkpt lat="37.051215" lon="-3.37119833">
        <ele>3239.0</ele>
        <time>2022-11-20T12:23:23.000Z</time>
      </trkpt>
      <trkpt lat="37.05122167" lon="-3.37121333">
        <ele>3239.0</ele>
        <time>2022-11-20T12:23:24.000Z</time>
      </trkpt>
      <trkpt lat="37.051225" lon="-3.371225">
        <ele>3239.0</ele>
        <time>2022-11-20T12:23:25.000Z</time>
      </trkpt>
      <trkpt lat="37.05122833" lon="-3.37124333">
        <ele>3239.0</ele>
        <time>2022-11-20T12:23:26.000Z</time>
      </trkpt>
      <trkpt lat="37.05123167" lon="-3.37125833">
        <ele>3239.0</ele>
        <time>2022-11-20T12:23:27.000Z</time>
      </trkpt>
      <trkpt lat="37.05123833" lon="-3.37127167">
        <ele>3238.0</ele>
        <time>2022-11-20T12:23:28.000Z</time>
      </trkpt>
      <trkpt lat="37.051245" lon="-3.37128167">
        <ele>3238.0</ele>
        <time>2022-11-20T12:23:29.000Z</time>
      </trkpt>
      <trkpt lat="37.051245" lon="-3.37128833">
        <ele>3238.0</ele>
        <time>2022-11-20T12:23:30.000Z</time>
      </trkpt>
      <trkpt lat="37.051245" lon="-3.37129167">
        <ele>3238.0</ele>
        <time>2022-11-20T12:23:31.000Z</time>
      </trkpt>
      <trkpt lat="37.051245" lon="-3.37129167">
        <ele>3238.0</ele>
        <time>2022-11-20T12:23:32.000Z</time>
      </trkpt>
      <trkpt lat="37.051245" lon="-3.37129167">
        <ele>3238.0</ele>
        <time>2022-11-20T12:23:33.000Z</time>
      </trkpt>
      <trkpt lat="37.051245" lon="-3.37129167">
        <ele>3238.0</ele>
        <time>2022-11-20T12:23:34.000Z</time>
      </trkpt>
      <trkpt lat="37.051245" lon="-3.37129167">
        <ele>3238.0</ele>
        <time>2022-11-20T12:23:35.000Z</time>
      </trkpt>
      <trkpt lat="37.051245" lon="-3.37129167">
        <ele>3238.0</ele>
        <time>2022-11-20T12:23:36.000Z</time>
      </trkpt>
      <trkpt lat="37.05124167" lon="-3.37129">
        <ele>3238.0</ele>
        <time>2022-11-20T12:23:37.000Z</time>
      </trkpt>
      <trkpt lat="37.05123333" lon="-3.37128167">
        <ele>3238.0</ele>
        <time>2022-11-20T12:23:38.000Z</time>
      </trkpt>
      <trkpt lat="37.05122333" lon="-3.37127667">
        <ele>3238.0</ele>
        <time>2022-11-20T12:23:39.000Z</time>
      </trkpt>
      <trkpt lat="37.05121667" lon="-3.37127333">
        <ele>3238.0</ele>
        <time>2022-11-20T12:23:40.000Z</time>
      </trkpt>
      <trkpt lat="37.05121333" lon="-3.37127667">
        <ele>3238.0</ele>
        <time>2022-11-20T12:23:41.000Z</time>
      </trkpt>
      <trkpt lat="37.05120667" lon="-3.37128167">
        <ele>3238.0</ele>
        <time>2022-11-20T12:23:42.000Z</time>
      </trkpt>
      <trkpt lat="37.05120333" lon="-3.37128333">
        <ele>3237.0</ele>
        <time>2022-11-20T12:23:43.000Z</time>
      </trkpt>
      <trkpt lat="37.05119667" lon="-3.37128833">
        <ele>3237.0</ele>
        <time>2022-11-20T12:23:44.000Z</time>
      </trkpt>
      <trkpt lat="37.05118833" lon="-3.37129333">
        <ele>3237.0</ele>
        <time>2022-11-20T12:23:45.000Z</time>
      </trkpt>
      <trkpt lat="37.05117833" lon="-3.371295">
        <ele>3237.0</ele>
        <time>2022-11-20T12:23:46.000Z</time>
      </trkpt>
      <trkpt lat="37.05116833" lon="-3.37129833">
        <ele>3236.0</ele>
        <time>2022-11-20T12:23:47.000Z</time>
      </trkpt>
      <trkpt lat="37.05115667" lon="-3.371295">
        <ele>3236.0</ele>
        <time>2022-11-20T12:23:48.000Z</time>
      </trkpt>
      <trkpt lat="37.051145" lon="-3.37129">
        <ele>3236.0</ele>
        <time>2022-11-20T12:23:49.000Z</time>
      </trkpt>
      <trkpt lat="37.05113167" lon="-3.37128667">
        <ele>3236.0</ele>
        <time>2022-11-20T12:23:50.000Z</time>
      </trkpt>
      <trkpt lat="37.05111833" lon="-3.371285">
        <ele>3236.0</ele>
        <time>2022-11-20T12:23:51.000Z</time>
      </trkpt>
      <trkpt lat="37.05110167" lon="-3.37128333">
        <ele>3236.0</ele>
        <time>2022-11-20T12:23:52.000Z</time>
      </trkpt>
      <trkpt lat="37.05108833" lon="-3.37127667">
        <ele>3236.0</ele>
        <time>2022-11-20T12:23:53.000Z</time>
      </trkpt>
      <trkpt lat="37.051075" lon="-3.37127167">
        <ele>3236.0</ele>
        <time>2022-11-20T12:23:54.000Z</time>
      </trkpt>
      <trkpt lat="37.05105833" lon="-3.37126667">
        <ele>3236.0</ele>
        <time>2022-11-20T12:23:55.000Z</time>
      </trkpt>
      <trkpt lat="37.05104333" lon="-3.37126333">
        <ele>3236.0</ele>
        <time>2022-11-20T12:23:56.000Z</time>
      </trkpt>
      <trkpt lat="37.05103" lon="-3.37125833">
        <ele>3236.0</ele>
        <time>2022-11-20T12:23:57.000Z</time>
      </trkpt>
      <trkpt lat="37.05101333" lon="-3.371255">
        <ele>3236.0</ele>
        <time>2022-11-20T12:23:58.000Z</time>
      </trkpt>
      <trkpt lat="37.05099833" lon="-3.37125167">
        <ele>3236.0</ele>
        <time>2022-11-20T12:23:59.000Z</time>
      </trkpt>
      <trkpt lat="37.050985" lon="-3.37124833">
        <ele>3235.0</ele>
        <time>2022-11-20T12:24:00.000Z</time>
      </trkpt>
      <trkpt lat="37.05097333" lon="-3.371245">
        <ele>3235.0</ele>
        <time>2022-11-20T12:24:01.000Z</time>
      </trkpt>
      <trkpt lat="37.05095833" lon="-3.371245">
        <ele>3235.0</ele>
        <time>2022-11-20T12:24:02.000Z</time>
      </trkpt>
      <trkpt lat="37.05094167" lon="-3.37124333">
        <ele>3235.0</ele>
        <time>2022-11-20T12:24:03.000Z</time>
      </trkpt>
      <trkpt lat="37.05092667" lon="-3.37124333">
        <ele>3235.0</ele>
        <time>2022-11-20T12:24:04.000Z</time>
      </trkpt>
      <trkpt lat="37.05091333" lon="-3.371245">
        <ele>3235.0</ele>
        <time>2022-11-20T12:24:05.000Z</time>
      </trkpt>
      <trkpt lat="37.0509" lon="-3.371245">
        <ele>3235.0</ele>
        <time>2022-11-20T12:24:06.000Z</time>
      </trkpt>
      <trkpt lat="37.050885" lon="-3.37124167">
        <ele>3235.0</ele>
        <time>2022-11-20T12:24:07.000Z</time>
      </trkpt>
      <trkpt lat="37.05087333" lon="-3.37124">
        <ele>3234.0</ele>
        <time>2022-11-20T12:24:08.000Z</time>
      </trkpt>
      <trkpt lat="37.05086167" lon="-3.37123667">
        <ele>3234.0</ele>
        <time>2022-11-20T12:24:09.000Z</time>
      </trkpt>
      <trkpt lat="37.05085167" lon="-3.37123167">
        <ele>3234.0</ele>
        <time>2022-11-20T12:24:10.000Z</time>
      </trkpt>
      <trkpt lat="37.05084" lon="-3.37122833">
        <ele>3234.0</ele>
        <time>2022-11-20T12:24:11.000Z</time>
      </trkpt>
      <trkpt lat="37.05082833" lon="-3.371225">
        <ele>3234.0</ele>
        <time>2022-11-20T12:24:12.000Z</time>
      </trkpt>
      <trkpt lat="37.05081667" lon="-3.37122333">
        <ele>3234.0</ele>
        <time>2022-11-20T12:24:13.000Z</time>
      </trkpt>
      <trkpt lat="37.050805" lon="-3.37122">
        <ele>3234.0</ele>
        <time>2022-11-20T12:24:14.000Z</time>
      </trkpt>
      <trkpt lat="37.050795" lon="-3.37121333">
        <ele>3234.0</ele>
        <time>2022-11-20T12:24:15.000Z</time>
      </trkpt>
      <trkpt lat="37.050785" lon="-3.371205">
        <ele>3234.0</ele>
        <time>2022-11-20T12:24:16.000Z</time>
      </trkpt>
      <trkpt lat="37.05077333" lon="-3.37119667">
        <ele>3234.0</ele>
        <time>2022-11-20T12:24:17.000Z</time>
      </trkpt>
      <trkpt lat="37.05076167" lon="-3.37119167">
        <ele>3233.0</ele>
        <time>2022-11-20T12:24:18.000Z</time>
      </trkpt>
      <trkpt lat="37.05075" lon="-3.37118333">
        <ele>3233.0</ele>
        <time>2022-11-20T12:24:19.000Z</time>
      </trkpt>
      <trkpt lat="37.05074" lon="-3.37117667">
        <ele>3233.0</ele>
        <time>2022-11-20T12:24:20.000Z</time>
      </trkpt>
      <trkpt lat="37.05072667" lon="-3.37117">
        <ele>3233.0</ele>
        <time>2022-11-20T12:24:21.000Z</time>
      </trkpt>
      <trkpt lat="37.05071833" lon="-3.371165">
        <ele>3233.0</ele>
        <time>2022-11-20T12:24:22.000Z</time>
      </trkpt>
      <trkpt lat="37.05071167" lon="-3.37116">
        <ele>3233.0</ele>
        <time>2022-11-20T12:24:23.000Z</time>
      </trkpt>
      <trkpt lat="37.05070167" lon="-3.371155">
        <ele>3232.0</ele>
        <time>2022-11-20T12:24:24.000Z</time>
      </trkpt>
      <trkpt lat="37.05069167" lon="-3.37115167">
        <ele>3232.0</ele>
        <time>2022-11-20T12:24:25.000Z</time>
      </trkpt>
      <trkpt lat="37.05068" lon="-3.37115">
        <ele>3232.0</ele>
        <time>2022-11-20T12:24:26.000Z</time>
      </trkpt>
      <trkpt lat="37.05066833" lon="-3.37114667">
        <ele>3232.0</ele>
        <time>2022-11-20T12:24:27.000Z</time>
      </trkpt>
      <trkpt lat="37.05065333" lon="-3.37115">
        <ele>3232.0</ele>
        <time>2022-11-20T12:24:28.000Z</time>
      </trkpt>
      <trkpt lat="37.05064" lon="-3.37115167">
        <ele>3231.0</ele>
        <time>2022-11-20T12:24:29.000Z</time>
      </trkpt>
      <trkpt lat="37.05062667" lon="-3.37115333">
        <ele>3231.0</ele>
        <time>2022-11-20T12:24:30.000Z</time>
      </trkpt>
      <trkpt lat="37.050615" lon="-3.371155">
        <ele>3231.0</ele>
        <time>2022-11-20T12:24:31.000Z</time>
      </trkpt>
      <trkpt lat="37.05061" lon="-3.371155">
        <ele>3231.0</ele>
        <time>2022-11-20T12:24:32.000Z</time>
      </trkpt>
      <trkpt lat="37.05060833" lon="-3.371155">
        <ele>3231.0</ele>
        <time>2022-11-20T12:24:33.000Z</time>
      </trkpt>
      <trkpt lat="37.05060167" lon="-3.37116">
        <ele>3231.0</ele>
        <time>2022-11-20T12:24:34.000Z</time>
      </trkpt>
      <trkpt lat="37.05059333" lon="-3.371165">
        <ele>3231.0</ele>
        <time>2022-11-20T12:24:35.000Z</time>
      </trkpt>
      <trkpt lat="37.05058667" lon="-3.37116833">
        <ele>3231.0</ele>
        <time>2022-11-20T12:24:36.000Z</time>
      </trkpt>
      <trkpt lat="37.05058" lon="-3.371175">
        <ele>3231.0</ele>
        <time>2022-11-20T12:24:37.000Z</time>
      </trkpt>
      <trkpt lat="37.05058" lon="-3.371175">
        <ele>3231.0</ele>
        <time>2022-11-20T12:24:38.000Z</time>
      </trkpt>
      <trkpt lat="37.05058" lon="-3.371175">
        <ele>3231.0</ele>
        <time>2022-11-20T12:24:39.000Z</time>
      </trkpt>
      <trkpt lat="37.05057833" lon="-3.371175">
        <ele>3231.0</ele>
        <time>2022-11-20T12:24:40.000Z</time>
      </trkpt>
      <trkpt lat="37.05058167" lon="-3.37117333">
        <ele>3230.0</ele>
        <time>2022-11-20T12:24:41.000Z</time>
      </trkpt>
      <trkpt lat="37.05058667" lon="-3.37118">
        <ele>3230.0</ele>
        <time>2022-11-20T12:24:42.000Z</time>
      </trkpt>
      <trkpt lat="37.05059167" lon="-3.37119167">
        <ele>3230.0</ele>
        <time>2022-11-20T12:24:43.000Z</time>
      </trkpt>
      <trkpt lat="37.05059667" lon="-3.37120333">
        <ele>3230.0</ele>
        <time>2022-11-20T12:24:44.000Z</time>
      </trkpt>
      <trkpt lat="37.05060333" lon="-3.37121667">
        <ele>3230.0</ele>
        <time>2022-11-20T12:24:45.000Z</time>
      </trkpt>
      <trkpt lat="37.05061" lon="-3.37122667">
        <ele>3229.0</ele>
        <time>2022-11-20T12:24:46.000Z</time>
      </trkpt>
      <trkpt lat="37.05062" lon="-3.37124">
        <ele>3229.0</ele>
        <time>2022-11-20T12:24:47.000Z</time>
      </trkpt>
      <trkpt lat="37.05062833" lon="-3.37125167">
        <ele>3229.0</ele>
        <time>2022-11-20T12:24:48.000Z</time>
      </trkpt>
      <trkpt lat="37.05063667" lon="-3.37126333">
        <ele>3229.0</ele>
        <time>2022-11-20T12:24:49.000Z</time>
      </trkpt>
      <trkpt lat="37.05064333" lon="-3.37127333">
        <ele>3229.0</ele>
        <time>2022-11-20T12:24:50.000Z</time>
      </trkpt>
      <trkpt lat="37.05065" lon="-3.37128333">
        <ele>3228.0</ele>
        <time>2022-11-20T12:24:51.000Z</time>
      </trkpt>
      <trkpt lat="37.05065333" lon="-3.37129333">
        <ele>3228.0</ele>
        <time>2022-11-20T12:24:52.000Z</time>
      </trkpt>
      <trkpt lat="37.05065667" lon="-3.37130167">
        <ele>3228.0</ele>
        <time>2022-11-20T12:24:53.000Z</time>
      </trkpt>
      <trkpt lat="37.050665" lon="-3.37131167">
        <ele>3228.0</ele>
        <time>2022-11-20T12:24:54.000Z</time>
      </trkpt>
      <trkpt lat="37.05067333" lon="-3.37132167">
        <ele>3228.0</ele>
        <time>2022-11-20T12:24:55.000Z</time>
      </trkpt>
      <trkpt lat="37.05068" lon="-3.37133333">
        <ele>3228.0</ele>
        <time>2022-11-20T12:24:56.000Z</time>
      </trkpt>
      <trkpt lat="37.05068333" lon="-3.37134167">
        <ele>3227.0</ele>
        <time>2022-11-20T12:24:57.000Z</time>
      </trkpt>
      <trkpt lat="37.05068333" lon="-3.37134333">
        <ele>3227.0</ele>
        <time>2022-11-20T12:24:58.000Z</time>
      </trkpt>
      <trkpt lat="37.05068167" lon="-3.37134333">
        <ele>3227.0</ele>
        <time>2022-11-20T12:24:59.000Z</time>
      </trkpt>
      <trkpt lat="37.05068167" lon="-3.37134333">
        <ele>3227.0</ele>
        <time>2022-11-20T12:25:00.000Z</time>
      </trkpt>
      <trkpt lat="37.05068333" lon="-3.371345">
        <ele>3227.0</ele>
        <time>2022-11-20T12:25:01.000Z</time>
      </trkpt>
      <trkpt lat="37.05068667" lon="-3.371355">
        <ele>3227.0</ele>
        <time>2022-11-20T12:25:02.000Z</time>
      </trkpt>
      <trkpt lat="37.05069167" lon="-3.37137">
        <ele>3227.0</ele>
        <time>2022-11-20T12:25:03.000Z</time>
      </trkpt>
      <trkpt lat="37.05069833" lon="-3.37138167">
        <ele>3227.0</ele>
        <time>2022-11-20T12:25:04.000Z</time>
      </trkpt>
      <trkpt lat="37.05070167" lon="-3.37139167">
        <ele>3226.0</ele>
        <time>2022-11-20T12:25:05.000Z</time>
      </trkpt>
      <trkpt lat="37.05070833" lon="-3.37140667">
        <ele>3226.0</ele>
        <time>2022-11-20T12:25:06.000Z</time>
      </trkpt>
      <trkpt lat="37.05071667" lon="-3.37142">
        <ele>3226.0</ele>
        <time>2022-11-20T12:25:07.000Z</time>
      </trkpt>
      <trkpt lat="37.05072333" lon="-3.37143667">
        <ele>3226.0</ele>
        <time>2022-11-20T12:25:08.000Z</time>
      </trkpt>
      <trkpt lat="37.05073167" lon="-3.37145333">
        <ele>3226.0</ele>
        <time>2022-11-20T12:25:09.000Z</time>
      </trkpt>
      <trkpt lat="37.05073667" lon="-3.37146667">
        <ele>3226.0</ele>
        <time>2022-11-20T12:25:10.000Z</time>
      </trkpt>
      <trkpt lat="37.05074333" lon="-3.37148">
        <ele>3225.0</ele>
        <time>2022-11-20T12:25:11.000Z</time>
      </trkpt>
      <trkpt lat="37.05075167" lon="-3.37149333">
        <ele>3225.0</ele>
        <time>2022-11-20T12:25:12.000Z</time>
      </trkpt>
      <trkpt lat="37.05075667" lon="-3.371505">
        <ele>3225.0</ele>
        <time>2022-11-20T12:25:13.000Z</time>
      </trkpt>
      <trkpt lat="37.05076333" lon="-3.37152">
        <ele>3225.0</ele>
        <time>2022-11-20T12:25:14.000Z</time>
      </trkpt>
      <trkpt lat="37.05077" lon="-3.37153667">
        <ele>3224.0</ele>
        <time>2022-11-20T12:25:15.000Z</time>
      </trkpt>
      <trkpt lat="37.050775" lon="-3.37155167">
        <ele>3224.0</ele>
        <time>2022-11-20T12:25:16.000Z</time>
      </trkpt>
      <trkpt lat="37.05078333" lon="-3.37156833">
        <ele>3224.0</ele>
        <time>2022-11-20T12:25:17.000Z</time>
      </trkpt>
      <trkpt lat="37.05079" lon="-3.37158333">
        <ele>3224.0</ele>
        <time>2022-11-20T12:25:18.000Z</time>
      </trkpt>
      <trkpt lat="37.05079833" lon="-3.37159667">
        <ele>3224.0</ele>
        <time>2022-11-20T12:25:19.000Z</time>
      </trkpt>
      <trkpt lat="37.05080667" lon="-3.37160833">
        <ele>3223.0</ele>
        <time>2022-11-20T12:25:20.000Z</time>
      </trkpt>
      <trkpt lat="37.05081333" lon="-3.37161833">
        <ele>3223.0</ele>
        <time>2022-11-20T12:25:21.000Z</time>
      </trkpt>
      <trkpt lat="37.05082" lon="-3.37163">
        <ele>3223.0</ele>
        <time>2022-11-20T12:25:22.000Z</time>
      </trkpt>
      <trkpt lat="37.05082833" lon="-3.37164">
        <ele>3223.0</ele>
        <time>2022-11-20T12:25:23.000Z</time>
      </trkpt>
      <trkpt lat="37.05083667" lon="-3.37165167">
        <ele>3223.0</ele>
        <time>2022-11-20T12:25:24.000Z</time>
      </trkpt>
      <trkpt lat="37.05083833" lon="-3.37166">
        <ele>3222.0</ele>
        <time>2022-11-20T12:25:25.000Z</time>
      </trkpt>
      <trkpt lat="37.050835" lon="-3.37166833">
        <ele>3222.0</ele>
        <time>2022-11-20T12:25:26.000Z</time>
      </trkpt>
      <trkpt lat="37.050835" lon="-3.37167833">
        <ele>3222.0</ele>
        <time>2022-11-20T12:25:27.000Z</time>
      </trkpt>
      <trkpt lat="37.05083667" lon="-3.37169167">
        <ele>3222.0</ele>
        <time>2022-11-20T12:25:28.000Z</time>
      </trkpt>
      <trkpt lat="37.05083333" lon="-3.37171">
        <ele>3221.0</ele>
        <time>2022-11-20T12:25:29.000Z</time>
      </trkpt>
      <trkpt lat="37.05082167" lon="-3.37172833">
        <ele>3221.0</ele>
        <time>2022-11-20T12:25:30.000Z</time>
      </trkpt>
      <trkpt lat="37.05080833" lon="-3.37173333">
        <ele>3221.0</ele>
        <time>2022-11-20T12:25:31.000Z</time>
      </trkpt>
      <trkpt lat="37.05079167" lon="-3.37173167">
        <ele>3221.0</ele>
        <time>2022-11-20T12:25:32.000Z</time>
      </trkpt>
      <trkpt lat="37.05077833" lon="-3.37172833">
        <ele>3221.0</ele>
        <time>2022-11-20T12:25:33.000Z</time>
      </trkpt>
      <trkpt lat="37.05076667" lon="-3.37172">
        <ele>3220.0</ele>
        <time>2022-11-20T12:25:34.000Z</time>
      </trkpt>
      <trkpt lat="37.050755" lon="-3.37171">
        <ele>3220.0</ele>
        <time>2022-11-20T12:25:35.000Z</time>
      </trkpt>
      <trkpt lat="37.05074333" lon="-3.37170167">
        <ele>3220.0</ele>
        <time>2022-11-20T12:25:36.000Z</time>
      </trkpt>
      <trkpt lat="37.05073" lon="-3.37169667">
        <ele>3220.0</ele>
        <time>2022-11-20T12:25:37.000Z</time>
      </trkpt>
      <trkpt lat="37.05071667" lon="-3.37169">
        <ele>3220.0</ele>
        <time>2022-11-20T12:25:38.000Z</time>
      </trkpt>
      <trkpt lat="37.05070333" lon="-3.37168167">
        <ele>3219.0</ele>
        <time>2022-11-20T12:25:39.000Z</time>
      </trkpt>
      <trkpt lat="37.05069" lon="-3.37167333">
        <ele>3219.0</ele>
        <time>2022-11-20T12:25:40.000Z</time>
      </trkpt>
      <trkpt lat="37.05067667" lon="-3.37166833">
        <ele>3219.0</ele>
        <time>2022-11-20T12:25:41.000Z</time>
      </trkpt>
      <trkpt lat="37.05066333" lon="-3.371665">
        <ele>3219.0</ele>
        <time>2022-11-20T12:25:42.000Z</time>
      </trkpt>
      <trkpt lat="37.05064833" lon="-3.37166">
        <ele>3219.0</ele>
        <time>2022-11-20T12:25:43.000Z</time>
      </trkpt>
      <trkpt lat="37.05063333" lon="-3.37165333">
        <ele>3219.0</ele>
        <time>2022-11-20T12:25:44.000Z</time>
      </trkpt>
      <trkpt lat="37.05062167" lon="-3.371645">
        <ele>3219.0</ele>
        <time>2022-11-20T12:25:45.000Z</time>
      </trkpt>
      <trkpt lat="37.05061" lon="-3.37164">
        <ele>3219.0</ele>
        <time>2022-11-20T12:25:46.000Z</time>
      </trkpt>
      <trkpt lat="37.05059333" lon="-3.371635">
        <ele>3218.0</ele>
        <time>2022-11-20T12:25:47.000Z</time>
      </trkpt>
      <trkpt lat="37.05057833" lon="-3.37162833">
        <ele>3218.0</ele>
        <time>2022-11-20T12:25:48.000Z</time>
      </trkpt>
      <trkpt lat="37.05056167" lon="-3.37162">
        <ele>3218.0</ele>
        <time>2022-11-20T12:25:49.000Z</time>
      </trkpt>
      <trkpt lat="37.05054833" lon="-3.37161167">
        <ele>3218.0</ele>
        <time>2022-11-20T12:25:50.000Z</time>
      </trkpt>
      <trkpt lat="37.05053167" lon="-3.37160167">
        <ele>3218.0</ele>
        <time>2022-11-20T12:25:51.000Z</time>
      </trkpt>
      <trkpt lat="37.05051667" lon="-3.371595">
        <ele>3217.0</ele>
        <time>2022-11-20T12:25:52.000Z</time>
      </trkpt>
      <trkpt lat="37.05050167" lon="-3.37158667">
        <ele>3217.0</ele>
        <time>2022-11-20T12:25:53.000Z</time>
      </trkpt>
      <trkpt lat="37.05048833" lon="-3.37157833">
        <ele>3217.0</ele>
        <time>2022-11-20T12:25:54.000Z</time>
      </trkpt>
      <trkpt lat="37.050475" lon="-3.37156667">
        <ele>3217.0</ele>
        <time>2022-11-20T12:25:55.000Z</time>
      </trkpt>
      <trkpt lat="37.05046167" lon="-3.371555">
        <ele>3217.0</ele>
        <time>2022-11-20T12:25:56.000Z</time>
      </trkpt>
      <trkpt lat="37.05045" lon="-3.371545">
        <ele>3217.0</ele>
        <time>2022-11-20T12:25:57.000Z</time>
      </trkpt>
      <trkpt lat="37.05043833" lon="-3.37153667">
        <ele>3217.0</ele>
        <time>2022-11-20T12:25:58.000Z</time>
      </trkpt>
      <trkpt lat="37.05042167" lon="-3.37153167">
        <ele>3217.0</ele>
        <time>2022-11-20T12:25:59.000Z</time>
      </trkpt>
      <trkpt lat="37.05040667" lon="-3.37152167">
        <ele>3217.0</ele>
        <time>2022-11-20T12:26:00.000Z</time>
      </trkpt>
      <trkpt lat="37.05039333" lon="-3.37151">
        <ele>3216.0</ele>
        <time>2022-11-20T12:26:01.000Z</time>
      </trkpt>
      <trkpt lat="37.05038" lon="-3.3715">
        <ele>3216.0</ele>
        <time>2022-11-20T12:26:02.000Z</time>
      </trkpt>
      <trkpt lat="37.05036667" lon="-3.37149">
        <ele>3216.0</ele>
        <time>2022-11-20T12:26:03.000Z</time>
      </trkpt>
      <trkpt lat="37.05035333" lon="-3.37148167">
        <ele>3216.0</ele>
        <time>2022-11-20T12:26:04.000Z</time>
      </trkpt>
      <trkpt lat="37.05034" lon="-3.37147333">
        <ele>3216.0</ele>
        <time>2022-11-20T12:26:05.000Z</time>
      </trkpt>
      <trkpt lat="37.05032667" lon="-3.37146667">
        <ele>3216.0</ele>
        <time>2022-11-20T12:26:06.000Z</time>
      </trkpt>
      <trkpt lat="37.050315" lon="-3.37145833">
        <ele>3215.0</ele>
        <time>2022-11-20T12:26:07.000Z</time>
      </trkpt>
      <trkpt lat="37.050305" lon="-3.37145167">
        <ele>3215.0</ele>
        <time>2022-11-20T12:26:08.000Z</time>
      </trkpt>
      <trkpt lat="37.05029" lon="-3.37144333">
        <ele>3215.0</ele>
        <time>2022-11-20T12:26:09.000Z</time>
      </trkpt>
      <trkpt lat="37.05027333" lon="-3.37144">
        <ele>3215.0</ele>
        <time>2022-11-20T12:26:10.000Z</time>
      </trkpt>
      <trkpt lat="37.05025667" lon="-3.37143833">
        <ele>3215.0</ele>
        <time>2022-11-20T12:26:11.000Z</time>
      </trkpt>
      <trkpt lat="37.05024333" lon="-3.37143333">
        <ele>3215.0</ele>
        <time>2022-11-20T12:26:12.000Z</time>
      </trkpt>
      <trkpt lat="37.05023" lon="-3.37142833">
        <ele>3214.0</ele>
        <time>2022-11-20T12:26:13.000Z</time>
      </trkpt>
      <trkpt lat="37.05021833" lon="-3.37142333">
        <ele>3214.0</ele>
        <time>2022-11-20T12:26:14.000Z</time>
      </trkpt>
      <trkpt lat="37.05020667" lon="-3.371415">
        <ele>3214.0</ele>
        <time>2022-11-20T12:26:15.000Z</time>
      </trkpt>
      <trkpt lat="37.050195" lon="-3.37140833">
        <ele>3214.0</ele>
        <time>2022-11-20T12:26:16.000Z</time>
      </trkpt>
      <trkpt lat="37.05018333" lon="-3.37140167">
        <ele>3214.0</ele>
        <time>2022-11-20T12:26:17.000Z</time>
      </trkpt>
      <trkpt lat="37.05017" lon="-3.37139667">
        <ele>3214.0</ele>
        <time>2022-11-20T12:26:18.000Z</time>
      </trkpt>
      <trkpt lat="37.05015833" lon="-3.37139167">
        <ele>3214.0</ele>
        <time>2022-11-20T12:26:19.000Z</time>
      </trkpt>
      <trkpt lat="37.05014833" lon="-3.37138667">
        <ele>3213.0</ele>
        <time>2022-11-20T12:26:20.000Z</time>
      </trkpt>
      <trkpt lat="37.05013833" lon="-3.37137833">
        <ele>3213.0</ele>
        <time>2022-11-20T12:26:21.000Z</time>
      </trkpt>
      <trkpt lat="37.05012833" lon="-3.37137167">
        <ele>3213.0</ele>
        <time>2022-11-20T12:26:22.000Z</time>
      </trkpt>
      <trkpt lat="37.050115" lon="-3.37136667">
        <ele>3213.0</ele>
        <time>2022-11-20T12:26:23.000Z</time>
      </trkpt>
      <trkpt lat="37.05010167" lon="-3.37136667">
        <ele>3213.0</ele>
        <time>2022-11-20T12:26:24.000Z</time>
      </trkpt>
      <trkpt lat="37.05008667" lon="-3.37136333">
        <ele>3213.0</ele>
        <time>2022-11-20T12:26:25.000Z</time>
      </trkpt>
      <trkpt lat="37.05007333" lon="-3.37136">
        <ele>3213.0</ele>
        <time>2022-11-20T12:26:26.000Z</time>
      </trkpt>
      <trkpt lat="37.05005667" lon="-3.37135833">
        <ele>3212.0</ele>
        <time>2022-11-20T12:26:27.000Z</time>
      </trkpt>
      <trkpt lat="37.05004" lon="-3.37136">
        <ele>3212.0</ele>
        <time>2022-11-20T12:26:28.000Z</time>
      </trkpt>
      <trkpt lat="37.05002667" lon="-3.37136333">
        <ele>3212.0</ele>
        <time>2022-11-20T12:26:29.000Z</time>
      </trkpt>
      <trkpt lat="37.05001" lon="-3.37136833">
        <ele>3212.0</ele>
        <time>2022-11-20T12:26:30.000Z</time>
      </trkpt>
      <trkpt lat="37.04999667" lon="-3.37137167">
        <ele>3211.0</ele>
        <time>2022-11-20T12:26:31.000Z</time>
      </trkpt>
      <trkpt lat="37.04998333" lon="-3.371375">
        <ele>3211.0</ele>
        <time>2022-11-20T12:26:32.000Z</time>
      </trkpt>
      <trkpt lat="37.04997333" lon="-3.37138">
        <ele>3211.0</ele>
        <time>2022-11-20T12:26:33.000Z</time>
      </trkpt>
      <trkpt lat="37.04996" lon="-3.37138667">
        <ele>3211.0</ele>
        <time>2022-11-20T12:26:34.000Z</time>
      </trkpt>
      <trkpt lat="37.04994667" lon="-3.37139167">
        <ele>3211.0</ele>
        <time>2022-11-20T12:26:35.000Z</time>
      </trkpt>
      <trkpt lat="37.04993333" lon="-3.37139667">
        <ele>3211.0</ele>
        <time>2022-11-20T12:26:36.000Z</time>
      </trkpt>
      <trkpt lat="37.04992" lon="-3.37140333">
        <ele>3210.0</ele>
        <time>2022-11-20T12:26:37.000Z</time>
      </trkpt>
      <trkpt lat="37.04990667" lon="-3.37140833">
        <ele>3210.0</ele>
        <time>2022-11-20T12:26:38.000Z</time>
      </trkpt>
      <trkpt lat="37.04989333" lon="-3.371415">
        <ele>3210.0</ele>
        <time>2022-11-20T12:26:39.000Z</time>
      </trkpt>
      <trkpt lat="37.04987833" lon="-3.37142167">
        <ele>3210.0</ele>
        <time>2022-11-20T12:26:40.000Z</time>
      </trkpt>
      <trkpt lat="37.049865" lon="-3.37142833">
        <ele>3210.0</ele>
        <time>2022-11-20T12:26:41.000Z</time>
      </trkpt>
      <trkpt lat="37.04985333" lon="-3.37143333">
        <ele>3210.0</ele>
        <time>2022-11-20T12:26:42.000Z</time>
      </trkpt>
      <trkpt lat="37.04983833" lon="-3.37143833">
        <ele>3209.0</ele>
        <time>2022-11-20T12:26:43.000Z</time>
      </trkpt>
      <trkpt lat="37.049825" lon="-3.37144333">
        <ele>3209.0</ele>
        <time>2022-11-20T12:26:44.000Z</time>
      </trkpt>
      <trkpt lat="37.04981167" lon="-3.37144833">
        <ele>3209.0</ele>
        <time>2022-11-20T12:26:45.000Z</time>
      </trkpt>
      <trkpt lat="37.04979667" lon="-3.37145333">
        <ele>3209.0</ele>
        <time>2022-11-20T12:26:46.000Z</time>
      </trkpt>
      <trkpt lat="37.04978" lon="-3.37145833">
        <ele>3209.0</ele>
        <time>2022-11-20T12:26:47.000Z</time>
      </trkpt>
      <trkpt lat="37.049765" lon="-3.37145833">
        <ele>3209.0</ele>
        <time>2022-11-20T12:26:48.000Z</time>
      </trkpt>
      <trkpt lat="37.04974833" lon="-3.37146167">
        <ele>3208.0</ele>
        <time>2022-11-20T12:26:49.000Z</time>
      </trkpt>
      <trkpt lat="37.04973167" lon="-3.37146333">
        <ele>3208.0</ele>
        <time>2022-11-20T12:26:50.000Z</time>
      </trkpt>
      <trkpt lat="37.04971667" lon="-3.37146333">
        <ele>3208.0</ele>
        <time>2022-11-20T12:26:51.000Z</time>
      </trkpt>
      <trkpt lat="37.04970167" lon="-3.37146333">
        <ele>3208.0</ele>
        <time>2022-11-20T12:26:52.000Z</time>
      </trkpt>
      <trkpt lat="37.049685" lon="-3.371465">
        <ele>3208.0</ele>
        <time>2022-11-20T12:26:53.000Z</time>
      </trkpt>
      <trkpt lat="37.04966833" lon="-3.37146333">
        <ele>3208.0</ele>
        <time>2022-11-20T12:26:54.000Z</time>
      </trkpt>
      <trkpt lat="37.049655" lon="-3.37145833">
        <ele>3207.0</ele>
        <time>2022-11-20T12:26:55.000Z</time>
      </trkpt>
      <trkpt lat="37.04964" lon="-3.37145333">
        <ele>3207.0</ele>
        <time>2022-11-20T12:26:56.000Z</time>
      </trkpt>
      <trkpt lat="37.04962667" lon="-3.37144667">
        <ele>3207.0</ele>
        <time>2022-11-20T12:26:57.000Z</time>
      </trkpt>
      <trkpt lat="37.04961333" lon="-3.37143667">
        <ele>3207.0</ele>
        <time>2022-11-20T12:26:58.000Z</time>
      </trkpt>
      <trkpt lat="37.0496" lon="-3.37142833">
        <ele>3207.0</ele>
        <time>2022-11-20T12:26:59.000Z</time>
      </trkpt>
      <trkpt lat="37.04958833" lon="-3.37141667">
        <ele>3207.0</ele>
        <time>2022-11-20T12:27:00.000Z</time>
      </trkpt>
      <trkpt lat="37.04958" lon="-3.37140333">
        <ele>3206.0</ele>
        <time>2022-11-20T12:27:01.000Z</time>
      </trkpt>
      <trkpt lat="37.04957333" lon="-3.37138833">
        <ele>3206.0</ele>
        <time>2022-11-20T12:27:02.000Z</time>
      </trkpt>
      <trkpt lat="37.049565" lon="-3.37137667">
        <ele>3206.0</ele>
        <time>2022-11-20T12:27:03.000Z</time>
      </trkpt>
      <trkpt lat="37.04956" lon="-3.37136167">
        <ele>3206.0</ele>
        <time>2022-11-20T12:27:04.000Z</time>
      </trkpt>
      <trkpt lat="37.04956" lon="-3.371345">
        <ele>3206.0</ele>
        <time>2022-11-20T12:27:05.000Z</time>
      </trkpt>
      <trkpt lat="37.04956333" lon="-3.371335">
        <ele>3206.0</ele>
        <time>2022-11-20T12:27:06.000Z</time>
      </trkpt>
      <trkpt lat="37.04956833" lon="-3.37132333">
        <ele>3206.0</ele>
        <time>2022-11-20T12:27:07.000Z</time>
      </trkpt>
      <trkpt lat="37.04957167" lon="-3.37131333">
        <ele>3206.0</ele>
        <time>2022-11-20T12:27:08.000Z</time>
      </trkpt>
      <trkpt lat="37.04958" lon="-3.371305">
        <ele>3206.0</ele>
        <time>2022-11-20T12:27:09.000Z</time>
      </trkpt>
      <trkpt lat="37.04958667" lon="-3.371295">
        <ele>3206.0</ele>
        <time>2022-11-20T12:27:10.000Z</time>
      </trkpt>
      <trkpt lat="37.04959167" lon="-3.37128667">
        <ele>3206.0</ele>
        <time>2022-11-20T12:27:11.000Z</time>
      </trkpt>
      <trkpt lat="37.04959833" lon="-3.37127833">
        <ele>3207.0</ele>
        <time>2022-11-20T12:27:12.000Z</time>
      </trkpt>
      <trkpt lat="37.04960333" lon="-3.37126833">
        <ele>3207.0</ele>
        <time>2022-11-20T12:27:13.000Z</time>
      </trkpt>
      <trkpt lat="37.04960833" lon="-3.37126167">
        <ele>3207.0</ele>
        <time>2022-11-20T12:27:14.000Z</time>
      </trkpt>
      <trkpt lat="37.04961333" lon="-3.37125">
        <ele>3207.0</ele>
        <time>2022-11-20T12:27:15.000Z</time>
      </trkpt>
      <trkpt lat="37.04962" lon="-3.37124333">
        <ele>3207.0</ele>
        <time>2022-11-20T12:27:16.000Z</time>
      </trkpt>
      <trkpt lat="37.049625" lon="-3.37123333">
        <ele>3207.0</ele>
        <time>2022-11-20T12:27:17.000Z</time>
      </trkpt>
      <trkpt lat="37.04963" lon="-3.37122333">
        <ele>3207.0</ele>
        <time>2022-11-20T12:27:18.000Z</time>
      </trkpt>
      <trkpt lat="37.04963333" lon="-3.371215">
        <ele>3208.0</ele>
        <time>2022-11-20T12:27:19.000Z</time>
      </trkpt>
      <trkpt lat="37.04963833" lon="-3.37120333">
        <ele>3208.0</ele>
        <time>2022-11-20T12:27:20.000Z</time>
      </trkpt>
      <trkpt lat="37.04964333" lon="-3.37119333">
        <ele>3208.0</ele>
        <time>2022-11-20T12:27:21.000Z</time>
      </trkpt>
      <trkpt lat="37.04965" lon="-3.37118167">
        <ele>3208.0</ele>
        <time>2022-11-20T12:27:22.000Z</time>
      </trkpt>
      <trkpt lat="37.049655" lon="-3.37117">
        <ele>3208.0</ele>
        <time>2022-11-20T12:27:23.000Z</time>
      </trkpt>
      <trkpt lat="37.04965667" lon="-3.37116">
        <ele>3208.0</ele>
        <time>2022-11-20T12:27:24.000Z</time>
      </trkpt>
      <trkpt lat="37.04966" lon="-3.37115">
        <ele>3208.0</ele>
        <time>2022-11-20T12:27:25.000Z</time>
      </trkpt>
      <trkpt lat="37.04966333" lon="-3.37114">
        <ele>3208.0</ele>
        <time>2022-11-20T12:27:26.000Z</time>
      </trkpt>
      <trkpt lat="37.04966833" lon="-3.371125">
        <ele>3208.0</ele>
        <time>2022-11-20T12:27:27.000Z</time>
      </trkpt>
      <trkpt lat="37.04967167" lon="-3.37111167">
        <ele>3208.0</ele>
        <time>2022-11-20T12:27:28.000Z</time>
      </trkpt>
      <trkpt lat="37.049675" lon="-3.37110167">
        <ele>3209.0</ele>
        <time>2022-11-20T12:27:29.000Z</time>
      </trkpt>
      <trkpt lat="37.04968" lon="-3.37109">
        <ele>3209.0</ele>
        <time>2022-11-20T12:27:30.000Z</time>
      </trkpt>
      <trkpt lat="37.04968667" lon="-3.37108333">
        <ele>3209.0</ele>
        <time>2022-11-20T12:27:31.000Z</time>
      </trkpt>
      <trkpt lat="37.04969667" lon="-3.37108167">
        <ele>3209.0</ele>
        <time>2022-11-20T12:27:32.000Z</time>
      </trkpt>
      <trkpt lat="37.04970667" lon="-3.37108333">
        <ele>3209.0</ele>
        <time>2022-11-20T12:27:33.000Z</time>
      </trkpt>
      <trkpt lat="37.04971667" lon="-3.37108667">
        <ele>3209.0</ele>
        <time>2022-11-20T12:27:34.000Z</time>
      </trkpt>
      <trkpt lat="37.04972167" lon="-3.37109167">
        <ele>3209.0</ele>
        <time>2022-11-20T12:27:35.000Z</time>
      </trkpt>
      <trkpt lat="37.04972333" lon="-3.37109833">
        <ele>3209.0</ele>
        <time>2022-11-20T12:27:36.000Z</time>
      </trkpt>
      <trkpt lat="37.04972667" lon="-3.371105">
        <ele>3210.0</ele>
        <time>2022-11-20T12:27:37.000Z</time>
      </trkpt>
      <trkpt lat="37.04972833" lon="-3.37110833">
        <ele>3210.0</ele>
        <time>2022-11-20T12:27:38.000Z</time>
      </trkpt>
      <trkpt lat="37.04973167" lon="-3.37111167">
        <ele>3210.0</ele>
        <time>2022-11-20T12:27:39.000Z</time>
      </trkpt>
      <trkpt lat="37.04973167" lon="-3.37111333">
        <ele>3210.0</ele>
        <time>2022-11-20T12:27:40.000Z</time>
      </trkpt>
      <trkpt lat="37.04973167" lon="-3.37111333">
        <ele>3210.0</ele>
        <time>2022-11-20T12:27:41.000Z</time>
      </trkpt>
      <trkpt lat="37.04973167" lon="-3.37111">
        <ele>3210.0</ele>
        <time>2022-11-20T12:27:42.000Z</time>
      </trkpt>
      <trkpt lat="37.04973333" lon="-3.37110833">
        <ele>3210.0</ele>
        <time>2022-11-20T12:27:43.000Z</time>
      </trkpt>
      <trkpt lat="37.04973333" lon="-3.37110833">
        <ele>3210.0</ele>
        <time>2022-11-20T12:27:44.000Z</time>
      </trkpt>
      <trkpt lat="37.04973167" lon="-3.37110833">
        <ele>3210.0</ele>
        <time>2022-11-20T12:27:45.000Z</time>
      </trkpt>
      <trkpt lat="37.04973167" lon="-3.37110667">
        <ele>3210.0</ele>
        <time>2022-11-20T12:27:46.000Z</time>
      </trkpt>
      <trkpt lat="37.04972833" lon="-3.37110833">
        <ele>3210.0</ele>
        <time>2022-11-20T12:27:47.000Z</time>
      </trkpt>
      <trkpt lat="37.049725" lon="-3.37110833">
        <ele>3210.0</ele>
        <time>2022-11-20T12:27:48.000Z</time>
      </trkpt>
      <trkpt lat="37.04972333" lon="-3.37110667">
        <ele>3210.0</ele>
        <time>2022-11-20T12:27:49.000Z</time>
      </trkpt>
      <trkpt lat="37.04972167" lon="-3.37110333">
        <ele>3210.0</ele>
        <time>2022-11-20T12:27:50.000Z</time>
      </trkpt>
      <trkpt lat="37.04971833" lon="-3.37110333">
        <ele>3210.0</ele>
        <time>2022-11-20T12:27:51.000Z</time>
      </trkpt>
      <trkpt lat="37.049715" lon="-3.37110333">
        <ele>3210.0</ele>
        <time>2022-11-20T12:27:52.000Z</time>
      </trkpt>
      <trkpt lat="37.04971167" lon="-3.37110333">
        <ele>3210.0</ele>
        <time>2022-11-20T12:27:53.000Z</time>
      </trkpt>
      <trkpt lat="37.04970833" lon="-3.37110333">
        <ele>3210.0</ele>
        <time>2022-11-20T12:27:54.000Z</time>
      </trkpt>
      <trkpt lat="37.049705" lon="-3.37110333">
        <ele>3210.0</ele>
        <time>2022-11-20T12:27:55.000Z</time>
      </trkpt>
      <trkpt lat="37.04970333" lon="-3.37110333">
        <ele>3210.0</ele>
        <time>2022-11-20T12:27:56.000Z</time>
      </trkpt>
      <trkpt lat="37.04969833" lon="-3.37110333">
        <ele>3210.0</ele>
        <time>2022-11-20T12:27:57.000Z</time>
      </trkpt>
      <trkpt lat="37.049695" lon="-3.37110333">
        <ele>3210.0</ele>
        <time>2022-11-20T12:27:58.000Z</time>
      </trkpt>
      <trkpt lat="37.04969167" lon="-3.37110333">
        <ele>3210.0</ele>
        <time>2022-11-20T12:27:59.000Z</time>
      </trkpt>
      <trkpt lat="37.04969" lon="-3.37110167">
        <ele>3210.0</ele>
        <time>2022-11-20T12:28:00.000Z</time>
      </trkpt>
      <trkpt lat="37.04969" lon="-3.3711">
        <ele>3210.0</ele>
        <time>2022-11-20T12:28:01.000Z</time>
      </trkpt>
      <trkpt lat="37.04969" lon="-3.37109833">
        <ele>3210.0</ele>
        <time>2022-11-20T12:28:02.000Z</time>
      </trkpt>
      <trkpt lat="37.04969" lon="-3.371095">
        <ele>3210.0</ele>
        <time>2022-11-20T12:28:03.000Z</time>
      </trkpt>
      <trkpt lat="37.04969" lon="-3.37109">
        <ele>3210.0</ele>
        <time>2022-11-20T12:28:04.000Z</time>
      </trkpt>
      <trkpt lat="37.04968833" lon="-3.371085">
        <ele>3210.0</ele>
        <time>2022-11-20T12:28:05.000Z</time>
      </trkpt>
      <trkpt lat="37.04968833" lon="-3.37108">
        <ele>3210.0</ele>
        <time>2022-11-20T12:28:06.000Z</time>
      </trkpt>
      <trkpt lat="37.04968667" lon="-3.37107667">
        <ele>3210.0</ele>
        <time>2022-11-20T12:28:07.000Z</time>
      </trkpt>
      <trkpt lat="37.04968667" lon="-3.37107333">
        <ele>3210.0</ele>
        <time>2022-11-20T12:28:08.000Z</time>
      </trkpt>
      <trkpt lat="37.04969" lon="-3.37107333">
        <ele>3210.0</ele>
        <time>2022-11-20T12:28:09.000Z</time>
      </trkpt>
      <trkpt lat="37.049695" lon="-3.37107333">
        <ele>3210.0</ele>
        <time>2022-11-20T12:28:10.000Z</time>
      </trkpt>
      <trkpt lat="37.04970167" lon="-3.371075">
        <ele>3210.0</ele>
        <time>2022-11-20T12:28:11.000Z</time>
      </trkpt>
      <trkpt lat="37.04970833" lon="-3.371075">
        <ele>3210.0</ele>
        <time>2022-11-20T12:28:12.000Z</time>
      </trkpt>
      <trkpt lat="37.04971333" lon="-3.371075">
        <ele>3210.0</ele>
        <time>2022-11-20T12:28:13.000Z</time>
      </trkpt>
      <trkpt lat="37.04971667" lon="-3.37107333">
        <ele>3210.0</ele>
        <time>2022-11-20T12:28:14.000Z</time>
      </trkpt>
      <trkpt lat="37.04972" lon="-3.37107">
        <ele>3210.0</ele>
        <time>2022-11-20T12:28:15.000Z</time>
      </trkpt>
      <trkpt lat="37.04972" lon="-3.37106833">
        <ele>3210.0</ele>
        <time>2022-11-20T12:28:16.000Z</time>
      </trkpt>
      <trkpt lat="37.04972" lon="-3.37106833">
        <ele>3210.0</ele>
        <time>2022-11-20T12:28:17.000Z</time>
      </trkpt>
      <trkpt lat="37.04971833" lon="-3.37106833">
        <ele>3210.0</ele>
        <time>2022-11-20T12:28:18.000Z</time>
      </trkpt>
      <trkpt lat="37.049715" lon="-3.37107">
        <ele>3210.0</ele>
        <time>2022-11-20T12:28:19.000Z</time>
      </trkpt>
      <trkpt lat="37.04971167" lon="-3.37107">
        <ele>3210.0</ele>
        <time>2022-11-20T12:28:20.000Z</time>
      </trkpt>
      <trkpt lat="37.04971167" lon="-3.37107">
        <ele>3210.0</ele>
        <time>2022-11-20T12:28:21.000Z</time>
      </trkpt>
      <trkpt lat="37.04971167" lon="-3.37107">
        <ele>3210.0</ele>
        <time>2022-11-20T12:28:22.000Z</time>
      </trkpt>
      <trkpt lat="37.04971167" lon="-3.37107">
        <ele>3210.0</ele>
        <time>2022-11-20T12:28:23.000Z</time>
      </trkpt>
      <trkpt lat="37.04971167" lon="-3.37107">
        <ele>3210.0</ele>
        <time>2022-11-20T12:28:24.000Z</time>
      </trkpt>
      <trkpt lat="37.04971333" lon="-3.37107167">
        <ele>3210.0</ele>
        <time>2022-11-20T12:28:25.000Z</time>
      </trkpt>
      <trkpt lat="37.04971333" lon="-3.371075">
        <ele>3210.0</ele>
        <time>2022-11-20T12:28:26.000Z</time>
      </trkpt>
      <trkpt lat="37.04971167" lon="-3.37107833">
        <ele>3209.0</ele>
        <time>2022-11-20T12:28:27.000Z</time>
      </trkpt>
      <trkpt lat="37.04971" lon="-3.37108333">
        <ele>3209.0</ele>
        <time>2022-11-20T12:28:28.000Z</time>
      </trkpt>
      <trkpt lat="37.04970333" lon="-3.37108333">
        <ele>3209.0</ele>
        <time>2022-11-20T12:28:29.000Z</time>
      </trkpt>
      <trkpt lat="37.04969667" lon="-3.371085">
        <ele>3209.0</ele>
        <time>2022-11-20T12:28:30.000Z</time>
      </trkpt>
      <trkpt lat="37.04969167" lon="-3.371085">
        <ele>3209.0</ele>
        <time>2022-11-20T12:28:31.000Z</time>
      </trkpt>
      <trkpt lat="37.049685" lon="-3.371085">
        <ele>3209.0</ele>
        <time>2022-11-20T12:28:32.000Z</time>
      </trkpt>
      <trkpt lat="37.04968167" lon="-3.37108333">
        <ele>3209.0</ele>
        <time>2022-11-20T12:28:33.000Z</time>
      </trkpt>
      <trkpt lat="37.04967667" lon="-3.37108333">
        <ele>3209.0</ele>
        <time>2022-11-20T12:28:34.000Z</time>
      </trkpt>
      <trkpt lat="37.04967667" lon="-3.37108333">
        <ele>3209.0</ele>
        <time>2022-11-20T12:28:36.000Z</time>
      </trkpt>
      <trkpt lat="37.04967667" lon="-3.37108333">
        <ele>3209.0</ele>
        <time>2022-11-20T12:28:37.000Z</time>
      </trkpt>
      <trkpt lat="37.04966333" lon="-3.371085">
        <ele>3209.0</ele>
        <time>2022-11-20T12:28:38.000Z</time>
      </trkpt>
      <trkpt lat="37.04966" lon="-3.37108833">
        <ele>3209.0</ele>
        <time>2022-11-20T12:28:39.000Z</time>
      </trkpt>
      <trkpt lat="37.04965667" lon="-3.37109333">
        <ele>3209.0</ele>
        <time>2022-11-20T12:28:40.000Z</time>
      </trkpt>
      <trkpt lat="37.04965333" lon="-3.37109667">
        <ele>3209.0</ele>
        <time>2022-11-20T12:28:41.000Z</time>
      </trkpt>
      <trkpt lat="37.04965" lon="-3.37109833">
        <ele>3209.0</ele>
        <time>2022-11-20T12:28:42.000Z</time>
      </trkpt>
      <trkpt lat="37.04964667" lon="-3.37109833">
        <ele>3209.0</ele>
        <time>2022-11-20T12:28:43.000Z</time>
      </trkpt>
      <trkpt lat="37.049645" lon="-3.37109667">
        <ele>3209.0</ele>
        <time>2022-11-20T12:28:44.000Z</time>
      </trkpt>
      <trkpt lat="37.049645" lon="-3.371095">
        <ele>3209.0</ele>
        <time>2022-11-20T12:28:45.000Z</time>
      </trkpt>
      <trkpt lat="37.04964333" lon="-3.37109667">
        <ele>3209.0</ele>
        <time>2022-11-20T12:28:46.000Z</time>
      </trkpt>
      <trkpt lat="37.049645" lon="-3.3711">
        <ele>3209.0</ele>
        <time>2022-11-20T12:28:47.000Z</time>
      </trkpt>
      <trkpt lat="37.049645" lon="-3.37110333">
        <ele>3209.0</ele>
        <time>2022-11-20T12:28:48.000Z</time>
      </trkpt>
      <trkpt lat="37.04964667" lon="-3.37110667">
        <ele>3209.0</ele>
        <time>2022-11-20T12:28:49.000Z</time>
      </trkpt>
      <trkpt lat="37.04964833" lon="-3.37111167">
        <ele>3209.0</ele>
        <time>2022-11-20T12:28:50.000Z</time>
      </trkpt>
      <trkpt lat="37.04964833" lon="-3.37111333">
        <ele>3209.0</ele>
        <time>2022-11-20T12:28:51.000Z</time>
      </trkpt>
      <trkpt lat="37.04964667" lon="-3.37111333">
        <ele>3209.0</ele>
        <time>2022-11-20T12:28:52.000Z</time>
      </trkpt>
      <trkpt lat="37.04964333" lon="-3.37111333">
        <ele>3210.0</ele>
        <time>2022-11-20T12:28:53.000Z</time>
      </trkpt>
      <trkpt lat="37.04964" lon="-3.37111333">
        <ele>3210.0</ele>
        <time>2022-11-20T12:28:54.000Z</time>
      </trkpt>
      <trkpt lat="37.04963667" lon="-3.37111167">
        <ele>3210.0</ele>
        <time>2022-11-20T12:28:55.000Z</time>
      </trkpt>
      <trkpt lat="37.04963167" lon="-3.37111167">
        <ele>3211.0</ele>
        <time>2022-11-20T12:28:56.000Z</time>
      </trkpt>
      <trkpt lat="37.04962667" lon="-3.37111167">
        <ele>3211.0</ele>
        <time>2022-11-20T12:28:57.000Z</time>
      </trkpt>
      <trkpt lat="37.04962667" lon="-3.37111167">
        <ele>3212.0</ele>
        <time>2022-11-20T12:29:00.000Z</time>
      </trkpt>
      <trkpt lat="37.04962667" lon="-3.37111167">
        <ele>3213.0</ele>
        <time>2022-11-20T12:29:01.000Z</time>
      </trkpt>
      <trkpt lat="37.04959333" lon="-3.37112">
        <ele>3213.0</ele>
        <time>2022-11-20T12:29:02.000Z</time>
      </trkpt>
      <trkpt lat="37.04959" lon="-3.37112333">
        <ele>3214.0</ele>
        <time>2022-11-20T12:29:03.000Z</time>
      </trkpt>
      <trkpt lat="37.04959" lon="-3.37112667">
        <ele>3214.0</ele>
        <time>2022-11-20T12:29:04.000Z</time>
      </trkpt>
      <trkpt lat="37.04959167" lon="-3.37112667">
        <ele>3214.0</ele>
        <time>2022-11-20T12:29:05.000Z</time>
      </trkpt>
      <trkpt lat="37.04959167" lon="-3.37112667">
        <ele>3215.0</ele>
        <time>2022-11-20T12:29:07.000Z</time>
      </trkpt>
      <trkpt lat="37.04959167" lon="-3.37112667">
        <ele>3215.0</ele>
        <time>2022-11-20T12:29:08.000Z</time>
      </trkpt>
      <trkpt lat="37.04960667" lon="-3.37113">
        <ele>3215.0</ele>
        <time>2022-11-20T12:29:09.000Z</time>
      </trkpt>
      <trkpt lat="37.04960833" lon="-3.37113">
        <ele>3215.0</ele>
        <time>2022-11-20T12:29:10.000Z</time>
      </trkpt>
      <trkpt lat="37.04960833" lon="-3.37113">
        <ele>3215.0</ele>
        <time>2022-11-20T12:29:11.000Z</time>
      </trkpt>
      <trkpt lat="37.04960833" lon="-3.37113167">
        <ele>3215.0</ele>
        <time>2022-11-20T12:29:12.000Z</time>
      </trkpt>
      <trkpt lat="37.04960667" lon="-3.371135">
        <ele>3216.0</ele>
        <time>2022-11-20T12:29:13.000Z</time>
      </trkpt>
      <trkpt lat="37.049605" lon="-3.37113833">
        <ele>3216.0</ele>
        <time>2022-11-20T12:29:14.000Z</time>
      </trkpt>
      <trkpt lat="37.04960667" lon="-3.37114167">
        <ele>3217.0</ele>
        <time>2022-11-20T12:29:15.000Z</time>
      </trkpt>
      <trkpt lat="37.04960833" lon="-3.37114667">
        <ele>3218.0</ele>
        <time>2022-11-20T12:29:16.000Z</time>
      </trkpt>
      <trkpt lat="37.04961167" lon="-3.37115333">
        <ele>3218.0</ele>
        <time>2022-11-20T12:29:17.000Z</time>
      </trkpt>
      <trkpt lat="37.04961333" lon="-3.37115833">
        <ele>3219.0</ele>
        <time>2022-11-20T12:29:18.000Z</time>
      </trkpt>
      <trkpt lat="37.04961667" lon="-3.37116167">
        <ele>3220.0</ele>
        <time>2022-11-20T12:29:19.000Z</time>
      </trkpt>
      <trkpt lat="37.04961833" lon="-3.371165">
        <ele>3220.0</ele>
        <time>2022-11-20T12:29:20.000Z</time>
      </trkpt>
      <trkpt lat="37.04962" lon="-3.371165">
        <ele>3221.0</ele>
        <time>2022-11-20T12:29:21.000Z</time>
      </trkpt>
      <trkpt lat="37.04962" lon="-3.37116667">
        <ele>3221.0</ele>
        <time>2022-11-20T12:29:22.000Z</time>
      </trkpt>
      <trkpt lat="37.04961833" lon="-3.37116833">
        <ele>3222.0</ele>
        <time>2022-11-20T12:29:23.000Z</time>
      </trkpt>
      <trkpt lat="37.049615" lon="-3.37117167">
        <ele>3223.0</ele>
        <time>2022-11-20T12:29:24.000Z</time>
      </trkpt>
      <trkpt lat="37.04961167" lon="-3.371175">
        <ele>3223.0</ele>
        <time>2022-11-20T12:29:25.000Z</time>
      </trkpt>
      <trkpt lat="37.04961167" lon="-3.371175">
        <ele>3224.0</ele>
        <time>2022-11-20T12:29:27.000Z</time>
      </trkpt>
      <trkpt lat="37.04961167" lon="-3.371175">
        <ele>3225.0</ele>
        <time>2022-11-20T12:29:28.000Z</time>
      </trkpt>
      <trkpt lat="37.04961167" lon="-3.371175">
        <ele>3227.0</ele>
        <time>2022-11-20T12:29:32.000Z</time>
      </trkpt>
      <trkpt lat="37.04961167" lon="-3.371175">
        <ele>3227.0</ele>
        <time>2022-11-20T12:29:33.000Z</time>
      </trkpt>
      <trkpt lat="37.04959167" lon="-3.37119833">
        <ele>3227.0</ele>
        <time>2022-11-20T12:29:34.000Z</time>
      </trkpt>
      <trkpt lat="37.04959167" lon="-3.37119833">
        <ele>3227.0</ele>
        <time>2022-11-20T12:29:36.000Z</time>
      </trkpt>
      <trkpt lat="37.04959167" lon="-3.37119833">
        <ele>3226.0</ele>
        <time>2022-11-20T12:29:37.000Z</time>
      </trkpt>
      <trkpt lat="37.04959333" lon="-3.371185">
        <ele>3226.0</ele>
        <time>2022-11-20T12:29:38.000Z</time>
      </trkpt>
      <trkpt lat="37.04959167" lon="-3.37118167">
        <ele>3225.0</ele>
        <time>2022-11-20T12:29:39.000Z</time>
      </trkpt>
      <trkpt lat="37.04959167" lon="-3.37117833">
        <ele>3224.0</ele>
        <time>2022-11-20T12:29:40.000Z</time>
      </trkpt>
      <trkpt lat="37.04959" lon="-3.37117667">
        <ele>3223.0</ele>
        <time>2022-11-20T12:29:41.000Z</time>
      </trkpt>
      <trkpt lat="37.04959" lon="-3.37117667">
        <ele>3219.0</ele>
        <time>2022-11-20T12:29:48.000Z</time>
      </trkpt>
      <trkpt lat="37.04959" lon="-3.37117667">
        <ele>3216.0</ele>
        <time>2022-11-20T12:29:52.000Z</time>
      </trkpt>
      <trkpt lat="37.04959" lon="-3.37117667">
        <ele>3215.0</ele>
        <time>2022-11-20T12:29:53.000Z</time>
      </trkpt>
    </trkseg>
  </trk>
</gpx>
